
Distance (Route):
Temperature : 21.5°C
Humidity : 70.7%
Pressure : 980.09hPa| Receiver | Frames | First received | Last received |
|---|---|---|---|
| BIOWL1-15 | 547 | 2026-09-04 09:47:47 | 2026-09-04 11:17:57 |
| DL1XH-west | 535 | 2026-09-04 09:51:24 | 2026-09-04 11:18:13 |
| DM0DOS-11 | 444 | 2026-09-04 09:46:20 | 2026-09-04 11:19:53 |
| DL1XH1-15 | 337 | 2026-09-04 09:52:11 | 2026-09-04 11:18:08 |
| DO2JMG | 324 | 2026-09-04 09:56:23 | 2026-09-04 11:05:22 |
| AA1-15 | 307 | 2026-09-04 10:11:21 | 2026-09-04 11:13:53 |
| DF8AY | 294 | 2026-09-04 10:13:56 | 2026-09-04 11:18:48 |
| DL1XH-15 | 286 | 2026-09-04 09:59:22 | 2026-09-04 11:14:29 |
| DB0DAN | 214 | 2026-09-04 10:03:55 | 2026-09-04 11:21:10 |
| DO2SHX-10 | 187 | 2026-09-04 10:16:19 | 2026-09-04 11:09:47 |
| DD8BA-10 | 183 | 2026-09-04 09:47:50 | 2026-09-04 11:15:31 |
| GOEST3-10 | 117 | 2026-09-04 09:48:43 | 2026-09-04 11:08:49 |
| DJ2DS-15 | 113 | 2026-09-04 09:47:48 | 2026-09-04 11:15:54 |
| DL1NUX | 79 | 2026-09-04 10:33:49 | 2026-09-04 10:57:38 |
| DL3AQ-11 | 77 | 2026-09-04 09:58:18 | 2026-09-04 11:11:54 |
| DF5WG-10 | 76 | 2026-09-04 09:55:12 | 2026-09-04 11:05:47 |
| DL4BBY-15 | 57 | 2026-09-04 09:47:52 | 2026-09-04 11:12:32 |
| DO9LL-15 | 50 | 2026-09-04 09:48:01 | 2026-09-04 11:09:13 |
| DO3DL | 38 | 2026-09-04 10:02:05 | 2026-09-04 10:57:19 |
| DL4XJ-10 | 33 | 2026-09-04 10:06:40 | 2026-09-04 11:15:19 |
| BIOWL9-15 | 31 | 2026-09-04 09:56:08 | 2026-09-04 11:14:47 |
| HSKMA3-T | 31 | 2026-09-04 10:22:48 | 2026-09-04 10:59:15 |
| DD1CC3-15 | 27 | 2026-09-04 09:55:44 | 2026-09-04 11:08:57 |
| BUE01 | 26 | 2026-09-04 10:00:44 | 2026-09-04 11:06:29 |
| HTAHTA | 25 | 2026-09-04 09:52:48 | 2026-09-04 11:00:04 |
| DC6BW-12 | 24 | 2026-09-04 09:47:44 | 2026-09-04 11:00:50 |
| DL1LOL-11 | 21 | 2026-09-04 09:46:59 | 2026-09-04 11:14:26 |
| DL1CLM-18 | 18 | 2026-09-04 09:47:50 | 2026-09-04 11:08:27 |
| SONCRA | 18 | 2026-09-04 10:05:49 | 2026-09-04 11:10:04 |
| DL8OAI-8 | 17 | 2026-09-04 10:10:07 | 2026-09-04 11:10:56 |
| SMARD9-15 | 17 | 2026-09-04 10:15:00 | 2026-09-04 11:09:53 |
| DD1CC8 | 16 | 2026-09-04 10:04:49 | 2026-09-04 11:08:59 |
| DF8AY-15 | 16 | 2026-09-04 10:17:49 | 2026-09-04 11:14:58 |
| EDDB2-12 | 15 | 2026-09-04 10:29:41 | 2026-09-04 11:08:29 |
| BIOWL7-15 | 14 | 2026-09-04 09:52:23 | 2026-09-04 11:15:32 |
| DK9SH | 14 | 2026-09-04 09:53:01 | 2026-09-04 10:44:59 |
| DF4FW | 14 | 2026-09-04 09:57:17 | 2026-09-04 10:44:44 |
| DJ2KF-10 | 14 | 2026-09-04 09:59:55 | 2026-09-04 10:51:07 |
| SONDE2-11 | 14 | 2026-09-04 10:29:43 | 2026-09-04 10:59:44 |
| D01LWL | 13 | 2026-09-04 10:15:19 | 2026-09-04 11:14:50 |
| DF2AP-13 | 11 | 2026-09-04 10:23:33 | 2026-09-04 11:08:24 |
| SO1NDE-10 | 11 | 2026-09-04 10:35:47 | 2026-09-04 10:57:07 |
| DB0NH | 10 | 2026-09-04 10:12:33 | 2026-09-04 10:47:27 |
| DO2LYB-13 | 8 | 2026-09-04 10:07:57 | 2026-09-04 11:02:11 |
| SMARD9-10 | 6 | 2026-09-04 10:10:17 | 2026-09-04 11:12:33 |
| DB0UT-7 | 5 | 2026-09-04 10:00:06 | 2026-09-04 10:10:18 |
| DL1ZP-14 | 4 | 2026-09-04 10:33:29 | 2026-09-04 10:46:56 |
| EDDB2-11 | 4 | 2026-09-04 10:47:28 | 2026-09-04 10:56:46 |
| DL3OBA | 3 | 2026-09-04 10:22:40 | 2026-09-04 10:39:27 |
| DK5PH-5 | 3 | 2026-09-04 10:41:39 | 2026-09-04 10:44:01 |
| S3001 | 2 | 2026-09-04 10:38:57 | 2026-09-04 11:10:00 |
| AP2371 | 2 | 2026-09-04 10:41:59 | 2026-09-04 11:05:48 |
| SP3BTT-10 | 1 | 2026-09-04 10:49:22 | 2026-09-04 10:49:22 |
| Receiver | Date | Latitude | Longitude | Direction | Speed | Altitude | Climb | Temperature | Humidity | Pressure | Voltage | Killtimer | Uptime | BKT | XDATA |
|---|---|---|---|---|---|---|---|---|---|---|---|---|---|---|---|
| DB0DAN | 2026-09-04 11:21:10 | 52.78898 | 10.16578 | 65° | 57km/h | 251m | -4.8m/s | 21.5°C | 70.7% | 980.09hPa | 2.8V | 00:00:00 | 00:00:00 | 00:00:00 | |
| DB0DAN | 2026-09-04 11:20:55 | 52.78805 | 10.16182 | 67° | 66km/h | 333m | -7.3m/s | 20.7°C | 73.2% | 971.03hPa | 2.8V | 00:00:00 | 00:00:00 | 00:00:00 | |
| DB0DAN | 2026-09-04 11:20:40 | 52.78698 | 10.15781 | 65° | 68km/h | 439m | -6m/s | 19.6°C | 77.2% | 958.86hPa | 2.8V | 00:00:00 | 00:00:00 | 00:00:00 | |
| DB0DAN | 2026-09-04 11:20:25 | 52.78576 | 10.15365 | 62° | 73km/h | 543m | -7.1m/s | 18.6°C | 81% | 947.47hPa | 2.7V | 00:00:00 | 00:00:00 | 00:00:00 | |
| DB0DAN | 2026-09-04 11:20:10 | 52.78456 | 10.14935 | 70° | 71km/h | 642m | -5m/s | 17.6°C | 85.4% | 936.49hPa | 2.8V | 00:00:00 | 00:00:00 | 00:00:00 | |
| DB0DAN | 2026-09-04 11:19:55 | 52.78360 | 10.14494 | 69° | 71km/h | 735m | -6.1m/s | 16.6°C | 89.7% | 926.5hPa | 2.8V | 00:00:00 | 00:00:00 | 00:00:00 | |
| DM0DOS-11 | 2026-09-04 11:19:53 | 52.78320 | 10.14289 | 75° | 71km/h | 773m | -4.7m/s | 16.2°C | 91.1% | 922.4hPa | 2.8V | 08:04:39 | 01:47:27 | 00:00:00 | |
| DM0DOS-11 | 2026-09-04 11:19:45 | 52.78279 | 10.14040 | 74° | 82km/h | 815m | -6.1m/s | 15.8°C | 92.9% | 918.1hPa | 2.8V | 08:04:47 | 01:47:19 | 00:00:00 | |
| DB0DAN | 2026-09-04 11:19:40 | 52.78279 | 10.14040 | 74° | 78km/h | 815m | -6.1m/s | 15.8°C | 93.4% | 918.16hPa | 2.8V | 00:00:00 | 00:00:00 | 00:00:00 | |
| DM0DOS-11 | 2026-09-04 11:19:40 | 52.78267 | 10.13973 | 72° | 82km/h | 827m | -5.4m/s | 15.7°C | 93.4% | 916.7hPa | 2.8V | 08:04:49 | 01:47:17 | 00:00:00 | |
| DM0DOS-11 | 2026-09-04 11:19:40 | 52.78247 | 10.13876 | 70° | 80km/h | 842m | -5m/s | 15.6°C | 94.6% | 915.1hPa | 2.8V | 08:04:52 | 01:47:14 | 00:00:00 | |
| DM0DOS-11 | 2026-09-04 11:19:33 | 52.78221 | 10.13754 | 71° | 77km/h | 862m | -5m/s | 15.4°C | 94.5% | 913hPa | 2.8V | 08:04:56 | 01:47:10 | 00:00:00 | |
| DM0DOS-11 | 2026-09-04 11:19:33 | 52.78202 | 10.13660 | 72° | 80km/h | 877m | -5.1m/s | 15.3°C | 95.2% | 911.2hPa | 2.8V | 08:04:59 | 01:47:07 | 00:00:00 | |
| DB0DAN | 2026-09-04 11:19:25 | 52.78182 | 10.13561 | 69° | 82km/h | 892m | -5m/s | 15.2°C | 96.1% | 909.89hPa | 2.8V | 00:00:00 | 00:00:00 | 00:00:00 | |
| DM0DOS-11 | 2026-09-04 11:19:24 | 52.78136 | 10.13369 | 68° | 77km/h | 922m | -5.2m/s | 14.9°C | 96.9% | 906.7hPa | 2.8V | 08:05:08 | 01:46:58 | 00:00:00 | |
| DM0DOS-11 | 2026-09-04 11:19:14 | 52.78095 | 10.13154 | 74° | 82km/h | 960m | -5.6m/s | 14.6°C | 97.5% | 902.7hPa | 2.8V | 08:05:15 | 01:46:51 | 00:00:00 | |
| DB0DAN | 2026-09-04 11:19:10 | 52.78083 | 10.13087 | 72° | 80km/h | 970m | -5.5m/s | 14.5°C | 98.8% | 901.64hPa | 2.8V | 00:00:00 | 00:00:00 | 00:00:00 | |
| DB0DAN | 2026-09-04 11:18:55 | 52.77997 | 10.12616 | 75° | 73km/h | 1050m | -6m/s | 14°C | 100% | 893.27hPa | 2.7V | 00:00:00 | 00:00:00 | 00:00:00 | |
| DF8AY | 2026-09-04 11:18:48 | 52.77943 | 10.12230 | 76° | 84km/h | 1108m | -4.3m/s | 13.8°C | 100% | 887.1hPa | 2.7V | 08:06:42 | 01:46:22 | 00:00:00 | |
| DF8AY | 2026-09-04 11:18:47 | 52.77924 | 10.12099 | 79° | 80km/h | 1125m | -3.7m/s | 13.6°C | 100% | 885.2hPa | 2.7V | 08:06:42 | 01:46:18 | 00:00:00 | |
| DF8AY | 2026-09-04 11:18:43 | 52.77921 | 10.12066 | 80° | 80km/h | 1128m | -4m/s | 13.6°C | 100% | 884.9hPa | 2.7V | 08:06:42 | 01:46:17 | 00:00:00 | |
| DB0DAN | 2026-09-04 11:18:40 | 52.77928 | 10.12132 | 78° | 75km/h | 1120m | -4.3m/s | 13.6°C | 100% | 885.79hPa | 2.7V | 00:00:00 | 00:00:00 | 00:00:00 | |
| DF8AY | 2026-09-04 11:18:30 | 52.77887 | 10.11787 | 79° | 88km/h | 1162m | -4.4m/s | 13.4°C | 100% | 881.4hPa | 2.6V | 08:06:42 | 01:46:09 | 00:00:00 | |
| DF8AY | 2026-09-04 11:18:26 | 52.77870 | 10.11646 | 79° | 86km/h | 1180m | -4.8m/s | 13.3°C | 100% | 879.3hPa | 2.7V | 08:06:42 | 01:46:05 | 00:00:00 | |
| DB0DAN | 2026-09-04 11:18:25 | 52.77866 | 10.11611 | 79° | 82km/h | 1185m | -4.9m/s | 13.3°C | 100% | 878.81hPa | 2.7V | 00:00:00 | 00:00:00 | 00:00:00 | |
| DF8AY | 2026-09-04 11:18:19 | 52.77842 | 10.11399 | 82° | 88km/h | 1214m | -4.5m/s | 13.2°C | 100% | 875.9hPa | 2.7V | 08:06:42 | 01:45:58 | 00:00:00 | |
| DM0DOS-11 | 2026-09-04 11:18:14 | 52.77803 | 10.11029 | 78° | 93km/h | 1262m | -6m/s | 12.9°C | 0% | 871.2hPa | 2.7V | 08:06:18 | 01:45:48 | 00:00:00 | |
| DL1XH-west | 2026-09-04 11:18:13 | 52.77820 | 10.11180 | 80° | 89km/h | 1241m | -4.9m/s | 13.1°C | 100% | 873.2hPa | 2.7V | 08:06:42 | 01:45:52 | 00:00:00 | |
| DB0DAN | 2026-09-04 11:18:10 | 52.77807 | 10.11067 | 79° | 89km/h | 1256m | -5.9m/s | 13°C | 100% | 871.63hPa | 2.7V | 00:00:00 | 00:00:00 | 00:00:00 | |
| DL1XH1-15 | 2026-09-04 11:18:08 | 52.77780 | 10.10847 | 80° | 86km/h | 1290m | -5m/s | 12.8°C | 0% | 868.1hPa | 2.7V | 08:06:23 | 01:45:43 | 00:00:00 | |
| DL1XH-west | 2026-09-04 11:18:08 | 52.77798 | 10.10991 | 77° | 91km/h | 1268m | -5.9m/s | 12.9°C | 100% | 870.3hPa | 2.7V | 08:06:42 | 01:45:47 | 00:00:00 | |
| DF8AY | 2026-09-04 11:18:07 | 52.77793 | 10.10954 | 78° | 89km/h | 1274m | -5.3m/s | 12.9°C | 100% | 870.1hPa | 2.7V | 08:06:42 | 01:45:46 | 00:00:00 | |
| DL1XH-west | 2026-09-04 11:18:05 | 52.77784 | 10.10883 | 80° | 86km/h | 1285m | -5.4m/s | 12.8°C | 100% | 868.6hPa | 2.7V | 08:06:42 | 01:45:44 | 00:00:00 | |
| DF8AY | 2026-09-04 11:18:05 | 52.77777 | 10.10811 | 81° | 88km/h | 1295m | -5m/s | 13°C | 100% | 867.7hPa | 2.7V | 08:06:42 | 01:45:42 | 00:00:00 | |
| DL1XH-west | 2026-09-04 11:18:04 | 52.77780 | 10.10847 | 80° | 86km/h | 1290m | -5m/s | 12.8°C | 100% | 868.1hPa | 2.7V | 08:06:42 | 01:45:43 | 00:00:00 | |
| DL1XH1-15 | 2026-09-04 11:18:03 | 52.77765 | 10.10700 | 78° | 93km/h | 1312m | -5.5m/s | 12.8°C | 0% | 865.9hPa | 2.7V | 08:06:27 | 01:45:39 | 00:00:00 | |
| DL1XH-west | 2026-09-04 11:18:02 | 52.77773 | 10.10775 | 80° | 89km/h | 1300m | -5.8m/s | 13°C | 100% | 867.2hPa | 2.7V | 08:06:42 | 01:45:41 | 00:00:00 | |
| DL1XH-west | 2026-09-04 11:18:00 | 52.77765 | 10.10700 | 78° | 93km/h | 1312m | -5.5m/s | 12.8°C | 100% | 865.9hPa | 2.7V | 08:06:42 | 01:45:39 | 00:00:00 | |
| DL1XH-west | 2026-09-04 11:17:58 | 52.77754 | 10.10623 | 76° | 93km/h | 1323m | -5.6m/s | 12.7°C | 100% | 864.9hPa | 2.6V | 08:06:42 | 01:45:37 | 00:00:00 | |
| BIOWL1-15 | 2026-09-04 11:17:57 | 52.77737 | 10.10511 | 76° | 91km/h | 1340m | -5.6m/s | 12.6°C | 100% | 862.9hPa | 2.7V | 08:07:33 | 01:45:34 | 00:00:00 | |
| DL1XH-west | 2026-09-04 11:17:56 | 52.77742 | 10.10548 | 76° | 91km/h | 1334m | -5.7m/s | 12.7°C | 100% | 863.4hPa | 2.7V | 08:06:42 | 01:45:35 | 00:00:00 | |
| DB0DAN | 2026-09-04 11:17:55 | 52.77737 | 10.10511 | 76° | 86km/h | 1340m | -5.6m/s | 12.6°C | 100% | 862.91hPa | 2.7V | 00:00:00 | 00:00:00 | 00:00:00 | |
| DL1XH-west | 2026-09-04 11:17:54 | 52.77731 | 10.10475 | 76° | 89km/h | 1345m | -5.3m/s | 12.6°C | 100% | 862.3hPa | 2.7V | 08:06:42 | 01:45:33 | 00:00:00 | |
| DL1XH-west | 2026-09-04 11:17:52 | 52.77721 | 10.10401 | 76° | 91km/h | 1355m | -4.7m/s | 12.6°C | 100% | 861.4hPa | 2.7V | 08:06:42 | 01:45:31 | 00:00:00 | |
| DL1XH-west | 2026-09-04 11:17:51 | 52.77715 | 10.10364 | 76° | 91km/h | 1360m | -4.8m/s | 12.5°C | 100% | 860.7hPa | 2.6V | 08:06:42 | 01:45:30 | 00:00:00 | |
| DL1XH-west | 2026-09-04 11:17:49 | 52.77703 | 10.10292 | 75° | 89km/h | 1370m | -4.9m/s | 12.5°C | 100% | 859.7hPa | 2.7V | 08:06:42 | 01:45:28 | 00:00:00 | |
| DL1XH-west | 2026-09-04 11:17:47 | 52.77692 | 10.10220 | 76° | 88km/h | 1380m | -5.4m/s | 12.4°C | 100% | 858.7hPa | 2.7V | 08:06:42 | 01:45:26 | 00:00:00 | |
| DL1XH-west | 2026-09-04 11:17:46 | 52.77686 | 10.10185 | 75° | 89km/h | 1385m | -5m/s | 12.4°C | 100% | 858.1hPa | 2.7V | 08:06:42 | 01:45:25 | 00:00:00 | |
| DL1XH-west | 2026-09-04 11:17:45 | 52.77681 | 10.10149 | 75° | 89km/h | 1390m | -5m/s | 12.4°C | 100% | 857.8hPa | 2.7V | 08:06:42 | 01:45:24 | 00:00:00 | |
| DF8AY | 2026-09-04 11:17:43 | 52.77668 | 10.10076 | 75° | 91km/h | 1400m | -5.4m/s | 12.3°C | 100% | 856.7hPa | 2.6V | 08:07:33 | 01:45:22 | 00:00:00 | |
| DF8AY | 2026-09-04 11:17:42 | 52.77662 | 10.10039 | 76° | 91km/h | 1405m | -4.9m/s | 12.3°C | 100% | 856.2hPa | 2.7V | 08:07:33 | 01:45:21 | 00:00:00 | |
| DL1XH1-15 | 2026-09-04 11:17:42 | 52.77652 | 10.09964 | 77° | 93km/h | 1415m | -5.5m/s | 12.2°C | 0% | 855.2hPa | 2.7V | 08:06:47 | 01:45:19 | 00:00:00 | |
| DF8AY | 2026-09-04 11:17:41 | 52.77657 | 10.10002 | 77° | 93km/h | 1411m | -4.9m/s | 12.3°C | 100% | 855.7hPa | 2.7V | 08:07:33 | 01:45:20 | 00:00:00 | |
| DB0DAN | 2026-09-04 11:17:40 | 52.77652 | 10.09964 | 78° | 89km/h | 1416m | -5.5m/s | 12.2°C | 100% | 855.19hPa | 2.7V | 00:00:00 | 00:00:00 | 00:00:00 | |
| BIOWL1-15 | 2026-09-04 11:17:39 | 52.77647 | 10.09926 | 77° | 95km/h | 1421m | -5.6m/s | 12.2°C | 100% | 854.6hPa | 2.7V | 08:07:33 | 01:45:18 | 00:00:00 | |
| DL1XH-west | 2026-09-04 11:17:38 | 52.77641 | 10.09887 | 76° | 95km/h | 1427m | -5.6m/s | 12.2°C | 100% | 853.9hPa | 2.7V | 08:07:33 | 01:45:17 | 00:00:00 | |
| BIOWL1-15 | 2026-09-04 11:17:37 | 52.77635 | 10.09849 | 74° | 93km/h | 1432m | -5.5m/s | 12.2°C | 100% | 853.4hPa | 2.7V | 08:07:33 | 01:45:16 | 00:00:00 | |
| DL1XH-west | 2026-09-04 11:17:36 | 52.77629 | 10.09812 | 74° | 91km/h | 1438m | -5.5m/s | 12.2°C | 100% | 852.8hPa | 2.6V | 08:07:33 | 01:45:15 | 00:00:00 | |
| DL1XH-west | 2026-09-04 11:17:35 | 52.77623 | 10.09776 | 75° | 89km/h | 1444m | -6m/s | 12.2°C | 100% | 852.4hPa | 2.7V | 08:07:33 | 01:45:14 | 00:00:00 | |
| BIOWL1-15 | 2026-09-04 11:17:34 | 52.77617 | 10.09740 | 75° | 89km/h | 1450m | -6.4m/s | 12.1°C | 100% | 851.8hPa | 2.7V | 08:07:33 | 01:45:13 | 00:00:00 | |
| BIOWL1-15 | 2026-09-04 11:17:33 | 52.77611 | 10.09704 | 76° | 89km/h | 1455m | -5.4m/s | 12.1°C | 100% | 851.2hPa | 2.7V | 08:07:33 | 01:45:12 | 00:00:00 | |
| DL1XH-west | 2026-09-04 11:17:32 | 52.77606 | 10.09667 | 76° | 91km/h | 1462m | -6.5m/s | 12.1°C | 100% | 850.5hPa | 2.7V | 08:07:33 | 01:45:11 | 00:00:00 | |
| DF8AY | 2026-09-04 11:17:31 | 52.77600 | 10.09630 | 76° | 91km/h | 1468m | -6m/s | 12.1°C | 100% | 849.9hPa | 2.7V | 08:07:33 | 01:45:10 | 00:00:00 | |
| BIOWL1-15 | 2026-09-04 11:17:30 | 52.77594 | 10.09593 | 76° | 93km/h | 1474m | -6.2m/s | 12°C | 100% | 849.5hPa | 2.7V | 08:07:33 | 01:45:09 | 00:00:00 | |
| DL1XH1-15 | 2026-09-04 11:17:30 | 52.77589 | 10.09555 | 76° | 93km/h | 1479m | -5.8m/s | 12°C | 0% | 848.6hPa | 2.7V | 08:06:58 | 01:45:08 | 00:00:00 | |
| DL1XH-west | 2026-09-04 11:17:29 | 52.77589 | 10.09555 | 77° | 93km/h | 1479m | -5.8m/s | 12°C | 100% | 848.6hPa | 2.7V | 08:07:33 | 01:45:08 | 00:00:00 | |
| BIOWL1-15 | 2026-09-04 11:17:28 | 52.77583 | 10.09517 | 77° | 95km/h | 1486m | -6.1m/s | 12°C | 100% | 848.2hPa | 2.6V | 08:07:33 | 01:45:07 | 00:00:00 | |
| DL1XH-west | 2026-09-04 11:17:27 | 52.77578 | 10.09479 | 78° | 95km/h | 1491m | -5.8m/s | 11.9°C | 100% | 847.6hPa | 2.7V | 08:07:33 | 01:45:06 | 00:00:00 | |
| BIOWL1-15 | 2026-09-04 11:17:26 | 52.77573 | 10.09441 | 78° | 93km/h | 1497m | -5.7m/s | 11.9°C | 100% | 847hPa | 2.7V | 08:07:33 | 01:45:05 | 00:00:00 | |
| DB0DAN | 2026-09-04 11:17:25 | 52.77568 | 10.09402 | 77° | 89km/h | 1502m | -4.9m/s | 11.9°C | 100% | 846.36hPa | 2.7V | 00:00:00 | 00:00:00 | 00:00:00 | |
| DL1XH-west | 2026-09-04 11:17:25 | 52.77568 | 10.09402 | 77° | 93km/h | 1502m | -4.9m/s | 11.9°C | 100% | 846.4hPa | 2.7V | 08:07:33 | 01:45:04 | 00:00:00 | |
| BIOWL1-15 | 2026-09-04 11:17:24 | 52.77541 | 10.09213 | 76° | 95km/h | 1529m | -5.2m/s | 11.7°C | 100% | 843.8hPa | 2.7V | 08:07:33 | 01:44:59 | 00:00:00 | |
| DL1XH-west | 2026-09-04 11:17:23 | 52.77558 | 10.09327 | 77° | 93km/h | 1513m | -5.5m/s | 11.8°C | 100% | 845.3hPa | 2.7V | 08:07:33 | 01:45:02 | 00:00:00 | |
| DL1XH-west | 2026-09-04 11:17:21 | 52.77547 | 10.09251 | 76° | 93km/h | 1523m | -5.3m/s | 11.8°C | 100% | 844.2hPa | 2.6V | 08:07:33 | 01:45:00 | 00:00:00 | |
| DL1XH-west | 2026-09-04 11:17:19 | 52.77536 | 10.09175 | 76° | 93km/h | 1534m | -5.2m/s | 11.6°C | 100% | 843.2hPa | 2.7V | 08:07:33 | 01:44:58 | 00:00:00 | |
| BIOWL1-15 | 2026-09-04 11:17:18 | 52.77521 | 10.09065 | 80° | 89km/h | 1549m | -5m/s | 11.5°C | 100% | 841.9hPa | 2.7V | 08:07:33 | 01:44:55 | 00:00:00 | |
| DL1XH-west | 2026-09-04 11:17:18 | 52.77530 | 10.09138 | 77° | 91km/h | 1539m | -4.9m/s | 11.6°C | 100% | 842.8hPa | 2.7V | 08:07:33 | 01:44:57 | 00:00:00 | |
| DL1XH-west | 2026-09-04 11:17:17 | 52.77525 | 10.09101 | 78° | 89km/h | 1544m | -5.2m/s | 11.6°C | 100% | 842.3hPa | 2.7V | 08:07:33 | 01:44:56 | 00:00:00 | |
| DL1XH-west | 2026-09-04 11:17:15 | 52.77518 | 10.09028 | 82° | 89km/h | 1554m | -5.1m/s | 11.5°C | 100% | 841.1hPa | 2.7V | 08:07:33 | 01:44:54 | 00:00:00 | |
| BIOWL1-15 | 2026-09-04 11:17:14 | 52.77514 | 10.08991 | 82° | 91km/h | 1558m | -4.6m/s | 11.5°C | 100% | 840.8hPa | 2.7V | 08:07:33 | 01:44:53 | 00:00:00 | |
| BIOWL1-15 | 2026-09-04 11:17:12 | 52.77507 | 10.08915 | 80° | 95km/h | 1567m | -4.2m/s | 11.4°C | 100% | 839.7hPa | 2.7V | 08:07:33 | 01:44:51 | 00:00:00 | |
| DL1XH-west | 2026-09-04 11:17:11 | 52.77503 | 10.08876 | 79° | 95km/h | 1572m | -4.3m/s | 11.4°C | 100% | 839.4hPa | 2.7V | 08:07:33 | 01:44:50 | 00:00:00 | |
| DB0DAN | 2026-09-04 11:17:10 | 52.77498 | 10.08837 | 77° | 89km/h | 1576m | -4.1m/s | 11.4°C | 100% | 838.87hPa | 2.6V | 00:00:00 | 00:00:00 | 00:00:00 | |
| BIOWL1-15 | 2026-09-04 11:17:10 | 52.77480 | 10.08724 | 74° | 91km/h | 1588m | -4.5m/s | 11.3°C | 100% | 837.7hPa | 2.7V | 08:07:33 | 01:44:46 | 00:00:00 | |
| DL1XH-west | 2026-09-04 11:17:09 | 52.77492 | 10.08799 | 75° | 95km/h | 1580m | -4.3m/s | 11.3°C | 100% | 838.5hPa | 2.6V | 08:07:33 | 01:44:48 | 00:00:00 | |
| DL1XH-west | 2026-09-04 11:17:08 | 52.77486 | 10.08761 | 74° | 93km/h | 1584m | -4m/s | 11.3°C | 100% | 838.2hPa | 2.7V | 08:07:33 | 01:44:47 | 00:00:00 | |
| BIOWL1-15 | 2026-09-04 11:17:07 | 52.77468 | 10.08651 | 75° | 89km/h | 1597m | -4.2m/s | 11.3°C | 100% | 836.6hPa | 2.7V | 08:07:33 | 01:44:44 | 00:00:00 | |
| DL1XH1-15 | 2026-09-04 11:17:06 | 52.77457 | 10.08580 | 77° | 88km/h | 1605m | -4m/s | 11.3°C | 0% | 835.9hPa | 2.7V | 08:07:24 | 01:44:42 | 00:00:00 | |
| DL1XH-west | 2026-09-04 11:17:06 | 52.77474 | 10.08688 | 75° | 91km/h | 1593m | -4.4m/s | 11.3°C | 100% | 837.2hPa | 2.7V | 08:07:33 | 01:44:45 | 00:00:00 | |
| DL1XH-west | 2026-09-04 11:17:04 | 52.77462 | 10.08616 | 77° | 88km/h | 1601m | -4.7m/s | 11.3°C | 100% | 836.4hPa | 2.7V | 08:07:33 | 01:44:43 | 00:00:00 | |
| BIOWL1-15 | 2026-09-04 11:17:03 | 52.77457 | 10.08580 | 77° | 88km/h | 1606m | -4m/s | 11.3°C | 100% | 835.9hPa | 2.7V | 08:07:33 | 01:44:42 | 00:00:00 | |
| DF8AY | 2026-09-04 11:17:02 | 52.77453 | 10.08545 | 79° | 88km/h | 1610m | -4.6m/s | 11.2°C | 100% | 835.5hPa | 2.6V | 08:07:33 | 01:44:41 | 00:00:00 | |
| DL1XH-west | 2026-09-04 11:17:01 | 52.77448 | 10.08509 | 80° | 88km/h | 1614m | -4.2m/s | 11.3°C | 100% | 834.9hPa | 2.7V | 08:07:33 | 01:44:40 | 00:00:00 | |
| DL1XH-west | 2026-09-04 11:17:00 | 52.77444 | 10.08472 | 80° | 89km/h | 1618m | -4.9m/s | 11.2°C | 100% | 834.5hPa | 2.7V | 08:07:33 | 01:44:39 | 00:00:00 | |
| DF8AY | 2026-09-04 11:16:59 | 52.77440 | 10.08436 | 79° | 91km/h | 1623m | -5.3m/s | 11.2°C | 100% | 834.1hPa | 2.7V | 08:07:33 | 01:44:38 | 00:00:00 | |
| DL1XH-west | 2026-09-04 11:16:58 | 52.77436 | 10.08399 | 79° | 91km/h | 1628m | -4.9m/s | 11.1°C | 100% | 833.6hPa | 2.7V | 08:07:33 | 01:44:37 | 00:00:00 | |
| BIOWL1-15 | 2026-09-04 11:16:57 | 52.77431 | 10.08361 | 78° | 91km/h | 1633m | -5m/s | 11.1°C | 100% | 833.1hPa | 2.7V | 08:07:33 | 01:44:36 | 00:00:00 | |
| DL1XH-west | 2026-09-04 11:16:56 | 52.77426 | 10.08325 | 78° | 89km/h | 1638m | -4.5m/s | 11°C | 100% | 832.6hPa | 2.7V | 08:07:33 | 01:44:35 | 00:00:00 | |
| DB0DAN | 2026-09-04 11:16:55 | 52.77422 | 10.08288 | 78° | 84km/h | 1642m | -4.2m/s | 11°C | 100% | 832.47hPa | 2.7V | 00:00:00 | 00:00:00 | 00:00:00 | |
| DL1XH-west | 2026-09-04 11:16:55 | 52.77422 | 10.08288 | 78° | 89km/h | 1642m | -4.2m/s | 11°C | 100% | 832.5hPa | 2.7V | 08:07:33 | 01:44:34 | 00:00:00 | |
| BIOWL1-15 | 2026-09-04 11:16:54 | 52.77417 | 10.08252 | 79° | 89km/h | 1647m | -4.3m/s | 11°C | 100% | 831.9hPa | 2.7V | 08:07:33 | 01:44:33 | 00:00:00 | |
| DM0DOS-11 | 2026-09-04 11:16:53 | 52.77392 | 10.08026 | 77° | 91km/h | 1675m | -5.5m/s | 10.9°C | 0% | 829.2hPa | 2.7V | 08:07:39 | 01:44:27 | 00:00:00 | |
| DL1XH-west | 2026-09-04 11:16:53 | 52.77413 | 10.08215 | 80° | 89km/h | 1650m | -4.3m/s | 11°C | 100% | 831.5hPa | 2.7V | 08:08:24 | 01:44:32 | 00:00:00 | |
| BIOWL1-15 | 2026-09-04 11:16:52 | 52.77409 | 10.08178 | 80° | 91km/h | 1655m | -4.8m/s | 11°C | 100% | 831.2hPa | 2.7V | 08:08:24 | 01:44:31 | 00:00:00 | |
| BIOWL1-15 | 2026-09-04 11:16:51 | 52.77405 | 10.08140 | 81° | 93km/h | 1660m | -4.7m/s | 10.9°C | 100% | 830.7hPa | 2.6V | 08:08:24 | 01:44:30 | 00:00:00 | |
| BIOWL1-15 | 2026-09-04 11:16:50 | 52.77401 | 10.08102 | 79° | 93km/h | 1665m | -5.1m/s | 10.9°C | 100% | 830.1hPa | 2.6V | 08:08:24 | 01:44:29 | 00:00:00 | |
| DL1XH-west | 2026-09-04 11:16:49 | 52.77397 | 10.08064 | 79° | 93km/h | 1670m | -5.4m/s | 10.9°C | 100% | 829.7hPa | 2.7V | 08:08:24 | 01:44:28 | 00:00:00 | |
| DL1XH-west | 2026-09-04 11:16:48 | 52.77392 | 10.08026 | 78° | 91km/h | 1675m | -5.5m/s | 10.9°C | 100% | 829.2hPa | 2.7V | 08:08:24 | 01:44:27 | 00:00:00 | |
| DL1XH-west | 2026-09-04 11:16:46 | 52.77382 | 10.07953 | 78° | 88km/h | 1686m | -5m/s | 10.8°C | 100% | 828.1hPa | 2.7V | 08:08:24 | 01:44:25 | 00:00:00 | |
| DL1XH-west | 2026-09-04 11:16:45 | 52.77377 | 10.07917 | 77° | 88km/h | 1691m | -4.7m/s | 10.8°C | 100% | 827.6hPa | 2.7V | 08:08:24 | 01:44:24 | 00:00:00 | |
| DL1XH-west | 2026-09-04 11:16:44 | 52.77372 | 10.07881 | 77° | 88km/h | 1696m | -5m/s | 10.8°C | 100% | 827.2hPa | 2.7V | 08:08:24 | 01:44:23 | 00:00:00 | |
| DM0DOS-11 | 2026-09-04 11:16:43 | 52.77353 | 10.07736 | 78° | 91km/h | 1715m | -4.6m/s | 10.7°C | 0% | 825.4hPa | 2.7V | 08:07:47 | 01:44:19 | 00:00:00 | |
| DL1XH-west | 2026-09-04 11:16:43 | 52.77367 | 10.07845 | 78° | 88km/h | 1700m | -4.7m/s | 10.8°C | 100% | 826.6hPa | 2.7V | 08:08:24 | 01:44:22 | 00:00:00 | |
| DL1XH-west | 2026-09-04 11:16:42 | 52.77362 | 10.07809 | 78° | 89km/h | 1705m | -4.6m/s | 10.7°C | 100% | 826.1hPa | 2.7V | 08:08:24 | 01:44:21 | 00:00:00 | |
| DF8AY | 2026-09-04 11:16:41 | 52.77358 | 10.07773 | 78° | 91km/h | 1710m | -5m/s | 10.7°C | 100% | 825.6hPa | 2.7V | 08:08:24 | 01:44:20 | 00:00:00 | |
| DB0DAN | 2026-09-04 11:16:40 | 52.77353 | 10.07736 | 79° | 86km/h | 1715m | -4.6m/s | 10.7°C | 100% | 825.35hPa | 2.7V | 00:00:00 | 00:00:00 | 00:00:00 | |
| DL1XH-west | 2026-09-04 11:16:40 | 52.77353 | 10.07736 | 79° | 91km/h | 1715m | -4.6m/s | 10.7°C | 100% | 825.4hPa | 2.7V | 08:08:24 | 01:44:19 | 00:00:00 | |
| DF8AY | 2026-09-04 11:16:39 | 52.77348 | 10.07698 | 79° | 93km/h | 1719m | -5m/s | 10.7°C | 100% | 824.8hPa | 2.6V | 08:08:24 | 01:44:18 | 00:00:00 | |
| DL1XH-west | 2026-09-04 11:16:38 | 52.77344 | 10.07660 | 78° | 93km/h | 1724m | -4.9m/s | 10.7°C | 100% | 824.3hPa | 2.6V | 08:08:24 | 01:44:17 | 00:00:00 | |
| DL1XH-west | 2026-09-04 11:16:37 | 52.77339 | 10.07622 | 77° | 95km/h | 1729m | -4.9m/s | 10.6°C | 100% | 823.7hPa | 2.7V | 08:08:24 | 01:44:16 | 00:00:00 | |
| BIOWL1-15 | 2026-09-04 11:16:36 | 52.77322 | 10.07506 | 76° | 97km/h | 1742m | -4.4m/s | 10.6°C | 100% | 822.4hPa | 2.7V | 08:08:24 | 01:44:13 | 00:00:00 | |
| DL1XH-west | 2026-09-04 11:16:35 | 52.77327 | 10.07545 | 76° | 95km/h | 1738m | -4.6m/s | 10.6°C | 100% | 822.8hPa | 2.7V | 08:08:24 | 01:44:14 | 00:00:00 | |
| DF8AY | 2026-09-04 11:16:34 | 52.77238 | 10.06871 | 77° | 100km/h | 1817m | -5.3m/s | 10.3°C | 100% | 815.1hPa | 2.7V | 08:08:24 | 01:43:57 | 00:00:00 | |
| DL1XH-west | 2026-09-04 11:16:33 | 52.77316 | 10.07467 | 76° | 95km/h | 1747m | -4.4m/s | 10.5°C | 100% | 822hPa | 2.7V | 08:08:24 | 01:44:12 | 00:00:00 | |
| DL1XH-west | 2026-09-04 11:16:31 | 52.77305 | 10.07389 | 78° | 97km/h | 1756m | -4.6m/s | 10.5°C | 100% | 821.2hPa | 2.6V | 08:08:24 | 01:44:10 | 00:00:00 | |
| BIOWL1-15 | 2026-09-04 11:16:30 | 52.77289 | 10.07270 | 78° | 99km/h | 1768m | -4.2m/s | 10.4°C | 100% | 819.7hPa | 2.7V | 08:08:24 | 01:44:07 | 00:00:00 | |
| DL1XH-west | 2026-09-04 11:16:30 | 52.77300 | 10.07350 | 78° | 97km/h | 1760m | -4.4m/s | 10.5°C | 100% | 820.6hPa | 2.7V | 08:08:24 | 01:44:09 | 00:00:00 | |
| DL1XH-west | 2026-09-04 11:16:29 | 52.77294 | 10.07310 | 78° | 99km/h | 1764m | -4.3m/s | 10.4°C | 100% | 820.2hPa | 2.7V | 08:08:24 | 01:44:08 | 00:00:00 | |
| DL1XH-west | 2026-09-04 11:16:27 | 52.77284 | 10.07230 | 77° | 99km/h | 1773m | -4.1m/s | 10.4°C | 100% | 819.4hPa | 2.7V | 08:08:24 | 01:44:06 | 00:00:00 | |
| DL1XH-west | 2026-09-04 11:16:26 | 52.77278 | 10.07190 | 77° | 97km/h | 1777m | -4.3m/s | 10.4°C | 100% | 818.9hPa | 2.7V | 08:08:24 | 01:44:05 | 00:00:00 | |
| DB0DAN | 2026-09-04 11:16:25 | 52.77273 | 10.07151 | 78° | 91km/h | 1781m | -4.4m/s | 10.4°C | 100% | 818.47hPa | 2.6V | 00:00:00 | 00:00:00 | 00:00:00 | |
| DL1XH-west | 2026-09-04 11:16:25 | 52.77273 | 10.07151 | 78° | 97km/h | 1781m | -4.4m/s | 10.4°C | 100% | 818.5hPa | 2.6V | 08:08:24 | 01:44:04 | 00:00:00 | |
| BIOWL1-15 | 2026-09-04 11:16:24 | 52.77249 | 10.06953 | 78° | 99km/h | 1806m | -5.4m/s | 10.2°C | 100% | 816.2hPa | 2.7V | 08:08:24 | 01:43:59 | 00:00:00 | |
| DL1XH-west | 2026-09-04 11:16:23 | 52.77263 | 10.07072 | 79° | 97km/h | 1791m | -5.4m/s | 10.4°C | 100% | 817.5hPa | 2.7V | 08:08:24 | 01:44:02 | 00:00:00 | |
| DL1XH-west | 2026-09-04 11:16:22 | 52.77259 | 10.07033 | 79° | 97km/h | 1796m | -5.5m/s | 10.3°C | 100% | 817.1hPa | 2.7V | 08:08:24 | 01:44:01 | 00:00:00 | |
| DL1XH-west | 2026-09-04 11:16:21 | 52.77254 | 10.06993 | 78° | 97km/h | 1801m | -5m/s | 10.3°C | 100% | 816.6hPa | 2.7V | 08:08:24 | 01:44:00 | 00:00:00 | |
| DL1XH-west | 2026-09-04 11:16:19 | 52.77243 | 10.06912 | 78° | 100km/h | 1812m | -5.1m/s | 10.2°C | 100% | 815.5hPa | 2.7V | 08:08:24 | 01:43:58 | 00:00:00 | |
| DL1XH-west | 2026-09-04 11:16:17 | 52.77232 | 10.06830 | 77° | 100km/h | 1822m | -5.3m/s | 10.2°C | 100% | 814.6hPa | 2.7V | 08:08:24 | 01:43:56 | 00:00:00 | |
| DL1XH-west | 2026-09-04 11:16:16 | 52.77226 | 10.06790 | 77° | 100km/h | 1827m | -5m/s | 10.2°C | 100% | 814hPa | 2.7V | 08:08:24 | 01:43:55 | 00:00:00 | |
| DF8AY | 2026-09-04 11:16:15 | 52.77220 | 10.06749 | 76° | 100km/h | 1832m | -4.9m/s | 10.2°C | 100% | 813.6hPa | 2.6V | 08:08:24 | 01:43:54 | 00:00:00 | |
| BIOWL1-15 | 2026-09-04 11:16:14 | 52.77202 | 10.06630 | 76° | 97km/h | 1846m | -4.8m/s | 10.1°C | 100% | 812hPa | 2.7V | 08:08:24 | 01:43:51 | 00:00:00 | |
| DL1XH-west | 2026-09-04 11:16:14 | 52.77214 | 10.06709 | 76° | 99km/h | 1837m | -5m/s | 10.2°C | 100% | 813.1hPa | 2.6V | 08:08:24 | 01:43:53 | 00:00:00 | |
| DL1XH-west | 2026-09-04 11:16:13 | 52.77208 | 10.06669 | 76° | 97km/h | 1842m | -5.1m/s | 10.1°C | 100% | 812.6hPa | 2.7V | 08:08:24 | 01:43:52 | 00:00:00 | |
| DL1XH-west | 2026-09-04 11:16:11 | 52.77196 | 10.06591 | 77° | 97km/h | 1851m | -5.4m/s | 10.1°C | 100% | 811.5hPa | 2.7V | 08:08:24 | 01:43:50 | 00:00:00 | |
| DB0DAN | 2026-09-04 11:16:10 | 52.77191 | 10.06551 | 78° | 93km/h | 1857m | -4.9m/s | 10.1°C | 100% | 811.2hPa | 2.7V | 00:00:00 | 00:00:00 | 00:00:00 | |
| BIOWL1-15 | 2026-09-04 11:16:10 | 52.77191 | 10.06551 | 78° | 97km/h | 1857m | -4.9m/s | 10.1°C | 100% | 811.2hPa | 2.7V | 08:08:24 | 01:43:49 | 00:00:00 | |
| DF8AY | 2026-09-04 11:16:09 | 52.77186 | 10.06511 | 79° | 99km/h | 1861m | -5.3m/s | 10°C | 100% | 810.7hPa | 2.7V | 08:08:24 | 01:43:48 | 00:00:00 | |
| DL1XH-west | 2026-09-04 11:16:08 | 52.77181 | 10.06471 | 79° | 99km/h | 1867m | -5.2m/s | 10°C | 100% | 810.1hPa | 2.7V | 08:08:24 | 01:43:47 | 00:00:00 | |
| BIOWL1-15 | 2026-09-04 11:16:07 | 52.77176 | 10.06431 | 79° | 99km/h | 1872m | -5.2m/s | 10°C | 100% | 809.8hPa | 2.7V | 08:08:24 | 01:43:46 | 00:00:00 | |
| DL1XH1-15 | 2026-09-04 11:16:06 | 52.77166 | 10.06350 | 76° | 99km/h | 1880m | -4m/s | 10°C | 0% | 808.8hPa | 2.7V | 08:08:22 | 01:43:44 | 00:00:00 | |
| DL1XH-west | 2026-09-04 11:16:06 | 52.77171 | 10.06390 | 77° | 100km/h | 1876m | -4.3m/s | 10°C | 100% | 809.1hPa | 2.7V | 08:08:24 | 01:43:45 | 00:00:00 | |
| DL1XH-west | 2026-09-04 11:16:05 | 52.77165 | 10.06350 | 77° | 100km/h | 1880m | -4m/s | 10°C | 100% | 808.8hPa | 2.7V | 08:08:24 | 01:43:44 | 00:00:00 | |
| DF8AY | 2026-09-04 11:16:03 | 52.77154 | 10.06270 | 77° | 99km/h | 1889m | -4.2m/s | 9.9°C | 100% | 808hPa | 2.6V | 08:08:24 | 01:43:42 | 00:00:00 | |
| DL1XH-west | 2026-09-04 11:16:02 | 52.77148 | 10.06230 | 78° | 99km/h | 1893m | -4.9m/s | 9.9°C | 100% | 807.8hPa | 2.7V | 08:09:15 | 01:43:41 | 00:00:00 | |
| DL1XH-west | 2026-09-04 11:16:01 | 52.77143 | 10.06189 | 78° | 99km/h | 1897m | -4.5m/s | 9.9°C | 100% | 807.1hPa | 2.7V | 08:09:15 | 01:43:40 | 00:00:00 | |
| DL1XH1-15 | 2026-09-04 11:16:00 | 52.77134 | 10.06108 | 78° | 99km/h | 1907m | -4.6m/s | 9.8°C | 0% | 806.2hPa | 2.7V | 08:08:28 | 01:43:38 | 00:00:00 | |
| DF8AY | 2026-09-04 11:16:00 | 52.77138 | 10.06149 | 79° | 99km/h | 1902m | -4.7m/s | 9.9°C | 100% | 806.9hPa | 2.7V | 08:09:15 | 01:43:39 | 00:00:00 | |
| DL1XH-west | 2026-09-04 11:15:59 | 52.77133 | 10.06108 | 79° | 99km/h | 1907m | -4.6m/s | 9.8°C | 100% | 806.2hPa | 2.7V | 08:09:15 | 01:43:38 | 00:00:00 | |
| DF8AY | 2026-09-04 11:15:58 | 52.77124 | 10.06029 | 78° | 95km/h | 1915m | -4.4m/s | 9.8°C | 100% | 805.5hPa | 2.7V | 08:09:15 | 01:43:36 | 00:00:00 | |
| DM0DOS-11 | 2026-09-04 11:15:58 | 52.77119 | 10.05990 | 78° | 95km/h | 1920m | -4.8m/s | 9.8°C | 0% | 804.9hPa | 2.7V | 08:08:31 | 01:43:35 | 00:00:00 | |
| DL1XH-west | 2026-09-04 11:15:58 | 52.77129 | 10.06068 | 79° | 99km/h | 1911m | -4.2m/s | 9.8°C | 100% | 805.8hPa | 2.7V | 08:09:15 | 01:43:37 | 00:00:00 | |
| BIOWL1-15 | 2026-09-04 11:15:57 | 52.77105 | 10.05874 | 79° | 93km/h | 1935m | -5.1m/s | 9.7°C | 100% | 803.5hPa | 2.6V | 08:09:15 | 01:43:32 | 00:00:00 | |
| DL1XH-west | 2026-09-04 11:15:56 | 52.77119 | 10.05990 | 79° | 95km/h | 1920m | -4.8m/s | 9.8°C | 100% | 804.9hPa | 2.7V | 08:09:15 | 01:43:35 | 00:00:00 | |
| DB0DAN | 2026-09-04 11:15:55 | 52.77114 | 10.05951 | 79° | 89km/h | 1925m | -4.9m/s | 9.7°C | 100% | 804.47hPa | 2.7V | 00:00:00 | 00:00:00 | 00:00:00 | |
| DL1XH-west | 2026-09-04 11:15:55 | 52.77114 | 10.05951 | 79° | 93km/h | 1925m | -4.9m/s | 9.7°C | 100% | 804.5hPa | 2.7V | 08:09:15 | 01:43:34 | 00:00:00 | |
| DL1XH1-15 | 2026-09-04 11:15:54 | 52.77085 | 10.05721 | 77° | 97km/h | 1950m | -3.7m/s | 9.7°C | 0% | 802hPa | 2.7V | 08:08:38 | 01:43:28 | 00:00:00 | |
| DL1XH-west | 2026-09-04 11:15:54 | 52.77110 | 10.05913 | 79° | 95km/h | 1930m | -6.1m/s | 9.7°C | 100% | 804.1hPa | 2.7V | 08:09:15 | 01:43:33 | 00:00:00 | |
| DJ2DS-15 | 2026-09-04 11:15:54 | 52.77110 | 10.05912 | 80° | 93km/h | 1930m | -6.0m/s | 9.7°C | 0% | 804.0hPa | 2.6V | 00:00:00 | 01:43:33 | 00:00:00 | |
| DM0DOS-11 | 2026-09-04 11:15:53 | 52.77100 | 10.05836 | 78° | 93km/h | 1939m | -3.3m/s | 9.7°C | 0% | 803hPa | 2.6V | 08:08:35 | 01:43:31 | 00:00:00 | |
| DM0DOS-11 | 2026-09-04 11:15:53 | 52.77090 | 10.05760 | 77° | 95km/h | 1946m | -3.7m/s | 9.7°C | 0% | 802.5hPa | 2.7V | 08:08:37 | 01:43:29 | 00:00:00 | |
| DF8AY | 2026-09-04 11:15:52 | 52.77100 | 10.05836 | 79° | 93km/h | 1939m | -3.3m/s | 9.7°C | 100% | 803hPa | 2.6V | 08:09:15 | 01:43:31 | 00:00:00 | |
| BIOWL1-15 | 2026-09-04 11:15:51 | 52.77096 | 10.05798 | 78° | 93km/h | 1943m | -3.5m/s | 9.7°C | 100% | 802.8hPa | 2.7V | 08:09:15 | 01:43:30 | 00:00:00 | |
| DL1XH-west | 2026-09-04 11:15:50 | 52.77091 | 10.05760 | 78° | 95km/h | 1946m | -3.7m/s | 9.7°C | 100% | 802.5hPa | 2.7V | 08:09:15 | 01:43:29 | 00:00:00 | |
| BIOWL1-15 | 2026-09-04 11:15:49 | 52.77075 | 10.05642 | 77° | 99km/h | 1958m | -4.4m/s | 9.6°C | 100% | 801.4hPa | 2.7V | 08:09:15 | 01:43:26 | 00:00:00 | |
| DL1XH-west | 2026-09-04 11:15:48 | 52.77080 | 10.05681 | 77° | 97km/h | 1954m | -4.1m/s | 9.6°C | 100% | 801.7hPa | 2.7V | 08:09:15 | 01:43:27 | 00:00:00 | |
| DM0DOS-11 | 2026-09-04 11:15:48 | 52.77064 | 10.05562 | 77° | 99km/h | 1967m | -4.8m/s | 9.6°C | 0% | 800.5hPa | 2.7V | 08:08:42 | 01:43:24 | 00:00:00 | |
| DL1XH1-15 | 2026-09-04 11:15:48 | 52.77075 | 10.05642 | 76° | 99km/h | 1958m | -4.4m/s | 9.6°C | 0% | 801.4hPa | 2.7V | 08:08:40 | 01:43:26 | 00:00:00 | |
| DL1XH-west | 2026-09-04 11:15:46 | 52.77069 | 10.05602 | 77° | 99km/h | 1963m | -4.9m/s | 9.6°C | 100% | 800.9hPa | 2.6V | 08:09:15 | 01:43:25 | 00:00:00 | |
| BIOWL1-15 | 2026-09-04 11:15:45 | 52.77064 | 10.05562 | 77° | 99km/h | 1967m | -4.8m/s | 9.6°C | 100% | 800.5hPa | 2.7V | 08:09:15 | 01:43:24 | 00:00:00 | |
| DL1XH-west | 2026-09-04 11:15:44 | 52.77058 | 10.05521 | 77° | 100km/h | 1972m | -4.8m/s | 9.6°C | 100% | 800.1hPa | 2.7V | 08:09:15 | 01:43:23 | 00:00:00 | |
| DF8AY | 2026-09-04 11:15:42 | 52.77025 | 10.05246 | 80° | 93km/h | 2006m | -4.7m/s | 9.4°C | 100% | 797.1hPa | 2.6V | 08:09:15 | 01:43:16 | 00:00:00 | |
| DM0DOS-11 | 2026-09-04 11:15:42 | 52.77042 | 10.05402 | 79° | 97km/h | 1987m | -4.9m/s | 9.5°C | 0% | 798.6hPa | 2.7V | 08:08:46 | 01:43:20 | 00:00:00 | |
| DM0DOS-11 | 2026-09-04 11:15:42 | 52.77033 | 10.05324 | 79° | 95km/h | 1997m | -4.2m/s | 9.4°C | 0% | 797.8hPa | 2.7V | 08:08:48 | 01:43:18 | 00:00:00 | |
| DM0DOS-11 | 2026-09-04 11:15:42 | 52.77025 | 10.05246 | 80° | 93km/h | 2006m | -4.7m/s | 9.4°C | 0% | 797.1hPa | 2.6V | 08:08:50 | 01:43:16 | 00:00:00 | |
| DL1XH-west | 2026-09-04 11:15:42 | 52.77047 | 10.05442 | 77° | 97km/h | 1982m | -5.1m/s | 9.5°C | 100% | 799.1hPa | 2.7V | 08:09:15 | 01:43:21 | 00:00:00 | |
| DL1XH-west | 2026-09-04 11:15:41 | 52.77042 | 10.05402 | 79° | 97km/h | 1987m | -4.9m/s | 9.5°C | 100% | 798.6hPa | 2.7V | 08:09:15 | 01:43:20 | 00:00:00 | |
| DB0DAN | 2026-09-04 11:15:40 | 52.77037 | 10.05363 | 80° | 91km/h | 1992m | -5m/s | 9.5°C | 100% | 798.19hPa | 2.7V | 00:00:00 | 00:00:00 | 00:00:00 | |
| DL1XH-west | 2026-09-04 11:15:39 | 52.77033 | 10.05324 | 80° | 95km/h | 1997m | -4.2m/s | 9.5°C | 100% | 797.8hPa | 2.7V | 08:09:15 | 01:43:18 | 00:00:00 | |
| BIOWL1-15 | 2026-09-04 11:15:38 | 52.77029 | 10.05285 | 81° | 95km/h | 2002m | -4.7m/s | 9.4°C | 100% | 797.5hPa | 2.7V | 08:09:15 | 01:43:17 | 00:00:00 | |
| DL1XH-west | 2026-09-04 11:15:35 | 52.77017 | 10.05169 | 81° | 95km/h | 2016m | -5.5m/s | 9.4°C | 100% | 795.9hPa | 2.7V | 08:09:15 | 01:43:14 | 00:00:00 | |
| DM0DOS-11 | 2026-09-04 11:15:34 | 52.77006 | 10.05050 | 80° | 97km/h | 2033m | -5.6m/s | 9.3°C | 0% | 794.3hPa | 2.7V | 08:08:55 | 01:43:11 | 00:00:00 | |
| BIOWL7-15 | 2026-09-04 11:15:32 | 52.77010 | 10.05090 | 82° | 97km/h | 2027m | -5.5m/s | 9.3°C | 0% | 795.0hPa | 2.7V | 00:00:00 | 00:00:00 | 00:00:00 | |
| DD8BA-10 | 2026-09-04 11:15:31 | 52.77001 | 10.05009 | 82° | 102km/h | 2039m | -5.9m/s | 9.2°C | 0% | 793.9hPa | 2.7V | 00:00:00 | 00:00:00 | 00:00:00 | |
| DM0DOS-11 | 2026-09-04 11:15:28 | 52.76989 | 10.04844 | 83° | 102km/h | 2059m | -4.8m/s | 9.2°C | 0% | 791.9hPa | 2.6V | 08:09:00 | 01:43:06 | 00:00:00 | |
| DF8AY | 2026-09-04 11:15:27 | 52.76989 | 10.04844 | 84° | 102km/h | 2059m | -4.8m/s | 9.2°C | 100% | 791.9hPa | 2.6V | 08:09:15 | 01:43:06 | 00:00:00 | |
| DB0DAN | 2026-09-04 11:15:25 | 52.76983 | 10.04760 | 84° | 97km/h | 2069m | -5.2m/s | 9.1°C | 99.6% | 790.85hPa | 2.7V | 00:00:00 | 00:00:00 | 00:00:00 | |
| DL1XH-west | 2026-09-04 11:15:24 | 52.76981 | 10.04717 | 84° | 102km/h | 2074m | -4.9m/s | 9.1°C | 100% | 790.5hPa | 2.7V | 08:09:15 | 01:43:03 | 00:00:00 | |
| DJ2DS-15 | 2026-09-04 11:15:20 | 52.76970 | 10.04545 | 85° | 110km/h | 2093m | -4.9m/s | 8.9°C | 98.6% | 788.7hPa | 2.6V | 00:00:00 | 01:42:59 | 00:00:00 | |
| DL4XJ-10 | 2026-09-04 11:15:19 | 52.76968 | 10.04501 | 87° | 110km/h | 2099m | -5.1m/s | 8.5°C | 0% | 0hPa | 2.6V | 00:00:00 | 00:00:00 | 00:00:00 | |
| DM0DOS-11 | 2026-09-04 11:15:18 | 52.76965 | 10.04413 | 87° | 108km/h | 2109m | -5.4m/s | 8.7°C | 97.9% | 787.2hPa | 2.6V | 08:09:10 | 01:42:56 | 00:00:00 | |
| DF8AY | 2026-09-04 11:15:17 | 52.76965 | 10.04413 | 87° | 108km/h | 2109m | -5.4m/s | 8.7°C | 100% | 787.2hPa | 2.6V | 08:09:15 | 01:42:56 | 00:00:00 | |
| BIOWL1-15 | 2026-09-04 11:15:16 | 52.76956 | 10.04097 | 88° | 108km/h | 2146m | -5.2m/s | 8.6°C | 100% | 783.6hPa | 2.6V | 08:10:06 | 01:42:49 | 00:00:00 | |
| DL1XH-west | 2026-09-04 11:15:14 | 52.76961 | 10.04278 | 87° | 110km/h | 2124m | -5.3m/s | 8.6°C | 100% | 785.7hPa | 2.7V | 08:09:15 | 01:42:53 | 00:00:00 | |
| DL1XH1-15 | 2026-09-04 11:15:12 | 52.76958 | 10.04187 | 86° | 108km/h | 2135m | -5.8m/s | 8.5°C | 98.3% | 784.8hPa | 2.7V | 08:09:15 | 01:42:51 | 00:00:00 | |
| DL1XH1-15 | 2026-09-04 11:15:12 | 52.76955 | 10.03960 | 89° | 111km/h | 2162m | -5.3m/s | 8.7°C | 95.3% | 782.3hPa | 2.7V | 08:09:20 | 01:42:46 | 00:00:00 | |
| DB0DAN | 2026-09-04 11:15:10 | 52.76956 | 10.04097 | 88° | 102km/h | 2146m | -5.2m/s | 8.6°C | 97.2% | 783.64hPa | 2.6V | 00:00:00 | 00:00:00 | 00:00:00 | |
| DM0DOS-11 | 2026-09-04 11:15:08 | 52.76954 | 10.03819 | 89° | 113km/h | 2177m | -5.4m/s | 8.7°C | 93.7% | 780.7hPa | 2.7V | 08:09:23 | 01:42:43 | 00:00:00 | |
| DF8AY | 2026-09-04 11:15:06 | 52.76955 | 10.03913 | 89° | 113km/h | 2167m | -5.2m/s | 8.7°C | 99% | 781.8hPa | 2.7V | 08:10:06 | 01:42:45 | 00:00:00 | |
| DL1XH1-15 | 2026-09-04 11:15:06 | 52.76953 | 10.03723 | 88° | 115km/h | 2188m | -5.6m/s | 8.6°C | 94% | 779.8hPa | 2.7V | 08:09:25 | 01:42:41 | 00:00:00 | |
| BIOWL1-15 | 2026-09-04 11:15:04 | 52.76954 | 10.03819 | 89° | 113km/h | 2177m | -5.4m/s | 8.7°C | 98.1% | 780.7hPa | 2.7V | 08:10:06 | 01:42:43 | 00:00:00 | |
| DJ2DS-15 | 2026-09-04 11:15:00 | 52.76951 | 10.03628 | 89° | 110km/h | 2200m | -5.1m/s | 8.5°C | 94.6% | 778.7hPa | 2.7V | 08:09:00 | 01:42:39 | 00:00:00 | |
| DL4XJ-10 | 2026-09-04 11:14:59 | 52.76951 | 10.03581 | 88° | 110km/h | 2205m | -4.9m/s | 8.1°C | 0% | 0hPa | 2.6V | 00:00:00 | 00:00:00 | 00:00:00 | |
| DL1XH1-15 | 2026-09-04 11:14:58 | 52.76948 | 10.03488 | 87° | 110km/h | 2215m | -4.8m/s | 8.4°C | 94.8% | 777.2hPa | 2.6V | 08:09:30 | 01:42:36 | 00:00:00 | |
| DF8AY-15 | 2026-09-04 11:14:58 | 52.76949 | 10.03534 | 88° | 110km/h | 2210m | -5.2m/s | 8.4°C | 94.9% | 777.6hPa | 2.7V | 00:00:00 | 01:42:37 | 00:00:00 | |
| DB0DAN | 2026-09-04 11:14:55 | 52.76946 | 10.03398 | 88° | 100km/h | 2224m | -4.9m/s | 8.4°C | 94.6% | 776.33hPa | 2.7V | 00:00:00 | 00:00:00 | 00:00:00 | |
| DF8AY | 2026-09-04 11:14:55 | 52.76946 | 10.03398 | 88° | 106km/h | 2224m | -4.9m/s | 8.4°C | 98.9% | 776.3hPa | 2.7V | 08:10:06 | 01:42:34 | 00:00:00 | |
| DL1XH-west | 2026-09-04 11:14:53 | 52.76945 | 10.03310 | 89° | 106km/h | 2235m | -5.1m/s | 8.3°C | 99.2% | 775.3hPa | 2.7V | 08:10:06 | 01:42:32 | 00:00:00 | |
| DL1XH1-15 | 2026-09-04 11:14:52 | 52.76945 | 10.03265 | 89° | 106km/h | 2240m | -5.4m/s | 8.2°C | 95.3% | 775hPa | 2.7V | 08:09:35 | 01:42:31 | 00:00:00 | |
| D01LWL | 2026-09-04 11:14:50 | 52.76946 | 10.03131 | 91° | 110km/h | 2255m | -5.2m/s | 8.1°C | 96.1% | 773.3hPa | 2.7V | 00:00:00 | 00:00:00 | 00:00:00 | |
| BIOWL9-15 | 2026-09-04 11:14:47 | 52.76944 | 10.02945 | 87° | 111km/h | 2276m | -5.0m/s | 7.9°C | 96.5% | 771.6hPa | 2.7V | 00:00:00 | 00:00:00 | 00:00:00 | |
| DL1XH1-15 | 2026-09-04 11:14:46 | 52.76941 | 10.02805 | 87° | 111km/h | 2291m | -5.4m/s | 7.8°C | 96.5% | 770.2hPa | 2.7V | 08:09:45 | 01:42:21 | 00:00:00 | |
| DF8AY | 2026-09-04 11:14:44 | 52.76943 | 10.02898 | 88° | 111km/h | 2281m | -5.4m/s | 7.9°C | 100% | 771hPa | 2.7V | 08:10:06 | 01:42:23 | 00:00:00 | |
| BIOWL1-15 | 2026-09-04 11:14:42 | 52.76938 | 10.02713 | 87° | 110km/h | 2302m | -5.2m/s | 7.7°C | 100% | 769hPa | 2.7V | 08:10:06 | 01:42:19 | 00:00:00 | |
| DL1XH-west | 2026-09-04 11:14:42 | 52.76941 | 10.02805 | 88° | 111km/h | 2291m | -5.4m/s | 7.8°C | 100% | 770.2hPa | 2.7V | 08:10:06 | 01:42:21 | 00:00:00 | |
| DB0DAN | 2026-09-04 11:14:40 | 52.76938 | 10.02713 | 87° | 104km/h | 2302m | -5.2m/s | 7.7°C | 97.4% | 768.98hPa | 2.7V | 00:00:00 | 00:00:00 | 00:00:00 | |
| DJ2DS-15 | 2026-09-04 11:14:40 | 52.76938 | 10.02713 | 88° | 110km/h | 2302m | -5.2m/s | 7.7°C | 97.2% | 768.9hPa | 2.6V | 00:00:00 | 01:42:19 | 00:00:00 | |
| DL4XJ-10 | 2026-09-04 11:14:39 | 52.76937 | 10.02668 | 88° | 110km/h | 2307m | -5.3m/s | 7.4°C | 0% | 0hPa | 2.6V | 00:00:00 | 00:00:00 | 00:00:00 | |
| DL1XH1-15 | 2026-09-04 11:14:38 | 52.76936 | 10.02578 | 89° | 108km/h | 2318m | -5.1m/s | 7.6°C | 97.6% | 767.5hPa | 2.6V | 08:09:50 | 01:42:16 | 00:00:00 | |
| DF8AY | 2026-09-04 11:14:34 | 52.76936 | 10.02441 | 91° | 111km/h | 2333m | -5.6m/s | 7.5°C | 100% | 766.2hPa | 2.7V | 08:10:06 | 01:42:13 | 00:00:00 | |
| DL1XH1-15 | 2026-09-04 11:14:32 | 52.76937 | 10.02346 | 89° | 113km/h | 2344m | -5.3m/s | 7.5°C | 96.1% | 765hPa | 2.7V | 08:09:55 | 01:42:11 | 00:00:00 | |
| DM0DOS-11 | 2026-09-04 11:14:32 | 52.76933 | 10.02115 | 88° | 106km/h | 2370m | -4.8m/s | 7.3°C | 95.8% | 762.7hPa | 2.7V | 08:10:00 | 01:42:06 | 00:00:00 | |
| DL1XH-west | 2026-09-04 11:14:31 | 52.76936 | 10.02299 | 89° | 113km/h | 2349m | -5.3m/s | 7.5°C | 99.3% | 764.6hPa | 2.7V | 08:10:06 | 01:42:10 | 00:00:00 | |
| BIOWL1-15 | 2026-09-04 11:14:30 | 52.76934 | 10.02160 | 88° | 108km/h | 2365m | -4.7m/s | 7.3°C | 99.3% | 763.2hPa | 2.6V | 08:10:06 | 01:42:07 | 00:00:00 | |
| DL1XH-15 | 2026-09-04 11:14:29 | 52.76933 | 10.01981 | 91° | 108km/h | 2385m | -5.3m/s | 7.2°C | 95.7% | 761.3hPa | 2.7V | 08:10:03 | 01:42:03 | 00:00:00 | |
| DJ2DS-15 | 2026-09-04 11:14:28 | 52.76934 | 10.02160 | 87° | 108km/h | 2365m | -4.7m/s | 7.3°C | 96.3% | 763.2hPa | 2.7V | 00:00:00 | 00:00:00 | 00:00:00 | |
| DL1LOL-11 | 2026-09-04 11:14:26 | 52.76932 | 10.02115 | 89° | 106km/h | 2370m | -4.8m/s | 7.3°C | 96.0% | 762.7hPa | 2.7V | 00:00:00 | 00:00:00 | 00:00:00 | |
| DB0DAN | 2026-09-04 11:14:25 | 52.76932 | 10.02026 | 91° | 102km/h | 2380m | -5.6m/s | 7.2°C | 95.9% | 761.87hPa | 2.7V | 00:00:00 | 00:00:00 | 00:00:00 | |
| DL1XH-15 | 2026-09-04 11:14:24 | 52.76939 | 10.01750 | 92° | 113km/h | 2412m | -5.9m/s | 7.1°C | 94.3% | 758.8hPa | 2.6V | 08:10:08 | 01:41:58 | 00:00:00 | |
| DF8AY | 2026-09-04 11:14:23 | 52.76934 | 10.01936 | 92° | 110km/h | 2391m | -5m/s | 7.2°C | 99.1% | 760.9hPa | 2.7V | 08:10:06 | 01:42:02 | 00:00:00 | |
| DL1XH1-15 | 2026-09-04 11:14:22 | 52.76940 | 10.01654 | 91° | 115km/h | 2423m | -5.4m/s | 7°C | 94.6% | 757.9hPa | 2.7V | 08:10:10 | 01:41:56 | 00:00:00 | |
| DL1XH-west | 2026-09-04 11:14:20 | 52.76937 | 10.01797 | 93° | 113km/h | 2407m | -5.1m/s | 7.1°C | 98.1% | 759.4hPa | 2.6V | 08:10:57 | 01:41:59 | 00:00:00 | |
| BIOWL1-15 | 2026-09-04 11:14:17 | 52.76940 | 10.01654 | 91° | 115km/h | 2423m | -5.4m/s | 7°C | 98.3% | 757.9hPa | 2.7V | 08:10:57 | 01:41:56 | 00:00:00 | |
| DF8AY | 2026-09-04 11:14:12 | 52.76939 | 10.01412 | 89° | 115km/h | 2450m | -5.6m/s | 6.8°C | 98.7% | 755.4hPa | 2.7V | 08:10:57 | 01:41:51 | 00:00:00 | |
| DB0DAN | 2026-09-04 11:14:10 | 52.76938 | 10.01316 | 89° | 110km/h | 2461m | -5.4m/s | 6.7°C | 95.8% | 754.36hPa | 2.6V | 00:00:00 | 00:00:00 | 00:00:00 | |
| DL1XH-west | 2026-09-04 11:14:09 | 52.76937 | 10.01269 | 88° | 111km/h | 2466m | -5.4m/s | 6.7°C | 99.1% | 754hPa | 2.7V | 08:10:57 | 01:41:48 | 00:00:00 | |
| BIOWL1-15 | 2026-09-04 11:14:06 | 52.76935 | 10.01132 | 89° | 108km/h | 2482m | -5.4m/s | 6.5°C | 99.3% | 752.5hPa | 2.7V | 08:10:57 | 01:41:45 | 00:00:00 | |
| DD8BA-10 | 2026-09-04 11:14:06 | 52.76934 | 10.01132 | 89° | 110km/h | 2482m | -5.4m/s | 6.5°C | 95.8% | 752.4hPa | 2.6V | 00:00:00 | 00:00:00 | 00:00:00 | |
| DL1XH-15 | 2026-09-04 11:14:05 | 52.76935 | 10.00952 | 91° | 108km/h | 2503m | -5.1m/s | 6.7°C | 90.5% | 750.4hPa | 2.6V | 08:10:25 | 01:41:41 | 00:00:00 | |
| DL1XH1-15 | 2026-09-04 11:14:02 | 52.76939 | 10.00720 | 91° | 113km/h | 2531m | -5.4m/s | 6.5°C | 91.3% | 748hPa | 2.7V | 08:10:30 | 01:41:36 | 00:00:00 | |
| DF8AY | 2026-09-04 11:14:01 | 52.76939 | 10.00720 | 91° | 113km/h | 2531m | -5.4m/s | 6.5°C | 95.2% | 748hPa | 2.7V | 08:10:57 | 01:41:36 | 00:00:00 | |
| BIOWL1-15 | 2026-09-04 11:13:58 | 52.76940 | 10.00673 | 91° | 113km/h | 2536m | -5.1m/s | 6.5°C | 95% | 747.5hPa | 2.7V | 08:10:57 | 01:41:35 | 00:00:00 | |
| DL1XH-west | 2026-09-04 11:13:58 | 52.76938 | 10.00768 | 92° | 113km/h | 2525m | -5.4m/s | 6.5°C | 95.2% | 748.4hPa | 2.7V | 08:10:57 | 01:41:37 | 00:00:00 | |
| DF8AY-15 | 2026-09-04 11:13:58 | 52.76938 | 10.00768 | 93° | 113km/h | 2526m | -5.3m/s | 6.5°C | 91.1% | 748.4hPa | 2.7V | 08:10:00 | 01:41:37 | 00:00:00 | |
| DL1XH1-15 | 2026-09-04 11:13:56 | 52.76940 | 10.00486 | 90° | 111km/h | 2557m | -5.5m/s | 6.4°C | 90% | 745.1hPa | 2.7V | 08:10:35 | 01:41:31 | 00:00:00 | |
| DB0DAN | 2026-09-04 11:13:55 | 52.76940 | 10.00626 | 90° | 108km/h | 2541m | -5.4m/s | 6.5°C | 90.7% | 747.03hPa | 2.7V | 00:00:00 | 00:00:00 | 00:00:00 | |
| DL1XH-15 | 2026-09-04 11:13:53 | 52.76942 | 10.00296 | 90° | 115km/h | 2580m | -5.7m/s | 6.2°C | 90.2% | 743.5hPa | 2.7V | 08:10:39 | 01:41:27 | 00:00:00 | |
| AA1-15 | 2026-09-04 11:13:53 | 52.76940 | 10.00532 | 90° | 111km/h | 2552m | -5.4m/s | 6.4°C | 94.4% | 746hPa | 2.6V | 08:11:48 | 01:41:32 | 00:00:00 | |
| DF8AY | 2026-09-04 11:13:51 | 52.76940 | 10.00439 | 91° | 113km/h | 2563m | -5.8m/s | 6.3°C | 94% | 745.1hPa | 2.7V | 08:10:57 | 01:41:30 | 00:00:00 | |
| DL1XH-west | 2026-09-04 11:13:48 | 52.76942 | 10.00296 | 91° | 115km/h | 2580m | -5.7m/s | 6.2°C | 93.7% | 743.5hPa | 2.7V | 08:10:57 | 01:41:27 | 00:00:00 | |
| DL1XH1-15 | 2026-09-04 11:13:47 | 52.76942 | 10.00248 | 90° | 115km/h | 2585m | -5.6m/s | 6.2°C | 90.2% | 743.1hPa | 2.7V | 08:10:40 | 01:41:26 | 00:00:00 | |
| DD8BA-10 | 2026-09-04 11:13:46 | 52.76942 | 10.00199 | 90° | 115km/h | 2591m | -5.3m/s | 6.1°C | 90.4% | 742.6hPa | 2.7V | 00:00:00 | 00:00:00 | 00:00:00 | |
| DL1XH-15 | 2026-09-04 11:13:45 | 52.76941 | 10.00058 | 89° | 111km/h | 2607m | -5.2m/s | 6.1°C | 90.4% | 741.2hPa | 2.7V | 08:10:44 | 01:41:22 | 00:00:00 | |
| BIOWL9-15 | 2026-09-04 11:13:45 | 52.76941 | 10.00151 | 88° | 113km/h | 2596m | -5.3m/s | 6.1°C | 90.5% | 742.1hPa | 2.7V | 00:00:00 | 00:00:00 | 00:00:00 | |
| AA1-15 | 2026-09-04 11:13:43 | 52.76940 | 10.00058 | 90° | 111km/h | 2607m | -5.2m/s | 6.1°C | 93.5% | 741.2hPa | 2.7V | 08:11:48 | 01:41:22 | 00:00:00 | |
| DM0DOS-11 | 2026-09-04 11:13:42 | 52.76947 | 9.99771 | 92° | 119km/h | 2638m | -5.6m/s | 5.9°C | 90% | 738.3hPa | 2.6V | 08:10:50 | 01:41:16 | 00:00:00 | |
| DB0DAN | 2026-09-04 11:13:40 | 52.76942 | 9.99918 | 93° | 110km/h | 2623m | -5.1m/s | 6°C | 89.9% | 739.86hPa | 2.7V | 00:00:00 | 00:00:00 | 00:00:00 | |
| DF8AY | 2026-09-04 11:13:40 | 52.76942 | 9.99918 | 93° | 115km/h | 2623m | -5.1m/s | 6°C | 93.6% | 739.9hPa | 2.7V | 08:10:57 | 01:41:19 | 00:00:00 | |
| DJ2DS-15 | 2026-09-04 11:13:40 | 52.76942 | 9.99918 | 93° | 117km/h | 2623m | -5.1m/s | 6.0°C | 89.8% | 739.8hPa | 2.7V | 00:00:00 | 01:41:19 | 00:00:00 | |
| DL4XJ-10 | 2026-09-04 11:13:39 | 52.76944 | 9.99869 | 93° | 117km/h | 2628m | -5.2m/s | 5.7°C | 0% | 0hPa | 2.7V | 00:00:00 | 00:00:00 | 00:00:00 | |
| DL1XH-15 | 2026-09-04 11:13:38 | 52.76950 | 9.99573 | 90° | 119km/h | 2661m | -5.4m/s | 5.8°C | 89.8% | 736.3hPa | 2.7V | 08:10:54 | 01:41:12 | 00:00:00 | |
| DL1XH-west | 2026-09-04 11:13:37 | 52.76947 | 9.99771 | 92° | 119km/h | 2638m | -5.6m/s | 5.9°C | 94.2% | 738.3hPa | 2.6V | 08:10:57 | 01:41:16 | 00:00:00 | |
| BIOWL1-15 | 2026-09-04 11:13:35 | 52.76949 | 9.99672 | 92° | 119km/h | 2650m | -5.2m/s | 5.8°C | 94% | 737.4hPa | 2.7V | 08:10:57 | 01:41:14 | 00:00:00 | |
| AA1-15 | 2026-09-04 11:13:33 | 52.76950 | 9.99573 | 90° | 119km/h | 2661m | -5.4m/s | 5.8°C | 94.3% | 736.3hPa | 2.7V | 08:11:48 | 01:41:12 | 00:00:00 | |
| DF8AY | 2026-09-04 11:13:29 | 52.76949 | 9.99377 | 90° | 117km/h | 2682m | -5.6m/s | 5.6°C | 94.1% | 734.4hPa | 2.6V | 08:11:48 | 01:41:08 | 00:00:00 | |
| DM0DOS-11 | 2026-09-04 11:13:28 | 52.76949 | 9.99279 | 90° | 117km/h | 2693m | -5.2m/s | 5.5°C | 89.4% | 733.2hPa | 2.7V | 08:11:00 | 01:41:06 | 00:00:00 | |
| DL1XH-west | 2026-09-04 11:13:26 | 52.76950 | 9.99230 | 91° | 119km/h | 2698m | -5.5m/s | 5.5°C | 93.3% | 732.9hPa | 2.7V | 08:11:48 | 01:41:05 | 00:00:00 | |
| DB0DAN | 2026-09-04 11:13:25 | 52.76951 | 9.99180 | 91° | 113km/h | 2703m | -5.3m/s | 5.5°C | 88.8% | 732.46hPa | 2.7V | 00:00:00 | 00:00:00 | 00:00:00 | |
| BIOWL1-15 | 2026-09-04 11:13:24 | 52.76951 | 9.99130 | 91° | 119km/h | 2708m | -5.4m/s | 5.5°C | 91.8% | 732hPa | 2.7V | 08:11:48 | 01:41:03 | 00:00:00 | |
| DL1XH-15 | 2026-09-04 11:13:23 | 52.76954 | 9.98845 | 92° | 113km/h | 2740m | -5.3m/s | 5.4°C | 85.4% | 729.1hPa | 2.7V | 08:11:09 | 01:40:57 | 00:00:00 | |
| DM0DOS-11 | 2026-09-04 11:13:22 | 52.76951 | 9.99033 | 89° | 115km/h | 2719m | -5.2m/s | 5.5°C | 86.7% | 730.9hPa | 2.7V | 08:11:05 | 01:41:01 | 00:00:00 | |
| AA1-15 | 2026-09-04 11:13:22 | 52.76951 | 9.99033 | 90° | 115km/h | 2719m | -5.2m/s | 5.5°C | 90.7% | 730.9hPa | 2.7V | 08:11:48 | 01:41:01 | 00:00:00 | |
| DF8AY | 2026-09-04 11:13:18 | 52.76954 | 9.98845 | 93° | 113km/h | 2740m | -5.3m/s | 5.4°C | 89.2% | 729.1hPa | 2.7V | 08:11:48 | 01:40:57 | 00:00:00 | |
| DL1XH-west | 2026-09-04 11:13:16 | 52.76957 | 9.98749 | 93° | 117km/h | 2751m | -5.1m/s | 5.4°C | 87.9% | 728.1hPa | 2.7V | 08:11:48 | 01:40:55 | 00:00:00 | |
| DD8BA-10 | 2026-09-04 11:13:16 | 52.76956 | 9.98749 | 93° | 117km/h | 2751m | -5.1m/s | 5.4°C | 84.0% | 728.1hPa | 2.6V | 00:00:00 | 00:00:00 | 00:00:00 | |
| DL1XH-15 | 2026-09-04 11:13:13 | 52.76960 | 9.98600 | 92° | 119km/h | 2766m | -5.4m/s | 5.3°C | 83.9% | 726.8hPa | 2.6V | 08:11:14 | 01:40:52 | 00:00:00 | |
| DL1XH-15 | 2026-09-04 11:13:13 | 52.76964 | 9.98357 | 92° | 111km/h | 2793m | -5.2m/s | 5.1°C | 84.4% | 724.4hPa | 2.7V | 08:11:19 | 01:40:47 | 00:00:00 | |
| BIOWL1-15 | 2026-09-04 11:13:13 | 52.76960 | 9.98600 | 92° | 119km/h | 2766m | -5.4m/s | 5.3°C | 87.4% | 726.8hPa | 2.6V | 08:11:48 | 01:40:52 | 00:00:00 | |
| DM0DOS-11 | 2026-09-04 11:13:12 | 52.76965 | 9.98311 | 92° | 111km/h | 2798m | -5.5m/s | 5.1°C | 84.4% | 724hPa | 2.7V | 08:11:20 | 01:40:46 | 00:00:00 | |
| AA1-15 | 2026-09-04 11:13:12 | 52.76961 | 9.98550 | 91° | 119km/h | 2772m | -5.5m/s | 5.3°C | 87.3% | 726.3hPa | 2.6V | 08:11:48 | 01:40:51 | 00:00:00 | |
| DB0DAN | 2026-09-04 11:13:10 | 52.76963 | 9.98452 | 91° | 110km/h | 2783m | -5.2m/s | 5.2°C | 84% | 725.4hPa | 2.7V | 00:00:00 | 00:00:00 | 00:00:00 | |
| DF8AY | 2026-09-04 11:13:07 | 52.76965 | 9.98311 | 93° | 111km/h | 2798m | -5.5m/s | 5.1°C | 87.8% | 724hPa | 2.7V | 08:11:48 | 01:40:46 | 00:00:00 | |
| DL1XH1-15 | 2026-09-04 11:13:06 | 52.76975 | 9.98078 | 94° | 111km/h | 2825m | -5.5m/s | 5°C | 81.8% | 721.6hPa | 2.7V | 08:11:25 | 01:40:41 | 00:00:00 | |
| DL1XH-west | 2026-09-04 11:13:05 | 52.76969 | 9.98218 | 94° | 113km/h | 2809m | -5.4m/s | 5.1°C | 86.9% | 723.1hPa | 2.6V | 08:11:48 | 01:40:44 | 00:00:00 | |
| BIOWL1-15 | 2026-09-04 11:13:03 | 52.76973 | 9.98125 | 94° | 111km/h | 2819m | -5.3m/s | 5°C | 86.1% | 722.1hPa | 2.7V | 08:11:48 | 01:40:42 | 00:00:00 | |
| DL1XH-15 | 2026-09-04 11:13:03 | 52.76973 | 9.98125 | 93° | 111km/h | 2819m | -5.3m/s | 5°C | 82.1% | 722.1hPa | 2.7V | 08:11:24 | 01:40:42 | 00:00:00 | |
| DL1XH-15 | 2026-09-04 11:13:03 | 52.76985 | 9.97889 | 95° | 117km/h | 2846m | -6m/s | 4.9°C | 80.3% | 719.7hPa | 2.7V | 08:11:29 | 01:40:37 | 00:00:00 | |
| AA1-15 | 2026-09-04 11:13:01 | 52.76977 | 9.98032 | 95° | 113km/h | 2830m | -5.6m/s | 5°C | 85.5% | 721.2hPa | 2.7V | 08:11:48 | 01:40:40 | 00:00:00 | |
| DF8AY | 2026-09-04 11:12:56 | 52.76991 | 9.97792 | 96° | 119km/h | 2857m | -5.2m/s | 4.9°C | 82.1% | 718.8hPa | 2.6V | 08:11:48 | 01:40:35 | 00:00:00 | |
| DB0DAN | 2026-09-04 11:12:55 | 52.76994 | 9.97742 | 96° | 115km/h | 2862m | -5.5m/s | 4.9°C | 77.1% | 718.3hPa | 2.7V | 00:00:00 | 00:00:00 | 00:00:00 | |
| DL1XH-west | 2026-09-04 11:12:55 | 52.76994 | 9.97742 | 96° | 120km/h | 2862m | -5.5m/s | 4.9°C | 81.8% | 718.3hPa | 2.7V | 08:11:48 | 01:40:34 | 00:00:00 | |
| DM0DOS-11 | 2026-09-04 11:12:54 | 52.77002 | 9.97590 | 94° | 124km/h | 2878m | -4.9m/s | 4.8°C | 78.8% | 716.9hPa | 2.7V | 08:11:35 | 01:40:31 | 00:00:00 | |
| DL1XH-15 | 2026-09-04 11:12:53 | 52.77000 | 9.97641 | 94° | 122km/h | 2873m | -5.5m/s | 4.8°C | 77.8% | 717.3hPa | 2.7V | 08:11:34 | 01:40:32 | 00:00:00 | |
| DL1XH-15 | 2026-09-04 11:12:53 | 52.77010 | 9.97384 | 92° | 122km/h | 2900m | -5.2m/s | 4.8°C | 78.9% | 715hPa | 2.7V | 08:11:39 | 01:40:27 | 00:00:00 | |
| BIOWL1-15 | 2026-09-04 11:12:53 | 52.77000 | 9.97641 | 95° | 122km/h | 2873m | -5.5m/s | 4.8°C | 82.2% | 717.3hPa | 2.7V | 08:11:48 | 01:40:32 | 00:00:00 | |
| AA1-15 | 2026-09-04 11:12:50 | 52.77006 | 9.97487 | 93° | 124km/h | 2889m | -5.8m/s | 4.8°C | 84.2% | 716hPa | 2.6V | 08:11:48 | 01:40:29 | 00:00:00 | |
| DM0DOS-11 | 2026-09-04 11:12:48 | 52.77011 | 9.97333 | 92° | 120km/h | 2905m | -5.2m/s | 4.9°C | 77.9% | 714.6hPa | 2.7V | 08:11:40 | 01:40:26 | 00:00:00 | |
| DL1XH-west | 2026-09-04 11:12:45 | 52.77014 | 9.97234 | 93° | 117km/h | 2915m | -5m/s | 4.9°C | 80.2% | 713.7hPa | 2.7V | 08:11:48 | 01:40:24 | 00:00:00 | |
| DL1XH-15 | 2026-09-04 11:12:43 | 52.77018 | 9.97137 | 93° | 117km/h | 2926m | -5.3m/s | 4.8°C | 74% | 712.7hPa | 2.7V | 08:11:44 | 01:40:22 | 00:00:00 | |
| DL1XH-15 | 2026-09-04 11:12:43 | 52.77026 | 9.96891 | 91° | 119km/h | 2952m | -5.5m/s | 4.7°C | 71.3% | 710.4hPa | 2.7V | 08:11:49 | 01:40:17 | 00:00:00 | |
| BIOWL1-15 | 2026-09-04 11:12:42 | 52.77022 | 9.97039 | 93° | 119km/h | 2936m | -5.3m/s | 4.8°C | 77.8% | 711.7hPa | 2.6V | 08:11:48 | 01:40:20 | 00:00:00 | |
| DM0DOS-11 | 2026-09-04 11:12:42 | 52.77020 | 9.97088 | 93° | 117km/h | 2931m | -5.1m/s | 4.8°C | 73.3% | 712.3hPa | 2.6V | 08:11:45 | 01:40:21 | 00:00:00 | |
| DM0DOS-11 | 2026-09-04 11:12:42 | 52.77027 | 9.96841 | 92° | 120km/h | 2957m | -5.3m/s | 4.7°C | 71% | 709.8hPa | 2.7V | 08:11:50 | 01:40:16 | 00:00:00 | |
| DB0DAN | 2026-09-04 11:12:40 | 52.77023 | 9.96990 | 93° | 113km/h | 2941m | -5.3m/s | 4.8°C | 72% | 711.25hPa | 2.7V | 00:00:00 | 00:00:00 | 00:00:00 | |
| AA1-15 | 2026-09-04 11:12:39 | 52.77025 | 9.96940 | 92° | 119km/h | 2947m | -5.1m/s | 4.8°C | 76.7% | 710.8hPa | 2.7V | 08:11:48 | 01:40:18 | 00:00:00 | |
| DL1XH-west | 2026-09-04 11:12:35 | 52.77030 | 9.96740 | 94° | 122km/h | 2967m | -5.1m/s | 4.8°C | 72.4% | 708.9hPa | 2.6V | 08:12:39 | 01:40:14 | 00:00:00 | |
| SMARD9-10 | 2026-09-04 11:12:33 | 52.77032 | 9.96689 | 95° | 124km/h | 2972m | -5.2m/s | 4.7°C | 67.3% | 708.6hPa | 2.7V | 00:00:00 | 00:00:00 | 00:00:00 | |
| DL4BBY-15 | 2026-09-04 11:12:32 | 52.77038 | 9.96584 | 95° | 130km/h | 2983m | -5.4m/s | 4.3°C | 0% | 0hPa | 2.7V | 00:00:00 | 00:00:00 | 00:00:00 | |
| DL1XH-15 | 2026-09-04 11:12:28 | 52.77043 | 9.96371 | 90° | 126km/h | 3004m | -5.3m/s | 4.5°C | 66.1% | 705.8hPa | 2.7V | 08:11:59 | 01:40:07 | 00:00:00 | |
| AA1-15 | 2026-09-04 11:12:28 | 52.77043 | 9.96371 | 90° | 126km/h | 3004m | -5.3m/s | 4.5°C | 68.9% | 705.8hPa | 2.7V | 08:12:39 | 01:40:07 | 00:00:00 | |
| DL1XH1-15 | 2026-09-04 11:12:27 | 52.77043 | 9.96319 | 90° | 124km/h | 3009m | -5.5m/s | 4.5°C | 66.3% | 705.2hPa | 2.6V | 08:12:00 | 01:40:06 | 00:00:00 | |
| DM0DOS-11 | 2026-09-04 11:12:27 | 52.77045 | 9.96058 | 91° | 128km/h | 3037m | -5m/s | 4.3°C | 64.1% | 703hPa | 2.7V | 08:12:05 | 01:40:01 | 00:00:00 | |
| DB0DAN | 2026-09-04 11:12:25 | 52.77043 | 9.96215 | 90° | 119km/h | 3020m | -5.3m/s | 4.4°C | 65.4% | 704.41hPa | 2.7V | 00:00:00 | 00:00:00 | 00:00:00 | |
| DL1XH-west | 2026-09-04 11:12:24 | 52.77044 | 9.96163 | 91° | 126km/h | 3026m | -5.8m/s | 4.4°C | 66.6% | 704hPa | 2.7V | 08:12:39 | 01:40:03 | 00:00:00 | |
| DJ2DS-15 | 2026-09-04 11:12:19 | 52.77048 | 9.95897 | 93° | 133km/h | 3053m | -6.3m/s | 4.3°C | 59.4% | 701.6hPa | 2.6V | 00:00:00 | 01:39:58 | 00:00:00 | |
| DL1XH-15 | 2026-09-04 11:12:18 | 52.77057 | 9.95573 | 91° | 128km/h | 3115m | -11.9m/s | 4.3°C | 51.9% | 696.8hPa | 2.6V | 08:12:14 | 01:39:52 | 00:00:00 | |
| AA1-15 | 2026-09-04 11:12:17 | 52.77052 | 9.95789 | 92° | 130km/h | 3069m | -12.5m/s | 4.3°C | 64.2% | 700.7hPa | 2.7V | 08:12:39 | 01:39:56 | 00:00:00 | |
| BIOWL1-15 | 2026-09-04 11:12:16 | 52.77053 | 9.95735 | 92° | 128km/h | 3081m | -11.7m/s | 4.4°C | 60.5% | 699.7hPa | 2.7V | 08:13:30 | 01:39:55 | 00:00:00 | |
| DL1XH-west | 2026-09-04 11:12:14 | 52.77056 | 9.95627 | 92° | 131km/h | 3103m | -12m/s | 4.4°C | 57.5% | 697.9hPa | 2.7V | 08:12:39 | 01:39:53 | 00:00:00 | |
| DF8AY | 2026-09-04 11:12:13 | 52.77057 | 9.95573 | 92° | 128km/h | 3115m | -11.9m/s | 4.3°C | 57.5% | 696.8hPa | 2.6V | 08:12:39 | 01:39:52 | 00:00:00 | |
| DB0DAN | 2026-09-04 11:12:10 | 52.77062 | 9.95408 | 92° | 124km/h | 3149m | -12.2m/s | 4.2°C | 47% | 693.97hPa | 2.7V | 00:00:00 | 00:00:00 | 00:00:00 | |
| DL1XH1-15 | 2026-09-04 11:12:07 | 52.77066 | 9.95241 | 91° | 131km/h | 3185m | -12.5m/s | 4.1°C | 45.3% | 691hPa | 2.7V | 08:12:20 | 01:39:46 | 00:00:00 | |
| AA1-15 | 2026-09-04 11:12:07 | 52.77066 | 9.95241 | 91° | 133km/h | 3185m | -12.5m/s | 4.1°C | 51% | 691hPa | 2.7V | 08:12:39 | 01:39:46 | 00:00:00 | |
| DD8BA-10 | 2026-09-04 11:12:06 | 52.77067 | 9.95185 | 93° | 135km/h | 3197m | -12.0m/s | 4.0°C | 44.5% | 689.9hPa | 2.7V | 00:00:00 | 00:00:00 | 00:00:00 | |
| DL1XH-15 | 2026-09-04 11:12:03 | 52.77070 | 9.95017 | 92° | 135km/h | 3232m | -11.7m/s | 4°C | 43.6% | 687hPa | 2.7V | 08:12:24 | 01:39:42 | 00:00:00 | |
| DL1XH-west | 2026-09-04 11:12:03 | 52.77070 | 9.95017 | 92° | 135km/h | 3232m | -11.7m/s | 4°C | 49.5% | 687hPa | 2.7V | 08:12:39 | 01:39:42 | 00:00:00 | |
| DF8AY | 2026-09-04 11:12:02 | 52.77072 | 9.94960 | 92° | 139km/h | 3243m | -11.9m/s | 3.9°C | 49.5% | 686hPa | 2.7V | 08:12:39 | 01:39:41 | 00:00:00 | |
| BIOWL1-15 | 2026-09-04 11:12:01 | 52.77072 | 9.94903 | 90° | 135km/h | 3255m | -12.1m/s | 3.9°C | 50.2% | 685hPa | 2.7V | 08:13:30 | 01:39:40 | 00:00:00 | |
| AA1-15 | 2026-09-04 11:11:56 | 52.77076 | 9.94616 | 91° | 141km/h | 3313m | -12m/s | 4°C | 39.4% | 680.2hPa | 2.7V | 08:12:39 | 01:39:35 | 00:00:00 | |
| DB0DAN | 2026-09-04 11:11:55 | 52.77076 | 9.94558 | 90° | 131km/h | 3324m | -11.8m/s | 3.9°C | 33% | 679.18hPa | 2.7V | 00:00:00 | 00:00:00 | 00:00:00 | |
| DL3AQ-11 | 2026-09-04 11:11:54 | 52.77077 | 9.94442 | 89° | 139km/h | 3347m | -11.8m/s | 3.9°C | 40.2% | 677.4hPa | 2.6V | 00:00:00 | 00:00:00 | 00:00:00 | |
| DL1XH-15 | 2026-09-04 11:11:53 | 52.77077 | 9.94442 | 89° | 141km/h | 3347m | -11.8m/s | 3.9°C | 40.3% | 677.4hPa | 2.6V | 08:12:34 | 01:39:32 | 00:00:00 | |
| DL1XH-15 | 2026-09-04 11:11:53 | 52.77076 | 9.94152 | 90° | 141km/h | 3403m | -11.6m/s | 3.5°C | 40.9% | 672.6hPa | 2.7V | 08:12:39 | 01:39:27 | 00:00:00 | |
| DL1XH-west | 2026-09-04 11:11:52 | 52.77076 | 9.94384 | 90° | 137km/h | 3359m | -11.7m/s | 3.8°C | 48.3% | 676.6hPa | 2.6V | 08:12:39 | 01:39:31 | 00:00:00 | |
| SMARD9-10 | 2026-09-04 11:11:49 | 52.77077 | 9.94268 | 90° | 141km/h | 3381m | -11.6m/s | 3.7°C | 38.4% | 674.6hPa | 2.7V | 00:00:00 | 00:00:00 | 00:00:00 | |
| DM0DOS-11 | 2026-09-04 11:11:47 | 52.77076 | 9.93740 | 88° | 141km/h | 3480m | -12m/s | 3°C | 50.5% | 666.2hPa | 2.7V | 08:12:46 | 01:39:20 | 00:00:00 | |
| AA1-15 | 2026-09-04 11:11:46 | 52.77076 | 9.94035 | 90° | 139km/h | 3426m | -11.6m/s | 3.3°C | 49.9% | 670.8hPa | 2.6V | 08:13:30 | 01:39:25 | 00:00:00 | |
| DD8BA-10 | 2026-09-04 11:11:46 | 52.77076 | 9.94034 | 90° | 142km/h | 3426m | -11.6m/s | 3.3°C | 43.3% | 670.8hPa | 2.7V | 00:00:00 | 00:00:00 | 00:00:00 | |
| DL1XH-15 | 2026-09-04 11:11:43 | 52.77076 | 9.93858 | 90° | 139km/h | 3458m | -11.4m/s | 3.1°C | 43.7% | 668hPa | 2.7V | 08:12:44 | 01:39:22 | 00:00:00 | |
| DL1XH-15 | 2026-09-04 11:11:43 | 52.77076 | 9.93561 | 88° | 144km/h | 3514m | -11.9m/s | 2.7°C | 60.9% | 663.5hPa | 2.6V | 08:12:49 | 01:39:17 | 00:00:00 | |
| DF8AY | 2026-09-04 11:11:42 | 52.77077 | 9.93799 | 91° | 142km/h | 3469m | -11.2m/s | 3°C | 51.8% | 667.1hPa | 2.7V | 08:13:30 | 01:39:21 | 00:00:00 | |
| DL1XH-west | 2026-09-04 11:11:41 | 52.77076 | 9.93740 | 89° | 141km/h | 3480m | -12m/s | 3°C | 57.6% | 666.2hPa | 2.7V | 08:13:30 | 01:39:20 | 00:00:00 | |
| DB0DAN | 2026-09-04 11:11:40 | 52.77076 | 9.93681 | 90° | 133km/h | 3492m | -11.7m/s | 2.9°C | 51.1% | 665.28hPa | 2.7V | 00:00:00 | 00:00:00 | 00:00:00 | |
| AA1-15 | 2026-09-04 11:11:36 | 52.77075 | 9.93442 | 90° | 146km/h | 3536m | -11.6m/s | 2.5°C | 77.1% | 661.6hPa | 2.7V | 08:13:30 | 01:39:15 | 00:00:00 | |
| DD8BA-10 | 2026-09-04 11:11:36 | 52.77075 | 9.93442 | 91° | 146km/h | 3536m | -11.5m/s | 2.5°C | 69.9% | 661.6hPa | 2.7V | 00:00:00 | 00:00:00 | 00:00:00 | |
| DL1XH-15 | 2026-09-04 11:11:33 | 52.77074 | 9.93261 | 90° | 146km/h | 3570m | -11m/s | 2.2°C | 71.2% | 658.8hPa | 2.7V | 08:12:54 | 01:39:12 | 00:00:00 | |
| DL1XH-15 | 2026-09-04 11:11:33 | 52.77071 | 9.92956 | 88° | 144km/h | 3625m | -11.5m/s | 1.9°C | 74.6% | 654.4hPa | 2.7V | 08:12:59 | 01:39:07 | 00:00:00 | |
| DL1XH-west | 2026-09-04 11:11:31 | 52.77073 | 9.93139 | 89° | 144km/h | 3591m | -11.4m/s | 2.1°C | 77.8% | 657.1hPa | 2.6V | 08:13:30 | 01:39:10 | 00:00:00 | |
| BIOWL1-15 | 2026-09-04 11:11:30 | 52.77073 | 9.93078 | 90° | 148km/h | 3602m | -11.7m/s | 2°C | 80.8% | 656.2hPa | 2.7V | 08:13:30 | 01:39:09 | 00:00:00 | |
| AA1-15 | 2026-09-04 11:11:26 | 52.77069 | 9.92833 | 87° | 146km/h | 3648m | -11.4m/s | 1.8°C | 82.4% | 652.5hPa | 2.6V | 08:13:30 | 01:39:05 | 00:00:00 | |
| DB0DAN | 2026-09-04 11:11:25 | 52.77068 | 9.92772 | 89° | 141km/h | 3658m | -11.1m/s | 1.8°C | 75.1% | 651.75hPa | 2.6V | 00:00:00 | 00:00:00 | 00:00:00 | |
| DL1XH-15 | 2026-09-04 11:11:25 | 52.77065 | 9.92649 | 87° | 144km/h | 3680m | -11.5m/s | 1.6°C | 74.7% | 649.9hPa | 2.7V | 08:13:04 | 01:39:02 | 00:00:00 | |
| DL3AQ-11 | 2026-09-04 11:11:25 | 52.77067 | 9.92710 | 88° | 148km/h | 3669m | -11.4m/s | 1.7°C | 74.7% | 650.9hPa | 2.7V | 00:00:00 | 00:00:00 | 00:00:00 | |
| DL1XH1-15 | 2026-09-04 11:11:21 | 52.77053 | 9.92217 | 88° | 150km/h | 3758m | -11.2m/s | 1.2°C | 72.6% | 643.7hPa | 2.7V | 08:13:11 | 01:38:55 | 00:00:00 | |
| DF8AY | 2026-09-04 11:11:21 | 52.77063 | 9.92525 | 87° | 150km/h | 3703m | -11.7m/s | 1.5°C | 81.5% | 648.1hPa | 2.7V | 08:13:30 | 01:39:00 | 00:00:00 | |
| DL1XH-west | 2026-09-04 11:11:20 | 52.77061 | 9.92463 | 86° | 146km/h | 3714m | -11.3m/s | 1.4°C | 82% | 647.1hPa | 2.7V | 08:13:30 | 01:38:59 | 00:00:00 | |
| BIOWL1-15 | 2026-09-04 11:11:18 | 52.77057 | 9.92340 | 86° | 148km/h | 3735m | -11.5m/s | 1.3°C | 79.9% | 645.4hPa | 2.6V | 08:13:30 | 01:38:57 | 00:00:00 | |
| AA1-15 | 2026-09-04 11:11:15 | 52.77051 | 9.92155 | 86° | 148km/h | 3769m | -11.4m/s | 1.1°C | 79% | 642.8hPa | 2.7V | 08:13:30 | 01:38:54 | 00:00:00 | |
| DL3AQ-11 | 2026-09-04 11:11:14 | 52.77048 | 9.92032 | 86° | 148km/h | 3791m | -11.5m/s | 1.1°C | 79.7% | 641.2hPa | 2.7V | 00:00:00 | 00:00:00 | 00:00:00 | |
| D01LWL | 2026-09-04 11:11:12 | 52.77045 | 9.91970 | 86° | 144km/h | 3802m | -11.2m/s | 1.1°C | 79.1% | 640.2hPa | 2.7V | 00:00:00 | 00:00:00 | 00:00:00 | |
| DB0DAN | 2026-09-04 11:11:10 | 52.77042 | 9.91847 | 86° | 141km/h | 3823m | -11.6m/s | 1°C | 76.1% | 638.52hPa | 2.7V | 00:00:00 | 00:00:00 | 00:00:00 | |
| DL1XH-west | 2026-09-04 11:11:10 | 52.77042 | 9.91847 | 86° | 148km/h | 3823m | -11.6m/s | 1°C | 83.2% | 638.5hPa | 2.7V | 08:13:30 | 01:38:49 | 00:00:00 | |
| DL1XH-15 | 2026-09-04 11:11:09 | 52.77034 | 9.91600 | 87° | 148km/h | 3867m | -10.7m/s | 0.7°C | 75.2% | 635hPa | 2.6V | 08:13:21 | 01:38:45 | 00:00:00 | |
| BIOWL1-15 | 2026-09-04 11:11:07 | 52.77024 | 9.91292 | 87° | 146km/h | 3922m | -11.4m/s | 0.2°C | 89.4% | 630.7hPa | 2.7V | 08:13:30 | 01:38:40 | 00:00:00 | |
| AA1-15 | 2026-09-04 11:11:05 | 52.77032 | 9.91538 | 86° | 148km/h | 3878m | -11.3m/s | 0.6°C | 84.2% | 634.1hPa | 2.7V | 08:13:30 | 01:38:44 | 00:00:00 | |
| DL1XH-15 | 2026-09-04 11:11:01 | 52.77024 | 9.91292 | 87° | 146km/h | 3922m | -11.4m/s | 0.2°C | 83.2% | 630.7hPa | 2.7V | 08:13:26 | 01:38:40 | 00:00:00 | |
| DM0DOS-11 | 2026-09-04 11:11:01 | 52.77013 | 9.90984 | 86° | 146km/h | 3977m | -11.5m/s | -0.2°C | 85% | 626.4hPa | 2.7V | 08:13:31 | 01:38:35 | 00:00:00 | |
| DL1XH-west | 2026-09-04 11:10:59 | 52.77019 | 9.91169 | 86° | 146km/h | 3944m | -11.6m/s | 0°C | 88.8% | 629hPa | 2.6V | 08:13:30 | 01:38:38 | 00:00:00 | |
| DL3AQ-11 | 2026-09-04 11:10:58 | 52.77015 | 9.91046 | 85° | 148km/h | 3966m | -11.4m/s | -0.1°C | 84.5% | 627.2hPa | 2.7V | 00:00:00 | 00:00:00 | 00:00:00 | |
| DL8OAI-8 | 2026-09-04 11:10:56 | 52.77015 | 9.91046 | 87° | 148km/h | 3967m | -11.4m/s | -0.1°C | 84.5% | 627.2hPa | 2.7V | 08:13:00 | 00:00:00 | 00:00:00 | |
| DB0DAN | 2026-09-04 11:10:55 | 52.77011 | 9.90923 | 87° | 142km/h | 3989m | -11.7m/s | -0.3°C | 84.6% | 625.6hPa | 2.7V | 00:00:00 | 00:00:00 | 00:00:00 | |
| DL1XH-15 | 2026-09-04 11:10:55 | 52.77000 | 9.90676 | 85° | 146km/h | 4033m | -11.2m/s | -0.6°C | 87.4% | 622.1hPa | 2.7V | 08:13:36 | 01:38:30 | 00:00:00 | |
| BIOWL1-15 | 2026-09-04 11:10:55 | 52.77011 | 9.90923 | 87° | 150km/h | 3989m | -11.7m/s | -0.3°C | 90.5% | 625.6hPa | 2.7V | 08:14:21 | 01:38:34 | 00:00:00 | |
| DF8AY | 2026-09-04 11:10:49 | 52.76996 | 9.90553 | 85° | 148km/h | 4055m | -11.7m/s | -0.8°C | 93.5% | 620.5hPa | 2.7V | 08:14:21 | 01:38:28 | 00:00:00 | |
| DL1XH-west | 2026-09-04 11:10:48 | 52.76993 | 9.90491 | 86° | 146km/h | 4066m | -11.6m/s | -0.9°C | 93.4% | 619.5hPa | 2.6V | 08:14:21 | 01:38:27 | 00:00:00 | |
| DL1XH-15 | 2026-09-04 11:10:46 | 52.76987 | 9.90368 | 84° | 146km/h | 4090m | -11.6m/s | -1.1°C | 89.1% | 617.8hPa | 2.7V | 08:13:41 | 01:38:25 | 00:00:00 | |
| DD8BA-10 | 2026-09-04 11:10:46 | 52.76987 | 9.90368 | 85° | 148km/h | 4090m | -11.6m/s | -1.0°C | 89.1% | 617.7hPa | 2.6V | 00:00:00 | 00:00:00 | 00:00:00 | |
| DM0DOS-11 | 2026-09-04 11:10:45 | 52.76973 | 9.90059 | 84° | 150km/h | 4145m | -11.4m/s | -1.2°C | 75.2% | 613.6hPa | 2.6V | 08:13:46 | 01:38:20 | 00:00:00 | |
| BIOWL1-15 | 2026-09-04 11:10:44 | 52.76978 | 9.90183 | 85° | 146km/h | 4123m | -11.2m/s | -1.3°C | 91.7% | 615.3hPa | 2.7V | 08:14:21 | 01:38:22 | 00:00:00 | |
| AA1-15 | 2026-09-04 11:10:44 | 52.76982 | 9.90244 | 85° | 150km/h | 4112m | -11.3m/s | -1.2°C | 93.5% | 616.1hPa | 2.7V | 08:14:21 | 01:38:23 | 00:00:00 | |
| DB0DAN | 2026-09-04 11:10:40 | 52.76969 | 9.89997 | 85° | 141km/h | 4157m | -11.7m/s | -1.2°C | 71.2% | 612.75hPa | 2.7V | 00:00:00 | 00:00:00 | 00:00:00 | |
| DF8AY | 2026-09-04 11:10:38 | 52.76963 | 9.89873 | 84° | 148km/h | 4180m | -11.8m/s | -1.2°C | 76.2% | 611hPa | 2.7V | 08:14:21 | 01:38:17 | 00:00:00 | |
| DL1XH-west | 2026-09-04 11:10:37 | 52.76960 | 9.89811 | 86° | 150km/h | 4191m | -11.6m/s | -1.3°C | 77.7% | 610.2hPa | 2.7V | 08:14:21 | 01:38:16 | 00:00:00 | |
| DM0DOS-11 | 2026-09-04 11:10:36 | 52.76957 | 9.89748 | 84° | 151km/h | 4203m | -11.8m/s | -1.4°C | 70.4% | 609.2hPa | 2.6V | 08:13:51 | 01:38:15 | 00:00:00 | |
| BIOWL1-15 | 2026-09-04 11:10:34 | 52.76951 | 9.89624 | 86° | 151km/h | 4226m | -11.7m/s | -1.6°C | 78.7% | 607.6hPa | 2.7V | 08:14:21 | 01:38:13 | 00:00:00 | |
| AA1-15 | 2026-09-04 11:10:33 | 52.76948 | 9.89561 | 85° | 150km/h | 4238m | -11.6m/s | -1.6°C | 79.2% | 606.6hPa | 2.7V | 08:14:21 | 01:38:12 | 00:00:00 | |
| DL4BBY-15 | 2026-09-04 11:10:32 | 52.76945 | 9.89499 | 87° | 151km/h | 4249m | -10.9m/s | -1.9°C | 0% | 0hPa | 2.7V | 00:00:00 | 00:00:00 | 00:00:00 | |
| DL1XH1-15 | 2026-09-04 11:10:31 | 52.76930 | 9.89124 | 86° | 151km/h | 4316m | -11.8m/s | -2.3°C | 76% | 600.8hPa | 2.7V | 08:14:01 | 01:38:05 | 00:00:00 | |
| DF8AY | 2026-09-04 11:10:27 | 52.76932 | 9.89187 | 87° | 150km/h | 4305m | -11.5m/s | -2.2°C | 81.3% | 601.6hPa | 2.7V | 08:14:21 | 01:38:06 | 00:00:00 | |
| DL1XH-west | 2026-09-04 11:10:26 | 52.76930 | 9.89124 | 86° | 151km/h | 4316m | -11.8m/s | -2.3°C | 82.2% | 600.8hPa | 2.7V | 08:14:21 | 01:38:05 | 00:00:00 | |
| BIOWL1-15 | 2026-09-04 11:10:25 | 52.76912 | 9.88555 | 87° | 150km/h | 4417m | -11.4m/s | -2.8°C | 84.6% | 593.2hPa | 2.6V | 08:14:21 | 01:37:56 | 00:00:00 | |
| DB0DAN | 2026-09-04 11:10:25 | 52.76928 | 9.89062 | 86° | 141km/h | 4328m | -11.3m/s | -2.4°C | 76.1% | 599.95hPa | 2.7V | 00:00:00 | 00:00:00 | 00:00:00 | |
| AA1-15 | 2026-09-04 11:10:22 | 52.76922 | 9.88873 | 87° | 150km/h | 4361m | -11.3m/s | -2.4°C | 76.4% | 597.6hPa | 2.7V | 08:14:21 | 01:38:01 | 00:00:00 | |
| DF8AY | 2026-09-04 11:10:16 | 52.76911 | 9.88492 | 88° | 153km/h | 4428m | -11.3m/s | -2.9°C | 89% | 592.4hPa | 2.7V | 08:14:21 | 01:37:55 | 00:00:00 | |
| DL1XH-west | 2026-09-04 11:10:15 | 52.76909 | 9.88429 | 87° | 151km/h | 4439m | -11.7m/s | -3°C | 93.4% | 591.5hPa | 2.7V | 08:14:21 | 01:37:54 | 00:00:00 | |
| BIOWL1-15 | 2026-09-04 11:10:12 | 52.76895 | 9.87985 | 87° | 153km/h | 4517m | -11.4m/s | -3.5°C | 95.5% | 585.9hPa | 2.7V | 08:14:21 | 01:37:47 | 00:00:00 | |
| DL1XH1-15 | 2026-09-04 11:10:11 | 52.76901 | 9.88176 | 88° | 153km/h | 4484m | -11.2m/s | -3.3°C | 90.3% | 588.3hPa | 2.6V | 08:14:16 | 01:37:50 | 00:00:00 | |
| DM0DOS-11 | 2026-09-04 11:10:11 | 52.76891 | 9.87859 | 87° | 153km/h | 4539m | -11.2m/s | -3.7°C | 91.2% | 584.2hPa | 2.6V | 08:14:21 | 01:37:45 | 00:00:00 | |
| AA1-15 | 2026-09-04 11:10:11 | 52.76901 | 9.88176 | 88° | 153km/h | 4484m | -11.2m/s | -3.3°C | 95.2% | 588.3hPa | 2.6V | 08:14:21 | 01:37:50 | 00:00:00 | |
| DB0DAN | 2026-09-04 11:10:10 | 52.76899 | 9.88112 | 86° | 144km/h | 4495m | -11.7m/s | -3.4°C | 89.9% | 587.39hPa | 2.7V | 00:00:00 | 00:00:00 | 00:00:00 | |
| DF8AY | 2026-09-04 11:10:06 | 52.76891 | 9.87859 | 88° | 153km/h | 4539m | -11.2m/s | -3.7°C | 95.9% | 584.3hPa | 2.6V | 08:14:21 | 01:37:45 | 00:00:00 | |
| DL1XH-west | 2026-09-04 11:10:05 | 52.76889 | 9.87795 | 86° | 151km/h | 4550m | -11.4m/s | -3.8°C | 96.4% | 583.5hPa | 2.6V | 08:15:12 | 01:37:44 | 00:00:00 | |
| DL3AQ-11 | 2026-09-04 11:10:05 | 52.76887 | 9.87732 | 87° | 151km/h | 4561m | -11.1m/s | -3.9°C | 91.7% | 582.5hPa | 2.7V | 00:00:00 | 00:00:00 | 00:00:00 | |
| SONCRA | 2026-09-04 11:10:04 | 52.76887 | 9.87732 | 87° | 151km/h | 4561m | -11.1m/s | -3.9°C | 91.7% | 582.5hPa | 2.7V | 00:00:00 | 00:00:00 | 00:00:00 | |
| S3001 | 2026-09-04 11:10:00 | 52.76879 | 9.87477 | 86° | 151km/h | 4605m | -11.6m/s | -4.3°C | 93.8% | 579.5hPa | 2.7V | 00:00:00 | 00:00:00 | 00:00:00 | |
| AA1-15 | 2026-09-04 11:10:00 | 52.76879 | 9.87477 | 86° | 153km/h | 4605m | -11.6m/s | -4.3°C | 98.8% | 579.5hPa | 2.6V | 08:15:12 | 01:37:39 | 00:00:00 | |
| DL4XJ-10 | 2026-09-04 11:09:59 | 52.76876 | 9.87414 | 88° | 153km/h | 4616m | -11.2m/s | -4.6°C | 0% | 0hPa | 2.7V | 00:00:00 | 00:00:00 | 00:00:00 | |
| DM0DOS-11 | 2026-09-04 11:09:58 | 52.76870 | 9.87222 | 87° | 155km/h | 4650m | -11.9m/s | -4.5°C | 92.5% | 576.1hPa | 2.7V | 08:14:31 | 01:37:35 | 00:00:00 | |
| DF8AY | 2026-09-04 11:09:56 | 52.76870 | 9.87222 | 87° | 155km/h | 4650m | -11.9m/s | -4.5°C | 97.9% | 576.1hPa | 2.7V | 08:15:12 | 01:37:35 | 00:00:00 | |
| DB0DAN | 2026-09-04 11:09:55 | 52.76868 | 9.87158 | 86° | 144km/h | 4661m | -11.9m/s | -4.6°C | 91.9% | 575.19hPa | 2.6V | 00:00:00 | 00:00:00 | 00:00:00 | |
| DL1XH-west | 2026-09-04 11:09:54 | 52.76866 | 9.87094 | 88° | 155km/h | 4673m | -11.6m/s | -4.7°C | 96.7% | 574.4hPa | 2.6V | 08:15:12 | 01:37:33 | 00:00:00 | |
| DL3AQ-11 | 2026-09-04 11:09:54 | 52.76864 | 9.87029 | 86° | 153km/h | 4684m | -11.8m/s | -4.7°C | 89.4% | 573.6hPa | 2.7V | 00:00:00 | 00:00:00 | 00:00:00 | |
| SMARD9-15 | 2026-09-04 11:09:53 | 52.76862 | 9.86965 | 87° | 151km/h | 4695m | -11.6m/s | -4.5°C | 83.0% | 572.8hPa | 2.7V | 00:00:00 | 00:00:00 | 00:00:00 | |
| DM0DOS-11 | 2026-09-04 11:09:51 | 52.76860 | 9.86901 | 87° | 157km/h | 4707m | -11.8m/s | -4.5°C | 80.2% | 571.8hPa | 2.7V | 08:14:36 | 01:37:30 | 00:00:00 | |
| DM0DOS-11 | 2026-09-04 11:09:51 | 52.76851 | 9.86580 | 87° | 157km/h | 4764m | -12m/s | -4.9°C | 79% | 567.7hPa | 2.7V | 08:14:41 | 01:37:25 | 00:00:00 | |
| AA1-15 | 2026-09-04 11:09:49 | 52.76856 | 9.86773 | 88° | 155km/h | 4730m | -11.8m/s | -4.7°C | 87.3% | 570.3hPa | 2.6V | 08:15:12 | 01:37:28 | 00:00:00 | |
| DO2SHX-10 | 2026-09-04 11:09:47 | 52.76852 | 9.86644 | 88° | 153km/h | 4752m | -11.9m/s | -4.8°C | 79.3% | 568.5hPa | 2.7V | 00:00:00 | 01:37:26 | 00:00:00 | |
| DL1XH-15 | 2026-09-04 11:09:45 | 52.76842 | 9.86258 | 87° | 157km/h | 4822m | -11.8m/s | -5.3°C | 77.8% | 563.4hPa | 2.7V | 08:14:46 | 01:37:20 | 00:00:00 | |
| DF8AY | 2026-09-04 11:09:45 | 52.76848 | 9.86515 | 86° | 151km/h | 4776m | -12.3m/s | -5°C | 86.9% | 566.9hPa | 2.7V | 08:15:12 | 01:37:24 | 00:00:00 | |
| DL1XH-west | 2026-09-04 11:09:44 | 52.76847 | 9.86451 | 88° | 155km/h | 4787m | -11.8m/s | -5.1°C | 87.3% | 566hPa | 2.6V | 08:15:12 | 01:37:23 | 00:00:00 | |
| DO2SHX-10 | 2026-09-04 11:09:44 | 52.76847 | 9.86451 | 89° | 155km/h | 4787m | -11.8m/s | -5.1°C | 80.6% | 565.9hPa | 2.6V | 00:00:00 | 01:37:23 | 00:00:00 | |
| DB0DAN | 2026-09-04 11:09:40 | 52.76840 | 9.86193 | 87° | 146km/h | 4833m | -12m/s | -5.4°C | 77.4% | 562.61hPa | 2.7V | 00:00:00 | 00:00:00 | 00:00:00 | |
| BIOWL1-15 | 2026-09-04 11:09:40 | 52.76837 | 9.86065 | 87° | 155km/h | 4856m | -11.8m/s | -5.7°C | 85.6% | 561.1hPa | 2.6V | 08:16:03 | 01:37:17 | 00:00:00 | |
| AA1-15 | 2026-09-04 11:09:39 | 52.76838 | 9.86129 | 88° | 155km/h | 4844m | -11.4m/s | -5.5°C | 85.2% | 561.8hPa | 2.7V | 08:15:12 | 01:37:18 | 00:00:00 | |
| DL4XJ-10 | 2026-09-04 11:09:39 | 52.76838 | 9.86129 | 89° | 155km/h | 4845m | -11.3m/s | -5.7°C | 0% | 0hPa | 2.7V | 00:00:00 | 00:00:00 | 00:00:00 | |
| DJ2DS-15 | 2026-09-04 11:09:38 | 52.76837 | 9.86064 | 87° | 155km/h | 4856m | -11.7m/s | -5.6°C | 79.2% | 561.1hPa | 2.7V | 00:00:00 | 01:37:17 | 00:00:00 | |
| DL1XH1-15 | 2026-09-04 11:09:36 | 52.76833 | 9.85936 | 88° | 155km/h | 4878m | -11.5m/s | -5.8°C | 79.7% | 559.3hPa | 2.7V | 08:14:51 | 01:37:15 | 00:00:00 | |
| DF8AY | 2026-09-04 11:09:34 | 52.76830 | 9.85807 | 88° | 153km/h | 4901m | -11.5m/s | -6.1°C | 86.7% | 557.7hPa | 2.7V | 08:15:12 | 01:37:13 | 00:00:00 | |
| DL1XH-west | 2026-09-04 11:09:33 | 52.76828 | 9.85743 | 87° | 155km/h | 4912m | -11.6m/s | -6.2°C | 86.4% | 556.9hPa | 2.6V | 08:15:12 | 01:37:12 | 00:00:00 | |
| DO2SHX-10 | 2026-09-04 11:09:32 | 52.76826 | 9.85678 | 88° | 153km/h | 4923m | -11.4m/s | -6.2°C | 81.3% | 556.1hPa | 2.6V | 00:00:00 | 01:37:11 | 00:00:00 | |
| DM0DOS-11 | 2026-09-04 11:09:31 | 52.76816 | 9.85290 | 86° | 157km/h | 4992m | -11.9m/s | -6.9°C | 83% | 551.2hPa | 2.6V | 08:15:01 | 01:37:05 | 00:00:00 | |
| DL1XH1-15 | 2026-09-04 11:09:31 | 52.76825 | 9.85614 | 88° | 157km/h | 4934m | -11.7m/s | -6.3°C | 81.3% | 555.3hPa | 2.7V | 08:14:56 | 01:37:10 | 00:00:00 | |
| AA1-15 | 2026-09-04 11:09:28 | 52.76820 | 9.85420 | 87° | 155km/h | 4969m | -11.8m/s | -6.6°C | 86.5% | 552.9hPa | 2.7V | 08:15:12 | 01:37:07 | 00:00:00 | |
| BIOWL1-15 | 2026-09-04 11:09:27 | 52.76818 | 9.85355 | 88° | 153km/h | 4980m | -11.9m/s | -6.8°C | 87.1% | 552hPa | 2.7V | 08:16:03 | 01:37:06 | 00:00:00 | |
| DB0DAN | 2026-09-04 11:09:25 | 52.76814 | 9.85226 | 87° | 146km/h | 5003m | -12m/s | -7°C | 83% | 550.4hPa | 2.6V | 00:00:00 | 00:00:00 | 00:00:00 | |
| DL1XH-15 | 2026-09-04 11:09:25 | 52.76804 | 9.84902 | 85° | 155km/h | 5062m | -12.4m/s | -7.4°C | 83% | 546.3hPa | 2.7V | 08:15:07 | 01:36:59 | 00:00:00 | |
| DM0DOS-11 | 2026-09-04 11:09:25 | 52.76806 | 9.84967 | 87° | 157km/h | 5050m | -12m/s | -7.3°C | 85.6% | 547.1hPa | 2.7V | 08:15:06 | 01:37:00 | 00:00:00 | |
| DF8AY | 2026-09-04 11:09:24 | 52.76812 | 9.85161 | 88° | 155km/h | 5015m | -12.4m/s | -7.1°C | 86.4% | 549.6hPa | 2.6V | 08:15:12 | 01:37:03 | 00:00:00 | |
| DL1XH-west | 2026-09-04 11:09:23 | 52.76808 | 9.85032 | 87° | 153km/h | 5039m | -11.9m/s | -7.2°C | 87.8% | 547.9hPa | 2.7V | 08:15:12 | 01:37:01 | 00:00:00 | |
| DF8AY | 2026-09-04 11:09:18 | 52.76786 | 9.84448 | 85° | 157km/h | 5146m | -12.2m/s | -7.7°C | 73.4% | 540.6hPa | 2.7V | 08:16:03 | 01:36:52 | 00:00:00 | |
| AA1-15 | 2026-09-04 11:09:18 | 52.76799 | 9.84772 | 86° | 157km/h | 5086m | -12.6m/s | -7.6°C | 87.6% | 544.7hPa | 2.6V | 08:15:12 | 01:36:57 | 00:00:00 | |
| BIOWL1-15 | 2026-09-04 11:09:16 | 52.76794 | 9.84643 | 87° | 157km/h | 5111m | -11.8m/s | -7.8°C | 89.5% | 543hPa | 2.6V | 08:16:03 | 01:36:55 | 00:00:00 | |
| DL1XH-15 | 2026-09-04 11:09:15 | 52.76777 | 9.84252 | 84° | 155km/h | 5181m | -12.5m/s | -7.5°C | 54% | 538.1hPa | 2.6V | 08:15:17 | 01:36:49 | 00:00:00 | |
| DD8BA-10 | 2026-09-04 11:09:15 | 52.76791 | 9.84577 | 86° | 157km/h | 5122m | -12.2m/s | -7.8°C | 85.6% | 542.1hPa | 2.7V | 00:00:00 | 00:00:00 | 00:00:00 | |
| DO2SHX-10 | 2026-09-04 11:09:14 | 52.76789 | 9.84513 | 87° | 155km/h | 5135m | -11.8m/s | -7.8°C | 81.9% | 541.3hPa | 2.7V | 00:00:00 | 01:36:53 | 00:00:00 | |
| DO9LL-15 | 2026-09-04 11:09:13 | 52.76786 | 9.84447 | 86° | 155km/h | 5147m | -12.2m/s | -7.6°C | 68.6% | 540.5hPa | 2.7V | 00:00:00 | 01:36:52 | 00:00:00 | |
| DL1XH1-15 | 2026-09-04 11:09:12 | 52.76780 | 9.84318 | 86° | 159km/h | 5170m | -11.6m/s | -7.5°C | 54.9% | 538.9hPa | 2.7V | 08:15:16 | 01:36:50 | 00:00:00 | |
| DL1XH-west | 2026-09-04 11:09:12 | 52.76783 | 9.84383 | 85° | 153km/h | 5158m | -11.8m/s | -7.6°C | 66.7% | 539.8hPa | 2.7V | 08:16:03 | 01:36:51 | 00:00:00 | |
| DB0DAN | 2026-09-04 11:09:10 | 52.76777 | 9.84252 | 85° | 148km/h | 5182m | -12.5m/s | -7.5°C | 53.4% | 538.13hPa | 2.6V | 00:00:00 | 00:00:00 | 00:00:00 | |
| AA1-15 | 2026-09-04 11:09:07 | 52.76768 | 9.84057 | 86° | 153km/h | 5216m | -11.9m/s | -7.8°C | 60.4% | 535.7hPa | 2.7V | 08:16:03 | 01:36:46 | 00:00:00 | |
| BIOWL1-15 | 2026-09-04 11:09:04 | 52.76743 | 9.83473 | 85° | 155km/h | 5322m | -12.1m/s | -8.7°C | 61.4% | 528.4hPa | 2.7V | 08:16:03 | 01:36:37 | 00:00:00 | |
| DF8AY | 2026-09-04 11:09:03 | 52.76757 | 9.83797 | 85° | 157km/h | 5263m | -12.3m/s | -8.2°C | 61.8% | 532.5hPa | 2.6V | 08:16:03 | 01:36:42 | 00:00:00 | |
| DL1XH1-15 | 2026-09-04 11:09:02 | 52.76752 | 9.83667 | 85° | 159km/h | 5286m | -12.4m/s | -8.4°C | 57% | 530.8hPa | 2.7V | 08:15:26 | 01:36:40 | 00:00:00 | |
| DL1XH-west | 2026-09-04 11:09:02 | 52.76754 | 9.83733 | 86° | 155km/h | 5275m | -12.3m/s | -8.3°C | 62.2% | 531.6hPa | 2.6V | 08:16:03 | 01:36:41 | 00:00:00 | |
| DO2SHX-10 | 2026-09-04 11:09:02 | 52.76754 | 9.83732 | 87° | 157km/h | 5275m | -12.2m/s | -8.3°C | 56.8% | 531.6hPa | 2.7V | 00:00:00 | 01:36:41 | 00:00:00 | |
| DL1XH-15 | 2026-09-04 11:09:01 | 52.76749 | 9.83603 | 85° | 153km/h | 5298m | -12.4m/s | -8.5°C | 57% | 530.1hPa | 2.7V | 08:15:27 | 01:36:39 | 00:00:00 | |
| DD1CC8 | 2026-09-04 11:08:59 | 52.76712 | 9.82826 | 84° | 153km/h | 5439m | -12.2m/s | -9.4°C | 51.4% | 520.5hPa | 2.7V | 00:00:00 | 00:00:00 | 00:00:00 | |
| DJ2DS-15 | 2026-09-04 11:08:58 | 52.76743 | 9.83473 | 86° | 155km/h | 5322m | -12.1m/s | -8.7°C | 57.0% | 528.3hPa | 2.7V | 08:15:00 | 01:36:37 | 00:00:00 | |
| DD1CC3-15 | 2026-09-04 11:08:57 | 52.76743 | 9.83473 | 86° | 155km/h | 5322m | -12.1m/s | -8.7°C | 56.3% | 528.3hPa | 2.6V | 00:00:00 | 00:00:00 | 00:00:00 | |
| DL1XH-15 | 2026-09-04 11:08:56 | 52.76718 | 9.82956 | 84° | 153km/h | 5416m | -11.9m/s | -9.2°C | 52.1% | 522hPa | 2.6V | 08:15:37 | 01:36:29 | 00:00:00 | |
| DL1XH1-15 | 2026-09-04 11:08:56 | 52.76722 | 9.83020 | 85° | 157km/h | 5404m | -11.9m/s | -9.2°C | 52.7% | 522.8hPa | 2.7V | 08:15:36 | 01:36:30 | 00:00:00 | |
| DB0DAN | 2026-09-04 11:08:55 | 52.76734 | 9.83280 | 85° | 146km/h | 5358m | -12m/s | -9°C | 57.3% | 526.01hPa | 2.6V | 00:00:00 | 00:00:00 | 00:00:00 | |
| DF8AY | 2026-09-04 11:08:55 | 52.76728 | 9.83150 | 85° | 155km/h | 5382m | -12m/s | -9.1°C | 60.8% | 524.4hPa | 2.7V | 08:16:03 | 01:36:32 | 00:00:00 | |
| DL1XH-west | 2026-09-04 11:08:54 | 52.76725 | 9.83085 | 86° | 155km/h | 5393m | -11.2m/s | -9.1°C | 56.8% | 523.7hPa | 2.7V | 08:16:03 | 01:36:31 | 00:00:00 | |
| BIOWL1-15 | 2026-09-04 11:08:53 | 52.76722 | 9.83020 | 85° | 157km/h | 5404m | -11.9m/s | -9.2°C | 56.2% | 522.8hPa | 2.7V | 08:16:03 | 01:36:30 | 00:00:00 | |
| DO2SHX-10 | 2026-09-04 11:08:53 | 52.76728 | 9.83150 | 85° | 155km/h | 5382m | -12.0m/s | -9.1°C | 57.5% | 524.3hPa | 2.6V | 00:00:00 | 01:36:32 | 00:00:00 | |
| DL8OAI-8 | 2026-09-04 11:08:52 | 52.76728 | 9.83150 | 86° | 155km/h | 5382m | -12.0m/s | -9.1°C | 56.8% | 524.4hPa | 2.6V | 08:16:00 | 00:00:00 | 00:00:00 | |
| DO2SHX-10 | 2026-09-04 11:08:50 | 52.76718 | 9.82956 | 85° | 153km/h | 5416m | -11.9m/s | -9.2°C | 52.1% | 522.0hPa | 2.6V | 00:00:00 | 01:36:29 | 00:00:00 | |
| GOEST3-10 | 2026-09-04 11:08:49 | 52.76715 | 9.82891 | 87° | 155km/h | 5428m | -11.6m/s | -9.3°C | 51.7% | 521.2hPa | 2.6V | 00:00:00 | 00:00:00 | 00:00:00 | |
| DO2SHX-10 | 2026-09-04 11:08:46 | 52.76705 | 9.82697 | 85° | 155km/h | 5463m | -11.7m/s | -9.4°C | 51.2% | 518.9hPa | 2.6V | 00:00:00 | 01:36:25 | 00:00:00 | |
| DL1XH-15 | 2026-09-04 11:08:45 | 52.76685 | 9.82311 | 85° | 151km/h | 5532m | -11.4m/s | -9.4°C | 43.2% | 514.3hPa | 2.6V | 08:15:47 | 01:36:19 | 00:00:00 | |
| DL3AQ-11 | 2026-09-04 11:08:45 | 52.76699 | 9.82568 | 85° | 157km/h | 5486m | -11.9m/s | -9.5°C | 50.9% | 517.4hPa | 2.7V | 00:00:00 | 00:00:00 | 00:00:00 | |
| DM0DOS-11 | 2026-09-04 11:08:44 | 52.76689 | 9.82375 | 84° | 155km/h | 5521m | -11.7m/s | -9.5°C | 50.7% | 515.1hPa | 2.7V | 08:15:46 | 01:36:20 | 00:00:00 | |
| DF8AY | 2026-09-04 11:08:43 | 52.76695 | 9.82503 | 85° | 153km/h | 5498m | -11.9m/s | -9.5°C | 55.4% | 516.7hPa | 2.7V | 08:16:03 | 01:36:22 | 00:00:00 | |
| DL1XH-west | 2026-09-04 11:08:42 | 52.76692 | 9.82439 | 86° | 155km/h | 5509m | -11.5m/s | -9.5°C | 54% | 515.8hPa | 2.7V | 08:16:03 | 01:36:21 | 00:00:00 | |
| BIOWL1-15 | 2026-09-04 11:08:41 | 52.76689 | 9.82375 | 85° | 155km/h | 5521m | -11.7m/s | -9.5°C | 53.5% | 515.1hPa | 2.7V | 08:16:03 | 01:36:20 | 00:00:00 | |
| DB0DAN | 2026-09-04 11:08:40 | 52.76685 | 9.82311 | 85° | 144km/h | 5532m | -11.4m/s | -9.4°C | 42.6% | 514.3hPa | 2.6V | 00:00:00 | 00:00:00 | 00:00:00 | |
| DO2SHX-10 | 2026-09-04 11:08:40 | 52.76685 | 9.82311 | 86° | 151km/h | 5532m | -11.4m/s | -9.3°C | 43.2% | 514.3hPa | 2.6V | 08:15:00 | 01:36:19 | 00:00:00 | |
| DL4XJ-10 | 2026-09-04 11:08:39 | 52.76682 | 9.82248 | 87° | 148km/h | 5543m | -11.1m/s | -9.6°C | 0% | 0hPa | 2.6V | 00:00:00 | 00:00:00 | 00:00:00 | |
| DF8AY-15 | 2026-09-04 11:08:38 | 52.76679 | 9.82184 | 85° | 148km/h | 5553m | -11.7m/s | -9.5°C | 41.9% | 512.9hPa | 2.6V | 00:00:00 | 01:36:17 | 00:00:00 | |
| DO2SHX-10 | 2026-09-04 11:08:37 | 52.76676 | 9.82122 | 86° | 151km/h | 5565m | -11.3m/s | -9.6°C | 41.6% | 512.2hPa | 2.6V | 00:00:00 | 01:36:16 | 00:00:00 | |
| DL1XH-15 | 2026-09-04 11:08:35 | 52.76653 | 9.81685 | 84° | 146km/h | 5641m | -11.3m/s | -8.9°C | 37.9% | 507.2hPa | 2.6V | 08:15:57 | 01:36:09 | 00:00:00 | |
| DD8BA-10 | 2026-09-04 11:08:35 | 52.76669 | 9.81996 | 85° | 148km/h | 5587m | -11.1m/s | -9.5°C | 36.1% | 510.7hPa | 2.7V | 00:00:00 | 00:00:00 | 00:00:00 | |
| DM0DOS-11 | 2026-09-04 11:08:34 | 52.76656 | 9.81747 | 84° | 150km/h | 5630m | -11.2m/s | -9.3°C | 46.4% | 507.9hPa | 2.7V | 08:15:56 | 01:36:10 | 00:00:00 | |
| DF8AY | 2026-09-04 11:08:32 | 52.76660 | 9.81809 | 86° | 148km/h | 5619m | -11m/s | -9.4°C | 56.3% | 508.6hPa | 2.7V | 08:16:03 | 01:36:11 | 00:00:00 | |
| DL1XH-west | 2026-09-04 11:08:31 | 52.76656 | 9.81747 | 84° | 150km/h | 5630m | -11.2m/s | -9.3°C | 50.6% | 507.9hPa | 2.7V | 08:16:03 | 01:36:10 | 00:00:00 | |
| DO2SHX-10 | 2026-09-04 11:08:31 | 52.76656 | 9.81747 | 85° | 148km/h | 5630m | -11.2m/s | -9.2°C | 46.4% | 507.9hPa | 2.7V | 00:00:00 | 01:36:10 | 00:00:00 | |
| EDDB2-12 | 2026-09-04 11:08:29 | 52.76646 | 9.81562 | 83° | 146km/h | 5663m | -11.7m/s | -8.8°C | 36.1% | 505.6hPa | 2.6V | 00:00:00 | 00:00:00 | 00:00:00 | |
| DO2SHX-10 | 2026-09-04 11:08:28 | 52.76646 | 9.81562 | 84° | 146km/h | 5663m | -11.7m/s | -8.7°C | 36.6% | 505.6hPa | 2.6V | 00:00:00 | 01:36:07 | 00:00:00 | |
| DL1CLM-18 | 2026-09-04 11:08:27 | 52.76642 | 9.81501 | 86° | 146km/h | 5674m | -11.1m/s | -8.8°C | 35.7% | 505.0hPa | 2.6V | 00:00:00 | 00:00:00 | 00:00:00 | |
| DB0DAN | 2026-09-04 11:08:25 | 52.76636 | 9.81380 | 84° | 137km/h | 5696m | -11.4m/s | -8.8°C | 40.4% | 503.54hPa | 2.6V | 00:00:00 | 00:00:00 | 00:00:00 | |
| DL1XH-15 | 2026-09-04 11:08:25 | 52.76620 | 9.81080 | 84° | 141km/h | 5750m | -10.9m/s | -8.8°C | 61.3% | 500.1hPa | 2.6V | 08:16:07 | 01:35:59 | 00:00:00 | |
| BIOWL1-15 | 2026-09-04 11:08:25 | 52.76624 | 9.81139 | 85° | 146km/h | 5739m | -11m/s | -8.8°C | 71.6% | 500.7hPa | 2.7V | 08:16:54 | 01:36:00 | 00:00:00 | |
| DD8BA-10 | 2026-09-04 11:08:25 | 52.76636 | 9.81380 | 85° | 144km/h | 5696m | -11.4m/s | -8.8°C | 41.0% | 503.5hPa | 2.6V | 00:00:00 | 00:00:00 | 00:00:00 | |
| DF2AP-13 | 2026-09-04 11:08:24 | 52.76632 | 9.81319 | 86° | 146km/h | 5707m | -11.0m/s | -8.7°C | 60.8% | 502.9hPa | 2.7V | 00:00:00 | 01:36:03 | 00:00:00 | |
| GOEST3-10 | 2026-09-04 11:08:23 | 52.76629 | 9.81259 | 85° | 144km/h | 5718m | -11.6m/s | -8.8°C | 60.8% | 502.1hPa | 2.7V | 00:00:00 | 01:36:02 | 00:00:00 | |
| DM0DOS-11 | 2026-09-04 11:08:22 | 52.76624 | 9.81139 | 85° | 146km/h | 5739m | -11m/s | -8.8°C | 63.5% | 500.7hPa | 2.7V | 08:16:06 | 01:36:00 | 00:00:00 | |
| DF8AY | 2026-09-04 11:08:22 | 52.76626 | 9.81200 | 86° | 144km/h | 5729m | -10.8m/s | -8.9°C | 70.5% | 501.4hPa | 2.7V | 08:16:54 | 01:36:01 | 00:00:00 | |
| DL1XH-west | 2026-09-04 11:08:20 | 52.76621 | 9.81080 | 85° | 141km/h | 5750m | -10.9m/s | -8.8°C | 70% | 500.1hPa | 2.6V | 08:16:54 | 01:35:59 | 00:00:00 | |
| DO2SHX-10 | 2026-09-04 11:08:19 | 52.76618 | 9.81020 | 87° | 144km/h | 5760m | -11.3m/s | -8.8°C | 60.9% | 499.4hPa | 2.7V | 00:00:00 | 01:35:58 | 00:00:00 | |
| GOEST3-10 | 2026-09-04 11:08:18 | 52.76615 | 9.80960 | 86° | 144km/h | 5772m | -11.4m/s | -8.9°C | 62.5% | 498.7hPa | 2.7V | 08:16:00 | 00:00:00 | 00:00:00 | |
| DJ2DS-15 | 2026-09-04 11:08:17 | 52.76613 | 9.80917 | 87° | 146km/h | 5782m | -10.7m/s | -9.0°C | 63.3% | 497.9hPa | 2.6V | 00:00:00 | 01:35:56 | 00:00:00 | |
| DO2SHX-10 | 2026-09-04 11:08:16 | 52.76611 | 9.80840 | 87° | 146km/h | 5793m | -11.1m/s | -9.1°C | 64.1% | 497.3hPa | 2.6V | 00:00:00 | 01:35:55 | 00:00:00 | |
| DL1XH-15 | 2026-09-04 11:08:15 | 52.76600 | 9.80477 | 87° | 144km/h | 5859m | -11.3m/s | -10.1°C | 68.5% | 493hPa | 2.6V | 08:16:17 | 01:35:49 | 00:00:00 | |
| DF8AY | 2026-09-04 11:08:11 | 52.76601 | 9.80537 | 87° | 146km/h | 5848m | -11.8m/s | -10°C | 74.9% | 493.8hPa | 2.7V | 08:16:54 | 01:35:50 | 00:00:00 | |
| DM0DOS-11 | 2026-09-04 11:08:11 | 52.76601 | 9.80538 | 86° | 146km/h | 5848m | -11.8m/s | -10°C | 68.3% | 493.8hPa | 2.7V | 08:16:16 | 01:35:50 | 00:00:00 | |
| BIOWL1-15 | 2026-09-04 11:08:11 | 52.76597 | 9.80355 | 87° | 144km/h | 5881m | -11.7m/s | -10.3°C | 78.8% | 491.6hPa | 2.7V | 08:16:54 | 01:35:47 | 00:00:00 | |
| DB0DAN | 2026-09-04 11:08:10 | 52.76600 | 9.80477 | 88° | 137km/h | 5859m | -11.3m/s | -10.1°C | 67.7% | 493.03hPa | 2.6V | 00:00:00 | 00:00:00 | 00:00:00 | |
| DL1XH-west | 2026-09-04 11:08:10 | 52.76600 | 9.80477 | 88° | 144km/h | 5859m | -11.3m/s | -10.1°C | 74.8% | 493hPa | 2.6V | 08:16:54 | 01:35:49 | 00:00:00 | |
| AA1-15 | 2026-09-04 11:08:09 | 52.76598 | 9.80416 | 88° | 148km/h | 5870m | -11.5m/s | -10.2°C | 76.4% | 492.4hPa | 2.6V | 08:16:54 | 01:35:48 | 00:00:00 | |
| GOEST3-10 | 2026-09-04 11:08:08 | 52.76597 | 9.80355 | 88° | 146km/h | 5881m | -11.6m/s | -10.3°C | 72.9% | 491.6hPa | 2.6V | 00:00:00 | 00:00:00 | 00:00:00 | |
| DO2SHX-10 | 2026-09-04 11:08:07 | 52.76595 | 9.80294 | 89° | 146km/h | 5893m | -11.6m/s | -10.4°C | 73.7% | 490.8hPa | 2.6V | 00:00:00 | 01:35:46 | 00:00:00 | |
| D01LWL | 2026-09-04 11:08:06 | 52.76594 | 9.80233 | 87° | 144km/h | 5904m | -11.5m/s | -10.6°C | 73.7% | 490.1hPa | 2.6V | 00:00:00 | 00:00:00 | 00:00:00 | |
| DL3AQ-11 | 2026-09-04 11:08:05 | 52.76591 | 9.80111 | 87° | 146km/h | 5926m | -11.3m/s | -10.8°C | 75.3% | 488.8hPa | 2.6V | 00:00:00 | 00:00:00 | 00:00:00 | |
| DO2SHX-10 | 2026-09-04 11:08:04 | 52.76591 | 9.80111 | 88° | 146km/h | 5926m | -11.2m/s | -10.7°C | 76.2% | 488.8hPa | 2.6V | 00:00:00 | 01:35:43 | 00:00:00 | |
| GOEST3-10 | 2026-09-04 11:08:03 | 52.76590 | 9.80050 | 89° | 146km/h | 5937m | -11.1m/s | -10.8°C | 77.2% | 488.1hPa | 2.6V | 00:00:00 | 01:35:42 | 00:00:00 | |
| DL1XH1-15 | 2026-09-04 11:08:01 | 52.76588 | 9.79928 | 87° | 144km/h | 5959m | -11.7m/s | -11°C | 76.9% | 486.7hPa | 2.7V | 08:16:26 | 01:35:40 | 00:00:00 | |
| DF8AY | 2026-09-04 11:08:01 | 52.76588 | 9.79928 | 88° | 144km/h | 5959m | -11.7m/s | -11°C | 82.2% | 486.7hPa | 2.7V | 08:16:54 | 01:35:40 | 00:00:00 | |
| DL1XH-west | 2026-09-04 11:08:00 | 52.76587 | 9.79867 | 90° | 148km/h | 5970m | -11.1m/s | -11.2°C | 81.5% | 485.9hPa | 2.7V | 08:16:54 | 01:35:39 | 00:00:00 | |
| AA1-15 | 2026-09-04 11:07:59 | 52.76587 | 9.79806 | 88° | 146km/h | 5981m | -11.6m/s | -11.3°C | 81.4% | 485.3hPa | 2.7V | 08:16:54 | 01:35:38 | 00:00:00 | |
| DL4XJ-10 | 2026-09-04 11:07:59 | 52.76586 | 9.79806 | 88° | 144km/h | 5981m | -11.5m/s | -11.5°C | 0% | 0hPa | 2.6V | 00:00:00 | 00:00:00 | 00:00:00 | |
| DO2SHX-10 | 2026-09-04 11:07:58 | 52.76586 | 9.79745 | 90° | 146km/h | 5993m | -11.5m/s | -11.3°C | 76.8% | 484.5hPa | 2.6V | 00:00:00 | 01:35:37 | 00:00:00 | |
| DJ2DS-15 | 2026-09-04 11:07:57 | 52.76585 | 9.79684 | 89° | 144km/h | 6004m | -11.3m/s | -11.4°C | 77.2% | 483.8hPa | 2.6V | 00:00:00 | 01:35:36 | 00:00:00 | |
| DL1XH-15 | 2026-09-04 11:07:55 | 52.76581 | 9.79259 | 90° | 148km/h | 6083m | -11.1m/s | -12.1°C | 81.1% | 479.1hPa | 2.6V | 08:16:37 | 01:35:29 | 00:00:00 | |
| DL3AQ-11 | 2026-09-04 11:07:54 | 52.76582 | 9.79440 | 89° | 144km/h | 6049m | -11.2m/s | -11.8°C | 78.6% | 481.1hPa | 2.6V | 00:00:00 | 00:00:00 | 00:00:00 | |
| DJ2DS-15 | 2026-09-04 11:07:52 | 52.76581 | 9.79319 | 89° | 142km/h | 6072m | -11.2m/s | -12.0°C | 79.4% | 479.7hPa | 2.6V | 00:00:00 | 00:00:00 | 00:00:00 | |
| DL1XH1-15 | 2026-09-04 11:07:51 | 52.76581 | 9.79319 | 89° | 142km/h | 6072m | -11.2m/s | -12°C | 80.5% | 479.7hPa | 2.6V | 08:16:36 | 01:35:30 | 00:00:00 | |
| DF8AY | 2026-09-04 11:07:51 | 52.76579 | 9.78896 | 90° | 142km/h | 6151m | -11.5m/s | -12.6°C | 86.9% | 474.8hPa | 2.6V | 08:16:54 | 01:35:23 | 00:00:00 | |
| DL1XH-west | 2026-09-04 11:07:49 | 52.76581 | 9.79198 | 89° | 142km/h | 6094m | -11.6m/s | -12.2°C | 84.9% | 478.4hPa | 2.7V | 08:16:54 | 01:35:28 | 00:00:00 | |
| AA1-15 | 2026-09-04 11:07:48 | 52.76580 | 9.79138 | 91° | 146km/h | 6105m | -11.1m/s | -12.2°C | 85.4% | 477.6hPa | 2.7V | 08:16:54 | 01:35:27 | 00:00:00 | |
| DO2SHX-10 | 2026-09-04 11:07:46 | 52.76580 | 9.79017 | 91° | 144km/h | 6128m | -11.7m/s | -12.4°C | 82.9% | 476.3hPa | 2.7V | 08:16:00 | 01:35:25 | 00:00:00 | |
| DL1XH-15 | 2026-09-04 11:07:45 | 52.76578 | 9.78655 | 88° | 144km/h | 6196m | -11.7m/s | -12.8°C | 87.6% | 472hPa | 2.7V | 08:16:47 | 01:35:19 | 00:00:00 | |
| DD8BA-10 | 2026-09-04 11:07:45 | 52.76580 | 9.78956 | 89° | 144km/h | 6140m | -11.9m/s | -12.4°C | 83.4% | 475.5hPa | 2.7V | 00:00:00 | 00:00:00 | 00:00:00 | |
| DO2SHX-10 | 2026-09-04 11:07:43 | 52.76579 | 9.78836 | 90° | 144km/h | 6162m | -11.2m/s | -12.6°C | 84.2% | 474.2hPa | 2.7V | 00:00:00 | 01:35:22 | 00:00:00 | |
| DM0DOS-11 | 2026-09-04 11:07:42 | 52.76578 | 9.78715 | 90° | 144km/h | 6185m | -11.5m/s | -12.8°C | 85.2% | 472.7hPa | 2.7V | 08:16:46 | 01:35:20 | 00:00:00 | |
| DF8AY | 2026-09-04 11:07:41 | 52.76578 | 9.78655 | 89° | 144km/h | 6196m | -11.7m/s | -12.8°C | 91.3% | 472.1hPa | 2.7V | 08:16:54 | 01:35:19 | 00:00:00 | |
| DB0DAN | 2026-09-04 11:07:40 | 52.76578 | 9.78655 | 89° | 137km/h | 6196m | -11.7m/s | -12.8°C | 86.4% | 472.05hPa | 2.7V | 00:00:00 | 00:00:00 | 00:00:00 | |
| DL1XH-west | 2026-09-04 11:07:38 | 52.76577 | 9.78535 | 89° | 146km/h | 6219m | -11.4m/s | -12.9°C | 91.5% | 470.6hPa | 2.6V | 08:16:54 | 01:35:17 | 00:00:00 | |
| BIOWL1-15 | 2026-09-04 11:07:37 | 52.76576 | 9.78414 | 90° | 146km/h | 6241m | -11m/s | -13.1°C | 91.3% | 469.2hPa | 2.6V | 08:16:54 | 01:35:15 | 00:00:00 | |
| AA1-15 | 2026-09-04 11:07:37 | 52.76577 | 9.78474 | 89° | 142km/h | 6230m | -11.7m/s | -13°C | 91.2% | 469.9hPa | 2.6V | 08:16:54 | 01:35:16 | 00:00:00 | |
| DJ2DS-15 | 2026-09-04 11:07:37 | 52.76577 | 9.78474 | 89° | 144km/h | 6230m | -11.7m/s | -13.0°C | 87.9% | 469.9hPa | 2.6V | 00:00:00 | 01:35:16 | 00:00:00 | |
| DL1XH-15 | 2026-09-04 11:07:35 | 52.76572 | 9.78052 | 87° | 142km/h | 6309m | -12.4m/s | -13.7°C | 84% | 465.1hPa | 2.6V | 08:16:57 | 01:35:09 | 00:00:00 | |
| DM0DOS-11 | 2026-09-04 11:07:35 | 52.76572 | 9.78112 | 89° | 148km/h | 6297m | -11.8m/s | -13.6°C | 84.3% | 465.8hPa | 2.6V | 08:16:56 | 01:35:10 | 00:00:00 | |
| DF8AY | 2026-09-04 11:07:29 | 52.76569 | 9.77871 | 89° | 144km/h | 6343m | -11.6m/s | -14°C | 87.1% | 463hPa | 2.7V | 08:17:45 | 01:35:06 | 00:00:00 | |
| DL1XH-west | 2026-09-04 11:07:28 | 52.76570 | 9.77931 | 88° | 144km/h | 6332m | -12m/s | -13.9°C | 86.1% | 463.7hPa | 2.7V | 08:17:45 | 01:35:07 | 00:00:00 | |
| BIOWL1-15 | 2026-09-04 11:07:26 | 52.76568 | 9.77810 | 88° | 146km/h | 6355m | -11.9m/s | -13.9°C | 89.1% | 462.4hPa | 2.7V | 08:17:45 | 01:35:05 | 00:00:00 | |
| DB0DAN | 2026-09-04 11:07:25 | 52.76567 | 9.77750 | 89° | 135km/h | 6366m | -11.7m/s | -14°C | 87.4% | 461.62hPa | 2.7V | 00:00:00 | 00:00:00 | 00:00:00 | |
| DL1XH-15 | 2026-09-04 11:07:25 | 52.76564 | 9.77450 | 89° | 144km/h | 6424m | -11.9m/s | -14.3°C | 86.7% | 458.1hPa | 2.7V | 08:17:07 | 01:34:59 | 00:00:00 | |
| DF8AY | 2026-09-04 11:07:19 | 52.76563 | 9.77390 | 89° | 144km/h | 6435m | -11.9m/s | -14.4°C | 88.2% | 457.4hPa | 2.7V | 08:17:45 | 01:34:58 | 00:00:00 | |
| DL1XH-west | 2026-09-04 11:07:17 | 52.76563 | 9.77270 | 91° | 146km/h | 6458m | -11.6m/s | -14.3°C | 90.5% | 456hPa | 2.5V | 08:17:45 | 01:34:56 | 00:00:00 | |
| AA1-15 | 2026-09-04 11:07:16 | 52.76564 | 9.77210 | 90° | 141km/h | 6469m | -11.7m/s | -14.3°C | 90.9% | 455.4hPa | 2.6V | 08:17:45 | 01:34:55 | 00:00:00 | |
| BIOWL1-15 | 2026-09-04 11:07:16 | 52.76565 | 9.76971 | 91° | 146km/h | 6514m | -11.2m/s | -14.6°C | 93% | 452.6hPa | 2.7V | 08:17:45 | 01:34:51 | 00:00:00 | |
| DJ2DS-15 | 2026-09-04 11:07:16 | 52.76564 | 9.77151 | 91° | 142km/h | 6480m | -11.2m/s | -14.4°C | 88.1% | 454.8hPa | 2.6V | 00:00:00 | 00:00:00 | 00:00:00 | |
| DO2SHX-10 | 2026-09-04 11:07:13 | 52.76564 | 9.77031 | 92° | 142km/h | 6503m | -11.5m/s | -14.5°C | 90.4% | 453.2hPa | 2.6V | 00:00:00 | 01:34:52 | 00:00:00 | |
| DD8BA-10 | 2026-09-04 11:07:12 | 52.76565 | 9.76971 | 91° | 144km/h | 6514m | -11.2m/s | -14.6°C | 90.7% | 452.6hPa | 2.6V | 00:00:00 | 00:00:00 | 00:00:00 | |
| DB0DAN | 2026-09-04 11:07:10 | 52.76567 | 9.76851 | 92° | 139km/h | 6536m | -11.4m/s | -14.8°C | 90.1% | 451.35hPa | 2.6V | 00:00:00 | 00:00:00 | 00:00:00 | |
| DF8AY | 2026-09-04 11:07:08 | 52.76569 | 9.76732 | 92° | 144km/h | 6559m | -11.4m/s | -14.9°C | 94.7% | 450hPa | 2.6V | 08:17:45 | 01:34:47 | 00:00:00 | |
| DL1XH-west | 2026-09-04 11:07:06 | 52.76570 | 9.76612 | 92° | 141km/h | 6582m | -12m/s | -15.1°C | 95.3% | 448.6hPa | 2.7V | 08:17:45 | 01:34:45 | 00:00:00 | |
| DL1XH-15 | 2026-09-04 11:07:05 | 52.76579 | 9.76254 | 91° | 144km/h | 6651m | -12m/s | -15.5°C | 94.4% | 444.4hPa | 2.7V | 08:17:27 | 01:34:39 | 00:00:00 | |
| BIOWL1-15 | 2026-09-04 11:07:05 | 52.76572 | 9.76552 | 92° | 146km/h | 6593m | -12.2m/s | -15.1°C | 95.5% | 447.9hPa | 2.7V | 08:17:45 | 01:34:44 | 00:00:00 | |
| DF8AY | 2026-09-04 11:06:58 | 52.76581 | 9.76136 | 93° | 144km/h | 6675m | -11.8m/s | -15.6°C | 97.8% | 443hPa | 2.6V | 08:17:45 | 01:34:37 | 00:00:00 | |
| DL1XH-west | 2026-09-04 11:06:56 | 52.76584 | 9.76018 | 93° | 142km/h | 6698m | -11.9m/s | -15.8°C | 98.9% | 441.7hPa | 2.7V | 08:17:45 | 01:34:35 | 00:00:00 | |
| EDDB2-12 | 2026-09-04 11:06:56 | 52.76586 | 9.75959 | 91° | 141km/h | 6710m | -12.0m/s | -15.9°C | 94.3% | 441.0hPa | 2.7V | 00:00:00 | 00:00:00 | 00:00:00 | |
| DB0DAN | 2026-09-04 11:06:55 | 52.76586 | 9.75959 | 92° | 135km/h | 6710m | -12m/s | -15.9°C | 94.3% | 441.03hPa | 2.7V | 00:00:00 | 00:00:00 | 00:00:00 | |
| AA1-15 | 2026-09-04 11:06:55 | 52.76586 | 9.75959 | 92° | 141km/h | 6710m | -12m/s | -15.9°C | 99.6% | 441hPa | 2.7V | 08:17:45 | 01:34:34 | 00:00:00 | |
| BIOWL1-15 | 2026-09-04 11:06:54 | 52.76588 | 9.75901 | 94° | 141km/h | 6721m | -11.9m/s | -16°C | 99.6% | 440.2hPa | 2.7V | 08:17:45 | 01:34:33 | 00:00:00 | |
| DF8AY | 2026-09-04 11:06:47 | 52.76601 | 9.75492 | 94° | 139km/h | 6801m | -11.8m/s | -16.6°C | 89.7% | 435.7hPa | 2.7V | 08:17:45 | 01:34:26 | 00:00:00 | |
| SMARD9-15 | 2026-09-04 11:06:46 | 52.76603 | 9.75434 | 92° | 139km/h | 6813m | -12.6m/s | -16.7°C | 0% | 434.9hPa | 2.7V | 00:00:00 | 00:00:00 | 00:00:00 | |
| BIOWL1-15 | 2026-09-04 11:06:45 | 52.76608 | 9.75260 | 93° | 139km/h | 6850m | -13.1m/s | -17°C | 92.6% | 432.8hPa | 2.7V | 08:17:45 | 01:34:22 | 00:00:00 | |
| DL1XH-west | 2026-09-04 11:06:45 | 52.76605 | 9.75376 | 93° | 137km/h | 6825m | -12.5m/s | -16.8°C | 93.9% | 434.3hPa | 2.6V | 08:17:45 | 01:34:24 | 00:00:00 | |
| DL3AQ-11 | 2026-09-04 11:06:45 | 52.76607 | 9.75318 | 92° | 139km/h | 6837m | -12.8m/s | -16.9°C | 84.9% | 433.6hPa | 2.7V | 00:00:00 | 00:00:00 | 00:00:00 | |
| DD1CC3-15 | 2026-09-04 11:06:44 | 52.76605 | 9.75376 | 94° | 137km/h | 6825m | -12.5m/s | -16.8°C | 88.7% | 434.3hPa | 2.7V | 08:17:00 | 00:00:00 | 00:00:00 | |
| DO2SHX-10 | 2026-09-04 11:06:43 | 52.76608 | 9.75260 | 94° | 139km/h | 6850m | -13.0m/s | -16.9°C | 88.5% | 432.8hPa | 2.7V | 00:00:00 | 01:34:22 | 00:00:00 | |
| DD8BA-10 | 2026-09-04 11:06:42 | 52.76610 | 9.75202 | 92° | 139km/h | 6863m | -13.2m/s | -17.0°C | 92.9% | 432.2hPa | 2.7V | 00:00:00 | 00:00:00 | 00:00:00 | |
| DB0DAN | 2026-09-04 11:06:40 | 52.76613 | 9.75087 | 92° | 133km/h | 6889m | -13m/s | -17.3°C | 86.8% | 430.6hPa | 2.7V | 00:00:00 | 00:00:00 | 00:00:00 | |
| DF8AY | 2026-09-04 11:06:36 | 52.76619 | 9.74855 | 94° | 141km/h | 6941m | -12.8m/s | -17.7°C | 90.8% | 427.7hPa | 2.6V | 08:18:36 | 01:34:15 | 00:00:00 | |
| AA1-15 | 2026-09-04 11:06:35 | 52.76621 | 9.74797 | 92° | 139km/h | 6954m | -13.5m/s | -17.9°C | 90.7% | 426.8hPa | 2.6V | 08:18:36 | 01:34:14 | 00:00:00 | |
| DL1XH-west | 2026-09-04 11:06:34 | 52.76623 | 9.74739 | 93° | 139km/h | 6967m | -13.5m/s | -18°C | 91.3% | 426.2hPa | 2.7V | 08:18:36 | 01:34:13 | 00:00:00 | |
| BIOWL1-15 | 2026-09-04 11:06:32 | 52.76647 | 9.74038 | 94° | 142km/h | 7121m | -12.7m/s | -19.3°C | 96% | 417.4hPa | 2.6V | 08:18:36 | 01:34:01 | 00:00:00 | |
| DD8BA-10 | 2026-09-04 11:06:32 | 52.76627 | 9.74622 | 93° | 141km/h | 6992m | -12.7m/s | -18.1°C | 92.1% | 424.7hPa | 2.7V | 00:00:00 | 00:00:00 | 00:00:00 | |
| DO2SHX-10 | 2026-09-04 11:06:31 | 52.76629 | 9.74565 | 94° | 141km/h | 7005m | -12.5m/s | -18.2°C | 91.8% | 424.0hPa | 2.7V | 00:00:00 | 01:34:10 | 00:00:00 | |
| BIOWL9-15 | 2026-09-04 11:06:30 | 52.76631 | 9.74507 | 92° | 139km/h | 7017m | -13.1m/s | -18.4°C | 90.5% | 423.3hPa | 2.7V | 00:00:00 | 00:00:00 | 00:00:00 | |
| BUE01 | 2026-09-04 11:06:29 | 52.76633 | 9.74448 | 93° | 141km/h | 7030m | -13.4m/s | -18.5°C | 91.6% | 422.5hPa | 2.7V | 00:00:00 | 00:00:00 | 00:00:00 | |
| DL8OAI-8 | 2026-09-04 11:06:28 | 52.76634 | 9.74390 | 93° | 139km/h | 7043m | -13.8m/s | -18.6°C | 92.0% | 421.8hPa | 2.7V | 08:18:00 | 00:00:00 | 00:00:00 | |
| GOEST3-10 | 2026-09-04 11:06:27 | 52.76636 | 9.74332 | 94° | 141km/h | 7056m | -13.3m/s | -18.7°C | 94.1% | 421.0hPa | 2.7V | 00:00:00 | 00:00:00 | 00:00:00 | |
| DB0DAN | 2026-09-04 11:06:25 | 52.76640 | 9.74215 | 93° | 131km/h | 7082m | -13.2m/s | -19°C | 94.6% | 419.66hPa | 2.7V | 00:00:00 | 00:00:00 | 00:00:00 | |
| DF8AY | 2026-09-04 11:06:25 | 52.76650 | 9.73979 | 93° | 142km/h | 7134m | -13.5m/s | -19.4°C | 96% | 416.7hPa | 2.7V | 08:18:36 | 01:34:00 | 00:00:00 | |
| AA1-15 | 2026-09-04 11:06:25 | 52.76640 | 9.74215 | 93° | 139km/h | 7082m | -13.2m/s | -19°C | 96% | 419.7hPa | 2.7V | 08:18:36 | 01:34:04 | 00:00:00 | |
| DL1XH-west | 2026-09-04 11:06:24 | 52.76643 | 9.74156 | 95° | 144km/h | 7095m | -13.1m/s | -19.1°C | 95.6% | 418.8hPa | 2.5V | 08:18:36 | 01:34:03 | 00:00:00 | |
| DM0DOS-11 | 2026-09-04 11:06:22 | 52.76649 | 9.73979 | 92° | 142km/h | 7134m | -13.5m/s | -19.4°C | 96.2% | 416.7hPa | 2.7V | 08:18:06 | 01:34:00 | 00:00:00 | |
| AA1-15 | 2026-09-04 11:06:15 | 52.76664 | 9.73622 | 95° | 146km/h | 7211m | -12.7m/s | -19.9°C | 94.6% | 412.4hPa | 2.6V | 08:18:36 | 01:33:54 | 00:00:00 | |
| DL1XH-west | 2026-09-04 11:06:14 | 52.76667 | 9.73562 | 94° | 144km/h | 7223m | -13.3m/s | -19.9°C | 94.9% | 411.6hPa | 2.7V | 08:18:36 | 01:33:53 | 00:00:00 | |
| DO2SHX-10 | 2026-09-04 11:06:13 | 52.76670 | 9.73502 | 96° | 144km/h | 7237m | -13.0m/s | -20.0°C | 95.7% | 410.9hPa | 2.6V | 00:00:00 | 01:33:52 | 00:00:00 | |
| DM0DOS-11 | 2026-09-04 11:06:12 | 52.76676 | 9.73381 | 95° | 142km/h | 7262m | -13.2m/s | -20.2°C | 95.7% | 409.6hPa | 2.6V | 08:18:16 | 01:33:50 | 00:00:00 | |
| BIOWL1-15 | 2026-09-04 11:06:11 | 52.76676 | 9.73381 | 95° | 142km/h | 7263m | -13.2m/s | -20.2°C | 94.6% | 409.6hPa | 2.6V | 08:18:36 | 01:33:50 | 00:00:00 | |
| DO2SHX-10 | 2026-09-04 11:06:10 | 52.76679 | 9.73321 | 96° | 146km/h | 7276m | -13.3m/s | -20.2°C | 95.2% | 408.8hPa | 2.7V | 00:00:00 | 01:33:49 | 00:00:00 | |
| DO2SHX-10 | 2026-09-04 11:06:07 | 52.76690 | 9.73138 | 96° | 148km/h | 7315m | -13.0m/s | -20.1°C | 92.4% | 406.6hPa | 2.7V | 00:00:00 | 01:33:46 | 00:00:00 | |
| DL1XH-15 | 2026-09-04 11:06:05 | 52.76719 | 9.72711 | 96° | 148km/h | 7401m | -13.2m/s | -20.4°C | 82% | 401.9hPa | 2.6V | 08:18:27 | 01:33:39 | 00:00:00 | |
| DM0DOS-11 | 2026-09-04 11:06:05 | 52.76715 | 9.72773 | 97° | 148km/h | 7388m | -12.7m/s | -20.3°C | 81.6% | 402.6hPa | 2.6V | 08:18:26 | 01:33:40 | 00:00:00 | |
| AA1-15 | 2026-09-04 11:06:04 | 52.76702 | 9.72956 | 96° | 144km/h | 7351m | -12.8m/s | -20.2°C | 86.7% | 404.6hPa | 2.6V | 08:18:36 | 01:33:43 | 00:00:00 | |
| DL1XH-west | 2026-09-04 11:06:03 | 52.76706 | 9.72895 | 97° | 150km/h | 7364m | -12.6m/s | -20.2°C | 84.4% | 403.8hPa | 2.7V | 08:18:36 | 01:33:42 | 00:00:00 | |
| BIOWL1-15 | 2026-09-04 11:06:00 | 52.76719 | 9.72711 | 96° | 148km/h | 7401m | -13.2m/s | -20.4°C | 84% | 401.9hPa | 2.6V | 08:18:36 | 01:33:39 | 00:00:00 | |
| BIOWL9-15 | 2026-09-04 11:05:59 | 52.76724 | 9.72650 | 97° | 146km/h | 7413m | -12.7m/s | -20.5°C | 80.6% | 401.3hPa | 2.6V | 00:00:00 | 00:00:00 | 00:00:00 | |
| BUE01 | 2026-09-04 11:05:58 | 52.76732 | 9.72527 | 96° | 144km/h | 7439m | -13.0m/s | -20.7°C | 82.0% | 399.8hPa | 2.6V | 00:00:00 | 00:00:00 | 00:00:00 | |
| SONCRA | 2026-09-04 11:05:56 | 52.76737 | 9.72466 | 97° | 150km/h | 7451m | -12.2m/s | -20.8°C | 82.6% | 399.1hPa | 2.6V | 00:00:00 | 00:00:00 | 00:00:00 | |
| DB0DAN | 2026-09-04 11:05:55 | 52.76741 | 9.72405 | 96° | 139km/h | 7463m | -12.9m/s | -20.9°C | 83.1% | 398.49hPa | 2.6V | 00:00:00 | 00:00:00 | 00:00:00 | |
| DL1XH-15 | 2026-09-04 11:05:55 | 52.76761 | 9.72099 | 95° | 144km/h | 7525m | -12.6m/s | -21.4°C | 85.3% | 395.2hPa | 2.6V | 08:18:37 | 01:33:29 | 00:00:00 | |
| DM0DOS-11 | 2026-09-04 11:05:55 | 52.76757 | 9.72160 | 95° | 148km/h | 7513m | -12.6m/s | -21.2°C | 84.1% | 395.9hPa | 2.7V | 08:18:36 | 01:33:30 | 00:00:00 | |
| AA1-15 | 2026-09-04 11:05:54 | 52.76745 | 9.72343 | 97° | 150km/h | 7476m | -12.7m/s | -21°C | 87.1% | 397.8hPa | 2.6V | 08:18:36 | 01:33:33 | 00:00:00 | |
| DL1XH-west | 2026-09-04 11:05:52 | 52.76753 | 9.72221 | 97° | 146km/h | 7501m | -12.5m/s | -21.2°C | 87.1% | 396.5hPa | 2.7V | 08:18:36 | 01:33:31 | 00:00:00 | |
| BIOWL1-15 | 2026-09-04 11:05:49 | 52.76765 | 9.72038 | 96° | 148km/h | 7538m | -12.6m/s | -21.5°C | 87.4% | 394.5hPa | 2.6V | 08:19:27 | 01:33:28 | 00:00:00 | |
| AP2371 | 2026-09-04 11:05:48 | 52.76765 | 9.72038 | 97° | 148km/h | 7538m | -12.6m/s | -21.5°C | 83.7% | 394.5hPa | 2.6V | 08:19:00 | 00:00:00 | 00:00:00 | |
| DF5WG-10 | 2026-09-04 11:05:47 | 52.76772 | 9.71917 | 97° | 144km/h | 7562m | -12.0m/s | -21.6°C | 86.9% | 393.2hPa | 2.6V | 00:00:00 | 01:33:26 | 00:00:00 | |
| DO2SHX-10 | 2026-09-04 11:05:46 | 52.76775 | 9.71856 | 95° | 144km/h | 7574m | -12.7m/s | -21.7°C | 87.8% | 392.6hPa | 2.6V | 00:00:00 | 01:33:25 | 00:00:00 | |
| DL1XH-15 | 2026-09-04 11:05:45 | 52.76795 | 9.71495 | 95° | 146km/h | 7648m | -12.3m/s | -22.3°C | 86.7% | 388.7hPa | 2.6V | 08:18:47 | 01:33:19 | 00:00:00 | |
| DM0DOS-11 | 2026-09-04 11:05:45 | 52.76792 | 9.71555 | 95° | 142km/h | 7636m | -12.7m/s | -22.2°C | 88.6% | 389.3hPa | 2.7V | 08:18:46 | 01:33:20 | 00:00:00 | |
| SMARD9-15 | 2026-09-04 11:05:44 | 52.76782 | 9.71736 | 94° | 144km/h | 7599m | -12.5m/s | -21.9°C | 87.0% | 391.3hPa | 2.6V | 00:00:00 | 00:00:00 | 00:00:00 | |
| AA1-15 | 2026-09-04 11:05:43 | 52.76785 | 9.71675 | 96° | 144km/h | 7611m | -12.7m/s | -22°C | 91% | 390.7hPa | 2.6V | 08:19:27 | 01:33:22 | 00:00:00 | |
| DL1XH-west | 2026-09-04 11:05:42 | 52.76789 | 9.71615 | 95° | 146km/h | 7623m | -12.8m/s | -22.1°C | 90.9% | 390hPa | 2.7V | 08:19:27 | 01:33:21 | 00:00:00 | |
| BIOWL1-15 | 2026-09-04 11:05:39 | 52.76799 | 9.71436 | 95° | 141km/h | 7661m | -12.6m/s | -22.4°C | 87.9% | 388hPa | 2.6V | 08:19:27 | 01:33:18 | 00:00:00 | |
| DL4XJ-10 | 2026-09-04 11:05:39 | 52.76799 | 9.71436 | 95° | 144km/h | 7660m | -12.6m/s | -22.6°C | 0% | 0hPa | 2.6V | 00:00:00 | 00:00:00 | 00:00:00 | |
| DL3AQ-11 | 2026-09-04 11:05:38 | 52.76805 | 9.71317 | 94° | 141km/h | 7685m | -12.7m/s | -22.5°C | 82.8% | 386.9hPa | 2.6V | 00:00:00 | 00:00:00 | 00:00:00 | |
| DJ2DS-15 | 2026-09-04 11:05:37 | 52.76805 | 9.71317 | 95° | 144km/h | 7686m | -12.7m/s | -22.5°C | 84.8% | 386.8hPa | 2.6V | 00:00:00 | 01:33:16 | 00:00:00 | |
| DL1XH-15 | 2026-09-04 11:05:35 | 52.76857 | 9.69994 | 92° | 151km/h | 7949m | -12.2m/s | -24.1°C | 73.9% | 373.1hPa | 2.6V | 08:19:12 | 01:32:54 | 00:00:00 | |
| DM0DOS-11 | 2026-09-04 11:05:35 | 52.76823 | 9.70961 | 94° | 144km/h | 7758m | -12.6m/s | -22.9°C | 81.8% | 383.1hPa | 2.7V | 08:18:56 | 01:33:10 | 00:00:00 | |
| DF8AY | 2026-09-04 11:05:32 | 52.76848 | 9.70302 | 94° | 148km/h | 7889m | -12.1m/s | -23.6°C | 77.5% | 376.2hPa | 2.7V | 08:19:27 | 01:32:59 | 00:00:00 | |
| DL1XH-west | 2026-09-04 11:05:32 | 52.76860 | 9.69870 | 93° | 151km/h | 7974m | -12.3m/s | -24.3°C | 77.7% | 371.8hPa | 2.7V | 08:19:27 | 01:32:52 | 00:00:00 | |
| DF8AY | 2026-09-04 11:05:27 | 52.76850 | 9.70241 | 92° | 146km/h | 7901m | -13.2m/s | -23.7°C | 77.6% | 375.6hPa | 2.7V | 08:19:27 | 01:32:58 | 00:00:00 | |
| DO2JMG | 2026-09-04 11:05:22 | 52.76855 | 9.70056 | 93° | 148km/h | 7938m | -12.1m/s | -24°C | 77.9% | 373.7hPa | 2.6V | 08:20:18 | 01:32:55 | 00:00:00 | |
| DL1XH-west | 2026-09-04 11:05:17 | 52.76862 | 9.69807 | 92° | 148km/h | 7986m | -13m/s | -24.4°C | 76.8% | 371.2hPa | 2.7V | 08:19:27 | 01:32:51 | 00:00:00 | |
| DF8AY | 2026-09-04 11:05:08 | 52.76868 | 9.69557 | 92° | 150km/h | 8035m | -12.8m/s | -24.7°C | 73.1% | 368.7hPa | 2.7V | 08:19:27 | 01:32:47 | 00:00:00 | |
| DO2SHX-10 | 2026-09-04 11:05:07 | 52.76870 | 9.69494 | 93° | 150km/h | 8048m | -12.4m/s | -24.8°C | 68.7% | 368.0hPa | 2.7V | 00:00:00 | 01:32:46 | 00:00:00 | |
| DM0DOS-11 | 2026-09-04 11:05:06 | 52.76879 | 9.69117 | 92° | 150km/h | 8123m | -12.9m/s | -25.5°C | 71.5% | 364.3hPa | 2.7V | 08:19:26 | 01:32:40 | 00:00:00 | |
| AA1-15 | 2026-09-04 11:05:06 | 52.76871 | 9.69432 | 92° | 151km/h | 8060m | -12.8m/s | -24.9°C | 73.7% | 367.4hPa | 2.7V | 08:19:27 | 01:32:45 | 00:00:00 | |
| DO2JMG | 2026-09-04 11:05:05 | 52.76873 | 9.69369 | 93° | 150km/h | 8072m | -12.8m/s | -25°C | 74.2% | 366.8hPa | 2.6V | 08:20:18 | 01:32:44 | 00:00:00 | |
| DO9LL-15 | 2026-09-04 11:05:05 | 52.76873 | 9.69369 | 93° | 153km/h | 8073m | -12.8m/s | -25.0°C | 69.6% | 366.8hPa | 2.6V | 00:00:00 | 01:32:44 | 00:00:00 | |
| DO2SHX-10 | 2026-09-04 11:05:04 | 52.76874 | 9.69306 | 92° | 151km/h | 8085m | -13.1m/s | -25.1°C | 70.0% | 366.1hPa | 2.6V | 08:19:00 | 01:32:43 | 00:00:00 | |
| DL1XH1-15 | 2026-09-04 11:05:02 | 52.76884 | 9.68864 | 91° | 150km/h | 8173m | -12.8m/s | -25.9°C | 73.7% | 361.8hPa | 2.6V | 08:19:30 | 01:32:36 | 00:00:00 | |
| DL1XH-west | 2026-09-04 11:05:02 | 52.76877 | 9.69180 | 92° | 151km/h | 8111m | -13m/s | -25.4°C | 75.6% | 364.9hPa | 2.7V | 08:19:27 | 01:32:41 | 00:00:00 | |
| DF8AY | 2026-09-04 11:04:58 | 52.76883 | 9.68927 | 93° | 155km/h | 8161m | -12.4m/s | -25.8°C | 77.8% | 362.5hPa | 2.6V | 08:20:18 | 01:32:37 | 00:00:00 | |
| DF8AY-15 | 2026-09-04 11:04:58 | 52.76883 | 9.68927 | 93° | 153km/h | 8161m | -12.3m/s | -25.8°C | 73.3% | 362.4hPa | 2.6V | 08:19:00 | 01:32:37 | 00:00:00 | |
| DJ2DS-15 | 2026-09-04 11:04:57 | 52.76884 | 9.68864 | 92° | 153km/h | 8173m | -12.7m/s | -25.9°C | 73.7% | 361.8hPa | 2.6V | 00:00:00 | 01:32:36 | 00:00:00 | |
| DM0DOS-11 | 2026-09-04 11:04:56 | 52.76893 | 9.68481 | 90° | 153km/h | 8247m | -13m/s | -26.6°C | 76.2% | 358.1hPa | 2.6V | 08:19:36 | 01:32:30 | 00:00:00 | |
| BUE01 | 2026-09-04 11:04:56 | 52.76888 | 9.68737 | 91° | 150km/h | 8197m | -12.9m/s | -26.1°C | 72.5% | 360.6hPa | 2.7V | 00:00:00 | 00:00:00 | 00:00:00 | |
| DB0DAN | 2026-09-04 11:04:55 | 52.76888 | 9.68737 | 91° | 144km/h | 8197m | -12.9m/s | -26.1°C | 72.5% | 360.55hPa | 2.7V | 00:00:00 | 00:00:00 | 00:00:00 | |
| DO2JMG | 2026-09-04 11:04:55 | 52.76888 | 9.68737 | 91° | 151km/h | 8197m | -12.9m/s | -26.1°C | 79.1% | 360.6hPa | 2.7V | 08:20:18 | 01:32:34 | 00:00:00 | |
| BIOWL1-15 | 2026-09-04 11:04:54 | 52.76891 | 9.68609 | 91° | 151km/h | 8222m | -12.9m/s | -26.4°C | 80.1% | 359.4hPa | 2.6V | 08:20:18 | 01:32:32 | 00:00:00 | |
| DF2AP-13 | 2026-09-04 11:04:54 | 52.76889 | 9.68673 | 93° | 157km/h | 8210m | -12.4m/s | -26.2°C | 75.1% | 359.9hPa | 2.7V | 00:00:00 | 01:32:33 | 00:00:00 | |
| DL1XH1-15 | 2026-09-04 11:04:52 | 52.76898 | 9.68224 | 91° | 157km/h | 8295m | -12.7m/s | -27°C | 77.3% | 355.6hPa | 2.6V | 08:19:40 | 01:32:26 | 00:00:00 | |
| DL1XH-west | 2026-09-04 11:04:51 | 52.76893 | 9.68481 | 91° | 153km/h | 8247m | -13m/s | -26.6°C | 80.5% | 358.1hPa | 2.6V | 08:20:18 | 01:32:30 | 00:00:00 | |
| DF8AY | 2026-09-04 11:04:47 | 52.76898 | 9.68224 | 92° | 157km/h | 8296m | -12.7m/s | -27°C | 81.5% | 355.6hPa | 2.6V | 08:20:18 | 01:32:26 | 00:00:00 | |
| DF5WG-10 | 2026-09-04 11:04:47 | 52.76898 | 9.68224 | 92° | 155km/h | 8296m | -12.7m/s | -26.9°C | 77.3% | 355.6hPa | 2.6V | 00:00:00 | 01:32:26 | 00:00:00 | |
| DM0DOS-11 | 2026-09-04 11:04:46 | 52.76904 | 9.67837 | 91° | 153km/h | 8368m | -12.7m/s | -27.6°C | 79.2% | 352hPa | 2.6V | 08:19:46 | 01:32:20 | 00:00:00 | |
| DL3AQ-11 | 2026-09-04 11:04:45 | 52.76901 | 9.68031 | 90° | 153km/h | 8332m | -12.5m/s | -27.2°C | 75.3% | 353.8hPa | 2.6V | 00:00:00 | 00:00:00 | 00:00:00 | |
| DL1XH-15 | 2026-09-04 11:04:44 | 52.76905 | 9.67708 | 90° | 153km/h | 8393m | -13.2m/s | -27.8°C | 80% | 350.9hPa | 2.6V | 08:19:48 | 01:32:18 | 00:00:00 | |
| AA1-15 | 2026-09-04 11:04:44 | 52.76901 | 9.68031 | 91° | 155km/h | 8332m | -12.5m/s | -27.2°C | 81.8% | 353.8hPa | 2.7V | 08:20:18 | 01:32:23 | 00:00:00 | |
| BIOWL1-15 | 2026-09-04 11:04:43 | 52.76902 | 9.67966 | 92° | 153km/h | 8344m | -12.2m/s | -27.3°C | 82.4% | 353.2hPa | 2.7V | 08:20:18 | 01:32:22 | 00:00:00 | |
| DO2SHX-10 | 2026-09-04 11:04:43 | 52.76902 | 9.67966 | 92° | 153km/h | 8344m | -12.2m/s | -27.3°C | 78.1% | 353.2hPa | 2.6V | 00:00:00 | 01:32:22 | 00:00:00 | |
| DD8BA-10 | 2026-09-04 11:04:42 | 52.76903 | 9.67901 | 91° | 155km/h | 8356m | -12.5m/s | -27.4°C | 78.7% | 352.5hPa | 2.6V | 00:00:00 | 00:00:00 | 00:00:00 | |
| DD1CC3-15 | 2026-09-04 11:04:41 | 52.76903 | 9.67901 | 91° | 155km/h | 8356m | -12.6m/s | -27.4°C | 76.3% | 352.6hPa | 2.6V | 08:20:00 | 00:00:00 | 00:00:00 | |
| DB0DAN | 2026-09-04 11:04:40 | 52.76904 | 9.67772 | 90° | 148km/h | 8381m | -13m/s | -27.7°C | 77.2% | 351.39hPa | 2.6V | 00:00:00 | 00:00:00 | 00:00:00 | |
| DL1XH-west | 2026-09-04 11:04:40 | 52.76904 | 9.67772 | 90° | 155km/h | 8381m | -13m/s | -27.7°C | 84% | 351.4hPa | 2.6V | 08:20:18 | 01:32:19 | 00:00:00 | |
| DF8AY | 2026-09-04 11:04:37 | 52.76906 | 9.67578 | 90° | 153km/h | 8418m | -12.8m/s | -28°C | 85.4% | 349.6hPa | 2.7V | 08:20:18 | 01:32:16 | 00:00:00 | |
| DJ2DS-15 | 2026-09-04 11:04:37 | 52.76906 | 9.67578 | 91° | 157km/h | 8419m | -12.7m/s | -27.9°C | 81.1% | 349.6hPa | 2.7V | 00:00:00 | 01:32:16 | 00:00:00 | |
| DM0DOS-11 | 2026-09-04 11:04:36 | 52.76907 | 9.67185 | 88° | 155km/h | 8494m | -13m/s | -28.6°C | 83.2% | 346hPa | 2.7V | 08:19:56 | 01:32:10 | 00:00:00 | |
| DF5WG-10 | 2026-09-04 11:04:36 | 52.76906 | 9.67513 | 91° | 157km/h | 8431m | -12.6m/s | -28.0°C | 81.6% | 348.9hPa | 2.7V | 00:00:00 | 01:32:15 | 00:00:00 | |
| DO9LL-15 | 2026-09-04 11:04:35 | 52.76906 | 9.67448 | 90° | 159km/h | 8444m | -13.0m/s | -28.1°C | 82.1% | 348.4hPa | 2.6V | 00:00:00 | 01:32:14 | 00:00:00 | |
| DL1XH-15 | 2026-09-04 11:04:34 | 52.76906 | 9.67054 | 88° | 157km/h | 8520m | -13.1m/s | -28.8°C | 82.9% | 344.8hPa | 2.5V | 08:19:58 | 01:32:08 | 00:00:00 | |
| AA1-15 | 2026-09-04 11:04:33 | 52.76907 | 9.67317 | 90° | 155km/h | 8469m | -13.3m/s | -28.4°C | 87.3% | 347.2hPa | 2.6V | 08:20:18 | 01:32:12 | 00:00:00 | |
| DO2JMG | 2026-09-04 11:04:32 | 52.76907 | 9.67251 | 91° | 159km/h | 8482m | -12.7m/s | -28.5°C | 87.5% | 346.6hPa | 2.7V | 08:20:18 | 01:32:11 | 00:00:00 | |
| DL1XH-west | 2026-09-04 11:04:29 | 52.76906 | 9.67054 | 89° | 157km/h | 8520m | -13.1m/s | -28.8°C | 87.1% | 344.8hPa | 2.5V | 08:20:18 | 01:32:08 | 00:00:00 | |
| DF8AY | 2026-09-04 11:04:26 | 52.76905 | 9.66856 | 89° | 155km/h | 8557m | -12.7m/s | -29°C | 86.1% | 343hPa | 2.7V | 08:20:18 | 01:32:05 | 00:00:00 | |
| DB0DAN | 2026-09-04 11:04:25 | 52.76904 | 9.66790 | 89° | 153km/h | 8569m | -12.8m/s | -29.1°C | 78.4% | 342.39hPa | 2.7V | 00:00:00 | 00:00:00 | 00:00:00 | |
| BUE01 | 2026-09-04 11:04:25 | 52.76903 | 9.66724 | 88° | 157km/h | 8581m | -12.9m/s | -29.2°C | 77.9% | 341.8hPa | 2.7V | 00:00:00 | 00:00:00 | 00:00:00 | |
| DL1XH-15 | 2026-09-04 11:04:24 | 52.76900 | 9.66391 | 89° | 161km/h | 8643m | -12.6m/s | -29.6°C | 87.2% | 338.8hPa | 2.7V | 08:20:08 | 01:31:58 | 00:00:00 | |
| SONCRA | 2026-09-04 11:04:23 | 52.76902 | 9.66657 | 89° | 161km/h | 8594m | -12.6m/s | -29.2°C | 78.0% | 341.2hPa | 2.6V | 00:00:00 | 00:00:00 | 00:00:00 | |
| DL1XH1-15 | 2026-09-04 11:04:22 | 52.76899 | 9.66258 | 89° | 161km/h | 8668m | -12.3m/s | -29.7°C | 88.3% | 337.7hPa | 2.6V | 08:20:10 | 01:31:56 | 00:00:00 | |
| DM0DOS-11 | 2026-09-04 11:04:22 | 52.76901 | 9.66524 | 89° | 162km/h | 8618m | -12.5m/s | -29.4°C | 84.8% | 340.1hPa | 2.6V | 08:20:06 | 01:32:00 | 00:00:00 | |
| BIOWL1-15 | 2026-09-04 11:04:22 | 52.76902 | 9.66591 | 88° | 157km/h | 8606m | -12.9m/s | -29.3°C | 88.2% | 340.7hPa | 2.6V | 08:20:18 | 01:32:01 | 00:00:00 | |
| DF8AY | 2026-09-04 11:04:21 | 52.76898 | 9.66191 | 89° | 161km/h | 8680m | -13.1m/s | -29.8°C | 90.9% | 337.1hPa | 2.7V | 08:20:18 | 01:31:55 | 00:00:00 | |
| DO2JMG | 2026-09-04 11:04:21 | 52.76901 | 9.66524 | 90° | 162km/h | 8618m | -12.5m/s | -29.4°C | 90.1% | 340.1hPa | 2.6V | 08:20:18 | 01:32:00 | 00:00:00 | |
| DL1XH-west | 2026-09-04 11:04:18 | 52.76899 | 9.66324 | 88° | 157km/h | 8655m | -12.7m/s | -29.7°C | 92.8% | 338.2hPa | 2.6V | 08:20:18 | 01:31:57 | 00:00:00 | |
| DJ2DS-15 | 2026-09-04 11:04:17 | 52.76899 | 9.66258 | 90° | 161km/h | 8668m | -12.3m/s | -29.7°C | 88.3% | 337.6hPa | 2.7V | 00:00:00 | 01:31:56 | 00:00:00 | |
| DM0DOS-11 | 2026-09-04 11:04:16 | 52.76898 | 9.65855 | 89° | 159km/h | 8741m | -12.8m/s | -30.2°C | 78.1% | 334.1hPa | 2.7V | 08:20:16 | 01:31:50 | 00:00:00 | |
| DO2SHX-10 | 2026-09-04 11:04:16 | 52.76898 | 9.66191 | 89° | 161km/h | 8680m | -13.1m/s | -29.8°C | 86.3% | 337.0hPa | 2.7V | 00:00:00 | 01:31:55 | 00:00:00 | |
| DJ2DS-15 | 2026-09-04 11:04:15 | 52.76898 | 9.66124 | 90° | 159km/h | 8692m | -12.7m/s | -29.9°C | 82.3% | 336.5hPa | 2.7V | 00:00:00 | 00:00:00 | 00:00:00 | |
| DL1XH-15 | 2026-09-04 11:04:14 | 52.76898 | 9.65720 | 90° | 159km/h | 8766m | -13.3m/s | -30.4°C | 78% | 332.9hPa | 2.7V | 08:20:18 | 01:31:48 | 00:00:00 | |
| AA1-15 | 2026-09-04 11:04:11 | 52.76898 | 9.65855 | 90° | 159km/h | 8741m | -12.9m/s | -30.2°C | 83.3% | 334.1hPa | 2.7V | 08:20:18 | 01:31:50 | 00:00:00 | |
| DB0DAN | 2026-09-04 11:04:10 | 52.76898 | 9.65787 | 90° | 155km/h | 8754m | -13.3m/s | -30.3°C | 75.9% | 333.62hPa | 2.7V | 00:00:00 | 00:00:00 | 00:00:00 | |
| DO2JMG | 2026-09-04 11:04:10 | 52.76898 | 9.65787 | 90° | 164km/h | 8754m | -13.3m/s | -30.3°C | 83.7% | 333.6hPa | 2.7V | 08:20:18 | 01:31:49 | 00:00:00 | |
| DL1XH-west | 2026-09-04 11:04:07 | 52.76899 | 9.65585 | 90° | 159km/h | 8793m | -13.4m/s | -30.6°C | 82.8% | 331.8hPa | 2.6V | 08:21:09 | 01:31:46 | 00:00:00 | |
| DO2SHX-10 | 2026-09-04 11:04:07 | 52.76899 | 9.65585 | 91° | 161km/h | 8793m | -13.3m/s | -30.6°C | 78.1% | 331.7hPa | 2.6V | 00:00:00 | 01:31:46 | 00:00:00 | |
| DF5WG-10 | 2026-09-04 11:04:06 | 52.76900 | 9.65518 | 92° | 159km/h | 8805m | -12.4m/s | -30.7°C | 78.3% | 331.1hPa | 2.6V | 08:20:00 | 01:31:45 | 00:00:00 | |
| DL3AQ-11 | 2026-09-04 11:04:05 | 52.76901 | 9.65384 | 91° | 159km/h | 8830m | -12.5m/s | -30.9°C | 74.7% | 330.0hPa | 2.7V | 00:00:00 | 00:00:00 | 00:00:00 | |
| DL1XH-15 | 2026-09-04 11:04:04 | 52.76903 | 9.65051 | 91° | 161km/h | 8891m | -12.6m/s | -31.4°C | 83.7% | 327.1hPa | 2.7V | 08:20:28 | 01:31:38 | 00:00:00 | |
| AA1-15 | 2026-09-04 11:04:01 | 52.76902 | 9.65118 | 91° | 157km/h | 8879m | -12.4m/s | -31.3°C | 86.9% | 327.7hPa | 2.6V | 08:21:09 | 01:31:39 | 00:00:00 | |
| DO2JMG | 2026-09-04 11:03:59 | 52.76903 | 9.65051 | 92° | 161km/h | 8891m | -12.6m/s | -31.4°C | 88.3% | 327.1hPa | 2.7V | 08:21:09 | 01:31:38 | 00:00:00 | |
| DL1XH-west | 2026-09-04 11:03:56 | 52.76905 | 9.64853 | 90° | 157km/h | 8929m | -13.2m/s | -31.7°C | 88% | 325.4hPa | 2.6V | 08:21:09 | 01:31:35 | 00:00:00 | |
| BIOWL9-15 | 2026-09-04 11:03:56 | 52.76906 | 9.64787 | 91° | 157km/h | 8941m | -12.6m/s | -31.8°C | 81.4% | 324.8hPa | 2.6V | 00:00:00 | 00:00:00 | 00:00:00 | |
| DB0DAN | 2026-09-04 11:03:55 | 52.76906 | 9.64787 | 91° | 150km/h | 8941m | -12.6m/s | -31.8°C | 81.4% | 324.8hPa | 2.6V | 00:00:00 | 00:00:00 | 00:00:00 | |
| DO2SHX-10 | 2026-09-04 11:03:55 | 52.76906 | 9.64787 | 92° | 159km/h | 8941m | -12.6m/s | -31.8°C | 84.4% | 324.8hPa | 2.6V | 00:00:00 | 01:31:34 | 00:00:00 | |
| DL1XH-15 | 2026-09-04 11:03:54 | 52.76910 | 9.64389 | 90° | 159km/h | 9013m | -12.1m/s | -32.5°C | 86.9% | 321.6hPa | 2.6V | 08:20:38 | 01:31:28 | 00:00:00 | |
| DF8AY | 2026-09-04 11:03:51 | 52.76908 | 9.64522 | 90° | 157km/h | 8989m | -12m/s | -32.3°C | 91.2% | 322.6hPa | 2.5V | 08:21:09 | 01:31:30 | 00:00:00 | |
| DL1XH1-15 | 2026-09-04 11:03:50 | 52.76914 | 9.64124 | 91° | 161km/h | 9060m | -12.5m/s | -32.9°C | 89.5% | 319.4hPa | 2.6V | 08:20:42 | 01:31:24 | 00:00:00 | |
| AA1-15 | 2026-09-04 11:03:50 | 52.76909 | 9.64456 | 92° | 161km/h | 9001m | -11.5m/s | -32.4°C | 91.5% | 322.1hPa | 2.6V | 08:21:09 | 01:31:29 | 00:00:00 | |
| BIOWL1-15 | 2026-09-04 11:03:49 | 52.76912 | 9.64257 | 91° | 159km/h | 9036m | -12.5m/s | -32.7°C | 92.3% | 320.5hPa | 2.7V | 08:21:09 | 01:31:26 | 00:00:00 | |
| DO2JMG | 2026-09-04 11:03:48 | 52.76911 | 9.64323 | 92° | 159km/h | 9024m | -11.9m/s | -32.6°C | 91.8% | 321hPa | 2.7V | 08:21:09 | 01:31:27 | 00:00:00 | |
| GOEST3-10 | 2026-09-04 11:03:47 | 52.76912 | 9.64257 | 91° | 159km/h | 9036m | -12.5m/s | -32.6°C | 88.0% | 320.5hPa | 2.7V | 08:20:00 | 00:00:00 | 00:00:00 | |
| DM0DOS-11 | 2026-09-04 11:03:46 | 52.76920 | 9.63859 | 92° | 161km/h | 9109m | -12m/s | -33.4°C | 91.6% | 317.3hPa | 2.7V | 08:20:46 | 01:31:20 | 00:00:00 | |
| DL1XH-west | 2026-09-04 11:03:45 | 52.76914 | 9.64124 | 92° | 161km/h | 9060m | -12.5m/s | -32.9°C | 93.4% | 319.4hPa | 2.6V | 08:21:09 | 01:31:24 | 00:00:00 | |
| DF8AY | 2026-09-04 11:03:41 | 52.76920 | 9.63859 | 93° | 161km/h | 9109m | -12m/s | -33.4°C | 94.5% | 317.3hPa | 2.7V | 08:21:09 | 01:31:20 | 00:00:00 | |
| DB0DAN | 2026-09-04 11:03:40 | 52.76922 | 9.63792 | 91° | 151km/h | 9121m | -12.8m/s | -33.5°C | 88.4% | 316.69hPa | 2.7V | 00:00:00 | 00:00:00 | 00:00:00 | |
| AA1-15 | 2026-09-04 11:03:40 | 52.76922 | 9.63792 | 91° | 159km/h | 9121m | -12.8m/s | -33.5°C | 94% | 316.7hPa | 2.7V | 08:21:09 | 01:31:19 | 00:00:00 | |
| BIOWL1-15 | 2026-09-04 11:03:39 | 52.76930 | 9.63461 | 92° | 155km/h | 9181m | -12.5m/s | -33.7°C | 84.1% | 314hPa | 2.7V | 08:21:09 | 01:31:14 | 00:00:00 | |
| DO2JMG | 2026-09-04 11:03:37 | 52.76927 | 9.63594 | 93° | 159km/h | 9156m | -12.5m/s | -33.5°C | 85.7% | 315.1hPa | 2.6V | 08:21:09 | 01:31:16 | 00:00:00 | |
| DJ2DS-15 | 2026-09-04 11:03:37 | 52.76927 | 9.63594 | 93° | 159km/h | 9156m | -12.5m/s | -33.5°C | 82.3% | 315.1hPa | 2.6V | 00:00:00 | 01:31:16 | 00:00:00 | |
| DM0DOS-11 | 2026-09-04 11:03:36 | 52.76937 | 9.63131 | 92° | 159km/h | 9242m | -12.2m/s | -34.1°C | 76.8% | 311.2hPa | 2.6V | 08:20:57 | 01:31:09 | 00:00:00 | |
| DL1XH-west | 2026-09-04 11:03:34 | 52.76931 | 9.63395 | 92° | 161km/h | 9194m | -12.3m/s | -33.8°C | 83.8% | 313.5hPa | 2.6V | 08:21:09 | 01:31:13 | 00:00:00 | |
| AA1-15 | 2026-09-04 11:03:30 | 52.76937 | 9.63131 | 92° | 159km/h | 9242m | -12.2m/s | -34.1°C | 80.3% | 311.2hPa | 2.6V | 08:21:09 | 01:31:09 | 00:00:00 | |
| BIOWL1-15 | 2026-09-04 11:03:26 | 52.76941 | 9.62865 | 92° | 157km/h | 9292m | -12.7m/s | -34.4°C | 76.4% | 309.2hPa | 2.7V | 08:21:09 | 01:31:05 | 00:00:00 | |
| DL1XH-west | 2026-09-04 11:03:23 | 52.76945 | 9.62667 | 92° | 161km/h | 9329m | -12.9m/s | -34.6°C | 72.6% | 307.5hPa | 2.6V | 08:21:09 | 01:31:02 | 00:00:00 | |
| DO2JMG | 2026-09-04 11:03:22 | 52.76946 | 9.62600 | 92° | 157km/h | 9342m | -12.9m/s | -34.7°C | 70.6% | 306.9hPa | 2.6V | 08:21:09 | 01:31:01 | 00:00:00 | |
| DF8AY | 2026-09-04 11:03:20 | 52.76949 | 9.62468 | 92° | 157km/h | 9367m | -13.1m/s | -34.6°C | 66% | 305.9hPa | 2.7V | 08:21:09 | 01:30:59 | 00:00:00 | |
| AA1-15 | 2026-09-04 11:03:19 | 52.76951 | 9.62402 | 93° | 161km/h | 9380m | -12.1m/s | -34.7°C | 63.2% | 305.2hPa | 2.6V | 08:21:09 | 01:30:58 | 00:00:00 | |
| DD1CC3-15 | 2026-09-04 11:03:19 | 52.76951 | 9.62402 | 94° | 161km/h | 9380m | -12.1m/s | -34.7°C | 55.0% | 305.3hPa | 2.7V | 00:00:00 | 00:00:00 | 00:00:00 | |
| DF8AY-15 | 2026-09-04 11:03:18 | 52.76953 | 9.62335 | 92° | 157km/h | 9392m | -12.1m/s | -34.7°C | 55.1% | 304.7hPa | 2.7V | 00:00:00 | 01:30:57 | 00:00:00 | |
| DJ2DS-15 | 2026-09-04 11:03:17 | 52.76954 | 9.62269 | 94° | 157km/h | 9403m | -12.4m/s | -34.8°C | 50.4% | 304.1hPa | 2.7V | 00:00:00 | 01:30:56 | 00:00:00 | |
| DM0DOS-11 | 2026-09-04 11:03:16 | 52.76966 | 9.61875 | 92° | 155km/h | 9479m | -13.3m/s | -35.3°C | 43.3% | 300.9hPa | 2.7V | 08:21:16 | 01:30:50 | 00:00:00 | |
| DL1XH-west | 2026-09-04 11:03:13 | 52.76962 | 9.62006 | 92° | 155km/h | 9454m | -13.1m/s | -35.1°C | 49.3% | 302hPa | 2.6V | 08:22:00 | 01:30:52 | 00:00:00 | |
| DL1CLM-18 | 2026-09-04 11:03:13 | 52.76962 | 9.62006 | 93° | 155km/h | 9454m | -13.1m/s | -35.1°C | 40.8% | 302.0hPa | 2.6V | 00:00:00 | 00:00:00 | 00:00:00 | |
| DL1XH-15 | 2026-09-04 11:03:12 | 52.76970 | 9.61744 | 91° | 157km/h | 9505m | -13.7m/s | -35.5°C | 44.2% | 299.8hPa | 2.6V | 08:21:18 | 01:30:48 | 00:00:00 | |
| DO2JMG | 2026-09-04 11:03:11 | 52.76966 | 9.61875 | 92° | 155km/h | 9479m | -13.3m/s | -35.3°C | 49.3% | 300.9hPa | 2.7V | 08:22:00 | 01:30:50 | 00:00:00 | |
| DF8AY | 2026-09-04 11:03:09 | 52.76970 | 9.61744 | 92° | 157km/h | 9505m | -13.7m/s | -35.5°C | 50.2% | 299.8hPa | 2.6V | 08:22:00 | 01:30:48 | 00:00:00 | |
| AA1-15 | 2026-09-04 11:03:08 | 52.76972 | 9.61679 | 93° | 157km/h | 9518m | -12.7m/s | -35.6°C | 50.8% | 299.3hPa | 2.6V | 08:22:00 | 01:30:47 | 00:00:00 | |
| DO2SHX-10 | 2026-09-04 11:03:07 | 52.76974 | 9.61613 | 92° | 157km/h | 9530m | -12.6m/s | -35.7°C | 45.5% | 298.7hPa | 2.6V | 00:00:00 | 01:30:46 | 00:00:00 | |
| DM0DOS-11 | 2026-09-04 11:03:06 | 52.76986 | 9.61153 | 91° | 155km/h | 9617m | -13.3m/s | -36.5°C | 51.3% | 295hPa | 2.7V | 08:21:27 | 01:30:39 | 00:00:00 | |
| BIOWL1-15 | 2026-09-04 11:03:05 | 52.76977 | 9.61482 | 92° | 159km/h | 9554m | -12.9m/s | -36°C | 53.1% | 297.8hPa | 2.7V | 08:22:00 | 01:30:44 | 00:00:00 | |
| DL1XH-west | 2026-09-04 11:03:03 | 52.76981 | 9.61350 | 93° | 161km/h | 9579m | -13m/s | -36.2°C | 55.2% | 296.6hPa | 2.6V | 08:22:00 | 01:30:42 | 00:00:00 | |
| DL1XH-15 | 2026-09-04 11:03:02 | 52.76988 | 9.61087 | 93° | 159km/h | 9629m | -12.6m/s | -36.7°C | 51.4% | 294.4hPa | 2.7V | 08:21:28 | 01:30:38 | 00:00:00 | |
| DO2JMG | 2026-09-04 11:03:00 | 52.76986 | 9.61153 | 92° | 155km/h | 9617m | -13.3m/s | -36.6°C | 57.3% | 295hPa | 2.7V | 08:22:00 | 01:30:39 | 00:00:00 | |
| DF8AY | 2026-09-04 11:02:59 | 52.76988 | 9.61087 | 93° | 159km/h | 9630m | -12.6m/s | -36.7°C | 57.4% | 294.4hPa | 2.7V | 08:22:00 | 01:30:38 | 00:00:00 | |
| AA1-15 | 2026-09-04 11:02:57 | 52.76992 | 9.60955 | 93° | 159km/h | 9654m | -12.6m/s | -36.9°C | 56.8% | 293.4hPa | 2.6V | 08:22:00 | 01:30:36 | 00:00:00 | |
| BIOWL1-15 | 2026-09-04 11:02:56 | 52.76997 | 9.60757 | 92° | 159km/h | 9691m | -13.2m/s | -37.2°C | 56.5% | 291.9hPa | 2.7V | 08:22:00 | 01:30:33 | 00:00:00 | |
| DF5WG-10 | 2026-09-04 11:02:56 | 52.76993 | 9.60889 | 92° | 159km/h | 9666m | -12.8m/s | -37.0°C | 50.5% | 292.8hPa | 2.7V | 00:00:00 | 01:30:35 | 00:00:00 | |
| DO2SHX-10 | 2026-09-04 11:02:55 | 52.76995 | 9.60823 | 93° | 157km/h | 9679m | -12.9m/s | -37.1°C | 50.4% | 292.3hPa | 2.7V | 00:00:00 | 01:30:34 | 00:00:00 | |
| DM0DOS-11 | 2026-09-04 11:02:54 | 52.77003 | 9.60494 | 92° | 161km/h | 9741m | -12.6m/s | -37.7°C | 53.4% | 289.6hPa | 2.7V | 08:21:37 | 01:30:29 | 00:00:00 | |
| DL1XH-west | 2026-09-04 11:02:52 | 52.77000 | 9.60626 | 93° | 161km/h | 9716m | -12.7m/s | -37.5°C | 57.6% | 290.7hPa | 2.6V | 08:22:00 | 01:30:31 | 00:00:00 | |
| BUE01 | 2026-09-04 11:02:52 | 52.77001 | 9.60560 | 91° | 155km/h | 9729m | -12.9m/s | -37.6°C | 49.6% | 290.3hPa | 2.7V | 00:00:00 | 00:00:00 | 00:00:00 | |
| DL1XH1-15 | 2026-09-04 11:02:50 | 52.77011 | 9.60161 | 91° | 159km/h | 9804m | -12.9m/s | -38.3°C | 58% | 287.1hPa | 2.7V | 08:21:42 | 01:30:24 | 00:00:00 | |
| DO2JMG | 2026-09-04 11:02:49 | 52.77004 | 9.60428 | 92° | 157km/h | 9754m | -13.3m/s | -37.8°C | 60% | 289.2hPa | 2.6V | 08:22:00 | 01:30:28 | 00:00:00 | |
| AA1-15 | 2026-09-04 11:02:46 | 52.77009 | 9.60228 | 93° | 161km/h | 9792m | -12.6m/s | -38.2°C | 62.8% | 287.6hPa | 2.7V | 08:22:00 | 01:30:25 | 00:00:00 | |
| BIOWL1-15 | 2026-09-04 11:02:44 | 52.77012 | 9.60095 | 93° | 159km/h | 9816m | -12.9m/s | -38.4°C | 63.7% | 286.6hPa | 2.7V | 08:22:00 | 01:30:23 | 00:00:00 | |
| DL1XH-west | 2026-09-04 11:02:41 | 52.77017 | 9.59894 | 92° | 162km/h | 9855m | -13.1m/s | -38.7°C | 62.5% | 285hPa | 2.6V | 08:22:00 | 01:30:20 | 00:00:00 | |
| DF8AY | 2026-09-04 11:02:39 | 52.77020 | 9.59760 | 92° | 162km/h | 9881m | -13.2m/s | -39°C | 63.3% | 283.9hPa | 2.7V | 08:22:00 | 01:30:18 | 00:00:00 | |
| DO2JMG | 2026-09-04 11:02:38 | 52.77021 | 9.59693 | 91° | 159km/h | 9894m | -13.3m/s | -39.1°C | 64.4% | 283.4hPa | 2.7V | 08:22:00 | 01:30:17 | 00:00:00 | |
| AA1-15 | 2026-09-04 11:02:35 | 52.77025 | 9.59491 | 93° | 162km/h | 9933m | -13.1m/s | -39.4°C | 69.1% | 281.8hPa | 2.6V | 08:22:00 | 01:30:14 | 00:00:00 | |
| BIOWL1-15 | 2026-09-04 11:02:33 | 52.77028 | 9.59356 | 92° | 162km/h | 9959m | -12.6m/s | -39.6°C | 76.1% | 280.8hPa | 2.7V | 08:22:00 | 01:30:12 | 00:00:00 | |
| DD8BA-10 | 2026-09-04 11:02:32 | 52.77029 | 9.59288 | 91° | 164km/h | 9972m | -13.2m/s | -39.7°C | 73.2% | 280.2hPa | 2.6V | 00:00:00 | 00:00:00 | 00:00:00 | |
| DM0DOS-11 | 2026-09-04 11:02:31 | 52.77031 | 9.59152 | 90° | 164km/h | 9997m | -13.4m/s | -39.9°C | 74.1% | 279.1hPa | 2.6V | 08:21:57 | 01:30:09 | 00:00:00 | |
| DL1XH1-15 | 2026-09-04 11:02:31 | 52.77034 | 9.58811 | 89° | 162km/h | 10060m | -13.4m/s | -40.4°C | 75.3% | 276.5hPa | 2.6V | 08:22:02 | 01:30:04 | 00:00:00 | |
| DL1XH-west | 2026-09-04 11:02:30 | 52.77031 | 9.59152 | 91° | 164km/h | 9997m | -13.4m/s | -39.9°C | 79.3% | 279.1hPa | 2.6V | 08:22:00 | 01:30:09 | 00:00:00 | |
| DF8AY | 2026-09-04 11:02:28 | 52.77032 | 9.59016 | 91° | 166km/h | 10022m | -13.2m/s | -40.1°C | 79% | 278.1hPa | 2.7V | 08:22:00 | 01:30:07 | 00:00:00 | |
| DO2JMG | 2026-09-04 11:02:27 | 52.77033 | 9.58948 | 91° | 161km/h | 10035m | -13.1m/s | -40.2°C | 79.5% | 277.6hPa | 2.6V | 08:22:00 | 01:30:06 | 00:00:00 | |
| GOEST3-10 | 2026-09-04 11:02:27 | 52.77033 | 9.58948 | 91° | 164km/h | 10035m | -13.1m/s | -40.1°C | 74.3% | 277.5hPa | 2.6V | 00:00:00 | 00:00:00 | 00:00:00 | |
| DF5WG-10 | 2026-09-04 11:02:26 | 52.77033 | 9.58880 | 92° | 164km/h | 10047m | -12.8m/s | -40.2°C | 74.7% | 277.0hPa | 2.6V | 00:00:00 | 01:30:05 | 00:00:00 | |
| DM0DOS-11 | 2026-09-04 11:02:25 | 52.77036 | 9.58468 | 90° | 162km/h | 10124m | -13.2m/s | -40.9°C | 78.5% | 273.9hPa | 2.6V | 08:22:07 | 01:29:59 | 00:00:00 | |
| AA1-15 | 2026-09-04 11:02:24 | 52.77034 | 9.58743 | 91° | 166km/h | 10073m | -12.6m/s | -40.5°C | 81.6% | 276.1hPa | 2.7V | 08:22:51 | 01:30:03 | 00:00:00 | |
| BIOWL1-15 | 2026-09-04 11:02:23 | 52.77035 | 9.58674 | 90° | 164km/h | 10086m | -13m/s | -40.6°C | 82.5% | 275.5hPa | 2.7V | 08:22:51 | 01:30:02 | 00:00:00 | |
| DD8BA-10 | 2026-09-04 11:02:22 | 52.77035 | 9.58605 | 92° | 164km/h | 10098m | -12.8m/s | -40.6°C | 77.9% | 275.0hPa | 2.7V | 00:00:00 | 00:00:00 | 00:00:00 | |
| DL1XH1-15 | 2026-09-04 11:02:20 | 52.77037 | 9.58123 | 91° | 166km/h | 10188m | -12.4m/s | -41.5°C | 79.9% | 271.4hPa | 2.7V | 08:22:12 | 01:29:54 | 00:00:00 | |
| DL1XH-west | 2026-09-04 11:02:19 | 52.77036 | 9.58399 | 90° | 168km/h | 10137m | -12.9m/s | -41°C | 83.9% | 273.5hPa | 2.6V | 08:22:51 | 01:29:58 | 00:00:00 | |
| DF8AY | 2026-09-04 11:02:18 | 52.77037 | 9.58330 | 90° | 162km/h | 10150m | -13.2m/s | -41.1°C | 84.1% | 273hPa | 2.6V | 08:22:51 | 01:29:57 | 00:00:00 | |
| DO2JMG | 2026-09-04 11:02:17 | 52.77037 | 9.58261 | 91° | 168km/h | 10163m | -13.2m/s | -41.2°C | 84.4% | 272.5hPa | 2.7V | 08:22:51 | 01:29:56 | 00:00:00 | |
| DJ2DS-15 | 2026-09-04 11:02:17 | 52.77037 | 9.58261 | 91° | 164km/h | 10163m | -13.1m/s | -41.2°C | 78.8% | 272.5hPa | 2.7V | 00:00:00 | 01:29:56 | 00:00:00 | |
| DO2SHX-10 | 2026-09-04 11:02:16 | 52.77037 | 9.58192 | 90° | 164km/h | 10175m | -12.8m/s | -41.3°C | 79.4% | 271.9hPa | 2.7V | 00:00:00 | 01:29:55 | 00:00:00 | |
| DM0DOS-11 | 2026-09-04 11:02:14 | 52.77039 | 9.57779 | 89° | 164km/h | 10253m | -13.5m/s | -42.1°C | 81.5% | 268.9hPa | 2.7V | 08:22:17 | 01:29:49 | 00:00:00 | |
| BIOWL1-15 | 2026-09-04 11:02:14 | 52.77039 | 9.57916 | 90° | 162km/h | 10226m | -13.8m/s | -41.9°C | 87% | 269.8hPa | 2.6V | 08:22:51 | 01:29:51 | 00:00:00 | |
| AA1-15 | 2026-09-04 11:02:13 | 52.77038 | 9.57985 | 91° | 168km/h | 10214m | -12.9m/s | -41.7°C | 86.6% | 270.4hPa | 2.6V | 08:22:51 | 01:29:52 | 00:00:00 | |
| DO2SHX-10 | 2026-09-04 11:02:13 | 52.77038 | 9.57985 | 92° | 166km/h | 10214m | -12.9m/s | -41.7°C | 80.7% | 270.4hPa | 2.6V | 00:00:00 | 01:29:52 | 00:00:00 | |
| DD8BA-10 | 2026-09-04 11:02:12 | 52.77039 | 9.57916 | 90° | 164km/h | 10227m | -13.7m/s | -41.8°C | 81.1% | 269.8hPa | 2.7V | 00:00:00 | 00:00:00 | 00:00:00 | |
| DO2LYB-13 | 2026-09-04 11:02:11 | 52.77039 | 9.57916 | 91° | 162km/h | 10227m | -13.8m/s | -41.9°C | 77.0% | 269.8hPa | 2.7V | 08:22:00 | 00:00:00 | 00:00:00 | |
| DB0DAN | 2026-09-04 11:02:10 | 52.77039 | 9.57779 | 89° | 157km/h | 10253m | -13.5m/s | -42.1°C | 77.3% | 268.86hPa | 2.7V | 00:00:00 | 00:00:00 | 00:00:00 | |
| DL1XH-west | 2026-09-04 11:02:08 | 52.77039 | 9.57641 | 89° | 166km/h | 10279m | -13.4m/s | -42.3°C | 86.8% | 267.8hPa | 2.6V | 08:22:51 | 01:29:47 | 00:00:00 | |
| DO2JMG | 2026-09-04 11:02:07 | 52.77039 | 9.57573 | 90° | 162km/h | 10292m | -13.3m/s | -42.5°C | 86.1% | 267.3hPa | 2.6V | 08:22:51 | 01:29:46 | 00:00:00 | |
| AA1-15 | 2026-09-04 11:02:03 | 52.77037 | 9.57300 | 88° | 161km/h | 10344m | -13.4m/s | -42.9°C | 84.4% | 265.3hPa | 2.6V | 08:22:51 | 01:29:42 | 00:00:00 | |
| DM0DOS-11 | 2026-09-04 11:02:02 | 52.77035 | 9.57096 | 89° | 162km/h | 10383m | -13m/s | -43.2°C | 78.3% | 263.8hPa | 2.7V | 08:22:27 | 01:29:39 | 00:00:00 | |
| BIOWL1-15 | 2026-09-04 11:02:02 | 52.77036 | 9.57232 | 90° | 164km/h | 10357m | -12.8m/s | -42.9°C | 84.5% | 264.8hPa | 2.6V | 08:22:51 | 01:29:41 | 00:00:00 | |
| DL1XH-west | 2026-09-04 11:01:57 | 52.77031 | 9.56892 | 88° | 164km/h | 10423m | -13.4m/s | -43.5°C | 79% | 262.2hPa | 2.6V | 08:22:51 | 01:29:36 | 00:00:00 | |
| DO2JMG | 2026-09-04 11:01:56 | 52.77029 | 9.56824 | 88° | 161km/h | 10435m | -13.4m/s | -43.6°C | 78% | 261.7hPa | 2.6V | 08:22:51 | 01:29:35 | 00:00:00 | |
| DF5WG-10 | 2026-09-04 11:01:56 | 52.77029 | 9.56824 | 88° | 162km/h | 10436m | -13.4m/s | -43.5°C | 71.4% | 261.7hPa | 2.7V | 00:00:00 | 01:29:35 | 00:00:00 | |
| DO2SHX-10 | 2026-09-04 11:01:55 | 52.77027 | 9.56756 | 88° | 164km/h | 10449m | -13.6m/s | -43.6°C | 71.1% | 261.2hPa | 2.7V | 08:22:00 | 01:29:34 | 00:00:00 | |
| DD1CC3-15 | 2026-09-04 11:01:54 | 52.77027 | 9.56756 | 89° | 164km/h | 10449m | -13.6m/s | -43.7°C | 66.9% | 261.2hPa | 2.6V | 00:00:00 | 00:00:00 | 00:00:00 | |
| DL1XH-15 | 2026-09-04 11:01:53 | 52.77018 | 9.56348 | 88° | 162km/h | 10528m | -13.1m/s | -44.3°C | 74% | 258.2hPa | 2.6V | 08:22:38 | 01:29:28 | 00:00:00 | |
| AA1-15 | 2026-09-04 11:01:52 | 52.77023 | 9.56552 | 87° | 162km/h | 10489m | -13.8m/s | -44°C | 81.6% | 259.7hPa | 2.6V | 08:22:51 | 01:29:31 | 00:00:00 | |
| BIOWL1-15 | 2026-09-04 11:01:52 | 52.77018 | 9.56348 | 88° | 162km/h | 10528m | -13.1m/s | -44.3°C | 80.9% | 258.2hPa | 2.6V | 08:22:51 | 01:29:28 | 00:00:00 | |
| BIOWL9-15 | 2026-09-04 11:01:51 | 52.77021 | 9.56484 | 88° | 162km/h | 10502m | -13.3m/s | -44.1°C | 0% | 259.1hPa | 2.6V | 00:00:00 | 00:00:00 | 00:00:00 | |
| DL1XH1-15 | 2026-09-04 11:01:49 | 52.77011 | 9.56076 | 87° | 161km/h | 10581m | -13.6m/s | -44.8°C | 68.9% | 256.1hPa | 2.6V | 08:22:42 | 01:29:24 | 00:00:00 | |
| DL1XH-west | 2026-09-04 11:01:47 | 52.77015 | 9.56212 | 88° | 162km/h | 10555m | -13.2m/s | -44.5°C | 78.9% | 257.1hPa | 2.7V | 08:22:51 | 01:29:26 | 00:00:00 | |
| DF8AY | 2026-09-04 11:01:47 | 52.77006 | 9.55873 | 88° | 166km/h | 10621m | -14m/s | -45.1°C | 74% | 254.6hPa | 2.7V | 08:22:51 | 01:29:21 | 00:00:00 | |
| DO2JMG | 2026-09-04 11:01:46 | 52.77013 | 9.56144 | 87° | 164km/h | 10567m | -13.8m/s | -44.7°C | 77.5% | 256.6hPa | 2.7V | 08:22:51 | 01:29:25 | 00:00:00 | |
| EDDB2-12 | 2026-09-04 11:01:45 | 52.77012 | 9.56076 | 87° | 161km/h | 10581m | -13.6m/s | -44.8°C | 64.6% | 256.1hPa | 2.6V | 00:00:00 | 00:00:00 | 00:00:00 | |
| DD1CC8 | 2026-09-04 11:01:44 | 52.77010 | 9.56008 | 87° | 162km/h | 10594m | -13.9m/s | -44.9°C | 63.6% | 255.6hPa | 2.6V | 00:00:00 | 00:00:00 | 00:00:00 | |
| DO2SHX-10 | 2026-09-04 11:01:43 | 52.77008 | 9.55940 | 88° | 162km/h | 10608m | -13.6m/s | -44.9°C | 67.3% | 255.0hPa | 2.6V | 00:00:00 | 01:29:22 | 00:00:00 | |
| DL1XH-15 | 2026-09-04 11:01:42 | 52.77001 | 9.55668 | 86° | 162km/h | 10662m | -14.2m/s | -45.5°C | 64.5% | 253hPa | 2.6V | 08:22:48 | 01:29:18 | 00:00:00 | |
| AA1-15 | 2026-09-04 11:01:41 | 52.77004 | 9.55804 | 87° | 161km/h | 10634m | -14m/s | -45.2°C | 73.5% | 254.1hPa | 2.7V | 08:22:51 | 01:29:20 | 00:00:00 | |
| BIOWL1-15 | 2026-09-04 11:01:39 | 52.77001 | 9.55668 | 87° | 162km/h | 10662m | -14.2m/s | -45.5°C | 71.4% | 253hPa | 2.6V | 08:22:51 | 01:29:18 | 00:00:00 | |
| DL1XH-west | 2026-09-04 11:01:36 | 52.76996 | 9.55463 | 88° | 164km/h | 10702m | -13.8m/s | -45.8°C | 69.2% | 251.5hPa | 2.7V | 08:22:51 | 01:29:15 | 00:00:00 | |
| DO2JMG | 2026-09-04 11:01:35 | 52.76995 | 9.55395 | 87° | 164km/h | 10716m | -14.1m/s | -45.9°C | 69.1% | 251hPa | 2.7V | 08:23:42 | 01:29:14 | 00:00:00 | |
| DF8AY | 2026-09-04 11:01:34 | 52.76993 | 9.55326 | 88° | 162km/h | 10730m | -13.6m/s | -46°C | 68.8% | 250.5hPa | 2.6V | 08:23:42 | 01:29:13 | 00:00:00 | |
| AA1-15 | 2026-09-04 11:01:30 | 52.76987 | 9.55053 | 88° | 162km/h | 10784m | -14m/s | -46.5°C | 68.4% | 248.4hPa | 2.7V | 08:23:42 | 01:29:09 | 00:00:00 | |
| BIOWL1-15 | 2026-09-04 11:01:29 | 52.76977 | 9.54437 | 88° | 162km/h | 10912m | -14.7m/s | -47.7°C | 58.2% | 243.8hPa | 2.6V | 08:23:42 | 01:29:00 | 00:00:00 | |
| DL1XH1-15 | 2026-09-04 11:01:28 | 52.76981 | 9.54711 | 87° | 164km/h | 10855m | -14.3m/s | -47.1°C | 58.6% | 245.8hPa | 2.6V | 08:23:02 | 01:29:04 | 00:00:00 | |
| DL1XH-west | 2026-09-04 11:01:26 | 52.76982 | 9.54779 | 89° | 164km/h | 10841m | -13.9m/s | -47°C | 66.7% | 246.3hPa | 2.6V | 08:23:42 | 01:29:05 | 00:00:00 | |
| DO2JMG | 2026-09-04 11:01:25 | 52.76980 | 9.54711 | 88° | 164km/h | 10855m | -14.3m/s | -47.2°C | 65.8% | 245.8hPa | 2.6V | 08:23:42 | 01:29:04 | 00:00:00 | |
| DF8AY | 2026-09-04 11:01:24 | 52.76979 | 9.54642 | 89° | 164km/h | 10869m | -14.1m/s | -47.3°C | 64.6% | 245.3hPa | 2.7V | 08:23:42 | 01:29:03 | 00:00:00 | |
| DM0DOS-11 | 2026-09-04 11:01:23 | 52.76976 | 9.54369 | 90° | 164km/h | 10926m | -13.7m/s | -47.8°C | 48.1% | 243.2hPa | 2.6V | 08:23:07 | 01:28:59 | 00:00:00 | |
| DD8BA-10 | 2026-09-04 11:01:22 | 52.76978 | 9.54506 | 90° | 162km/h | 10898m | -14.1m/s | -47.5°C | 54.0% | 244.2hPa | 2.6V | 08:23:00 | 00:00:00 | 00:00:00 | |
| DL8OAI-8 | 2026-09-04 11:01:21 | 52.76977 | 9.54506 | 91° | 164km/h | 10898m | -14.1m/s | -47.6°C | 49.7% | 244.3hPa | 2.6V | 08:23:00 | 00:00:00 | 00:00:00 | |
| DL1XH1-15 | 2026-09-04 11:01:20 | 52.76976 | 9.53963 | 91° | 162km/h | 11011m | -14m/s | -48.4°C | 39.2% | 240.1hPa | 2.6V | 08:23:13 | 01:28:53 | 00:00:00 | |
| AA1-15 | 2026-09-04 11:01:19 | 52.76976 | 9.54301 | 89° | 162km/h | 10940m | -14.3m/s | -47.9°C | 51.8% | 242.7hPa | 2.7V | 08:23:42 | 01:28:58 | 00:00:00 | |
| DL1XH-west | 2026-09-04 11:01:15 | 52.76976 | 9.54030 | 90° | 161km/h | 10997m | -14.9m/s | -48.3°C | 45.8% | 240.6hPa | 2.6V | 08:23:42 | 01:28:54 | 00:00:00 | |
| BIOWL1-15 | 2026-09-04 11:01:15 | 52.76977 | 9.53895 | 90° | 162km/h | 11025m | -14.2m/s | -48.5°C | 45.7% | 239.6hPa | 2.7V | 08:23:42 | 01:28:52 | 00:00:00 | |
| DO2JMG | 2026-09-04 11:01:14 | 52.76976 | 9.53963 | 91° | 162km/h | 11011m | -14m/s | -48.4°C | 45.8% | 240.1hPa | 2.6V | 08:23:42 | 01:28:53 | 00:00:00 | |
| DD1CC8 | 2026-09-04 11:01:14 | 52.76977 | 9.53895 | 90° | 162km/h | 11025m | -14.2m/s | -48.5°C | 35.1% | 239.6hPa | 2.6V | 00:00:00 | 00:00:00 | 00:00:00 | |
| DO2SHX-10 | 2026-09-04 11:01:13 | 52.76977 | 9.53895 | 91° | 162km/h | 11025m | -14.2m/s | -48.5°C | 39.0% | 239.5hPa | 2.6V | 00:00:00 | 01:28:52 | 00:00:00 | |
| SONCRA | 2026-09-04 11:01:12 | 52.76977 | 9.53828 | 91° | 159km/h | 11039m | -14.0m/s | -48.6°C | 35.2% | 239.0hPa | 2.6V | 00:00:00 | 00:00:00 | 00:00:00 | |
| DM0DOS-11 | 2026-09-04 11:01:11 | 52.76979 | 9.53693 | 90° | 159km/h | 11066m | -13.7m/s | -48.9°C | 39.5% | 238hPa | 2.6V | 08:23:17 | 01:28:49 | 00:00:00 | |
| DB0DAN | 2026-09-04 11:01:10 | 52.76979 | 9.53693 | 91° | 151km/h | 11067m | -13.7m/s | -48.9°C | 35.5% | 238.01hPa | 2.6V | 00:00:00 | 00:00:00 | 00:00:00 | |
| AA1-15 | 2026-09-04 11:01:08 | 52.76981 | 9.53558 | 91° | 161km/h | 11094m | -14.5m/s | -49.1°C | 46.8% | 237.1hPa | 2.7V | 08:23:42 | 01:28:47 | 00:00:00 | |
| DL1XH-west | 2026-09-04 11:01:05 | 52.76985 | 9.53355 | 91° | 161km/h | 11136m | -13.8m/s | -49.5°C | 47.9% | 235.5hPa | 2.6V | 08:23:42 | 01:28:44 | 00:00:00 | |
| DM0DOS-11 | 2026-09-04 11:01:04 | 52.76993 | 9.53016 | 92° | 162km/h | 11205m | -14.6m/s | -50.1°C | 43.1% | 233hPa | 2.7V | 08:23:27 | 01:28:39 | 00:00:00 | |
| DO2JMG | 2026-09-04 11:01:03 | 52.76988 | 9.53220 | 91° | 162km/h | 11162m | -14.1m/s | -49.7°C | 48.8% | 234.6hPa | 2.6V | 08:23:42 | 01:28:42 | 00:00:00 | |
| DD8BA-10 | 2026-09-04 11:01:02 | 52.76990 | 9.53152 | 93° | 162km/h | 11176m | -13.8m/s | -49.8°C | 42.2% | 234.0hPa | 2.7V | 00:00:00 | 00:00:00 | 00:00:00 | |
| DO2SHX-10 | 2026-09-04 11:01:01 | 52.76991 | 9.53084 | 92° | 162km/h | 11190m | -14.6m/s | -49.9°C | 42.6% | 233.5hPa | 2.7V | 08:23:00 | 01:28:40 | 00:00:00 | |
| DL1XH-15 | 2026-09-04 11:00:59 | 52.76995 | 9.52948 | 91° | 164km/h | 11220m | -15.2m/s | -50.2°C | 43.6% | 232.5hPa | 2.7V | 08:23:28 | 01:28:38 | 00:00:00 | |
| AA1-15 | 2026-09-04 11:00:58 | 52.76996 | 9.52881 | 92° | 161km/h | 11235m | -15.1m/s | -50.4°C | 51.1% | 232hPa | 2.6V | 08:23:42 | 01:28:37 | 00:00:00 | |
| DO2SHX-10 | 2026-09-04 11:00:58 | 52.76996 | 9.52881 | 92° | 162km/h | 11235m | -15.1m/s | -50.3°C | 44.1% | 232.0hPa | 2.6V | 00:00:00 | 01:28:37 | 00:00:00 | |
| DJ2DS-15 | 2026-09-04 11:00:57 | 52.76998 | 9.52813 | 94° | 162km/h | 11250m | -13.8m/s | -50.5°C | 44.8% | 231.5hPa | 2.6V | 00:00:00 | 01:28:36 | 00:00:00 | |
| DB0DAN | 2026-09-04 11:00:55 | 52.77001 | 9.52678 | 93° | 153km/h | 11277m | -13.9m/s | -50.8°C | 41.5% | 230.45hPa | 2.7V | 00:00:00 | 00:00:00 | 00:00:00 | |
| DL1XH-west | 2026-09-04 11:00:55 | 52.77001 | 9.52678 | 93° | 161km/h | 11278m | -13.9m/s | -50.8°C | 52.9% | 230.4hPa | 2.7V | 08:23:42 | 01:28:34 | 00:00:00 | |
| BIOWL1-15 | 2026-09-04 11:00:53 | 52.77004 | 9.52542 | 92° | 161km/h | 11305m | -13.8m/s | -51°C | 54.1% | 229.4hPa | 2.6V | 08:23:42 | 01:28:32 | 00:00:00 | |
| DO2JMG | 2026-09-04 11:00:52 | 52.77006 | 9.52475 | 93° | 164km/h | 11319m | -13.4m/s | -51.2°C | 54.7% | 228.9hPa | 2.6V | 08:23:42 | 01:28:31 | 00:00:00 | |
| D01LWL | 2026-09-04 11:00:51 | 52.77008 | 9.52407 | 91° | 161km/h | 11332m | -13.4m/s | -51.3°C | 43.7% | 228.5hPa | 2.7V | 00:00:00 | 00:00:00 | 00:00:00 | |
| DC6BW-12 | 2026-09-04 11:00:50 | 52.77008 | 9.52406 | 93° | 161km/h | 11332m | -13.4m/s | -51.3°C | 43.7% | 228.5hPa | 2.7V | 00:00:00 | 00:00:00 | 00:00:00 | |
| DL1XH-15 | 2026-09-04 11:00:49 | 52.77011 | 9.52271 | 91° | 162km/h | 11359m | -13.4m/s | -51.5°C | 49.6% | 227.5hPa | 2.7V | 08:23:38 | 01:28:28 | 00:00:00 | |
| BIOWL9-15 | 2026-09-04 11:00:49 | 52.77013 | 9.52203 | 92° | 162km/h | 11372m | -13.2m/s | -51.7°C | 45.4% | 227.1hPa | 2.6V | 00:00:00 | 00:00:00 | 00:00:00 | |
| DL1XH1-15 | 2026-09-04 11:00:48 | 52.77019 | 9.51933 | 92° | 161km/h | 11425m | -13.8m/s | -52.2°C | 52.5% | 225.2hPa | 2.6V | 08:23:43 | 01:28:23 | 00:00:00 | |
| AA1-15 | 2026-09-04 11:00:48 | 52.77013 | 9.52203 | 93° | 162km/h | 11372m | -13.2m/s | -51.7°C | 57.2% | 227.1hPa | 2.7V | 08:23:42 | 01:28:27 | 00:00:00 | |
| DL1XH-west | 2026-09-04 11:00:45 | 52.77017 | 9.52001 | 92° | 164km/h | 11412m | -13.5m/s | -52.1°C | 59.1% | 225.7hPa | 2.6V | 08:23:42 | 01:28:24 | 00:00:00 | |
| DL3AQ-11 | 2026-09-04 11:00:45 | 52.77019 | 9.51933 | 92° | 161km/h | 11425m | -13.8m/s | -52.2°C | 47.5% | 225.2hPa | 2.6V | 00:00:00 | 00:00:00 | 00:00:00 | |
| DM0DOS-11 | 2026-09-04 11:00:43 | 52.77024 | 9.51661 | 91° | 162km/h | 11481m | -14m/s | -52.7°C | 55.1% | 223.3hPa | 2.6V | 08:23:47 | 01:28:19 | 00:00:00 | |
| BIOWL1-15 | 2026-09-04 11:00:42 | 52.77023 | 9.51729 | 92° | 166km/h | 11467m | -13.8m/s | -52.6°C | 61.7% | 223.8hPa | 2.7V | 08:24:33 | 01:28:20 | 00:00:00 | |
| DO2JMG | 2026-09-04 11:00:42 | 52.77022 | 9.51797 | 91° | 161km/h | 11453m | -14.3m/s | -52.5°C | 61.1% | 224.3hPa | 2.7V | 08:24:33 | 01:28:21 | 00:00:00 | |
| DD8BA-10 | 2026-09-04 11:00:42 | 52.77021 | 9.51797 | 92° | 164km/h | 11453m | -14.2m/s | -52.4°C | 53.9% | 224.2hPa | 2.6V | 00:00:00 | 00:00:00 | 00:00:00 | |
| SONCRA | 2026-09-04 11:00:41 | 52.77024 | 9.51661 | 91° | 161km/h | 11481m | -14.0m/s | -52.7°C | 49.9% | 223.3hPa | 2.6V | 00:00:00 | 00:00:00 | 00:00:00 | |
| DO2SHX-10 | 2026-09-04 11:00:40 | 52.77024 | 9.51661 | 92° | 164km/h | 11481m | -14.0m/s | -52.7°C | 55.1% | 223.2hPa | 2.6V | 00:00:00 | 01:28:19 | 00:00:00 | |
| DL4XJ-10 | 2026-09-04 11:00:39 | 52.77026 | 9.51593 | 93° | 166km/h | 11495m | -14.0m/s | -53.1°C | 0% | 0hPa | 2.6V | 00:00:00 | 00:00:00 | 00:00:00 | |
| DL1XH1-15 | 2026-09-04 11:00:38 | 52.77032 | 9.51249 | 90° | 166km/h | 11564m | -14.4m/s | -53.5°C | 58.9% | 220.4hPa | 2.6V | 08:23:53 | 01:28:13 | 00:00:00 | |
| AA1-15 | 2026-09-04 11:00:38 | 52.77027 | 9.51524 | 91° | 162km/h | 11508m | -14.4m/s | -53°C | 63.9% | 222.4hPa | 2.6V | 08:24:33 | 01:28:17 | 00:00:00 | |
| DL1XH-west | 2026-09-04 11:00:34 | 52.77032 | 9.51249 | 91° | 166km/h | 11564m | -14.4m/s | -53.5°C | 66.8% | 220.4hPa | 2.6V | 08:24:33 | 01:28:13 | 00:00:00 | |
| DL3AQ-11 | 2026-09-04 11:00:34 | 52.77032 | 9.51180 | 91° | 162km/h | 11578m | -14.7m/s | -53.6°C | 53.9% | 219.9hPa | 2.7V | 00:00:00 | 00:00:00 | 00:00:00 | |
| DM0DOS-11 | 2026-09-04 11:00:33 | 52.77035 | 9.50972 | 91° | 168km/h | 11622m | -14.7m/s | -54°C | 60.3% | 218.5hPa | 2.7V | 08:23:57 | 01:28:09 | 00:00:00 | |
| BIOWL1-15 | 2026-09-04 11:00:32 | 52.77034 | 9.51111 | 92° | 168km/h | 11593m | -14.7m/s | -53.8°C | 67.7% | 219.4hPa | 2.7V | 08:24:33 | 01:28:11 | 00:00:00 | |
| DO2JMG | 2026-09-04 11:00:31 | 52.77034 | 9.51041 | 91° | 164km/h | 11607m | -14.7m/s | -53.9°C | 68.1% | 218.9hPa | 2.7V | 08:24:33 | 01:28:10 | 00:00:00 | |
| DL1CLM-18 | 2026-09-04 11:00:31 | 52.77034 | 9.51041 | 92° | 164km/h | 11608m | -14.7m/s | -53.9°C | 54.5% | 218.9hPa | 2.6V | 08:24:00 | 00:00:00 | 00:00:00 | |
| DL1XH-15 | 2026-09-04 11:00:29 | 52.77036 | 9.50902 | 91° | 164km/h | 11637m | -14.9m/s | -54.1°C | 60.5% | 217.9hPa | 2.6V | 08:23:58 | 01:28:08 | 00:00:00 | |
| DL1XH1-15 | 2026-09-04 11:00:28 | 52.77040 | 9.50555 | 90° | 164km/h | 11716m | -16.1m/s | -54.9°C | 61.6% | 215.3hPa | 2.6V | 08:24:03 | 01:28:03 | 00:00:00 | |
| AA1-15 | 2026-09-04 11:00:27 | 52.77037 | 9.50764 | 91° | 164km/h | 11668m | -15.4m/s | -54.4°C | 69.2% | 216.9hPa | 2.6V | 08:24:33 | 01:28:06 | 00:00:00 | |
| GOEST3-10 | 2026-09-04 11:00:27 | 52.77037 | 9.50764 | 91° | 166km/h | 11668m | -15.3m/s | -54.4°C | 60.6% | 216.8hPa | 2.7V | 00:00:00 | 00:00:00 | 00:00:00 | |
| DB0DAN | 2026-09-04 11:00:25 | 52.77039 | 9.50625 | 91° | 162km/h | 11700m | -15.3m/s | -54.7°C | 55.6% | 215.81hPa | 2.7V | 00:00:00 | 00:00:00 | 00:00:00 | |
| DL1XH-15 | 2026-09-04 11:00:24 | 52.77044 | 9.50206 | 91° | 166km/h | 11795m | -15.2m/s | -55.6°C | 62.8% | 212.6hPa | 2.7V | 08:24:08 | 01:27:58 | 00:00:00 | |
| DM0DOS-11 | 2026-09-04 11:00:23 | 52.77043 | 9.50276 | 90° | 168km/h | 11780m | -15.7m/s | -55.5°C | 62.7% | 213.1hPa | 2.7V | 08:24:07 | 01:27:59 | 00:00:00 | |
| DL1XH-west | 2026-09-04 11:00:23 | 52.77041 | 9.50486 | 91° | 166km/h | 11732m | -16.1m/s | -55.1°C | 70.1% | 214.7hPa | 2.6V | 08:24:33 | 01:28:02 | 00:00:00 | |
| BIOWL1-15 | 2026-09-04 11:00:22 | 52.77042 | 9.50417 | 92° | 168km/h | 11748m | -15.1m/s | -55.2°C | 70.3% | 214.2hPa | 2.6V | 08:24:33 | 01:28:01 | 00:00:00 | |
| DO2JMG | 2026-09-04 11:00:20 | 52.77043 | 9.50276 | 90° | 168km/h | 11780m | -15.7m/s | -55.5°C | 70.3% | 213.1hPa | 2.7V | 08:24:33 | 01:27:59 | 00:00:00 | |
| AA1-15 | 2026-09-04 11:00:17 | 52.77045 | 9.50066 | 91° | 166km/h | 11826m | -15.7m/s | -55.9°C | 70% | 211.6hPa | 2.6V | 08:24:33 | 01:27:56 | 00:00:00 | |
| BIOWL7-15 | 2026-09-04 11:00:17 | 52.77046 | 9.49995 | 92° | 172km/h | 11842m | -15.7m/s | -56.1°C | 56.3% | 211.1hPa | 2.7V | 00:00:00 | 00:00:00 | 00:00:00 | |
| DO2SHX-10 | 2026-09-04 11:00:15 | 52.77047 | 9.49925 | 91° | 170km/h | 11858m | -15.8m/s | -56.2°C | 62.4% | 210.5hPa | 2.7V | 00:00:00 | 01:27:54 | 00:00:00 | |
| SMARD9-10 | 2026-09-04 11:00:14 | 52.77047 | 9.49925 | 92° | 170km/h | 11858m | -15.8m/s | -56.2°C | 56.3% | 210.6hPa | 2.7V | 00:00:00 | 00:00:00 | 00:00:00 | |
| DM0DOS-11 | 2026-09-04 11:00:13 | 52.77050 | 9.49572 | 90° | 172km/h | 11936m | -15m/s | -57°C | 61% | 208hPa | 2.7V | 08:24:17 | 01:27:49 | 00:00:00 | |
| DL1XH-west | 2026-09-04 11:00:12 | 52.77049 | 9.49713 | 90° | 168km/h | 11905m | -16.5m/s | -56.7°C | 68.5% | 209.1hPa | 2.6V | 08:24:33 | 01:27:51 | 00:00:00 | |
| BIOWL1-15 | 2026-09-04 11:00:11 | 52.77050 | 9.49643 | 91° | 168km/h | 11920m | -15.6m/s | -56.8°C | 68.1% | 208.5hPa | 2.6V | 08:24:33 | 01:27:50 | 00:00:00 | |
| DO2JMG | 2026-09-04 11:00:09 | 52.77050 | 9.49502 | 90° | 166km/h | 11951m | -15.1m/s | -57.1°C | 66.8% | 207.5hPa | 2.7V | 08:24:33 | 01:27:48 | 00:00:00 | |
| DL1XH-15 | 2026-09-04 11:00:08 | 52.77050 | 9.49431 | 90° | 172km/h | 11966m | -16m/s | -57.2°C | 59.9% | 207hPa | 2.7V | 08:24:19 | 01:27:47 | 00:00:00 | |
| DL1XH1-15 | 2026-09-04 11:00:08 | 52.77051 | 9.49149 | 90° | 172km/h | 12031m | -15.3m/s | -57.8°C | 58% | 204.9hPa | 2.7V | 08:24:23 | 01:27:43 | 00:00:00 | |
| AA1-15 | 2026-09-04 11:00:07 | 52.77051 | 9.49361 | 91° | 168km/h | 11982m | -16.1m/s | -57.4°C | 65.4% | 206.5hPa | 2.6V | 08:24:33 | 01:27:46 | 00:00:00 | |
| GOEST3-10 | 2026-09-04 11:00:07 | 52.77051 | 9.49360 | 91° | 168km/h | 11982m | -16.1m/s | -57.3°C | 59.4% | 206.5hPa | 2.6V | 00:00:00 | 00:00:00 | 00:00:00 | |
| DO2SHX-10 | 2026-09-04 11:00:06 | 52.77051 | 9.49290 | 90° | 170km/h | 11999m | -15.9m/s | -57.4°C | 58.6% | 205.9hPa | 2.6V | 00:00:00 | 01:27:45 | 00:00:00 | |
| DL3AQ-11 | 2026-09-04 11:00:05 | 52.77051 | 9.49149 | 90° | 170km/h | 12031m | -15.3m/s | -57.8°C | 51.6% | 204.9hPa | 2.6V | 00:00:00 | 00:00:00 | 00:00:00 | |
| HTAHTA | 2026-09-04 11:00:04 | 52.77051 | 9.49149 | 90° | 170km/h | 12031m | -15.3m/s | -57.8°C | 51.6% | 204.9hPa | 2.6V | 00:00:00 | 00:00:00 | 00:00:00 | |
| DM0DOS-11 | 2026-09-04 11:00:02 | 52.77051 | 9.48867 | 88° | 166km/h | 12094m | -16.8m/s | -58.4°C | 57.6% | 202.9hPa | 2.6V | 08:24:27 | 01:27:39 | 00:00:00 | |
| DL1XH-west | 2026-09-04 11:00:01 | 52.77051 | 9.48937 | 90° | 172km/h | 12078m | -16m/s | -58.2°C | 62.5% | 203.4hPa | 2.6V | 08:24:33 | 01:27:40 | 00:00:00 | |
| DF8AY | 2026-09-04 11:00:00 | 52.77049 | 9.48585 | 90° | 168km/h | 12159m | -15.6m/s | -58.8°C | 60.7% | 200.8hPa | 2.6V | 08:24:33 | 01:27:35 | 00:00:00 | |
| BIOWL1-15 | 2026-09-04 11:00:00 | 52.77051 | 9.48867 | 89° | 166km/h | 12094m | -16.8m/s | -58.4°C | 62% | 202.9hPa | 2.6V | 08:24:33 | 01:27:39 | 00:00:00 | |
| DO2SHX-10 | 2026-09-04 11:00:00 | 52.77051 | 9.48867 | 89° | 170km/h | 12094m | -16.7m/s | -58.3°C | 57.6% | 202.8hPa | 2.6V | 08:24:00 | 01:27:39 | 00:00:00 | |
| DL8OAI-8 | 2026-09-04 10:59:59 | 52.77051 | 9.48867 | 90° | 166km/h | 12094m | -16.8m/s | -58.4°C | 51.0% | 202.9hPa | 2.7V | 08:24:00 | 00:00:00 | 00:00:00 | |
| DL1XH-15 | 2026-09-04 10:59:58 | 52.77050 | 9.48726 | 89° | 170km/h | 12126m | -16m/s | -58.6°C | 57.2% | 201.8hPa | 2.7V | 08:24:29 | 01:27:37 | 00:00:00 | |
| DO2JMG | 2026-09-04 10:59:58 | 52.77050 | 9.48726 | 89° | 170km/h | 12126m | -16m/s | -58.6°C | 61.1% | 201.8hPa | 2.7V | 08:24:33 | 01:27:37 | 00:00:00 | |
| AA1-15 | 2026-09-04 10:59:57 | 52.77049 | 9.48655 | 88° | 168km/h | 12142m | -16.4m/s | -58.7°C | 61% | 201.3hPa | 2.7V | 08:24:33 | 01:27:36 | 00:00:00 | |
| DJ2DS-15 | 2026-09-04 10:59:57 | 52.77049 | 9.48655 | 89° | 173km/h | 12142m | -16.4m/s | -58.7°C | 57.3% | 201.3hPa | 2.7V | 08:24:00 | 01:27:36 | 00:00:00 | |
| DB0DAN | 2026-09-04 10:59:55 | 52.77048 | 9.48514 | 88° | 162km/h | 12175m | -16.1m/s | -59°C | 49.9% | 200.28hPa | 2.6V | 00:00:00 | 00:00:00 | 00:00:00 | |
| DL3AQ-11 | 2026-09-04 10:59:54 | 52.77045 | 9.48373 | 89° | 172km/h | 12207m | -16.1m/s | -59.3°C | 48.7% | 199.3hPa | 2.7V | 00:00:00 | 00:00:00 | 00:00:00 | |
| DL1XH-15 | 2026-09-04 10:59:53 | 52.77039 | 9.48015 | 88° | 172km/h | 12290m | -16.2m/s | -59.8°C | 52.1% | 196.6hPa | 2.7V | 08:24:39 | 01:27:27 | 00:00:00 | |
| DM0DOS-11 | 2026-09-04 10:59:52 | 52.77042 | 9.48159 | 88° | 170km/h | 12257m | -17m/s | -59.7°C | 53.8% | 197.7hPa | 2.6V | 08:24:37 | 01:27:29 | 00:00:00 | |
| DL1XH-west | 2026-09-04 10:59:50 | 52.77042 | 9.48159 | 88° | 170km/h | 12257m | -17m/s | -59.7°C | 57.2% | 197.7hPa | 2.6V | 08:25:24 | 01:27:29 | 00:00:00 | |
| DF8AY | 2026-09-04 10:59:49 | 52.77034 | 9.47797 | 89° | 179km/h | 12341m | -16.9m/s | -60°C | 53.7% | 195hPa | 2.6V | 08:25:24 | 01:27:24 | 00:00:00 | |
| BIOWL1-15 | 2026-09-04 10:59:49 | 52.77040 | 9.48087 | 88° | 175km/h | 12274m | -17m/s | -59.8°C | 56.6% | 197.2hPa | 2.6V | 08:25:24 | 01:27:28 | 00:00:00 | |
| DO2JMG | 2026-09-04 10:59:47 | 52.77037 | 9.47943 | 89° | 175km/h | 12307m | -16.8m/s | -59.7°C | 55.1% | 196hPa | 2.7V | 08:25:24 | 01:27:26 | 00:00:00 | |
| BIOWL9-15 | 2026-09-04 10:59:47 | 52.77036 | 9.47870 | 87° | 172km/h | 12324m | -17.2m/s | -59.9°C | 44.0% | 195.6hPa | 2.6V | 00:00:00 | 00:00:00 | 00:00:00 | |
| DF5WG-10 | 2026-09-04 10:59:46 | 52.77036 | 9.47870 | 88° | 179km/h | 12324m | -17.2m/s | -59.8°C | 50.6% | 195.5hPa | 2.6V | 00:00:00 | 01:27:25 | 00:00:00 | |
| DO2SHX-10 | 2026-09-04 10:59:45 | 52.77034 | 9.47797 | 89° | 177km/h | 12341m | -16.9m/s | -59.9°C | 50.1% | 195.0hPa | 2.6V | 00:00:00 | 01:27:24 | 00:00:00 | |
| SONDE2-11 | 2026-09-04 10:59:44 | 52.77031 | 9.47649 | 88° | 175km/h | 12375m | -16.7m/s | -60.0°C | 42.1% | 194.0hPa | 2.6V | 00:00:00 | 00:00:00 | 00:00:00 | |
| DL1XH-15 | 2026-09-04 10:59:43 | 52.77024 | 9.47275 | 87° | 183km/h | 12466m | -17.7m/s | -60.2°C | 45.4% | 191.2hPa | 2.6V | 08:24:49 | 01:27:17 | 00:00:00 | |
| DM0DOS-11 | 2026-09-04 10:59:42 | 52.77027 | 9.47427 | 87° | 179km/h | 12429m | -18.7m/s | -60.1°C | 46.1% | 192.4hPa | 2.6V | 08:24:47 | 01:27:19 | 00:00:00 | |
| DL1XH-west | 2026-09-04 10:59:40 | 52.77027 | 9.47426 | 88° | 179km/h | 12429m | -18.7m/s | -60.1°C | 50.2% | 192.4hPa | 2.6V | 08:25:24 | 01:27:19 | 00:00:00 | |
| DF8AY | 2026-09-04 10:59:39 | 52.77026 | 9.47351 | 89° | 183km/h | 12448m | -18.3m/s | -60.2°C | 49.7% | 191.8hPa | 2.6V | 08:25:24 | 01:27:18 | 00:00:00 | |
| BIOWL1-15 | 2026-09-04 10:59:38 | 52.77024 | 9.47275 | 88° | 183km/h | 12466m | -17.7m/s | -60.2°C | 49.3% | 191.2hPa | 2.6V | 08:25:24 | 01:27:17 | 00:00:00 | |
| DO2JMG | 2026-09-04 10:59:37 | 52.77023 | 9.47200 | 89° | 183km/h | 12484m | -17.7m/s | -60.3°C | 48.6% | 190.7hPa | 2.7V | 08:25:24 | 01:27:16 | 00:00:00 | |
| DJ2DS-15 | 2026-09-04 10:59:37 | 52.77023 | 9.47199 | 89° | 179km/h | 12484m | -17.6m/s | -60.2°C | 44.5% | 190.6hPa | 2.6V | 00:00:00 | 01:27:16 | 00:00:00 | |
| DO2SHX-10 | 2026-09-04 10:59:36 | 52.77021 | 9.47124 | 88° | 181km/h | 12502m | -18.4m/s | -60.4°C | 44.0% | 190.1hPa | 2.6V | 00:00:00 | 01:27:15 | 00:00:00 | |
| DO2SHX-10 | 2026-09-04 10:59:33 | 52.77017 | 9.46896 | 89° | 183km/h | 12557m | -18.7m/s | -60.8°C | 42.4% | 188.5hPa | 2.6V | 08:24:00 | 01:27:12 | 00:00:00 | |
| DL1XH-15 | 2026-09-04 10:59:32 | 52.77012 | 9.46518 | 88° | 177km/h | 12653m | -17.8m/s | -61.4°C | 38.7% | 185.7hPa | 2.6V | 08:24:59 | 01:27:07 | 00:00:00 | |
| DM0DOS-11 | 2026-09-04 10:59:32 | 52.77013 | 9.46669 | 89° | 179km/h | 12615m | -19.4m/s | -61.2°C | 40.2% | 186.8hPa | 2.7V | 08:24:57 | 01:27:09 | 00:00:00 | |
| BIOWL1-15 | 2026-09-04 10:59:32 | 52.77012 | 9.46518 | 89° | 177km/h | 12653m | -17.8m/s | -61.4°C | 42% | 185.7hPa | 2.6V | 08:25:24 | 01:27:07 | 00:00:00 | |
| DL1XH-west | 2026-09-04 10:59:30 | 52.77014 | 9.46669 | 89° | 179km/h | 12615m | -19.4m/s | -61.2°C | 43.6% | 186.8hPa | 2.7V | 08:25:24 | 01:27:09 | 00:00:00 | |
| AA1-15 | 2026-09-04 10:59:27 | 52.77011 | 9.46444 | 89° | 181km/h | 12671m | -18.6m/s | -61.5°C | 41.3% | 185.1hPa | 2.7V | 08:25:24 | 01:27:06 | 00:00:00 | |
| DO2SHX-10 | 2026-09-04 10:59:27 | 52.77011 | 9.46443 | 89° | 179km/h | 12671m | -18.6m/s | -61.5°C | 38.4% | 185.0hPa | 2.6V | 00:00:00 | 01:27:06 | 00:00:00 | |
| DB0DAN | 2026-09-04 10:59:25 | 52.77008 | 9.46295 | 89° | 166km/h | 12708m | -17.9m/s | -61.8°C | 31.2% | 183.94hPa | 2.6V | 00:00:00 | 00:00:00 | 00:00:00 | |
| DL3AQ-11 | 2026-09-04 10:59:25 | 52.77007 | 9.46221 | 88° | 179km/h | 12726m | -18.2m/s | -61.8°C | 30.6% | 183.4hPa | 2.6V | 00:00:00 | 00:00:00 | 00:00:00 | |
| DO2SHX-10 | 2026-09-04 10:59:24 | 52.77007 | 9.46221 | 89° | 177km/h | 12726m | -18.2m/s | -61.8°C | 36.9% | 183.3hPa | 2.6V | 00:00:00 | 01:27:03 | 00:00:00 | |
| DO2LYB-13 | 2026-09-04 10:59:23 | 52.77007 | 9.46221 | 89° | 179km/h | 12726m | -18.2m/s | -61.8°C | 30.6% | 183.4hPa | 2.6V | 00:00:00 | 00:00:00 | 00:00:00 | |
| DL1XH-15 | 2026-09-04 10:59:22 | 52.77002 | 9.45779 | 89° | 175km/h | 12835m | -19m/s | -62.4°C | 35.7% | 180.1hPa | 2.6V | 08:25:09 | 01:26:57 | 00:00:00 | |
| DM0DOS-11 | 2026-09-04 10:59:22 | 52.77003 | 9.45927 | 89° | 179km/h | 12799m | -17.7m/s | -62.2°C | 36% | 181.2hPa | 2.7V | 08:25:07 | 01:26:59 | 00:00:00 | |
| BIOWL1-15 | 2026-09-04 10:59:20 | 52.77002 | 9.45779 | 89° | 175km/h | 12835m | -19m/s | -62.4°C | 35.6% | 180.2hPa | 2.6V | 08:25:24 | 01:26:57 | 00:00:00 | |
| DL1XH-west | 2026-09-04 10:59:19 | 52.77002 | 9.45853 | 90° | 175km/h | 12817m | -17.8m/s | -62.3°C | 36.3% | 180.7hPa | 2.6V | 08:25:24 | 01:26:58 | 00:00:00 | |
| DO2JMG | 2026-09-04 10:59:17 | 52.77002 | 9.45706 | 91° | 177km/h | 12854m | -18.5m/s | -62.5°C | 34.9% | 179.6hPa | 2.6V | 08:25:24 | 01:26:56 | 00:00:00 | |
| AA1-15 | 2026-09-04 10:59:16 | 52.77002 | 9.45633 | 90° | 173km/h | 12873m | -19.6m/s | -62.5°C | 34.2% | 179hPa | 2.7V | 08:25:24 | 01:26:55 | 00:00:00 | |
| BIOWL9-15 | 2026-09-04 10:59:16 | 52.77002 | 9.45559 | 90° | 177km/h | 12893m | -20.0m/s | -62.7°C | 27.7% | 178.5hPa | 2.6V | 00:00:00 | 00:00:00 | 00:00:00 | |
| HSKMA3-T | 2026-09-04 10:59:15 | 52.76139 | 9.24773 | 101° | 47km/h | 16658m | 6m/s | -54.8°C | 0.9% | 97.8hPa | 2.6V | 18:12:15 | 01:11:05 | 00:00:00 | |
| DO2SHX-10 | 2026-09-04 10:59:15 | 52.77002 | 9.45559 | 91° | 175km/h | 12893m | -19.9m/s | -62.7°C | 34.3% | 178.5hPa | 2.7V | 00:00:00 | 01:26:54 | 00:00:00 | |
| DL3AQ-11 | 2026-09-04 10:59:14 | 52.77004 | 9.45414 | 91° | 173km/h | 12932m | -18.9m/s | -63.1°C | 27.7% | 177.3hPa | 2.6V | 00:00:00 | 00:00:00 | 00:00:00 | |
| SONDE2-11 | 2026-09-04 10:59:13 | 52.77005 | 9.45341 | 90° | 173km/h | 12951m | -19.6m/s | -63.2°C | 27.5% | 176.8hPa | 2.6V | 00:00:00 | 00:00:00 | 00:00:00 | |
| DL1XH-15 | 2026-09-04 10:59:12 | 52.77011 | 9.45051 | 92° | 175km/h | 13027m | -18.8m/s | -63.7°C | 32.4% | 174.6hPa | 2.6V | 08:25:19 | 01:26:47 | 00:00:00 | |
| DD8BA-10 | 2026-09-04 10:59:12 | 52.77005 | 9.45341 | 91° | 170km/h | 12951m | -19.6m/s | -63.1°C | 34.4% | 176.8hPa | 2.7V | 00:00:00 | 00:00:00 | 00:00:00 | |
| DB0DAN | 2026-09-04 10:59:10 | 52.77007 | 9.45196 | 92° | 168km/h | 12988m | -19m/s | -63.4°C | 26.6% | 175.71hPa | 2.7V | 00:00:00 | 00:00:00 | 00:00:00 | |
| DL1XH-west | 2026-09-04 10:59:09 | 52.77009 | 9.45123 | 93° | 172km/h | 13008m | -19.3m/s | -63.6°C | 30.1% | 175.2hPa | 2.7V | 08:25:24 | 01:26:48 | 00:00:00 | |
| BIOWL1-15 | 2026-09-04 10:59:08 | 52.77011 | 9.45051 | 93° | 175km/h | 13027m | -18.8m/s | -63.8°C | 29.3% | 174.6hPa | 2.6V | 08:25:24 | 01:26:47 | 00:00:00 | |
| SONCRA | 2026-09-04 10:59:08 | 52.77016 | 9.44910 | 94° | 168km/h | 13066m | -19.1m/s | -64.1°C | 24.6% | 173.6hPa | 2.7V | 00:00:00 | 00:00:00 | 00:00:00 | |
| DL1XH1-15 | 2026-09-04 10:59:07 | 52.77022 | 9.44770 | 94° | 164km/h | 13104m | -19.7m/s | -64.1°C | 29.5% | 172.5hPa | 2.7V | 08:25:23 | 01:26:43 | 00:00:00 | |
| DF8AY | 2026-09-04 10:59:07 | 52.77013 | 9.44980 | 93° | 168km/h | 13047m | -20m/s | -63.9°C | 28.6% | 174.1hPa | 2.6V | 08:25:24 | 01:26:46 | 00:00:00 | |
| DO2JMG | 2026-09-04 10:59:06 | 52.77016 | 9.44910 | 94° | 168km/h | 13066m | -19.1m/s | -64.1°C | 27.8% | 173.6hPa | 2.6V | 08:25:24 | 01:26:45 | 00:00:00 | |
| DO2SHX-10 | 2026-09-04 10:59:06 | 52.77016 | 9.44910 | 95° | 168km/h | 13066m | -19.1m/s | -64.1°C | 31.6% | 173.5hPa | 2.6V | 08:25:00 | 01:26:45 | 00:00:00 | |
| DO2SHX-10 | 2026-09-04 10:59:03 | 52.77025 | 9.44702 | 95° | 162km/h | 13124m | -20.0m/s | -63.9°C | 28.2% | 172.0hPa | 2.7V | 00:00:00 | 01:26:42 | 00:00:00 | |
| DL1XH-15 | 2026-09-04 10:59:02 | 52.77036 | 9.44372 | 90° | 155km/h | 13219m | -19.1m/s | -62.5°C | 21% | 169.3hPa | 2.7V | 08:25:29 | 01:26:37 | 00:00:00 | |
| DL1XH-west | 2026-09-04 10:58:58 | 52.77036 | 9.44372 | 91° | 155km/h | 13219m | -19.1m/s | -62.5°C | 18.8% | 169.3hPa | 2.7V | 08:26:15 | 01:26:37 | 00:00:00 | |
| BIOWL1-15 | 2026-09-04 10:58:57 | 52.77037 | 9.44180 | 90° | 151km/h | 13276m | -18.9m/s | -62.4°C | 16.5% | 167.7hPa | 2.6V | 08:26:15 | 01:26:34 | 00:00:00 | |
| DJ2DS-15 | 2026-09-04 10:58:57 | 52.77036 | 9.44308 | 92° | 159km/h | 13238m | -19.0m/s | -62.4°C | 20.5% | 168.7hPa | 2.7V | 00:00:00 | 01:26:36 | 00:00:00 | |
| DL1XH1-15 | 2026-09-04 10:58:56 | 52.77037 | 9.44116 | 89° | 155km/h | 13295m | -20m/s | -62.3°C | 18.6% | 167.2hPa | 2.6V | 08:25:33 | 01:26:33 | 00:00:00 | |
| AA1-15 | 2026-09-04 10:58:56 | 52.77037 | 9.44244 | 90° | 155km/h | 13257m | -19m/s | -62.4°C | 17.2% | 168.3hPa | 2.7V | 08:26:15 | 01:26:35 | 00:00:00 | |
| DB0DAN | 2026-09-04 10:58:55 | 52.77037 | 9.44180 | 90° | 144km/h | 13276m | -18.9m/s | -62.4°C | 13.7% | 167.68hPa | 2.6V | 00:00:00 | 00:00:00 | 00:00:00 | |
| DO2JMG | 2026-09-04 10:58:54 | 52.77037 | 9.44116 | 89° | 155km/h | 13295m | -20m/s | -62.3°C | 15.8% | 167.3hPa | 2.6V | 08:26:15 | 01:26:33 | 00:00:00 | |
| DO2SHX-10 | 2026-09-04 10:58:54 | 52.77036 | 9.44116 | 90° | 157km/h | 13295m | -19.9m/s | -62.3°C | 18.6% | 167.2hPa | 2.7V | 00:00:00 | 01:26:33 | 00:00:00 | |
| DD8BA-10 | 2026-09-04 10:58:52 | 52.77036 | 9.43987 | 90° | 161km/h | 13334m | -19.4m/s | -62.2°C | 17.7% | 166.1hPa | 2.7V | 00:00:00 | 00:00:00 | 00:00:00 | |
| DL1XH-15 | 2026-09-04 10:58:51 | 52.77036 | 9.43721 | 90° | 164km/h | 13411m | -19.6m/s | -62°C | 15.3% | 164.1hPa | 2.6V | 08:25:39 | 01:26:27 | 00:00:00 | |
| DL1XH-west | 2026-09-04 10:58:47 | 52.77037 | 9.43653 | 91° | 161km/h | 13430m | -19.4m/s | -62.1°C | 11.4% | 163.6hPa | 2.6V | 08:26:15 | 01:26:26 | 00:00:00 | |
| DF8AY | 2026-09-04 10:58:46 | 52.77038 | 9.43586 | 93° | 164km/h | 13450m | -18.6m/s | -62.2°C | 10.9% | 163.1hPa | 2.7V | 08:26:15 | 01:26:25 | 00:00:00 | |
| DL1XH1-15 | 2026-09-04 10:58:46 | 52.77042 | 9.43450 | 93° | 166km/h | 13488m | -18.7m/s | -62.4°C | 13.2% | 162hPa | 2.6V | 08:25:43 | 01:26:23 | 00:00:00 | |
| AA1-15 | 2026-09-04 10:58:45 | 52.77040 | 9.43518 | 92° | 161km/h | 13469m | -19.1m/s | -62.3°C | 10.3% | 162.6hPa | 2.7V | 08:26:15 | 01:26:24 | 00:00:00 | |
| DO2JMG | 2026-09-04 10:58:44 | 52.77042 | 9.43450 | 93° | 166km/h | 13488m | -18.7m/s | -62.4°C | 9.6% | 162hPa | 2.6V | 08:26:15 | 01:26:23 | 00:00:00 | |
| BUE01 | 2026-09-04 10:58:43 | 52.77045 | 9.43382 | 93° | 159km/h | 13506m | -18.5m/s | -62.4°C | 7.9% | 161.6hPa | 2.6V | 00:00:00 | 00:00:00 | 00:00:00 | |
| SONDE2-11 | 2026-09-04 10:58:42 | 52.77053 | 9.43247 | 96° | 159km/h | 13543m | -19.6m/s | -62.3°C | 7.0% | 160.6hPa | 2.6V | 00:00:00 | 00:00:00 | 00:00:00 | |
| DL1XH-15 | 2026-09-04 10:58:41 | 52.77070 | 9.43051 | 100° | 157km/h | 13600m | -19.3m/s | -60.8°C | 9.6% | 159hPa | 2.6V | 08:25:49 | 01:26:17 | 00:00:00 | |
| DB0DAN | 2026-09-04 10:58:40 | 52.77058 | 9.43181 | 98° | 155km/h | 13562m | -18.4m/s | -61.9°C | 6.5% | 160.05hPa | 2.7V | 00:00:00 | 00:00:00 | 00:00:00 | |
| DL1XH-west | 2026-09-04 10:58:37 | 52.77078 | 9.42987 | 101° | 153km/h | 13620m | -19.6m/s | -59.9°C | 5.3% | 158.6hPa | 2.6V | 08:26:15 | 01:26:16 | 00:00:00 | |
| DF8AY | 2026-09-04 10:58:35 | 52.77093 | 9.42865 | 102° | 148km/h | 13659m | -20.1m/s | -59°C | 4.6% | 157.7hPa | 2.7V | 08:26:15 | 01:26:14 | 00:00:00 | |
| DL1XH1-15 | 2026-09-04 10:58:35 | 52.77101 | 9.42807 | 103° | 141km/h | 13679m | -19.9m/s | -58.7°C | 7.4% | 157.2hPa | 2.7V | 08:25:53 | 01:26:13 | 00:00:00 | |
| AA1-15 | 2026-09-04 10:58:34 | 52.77101 | 9.42807 | 103° | 141km/h | 13679m | -19.9m/s | -58.7°C | 4.4% | 157.2hPa | 2.7V | 08:26:15 | 01:26:13 | 00:00:00 | |
| BIOWL1-15 | 2026-09-04 10:58:33 | 52.77124 | 9.42640 | 103° | 133km/h | 13738m | -19.1m/s | -58.4°C | 3.9% | 155.7hPa | 2.6V | 08:26:15 | 01:26:10 | 00:00:00 | |
| DO2JMG | 2026-09-04 10:58:33 | 52.77109 | 9.42749 | 103° | 141km/h | 13699m | -20.3m/s | -58.5°C | 4.3% | 156.6hPa | 2.7V | 08:26:15 | 01:26:12 | 00:00:00 | |
| DL1XH-west | 2026-09-04 10:58:26 | 52.77153 | 9.42385 | 100° | 117km/h | 13839m | -18.4m/s | -58.2°C | 3.5% | 153hPa | 2.6V | 08:26:15 | 01:26:05 | 00:00:00 | |
| DF5WG-10 | 2026-09-04 10:58:26 | 52.77153 | 9.42385 | 100° | 115km/h | 13840m | -18.3m/s | -58.2°C | 6.6% | 153.0hPa | 2.7V | 00:00:00 | 01:26:05 | 00:00:00 | |
| DL1XH1-15 | 2026-09-04 10:58:25 | 52.77162 | 9.42289 | 97° | 119km/h | 13879m | -20.4m/s | -58.4°C | 6.7% | 152.2hPa | 2.7V | 08:26:03 | 01:26:03 | 00:00:00 | |
| DB0DAN | 2026-09-04 10:58:25 | 52.77158 | 9.42337 | 99° | 110km/h | 13859m | -20.2m/s | -58.3°C | 3.3% | 152.68hPa | 2.6V | 00:00:00 | 00:00:00 | 00:00:00 | |
| DF8AY | 2026-09-04 10:58:25 | 52.77158 | 9.42337 | 99° | 115km/h | 13859m | -20.2m/s | -58.3°C | 3.4% | 152.7hPa | 2.6V | 08:26:15 | 01:26:04 | 00:00:00 | |
| AA1-15 | 2026-09-04 10:58:24 | 52.77162 | 9.42289 | 98° | 119km/h | 13880m | -20.4m/s | -58.4°C | 3.4% | 152.2hPa | 2.7V | 08:26:15 | 01:26:03 | 00:00:00 | |
| DO2JMG | 2026-09-04 10:58:23 | 52.77165 | 9.42241 | 94° | 115km/h | 13900m | -20.6m/s | -58.4°C | 3.3% | 151.7hPa | 2.7V | 08:26:15 | 01:26:02 | 00:00:00 | |
| DD8BA-10 | 2026-09-04 10:58:22 | 52.77167 | 9.42194 | 93° | 115km/h | 13920m | -18.8m/s | -58.3°C | 6.6% | 151.1hPa | 2.7V | 08:26:00 | 00:00:00 | 00:00:00 | |
| DO2SHX-10 | 2026-09-04 10:58:21 | 52.77168 | 9.42147 | 92° | 113km/h | 13939m | -19.1m/s | -58.2°C | 6.4% | 150.8hPa | 2.6V | 00:00:00 | 01:26:00 | 00:00:00 | |
| DO9LL-15 | 2026-09-04 10:58:20 | 52.77169 | 9.42100 | 93° | 110km/h | 13959m | -20.8m/s | -58.2°C | 6.4% | 150.4hPa | 2.6V | 00:00:00 | 01:25:59 | 00:00:00 | |
| DL4XJ-10 | 2026-09-04 10:58:19 | 52.77169 | 9.42053 | 89° | 119km/h | 13980m | -21.0m/s | -58.5°C | 0% | 0hPa | 2.6V | 00:00:00 | 00:00:00 | 00:00:00 | |
| DL3AQ-11 | 2026-09-04 10:58:18 | 52.77168 | 9.41959 | 87° | 115km/h | 14021m | -21.4m/s | -58.3°C | 2.9% | 148.9hPa | 2.6V | 00:00:00 | 00:00:00 | 00:00:00 | |
| DJ2DS-15 | 2026-09-04 10:58:17 | 52.77168 | 9.41959 | 88° | 119km/h | 14021m | -21.3m/s | -58.3°C | 6.3% | 148.8hPa | 2.6V | 00:00:00 | 01:25:56 | 00:00:00 | |
| DF5WG-10 | 2026-09-04 10:58:16 | 52.77166 | 9.41910 | 88° | 122km/h | 14042m | -20.9m/s | -58.2°C | 6.2% | 148.3hPa | 2.6V | 00:00:00 | 01:25:55 | 00:00:00 | |
| DL1XH1-15 | 2026-09-04 10:58:15 | 52.77164 | 9.41811 | 87° | 119km/h | 14084m | -21.5m/s | -57.8°C | 6% | 147.5hPa | 2.6V | 08:26:13 | 01:25:53 | 00:00:00 | |
| DL1XH-west | 2026-09-04 10:58:15 | 52.77165 | 9.41861 | 88° | 120km/h | 14063m | -21.4m/s | -58°C | 2.6% | 147.9hPa | 2.6V | 08:26:15 | 01:25:54 | 00:00:00 | |
| DJ2DS-15 | 2026-09-04 10:58:15 | 52.77164 | 9.41811 | 87° | 119km/h | 14084m | -21.5m/s | -57.8°C | 2.7% | 147.5hPa | 2.6V | 00:00:00 | 00:00:00 | 00:00:00 | |
| DM0DOS-11 | 2026-09-04 10:58:14 | 52.77158 | 9.41606 | 88° | 122km/h | 14173m | -21.8m/s | -57.2°C | 5.6% | 145.4hPa | 2.6V | 08:26:17 | 01:25:49 | 00:00:00 | |
| AA1-15 | 2026-09-04 10:58:14 | 52.77164 | 9.41811 | 87° | 119km/h | 14084m | -21.5m/s | -57.8°C | 2.5% | 147.5hPa | 2.6V | 08:26:15 | 01:25:53 | 00:00:00 | |
| DO2JMG | 2026-09-04 10:58:12 | 52.77160 | 9.41709 | 87° | 122km/h | 14128m | -22.2m/s | -57.2°C | 2.2% | 146.3hPa | 2.7V | 08:26:15 | 01:25:51 | 00:00:00 | |
| DO2SHX-10 | 2026-09-04 10:58:12 | 52.77160 | 9.41709 | 87° | 124km/h | 14128m | -22.1m/s | -57.2°C | 5.6% | 146.3hPa | 2.7V | 08:26:00 | 01:25:51 | 00:00:00 | |
| DB0DAN | 2026-09-04 10:58:10 | 52.77158 | 9.41606 | 88° | 117km/h | 14173m | -21.8m/s | -57.3°C | 2.4% | 145.43hPa | 2.6V | 00:00:00 | 00:00:00 | 00:00:00 | |
| DO2SHX-10 | 2026-09-04 10:58:09 | 52.77157 | 9.41554 | 91° | 124km/h | 14195m | -21.2m/s | -57.1°C | 5.5% | 144.8hPa | 2.6V | 00:00:00 | 01:25:48 | 00:00:00 | |
| EDDB2-12 | 2026-09-04 10:58:08 | 52.77157 | 9.41502 | 89° | 124km/h | 14215m | -21.4m/s | -57.1°C | 2.4% | 144.3hPa | 2.6V | 00:00:00 | 00:00:00 | 00:00:00 | |
| GOEST3-10 | 2026-09-04 10:58:07 | 52.77157 | 9.41451 | 90° | 120km/h | 14237m | -21.2m/s | -57.1°C | 5.5% | 143.8hPa | 2.6V | 00:00:00 | 00:00:00 | 00:00:00 | |
| DO2SHX-10 | 2026-09-04 10:58:06 | 52.77157 | 9.41400 | 92° | 120km/h | 14258m | -20.8m/s | -56.9°C | 5.4% | 143.3hPa | 2.6V | 00:00:00 | 01:25:45 | 00:00:00 | |
| DL1XH1-15 | 2026-09-04 10:58:05 | 52.77158 | 9.41299 | 91° | 120km/h | 14301m | -22.3m/s | -56.8°C | 5.2% | 142.5hPa | 2.6V | 08:26:23 | 01:25:43 | 00:00:00 | |
| DL3AQ-11 | 2026-09-04 10:58:05 | 52.77158 | 9.41299 | 91° | 119km/h | 14301m | -22.3m/s | -56.8°C | 2.2% | 142.5hPa | 2.6V | 00:00:00 | 00:00:00 | 00:00:00 | |
| DM0DOS-11 | 2026-09-04 10:58:04 | 52.77157 | 9.41109 | 86° | 110km/h | 14389m | -21.4m/s | -56.7°C | 5.3% | 140.5hPa | 2.6V | 08:26:27 | 01:25:39 | 00:00:00 | |
| DL1XH-west | 2026-09-04 10:58:04 | 52.77158 | 9.41299 | 91° | 120km/h | 14301m | -22.3m/s | -56.8°C | 1.9% | 142.5hPa | 2.6V | 08:27:06 | 01:25:43 | 00:00:00 | |
| BIOWL1-15 | 2026-09-04 10:58:02 | 52.77158 | 9.41202 | 90° | 111km/h | 14345m | -21.8m/s | -56.9°C | 1.9% | 141.5hPa | 2.7V | 08:27:06 | 01:25:41 | 00:00:00 | |
| DO2JMG | 2026-09-04 10:58:01 | 52.77158 | 9.41155 | 88° | 113km/h | 14368m | -22.1m/s | -56.9°C | 1.9% | 141.1hPa | 2.7V | 08:27:06 | 01:25:40 | 00:00:00 | |
| DO2SHX-10 | 2026-09-04 10:58:00 | 52.77157 | 9.41109 | 87° | 110km/h | 14389m | -21.4m/s | -56.7°C | 5.3% | 140.4hPa | 2.6V | 00:00:00 | 01:25:39 | 00:00:00 | |
| DL4XJ-10 | 2026-09-04 10:57:59 | 52.77155 | 9.41064 | 87° | 110km/h | 14410m | -20.9m/s | -56.3°C | 0% | 0hPa | 2.6V | 00:00:00 | 00:00:00 | 00:00:00 | |
| DF8AY-15 | 2026-09-04 10:57:58 | 52.77153 | 9.41019 | 86° | 110km/h | 14431m | -21.1m/s | -55.6°C | 4.8% | 139.5hPa | 2.6V | 00:00:00 | 01:25:37 | 00:00:00 | |
| DJ2DS-15 | 2026-09-04 10:57:57 | 52.77151 | 9.40973 | 85° | 108km/h | 14453m | -21.1m/s | -55.3°C | 4.7% | 139.0hPa | 2.7V | 00:00:00 | 01:25:36 | 00:00:00 | |
| DL8OAI-8 | 2026-09-04 10:57:56 | 52.77151 | 9.40973 | 86° | 110km/h | 14453m | -21.1m/s | -55.4°C | 2.0% | 139.1hPa | 2.7V | 08:27:00 | 00:00:00 | 00:00:00 | |
| DB0DAN | 2026-09-04 10:57:55 | 52.77146 | 9.40881 | 85° | 104km/h | 14496m | -21m/s | -55.1°C | 2% | 138.22hPa | 2.7V | 00:00:00 | 00:00:00 | 00:00:00 | |
| DM0DOS-11 | 2026-09-04 10:57:54 | 52.77138 | 9.40644 | 88° | 115km/h | 14603m | -21.6m/s | -55.4°C | 4.6% | 135.8hPa | 2.7V | 08:26:37 | 01:25:29 | 00:00:00 | |
| DL1XH-west | 2026-09-04 10:57:53 | 52.77142 | 9.40786 | 86° | 113km/h | 14538m | -21.2m/s | -54.9°C | 1.5% | 137.2hPa | 2.6V | 08:27:06 | 01:25:32 | 00:00:00 | |
| BIOWL1-15 | 2026-09-04 10:57:51 | 52.77137 | 9.40503 | 90° | 115km/h | 14666m | -20.8m/s | -55.7°C | 1.5% | 134.5hPa | 2.7V | 08:27:06 | 01:25:26 | 00:00:00 | |
| DO2JMG | 2026-09-04 10:57:51 | 52.77139 | 9.40692 | 87° | 113km/h | 14581m | -22m/s | -55.2°C | 1.5% | 136.3hPa | 2.7V | 08:27:06 | 01:25:30 | 00:00:00 | |
| DO2SHX-10 | 2026-09-04 10:57:51 | 52.77139 | 9.40692 | 87° | 113km/h | 14581m | -22.0m/s | -55.2°C | 4.6% | 136.3hPa | 2.6V | 00:00:00 | 01:25:30 | 00:00:00 | |
| DC6BW-12 | 2026-09-04 10:57:49 | 52.77138 | 9.40644 | 90° | 115km/h | 14603m | -21.6m/s | -55.4°C | 1.9% | 135.8hPa | 2.6V | 08:27:00 | 00:00:00 | 00:00:00 | |
| DO2SHX-10 | 2026-09-04 10:57:48 | 52.77137 | 9.40550 | 91° | 113km/h | 14645m | -20.2m/s | -55.6°C | 4.7% | 134.9hPa | 2.6V | 00:00:00 | 01:25:27 | 00:00:00 | |
| DF5WG-10 | 2026-09-04 10:57:46 | 52.77138 | 9.40455 | 92° | 100km/h | 14687m | -20.3m/s | -55.8°C | 4.7% | 134.0hPa | 2.6V | 00:00:00 | 01:25:25 | 00:00:00 | |
| DL1XH1-15 | 2026-09-04 10:57:45 | 52.77140 | 9.40365 | 94° | 106km/h | 14729m | -20.8m/s | -55.8°C | 4.7% | 133.1hPa | 2.6V | 08:26:43 | 01:25:23 | 00:00:00 | |
| DM0DOS-11 | 2026-09-04 10:57:44 | 52.77149 | 9.40198 | 96° | 97km/h | 14812m | -19.5m/s | -55.5°C | 4.5% | 131.5hPa | 2.7V | 08:26:47 | 01:25:19 | 00:00:00 | |
| AA1-15 | 2026-09-04 10:57:43 | 52.77142 | 9.40321 | 94° | 102km/h | 14750m | -21.7m/s | -55.7°C | 1.4% | 132.7hPa | 2.6V | 08:27:06 | 01:25:22 | 00:00:00 | |
| DL1XH-west | 2026-09-04 10:57:42 | 52.77144 | 9.40279 | 95° | 99km/h | 14772m | -20.9m/s | -55.7°C | 1.4% | 132.3hPa | 2.7V | 08:27:06 | 01:25:21 | 00:00:00 | |
| DO2JMG | 2026-09-04 10:57:41 | 52.77146 | 9.40239 | 97° | 99km/h | 14792m | -19.4m/s | -55.6°C | 1.4% | 131.7hPa | 2.7V | 08:27:06 | 01:25:20 | 00:00:00 | |
| DB0DAN | 2026-09-04 10:57:40 | 52.77149 | 9.40198 | 96° | 91km/h | 14812m | -19.5m/s | -55.5°C | 1.8% | 131.46hPa | 2.7V | 00:00:00 | 00:00:00 | 00:00:00 | |
| DL1XH1-15 | 2026-09-04 10:57:39 | 52.77176 | 9.39936 | 98° | 88km/h | 14958m | -20.9m/s | -55.2°C | 4.3% | 128.4hPa | 2.6V | 08:26:54 | 01:25:12 | 00:00:00 | |
| DL4XJ-10 | 2026-09-04 10:57:39 | 52.77152 | 9.40158 | 100° | 86km/h | 14832m | -19.5m/s | -55.5°C | 0% | 0hPa | 2.6V | 00:00:00 | 00:00:00 | 00:00:00 | |
| DL1NUX | 2026-09-04 10:57:38 | 52.77160 | 9.40082 | 98° | 91km/h | 14873m | -21.9m/s | -55.2°C | 4.3% | 130.2hPa | 2.6V | 08:26:50 | 01:25:16 | 00:00:00 | |
| BIOWL1-15 | 2026-09-04 10:57:38 | 52.77156 | 9.40120 | 100° | 91km/h | 14852m | -20.8m/s | -55.2°C | 1.2% | 130.6hPa | 2.6V | 08:27:06 | 01:25:17 | 00:00:00 | |
| DL3AQ-11 | 2026-09-04 10:57:38 | 52.77160 | 9.40082 | 98° | 91km/h | 14873m | -21.9m/s | -55.2°C | 1.7% | 130.2hPa | 2.7V | 00:00:00 | 00:00:00 | 00:00:00 | |
| DJ2DS-15 | 2026-09-04 10:57:37 | 52.77160 | 9.40082 | 99° | 84km/h | 14874m | -21.8m/s | -55.2°C | 4.3% | 130.1hPa | 2.7V | 00:00:00 | 01:25:16 | 00:00:00 | |
| DO9LL-15 | 2026-09-04 10:57:36 | 52.77163 | 9.40044 | 102° | 77km/h | 14895m | -20.6m/s | -55.2°C | 4.3% | 129.7hPa | 2.7V | 00:00:00 | 01:25:15 | 00:00:00 | |
| HSKMA3-T | 2026-09-04 10:57:35 | 52.76621 | 9.02359 | 103° | 135km/h | 13804m | 3.5m/s | -59.1°C | 16.3% | 153.3hPa | 2.7V | 18:12:15 | 01:01:11 | 00:00:00 | |
| AA1-15 | 2026-09-04 10:57:33 | 52.77175 | 9.39936 | 99° | 88km/h | 14958m | -20.9m/s | -55.2°C | 1.1% | 128.4hPa | 2.6V | 08:27:06 | 01:25:12 | 00:00:00 | |
| DL1XH-west | 2026-09-04 10:57:32 | 52.77179 | 9.39900 | 99° | 84km/h | 14979m | -20.5m/s | -55.3°C | 1.2% | 128hPa | 2.6V | 08:27:06 | 01:25:11 | 00:00:00 | |
| DO2JMG | 2026-09-04 10:57:31 | 52.77182 | 9.39865 | 100° | 88km/h | 15000m | -19.9m/s | -55.4°C | 1.1% | 127.6hPa | 2.6V | 08:27:06 | 01:25:10 | 00:00:00 | |
| DL4BBY-15 | 2026-09-04 10:57:31 | 52.77182 | 9.39865 | 101° | 78km/h | 15000m | -19.8m/s | -55.7°C | 0% | 0hPa | 2.6V | 00:00:00 | 00:00:00 | 00:00:00 | |
| DO2SHX-10 | 2026-09-04 10:57:30 | 52.77186 | 9.39831 | 100° | 82km/h | 15020m | -20.1m/s | -55.5°C | 4.4% | 127.1hPa | 2.6V | 00:00:00 | 01:25:09 | 00:00:00 | |
| DC6BW-12 | 2026-09-04 10:57:29 | 52.77186 | 9.39831 | 101° | 82km/h | 15020m | -20.1m/s | -55.5°C | 1.7% | 127.1hPa | 2.6V | 08:27:00 | 00:00:00 | 00:00:00 | |
| DL1XH-15 | 2026-09-04 10:57:28 | 52.77192 | 9.39762 | 98° | 80km/h | 15060m | -20.7m/s | -55.7°C | 4.4% | 126.4hPa | 2.6V | 08:26:59 | 01:25:07 | 00:00:00 | |
| DL1XH1-15 | 2026-09-04 10:57:28 | 52.77202 | 9.39561 | 92° | 82km/h | 15187m | -20.6m/s | -55.9°C | 4.5% | 123.8hPa | 2.6V | 08:27:05 | 01:25:01 | 00:00:00 | |
| BIOWL1-15 | 2026-09-04 10:57:27 | 52.77199 | 9.39660 | 93° | 80km/h | 15123m | -21.3m/s | -56.1°C | 1.2% | 125.2hPa | 2.7V | 08:27:06 | 01:25:04 | 00:00:00 | |
| DD1CC3-15 | 2026-09-04 10:57:27 | 52.77197 | 9.39694 | 98° | 82km/h | 15102m | -20.9m/s | -56.0°C | 1.7% | 125.6hPa | 2.7V | 08:27:00 | 00:00:00 | 00:00:00 | |
| GOEST3-10 | 2026-09-04 10:57:26 | 52.77197 | 9.39694 | 97° | 80km/h | 15102m | -20.8m/s | -56.0°C | 4.5% | 125.5hPa | 2.7V | 00:00:00 | 00:00:00 | 00:00:00 | |
| DL3AQ-11 | 2026-09-04 10:57:25 | 52.77201 | 9.39627 | 93° | 78km/h | 15144m | -21.3m/s | -56.1°C | 1.7% | 124.7hPa | 2.7V | 00:00:00 | 00:00:00 | 00:00:00 | |
| DO2SHX-10 | 2026-09-04 10:57:24 | 52.77201 | 9.39627 | 94° | 80km/h | 15144m | -21.2m/s | -56.1°C | 4.6% | 124.6hPa | 2.7V | 00:00:00 | 01:25:03 | 00:00:00 | |
| DM0DOS-11 | 2026-09-04 10:57:23 | 52.77203 | 9.39493 | 90° | 82km/h | 15231m | -22.9m/s | -56°C | 4.5% | 123.1hPa | 2.7V | 08:27:07 | 01:24:59 | 00:00:00 | |
| AA1-15 | 2026-09-04 10:57:23 | 52.77202 | 9.39594 | 92° | 78km/h | 15166m | -21.8m/s | -56°C | 1.2% | 124.3hPa | 2.6V | 08:27:06 | 01:25:02 | 00:00:00 | |
| DL1XH-west | 2026-09-04 10:57:22 | 52.77202 | 9.39560 | 93° | 82km/h | 15187m | -20.6m/s | -55.9°C | 1.2% | 123.9hPa | 2.6V | 08:27:06 | 01:25:01 | 00:00:00 | |
| DO2JMG | 2026-09-04 10:57:20 | 52.77203 | 9.39493 | 90° | 82km/h | 15231m | -22.9m/s | -56°C | 1.1% | 123.1hPa | 2.7V | 08:27:57 | 01:24:59 | 00:00:00 | |
| DO3DL | 2026-09-04 10:57:19 | 52.77203 | 9.39492 | 91° | 82km/h | 15231m | -22.9m/s | -56.0°C | 1.7% | 123.1hPa | 2.6V | 00:00:00 | 00:00:00 | 00:00:00 | |
| DL1XH-15 | 2026-09-04 10:57:18 | 52.77205 | 9.39423 | 91° | 88km/h | 15275m | -22.5m/s | -56.3°C | 4.6% | 122.2hPa | 2.6V | 08:27:09 | 01:24:57 | 00:00:00 | |
| DF8AY-15 | 2026-09-04 10:57:18 | 52.77204 | 9.39423 | 92° | 75km/h | 15275m | -22.5m/s | -56.2°C | 4.6% | 122.2hPa | 2.6V | 00:00:00 | 01:24:57 | 00:00:00 | |
| DL1XH1-15 | 2026-09-04 10:57:17 | 52.77215 | 9.39174 | 94° | 80km/h | 15432m | -23.5m/s | -56.5°C | 4.7% | 119.3hPa | 2.6V | 08:27:16 | 01:24:50 | 00:00:00 | |
| BIOWL1-15 | 2026-09-04 10:57:16 | 52.77210 | 9.39280 | 96° | 88km/h | 15365m | -22.4m/s | -56.6°C | 1.2% | 120.5hPa | 2.7V | 08:27:57 | 01:24:53 | 00:00:00 | |
| DF5WG-10 | 2026-09-04 10:57:16 | 52.77206 | 9.39352 | 95° | 82km/h | 15320m | -21.8m/s | -56.4°C | 4.7% | 121.3hPa | 2.7V | 00:00:00 | 01:24:55 | 00:00:00 | |
| DO2SHX-10 | 2026-09-04 10:57:15 | 52.77208 | 9.39316 | 93° | 86km/h | 15342m | -22.3m/s | -56.4°C | 4.7% | 120.9hPa | 2.7V | 00:00:00 | 01:24:54 | 00:00:00 | |
| DL3AQ-11 | 2026-09-04 10:57:14 | 52.77211 | 9.39244 | 93° | 84km/h | 15387m | -22.5m/s | -56.6°C | 1.7% | 120.1hPa | 2.7V | 00:00:00 | 00:00:00 | 00:00:00 | |
| DL1XH-15 | 2026-09-04 10:57:13 | 52.77221 | 9.39077 | 94° | 73km/h | 15500m | -23.3m/s | -55.9°C | 4.4% | 117.9hPa | 2.7V | 08:27:19 | 01:24:47 | 00:00:00 | |
| DM0DOS-11 | 2026-09-04 10:57:12 | 52.77217 | 9.39141 | 96° | 80km/h | 15455m | -22.8m/s | -56.4°C | 4.6% | 118.8hPa | 2.6V | 08:27:17 | 01:24:49 | 00:00:00 | |
| DL1XH-west | 2026-09-04 10:57:12 | 52.77215 | 9.39174 | 94° | 80km/h | 15432m | -23.5m/s | -56.5°C | 1.2% | 119.3hPa | 2.6V | 08:27:57 | 01:24:50 | 00:00:00 | |
| DO2JMG | 2026-09-04 10:57:12 | 52.77217 | 9.39141 | 96° | 80km/h | 15455m | -22.8m/s | -56.4°C | 1.1% | 118.8hPa | 2.6V | 08:27:57 | 01:24:49 | 00:00:00 | |
| BUE01 | 2026-09-04 10:57:11 | 52.77217 | 9.39141 | 96° | 80km/h | 15455m | -22.8m/s | -56.4°C | 1.7% | 118.8hPa | 2.7V | 00:00:00 | 00:00:00 | 00:00:00 | |
| DL1NUX | 2026-09-04 10:57:09 | 52.77221 | 9.39047 | 90° | 71km/h | 15524m | -23.8m/s | -55.9°C | 4.4% | 117.5hPa | 2.7V | 08:27:20 | 01:24:46 | 00:00:00 | |
| DO2SHX-10 | 2026-09-04 10:57:09 | 52.77219 | 9.39108 | 94° | 75km/h | 15478m | -22.7m/s | -56.1°C | 4.6% | 118.3hPa | 2.7V | 00:00:00 | 01:24:48 | 00:00:00 | |
| DC6BW-12 | 2026-09-04 10:57:08 | 52.77219 | 9.39108 | 95° | 78km/h | 15478m | -22.7m/s | -56.2°C | 1.7% | 118.4hPa | 2.7V | 08:27:00 | 00:00:00 | 00:00:00 | |
| SO1NDE-10 | 2026-09-04 10:57:07 | 52.77221 | 9.39047 | 91° | 73km/h | 15524m | -23.8m/s | -55.9°C | 4.4% | 117.5hPa | 2.7V | 00:00:00 | 01:24:46 | 00:00:00 | |
| DL1XH1-15 | 2026-09-04 10:57:06 | 52.77221 | 9.38859 | 87° | 60km/h | 15691m | -23.7m/s | -55.9°C | 4.4% | 114.5hPa | 2.6V | 08:27:27 | 01:24:39 | 00:00:00 | |
| BIOWL1-15 | 2026-09-04 10:57:06 | 52.77222 | 9.39018 | 93° | 68km/h | 15548m | -23.2m/s | -55.8°C | 1% | 117.1hPa | 2.6V | 08:27:57 | 01:24:45 | 00:00:00 | |
| DO2SHX-10 | 2026-09-04 10:57:06 | 52.77222 | 9.39018 | 93° | 66km/h | 15548m | -23.1m/s | -55.8°C | 4.3% | 117.1hPa | 2.7V | 00:00:00 | 01:24:45 | 00:00:00 | |
| DD1CC3-15 | 2026-09-04 10:57:05 | 52.77222 | 9.38990 | 90° | 64km/h | 15571m | -23.7m/s | -55.7°C | 1.5% | 116.7hPa | 2.7V | 08:27:00 | 00:00:00 | 00:00:00 | |
| DO2SHX-10 | 2026-09-04 10:57:03 | 52.77222 | 9.38937 | 91° | 64km/h | 15619m | -24.2m/s | -55.7°C | 4.2% | 115.7hPa | 2.7V | 00:00:00 | 01:24:42 | 00:00:00 | |
| DF2AP-13 | 2026-09-04 10:57:02 | 52.77222 | 9.38911 | 90° | 73km/h | 15643m | -24.1m/s | -55.8°C | 4.3% | 115.4hPa | 2.7V | 00:00:00 | 01:24:41 | 00:00:00 | |
| DL1XH-15 | 2026-09-04 10:57:01 | 52.77219 | 9.38806 | 86° | 64km/h | 15739m | -23.1m/s | -55.6°C | 4.3% | 113.7hPa | 2.7V | 08:27:29 | 01:24:37 | 00:00:00 | |
| DL1XH-west | 2026-09-04 10:57:01 | 52.77222 | 9.38885 | 87° | 64km/h | 15667m | -24.2m/s | -55.9°C | 0.9% | 115hPa | 2.6V | 08:27:57 | 01:24:40 | 00:00:00 | |
| DM0DOS-11 | 2026-09-04 10:57:01 | 52.77221 | 9.38859 | 87° | 60km/h | 15691m | -23.7m/s | -55.9°C | 4.4% | 114.5hPa | 2.6V | 08:27:27 | 01:24:39 | 00:00:00 | |
| DO2SHX-10 | 2026-09-04 10:57:00 | 52.77221 | 9.38859 | 88° | 64km/h | 15692m | -23.6m/s | -55.8°C | 4.4% | 114.4hPa | 2.6V | 00:00:00 | 01:24:39 | 00:00:00 | |
| DL1NUX | 2026-09-04 10:56:59 | 52.77219 | 9.38779 | 89° | 66km/h | 15762m | -23.3m/s | -55.3°C | 4.2% | 113.2hPa | 2.6V | 08:27:30 | 01:24:36 | 00:00:00 | |
| DO2JMG | 2026-09-04 10:56:59 | 52.77220 | 9.38833 | 87° | 66km/h | 15715m | -23.4m/s | -55.7°C | 0.9% | 114.1hPa | 2.7V | 08:27:57 | 01:24:38 | 00:00:00 | |
| BIOWL1-15 | 2026-09-04 10:56:56 | 52.77216 | 9.38665 | 90° | 73km/h | 15854m | -23.6m/s | -55.3°C | 0.8% | 111.6hPa | 2.7V | 08:27:57 | 01:24:32 | 00:00:00 | |
| DM0DOS-11 | 2026-09-04 10:56:55 | 52.77216 | 9.38544 | 90° | 73km/h | 15949m | -23.4m/s | -55.8°C | 4.2% | 110hPa | 2.6V | 08:27:38 | 01:24:28 | 00:00:00 | |
| DB0DAN | 2026-09-04 10:56:55 | 52.77217 | 9.38723 | 88° | 68km/h | 15808m | -23.4m/s | -55.3°C | 1.4% | 112.46hPa | 2.6V | 00:00:00 | 00:00:00 | 00:00:00 | |
| DL1XH-west | 2026-09-04 10:56:50 | 52.77216 | 9.38575 | 88° | 71km/h | 15925m | -23.9m/s | -55.6°C | 0.7% | 110.4hPa | 2.6V | 08:27:57 | 01:24:29 | 00:00:00 | |
| DO2JMG | 2026-09-04 10:56:48 | 52.77216 | 9.38513 | 90° | 75km/h | 15973m | -23.8m/s | -55.8°C | 0.7% | 109.6hPa | 2.7V | 08:27:57 | 01:24:27 | 00:00:00 | |
| BIOWL1-15 | 2026-09-04 10:56:47 | 52.77216 | 9.38355 | 92° | 80km/h | 16095m | -24.1m/s | -55.8°C | 0.7% | 107.6hPa | 2.6V | 08:27:57 | 01:24:22 | 00:00:00 | |
| EDDB2-11 | 2026-09-04 10:56:46 | 52.77216 | 9.38419 | 89° | 77km/h | 16046m | -25.4m/s | -56.2°C | 1.4% | 108.4hPa | 2.7V | 00:00:00 | 00:00:00 | 00:00:00 | |
| DL3AQ-11 | 2026-09-04 10:56:45 | 52.77216 | 9.38387 | 90° | 75km/h | 16071m | -25.2m/s | -56.2°C | 1.5% | 108.0hPa | 2.7V | 00:00:00 | 00:00:00 | 00:00:00 | |
| DL1XH1-15 | 2026-09-04 10:56:44 | 52.77220 | 9.38131 | 94° | 75km/h | 16246m | -20.3m/s | -55.5°C | 4.2% | 104.8hPa | 2.7V | 08:27:51 | 01:24:15 | 00:00:00 | |
| DL1XH-15 | 2026-09-04 10:56:44 | 52.77222 | 9.38100 | 95° | 75km/h | 16267m | -21.7m/s | -55.5°C | 4.2% | 104.5hPa | 2.7V | 08:27:52 | 01:24:14 | 00:00:00 | |
| D01LWL | 2026-09-04 10:56:43 | 52.77216 | 9.38322 | 89° | 78km/h | 16119m | -22.8m/s | -55.8°C | 1.4% | 107.1hPa | 2.7V | 00:00:00 | 00:00:00 | 00:00:00 | |
| DD8BA-10 | 2026-09-04 10:56:42 | 52.77216 | 9.38322 | 90° | 77km/h | 16119m | -22.8m/s | -55.7°C | 4.3% | 107.0hPa | 2.7V | 00:00:00 | 00:00:00 | 00:00:00 | |
| DB0DAN | 2026-09-04 10:56:40 | 52.77217 | 9.38258 | 91° | 73km/h | 16164m | -21.3m/s | -55.7°C | 1.4% | 106.29hPa | 2.7V | 00:00:00 | 00:00:00 | 00:00:00 | |
| AA1-15 | 2026-09-04 10:56:40 | 52.77220 | 9.38131 | 95° | 75km/h | 16246m | -20.3m/s | -55.5°C | 0.7% | 104.8hPa | 2.7V | 08:27:57 | 01:24:15 | 00:00:00 | |
| DL1NUX | 2026-09-04 10:56:39 | 52.77222 | 9.38100 | 95° | 75km/h | 16267m | -21.7m/s | -55.5°C | 4.2% | 104.5hPa | 2.7V | 08:27:52 | 01:24:14 | 00:00:00 | |
| DO2JMG | 2026-09-04 10:56:39 | 52.77219 | 9.38162 | 92° | 77km/h | 16225m | -21m/s | -55.5°C | 0.8% | 105.2hPa | 2.6V | 08:27:57 | 01:24:16 | 00:00:00 | |
| BIOWL1-15 | 2026-09-04 10:56:32 | 52.77227 | 9.38010 | 95° | 71km/h | 16332m | -20.7m/s | -55.8°C | 0.8% | 103.4hPa | 2.7V | 08:27:57 | 01:24:11 | 00:00:00 | |
| HSKMA3-T | 2026-09-04 10:56:32 | 52.76752 | 9.01447 | 103° | 151km/h | 13723m | 3.7m/s | -60.1°C | 23.7% | 155.3hPa | 2.7V | 18:12:15 | 01:00:55 | 00:00:00 | |
| DD8BA-10 | 2026-09-04 10:56:32 | 52.77227 | 9.38010 | 96° | 62km/h | 16332m | -20.6m/s | -55.8°C | 4.3% | 103.4hPa | 2.6V | 00:00:00 | 00:00:00 | 00:00:00 | |
| DL1NUX | 2026-09-04 10:56:31 | 52.77241 | 9.37825 | 99° | 58km/h | 16486m | -21.6m/s | -55.5°C | 4.2% | 101hPa | 2.6V | 08:28:02 | 01:24:04 | 00:00:00 | |
| DL1XH-15 | 2026-09-04 10:56:30 | 52.77238 | 9.37874 | 95° | 62km/h | 16442m | -23m/s | -55.7°C | 4.3% | 101.8hPa | 2.7V | 08:28:00 | 01:24:06 | 00:00:00 | |
| AA1-15 | 2026-09-04 10:56:30 | 52.77233 | 9.37925 | 98° | 68km/h | 16396m | -22.3m/s | -55.9°C | 0.8% | 102.4hPa | 2.6V | 08:28:48 | 01:24:08 | 00:00:00 | |
| DF8AY | 2026-09-04 10:56:28 | 52.77241 | 9.37825 | 99° | 58km/h | 16486m | -21.6m/s | -55.5°C | 0.6% | 101hPa | 2.6V | 08:28:48 | 01:24:04 | 00:00:00 | |
| DO2JMG | 2026-09-04 10:56:26 | 52.77239 | 9.37849 | 96° | 58km/h | 16464m | -21.6m/s | -55.6°C | 0.7% | 101.3hPa | 2.6V | 08:28:48 | 01:24:05 | 00:00:00 | |
| DO2SHX-10 | 2026-09-04 10:56:26 | 52.77239 | 9.37849 | 96° | 58km/h | 16464m | -21.6m/s | -55.6°C | 4.2% | 101.3hPa | 2.7V | 00:00:00 | 01:24:05 | 00:00:00 | |
| SMARD9-15 | 2026-09-04 10:56:25 | 52.77241 | 9.37825 | 99° | 57km/h | 16486m | -21.6m/s | -55.5°C | 1.3% | 101.0hPa | 2.7V | 00:00:00 | 00:00:00 | 00:00:00 | |
| DO3DL | 2026-09-04 10:56:24 | 52.77243 | 9.37801 | 100° | 57km/h | 16508m | -21.5m/s | -55.2°C | 1.3% | 100.6hPa | 2.7V | 08:28:00 | 00:00:00 | 00:00:00 | |
| DO2SHX-10 | 2026-09-04 10:56:23 | 52.77245 | 9.37779 | 98° | 53km/h | 16530m | -21.7m/s | -55.0°C | 4.0% | 100.3hPa | 2.7V | 08:28:00 | 01:24:02 | 00:00:00 | |
| DD8BA-10 | 2026-09-04 10:56:22 | 52.77246 | 9.37757 | 95° | 53km/h | 16552m | -21.7m/s | -54.9°C | 4.0% | 99.9hPa | 2.7V | 00:00:00 | 00:00:00 | 00:00:00 | |
| GOEST3-10 | 2026-09-04 10:56:21 | 52.77248 | 9.37736 | 98° | 53km/h | 16574m | -21.3m/s | -55.0°C | 4.0% | 99.6hPa | 2.7V | 00:00:00 | 01:24:00 | 00:00:00 | |
| DO2SHX-10 | 2026-09-04 10:56:20 | 52.77249 | 9.37714 | 95° | 53km/h | 16595m | -21.3m/s | -55.1°C | 4.1% | 99.3hPa | 2.7V | 00:00:00 | 01:23:59 | 00:00:00 | |
| DL1XH-15 | 2026-09-04 10:56:19 | 52.77253 | 9.37647 | 91° | 55km/h | 16662m | -22.2m/s | -54.9°C | 3.9% | 98.3hPa | 2.7V | 08:28:10 | 01:23:56 | 00:00:00 | |
| DL1XH-west | 2026-09-04 10:56:18 | 52.77252 | 9.37670 | 95° | 55km/h | 16639m | -22.7m/s | -54.9°C | 0.5% | 98.7hPa | 2.6V | 08:28:48 | 01:23:57 | 00:00:00 | |
| DF8AY-15 | 2026-09-04 10:56:18 | 52.77251 | 9.37669 | 96° | 64km/h | 16640m | -22.7m/s | -54.8°C | 3.9% | 98.7hPa | 2.6V | 00:00:00 | 01:23:57 | 00:00:00 | |
| DL1NUX | 2026-09-04 10:56:17 | 52.77251 | 9.37533 | 83° | 60km/h | 16776m | -23.8m/s | -54.6°C | 3.9% | 96.5hPa | 2.6V | 08:28:15 | 01:23:51 | 00:00:00 | |
| DF8AY | 2026-09-04 10:56:16 | 52.77253 | 9.37625 | 91° | 51km/h | 16684m | -22.6m/s | -54.9°C | 0.5% | 97.9hPa | 2.7V | 08:28:48 | 01:23:55 | 00:00:00 | |
| DO2JMG | 2026-09-04 10:56:15 | 52.77253 | 9.37604 | 89° | 51km/h | 16707m | -23.3m/s | -54.9°C | 0.6% | 97.6hPa | 2.7V | 08:28:48 | 01:23:54 | 00:00:00 | |
| EDDB2-11 | 2026-09-04 10:56:15 | 52.77253 | 9.37581 | 87° | 57km/h | 16730m | -23.5m/s | -54.9°C | 1.2% | 97.3hPa | 2.6V | 00:00:00 | 00:00:00 | 00:00:00 | |
| DO2SHX-10 | 2026-09-04 10:56:14 | 52.77253 | 9.37581 | 88° | 58km/h | 16730m | -23.5m/s | -54.9°C | 4.0% | 97.2hPa | 2.6V | 00:00:00 | 01:23:53 | 00:00:00 | |
| DD8BA-10 | 2026-09-04 10:56:12 | 52.77251 | 9.37533 | 84° | 66km/h | 16776m | -23.8m/s | -54.6°C | 3.9% | 96.5hPa | 2.7V | 00:00:00 | 00:00:00 | 00:00:00 | |
| DB0DAN | 2026-09-04 10:56:10 | 52.77248 | 9.37482 | 80° | 60km/h | 16823m | -23.8m/s | -54.7°C | 1.2% | 95.85hPa | 2.7V | 00:00:00 | 00:00:00 | 00:00:00 | |
| BIOWL1-15 | 2026-09-04 10:56:10 | 52.77240 | 9.37401 | 80° | 69km/h | 16895m | -25m/s | -54.4°C | 0.4% | 94.8hPa | 2.6V | 08:28:48 | 01:23:46 | 00:00:00 | |
| BIOWL9-15 | 2026-09-04 10:56:10 | 52.77245 | 9.37456 | 79° | 64km/h | 16847m | -24.1m/s | -54.4°C | 1.1% | 95.5hPa | 2.6V | 00:00:00 | 00:00:00 | 00:00:00 | |
| DL1XH-15 | 2026-09-04 10:56:09 | 52.77240 | 9.37401 | 80° | 68km/h | 16895m | -24.9m/s | -54.4°C | 3.8% | 94.8hPa | 2.6V | 08:28:20 | 01:23:46 | 00:00:00 | |
| DL1XH-west | 2026-09-04 10:56:08 | 52.77243 | 9.37428 | 82° | 66km/h | 16871m | -24.8m/s | -54.3°C | 0.3% | 95.2hPa | 2.6V | 08:28:48 | 01:23:47 | 00:00:00 | |
| DO2SHX-10 | 2026-09-04 10:56:08 | 52.77243 | 9.37428 | 82° | 68km/h | 16871m | -24.8m/s | -54.3°C | 3.7% | 95.1hPa | 2.6V | 00:00:00 | 01:23:47 | 00:00:00 | |
| DL1NUX | 2026-09-04 10:56:07 | 52.77230 | 9.37258 | 85° | 69km/h | 17012m | -23.9m/s | -54.9°C | 4% | 93hPa | 2.6V | 08:28:25 | 01:23:41 | 00:00:00 | |
| DF8AY | 2026-09-04 10:56:06 | 52.77231 | 9.37287 | 85° | 71km/h | 16989m | -22.6m/s | -54.8°C | 0.4% | 93.3hPa | 2.7V | 08:28:48 | 01:23:42 | 00:00:00 | |
| DL3AQ-11 | 2026-09-04 10:56:05 | 52.77231 | 9.37287 | 85° | 69km/h | 16990m | -22.6m/s | -54.8°C | 1.2% | 93.3hPa | 2.6V | 00:00:00 | 00:00:00 | 00:00:00 | |
| DO2JMG | 2026-09-04 10:56:05 | 52.77233 | 9.37316 | 82° | 69km/h | 16966m | -23.9m/s | -54.7°C | 0.4% | 93.7hPa | 2.7V | 08:28:48 | 01:23:43 | 00:00:00 | |
| DM0DOS-11 | 2026-09-04 10:56:04 | 52.77235 | 9.37085 | 99° | 66km/h | 17156m | -24.1m/s | -54.8°C | 4% | 90.9hPa | 2.6V | 08:28:31 | 01:23:35 | 00:00:00 | |
| BIOWL1-15 | 2026-09-04 10:55:59 | 52.77230 | 9.37169 | 92° | 71km/h | 17083m | -23.7m/s | -54.9°C | 0.5% | 92hPa | 2.7V | 08:28:48 | 01:23:38 | 00:00:00 | |
| DL1XH-west | 2026-09-04 10:55:58 | 52.77231 | 9.37140 | 95° | 71km/h | 17107m | -24.2m/s | -54.9°C | 0.5% | 91.6hPa | 2.7V | 08:28:48 | 01:23:37 | 00:00:00 | |
| AA1-15 | 2026-09-04 10:55:58 | 52.77233 | 9.37112 | 96° | 64km/h | 17132m | -24.6m/s | -54.8°C | 0.5% | 91.3hPa | 2.6V | 08:28:48 | 01:23:36 | 00:00:00 | |
| HTAHTA | 2026-09-04 10:55:56 | 52.77235 | 9.37085 | 99° | 66km/h | 17156m | -24.1m/s | -54.8°C | 1.2% | 90.9hPa | 2.7V | 00:00:00 | 00:00:00 | 00:00:00 | |
| DB0DAN | 2026-09-04 10:55:55 | 52.77237 | 9.37059 | 100° | 58km/h | 17180m | -24.6m/s | -54.8°C | 1.2% | 90.65hPa | 2.7V | 00:00:00 | 00:00:00 | 00:00:00 | |
| DF8AY | 2026-09-04 10:55:54 | 52.77240 | 9.37034 | 98° | 60km/h | 17205m | -25.1m/s | -54.8°C | 0.4% | 90.3hPa | 2.7V | 08:28:48 | 01:23:33 | 00:00:00 | |
| DO2JMG | 2026-09-04 10:55:53 | 52.77242 | 9.37009 | 102° | 58km/h | 17230m | -24.6m/s | -54.8°C | 0.5% | 89.9hPa | 2.6V | 08:28:48 | 01:23:32 | 00:00:00 | |
| DL1XH-west | 2026-09-04 10:55:48 | 52.77249 | 9.36899 | 91° | 51km/h | 17354m | -25.9m/s | -54.6°C | 0.5% | 88.3hPa | 2.6V | 08:28:48 | 01:23:27 | 00:00:00 | |
| AA1-15 | 2026-09-04 10:55:47 | 52.77249 | 9.36878 | 86° | 51km/h | 17380m | -26m/s | -54.6°C | 0.5% | 87.9hPa | 2.6V | 08:28:48 | 01:23:26 | 00:00:00 | |
| DF8AY | 2026-09-04 10:55:44 | 52.77245 | 9.36815 | 82° | 51km/h | 17457m | -25.1m/s | -54.5°C | 0.5% | 86.9hPa | 2.7V | 08:28:48 | 01:23:23 | 00:00:00 | |
| DO2JMG | 2026-09-04 10:55:42 | 52.77239 | 9.36772 | 79° | 53km/h | 17507m | -25.2m/s | -54.5°C | 0.5% | 86.2hPa | 2.6V | 08:28:48 | 01:23:21 | 00:00:00 | |
| DD8BA-10 | 2026-09-04 10:55:42 | 52.77239 | 9.36772 | 79° | 55km/h | 17507m | -25.1m/s | -54.4°C | 4.0% | 86.1hPa | 2.7V | 00:00:00 | 00:00:00 | 00:00:00 | |
| DB0DAN | 2026-09-04 10:55:40 | 52.77233 | 9.36727 | 80° | 55km/h | 17556m | -24.4m/s | -54.3°C | 1.1% | 85.51hPa | 2.7V | 00:00:00 | 00:00:00 | 00:00:00 | |
| DL1XH-west | 2026-09-04 10:55:37 | 52.77225 | 9.36660 | 77° | 53km/h | 17631m | -24.6m/s | -54.2°C | 0.4% | 84.5hPa | 2.6V | 08:29:39 | 01:23:16 | 00:00:00 | |
| BIOWL1-15 | 2026-09-04 10:55:36 | 52.77222 | 9.36638 | 79° | 57km/h | 17656m | -24.4m/s | -54.1°C | 0.4% | 84.2hPa | 2.6V | 08:29:39 | 01:23:15 | 00:00:00 | |
| DF8AY | 2026-09-04 10:55:33 | 52.77214 | 9.36572 | 78° | 51km/h | 17731m | -25.8m/s | -53.5°C | 0.3% | 83.2hPa | 2.7V | 08:29:39 | 01:23:12 | 00:00:00 | |
| DO2JMG | 2026-09-04 10:55:31 | 52.77210 | 9.36532 | 79° | 49km/h | 17783m | -25.1m/s | -52.9°C | 0.3% | 82.5hPa | 2.6V | 08:29:39 | 01:23:10 | 00:00:00 | |
| GOEST3-10 | 2026-09-04 10:55:31 | 52.77210 | 9.36532 | 79° | 44km/h | 17783m | -25.0m/s | -52.9°C | 3.6% | 82.4hPa | 2.6V | 08:28:00 | 01:23:10 | 00:00:00 | |
| SONCRA | 2026-09-04 10:55:30 | 52.77207 | 9.36513 | 74° | 44km/h | 17807m | -23.7m/s | -53.0°C | 1.0% | 82.2hPa | 2.7V | 00:00:00 | 00:00:00 | 00:00:00 | |
| DM0DOS-11 | 2026-09-04 10:55:29 | 52.77200 | 9.36460 | 77° | 40km/h | 17873m | -22.3m/s | -53.1°C | 3.6% | 81.3hPa | 2.7V | 08:29:00 | 01:23:06 | 00:00:00 | |
| AA1-15 | 2026-09-04 10:55:29 | 52.77200 | 9.36460 | 78° | 40km/h | 17873m | -22.3m/s | -53.1°C | 0.3% | 81.3hPa | 2.7V | 08:29:39 | 01:23:06 | 00:00:00 | |
| DL1XH-west | 2026-09-04 10:55:26 | 52.77198 | 9.36443 | 82° | 44km/h | 17896m | -23.6m/s | -53°C | 0.3% | 81hPa | 2.7V | 08:29:39 | 01:23:05 | 00:00:00 | |
| DB0DAN | 2026-09-04 10:55:25 | 52.77197 | 9.36425 | 86° | 42km/h | 17920m | -25.7m/s | -53°C | 1% | 80.79hPa | 2.6V | 00:00:00 | 00:00:00 | 00:00:00 | |
| DO2JMG | 2026-09-04 10:55:21 | 52.77194 | 9.36354 | 92° | 44km/h | 18021m | -24.6m/s | -53.1°C | 0.2% | 79.5hPa | 2.7V | 08:29:39 | 01:23:00 | 00:00:00 | |
| GOEST3-10 | 2026-09-04 10:55:21 | 52.77194 | 9.36354 | 93° | 40km/h | 18021m | -24.6m/s | -53.0°C | 3.5% | 79.5hPa | 2.7V | 00:00:00 | 01:23:00 | 00:00:00 | |
| DL4XJ-10 | 2026-09-04 10:55:19 | 52.77194 | 9.36320 | 95° | 31km/h | 18070m | -24.3m/s | -53.2°C | 0% | 0hPa | 2.7V | 00:00:00 | 00:00:00 | 00:00:00 | |
| DM0DOS-11 | 2026-09-04 10:55:17 | 52.77195 | 9.36288 | 91° | 38km/h | 18122m | -25.4m/s | -52.7°C | 3.5% | 78.3hPa | 2.7V | 08:29:10 | 01:22:56 | 00:00:00 | |
| DL1XH-west | 2026-09-04 10:55:16 | 52.77196 | 9.36273 | 92° | 33km/h | 18147m | -25.1m/s | -52.4°C | 0.1% | 78hPa | 2.6V | 08:29:39 | 01:22:55 | 00:00:00 | |
| DF5WG-10 | 2026-09-04 10:55:16 | 52.77195 | 9.36273 | 93° | 27km/h | 18147m | -25.1m/s | -52.3°C | 3.4% | 77.9hPa | 2.7V | 00:00:00 | 01:22:55 | 00:00:00 | |
| DL1NUX | 2026-09-04 10:55:14 | 52.77187 | 9.36195 | 69° | 27km/h | 18325m | -25.7m/s | -52.1°C | 3.2% | 75.9hPa | 2.7V | 08:30:00 | 01:22:48 | 00:00:00 | |
| DL3AQ-11 | 2026-09-04 10:55:14 | 52.77195 | 9.36236 | 80° | 24km/h | 18221m | -25.5m/s | -51.5°C | 0.8% | 77.1hPa | 2.8V | 00:00:00 | 00:00:00 | 00:00:00 | |
| HSKMA3-T | 2026-09-04 10:55:13 | 52.76876 | 9.00491 | 100° | 162km/h | 13660m | 2.5m/s | -62.5°C | 31.6% | 156.9hPa | 2.8V | 18:12:15 | 01:00:40 | 00:00:00 | |
| DO2JMG | 2026-09-04 10:55:10 | 52.77189 | 9.36205 | 63° | 24km/h | 18299m | -26.4m/s | -51.9°C | 0% | 76.2hPa | 2.6V | 08:29:39 | 01:22:49 | 00:00:00 | |
| DB0DAN | 2026-09-04 10:55:10 | 52.77189 | 9.36205 | 63° | 24km/h | 18299m | -26.4m/s | -51.9°C | 0.9% | 76.21hPa | 2.6V | 00:00:00 | 00:00:00 | 00:00:00 | |
| D01LWL | 2026-09-04 10:55:10 | 52.77187 | 9.36195 | 69° | 27km/h | 18325m | -25.7m/s | -52.1°C | 0.9% | 75.9hPa | 2.7V | 00:00:00 | 00:00:00 | 00:00:00 | |
| DO9LL-15 | 2026-09-04 10:55:09 | 52.77187 | 9.36195 | 70° | 35km/h | 18325m | -25.7m/s | -52.1°C | 3.2% | 75.8hPa | 2.7V | 00:00:00 | 01:22:48 | 00:00:00 | |
| DL1XH1-15 | 2026-09-04 10:55:08 | 52.77181 | 9.36174 | 57° | 26km/h | 18373m | -24m/s | -52.5°C | 3.3% | 75.2hPa | 2.7V | 08:29:20 | 01:22:46 | 00:00:00 | |
| AA1-15 | 2026-09-04 10:55:06 | 52.77177 | 9.36165 | 53° | 29km/h | 18398m | -25.4m/s | -52.7°C | 0.1% | 75hPa | 2.6V | 08:29:39 | 01:22:45 | 00:00:00 | |
| DL1XH-west | 2026-09-04 10:55:05 | 52.77172 | 9.36155 | 50° | 33km/h | 18424m | -27m/s | -52.9°C | 0.1% | 74.7hPa | 2.6V | 08:29:39 | 01:22:44 | 00:00:00 | |
| DO2SHX-10 | 2026-09-04 10:55:05 | 52.77172 | 9.36155 | 50° | 33km/h | 18425m | -27.0m/s | -52.8°C | 3.4% | 74.6hPa | 2.6V | 00:00:00 | 01:22:44 | 00:00:00 | |
| SONDE2-11 | 2026-09-04 10:55:04 | 52.77167 | 9.36144 | 51° | 33km/h | 18451m | -27.1m/s | -53.0°C | 0.9% | 74.4hPa | 2.6V | 00:00:00 | 00:00:00 | 00:00:00 | |
| DL1NUX | 2026-09-04 10:55:03 | 52.77141 | 9.36080 | 60° | 38km/h | 18584m | -26.2m/s | -53.8°C | 3.6% | 72.8hPa | 2.6V | 08:30:00 | 01:22:38 | 00:00:00 | |
| DL4BBY-15 | 2026-09-04 10:55:02 | 52.77151 | 9.36108 | 54° | 35km/h | 18531m | -27.0m/s | -53.6°C | 0% | 0hPa | 2.7V | 00:00:00 | 00:00:00 | 00:00:00 | |
| DL1XH-15 | 2026-09-04 10:55:01 | 52.77132 | 9.36050 | 67° | 40km/h | 18635m | -26.1m/s | -54.1°C | 3.7% | 72.3hPa | 2.7V | 08:29:30 | 01:22:36 | 00:00:00 | |
| DO2JMG | 2026-09-04 10:55:00 | 52.77141 | 9.36080 | 60° | 38km/h | 18585m | -26.2m/s | -53.8°C | 0.3% | 72.8hPa | 2.6V | 08:29:39 | 01:22:38 | 00:00:00 | |
| DF8AY | 2026-09-04 10:54:58 | 52.77136 | 9.36065 | 67° | 42km/h | 18610m | -25.2m/s | -54°C | 0.2% | 72.5hPa | 2.6V | 08:29:39 | 01:22:37 | 00:00:00 | |
| AA1-15 | 2026-09-04 10:54:56 | 52.77128 | 9.36034 | 67° | 42km/h | 18662m | -27m/s | -54.2°C | 0.3% | 72hPa | 2.7V | 08:29:39 | 01:22:35 | 00:00:00 | |
| BIOWL1-15 | 2026-09-04 10:54:56 | 52.77122 | 9.36001 | 75° | 40km/h | 18715m | -26.7m/s | -54.1°C | 0.3% | 71.4hPa | 2.6V | 08:29:39 | 01:22:33 | 00:00:00 | |
| DB0DAN | 2026-09-04 10:54:55 | 52.77125 | 9.36018 | 77° | 40km/h | 18689m | -26.6m/s | -54.2°C | 1% | 71.74hPa | 2.7V | 00:00:00 | 00:00:00 | 00:00:00 | |
| DL1XH-west | 2026-09-04 10:54:55 | 52.77125 | 9.36018 | 77° | 42km/h | 18689m | -26.6m/s | -54.2°C | 0.3% | 71.7hPa | 2.7V | 08:29:39 | 01:22:34 | 00:00:00 | |
| DO2JMG | 2026-09-04 10:54:49 | 52.77115 | 9.35926 | 82° | 31km/h | 18834m | -22.2m/s | -54.1°C | 0.4% | 70hPa | 2.7V | 08:29:39 | 01:22:28 | 00:00:00 | |
| DF8AY | 2026-09-04 10:54:48 | 52.77115 | 9.35913 | 86° | 33km/h | 18857m | -23.2m/s | -54.2°C | 0.4% | 69.8hPa | 2.6V | 08:29:39 | 01:22:27 | 00:00:00 | |
| DM0DOS-11 | 2026-09-04 10:54:48 | 52.77114 | 9.35900 | 84° | 33km/h | 18881m | -24m/s | -54.1°C | 3.8% | 69.5hPa | 2.6V | 08:30:00 | 01:22:26 | 00:00:00 | |
| DL1XH-west | 2026-09-04 10:54:45 | 52.77112 | 9.35876 | 85° | 29km/h | 18927m | -22.7m/s | -54°C | 0.4% | 69hPa | 2.7V | 18:12:15 | 01:22:24 | 00:00:00 | |
| BIOWL1-15 | 2026-09-04 10:54:44 | 52.77111 | 9.35864 | 76° | 29km/h | 18950m | -22.7m/s | -53.8°C | 0.3% | 68.7hPa | 2.7V | 18:12:15 | 01:22:23 | 00:00:00 | |
| DO2SHX-10 | 2026-09-04 10:54:43 | 52.77109 | 9.35852 | 80° | 31km/h | 18973m | -23.3m/s | -53.5°C | 3.6% | 68.5hPa | 2.6V | 00:00:00 | 01:22:22 | 00:00:00 | |
| DL1NUX | 2026-09-04 10:54:42 | 52.77106 | 9.35827 | 71° | 31km/h | 19020m | -25.2m/s | -53.5°C | 3.6% | 68hPa | 2.6V | 08:30:00 | 01:22:20 | 00:00:00 | |
| DD8BA-10 | 2026-09-04 10:54:42 | 52.77108 | 9.35839 | 81° | 31km/h | 18996m | -23.9m/s | -53.4°C | 3.6% | 68.2hPa | 2.6V | 00:00:00 | 00:00:00 | 00:00:00 | |
| DB0DAN | 2026-09-04 10:54:40 | 52.77104 | 9.35814 | 75° | 29km/h | 19045m | -23.9m/s | -53.6°C | 1% | 67.73hPa | 2.6V | 00:00:00 | 00:00:00 | 00:00:00 | |
| DO2SHX-10 | 2026-09-04 10:54:40 | 52.77103 | 9.35814 | 76° | 31km/h | 19045m | -23.8m/s | -53.5°C | 3.5% | 67.7hPa | 2.6V | 00:00:00 | 01:22:19 | 00:00:00 | |
| DO9LL-15 | 2026-09-04 10:54:39 | 52.77101 | 9.35802 | 73° | 31km/h | 19069m | -23.9m/s | -53.6°C | 3.5% | 67.5hPa | 2.6V | 00:00:00 | 01:22:18 | 00:00:00 | |
| DM0DOS-11 | 2026-09-04 10:54:38 | 52.77097 | 9.35777 | 76° | 33km/h | 19119m | -25.5m/s | -54°C | 3.6% | 67hPa | 2.6V | 08:30:00 | 01:22:16 | 00:00:00 | |
| DO2JMG | 2026-09-04 10:54:38 | 52.77099 | 9.35790 | 71° | 31km/h | 19093m | -26.1m/s | -53.8°C | 0.2% | 67.3hPa | 2.7V | 18:12:15 | 01:22:17 | 00:00:00 | |
| DF8AY | 2026-09-04 10:54:37 | 52.77097 | 9.35777 | 76° | 33km/h | 19119m | -25.5m/s | -54°C | 0.2% | 67hPa | 2.6V | 18:12:15 | 01:22:16 | 00:00:00 | |
| DL1XH-west | 2026-09-04 10:54:34 | 52.77089 | 9.35738 | 67° | 31km/h | 19191m | -23.9m/s | -54.2°C | 0.3% | 66.2hPa | 2.7V | 18:12:15 | 01:22:13 | 00:00:00 | |
| BIOWL1-15 | 2026-09-04 10:54:33 | 52.77086 | 9.35726 | 69° | 29km/h | 19215m | -22.6m/s | -53.7°C | 0.2% | 65.9hPa | 2.6V | 18:12:15 | 01:22:12 | 00:00:00 | |
| DO2JMG | 2026-09-04 10:54:28 | 52.77073 | 9.35669 | 66° | 26km/h | 19323m | -22.3m/s | -53.8°C | 0.2% | 64.8hPa | 2.6V | 18:12:15 | 01:22:07 | 00:00:00 | |
| DL1XH-15 | 2026-09-04 10:54:28 | 52.77071 | 9.35659 | 73° | 26km/h | 19345m | -22.9m/s | -54°C | 3.6% | 64.6hPa | 2.7V | 08:30:00 | 01:22:06 | 00:00:00 | |
| DF8AY | 2026-09-04 10:54:27 | 52.77069 | 9.35649 | 77° | 27km/h | 19368m | -22.2m/s | -54.1°C | 0.3% | 64.3hPa | 2.7V | 18:12:15 | 01:22:05 | 00:00:00 | |
| DL1XH-west | 2026-09-04 10:54:25 | 52.77066 | 9.35630 | 75° | 26km/h | 19412m | -23m/s | -54.4°C | 0.4% | 63.9hPa | 2.6V | 18:12:15 | 01:22:03 | 00:00:00 | |
| AA1-15 | 2026-09-04 10:54:23 | 52.77064 | 9.35620 | 79° | 20km/h | 19435m | -23.5m/s | -54.5°C | 0.3% | 63.7hPa | 2.6V | 18:12:15 | 01:22:02 | 00:00:00 | |
| DO2JMG | 2026-09-04 10:54:19 | 52.77056 | 9.35579 | 61° | 22km/h | 19555m | -27.4m/s | -55.1°C | 0.5% | 62.5hPa | 2.6V | 18:12:15 | 01:21:57 | 00:00:00 | |
| DL1XH1-15 | 2026-09-04 10:54:19 | 52.77043 | 9.35542 | 50° | 29km/h | 19660m | -24.4m/s | -55.2°C | 4% | 61.5hPa | 2.7V | 08:30:00 | 01:21:53 | 00:00:00 | |
| DL1NUX | 2026-09-04 10:54:17 | 52.77054 | 9.35571 | 69° | 24km/h | 19582m | -27.5m/s | -55.2°C | 3.9% | 62.3hPa | 2.6V | 08:30:00 | 01:21:56 | 00:00:00 | |
| DF8AY | 2026-09-04 10:54:16 | 52.77048 | 9.35552 | 50° | 27km/h | 19635m | -26.3m/s | -55.1°C | 0.4% | 61.7hPa | 2.7V | 18:12:15 | 01:21:54 | 00:00:00 | |
| DL1XH-west | 2026-09-04 10:54:14 | 52.77043 | 9.35543 | 51° | 29km/h | 19660m | -24.4m/s | -55.2°C | 0.5% | 61.5hPa | 2.7V | 18:12:15 | 01:21:53 | 00:00:00 | |
| AA1-15 | 2026-09-04 10:54:12 | 52.77034 | 9.35522 | 56° | 33km/h | 19704m | -19.3m/s | -55.2°C | 0.5% | 61hPa | 2.6V | 18:12:15 | 01:21:51 | 00:00:00 | |
| DD8BA-10 | 2026-09-04 10:54:12 | 52.77034 | 9.35522 | 56° | 38km/h | 19704m | -19.3m/s | -55.2°C | 4.0% | 60.9hPa | 2.7V | 00:00:00 | 00:00:00 | 00:00:00 | |
| DB0DAN | 2026-09-04 10:54:10 | 52.77024 | 9.35497 | 58° | 37km/h | 19739m | -16.6m/s | -54.8°C | 1% | 60.58hPa | 2.7V | 00:00:00 | 00:00:00 | 00:00:00 | |
| DO2SHX-10 | 2026-09-04 10:54:10 | 52.77023 | 9.35497 | 58° | 38km/h | 19739m | -16.5m/s | -54.8°C | 3.8% | 60.5hPa | 2.7V | 00:00:00 | 01:21:49 | 00:00:00 | |
| DO9LL-15 | 2026-09-04 10:54:09 | 52.77019 | 9.35483 | 66° | 44km/h | 19756m | -16.4m/s | -54.8°C | 3.9% | 60.4hPa | 2.7V | 00:00:00 | 01:21:48 | 00:00:00 | |
| DL4XJ-10 | 2026-09-04 10:54:08 | 52.77015 | 9.35468 | 64° | 42km/h | 19773m | -17.2m/s | -55.0°C | 0% | 0hPa | 2.7V | 00:00:00 | 00:00:00 | 00:00:00 | |
| DL1XH1-15 | 2026-09-04 10:54:07 | 52.77004 | 9.35407 | 85° | 38km/h | 19831m | -10.9m/s | -54.8°C | 3.7% | 59.6hPa | 2.7V | 08:30:00 | 01:21:43 | 00:00:00 | |
| DO2JMG | 2026-09-04 10:54:07 | 52.77011 | 9.35454 | 68° | 38km/h | 19789m | -16m/s | -54.8°C | 0.5% | 60.1hPa | 2.6V | 18:12:15 | 01:21:46 | 00:00:00 | |
| DF8AY | 2026-09-04 10:54:04 | 52.77004 | 9.35407 | 85° | 38km/h | 19832m | -10.9m/s | -54.8°C | 0.2% | 59.6hPa | 2.7V | 18:12:15 | 01:21:43 | 00:00:00 | |
| DL1XH-west | 2026-09-04 10:54:03 | 52.77003 | 9.35391 | 86° | 38km/h | 19842m | -11m/s | -54.8°C | 0.3% | 59.6hPa | 2.7V | 18:12:15 | 01:21:42 | 00:00:00 | |
| AA1-15 | 2026-09-04 10:54:02 | 52.77002 | 9.35375 | 89° | 40km/h | 19856m | -16.6m/s | 0°C | 0% | 59.5hPa | 2.7V | 18:12:15 | 01:21:41 | 00:00:00 | |
| DD8BA-10 | 2026-09-04 10:54:02 | 52.77002 | 9.35375 | 89° | 46km/h | 19856m | -16.5m/s | -54.7°C | 3.7% | 59.4hPa | 2.7V | 00:00:00 | 00:00:00 | 00:00:00 | |
| DC6BW-12 | 2026-09-04 10:54:01 | 52.77002 | 9.35375 | 90° | 40km/h | 19856m | -16.6m/s | -54.7°C | 1.0% | 59.5hPa | 2.7V | 00:00:00 | 00:00:00 | 00:00:00 | |
| EDDB2-12 | 2026-09-04 10:54:00 | 52.77000 | 9.35320 | 85° | 47km/h | 19910m | -16.1m/s | -54.7°C | 1.0% | 59.0hPa | 2.7V | 00:00:00 | 00:00:00 | 00:00:00 | |
| DD1CC8 | 2026-09-04 10:53:59 | 52.77000 | 9.35320 | 85° | 47km/h | 19910m | -16.1m/s | -54.7°C | 1.0% | 59.0hPa | 2.7V | 00:00:00 | 00:00:00 | 00:00:00 | |
| DF8AY-15 | 2026-09-04 10:53:58 | 52.76999 | 9.35301 | 87° | 44km/h | 19922m | -7.2m/s | -54.6°C | 3.8% | 58.7hPa | 2.7V | 00:00:00 | 01:21:37 | 00:00:00 | |
| DL1XH1-15 | 2026-09-04 10:53:57 | 52.76996 | 9.35223 | 85° | 44km/h | 19909m | 5.5m/s | -54.7°C | 3.8% | 58.9hPa | 2.6V | 08:30:00 | 01:21:33 | 00:00:00 | |
| DO2JMG | 2026-09-04 10:53:57 | 52.76999 | 9.35281 | 87° | 47km/h | 19924m | 2.3m/s | -54.6°C | 0.3% | 58.7hPa | 2.7V | 18:12:15 | 01:21:36 | 00:00:00 | |
| DJ2DS-15 | 2026-09-04 10:53:57 | 52.76999 | 9.35281 | 87° | 44km/h | 19924m | 2.2m/s | -54.5°C | 3.8% | 58.7hPa | 2.7V | 00:00:00 | 01:21:36 | 08:30:00 | |
| DB0DAN | 2026-09-04 10:53:55 | 52.76997 | 9.35241 | 86° | 44km/h | 19915m | 5.9m/s | -54.7°C | 1% | 58.83hPa | 2.6V | 00:00:00 | 00:00:00 | 00:00:00 | |
| DF8AY | 2026-09-04 10:53:54 | 52.76996 | 9.35223 | 86° | 44km/h | 19909m | 5.5m/s | -54.7°C | 0.4% | 58.9hPa | 2.6V | 18:12:15 | 01:21:33 | 00:00:00 | |
| DL3AQ-11 | 2026-09-04 10:53:54 | 52.76996 | 9.35223 | 85° | 42km/h | 19909m | 5.5m/s | -54.7°C | 1.0% | 58.9hPa | 2.6V | 00:00:00 | 00:00:00 | 00:00:00 | |
| DL1NUX | 2026-09-04 10:53:53 | 52.76988 | 9.35130 | 78° | 44km/h | 19882m | 5.6m/s | -54.7°C | 3.9% | 59.1hPa | 2.6V | 08:30:00 | 01:21:28 | 00:00:00 | |
| AA1-15 | 2026-09-04 10:53:53 | 52.76992 | 9.35167 | 80° | 47km/h | 19894m | 4.8m/s | 0°C | 0% | 59hPa | 2.7V | 18:12:15 | 01:21:30 | 00:00:00 | |
| DO2JMG | 2026-09-04 10:53:47 | 52.76983 | 9.35093 | 78° | 47km/h | 19872m | 5.9m/s | -54.7°C | 0.4% | 59.2hPa | 2.7V | 18:12:15 | 01:21:26 | 00:00:00 | |
| DO2SHX-10 | 2026-09-04 10:53:46 | 52.76980 | 9.35073 | 79° | 46km/h | 19868m | 3.8m/s | -54.6°C | 3.9% | 59.2hPa | 2.6V | 00:00:00 | 01:21:25 | 00:00:00 | |
| DL1XH1-15 | 2026-09-04 10:53:45 | 52.76976 | 9.35036 | 78° | 44km/h | 19857m | 4.5m/s | -54.7°C | 3.8% | 59.4hPa | 2.7V | 08:30:00 | 01:21:23 | 00:00:00 | |
| DF8AY | 2026-09-04 10:53:45 | 52.76973 | 9.35018 | 78° | 46km/h | 19852m | 5.8m/s | -54.7°C | 0.3% | 59.4hPa | 2.7V | 18:12:15 | 01:21:22 | 00:00:00 | |
| BIOWL1-15 | 2026-09-04 10:53:41 | 52.76969 | 9.34982 | 78° | 40km/h | 19842m | 6.2m/s | -54.7°C | 0.3% | 59.5hPa | 2.6V | 18:12:15 | 01:21:20 | 00:00:00 | |
| DB0DAN | 2026-09-04 10:53:40 | 52.76966 | 9.34966 | 75° | 37km/h | 19836m | 4m/s | -54.6°C | 1% | 59.58hPa | 2.7V | 00:00:00 | 00:00:00 | 00:00:00 | |
| DL1NUX | 2026-09-04 10:53:40 | 52.76964 | 9.34951 | 74° | 38km/h | 19832m | 6.1m/s | -54.7°C | 3.7% | 59.6hPa | 2.7V | 08:30:00 | 01:21:18 | 00:00:00 | |
| AA1-15 | 2026-09-04 10:53:40 | 52.76966 | 9.34966 | 75° | 38km/h | 19836m | 4m/s | 0°C | 0% | 0hPa | 2.7V | 18:12:15 | 01:21:19 | 00:00:00 | |
| DO2SHX-10 | 2026-09-04 10:53:40 | 52.76966 | 9.34966 | 76° | 38km/h | 19837m | 4.0m/s | -54.6°C | 3.8% | 59.5hPa | 2.7V | 00:00:00 | 01:21:19 | 00:00:00 | |
| DL1XH1-15 | 2026-09-04 10:53:39 | 52.76949 | 9.34875 | 69° | 38km/h | 19805m | 6.3m/s | -54.6°C | 3.8% | 59.9hPa | 2.7V | 08:30:00 | 01:21:13 | 00:00:00 | |
| DO2JMG | 2026-09-04 10:53:36 | 52.76955 | 9.34904 | 71° | 37km/h | 19815m | 6.3m/s | -54.7°C | 0.3% | 59.8hPa | 2.6V | 18:12:15 | 01:21:15 | 00:00:00 | |
| DO9LL-15 | 2026-09-04 10:53:36 | 52.76955 | 9.34904 | 71° | 33km/h | 19815m | 6.3m/s | -54.6°C | 3.8% | 59.7hPa | 2.6V | 00:00:00 | 01:21:15 | 00:00:00 | |
| DL1NUX | 2026-09-04 10:53:34 | 52.76929 | 9.34798 | 62° | 42km/h | 19778m | 5.6m/s | -54.8°C | 3.8% | 60.1hPa | 2.7V | 08:30:00 | 01:21:08 | 00:00:00 | |
| DF8AY | 2026-09-04 10:53:32 | 52.76942 | 9.34844 | 69° | 42km/h | 19794m | 4.8m/s | -54.7°C | 0.4% | 60hPa | 2.6V | 18:12:15 | 01:21:11 | 00:00:00 | |
| DL1XH-west | 2026-09-04 10:53:31 | 52.76938 | 9.34828 | 66° | 40km/h | 19789m | 6.6m/s | -54.7°C | 0.4% | 60hPa | 2.6V | 18:12:15 | 01:21:10 | 00:00:00 | |
| AA1-15 | 2026-09-04 10:53:30 | 52.76933 | 9.34813 | 63° | 40km/h | 19783m | 4.4m/s | 0°C | 0% | 0hPa | 2.6V | 18:12:15 | 01:21:09 | 00:00:00 | |
| DL1XH1-15 | 2026-09-04 10:53:29 | 52.76906 | 9.34730 | 59° | 35km/h | 19751m | 6.1m/s | -54.8°C | 3.7% | 60.4hPa | 2.6V | 08:30:00 | 01:21:03 | 00:00:00 | |
| DO3DL | 2026-09-04 10:53:28 | 52.76929 | 9.34798 | 64° | 42km/h | 19778m | 5.6m/s | -54.8°C | 1.0% | 60.1hPa | 2.7V | 00:00:00 | 00:00:00 | 00:00:00 | |
| DL1XH-15 | 2026-09-04 10:53:27 | 52.76920 | 9.34768 | 61° | 38km/h | 19768m | 5.7m/s | -54.6°C | 3.8% | 60.2hPa | 2.7V | 08:30:00 | 01:21:06 | 00:00:00 | |
| DB0DAN | 2026-09-04 10:53:25 | 52.76910 | 9.34742 | 58° | 33km/h | 19757m | 4.7m/s | -54.7°C | 1% | 60.33hPa | 2.6V | 00:00:00 | 00:00:00 | 00:00:00 | |
| DO2JMG | 2026-09-04 10:53:25 | 52.76910 | 9.34742 | 58° | 35km/h | 19757m | 4.7m/s | -54.7°C | 0.3% | 60.3hPa | 2.6V | 18:12:15 | 01:21:04 | 00:00:00 | |
| DL1XH-west | 2026-09-04 10:53:21 | 52.76894 | 9.34697 | 58° | 27km/h | 19735m | 5.2m/s | -54.9°C | 0.4% | 60.5hPa | 2.7V | 18:12:15 | 01:21:00 | 00:00:00 | |
| GOEST3-10 | 2026-09-04 10:53:21 | 52.76894 | 9.34697 | 59° | 27km/h | 19735m | 5.1m/s | -54.8°C | 3.9% | 60.4hPa | 2.6V | 00:00:00 | 01:21:00 | 00:00:00 | |
| DL1NUX | 2026-09-04 10:53:20 | 52.76886 | 9.34677 | 59° | 29km/h | 19723m | 4.6m/s | -54.9°C | 3.9% | 60.6hPa | 2.6V | 08:30:00 | 01:20:58 | 00:00:00 | |
| AA1-15 | 2026-09-04 10:53:20 | 52.76890 | 9.34687 | 59° | 27km/h | 19728m | 6.9m/s | 0°C | 0% | 0hPa | 2.6V | 18:12:15 | 01:20:59 | 00:00:00 | |
| DL1XH1-15 | 2026-09-04 10:53:19 | 52.76863 | 9.34630 | 50° | 31km/h | 19698m | 4.7m/s | -55.2°C | 3.9% | 60.9hPa | 2.6V | 08:30:00 | 01:20:53 | 00:00:00 | |
| DO2SHX-10 | 2026-09-04 10:53:19 | 52.76886 | 9.34677 | 60° | 29km/h | 19723m | 4.6m/s | -54.8°C | 3.9% | 60.6hPa | 2.6V | 00:00:00 | 01:20:58 | 00:00:00 | |
| DL1XH-15 | 2026-09-04 10:53:17 | 52.76878 | 9.34658 | 50° | 27km/h | 19713m | 5.9m/s | -55.2°C | 4% | 60.7hPa | 2.7V | 08:30:00 | 01:20:56 | 00:00:00 | |
| DO2JMG | 2026-09-04 10:53:17 | 52.76869 | 9.34640 | 47° | 31km/h | 19703m | 5.8m/s | -55.2°C | 0.4% | 60.8hPa | 2.7V | 18:12:15 | 01:20:54 | 00:00:00 | |
| DO3DL | 2026-09-04 10:53:16 | 52.76874 | 9.34649 | 47° | 29km/h | 19708m | 4.0m/s | -55.3°C | 1.1% | 60.8hPa | 2.6V | 00:00:00 | 00:00:00 | 00:00:00 | |
| DL3AQ-11 | 2026-09-04 10:53:14 | 52.76858 | 9.34620 | 50° | 29km/h | 19693m | 5.7m/s | -55.2°C | 1.1% | 60.9hPa | 2.6V | 00:00:00 | 00:00:00 | 00:00:00 | |
| DO2SHX-10 | 2026-09-04 10:53:13 | 52.76858 | 9.34620 | 51° | 29km/h | 19693m | 5.7m/s | -55.1°C | 3.9% | 60.9hPa | 2.6V | 00:00:00 | 01:20:52 | 00:00:00 | |
| DM0DOS-11 | 2026-09-04 10:53:12 | 52.76837 | 9.34568 | 53° | 18km/h | 19661m | 3.8m/s | -55°C | 4% | 61.2hPa | 2.6V | 08:30:00 | 01:20:46 | 00:00:00 | |
| DD8BA-10 | 2026-09-04 10:53:12 | 52.76854 | 9.34610 | 52° | 22km/h | 19688m | 5.3m/s | -55.1°C | 3.9% | 60.9hPa | 2.7V | 00:00:00 | 00:00:00 | 00:00:00 | |
| DL1NUX | 2026-09-04 10:53:11 | 52.76843 | 9.34582 | 59° | 24km/h | 19672m | 5m/s | -55°C | 4% | 61.1hPa | 2.7V | 08:30:00 | 01:20:48 | 00:00:00 | |
| DL1XH-west | 2026-09-04 10:53:10 | 52.76846 | 9.34591 | 60° | 27km/h | 19677m | 4.8m/s | -55.1°C | 0.5% | 61.1hPa | 2.7V | 18:12:15 | 01:20:49 | 00:00:00 | |
| DB0DAN | 2026-09-04 10:53:10 | 52.76846 | 9.34591 | 60° | 26km/h | 19677m | 4.8m/s | -55.1°C | 1.1% | 61.09hPa | 2.7V | 00:00:00 | 00:00:00 | 00:00:00 | |
| BIOWL1-15 | 2026-09-04 10:53:10 | 52.76834 | 9.34562 | 55° | 18km/h | 19657m | 6.4m/s | -55°C | 0.4% | 61.3hPa | 2.6V | 18:12:15 | 01:20:45 | 00:00:00 | |
| DO2JMG | 2026-09-04 10:53:05 | 52.76832 | 9.34556 | 59° | 20km/h | 19651m | 5m/s | -55.1°C | 0.4% | 61.3hPa | 2.7V | 18:12:15 | 01:20:44 | 00:00:00 | |
| DL1XH1-15 | 2026-09-04 10:53:04 | 52.76829 | 9.34549 | 57° | 20km/h | 19646m | 4.8m/s | -55.1°C | 4% | 61.4hPa | 2.7V | 08:30:00 | 01:20:43 | 00:00:00 | |
| DO2SHX-10 | 2026-09-04 10:53:04 | 52.76829 | 9.34549 | 58° | 18km/h | 19646m | 4.8m/s | -55.0°C | 4.0% | 61.3hPa | 2.7V | 00:00:00 | 01:20:43 | 00:00:00 | |
| BIOWL9-15 | 2026-09-04 10:53:03 | 52.76824 | 9.34536 | 52° | 18km/h | 19635m | 4.6m/s | -55.1°C | 1.1% | 61.5hPa | 2.7V | 00:00:00 | 00:00:00 | 00:00:00 | |
| BUE01 | 2026-09-04 10:53:02 | 52.76821 | 9.34530 | 52° | 20km/h | 19629m | 6.2m/s | -55.1°C | 1.0% | 61.5hPa | 2.7V | 00:00:00 | 00:00:00 | 00:00:00 | |
| DO2SHX-10 | 2026-09-04 10:53:01 | 52.76821 | 9.34530 | 53° | 22km/h | 19629m | 6.1m/s | -55.1°C | 3.9% | 61.5hPa | 2.7V | 00:00:00 | 01:20:40 | 00:00:00 | |
| DL1NUX | 2026-09-04 10:53:00 | 52.76814 | 9.34515 | 53° | 22km/h | 19619m | 5m/s | -55.2°C | 3.9% | 61.6hPa | 2.6V | 08:30:00 | 01:20:38 | 00:00:00 | |
| DL1XH-west | 2026-09-04 10:53:00 | 52.76817 | 9.34522 | 54° | 24km/h | 19624m | 4.5m/s | -55.1°C | 0.5% | 61.6hPa | 2.7V | 18:12:15 | 01:20:39 | 00:00:00 | |
| DL1XH1-15 | 2026-09-04 10:52:59 | 52.76801 | 9.34480 | 73° | 16km/h | 19593m | 5.8m/s | -55.3°C | 4.1% | 61.9hPa | 2.6V | 08:30:00 | 01:20:33 | 00:00:00 | |
| EDDB2-12 | 2026-09-04 10:52:58 | 52.76807 | 9.34501 | 54° | 18km/h | 19609m | 5.5m/s | -55.3°C | 1.1% | 61.7hPa | 2.7V | 00:00:00 | 00:00:00 | 00:00:00 | |
| DM0DOS-11 | 2026-09-04 10:52:57 | 52.76807 | 9.34501 | 54° | 20km/h | 19609m | 5.5m/s | -55.3°C | 4% | 61.7hPa | 2.7V | 08:30:00 | 01:20:36 | 00:00:00 | |
| BIOWL1-15 | 2026-09-04 10:52:56 | 52.76805 | 9.34494 | 58° | 20km/h | 19603m | 6.6m/s | -55.3°C | 0.5% | 61.8hPa | 2.7V | 18:12:15 | 01:20:35 | 00:00:00 | |
| DF8AY | 2026-09-04 10:52:55 | 52.76802 | 9.34487 | 67° | 18km/h | 19597m | 3.7m/s | -55.3°C | 0.4% | 61.8hPa | 2.6V | 18:12:15 | 01:20:34 | 00:00:00 | |
| DB0DAN | 2026-09-04 10:52:55 | 52.76802 | 9.34487 | 67° | 18km/h | 19597m | 3.7m/s | -55.3°C | 1.1% | 61.82hPa | 2.6V | 00:00:00 | 00:00:00 | 00:00:00 | |
| DO2JMG | 2026-09-04 10:52:54 | 52.76801 | 9.34480 | 74° | 16km/h | 19593m | 5.8m/s | -55.3°C | 0.6% | 61.9hPa | 2.6V | 18:12:15 | 01:20:33 | 00:00:00 | |
| DL1XH-west | 2026-09-04 10:52:49 | 52.76801 | 9.34450 | 98° | 13km/h | 19566m | 5.8m/s | -55.1°C | 0.4% | 62.1hPa | 2.6V | 18:12:15 | 01:20:28 | 00:00:00 | |
| SMARD9-15 | 2026-09-04 10:52:48 | 52.76801 | 9.34439 | 81° | 15km/h | 19556m | 6.1m/s | -55.0°C | 1.1% | 62.3hPa | 2.7V | 00:00:00 | 00:00:00 | 00:00:00 | |
| DM0DOS-11 | 2026-09-04 10:52:47 | 52.76801 | 9.34439 | 81° | 16km/h | 19556m | 6.1m/s | -55°C | 4% | 62.2hPa | 2.7V | 08:30:00 | 01:20:26 | 00:00:00 | |
| BIOWL1-15 | 2026-09-04 10:52:45 | 52.76791 | 9.34338 | 79° | 24km/h | 19500m | 4.5m/s | -54.8°C | 0.5% | 62.8hPa | 2.7V | 18:12:15 | 01:20:15 | 00:00:00 | |
| DO2JMG | 2026-09-04 10:52:44 | 52.76797 | 9.34416 | 74° | 20km/h | 19541m | 4.7m/s | -55°C | 0.5% | 62.4hPa | 2.6V | 18:12:15 | 01:20:23 | 00:00:00 | |
| DO2SHX-10 | 2026-09-04 10:52:44 | 52.76796 | 9.34407 | 79° | 24km/h | 19537m | 4.1m/s | -54.9°C | 3.9% | 62.4hPa | 2.6V | 00:00:00 | 01:20:22 | 08:30:00 | |
| DD8BA-10 | 2026-09-04 10:52:42 | 52.76795 | 9.34398 | 82° | 24km/h | 19532m | 6.5m/s | -54.9°C | 3.9% | 62.4hPa | 2.7V | 00:00:00 | 00:00:00 | 00:00:00 | |
| DO3DL | 2026-09-04 10:52:41 | 52.76795 | 9.34398 | 83° | 24km/h | 19532m | 6.5m/s | -54.9°C | 1.0% | 62.5hPa | 2.7V | 00:00:00 | 00:00:00 | 00:00:00 | |
| DB0DAN | 2026-09-04 10:52:40 | 52.76794 | 9.34378 | 88° | 24km/h | 19520m | 6.2m/s | -54.9°C | 1.1% | 62.58hPa | 2.7V | 00:00:00 | 00:00:00 | 00:00:00 | |
| DL1XH-west | 2026-09-04 10:52:39 | 52.76794 | 9.34368 | 87° | 22km/h | 19515m | 4.5m/s | -54.9°C | 0.5% | 62.6hPa | 2.6V | 18:12:15 | 01:20:18 | 00:00:00 | |
| DM0DOS-11 | 2026-09-04 10:52:37 | 52.76792 | 9.34348 | 80° | 26km/h | 19504m | 5.1m/s | -54.8°C | 4% | 62.8hPa | 2.6V | 08:30:00 | 01:20:16 | 00:00:00 | |
| BIOWL1-15 | 2026-09-04 10:52:37 | 52.76790 | 9.34329 | 80° | 22km/h | 19495m | 5.4m/s | -54.8°C | 0.5% | 62.9hPa | 2.7V | 18:12:15 | 01:20:14 | 00:00:00 | |
| DF8AY | 2026-09-04 10:52:34 | 52.76789 | 9.34320 | 82° | 22km/h | 19490m | 3.9m/s | -54.7°C | 0.5% | 62.9hPa | 2.7V | 18:12:15 | 01:20:13 | 00:00:00 | |
| DO2JMG | 2026-09-04 10:52:33 | 52.76788 | 9.34311 | 81° | 24km/h | 19485m | 6.3m/s | -54.6°C | 0.5% | 62.9hPa | 2.6V | 18:12:15 | 01:20:12 | 00:00:00 | |
| DO9LL-15 | 2026-09-04 10:52:33 | 52.76788 | 9.34311 | 81° | 26km/h | 19485m | 6.3m/s | -54.6°C | 4.0% | 62.9hPa | 2.7V | 00:00:00 | 01:20:12 | 00:00:00 | |
| SO1NDE-10 | 2026-09-04 10:52:32 | 52.76787 | 9.34301 | 80° | 26km/h | 19479m | 5.1m/s | -54.5°C | 4.0% | 62.9hPa | 2.7V | 00:00:00 | 01:20:11 | 00:00:00 | |
| DO2SHX-10 | 2026-09-04 10:52:31 | 52.76786 | 9.34291 | 80° | 24km/h | 19475m | 3.8m/s | -54.5°C | 3.9% | 63.0hPa | 2.7V | 00:00:00 | 01:20:10 | 00:00:00 | |
| DL1NUX | 2026-09-04 10:52:30 | 52.76783 | 9.34271 | 71° | 24km/h | 19465m | 4.1m/s | -54.4°C | 3.9% | 63.2hPa | 2.7V | 08:30:00 | 01:20:08 | 00:00:00 | |
| SONDE2-11 | 2026-09-04 10:52:29 | 52.76783 | 9.34271 | 71° | 22km/h | 19466m | 4.1m/s | -54.4°C | 1.0% | 63.2hPa | 2.7V | 00:00:00 | 00:00:00 | 00:00:00 | |
| DL1XH1-15 | 2026-09-04 10:52:28 | 52.76771 | 9.34226 | 68° | 22km/h | 19440m | 4.8m/s | -54.3°C | 3.8% | 63.4hPa | 2.7V | 08:30:00 | 01:20:03 | 00:00:00 | |
| DL1XH-west | 2026-09-04 10:52:28 | 52.76781 | 9.34262 | 69° | 26km/h | 19460m | 6.2m/s | -54.5°C | 0.4% | 63.2hPa | 2.7V | 18:12:15 | 01:20:07 | 00:00:00 | |
| DL1XH-15 | 2026-09-04 10:52:27 | 52.76779 | 9.34252 | 64° | 26km/h | 19455m | 4.3m/s | -54.5°C | 3.9% | 63.3hPa | 2.6V | 08:30:00 | 01:20:06 | 00:00:00 | |
| DB0DAN | 2026-09-04 10:52:25 | 52.76773 | 9.34235 | 64° | 20km/h | 19445m | 4.4m/s | -54.3°C | 1% | 63.35hPa | 2.6V | 00:00:00 | 00:00:00 | 00:00:00 | |
| BIOWL1-15 | 2026-09-04 10:52:25 | 52.76773 | 9.34235 | 64° | 22km/h | 19445m | 4.4m/s | -54.3°C | 0.4% | 63.4hPa | 2.6V | 18:12:15 | 01:20:04 | 00:00:00 | |
| DO2JMG | 2026-09-04 10:52:23 | 52.76769 | 9.34217 | 71° | 24km/h | 19435m | 5.8m/s | -54.4°C | 0.4% | 63.5hPa | 2.7V | 18:12:15 | 01:20:02 | 00:00:00 | |
| DM0DOS-11 | 2026-09-04 10:52:22 | 52.76757 | 9.34145 | 69° | 24km/h | 19397m | 4.8m/s | -54°C | 3.9% | 63.8hPa | 2.7V | 08:30:00 | 01:19:55 | 00:00:00 | |
| DD8BA-10 | 2026-09-04 10:52:22 | 52.76767 | 9.34207 | 75° | 26km/h | 19430m | 4.3m/s | -54.2°C | 3.8% | 63.4hPa | 2.7V | 00:00:00 | 00:00:00 | 08:30:00 | |
| GOEST3-10 | 2026-09-04 10:52:21 | 52.76765 | 9.34196 | 78° | 26km/h | 19425m | 5.8m/s | -54.2°C | 3.8% | 63.5hPa | 2.6V | 00:00:00 | 01:20:00 | 00:00:00 | |
| DL1NUX | 2026-09-04 10:52:20 | 52.76763 | 9.34176 | 74° | 26km/h | 19414m | 6.4m/s | -54.3°C | 3.9% | 63.6hPa | 2.6V | 08:30:00 | 01:19:58 | 00:00:00 | |
| DL1XH-west | 2026-09-04 10:52:18 | 52.76761 | 9.34165 | 71° | 27km/h | 19408m | 4.3m/s | -54.2°C | 0.4% | 63.7hPa | 2.7V | 18:12:15 | 01:19:57 | 00:00:00 | |
| DL1XH1-15 | 2026-09-04 10:52:17 | 52.76752 | 9.34127 | 60° | 26km/h | 19388m | 5.7m/s | -54°C | 3.8% | 63.9hPa | 2.6V | 08:30:00 | 01:19:53 | 00:00:00 | |
| DO2JMG | 2026-09-04 10:52:12 | 52.76745 | 9.34110 | 56° | 24km/h | 19378m | 6m/s | -54°C | 0.4% | 64hPa | 2.7V | 18:12:15 | 01:19:51 | 00:00:00 | |
| DD8BA-10 | 2026-09-04 10:52:12 | 52.76745 | 9.34110 | 56° | 26km/h | 19378m | 6.0m/s | -54.0°C | 3.8% | 64.0hPa | 2.7V | 00:00:00 | 00:00:00 | 00:00:00 | |
| DM0DOS-11 | 2026-09-04 10:52:11 | 52.76731 | 9.34064 | 73° | 27km/h | 19353m | 6m/s | -53.8°C | 3.8% | 64.2hPa | 2.7V | 08:30:00 | 01:19:46 | 00:00:00 | |
| DB0DAN | 2026-09-04 10:52:10 | 52.76739 | 9.34094 | 61° | 22km/h | 19368m | 4.9m/s | -53.9°C | 1% | 64.1hPa | 2.6V | 00:00:00 | 00:00:00 | 00:00:00 | |
| DL1XH-15 | 2026-09-04 10:52:10 | 52.76730 | 9.34053 | 79° | 27km/h | 19347m | 5m/s | -53.8°C | 3.7% | 64.3hPa | 2.6V | 08:30:00 | 01:19:45 | 00:00:00 | |
| DL1XH-west | 2026-09-04 10:52:07 | 52.76731 | 9.34064 | 74° | 27km/h | 19353m | 6m/s | -53.8°C | 0.4% | 64.2hPa | 2.7V | 18:12:15 | 01:19:46 | 00:00:00 | |
| EDDB2-11 | 2026-09-04 10:52:07 | 52.76730 | 9.34053 | 79° | 26km/h | 19347m | 5.0m/s | -53.8°C | 1.0% | 64.3hPa | 2.7V | 00:00:00 | 00:00:00 | 00:00:00 | |
| DL1XH1-15 | 2026-09-04 10:52:06 | 52.76727 | 9.34029 | 78° | 29km/h | 19337m | 4m/s | -53.6°C | 3.7% | 64.4hPa | 2.7V | 08:30:00 | 01:19:43 | 00:00:00 | |
| DO2JMG | 2026-09-04 10:52:02 | 52.76724 | 9.34006 | 78° | 26km/h | 19326m | 4.8m/s | -53.6°C | 0.3% | 64.5hPa | 2.6V | 18:12:15 | 01:19:41 | 00:00:00 | |
| SO1NDE-10 | 2026-09-04 10:52:02 | 52.76724 | 9.34006 | 78° | 31km/h | 19327m | 4.8m/s | -53.5°C | 3.7% | 64.5hPa | 2.6V | 00:00:00 | 01:19:41 | 00:00:00 | |
| DL4BBY-15 | 2026-09-04 10:52:01 | 52.76722 | 9.33996 | 75° | 31km/h | 19322m | 3.8m/s | -53.8°C | 0% | 0hPa | 2.6V | 00:00:00 | 00:00:00 | 00:00:00 | |
| DL1XH-15 | 2026-09-04 10:52:00 | 52.76710 | 9.33944 | 68° | 27km/h | 19297m | 5.1m/s | -53.3°C | 3.7% | 64.8hPa | 2.6V | 08:30:00 | 01:19:35 | 00:00:00 | |
| DL1XH-west | 2026-09-04 10:51:57 | 52.76713 | 9.33954 | 68° | 26km/h | 19302m | 5.2m/s | -53.4°C | 0.3% | 64.8hPa | 2.6V | 18:12:15 | 01:19:36 | 00:00:00 | |
| EDDB2-12 | 2026-09-04 10:51:56 | 52.76708 | 9.33933 | 67° | 29km/h | 19291m | 5.9m/s | -53.3°C | 1.0% | 64.9hPa | 2.7V | 00:00:00 | 00:00:00 | 00:00:00 | |
| DB0DAN | 2026-09-04 10:51:55 | 52.76708 | 9.33933 | 67° | 29km/h | 19291m | 5.9m/s | -53.3°C | 1% | 64.87hPa | 2.7V | 00:00:00 | 00:00:00 | 00:00:00 | |
| DL1XH1-15 | 2026-09-04 10:51:55 | 52.76705 | 9.33921 | 69° | 31km/h | 19286m | 3.7m/s | -53.4°C | 3.7% | 64.9hPa | 2.7V | 08:30:00 | 01:19:33 | 00:00:00 | |
| BIOWL1-15 | 2026-09-04 10:51:53 | 52.76702 | 9.33909 | 72° | 31km/h | 19281m | 6.1m/s | -53.4°C | 0.3% | 65hPa | 2.7V | 18:12:15 | 01:19:32 | 00:00:00 | |
| DO2JMG | 2026-09-04 10:51:52 | 52.76700 | 9.33897 | 77° | 29km/h | 19276m | 4.9m/s | -53.3°C | 0.3% | 65hPa | 2.6V | 18:12:15 | 01:19:31 | 00:00:00 | |
| DD8BA-10 | 2026-09-04 10:51:52 | 52.76700 | 9.33897 | 77° | 29km/h | 19276m | 4.9m/s | -53.2°C | 3.6% | 65.0hPa | 2.6V | 00:00:00 | 00:00:00 | 00:00:00 | |
| DO2SHX-10 | 2026-09-04 10:51:51 | 52.76698 | 9.33884 | 77° | 31km/h | 19271m | 4.6m/s | -53.2°C | 3.6% | 65.1hPa | 2.6V | 00:00:00 | 01:19:30 | 00:00:00 | |
| DL1XH-15 | 2026-09-04 10:51:50 | 52.76686 | 9.33826 | 64° | 29km/h | 19245m | 6.2m/s | -53.3°C | 3.4% | 65.3hPa | 2.6V | 08:30:00 | 01:19:25 | 00:00:00 | |
| DL1NUX | 2026-09-04 10:51:50 | 52.76694 | 9.33860 | 71° | 31km/h | 19261m | 4.3m/s | -53.2°C | 3.4% | 65.2hPa | 2.7V | 08:30:00 | 01:19:28 | 00:00:00 | |
| DL1XH-west | 2026-09-04 10:51:46 | 52.76686 | 9.33826 | 65° | 29km/h | 19245m | 6.2m/s | -53.3°C | 0.2% | 65.3hPa | 2.6V | 18:12:15 | 01:19:25 | 00:00:00 | |
| SMARD9-15 | 2026-09-04 10:51:46 | 52.76683 | 9.33815 | 62° | 29km/h | 19240m | 4.6m/s | -53.4°C | 0.9% | 65.4hPa | 2.6V | 00:00:00 | 00:00:00 | 00:00:00 | |
| DL1XH1-15 | 2026-09-04 10:51:45 | 52.76680 | 9.33803 | 64° | 31km/h | 19234m | 5.7m/s | -53.3°C | 3.5% | 65.5hPa | 2.6V | 08:30:00 | 01:19:23 | 00:00:00 | |
| DO2SHX-10 | 2026-09-04 10:51:45 | 52.76683 | 9.33815 | 63° | 31km/h | 19240m | 4.5m/s | -53.3°C | 3.5% | 65.4hPa | 2.6V | 00:00:00 | 01:19:24 | 00:00:00 | |
| DL1NUX | 2026-09-04 10:51:44 | 52.76665 | 9.33738 | 71° | 35km/h | 19210m | 5.6m/s | -53.7°C | 3.7% | 65.7hPa | 2.6V | 08:30:00 | 01:19:18 | 00:00:00 | |
| BIOWL1-15 | 2026-09-04 10:51:43 | 52.76676 | 9.33792 | 68° | 31km/h | 19229m | 4.4m/s | -53.4°C | 0.2% | 65.5hPa | 2.7V | 18:12:15 | 01:19:22 | 00:00:00 | |
| DF8AY | 2026-09-04 10:51:42 | 52.76674 | 9.33780 | 71° | 33km/h | 19224m | 5.5m/s | -53.4°C | 0.2% | 65.5hPa | 2.7V | 18:12:15 | 01:19:21 | 00:00:00 | |
| DO2JMG | 2026-09-04 10:51:41 | 52.76671 | 9.33766 | 72° | 35km/h | 19219m | 5.5m/s | -53.4°C | 0.2% | 65.6hPa | 2.7V | 18:12:15 | 01:19:20 | 00:00:00 | |
| GOEST3-10 | 2026-09-04 10:51:41 | 52.76671 | 9.33766 | 72° | 35km/h | 19219m | 5.5m/s | -53.4°C | 3.6% | 65.6hPa | 2.6V | 00:00:00 | 01:19:20 | 00:00:00 | |
| DO2SHX-10 | 2026-09-04 10:51:39 | 52.76665 | 9.33738 | 72° | 35km/h | 19210m | 5.6m/s | -53.7°C | 3.7% | 65.7hPa | 2.6V | 00:00:00 | 01:19:18 | 00:00:00 | |
| DF8AY-15 | 2026-09-04 10:51:38 | 52.76663 | 9.33725 | 71° | 35km/h | 19205m | 4.3m/s | -53.9°C | 3.7% | 65.8hPa | 2.6V | 00:00:00 | 01:19:17 | 00:00:00 | |
| DJ2DS-15 | 2026-09-04 10:51:37 | 52.76660 | 9.33712 | 70° | 35km/h | 19200m | 6.3m/s | -54.1°C | 3.8% | 65.8hPa | 2.6V | 00:00:00 | 01:19:16 | 00:00:00 | |
| DO2LYB-13 | 2026-09-04 10:51:36 | 52.76656 | 9.33698 | 67° | 37km/h | 19194m | 4.8m/s | -54.2°C | 1.1% | 65.9hPa | 2.6V | 00:00:00 | 00:00:00 | 00:00:00 | |
| DL1XH1-15 | 2026-09-04 10:51:35 | 52.76649 | 9.33672 | 64° | 33km/h | 19184m | 6.1m/s | -54.3°C | 4% | 66hPa | 2.6V | 08:30:00 | 01:19:13 | 00:00:00 | |
| DL1XH-west | 2026-09-04 10:51:35 | 52.76653 | 9.33685 | 65° | 35km/h | 19189m | 5.1m/s | -54.3°C | 0.4% | 65.9hPa | 2.7V | 18:12:15 | 01:19:14 | 00:00:00 | |
| AA1-15 | 2026-09-04 10:51:34 | 52.76649 | 9.33672 | 65° | 33km/h | 19184m | 6.1m/s | -54.3°C | 0.5% | 0hPa | 2.6V | 18:12:15 | 01:19:13 | 00:00:00 | |
| DO2SHX-10 | 2026-09-04 10:51:33 | 52.76645 | 9.33660 | 66° | 33km/h | 19179m | 3.3m/s | -54.1°C | 3.9% | 66.0hPa | 2.7V | 00:00:00 | 01:19:12 | 00:00:00 | |
| DF2AP-13 | 2026-09-04 10:51:32 | 52.76642 | 9.33647 | 67° | 33km/h | 19175m | 5.6m/s | -54.2°C | 3.9% | 66.0hPa | 2.7V | 00:00:00 | 01:19:11 | 00:00:00 | |
| DL1NUX | 2026-09-04 10:51:31 | 52.76633 | 9.33605 | 75° | 37km/h | 19159m | 6.2m/s | -54.2°C | 3.8% | 66.3hPa | 2.7V | 08:30:00 | 01:19:08 | 00:00:00 | |
| DO2JMG | 2026-09-04 10:51:31 | 52.76639 | 9.33634 | 69° | 37km/h | 19169m | 5.2m/s | -54.3°C | 0.3% | 66.1hPa | 2.7V | 18:12:15 | 01:19:10 | 00:00:00 | |
| DL4BBY-15 | 2026-09-04 10:51:31 | 52.76639 | 9.33634 | 69° | 31km/h | 19169m | 5.2m/s | -54.5°C | 0% | 0hPa | 2.7V | 00:00:00 | 00:00:00 | 00:00:00 | |
| DO3DL | 2026-09-04 10:51:30 | 52.76636 | 9.33619 | 72° | 38km/h | 19164m | 4.5m/s | -54.2°C | 1.0% | 66.2hPa | 2.7V | 00:00:00 | 00:00:00 | 00:00:00 | |
| DL1XH1-15 | 2026-09-04 10:51:29 | 52.76625 | 9.33526 | 82° | 37km/h | 19131m | 6.2m/s | -53.9°C | 3.9% | 66.5hPa | 2.7V | 08:30:00 | 01:19:03 | 00:00:00 | |
| DM0DOS-11 | 2026-09-04 10:51:27 | 52.76630 | 9.33574 | 80° | 38km/h | 19148m | 6m/s | -54.2°C | 3.8% | 66.4hPa | 2.6V | 08:30:00 | 01:19:06 | 00:00:00 | |
| DO2SHX-10 | 2026-09-04 10:51:27 | 52.76629 | 9.33574 | 81° | 38km/h | 19148m | 6.0m/s | -54.2°C | 3.8% | 66.3hPa | 2.7V | 00:00:00 | 01:19:06 | 00:00:00 | |
| DB0DAN | 2026-09-04 10:51:25 | 52.76626 | 9.33542 | 82° | 38km/h | 19137m | 5m/s | -54°C | 1.1% | 66.47hPa | 2.7V | 00:00:00 | 00:00:00 | 00:00:00 | |
| DL1XH-west | 2026-09-04 10:51:25 | 52.76626 | 9.33542 | 82° | 40km/h | 19137m | 5m/s | -54°C | 0.4% | 66.5hPa | 2.7V | 18:12:15 | 01:19:04 | 00:00:00 | |
| AA1-15 | 2026-09-04 10:51:24 | 52.76625 | 9.33526 | 83° | 37km/h | 19131m | 6.3m/s | 0°C | 0% | 0hPa | 2.7V | 18:12:15 | 01:19:03 | 00:00:00 | |
| BIOWL1-15 | 2026-09-04 10:51:22 | 52.76610 | 9.33428 | 74° | 31km/h | 19088m | 4.5m/s | -53.7°C | 0.3% | 67hPa | 2.6V | 18:12:15 | 01:18:55 | 00:00:00 | |
| DF8AY | 2026-09-04 10:51:21 | 52.76619 | 9.33474 | 74° | 31km/h | 19110m | 4.6m/s | -53.9°C | 0.4% | 66.7hPa | 2.6V | 18:12:15 | 01:18:59 | 00:00:00 | |
| DO2JMG | 2026-09-04 10:51:21 | 52.76621 | 9.33486 | 75° | 33km/h | 19115m | 5.5m/s | -53.8°C | 0.4% | 66.7hPa | 2.6V | 18:12:15 | 01:19:00 | 00:00:00 | |
| DO2SHX-10 | 2026-09-04 10:51:21 | 52.76621 | 9.33486 | 75° | 31km/h | 19116m | 5.5m/s | -53.8°C | 3.8% | 66.6hPa | 2.6V | 00:00:00 | 01:19:00 | 08:30:00 | |
| DL8OAI-8 | 2026-09-04 10:51:20 | 52.76621 | 9.33486 | 76° | 33km/h | 19116m | 5.5m/s | -53.8°C | 1.1% | 66.7hPa | 2.6V | 00:00:00 | 00:00:00 | 00:00:00 | |
| DF8AY-15 | 2026-09-04 10:51:18 | 52.76614 | 9.33451 | 73° | 29km/h | 19100m | 4.5m/s | -53.6°C | 3.7% | 66.8hPa | 2.6V | 00:00:00 | 01:18:57 | 00:00:00 | |
| DL1XH1-15 | 2026-09-04 10:51:17 | 52.76606 | 9.33402 | 80° | 31km/h | 19077m | 5.3m/s | -53.5°C | 3.6% | 67.1hPa | 2.6V | 08:30:00 | 01:18:53 | 00:00:00 | |
| DM0DOS-11 | 2026-09-04 10:51:17 | 52.76612 | 9.33440 | 72° | 29km/h | 19094m | 6.2m/s | -53.7°C | 3.7% | 66.9hPa | 2.7V | 08:30:00 | 01:18:56 | 00:00:00 | |
| DJ2DS-15 | 2026-09-04 10:51:17 | 52.76612 | 9.33440 | 73° | 29km/h | 19094m | 6.2m/s | -53.6°C | 3.7% | 66.9hPa | 2.7V | 00:00:00 | 01:18:56 | 00:00:00 | |
| DF5WG-10 | 2026-09-04 10:51:16 | 52.76610 | 9.33427 | 74° | 31km/h | 19089m | 4.5m/s | -53.6°C | 3.6% | 67.0hPa | 2.7V | 00:00:00 | 01:18:55 | 00:00:00 | |
| SMARD9-15 | 2026-09-04 10:51:15 | 52.76606 | 9.33402 | 80° | 29km/h | 19077m | 5.3m/s | -53.5°C | 1.0% | 67.1hPa | 2.7V | 00:00:00 | 00:00:00 | 00:00:00 | |
| DL1NUX | 2026-09-04 10:51:14 | 52.76600 | 9.33338 | 83° | 27km/h | 19051m | 5.2m/s | -53.4°C | 3.7% | 67.3hPa | 2.7V | 08:30:00 | 01:18:48 | 00:00:00 | |
| DL1XH-west | 2026-09-04 10:51:14 | 52.76606 | 9.33402 | 80° | 31km/h | 19077m | 5.3m/s | -53.5°C | 0.2% | 67.1hPa | 2.6V | 18:12:15 | 01:18:53 | 00:00:00 | |
| DD8BA-10 | 2026-09-04 10:51:12 | 52.76604 | 9.33377 | 81° | 29km/h | 19067m | 6.2m/s | -53.5°C | 3.6% | 67.2hPa | 2.6V | 00:00:00 | 00:00:00 | 00:00:00 | |
| DL1XH-15 | 2026-09-04 10:51:11 | 52.76596 | 9.33304 | 76° | 29km/h | 19036m | 4.4m/s | -53.4°C | 3.7% | 67.5hPa | 2.6V | 08:30:00 | 01:18:45 | 00:00:00 | |
| DM0DOS-11 | 2026-09-04 10:51:11 | 52.76598 | 9.33316 | 78° | 27km/h | 19041m | 5.6m/s | -53.5°C | 3.7% | 67.5hPa | 2.6V | 08:30:00 | 01:18:46 | 00:00:00 | |
| DB0DAN | 2026-09-04 10:51:10 | 52.76601 | 9.33351 | 81° | 29km/h | 19057m | 5.3m/s | -53.4°C | 1% | 67.3hPa | 2.6V | 00:00:00 | 00:00:00 | 00:00:00 | |
| DO2JMG | 2026-09-04 10:51:10 | 52.76601 | 9.33351 | 81° | 31km/h | 19057m | 5.3m/s | -53.4°C | 0.3% | 67.3hPa | 2.6V | 18:12:15 | 01:18:49 | 00:00:00 | |
| DF8AY | 2026-09-04 10:51:09 | 52.76600 | 9.33338 | 84° | 27km/h | 19051m | 5.2m/s | -53.4°C | 0.3% | 67.4hPa | 2.7V | 18:12:15 | 01:18:48 | 00:00:00 | |
| DO2SHX-10 | 2026-09-04 10:51:09 | 52.76600 | 9.33338 | 84° | 27km/h | 19052m | 5.2m/s | -53.4°C | 3.7% | 67.3hPa | 2.6V | 00:00:00 | 01:18:48 | 00:00:00 | |
| DL4XJ-10 | 2026-09-04 10:51:08 | 52.76599 | 9.33327 | 83° | 29km/h | 19047m | 4.7m/s | -53.6°C | 0% | 0hPa | 2.6V | 00:00:00 | 00:00:00 | 00:00:00 | |
| DJ2KF-10 | 2026-09-04 10:51:07 | 52.76598 | 9.33316 | 79° | 42km/h | 19041m | 5.6m/s | -53.5°C | 3.7% | 67.4hPa | 2.6V | 00:00:00 | 01:18:46 | 00:00:00 | |
| DO2SHX-10 | 2026-09-04 10:51:06 | 52.76596 | 9.33304 | 77° | 27km/h | 19036m | 4.4m/s | -53.4°C | 3.7% | 67.5hPa | 2.7V | 00:00:00 | 01:18:45 | 00:00:00 | |
| DL1XH1-15 | 2026-09-04 10:51:05 | 52.76593 | 9.33281 | 81° | 27km/h | 19025m | 5.3m/s | -53.4°C | 3.6% | 67.6hPa | 2.7V | 08:30:00 | 01:18:43 | 00:00:00 | |
| DL1XH-west | 2026-09-04 10:51:03 | 52.76592 | 9.33270 | 76° | 27km/h | 19020m | 5.7m/s | -53.4°C | 0.2% | 67.7hPa | 2.6V | 18:12:15 | 01:18:42 | 00:00:00 | |
| DO2SHX-10 | 2026-09-04 10:51:03 | 52.76592 | 9.33270 | 77° | 27km/h | 19020m | 5.7m/s | -53.4°C | 3.5% | 67.6hPa | 2.6V | 00:00:00 | 01:18:42 | 00:00:00 | |
| DF2AP-13 | 2026-09-04 10:51:02 | 52.76590 | 9.33259 | 74° | 29km/h | 19015m | 4.8m/s | -53.4°C | 3.5% | 67.7hPa | 2.6V | 00:00:00 | 01:18:41 | 00:00:00 | |
| DL4BBY-15 | 2026-09-04 10:51:01 | 52.76588 | 9.33248 | 73° | 29km/h | 19009m | 5.6m/s | -53.6°C | 0% | 0hPa | 2.6V | 00:00:00 | 00:00:00 | 00:00:00 | |
| DL1NUX | 2026-09-04 10:51:00 | 52.76585 | 9.33227 | 74° | 26km/h | 18999m | 4.5m/s | -53.3°C | 3.5% | 67.9hPa | 2.6V | 08:30:00 | 01:18:38 | 00:00:00 | |
| BIOWL1-15 | 2026-09-04 10:51:00 | 52.76586 | 9.33237 | 76° | 26km/h | 19004m | 5.2m/s | -53.3°C | 0.2% | 67.9hPa | 2.7V | 18:12:15 | 01:18:39 | 00:00:00 | |
| DO2SHX-10 | 2026-09-04 10:51:00 | 52.76586 | 9.33237 | 76° | 27km/h | 19004m | 5.2m/s | -53.2°C | 3.5% | 67.8hPa | 2.7V | 00:00:00 | 01:18:39 | 00:00:00 | |
| DL1XH-15 | 2026-09-04 10:50:59 | 52.76578 | 9.33193 | 72° | 29km/h | 18983m | 6.9m/s | -53.4°C | 3.6% | 68.1hPa | 2.7V | 08:30:00 | 01:18:35 | 00:00:00 | |
| DF8AY | 2026-09-04 10:50:58 | 52.76574 | 9.33169 | 76° | 31km/h | 18972m | 4.8m/s | -53.4°C | 0.3% | 68.2hPa | 2.7V | 18:12:15 | 01:18:33 | 00:00:00 | |
| BUE01 | 2026-09-04 10:50:57 | 52.76580 | 9.33205 | 70° | 29km/h | 18988m | 4.0m/s | -53.4°C | 1.0% | 68.0hPa | 2.7V | 00:00:00 | 00:00:00 | 00:00:00 | |
| SONDE2-11 | 2026-09-04 10:50:56 | 52.76576 | 9.33181 | 75° | 29km/h | 18977m | 4.6m/s | -53.3°C | 1.0% | 68.1hPa | 2.7V | 00:00:00 | 00:00:00 | 00:00:00 | |
| DB0DAN | 2026-09-04 10:50:55 | 52.76576 | 9.33181 | 75° | 29km/h | 18977m | 4.6m/s | -53.3°C | 1% | 68.13hPa | 2.7V | 00:00:00 | 00:00:00 | 00:00:00 | |
| DM0DOS-11 | 2026-09-04 10:50:54 | 52.76564 | 9.33062 | 100° | 27km/h | 18924m | 4.2m/s | -53.9°C | 3.7% | 68.7hPa | 2.6V | 08:30:00 | 01:18:24 | 00:00:00 | |
| DL1XH-west | 2026-09-04 10:50:53 | 52.76569 | 9.33143 | 72° | 33km/h | 18962m | 4.2m/s | -53.6°C | 0.3% | 68.3hPa | 2.6V | 18:12:15 | 01:18:31 | 00:00:00 | |
| DD1CC8 | 2026-09-04 10:50:53 | 52.76569 | 9.33143 | 72° | 33km/h | 18962m | 4.2m/s | -53.6°C | 1.0% | 68.3hPa | 2.6V | 00:00:00 | 00:00:00 | 00:00:00 | |
| DD8BA-10 | 2026-09-04 10:50:52 | 52.76569 | 9.33143 | 73° | 27km/h | 18962m | 4.2m/s | -53.6°C | 3.7% | 68.3hPa | 2.6V | 00:00:00 | 00:00:00 | 08:30:00 | |
| DO2SHX-10 | 2026-09-04 10:50:51 | 52.76567 | 9.33130 | 77° | 31km/h | 18957m | 6.2m/s | -53.7°C | 3.6% | 68.3hPa | 2.7V | 00:00:00 | 01:18:30 | 00:00:00 | |
| DL1NUX | 2026-09-04 10:50:50 | 52.76564 | 9.33105 | 83° | 27km/h | 18945m | 6m/s | -54°C | 3.7% | 68.5hPa | 2.7V | 08:30:00 | 01:18:28 | 00:00:00 | |
| DO2JMG | 2026-09-04 10:50:49 | 52.76564 | 9.33105 | 84° | 27km/h | 18946m | 6m/s | -54°C | 0.3% | 68.5hPa | 2.7V | 18:12:15 | 01:18:28 | 00:00:00 | |
| DF8AY | 2026-09-04 10:50:47 | 52.76564 | 9.33062 | 101° | 27km/h | 18924m | 4.2m/s | -53.9°C | 0.3% | 68.7hPa | 2.6V | 18:12:15 | 01:18:24 | 00:00:00 | |
| HTAHTA | 2026-09-04 10:50:47 | 52.76564 | 9.33062 | 100° | 26km/h | 18924m | 4.2m/s | -53.9°C | 1.0% | 68.7hPa | 2.6V | 00:00:00 | 00:00:00 | 00:00:00 | |
| DO2SHX-10 | 2026-09-04 10:50:46 | 52.76564 | 9.33062 | 101° | 27km/h | 18925m | 4.1m/s | -53.8°C | 3.7% | 68.7hPa | 2.6V | 00:00:00 | 01:18:24 | 00:00:00 | |
| DL3AQ-11 | 2026-09-04 10:50:45 | 52.76566 | 9.33028 | 91° | 27km/h | 18909m | 5.4m/s | -53.9°C | 1.0% | 68.9hPa | 2.6V | 00:00:00 | 00:00:00 | 00:00:00 | |
| DL1NUX | 2026-09-04 10:50:44 | 52.76567 | 9.32990 | 86° | 31km/h | 18893m | 6.2m/s | -53.9°C | 3.7% | 69hPa | 2.6V | 08:30:00 | 01:18:18 | 00:00:00 | |
| DL1XH-west | 2026-09-04 10:50:41 | 52.76567 | 9.33016 | 92° | 31km/h | 18903m | 5.8m/s | -53.9°C | 0.4% | 68.9hPa | 2.6V | 18:12:15 | 01:18:20 | 00:00:00 | |
| DO2JMG | 2026-09-04 10:50:39 | 52.76567 | 9.32990 | 87° | 31km/h | 18893m | 6.2m/s | -53.9°C | 0.3% | 69hPa | 2.6V | 18:12:15 | 01:18:18 | 00:00:00 | |
| BIOWL1-15 | 2026-09-04 10:50:39 | 52.76566 | 9.32977 | 86° | 31km/h | 18888m | 4.8m/s | -53.9°C | 0.4% | 69.1hPa | 2.7V | 18:12:15 | 01:18:17 | 00:00:00 | |
| DO2SHX-10 | 2026-09-04 10:50:39 | 52.76567 | 9.32990 | 87° | 31km/h | 18893m | 6.2m/s | -53.9°C | 3.7% | 69.0hPa | 2.7V | 00:00:00 | 01:18:18 | 00:00:00 | |
| DF8AY-15 | 2026-09-04 10:50:38 | 52.76566 | 9.32977 | 86° | 35km/h | 18888m | 4.7m/s | -53.9°C | 3.8% | 69.1hPa | 2.7V | 00:00:00 | 01:18:17 | 00:00:00 | |
| DJ2DS-15 | 2026-09-04 10:50:37 | 52.76566 | 9.32964 | 89° | 37km/h | 18882m | 6.4m/s | -53.9°C | 3.8% | 69.1hPa | 2.7V | 00:00:00 | 01:18:16 | 00:00:00 | |
| DO2SHX-10 | 2026-09-04 10:50:36 | 52.76566 | 9.32951 | 92° | 33km/h | 18877m | 4.4m/s | -54.0°C | 3.8% | 69.2hPa | 2.7V | 00:00:00 | 01:18:15 | 00:00:00 | |
| DL1XH1-15 | 2026-09-04 10:50:35 | 52.76566 | 9.32924 | 86° | 31km/h | 18867m | 5.7m/s | -54°C | 3.9% | 69.3hPa | 2.6V | 08:30:00 | 01:18:13 | 00:00:00 | |
| DF8AY | 2026-09-04 10:50:35 | 52.76566 | 9.32937 | 90° | 33km/h | 18872m | 4.7m/s | -54°C | 0.4% | 69.3hPa | 2.6V | 18:12:15 | 01:18:14 | 00:00:00 | |
| AA1-15 | 2026-09-04 10:50:30 | 52.76565 | 9.32867 | 90° | 37km/h | 18845m | 5.7m/s | -54.1°C | 0.3% | 69.5hPa | 2.7V | 18:12:15 | 01:18:09 | 00:00:00 | |
| DO2SHX-10 | 2026-09-04 10:50:30 | 52.76564 | 9.32867 | 90° | 35km/h | 18845m | 5.6m/s | -54.0°C | 3.8% | 69.5hPa | 2.7V | 00:00:00 | 01:18:09 | 00:00:00 | |
| DM0DOS-11 | 2026-09-04 10:50:29 | 52.76564 | 9.32793 | 85° | 37km/h | 18818m | 5.9m/s | -53.8°C | 3.7% | 69.8hPa | 2.7V | 08:30:00 | 01:18:04 | 00:00:00 | |
| BIOWL1-15 | 2026-09-04 10:50:29 | 52.76564 | 9.32793 | 86° | 37km/h | 18818m | 5.9m/s | -53.8°C | 0.3% | 69.9hPa | 2.7V | 18:12:15 | 01:18:04 | 00:00:00 | |
| DO2JMG | 2026-09-04 10:50:28 | 52.76564 | 9.32837 | 89° | 35km/h | 18834m | 4.5m/s | -54°C | 0.3% | 69.7hPa | 2.6V | 18:12:15 | 01:18:07 | 00:00:00 | |
| BIOWL9-15 | 2026-09-04 10:50:28 | 52.76564 | 9.32823 | 91° | 35km/h | 18829m | 5.6m/s | -53.9°C | 1.0% | 69.7hPa | 2.6V | 00:00:00 | 00:00:00 | 00:00:00 | |
| DO2SHX-10 | 2026-09-04 10:50:27 | 52.76564 | 9.32823 | 92° | 37km/h | 18829m | 5.6m/s | -53.9°C | 3.7% | 69.7hPa | 2.6V | 00:00:00 | 01:18:06 | 08:30:00 | |
| DB0DAN | 2026-09-04 10:50:25 | 52.76564 | 9.32793 | 86° | 35km/h | 18818m | 5.9m/s | -53.8°C | 1% | 69.86hPa | 2.7V | 00:00:00 | 00:00:00 | 00:00:00 | |
| DF8AY | 2026-09-04 10:50:25 | 52.76560 | 9.32730 | 83° | 40km/h | 18797m | 5.1m/s | -53.7°C | 0.3% | 70.1hPa | 2.6V | 18:12:15 | 01:18:00 | 00:00:00 | |
| DM0DOS-11 | 2026-09-04 10:50:23 | 52.76547 | 9.32629 | 76° | 44km/h | 18765m | 4m/s | -53.7°C | 3.7% | 70.5hPa | 2.6V | 08:30:00 | 01:17:54 | 00:00:00 | |
| AA1-15 | 2026-09-04 10:50:20 | 52.76559 | 9.32713 | 79° | 40km/h | 18791m | 5.9m/s | -53.6°C | 0.4% | 70.1hPa | 2.7V | 18:12:15 | 01:17:59 | 00:00:00 | |
| DL1XH-west | 2026-09-04 10:50:19 | 52.76556 | 9.32697 | 76° | 40km/h | 18786m | 4.2m/s | -53.6°C | 0.4% | 70.2hPa | 2.7V | 18:12:15 | 01:17:58 | 00:00:00 | |
| BIOWL1-15 | 2026-09-04 10:50:17 | 52.76543 | 9.32594 | 85° | 40km/h | 18754m | 4.8m/s | -53.7°C | 0.3% | 70.5hPa | 2.7V | 18:12:15 | 01:17:52 | 00:00:00 | |
| DO2JMG | 2026-09-04 10:50:17 | 52.76552 | 9.32663 | 78° | 42km/h | 18776m | 4.6m/s | -53.6°C | 0.3% | 70.3hPa | 2.6V | 18:12:15 | 01:17:56 | 00:00:00 | |
| DJ2DS-15 | 2026-09-04 10:50:17 | 52.76551 | 9.32663 | 79° | 42km/h | 18776m | 4.5m/s | -53.6°C | 3.7% | 70.3hPa | 2.6V | 00:00:00 | 01:17:56 | 00:00:00 | |
| DO2SHX-10 | 2026-09-04 10:50:16 | 52.76547 | 9.32629 | 77° | 42km/h | 18765m | 4.0m/s | -53.7°C | 3.7% | 70.4hPa | 2.6V | 00:00:00 | 01:17:54 | 00:00:00 | |
| DL1NUX | 2026-09-04 10:50:14 | 52.76539 | 9.32530 | 84° | 38km/h | 18733m | 6.1m/s | -53.7°C | 3.6% | 70.8hPa | 2.6V | 08:30:00 | 01:17:48 | 00:00:00 | |
| DF8AY | 2026-09-04 10:50:12 | 52.76542 | 9.32578 | 86° | 40km/h | 18749m | 5m/s | -53.7°C | 0.3% | 70.6hPa | 2.7V | 18:12:15 | 01:17:51 | 00:00:00 | |
| DD8BA-10 | 2026-09-04 10:50:12 | 52.76542 | 9.32578 | 86° | 40km/h | 18749m | 5.0m/s | -53.6°C | 3.6% | 70.5hPa | 2.6V | 00:00:00 | 00:00:00 | 00:00:00 | |
| DB0DAN | 2026-09-04 10:50:10 | 52.76540 | 9.32546 | 83° | 37km/h | 18738m | 4.4m/s | -53.7°C | 1% | 70.71hPa | 2.6V | 00:00:00 | 00:00:00 | 00:00:00 | |
| AA1-15 | 2026-09-04 10:50:10 | 52.76540 | 9.32546 | 83° | 38km/h | 18738m | 4.4m/s | -53.7°C | 0.3% | 70.7hPa | 2.6V | 18:12:15 | 01:17:49 | 00:00:00 | |
| DO2SHX-10 | 2026-09-04 10:50:09 | 52.76539 | 9.32530 | 85° | 40km/h | 18733m | 6.0m/s | -53.6°C | 3.6% | 70.7hPa | 2.6V | 00:00:00 | 01:17:48 | 00:00:00 | |
| DM0DOS-11 | 2026-09-04 10:50:08 | 52.76533 | 9.32463 | 76° | 42km/h | 18711m | 5.6m/s | -53.5°C | 3.7% | 71hPa | 2.6V | 08:30:00 | 01:17:44 | 00:00:00 | |
| DL1XH-15 | 2026-09-04 10:50:08 | 52.76535 | 9.32480 | 77° | 42km/h | 18717m | 5.3m/s | -53.5°C | 3.7% | 71hPa | 2.6V | 08:30:00 | 01:17:45 | 00:00:00 | |
| DL1XH-west | 2026-09-04 10:50:08 | 52.76538 | 9.32513 | 86° | 40km/h | 18728m | 5.1m/s | -53.6°C | 0.3% | 70.8hPa | 2.7V | 18:12:15 | 01:17:47 | 00:00:00 | |
| DO2JMG | 2026-09-04 10:50:07 | 52.76537 | 9.32497 | 83° | 40km/h | 18722m | 5.4m/s | -53.5°C | 0.3% | 70.9hPa | 2.7V | 18:12:15 | 01:17:46 | 00:00:00 | |
| BIOWL1-15 | 2026-09-04 10:50:05 | 52.76528 | 9.32428 | 75° | 44km/h | 18701m | 3.6m/s | -53.6°C | 0.4% | 71.1hPa | 2.7V | 18:12:15 | 01:17:42 | 00:00:00 | |
| DF8AY | 2026-09-04 10:50:02 | 52.76525 | 9.32410 | 72° | 44km/h | 18696m | 6.4m/s | -53.8°C | 0.3% | 71.2hPa | 2.6V | 18:12:15 | 01:17:41 | 00:00:00 | |
| SO1NDE-10 | 2026-09-04 10:50:02 | 52.76525 | 9.32410 | 72° | 42km/h | 18696m | 6.3m/s | -53.7°C | 3.7% | 71.2hPa | 2.7V | 00:00:00 | 01:17:41 | 00:00:00 | |
| DL4BBY-15 | 2026-09-04 10:50:01 | 52.76521 | 9.32393 | 68° | 42km/h | 18691m | 4.6m/s | -54.1°C | 0% | 0hPa | 2.7V | 00:00:00 | 00:00:00 | 00:00:00 | |
| DL1NUX | 2026-09-04 10:50:00 | 52.76513 | 9.32359 | 70° | 46km/h | 18680m | 5.3m/s | -53.9°C | 3.8% | 71.4hPa | 2.7V | 08:30:00 | 01:17:38 | 00:00:00 | |
| AA1-15 | 2026-09-04 10:50:00 | 52.76517 | 9.32377 | 69° | 44km/h | 18685m | 5.4m/s | -53.9°C | 0.3% | 71.3hPa | 2.7V | 18:12:15 | 01:17:39 | 00:00:00 | |
| DL1XH-west | 2026-09-04 10:49:58 | 52.76509 | 9.32341 | 72° | 47km/h | 18675m | 4.7m/s | -53.9°C | 0.4% | 71.5hPa | 2.6V | 18:12:15 | 01:17:37 | 00:00:00 | |
| DO2JMG | 2026-09-04 10:49:57 | 52.76505 | 9.32323 | 71° | 46km/h | 18670m | 6.4m/s | -54°C | 0.4% | 71.5hPa | 2.6V | 18:12:15 | 01:17:36 | 00:00:00 | |
| BIOWL9-15 | 2026-09-04 10:49:57 | 52.76502 | 9.32305 | 72° | 44km/h | 18664m | 5.0m/s | -54.0°C | 1.0% | 71.6hPa | 2.6V | 00:00:00 | 00:00:00 | 00:00:00 | |
| DC6BW-12 | 2026-09-04 10:49:56 | 52.76505 | 9.32323 | 72° | 46km/h | 18670m | 6.4m/s | -54.0°C | 1.1% | 71.5hPa | 2.6V | 00:00:00 | 00:00:00 | 00:00:00 | |
| DL1XH1-15 | 2026-09-04 10:49:55 | 52.76495 | 9.32250 | 79° | 42km/h | 18648m | 5.5m/s | -54°C | 3.8% | 71.7hPa | 2.6V | 08:30:00 | 01:17:32 | 00:00:00 | |
| DB0DAN | 2026-09-04 10:49:55 | 52.76499 | 9.32286 | 77° | 44km/h | 18658m | 6.4m/s | -54°C | 1% | 71.6hPa | 2.7V | 00:00:00 | 00:00:00 | 00:00:00 | |
| BIOWL1-15 | 2026-09-04 10:49:52 | 52.76450 | 9.32110 | 54° | 47km/h | 18600m | 4.4m/s | -53.7°C | 0.3% | 72.3hPa | 2.7V | 18:12:15 | 01:17:23 | 00:00:00 | |
| DF8AY | 2026-09-04 10:49:51 | 52.76490 | 9.32218 | 72° | 40km/h | 18637m | 4.9m/s | -53.9°C | 0.4% | 71.9hPa | 2.7V | 18:12:15 | 01:17:30 | 00:00:00 | |
| AA1-15 | 2026-09-04 10:49:50 | 52.76477 | 9.32171 | 58° | 42km/h | 18620m | 6.5m/s | -53.8°C | 0.4% | 72hPa | 2.6V | 18:12:15 | 01:17:27 | 00:00:00 | |
| DL1NUX | 2026-09-04 10:49:50 | 52.76482 | 9.32186 | 63° | 42km/h | 18626m | 5.3m/s | -53.9°C | 3.9% | 72hPa | 2.7V | 08:30:00 | 01:17:28 | 00:00:00 | |
| SONCRA | 2026-09-04 10:49:50 | 52.76482 | 9.32186 | 63° | 42km/h | 18626m | 5.4m/s | -53.9°C | 1.1% | 72.0hPa | 2.7V | 00:00:00 | 00:00:00 | 00:00:00 | |
| DO2SHX-10 | 2026-09-04 10:49:49 | 52.76477 | 9.32171 | 59° | 44km/h | 18620m | 6.5m/s | -53.8°C | 3.9% | 72.0hPa | 2.7V | 00:00:00 | 01:17:27 | 00:00:00 | |
| DO2JMG | 2026-09-04 10:49:49 | 52.76471 | 9.32156 | 53° | 44km/h | 18615m | 4.1m/s | -53.7°C | 0.4% | 72.1hPa | 2.6V | 18:12:15 | 01:17:26 | 00:00:00 | |
| DL4XJ-10 | 2026-09-04 10:49:48 | 52.76477 | 9.32171 | 59° | 40km/h | 18620m | 6.5m/s | -54.1°C | 0% | 0hPa | 2.7V | 00:00:00 | 00:00:00 | 00:00:00 | |
| DF5WG-10 | 2026-09-04 10:49:46 | 52.76464 | 9.32141 | 53° | 40km/h | 18610m | 6.1m/s | -53.7°C | 3.8% | 72.1hPa | 2.7V | 00:00:00 | 01:17:25 | 00:00:00 | |
| DO2SHX-10 | 2026-09-04 10:49:45 | 52.76457 | 9.32125 | 54° | 46km/h | 18604m | 4.5m/s | -53.6°C | 3.7% | 72.2hPa | 2.7V | 00:00:00 | 01:17:24 | 00:00:00 | |
| DL1NUX | 2026-09-04 10:49:44 | 52.76422 | 9.32037 | 61° | 37km/h | 18574m | 5.8m/s | -53.6°C | 3.8% | 72.5hPa | 2.7V | 08:30:00 | 01:17:18 | 00:00:00 | |
| BIOWL1-15 | 2026-09-04 10:49:43 | 52.76437 | 9.32080 | 55° | 42km/h | 18589m | 4.8m/s | -53.7°C | 0.4% | 72.4hPa | 2.6V | 18:12:15 | 01:17:21 | 00:00:00 | |
| HSKMA3-T | 2026-09-04 10:49:42 | 52.76991 | 8.93498 | 94° | 166km/h | 13187m | 4.9m/s | -65.2°C | 64.2% | 169.6hPa | 2.7V | 18:12:15 | 00:58:52 | 00:00:00 | |
| DO2SHX-10 | 2026-09-04 10:49:42 | 52.76437 | 9.32080 | 56° | 40km/h | 18589m | 4.7m/s | -53.6°C | 3.7% | 72.3hPa | 2.6V | 00:00:00 | 01:17:21 | 00:00:00 | |
| DB0DAN | 2026-09-04 10:49:40 | 52.76426 | 9.32051 | 62° | 37km/h | 18578m | 4.1m/s | -53.7°C | 1.1% | 72.5hPa | 2.6V | 00:00:00 | 00:00:00 | 00:00:00 | |
| DF8AY | 2026-09-04 10:49:40 | 52.76426 | 9.32051 | 62° | 38km/h | 18578m | 4.1m/s | -53.7°C | 0.4% | 72.5hPa | 2.6V | 18:12:15 | 01:17:19 | 00:00:00 | |
| AA1-15 | 2026-09-04 10:49:39 | 52.76422 | 9.32037 | 62° | 37km/h | 18574m | 5.8m/s | -53.6°C | 0.4% | 72.6hPa | 2.7V | 18:12:15 | 01:17:18 | 00:00:00 | |
| DO2SHX-10 | 2026-09-04 10:49:39 | 52.76422 | 9.32037 | 62° | 35km/h | 18574m | 5.7m/s | -53.6°C | 3.8% | 72.5hPa | 2.7V | 00:00:00 | 01:17:18 | 00:00:00 | |
| HSKMA3-T | 2026-09-04 10:49:38 | 52.76995 | 8.93429 | 95° | 166km/h | 13182m | 4.7m/s | -65.2°C | 64% | 169.7hPa | 2.7V | 18:12:15 | 00:58:51 | 00:00:00 | |
| DM0DOS-11 | 2026-09-04 10:49:38 | 52.76403 | 9.31988 | 56° | 38km/h | 18553m | 5m/s | -53.5°C | 3.7% | 72.8hPa | 2.6V | 08:30:00 | 01:17:14 | 00:00:00 | |
| DL3AQ-11 | 2026-09-04 10:49:38 | 52.76413 | 9.32013 | 56° | 33km/h | 18564m | 4.0m/s | -53.5°C | 1.1% | 72.7hPa | 2.7V | 00:00:00 | 00:00:00 | 00:00:00 | |
| DJ2DS-15 | 2026-09-04 10:49:37 | 52.76413 | 9.32013 | 57° | 35km/h | 18564m | 3.9m/s | -53.4°C | 3.8% | 72.6hPa | 2.7V | 00:00:00 | 01:17:16 | 00:00:00 | |
| DL1XH1-15 | 2026-09-04 10:49:36 | 52.76391 | 9.31962 | 49° | 40km/h | 18543m | 5.1m/s | -53.4°C | 3.7% | 72.9hPa | 2.7V | 08:30:00 | 01:17:12 | 00:00:00 | |
| DL1XH-west | 2026-09-04 10:49:36 | 52.76408 | 9.32001 | 57° | 35km/h | 18559m | 5.5m/s | -53.5°C | 0.4% | 72.8hPa | 2.6V | 18:12:15 | 01:17:15 | 00:00:00 | |
| BIOWL1-15 | 2026-09-04 10:49:31 | 52.76356 | 9.31886 | 58° | 31km/h | 18512m | 5.1m/s | -53.2°C | 0.3% | 73.3hPa | 2.7V | 18:12:15 | 01:17:06 | 00:00:00 | |
| DF8AY | 2026-09-04 10:49:30 | 52.76372 | 9.31922 | 54° | 40km/h | 18528m | 3.5m/s | -53.3°C | 0.3% | 73.1hPa | 2.6V | 18:12:15 | 01:17:09 | 00:00:00 | |
| AA1-15 | 2026-09-04 10:49:29 | 52.76366 | 9.31909 | 54° | 38km/h | 18523m | 6.2m/s | -53.2°C | 0.3% | 73.1hPa | 2.6V | 18:12:15 | 01:17:08 | 00:00:00 | |
| DL1XH-15 | 2026-09-04 10:49:28 | 52.76352 | 9.31874 | 60° | 31km/h | 18507m | 4.6m/s | -53.2°C | 3.6% | 73.3hPa | 2.7V | 08:30:00 | 01:17:05 | 00:00:00 | |
| DO2JMG | 2026-09-04 10:49:26 | 52.76352 | 9.31874 | 60° | 31km/h | 18507m | 4.6m/s | -53.2°C | 0.3% | 73.3hPa | 2.7V | 18:12:15 | 01:17:05 | 00:00:00 | |
| DB0DAN | 2026-09-04 10:49:25 | 52.76348 | 9.31863 | 58° | 29km/h | 18503m | 5.1m/s | -53.1°C | 1% | 73.39hPa | 2.7V | 00:00:00 | 00:00:00 | 00:00:00 | |
| DL1XH-west | 2026-09-04 10:49:25 | 52.76348 | 9.31863 | 58° | 31km/h | 18503m | 5.1m/s | -53.1°C | 0.3% | 73.4hPa | 2.7V | 18:12:15 | 01:17:04 | 00:00:00 | |
| DL1XH1-15 | 2026-09-04 10:49:24 | 52.76339 | 9.31843 | 52° | 31km/h | 18492m | 4m/s | -52.9°C | 3.6% | 73.5hPa | 2.6V | 08:30:00 | 01:17:02 | 00:00:00 | |
| DO2SHX-10 | 2026-09-04 10:49:23 | 52.76339 | 9.31843 | 53° | 33km/h | 18493m | 3.9m/s | -52.9°C | 3.6% | 73.5hPa | 2.6V | 00:00:00 | 01:17:02 | 00:00:00 | |
| SP3BTT-10 | 2026-09-04 10:49:22 | 52.76334 | 9.31832 | 55° | 27km/h | 18488m | 6.0m/s | 0°C | 0% | 0hPa | 2.7V | 00:00:00 | 00:00:00 | 00:00:00 | |
| DL1NUX | 2026-09-04 10:49:21 | 52.76320 | 9.31798 | 52° | 35km/h | 18472m | 5.3m/s | -53°C | 3.6% | 73.7hPa | 2.7V | 08:30:00 | 01:16:58 | 00:00:00 | |
| BIOWL1-15 | 2026-09-04 10:49:21 | 52.76287 | 9.31722 | 56° | 31km/h | 18437m | 5.3m/s | -52.9°C | 0.4% | 74.2hPa | 2.6V | 18:12:15 | 01:16:51 | 00:00:00 | |
| DM0DOS-11 | 2026-09-04 10:49:20 | 52.76292 | 9.31733 | 53° | 31km/h | 18442m | 4.5m/s | -52.9°C | 3.7% | 74.1hPa | 2.7V | 08:30:00 | 01:16:52 | 00:00:00 | |
| DF8AY | 2026-09-04 10:49:20 | 52.76325 | 9.31809 | 56° | 35km/h | 18477m | 5m/s | -53°C | 0.2% | 73.7hPa | 2.7V | 18:12:15 | 01:16:59 | 00:00:00 | |
| AA1-15 | 2026-09-04 10:49:18 | 52.76315 | 9.31787 | 53° | 33km/h | 18467m | 5.5m/s | -52.9°C | 0.3% | 73.8hPa | 2.6V | 18:12:15 | 01:16:57 | 00:00:00 | |
| DL1XH-15 | 2026-09-04 10:49:18 | 52.76306 | 9.31764 | 57° | 31km/h | 18456m | 3.7m/s | -52.9°C | 3.7% | 73.9hPa | 2.6V | 08:30:00 | 01:16:55 | 00:00:00 | |
| DL1XH-west | 2026-09-04 10:49:16 | 52.76292 | 9.31733 | 54° | 31km/h | 18442m | 4.5m/s | -52.9°C | 0.4% | 74.1hPa | 2.7V | 18:12:15 | 01:16:52 | 00:00:00 | |
| DO2JMG | 2026-09-04 10:49:15 | 52.76301 | 9.31753 | 56° | 31km/h | 18451m | 5.3m/s | -52.9°C | 0.3% | 73.9hPa | 2.7V | 18:12:15 | 01:16:54 | 00:00:00 | |
| DO2SHX-10 | 2026-09-04 10:49:15 | 52.76297 | 9.31743 | 52° | 31km/h | 18446m | 4.7m/s | -52.8°C | 3.7% | 74.0hPa | 2.7V | 00:00:00 | 01:16:53 | 00:00:00 | |
| DL3AQ-11 | 2026-09-04 10:49:14 | 52.76292 | 9.31733 | 53° | 29km/h | 18442m | 4.5m/s | -52.9°C | 1.0% | 74.1hPa | 2.6V | 00:00:00 | 00:00:00 | 00:00:00 | |
| DD8BA-10 | 2026-09-04 10:49:12 | 52.76287 | 9.31722 | 56° | 31km/h | 18437m | 5.3m/s | -52.8°C | 3.7% | 74.1hPa | 2.6V | 00:00:00 | 00:00:00 | 00:00:00 | |
| DL1XH-15 | 2026-09-04 10:49:11 | 52.76261 | 9.31654 | 64° | 33km/h | 18407m | 5.3m/s | -52.7°C | 3.6% | 74.5hPa | 2.6V | 08:30:00 | 01:16:45 | 00:00:00 | |
| DD1CC3-15 | 2026-09-04 10:49:11 | 52.76287 | 9.31722 | 57° | 31km/h | 18437m | 5.3m/s | -52.9°C | 1.1% | 74.2hPa | 2.6V | 00:00:00 | 00:00:00 | 00:00:00 | |
| DB0DAN | 2026-09-04 10:49:10 | 52.76279 | 9.31699 | 58° | 31km/h | 18427m | 4.5m/s | -52.9°C | 1% | 74.28hPa | 2.6V | 00:00:00 | 00:00:00 | 00:00:00 | |
| DL1NUX | 2026-09-04 10:49:09 | 52.76274 | 9.31688 | 54° | 33km/h | 18422m | 5.7m/s | -52.9°C | 3.6% | 74.3hPa | 2.7V | 08:30:00 | 01:16:48 | 00:00:00 | |
| BIOWL1-15 | 2026-09-04 10:49:09 | 52.76274 | 9.31688 | 55° | 33km/h | 18422m | 5.7m/s | -52.9°C | 0.3% | 74.3hPa | 2.7V | 18:12:15 | 01:16:48 | 00:00:00 | |
| AA1-15 | 2026-09-04 10:49:08 | 52.76270 | 9.31677 | 54° | 33km/h | 18417m | 4.1m/s | -52.7°C | 0.3% | 74.4hPa | 2.7V | 18:12:15 | 01:16:47 | 00:00:00 | |
| DM0DOS-11 | 2026-09-04 10:49:08 | 52.76258 | 9.31642 | 67° | 31km/h | 18403m | 3.8m/s | -52.6°C | 3.6% | 74.5hPa | 2.6V | 08:30:00 | 01:16:44 | 00:00:00 | |
| DO2JMG | 2026-09-04 10:49:04 | 52.76255 | 9.31630 | 67° | 31km/h | 18398m | 6.1m/s | -52.6°C | 0.2% | 74.6hPa | 2.6V | 18:12:15 | 01:16:43 | 00:00:00 | |
| DL1XH-west | 2026-09-04 10:49:02 | 52.76250 | 9.31608 | 74° | 27km/h | 18388m | 5.7m/s | -52.6°C | 0.3% | 74.7hPa | 2.7V | 18:12:15 | 01:16:41 | 00:00:00 | |
| DD8BA-10 | 2026-09-04 10:49:02 | 52.76249 | 9.31608 | 74° | 27km/h | 18388m | 5.6m/s | -52.6°C | 3.7% | 74.7hPa | 2.7V | 00:00:00 | 00:00:00 | 00:00:00 | |
| DL4BBY-15 | 2026-09-04 10:49:01 | 52.76248 | 9.31596 | 79° | 26km/h | 18383m | 4.9m/s | -52.7°C | 0% | 0hPa | 2.7V | 00:00:00 | 00:00:00 | 00:00:00 | |
| DF2AP-13 | 2026-09-04 10:49:00 | 52.76247 | 9.31586 | 78° | 26km/h | 18379m | 4.0m/s | -52.4°C | 3.6% | 74.8hPa | 2.7V | 00:00:00 | 01:16:39 | 00:00:00 | |
| DL1XH-15 | 2026-09-04 10:48:59 | 52.76238 | 9.31546 | 70° | 26km/h | 18358m | 5.4m/s | -52.2°C | 3.6% | 75hPa | 2.7V | 08:30:00 | 01:16:35 | 00:00:00 | |
| DF8AY | 2026-09-04 10:48:58 | 52.76243 | 9.31566 | 66° | 26km/h | 18368m | 4.6m/s | -52.4°C | 0.3% | 75hPa | 2.6V | 18:12:15 | 01:16:37 | 00:00:00 | |
| AA1-15 | 2026-09-04 10:48:57 | 52.76240 | 9.31556 | 67° | 26km/h | 18364m | 4.6m/s | -52.3°C | 0.4% | 75hPa | 2.7V | 18:12:15 | 01:16:36 | 00:00:00 | |
| DJ2DS-15 | 2026-09-04 10:48:57 | 52.76240 | 9.31556 | 67° | 27km/h | 18364m | 4.6m/s | -52.3°C | 3.6% | 75.0hPa | 2.7V | 00:00:00 | 01:16:36 | 00:00:00 | |
| DO3DL | 2026-09-04 10:48:56 | 52.76240 | 9.31556 | 68° | 26km/h | 18364m | 4.6m/s | -52.3°C | 1.0% | 75.0hPa | 2.6V | 00:00:00 | 00:00:00 | 00:00:00 | |
| DM0DOS-11 | 2026-09-04 10:48:55 | 52.76236 | 9.31536 | 72° | 27km/h | 18354m | 3.5m/s | -52.2°C | 3.5% | 75.1hPa | 2.6V | 08:30:00 | 01:16:34 | 00:00:00 | |
| DL1NUX | 2026-09-04 10:48:54 | 52.76224 | 9.31469 | 81° | 26km/h | 18325m | 5m/s | -52°C | 3.4% | 75.5hPa | 2.7V | 08:30:00 | 01:16:28 | 00:00:00 | |
| DO2JMG | 2026-09-04 10:48:54 | 52.76234 | 9.31525 | 72° | 27km/h | 18350m | 5.3m/s | -52.3°C | 0.3% | 75.2hPa | 2.6V | 18:12:15 | 01:16:33 | 00:00:00 | |
| DL1XH-west | 2026-09-04 10:48:52 | 52.76229 | 9.31502 | 70° | 29km/h | 18340m | 4.2m/s | -52.2°C | 0.2% | 75.3hPa | 2.7V | 18:12:15 | 01:16:31 | 00:00:00 | |
| SONDE2-11 | 2026-09-04 10:48:52 | 52.76226 | 9.31491 | 74° | 27km/h | 18335m | 6.1m/s | -52.2°C | 0.9% | 75.3hPa | 2.7V | 00:00:00 | 00:00:00 | 00:00:00 | |
| GOEST3-10 | 2026-09-04 10:48:51 | 52.76226 | 9.31491 | 75° | 26km/h | 18335m | 6.0m/s | -52.1°C | 3.4% | 75.3hPa | 2.7V | 00:00:00 | 01:16:30 | 00:00:00 | |
| DO2SHX-10 | 2026-09-04 10:48:50 | 52.76225 | 9.31480 | 82° | 26km/h | 18329m | 4.3m/s | -52.0°C | 3.4% | 75.3hPa | 2.7V | 00:00:00 | 01:16:29 | 00:00:00 | |
| DM0DOS-11 | 2026-09-04 10:48:49 | 52.76222 | 9.31426 | 90° | 27km/h | 18304m | 4m/s | -52°C | 3.5% | 75.7hPa | 2.7V | 08:30:00 | 01:16:24 | 00:00:00 | |
| DL1XH1-15 | 2026-09-04 10:48:48 | 52.76220 | 9.31402 | 79° | 29km/h | 18293m | 4.4m/s | -51.9°C | 3.5% | 75.8hPa | 2.6V | 08:30:00 | 01:16:22 | 00:00:00 | |
| AA1-15 | 2026-09-04 10:48:47 | 52.76222 | 9.31448 | 84° | 26km/h | 18314m | 5.3m/s | -52.1°C | 0.3% | 75.6hPa | 2.6V | 18:12:15 | 01:16:26 | 00:00:00 | |
| SONCRA | 2026-09-04 10:48:47 | 52.76222 | 9.31437 | 88° | 26km/h | 18309m | 5.5m/s | -52.0°C | 1.0% | 75.7hPa | 2.6V | 00:00:00 | 00:00:00 | 00:00:00 | |
| DL3AQ-11 | 2026-09-04 10:48:45 | 52.76221 | 9.31414 | 85° | 27km/h | 18299m | 6.3m/s | -51.9°C | 1.0% | 75.7hPa | 2.6V | 00:00:00 | 00:00:00 | 00:00:00 | |
| DL1NUX | 2026-09-04 10:48:44 | 52.76214 | 9.31360 | 67° | 26km/h | 18273m | 6.4m/s | -51.9°C | 3.4% | 76hPa | 2.6V | 08:30:00 | 01:16:18 | 00:00:00 | |
| BIOWL1-15 | 2026-09-04 10:48:44 | 52.76221 | 9.31414 | 86° | 29km/h | 18299m | 6.3m/s | -51.9°C | 0.2% | 75.7hPa | 2.7V | 18:12:15 | 01:16:23 | 00:00:00 | |
| DO2JMG | 2026-09-04 10:48:43 | 52.76221 | 9.31402 | 79° | 29km/h | 18293m | 4.4m/s | -51.9°C | 0.2% | 75.8hPa | 2.6V | 18:12:15 | 01:16:22 | 00:00:00 | |
| DL1XH-west | 2026-09-04 10:48:42 | 52.76218 | 9.31380 | 78° | 26km/h | 18283m | 4.2m/s | -51.8°C | 0.3% | 75.9hPa | 2.7V | 18:12:15 | 01:16:20 | 00:00:00 | |
| DB0DAN | 2026-09-04 10:48:40 | 52.76216 | 9.31370 | 73° | 24km/h | 18279m | 4.8m/s | -51.9°C | 1% | 75.94hPa | 2.7V | 00:00:00 | 00:00:00 | 00:00:00 | |
| DL1XH-15 | 2026-09-04 10:48:39 | 52.76210 | 9.31332 | 91° | 22km/h | 18257m | 4.8m/s | -51.8°C | 3.3% | 76.2hPa | 2.7V | 08:30:00 | 01:16:15 | 00:00:00 | |
| DF8AY | 2026-09-04 10:48:37 | 52.76210 | 9.31341 | 78° | 22km/h | 18262m | 6.3m/s | -51.8°C | 0.1% | 76.2hPa | 2.6V | 18:12:15 | 01:16:16 | 00:00:00 | |
| DJ2DS-15 | 2026-09-04 10:48:37 | 52.76210 | 9.31341 | 78° | 31km/h | 18262m | 6.2m/s | -51.8°C | 3.3% | 76.1hPa | 2.6V | 00:00:00 | 01:16:16 | 00:00:00 | |
| DL1XH1-15 | 2026-09-04 10:48:36 | 52.76212 | 9.31302 | 101° | 27km/h | 18241m | 5.2m/s | -51.8°C | 3.3% | 76.5hPa | 2.6V | 08:30:00 | 01:16:12 | 00:00:00 | |
| AA1-15 | 2026-09-04 10:48:36 | 52.76210 | 9.31332 | 91° | 22km/h | 18257m | 4.8m/s | -51.8°C | 0.1% | 76.2hPa | 2.7V | 18:12:15 | 01:16:15 | 00:00:00 | |
| DF5WG-10 | 2026-09-04 10:48:36 | 52.76210 | 9.31332 | 92° | 29km/h | 18257m | 4.7m/s | -51.8°C | 3.3% | 76.2hPa | 2.7V | 00:00:00 | 01:16:15 | 00:00:00 | |
| DO2SHX-10 | 2026-09-04 10:48:35 | 52.76210 | 9.31323 | 96° | 26km/h | 18252m | 4.9m/s | -51.7°C | 3.3% | 76.2hPa | 2.7V | 00:00:00 | 01:16:14 | 00:00:00 | |
| DL1NUX | 2026-09-04 10:48:34 | 52.76218 | 9.31254 | 94° | 35km/h | 18221m | 4m/s | -51.7°C | 3.3% | 76.7hPa | 2.7V | 08:30:00 | 01:16:08 | 00:00:00 | |
| BIOWL1-15 | 2026-09-04 10:48:33 | 52.76216 | 9.31279 | 105° | 31km/h | 18231m | 3.6m/s | -51.8°C | 0.1% | 76.6hPa | 2.6V | 18:12:15 | 01:16:10 | 00:00:00 | |
| DO2JMG | 2026-09-04 10:48:32 | 52.76214 | 9.31291 | 106° | 27km/h | 18235m | 5.8m/s | -51.7°C | 0% | 76.5hPa | 2.6V | 18:12:15 | 01:16:11 | 00:00:00 | |
| DL1XH-west | 2026-09-04 10:48:30 | 52.76217 | 9.31267 | 100° | 31km/h | 18226m | 5.8m/s | -51.7°C | 0.1% | 76.6hPa | 2.7V | 18:12:15 | 01:16:09 | 00:00:00 | |
| DO2SHX-10 | 2026-09-04 10:48:29 | 52.76218 | 9.31253 | 95° | 35km/h | 18221m | 4.0m/s | -51.6°C | 3.3% | 76.6hPa | 2.7V | 00:00:00 | 01:16:08 | 00:00:00 | |
| DL4XJ-10 | 2026-09-04 10:48:28 | 52.76219 | 9.31239 | 96° | 38km/h | 18216m | 5.7m/s | -52.0°C | 0% | 0hPa | 2.6V | 00:00:00 | 00:00:00 | 00:00:00 | |
| DM0DOS-11 | 2026-09-04 10:48:27 | 52.76223 | 9.31197 | 95° | 33km/h | 18201m | 5.8m/s | -51.8°C | 3.3% | 76.9hPa | 2.6V | 08:30:00 | 01:16:04 | 00:00:00 | |
| AA1-15 | 2026-09-04 10:48:26 | 52.76222 | 9.31211 | 99° | 35km/h | 18206m | 3.9m/s | -51.8°C | 0.2% | 76.8hPa | 2.6V | 18:12:15 | 01:16:05 | 00:00:00 | |
| DB0DAN | 2026-09-04 10:48:25 | 52.76223 | 9.31197 | 96° | 33km/h | 18201m | 5.8m/s | -51.8°C | 0.9% | 76.87hPa | 2.6V | 00:00:00 | 00:00:00 | 00:00:00 | |
| DL1NUX | 2026-09-04 10:48:24 | 52.76229 | 9.31116 | 104° | 33km/h | 18170m | 4.3m/s | -52.7°C | 3.4% | 77.3hPa | 2.6V | 08:30:00 | 01:15:58 | 00:00:00 | |
| DL1XH1-15 | 2026-09-04 10:48:24 | 52.76223 | 9.31169 | 92° | 33km/h | 18190m | 5m/s | -52.1°C | 3.3% | 77hPa | 2.7V | 08:30:00 | 01:16:02 | 00:00:00 | |
| BIOWL1-15 | 2026-09-04 10:48:21 | 52.76225 | 9.31143 | 102° | 33km/h | 18180m | 4.3m/s | -52.4°C | 0.1% | 77.1hPa | 2.6V | 18:12:15 | 01:16:00 | 00:00:00 | |
| DL1XH-west | 2026-09-04 10:48:19 | 52.76229 | 9.31116 | 105° | 33km/h | 18170m | 4.3m/s | -52.7°C | 0.2% | 77.3hPa | 2.6V | 18:12:15 | 01:15:58 | 00:00:00 | |
| DL1XH1-15 | 2026-09-04 10:48:18 | 52.76248 | 9.31027 | 103° | 46km/h | 18142m | 5m/s | -53.2°C | 3.6% | 77.6hPa | 2.6V | 08:30:00 | 01:15:52 | 00:00:00 | |
| AA1-15 | 2026-09-04 10:48:16 | 52.76239 | 9.31075 | 115° | 38km/h | 18156m | 3.6m/s | -53.1°C | 0.3% | 77.4hPa | 2.7V | 18:12:15 | 01:15:55 | 00:00:00 | |
| DO2JMG | 2026-09-04 10:48:10 | 52.76255 | 9.30965 | 95° | 55km/h | 18128m | 6m/s | -53.2°C | 0.3% | 77.8hPa | 2.7V | 18:12:15 | 01:15:49 | 00:00:00 | |
| DB0DAN | 2026-09-04 10:48:10 | 52.76255 | 9.30965 | 95° | 51km/h | 18128m | 6m/s | -53.2°C | 1% | 77.77hPa | 2.7V | 00:00:00 | 00:00:00 | 00:00:00 | |
| DL1XH-west | 2026-09-04 10:48:10 | 52.76256 | 9.30919 | 92° | 55km/h | 18118m | 5m/s | -53.2°C | 0.4% | 77.9hPa | 2.6V | 18:12:15 | 01:15:47 | 00:00:00 | |
| AA1-15 | 2026-09-04 10:48:05 | 52.76258 | 9.30855 | 91° | 47km/h | 18104m | 5.5m/s | -53.2°C | 0.3% | 78.1hPa | 2.7V | 18:12:15 | 01:15:44 | 00:00:00 | |
| DO2SHX-10 | 2026-09-04 10:48:05 | 52.76258 | 9.30855 | 91° | 46km/h | 18104m | 5.5m/s | -53.2°C | 3.6% | 78.0hPa | 2.6V | 00:00:00 | 01:15:44 | 00:00:00 | |
| SMARD9-10 | 2026-09-04 10:48:04 | 52.76258 | 9.30855 | 92° | 47km/h | 18104m | 5.5m/s | -53.2°C | 1.0% | 78.1hPa | 2.6V | 00:00:00 | 00:00:00 | 00:00:00 | |
| SO1NDE-10 | 2026-09-04 10:48:02 | 52.76260 | 9.30799 | 94° | 40km/h | 18090m | 4.1m/s | -53.2°C | 3.7% | 78.2hPa | 2.6V | 00:00:00 | 01:15:41 | 00:00:00 | |
| DL1XH-15 | 2026-09-04 10:48:01 | 52.76258 | 9.30687 | 86° | 46km/h | 18061m | 5m/s | -53.3°C | 3.7% | 78.6hPa | 2.6V | 08:30:00 | 01:15:35 | 00:00:00 | |
| DO2JMG | 2026-09-04 10:48:00 | 52.76260 | 9.30763 | 88° | 44km/h | 18080m | 4.3m/s | -53.3°C | 0.3% | 78.4hPa | 2.7V | 18:12:15 | 01:15:39 | 00:00:00 | |
| DL1XH-west | 2026-09-04 10:47:59 | 52.76260 | 9.30744 | 88° | 46km/h | 18074m | 6m/s | -53.3°C | 0.4% | 78.5hPa | 2.7V | 18:12:15 | 01:15:38 | 00:00:00 | |
| BIOWL1-15 | 2026-09-04 10:47:57 | 52.76256 | 9.30631 | 86° | 46km/h | 18046m | 4.2m/s | -53.3°C | 0.3% | 78.8hPa | 2.7V | 18:12:15 | 01:15:32 | 00:00:00 | |
| DJ2DS-15 | 2026-09-04 10:47:57 | 52.76259 | 9.30706 | 88° | 38km/h | 18066m | 4.1m/s | -53.2°C | 3.7% | 78.5hPa | 2.6V | 00:00:00 | 01:15:36 | 08:30:00 | |
| BIOWL7-15 | 2026-09-04 10:47:56 | 52.76259 | 9.30706 | 89° | 46km/h | 18066m | 4.1m/s | -53.3°C | 1.1% | 78.6hPa | 2.6V | 00:00:00 | 00:00:00 | 00:00:00 | |
| DB0DAN | 2026-09-04 10:47:55 | 52.76257 | 9.30668 | 86° | 42km/h | 18056m | 4.7m/s | -53.3°C | 1.1% | 78.66hPa | 2.6V | 00:00:00 | 00:00:00 | 00:00:00 | |
| D01LWL | 2026-09-04 10:47:55 | 52.76257 | 9.30650 | 86° | 44km/h | 18051m | 5.9m/s | -53.3°C | 1.1% | 78.8hPa | 2.7V | 00:00:00 | 00:00:00 | 00:00:00 | |
| DL1XH1-15 | 2026-09-04 10:47:54 | 52.76256 | 9.30631 | 86° | 46km/h | 18046m | 4.2m/s | -53.3°C | 3.7% | 78.8hPa | 2.7V | 08:30:00 | 01:15:32 | 00:00:00 | |
| DL1NUX | 2026-09-04 10:47:54 | 52.76252 | 9.30562 | 85° | 40km/h | 18025m | 5.1m/s | -53.2°C | 3.7% | 79.1hPa | 2.7V | 08:30:00 | 01:15:28 | 00:00:00 | |
| AA1-15 | 2026-09-04 10:47:54 | 52.76257 | 9.30650 | 87° | 46km/h | 18051m | 5.9m/s | -53.3°C | 0.4% | 78.8hPa | 2.7V | 18:12:15 | 01:15:33 | 00:00:00 | |
| BIOWL1-15 | 2026-09-04 10:47:51 | 52.76250 | 9.30531 | 85° | 35km/h | 18015m | 5m/s | -53.2°C | 0.3% | 79.2hPa | 2.6V | 18:12:15 | 01:15:26 | 00:00:00 | |
| DL1XH-15 | 2026-09-04 10:47:51 | 52.76250 | 9.30516 | 86° | 35km/h | 18010m | 4.3m/s | -53.2°C | 3.7% | 79.2hPa | 2.7V | 08:30:00 | 01:15:25 | 00:00:00 | |
| DO2JMG | 2026-09-04 10:47:50 | 52.76253 | 9.30579 | 84° | 40km/h | 18030m | 5.2m/s | -53.3°C | 0.3% | 79hPa | 2.7V | 18:12:15 | 01:15:29 | 00:00:00 | |
| DL1XH-west | 2026-09-04 10:47:49 | 52.76252 | 9.30562 | 85° | 40km/h | 18025m | 5.1m/s | -53.2°C | 0.3% | 79.1hPa | 2.7V | 18:12:15 | 01:15:28 | 00:00:00 | |
| DL1XH1-15 | 2026-09-04 10:47:48 | 52.76248 | 9.30472 | 85° | 35km/h | 17995m | 5.6m/s | -53.2°C | 3.7% | 79.4hPa | 2.6V | 08:30:00 | 01:15:22 | 00:00:00 | |
| AA1-15 | 2026-09-04 10:47:44 | 52.76249 | 9.30486 | 87° | 35km/h | 18000m | 4.5m/s | -53.2°C | 0.4% | 79.4hPa | 2.6V | 18:12:15 | 01:15:23 | 00:00:00 | |
| DF8AY | 2026-09-04 10:47:43 | 52.76248 | 9.30472 | 85° | 35km/h | 17995m | 5.6m/s | -53.3°C | 0.4% | 79.4hPa | 2.6V | 18:12:15 | 01:15:22 | 00:00:00 | |
| DD8BA-10 | 2026-09-04 10:47:42 | 52.76247 | 9.30458 | 84° | 35km/h | 17990m | 5.2m/s | -53.3°C | 3.8% | 79.4hPa | 2.7V | 00:00:00 | 00:00:00 | 00:00:00 | |
| DL1XH-15 | 2026-09-04 10:47:41 | 52.76236 | 9.30373 | 77° | 35km/h | 17962m | 4.6m/s | -53.3°C | 3.7% | 79.8hPa | 2.7V | 08:30:00 | 01:15:15 | 00:00:00 | |
| DB0DAN | 2026-09-04 10:47:40 | 52.76245 | 9.30428 | 79° | 35km/h | 17981m | 4m/s | -53.4°C | 1.1% | 79.58hPa | 2.6V | 00:00:00 | 00:00:00 | 00:00:00 | |
| DO2JMG | 2026-09-04 10:47:39 | 52.76243 | 9.30414 | 76° | 33km/h | 17976m | 5.3m/s | -53.3°C | 0.3% | 79.7hPa | 2.6V | 18:12:15 | 01:15:18 | 00:00:00 | |
| BIOWL1-15 | 2026-09-04 10:47:36 | 52.76234 | 9.30360 | 76° | 33km/h | 17957m | 5.6m/s | -53.2°C | 0.3% | 79.9hPa | 2.7V | 18:12:15 | 01:15:14 | 00:00:00 | |
| AA1-15 | 2026-09-04 10:47:34 | 52.76232 | 9.30346 | 77° | 33km/h | 17952m | 4.5m/s | -53.2°C | 0.4% | 79.9hPa | 2.6V | 18:12:15 | 01:15:13 | 00:00:00 | |
| DF8AY | 2026-09-04 10:47:32 | 52.76229 | 9.30318 | 81° | 38km/h | 17942m | 4.3m/s | -53.1°C | 0.3% | 80.1hPa | 2.6V | 18:12:15 | 01:15:11 | 00:00:00 | |
| DO2SHX-10 | 2026-09-04 10:47:32 | 52.76229 | 9.30318 | 81° | 37km/h | 17943m | 4.3m/s | -53.1°C | 3.6% | 80.0hPa | 2.6V | 00:00:00 | 01:15:11 | 00:00:00 | |
| DL1XH-15 | 2026-09-04 10:47:31 | 52.76218 | 9.30225 | 79° | 38km/h | 17914m | 5.7m/s | -53.1°C | 3.6% | 80.4hPa | 2.6V | 08:30:00 | 01:15:05 | 00:00:00 | |
| DO2JMG | 2026-09-04 10:47:29 | 52.76224 | 9.30272 | 78° | 37km/h | 17928m | 3.9m/s | -53.2°C | 0.4% | 80.2hPa | 2.7V | 18:12:15 | 01:15:08 | 00:00:00 | |
| DL1XH1-15 | 2026-09-04 10:47:29 | 52.76213 | 9.30176 | 81° | 42km/h | 17899m | 4.6m/s | -53.1°C | 3.7% | 80.6hPa | 2.7V | 08:30:00 | 01:15:02 | 00:00:00 | |
| DL1XH-west | 2026-09-04 10:47:28 | 52.76222 | 9.30256 | 80° | 38km/h | 17923m | 5.7m/s | -53.1°C | 0.3% | 80.3hPa | 2.6V | 18:12:15 | 01:15:07 | 00:00:00 | |
| EDDB2-11 | 2026-09-04 10:47:28 | 52.76220 | 9.30240 | 80° | 38km/h | 17919m | 3.9m/s | -53.1°C | -1.0% | -1.0hPa | 2.7V | 00:00:00 | 00:00:00 | 00:00:00 | |
| DB0NH | 2026-09-04 10:47:27 | 52.76220 | 9.30240 | 81° | 47km/h | 17919m | 3.9m/s | -53.1°C | 3.6% | 80.3hPa | 2.7V | 00:00:00 | 01:15:06 | 00:00:00 | |
| DM0DOS-11 | 2026-09-04 10:47:26 | 52.76217 | 9.30209 | 78° | 38km/h | 17909m | 4m/s | -53.2°C | 3.6% | 80.5hPa | 2.7V | 08:30:00 | 01:15:04 | 00:00:00 | |
| DB0DAN | 2026-09-04 10:47:25 | 52.76217 | 9.30209 | 78° | 37km/h | 17909m | 4m/s | -53.2°C | 1.1% | 80.48hPa | 2.7V | 00:00:00 | 00:00:00 | 00:00:00 | |
| BIOWL1-15 | 2026-09-04 10:47:25 | 52.76213 | 9.30176 | 81° | 42km/h | 17899m | 4.6m/s | -53.1°C | 0.4% | 80.6hPa | 2.7V | 18:12:15 | 01:15:02 | 00:00:00 | |
| AA1-15 | 2026-09-04 10:47:24 | 52.76215 | 9.30193 | 81° | 40km/h | 17904m | 5.7m/s | -53.1°C | 0.4% | 80.5hPa | 2.7V | 18:12:15 | 01:15:03 | 00:00:00 | |
| DF8AY | 2026-09-04 10:47:22 | 52.76211 | 9.30158 | 80° | 42km/h | 17894m | 4.9m/s | -53.1°C | 0.3% | 80.7hPa | 2.6V | 18:12:15 | 01:15:01 | 00:00:00 | |
| DO2JMG | 2026-09-04 10:47:19 | 52.76206 | 9.30104 | 83° | 46km/h | 17879m | 5.5m/s | -53.2°C | 0.4% | 80.9hPa | 2.7V | 18:12:15 | 01:14:58 | 00:00:00 | |
| DL1XH-west | 2026-09-04 10:47:17 | 52.76203 | 9.30066 | 81° | 46km/h | 17870m | 5.6m/s | -53.2°C | 0.4% | 81hPa | 2.7V | 18:12:15 | 01:14:56 | 00:00:00 | |
| DO2SHX-10 | 2026-09-04 10:47:17 | 52.76203 | 9.30066 | 82° | 46km/h | 17870m | 5.6m/s | -53.2°C | 3.7% | 80.9hPa | 2.7V | 00:00:00 | 01:14:56 | 08:30:00 | |
| DJ2DS-15 | 2026-09-04 10:47:16 | 52.76201 | 9.30047 | 81° | 51km/h | 17865m | 3.8m/s | -53.1°C | 3.6% | 81.0hPa | 2.6V | 00:00:00 | 01:14:55 | 00:00:00 | |
| DD1CC8 | 2026-09-04 10:47:15 | 52.76199 | 9.30028 | 81° | 46km/h | 17861m | 5.5m/s | -53.2°C | 1.1% | 81.1hPa | 2.6V | 00:00:00 | 00:00:00 | 00:00:00 | |
| DL1NUX | 2026-09-04 10:47:14 | 52.76186 | 9.29910 | 76° | 51km/h | 17831m | 3.7m/s | -53.1°C | 3.6% | 81.5hPa | 2.6V | 08:30:00 | 01:14:48 | 00:00:00 | |
| BIOWL1-15 | 2026-09-04 10:47:14 | 52.76194 | 9.29970 | 79° | 47km/h | 17846m | 5.8m/s | -53.1°C | 0.3% | 81.3hPa | 2.7V | 18:12:15 | 01:14:51 | 00:00:00 | |
| AA1-15 | 2026-09-04 10:47:13 | 52.76196 | 9.29989 | 81° | 47km/h | 17851m | 3.9m/s | -53.1°C | 0.3% | 81.2hPa | 2.7V | 18:12:15 | 01:14:52 | 00:00:00 | |
| DF8AY | 2026-09-04 10:47:11 | 52.76191 | 9.29950 | 78° | 47km/h | 17841m | 5m/s | -53.1°C | 0.4% | 81.4hPa | 2.7V | 18:12:15 | 01:14:50 | 00:00:00 | |
| DB0DAN | 2026-09-04 10:47:10 | 52.76189 | 9.29930 | 78° | 47km/h | 17836m | 5.1m/s | -53.1°C | 1.1% | 81.43hPa | 2.6V | 00:00:00 | 00:00:00 | 00:00:00 | |
| DL1LOL-11 | 2026-09-04 10:47:09 | 52.76188 | 9.29930 | 79° | 51km/h | 17836m | 5.1m/s | -53.1°C | 1.1% | 81.4hPa | 2.7V | 00:00:00 | 00:00:00 | 00:00:00 | |
| DM0DOS-11 | 2026-09-04 10:47:08 | 52.76173 | 9.29826 | 77° | 55km/h | 17812m | 5m/s | -53°C | 3.5% | 81.7hPa | 2.7V | 08:30:00 | 01:14:44 | 00:00:00 | |
| DO2JMG | 2026-09-04 10:47:08 | 52.76183 | 9.29889 | 76° | 51km/h | 17827m | 6m/s | -53.1°C | 0.4% | 81.5hPa | 2.6V | 18:12:15 | 01:14:47 | 00:00:00 | |
| DL1XH-west | 2026-09-04 10:47:06 | 52.76176 | 9.29847 | 76° | 53km/h | 17817m | 4.3m/s | -53°C | 0.3% | 81.7hPa | 2.7V | 18:12:15 | 01:14:45 | 00:00:00 | |
| BIOWL1-15 | 2026-09-04 10:47:05 | 52.76157 | 9.29692 | 81° | 53km/h | 17785m | 5.4m/s | -53.1°C | 0.4% | 82hPa | 2.6V | 18:12:15 | 01:14:38 | 00:00:00 | |
| DO2SHX-10 | 2026-09-04 10:47:05 | 52.76173 | 9.29826 | 78° | 55km/h | 17813m | 5.0m/s | -52.9°C | 3.5% | 81.7hPa | 2.6V | 00:00:00 | 01:14:44 | 00:00:00 | |
| DL1NUX | 2026-09-04 10:47:04 | 52.76157 | 9.29692 | 80° | 53km/h | 17785m | 5.4m/s | -53.1°C | 3.6% | 82hPa | 2.6V | 08:30:00 | 01:14:38 | 00:00:00 | |
| AA1-15 | 2026-09-04 10:47:03 | 52.76167 | 9.29782 | 77° | 53km/h | 17803m | 5.1m/s | -53°C | 0.3% | 81.8hPa | 2.6V | 18:12:15 | 01:14:42 | 00:00:00 | |
| DL1XH-15 | 2026-09-04 10:47:02 | 52.76150 | 9.29629 | 76° | 51km/h | 17770m | 4.6m/s | -53.2°C | 3.6% | 82.3hPa | 2.7V | 08:30:00 | 01:14:35 | 00:00:00 | |
| DF8AY | 2026-09-04 10:47:01 | 52.76160 | 9.29715 | 82° | 57km/h | 17790m | 4.9m/s | -53°C | 0.3% | 82hPa | 2.7V | 18:12:15 | 01:14:39 | 00:00:00 | |
| DL4BBY-15 | 2026-09-04 10:47:01 | 52.76162 | 9.29738 | 81° | 51km/h | 17795m | 4.8m/s | -53.2°C | 0% | 0hPa | 2.6V | 00:00:00 | 00:00:00 | 00:00:00 | |
| DF2AP-13 | 2026-09-04 10:47:00 | 52.76157 | 9.29692 | 81° | 51km/h | 17785m | 5.4m/s | -53.0°C | 3.6% | 82.0hPa | 2.6V | 00:00:00 | 01:14:38 | 00:00:00 | |
| DO2SHX-10 | 2026-09-04 10:46:59 | 52.76157 | 9.29692 | 81° | 51km/h | 17785m | 5.4m/s | -53.0°C | 3.6% | 82.0hPa | 2.6V | 00:00:00 | 01:14:38 | 00:00:00 | |
| DL1XH1-15 | 2026-09-04 10:46:58 | 52.76140 | 9.29572 | 73° | 47km/h | 17754m | 5.6m/s | -53.5°C | 3.6% | 82.5hPa | 2.7V | 08:30:00 | 01:14:32 | 00:00:00 | |
| DO2JMG | 2026-09-04 10:46:57 | 52.76153 | 9.29650 | 79° | 51km/h | 17775m | 6m/s | -53.1°C | 0.3% | 82.2hPa | 2.7V | 18:12:15 | 01:14:36 | 00:00:00 | |
| DL1ZP-14 | 2026-09-04 10:46:56 | 52.76150 | 9.29629 | 76° | 49km/h | 17770m | 4.6m/s | -53.2°C | 1.1% | 82.3hPa | 2.7V | 00:00:00 | 00:00:00 | 00:00:00 | |
| DB0DAN | 2026-09-04 10:46:55 | 52.76147 | 9.29610 | 74° | 46km/h | 17764m | 6.2m/s | -53.4°C | 1.1% | 82.35hPa | 2.6V | 00:00:00 | 00:00:00 | 00:00:00 | |
| DL1XH-west | 2026-09-04 10:46:55 | 52.76147 | 9.29610 | 74° | 47km/h | 17764m | 6.2m/s | -53.4°C | 0.4% | 82.3hPa | 2.6V | 18:12:15 | 01:14:34 | 00:00:00 | |
| DL1NUX | 2026-09-04 10:46:54 | 52.76128 | 9.29494 | 78° | 49km/h | 17734m | 5.8m/s | -53.8°C | 3.7% | 82.7hPa | 2.7V | 08:30:00 | 01:14:28 | 00:00:00 | |
| AA1-15 | 2026-09-04 10:46:52 | 52.76137 | 9.29553 | 75° | 49km/h | 17749m | 4.4m/s | -53.6°C | 0.3% | 82.5hPa | 2.7V | 18:12:15 | 01:14:31 | 00:00:00 | |
| DO9LL-15 | 2026-09-04 10:46:52 | 52.76137 | 9.29553 | 76° | 51km/h | 17750m | 4.4m/s | -53.6°C | 3.6% | 82.5hPa | 2.6V | 00:00:00 | 01:14:31 | 00:00:00 | |
| DL1XH-15 | 2026-09-04 10:46:51 | 52.76123 | 9.29433 | 83° | 46km/h | 17719m | 4.3m/s | -53.9°C | 3.8% | 82.9hPa | 2.6V | 08:30:00 | 01:14:25 | 00:00:00 | |
| DF8AY | 2026-09-04 10:46:50 | 52.76130 | 9.29514 | 75° | 49km/h | 17739m | 4.9m/s | -53.7°C | 0.4% | 82.7hPa | 2.6V | 18:12:15 | 01:14:29 | 00:00:00 | |
| BIOWL1-15 | 2026-09-04 10:46:48 | 52.76126 | 9.29473 | 83° | 49km/h | 17729m | 4.1m/s | -53.9°C | 0.4% | 82.8hPa | 2.7V | 18:12:15 | 01:14:27 | 00:00:00 | |
| DL1XH1-15 | 2026-09-04 10:46:48 | 52.76120 | 9.29376 | 86° | 47km/h | 17706m | 3.8m/s | -54°C | 3.8% | 83.1hPa | 2.6V | 08:30:00 | 01:14:22 | 00:00:00 | |
| DO2JMG | 2026-09-04 10:46:47 | 52.76124 | 9.29453 | 84° | 49km/h | 17724m | 5.9m/s | -53.9°C | 0.4% | 82.8hPa | 2.6V | 18:12:15 | 01:14:26 | 00:00:00 | |
| DL3AQ-11 | 2026-09-04 10:46:45 | 52.76121 | 9.29395 | 86° | 46km/h | 17711m | 4.8m/s | -53.9°C | 1.1% | 83.0hPa | 2.7V | 00:00:00 | 00:00:00 | 00:00:00 | |
| DL1NUX | 2026-09-04 10:46:44 | 52.76114 | 9.29297 | 80° | 49km/h | 17687m | 3.8m/s | -54°C | 3.9% | 83.3hPa | 2.7V | 08:30:00 | 01:14:18 | 00:00:00 | |
| DL1XH-west | 2026-09-04 10:46:44 | 52.76121 | 9.29395 | 87° | 47km/h | 17711m | 4.8m/s | -53.9°C | 0.4% | 83hPa | 2.7V | 18:12:15 | 01:14:23 | 00:00:00 | |
| AA1-15 | 2026-09-04 10:46:42 | 52.76119 | 9.29356 | 83° | 47km/h | 17702m | 5.1m/s | -54°C | 0.4% | 83.2hPa | 2.6V | 18:12:15 | 01:14:21 | 00:00:00 | |
| DD8BA-10 | 2026-09-04 10:46:42 | 52.76119 | 9.29356 | 83° | 51km/h | 17702m | 5.1m/s | -54.0°C | 3.8% | 83.1hPa | 2.6V | 00:00:00 | 00:00:00 | 00:00:00 | |
| DL1XH-15 | 2026-09-04 10:46:41 | 52.76106 | 9.29234 | 78° | 55km/h | 17672m | 5.4m/s | -54°C | 3.8% | 83.5hPa | 2.6V | 08:30:00 | 01:14:15 | 00:00:00 | |
| DB0DAN | 2026-09-04 10:46:40 | 52.76116 | 9.29317 | 82° | 46km/h | 17692m | 5.7m/s | -54°C | 1.2% | 83.28hPa | 2.7V | 00:00:00 | 00:00:00 | 00:00:00 | |
| DF8AY | 2026-09-04 10:46:39 | 52.76114 | 9.29297 | 81° | 49km/h | 17687m | 3.8m/s | -54°C | 0.5% | 83.3hPa | 2.7V | 18:12:15 | 01:14:18 | 00:00:00 | |
| BIOWL1-15 | 2026-09-04 10:46:38 | 52.76111 | 9.29276 | 78° | 51km/h | 17682m | 5.8m/s | -54°C | 0.5% | 83.4hPa | 2.7V | 18:12:15 | 01:14:17 | 00:00:00 | |
| DO2JMG | 2026-09-04 10:46:36 | 52.76106 | 9.29234 | 79° | 55km/h | 17672m | 5.4m/s | -54°C | 0.5% | 83.5hPa | 2.6V | 18:12:15 | 01:14:15 | 00:00:00 | |
| DL1XH-west | 2026-09-04 10:46:34 | 52.76101 | 9.29188 | 79° | 57km/h | 17662m | 5.8m/s | -54°C | 0.5% | 83.6hPa | 2.7V | 18:12:15 | 01:14:13 | 00:00:00 | |
| DL3AQ-11 | 2026-09-04 10:46:34 | 52.76098 | 9.29165 | 78° | 57km/h | 17657m | 4.1m/s | -54.1°C | 1.1% | 83.7hPa | 2.7V | 00:00:00 | 00:00:00 | 00:00:00 | |
| DL1XH-15 | 2026-09-04 10:46:33 | 52.76074 | 9.29001 | 73° | 55km/h | 17623m | 4.9m/s | -54.2°C | 3.8% | 84.2hPa | 2.7V | 08:30:00 | 01:14:05 | 00:00:00 | |
| AA1-15 | 2026-09-04 10:46:32 | 52.76093 | 9.29118 | 79° | 60km/h | 17648m | 4.4m/s | -54°C | 0.5% | 83.8hPa | 2.6V | 18:12:15 | 01:14:10 | 00:00:00 | |
| DF8AY | 2026-09-04 10:46:29 | 52.76086 | 9.29070 | 75° | 58km/h | 17638m | 5m/s | -54°C | 0.5% | 84hPa | 2.6V | 18:12:15 | 01:14:08 | 00:00:00 | |
| DM0DOS-11 | 2026-09-04 10:46:28 | 52.76070 | 9.28980 | 71° | 53km/h | 17619m | 4.4m/s | -54.1°C | 3.8% | 84.2hPa | 2.6V | 08:30:00 | 01:14:04 | 00:00:00 | |
| DO2JMG | 2026-09-04 10:46:26 | 52.76074 | 9.29001 | 74° | 55km/h | 17624m | 4.9m/s | -54.2°C | 0.4% | 84.2hPa | 2.7V | 18:12:15 | 01:14:05 | 00:00:00 | |
| DB0DAN | 2026-09-04 10:46:25 | 52.76070 | 9.28980 | 71° | 51km/h | 17619m | 4.4m/s | -54.1°C | 1.1% | 84.2hPa | 2.6V | 00:00:00 | 00:00:00 | 00:00:00 | |
| DL1NUX | 2026-09-04 10:46:25 | 52.76051 | 9.28855 | 80° | 51km/h | 17589m | 5.6m/s | -54.1°C | 3.9% | 84.6hPa | 2.6V | 08:30:00 | 01:13:58 | 00:00:00 | |
| DL1XH-west | 2026-09-04 10:46:24 | 52.76066 | 9.28959 | 72° | 53km/h | 17614m | 5.4m/s | -54.1°C | 0.5% | 84.3hPa | 2.6V | 18:12:15 | 01:14:03 | 00:00:00 | |
| AA1-15 | 2026-09-04 10:46:21 | 52.76056 | 9.28896 | 77° | 51km/h | 17599m | 5.8m/s | -54.1°C | 0.5% | 84.5hPa | 2.7V | 18:12:15 | 01:14:00 | 00:00:00 | |
| DF8AY | 2026-09-04 10:46:19 | 52.76051 | 9.28855 | 80° | 51km/h | 17589m | 5.6m/s | -54.1°C | 0.5% | 84.6hPa | 2.6V | 18:12:15 | 01:13:58 | 00:00:00 | |
| BIOWL9-15 | 2026-09-04 10:46:19 | 52.76051 | 9.28855 | 80° | 49km/h | 17589m | 5.6m/s | -54.1°C | 1.2% | 84.6hPa | 2.7V | 00:00:00 | 00:00:00 | 00:00:00 | |
| DL3AQ-11 | 2026-09-04 10:46:18 | 52.76047 | 9.28812 | 81° | 53km/h | 17580m | 3.8m/s | -54.1°C | 1.2% | 84.7hPa | 2.7V | 00:00:00 | 00:00:00 | 00:00:00 | |
| DM0DOS-11 | 2026-09-04 10:46:17 | 52.76042 | 9.28768 | 79° | 55km/h | 17570m | 4.2m/s | -54.1°C | 3.9% | 84.8hPa | 2.7V | 08:30:00 | 01:13:54 | 00:00:00 | |
| BIOWL1-15 | 2026-09-04 10:46:17 | 52.76047 | 9.28812 | 81° | 55km/h | 17580m | 3.8m/s | -54.1°C | 0.5% | 84.7hPa | 2.6V | 18:12:15 | 01:13:56 | 00:00:00 | |
| DO2JMG | 2026-09-04 10:46:15 | 52.76042 | 9.28768 | 80° | 55km/h | 17570m | 4.2m/s | -54.1°C | 0.5% | 84.8hPa | 2.7V | 18:12:15 | 01:13:54 | 00:00:00 | |
| DL1NUX | 2026-09-04 10:46:14 | 52.76026 | 9.28632 | 78° | 55km/h | 17541m | 5.1m/s | -54.1°C | 3.8% | 85.2hPa | 2.7V | 08:30:00 | 01:13:48 | 00:00:00 | |
| DL1XH-west | 2026-09-04 10:46:13 | 52.76038 | 9.28722 | 80° | 57km/h | 17560m | 4.3m/s | -54.1°C | 0.5% | 85hPa | 2.6V | 18:12:15 | 01:13:52 | 00:00:00 | |
| AA1-15 | 2026-09-04 10:46:11 | 52.76032 | 9.28676 | 78° | 55km/h | 17551m | 5.5m/s | -54.1°C | 0.5% | 85.1hPa | 2.6V | 18:12:15 | 01:13:50 | 00:00:00 | |
| DB0DAN | 2026-09-04 10:46:10 | 52.76029 | 9.28654 | 78° | 51km/h | 17546m | 4.8m/s | -54.1°C | 1.2% | 85.19hPa | 2.7V | 00:00:00 | 00:00:00 | 00:00:00 | |
| DM0DOS-11 | 2026-09-04 10:46:10 | 52.76014 | 9.28552 | 74° | 47km/h | 17520m | 5.4m/s | -54.3°C | 3.8% | 85.5hPa | 2.6V | 08:30:00 | 01:13:44 | 00:00:00 | |
| DF8AY | 2026-09-04 10:46:08 | 52.76024 | 9.28610 | 77° | 51km/h | 17535m | 5.2m/s | -54.2°C | 0.4% | 85.3hPa | 2.7V | 18:12:15 | 01:13:47 | 00:00:00 | |
| BIOWL1-15 | 2026-09-04 10:46:07 | 52.76020 | 9.28590 | 75° | 49km/h | 17530m | 5.1m/s | -54.3°C | 0.4% | 85.4hPa | 2.6V | 18:12:15 | 01:13:46 | 00:00:00 | |
| DO2JMG | 2026-09-04 10:46:05 | 52.76014 | 9.28552 | 75° | 47km/h | 17520m | 5.4m/s | -54.3°C | 0.5% | 85.5hPa | 2.6V | 18:12:15 | 01:13:44 | 00:00:00 | |
| DL3AQ-11 | 2026-09-04 10:46:05 | 52.76011 | 9.28532 | 73° | 47km/h | 17516m | 3.8m/s | -54.3°C | 1.2% | 85.6hPa | 2.6V | 00:00:00 | 00:00:00 | 00:00:00 | |
| DL1NUX | 2026-09-04 10:46:04 | 52.75991 | 9.28431 | 73° | 55km/h | 17491m | 5.5m/s | -54.2°C | 3.9% | 85.9hPa | 2.6V | 08:30:00 | 01:13:38 | 00:00:00 | |
| DL1XH-west | 2026-09-04 10:46:02 | 52.76003 | 9.28494 | 71° | 49km/h | 17506m | 4.5m/s | -54.3°C | 0.6% | 85.7hPa | 2.7V | 18:12:15 | 01:13:41 | 00:00:00 | |
| SO1NDE-10 | 2026-09-04 10:46:02 | 52.76003 | 9.28494 | 71° | 47km/h | 17506m | 4.5m/s | -54.3°C | 3.9% | 85.7hPa | 2.7V | 00:00:00 | 01:13:41 | 08:30:00 | |
| DL1XH-15 | 2026-09-04 10:46:01 | 52.75980 | 9.28367 | 75° | 53km/h | 17476m | 5.3m/s | -54.4°C | 4% | 86.1hPa | 2.6V | 08:30:00 | 01:13:35 | 00:00:00 | |
| AA1-15 | 2026-09-04 10:46:00 | 52.75995 | 9.28453 | 74° | 55km/h | 17495m | 3.5m/s | -54.2°C | 0.5% | 85.8hPa | 2.6V | 18:12:15 | 01:13:39 | 00:00:00 | |
| DF8AY | 2026-09-04 10:45:59 | 52.75983 | 9.28388 | 73° | 53km/h | 17481m | 4m/s | -54.2°C | 0.6% | 86hPa | 2.7V | 18:12:15 | 01:13:36 | 00:00:00 | |
| BIOWL1-15 | 2026-09-04 10:45:58 | 52.75980 | 9.28367 | 76° | 53km/h | 17476m | 5.3m/s | -54.4°C | 0.6% | 86.1hPa | 2.6V | 18:12:15 | 01:13:35 | 00:00:00 | |
| DF5WG-10 | 2026-09-04 10:45:58 | 52.75980 | 9.28367 | 76° | 44km/h | 17476m | 5.3m/s | -54.4°C | 4.0% | 86.1hPa | 2.6V | 00:00:00 | 01:13:35 | 00:00:00 | |
| DJ2DS-15 | 2026-09-04 10:45:57 | 52.75980 | 9.28367 | 76° | 46km/h | 17476m | 5.3m/s | -54.4°C | 4.0% | 86.1hPa | 2.6V | 00:00:00 | 01:13:35 | 00:00:00 | |
| DO2JMG | 2026-09-04 10:45:56 | 52.75977 | 9.28346 | 79° | 51km/h | 17471m | 5.3m/s | -54.4°C | 0.6% | 86.2hPa | 2.6V | 18:12:15 | 01:13:34 | 00:00:00 | |
| DO2SHX-10 | 2026-09-04 10:45:56 | 52.75980 | 9.28367 | 76° | 53km/h | 17476m | 5.3m/s | -54.4°C | 4.0% | 86.1hPa | 2.7V | 00:00:00 | 01:13:35 | 00:00:00 | |
| DB0DAN | 2026-09-04 10:45:55 | 52.75977 | 9.28346 | 79° | 49km/h | 17471m | 5.3m/s | -54.4°C | 1.2% | 86.19hPa | 2.6V | 00:00:00 | 00:00:00 | 00:00:00 | |
| DL1NUX | 2026-09-04 10:45:54 | 52.75966 | 9.28238 | 80° | 38km/h | 17438m | 6.4m/s | -54.4°C | 3.9% | 86.6hPa | 2.7V | 08:30:00 | 01:13:28 | 00:00:00 | |
| DL1XH-west | 2026-09-04 10:45:51 | 52.75968 | 9.28270 | 84° | 40km/h | 17449m | 5.1m/s | -54.5°C | 0.6% | 86.5hPa | 2.6V | 18:12:15 | 01:13:30 | 00:00:00 | |
| DM0DOS-11 | 2026-09-04 10:45:51 | 52.75963 | 9.28170 | 87° | 47km/h | 17416m | 6.3m/s | -54.3°C | 3.9% | 86.9hPa | 2.7V | 08:30:00 | 01:13:24 | 00:00:00 | |
| AA1-15 | 2026-09-04 10:45:51 | 52.75967 | 9.28254 | 84° | 38km/h | 17444m | 5m/s | -54.5°C | 0.5% | 86.5hPa | 2.7V | 18:12:15 | 01:13:29 | 00:00:00 | |
| D01LWL | 2026-09-04 10:45:51 | 52.75967 | 9.28254 | 84° | 38km/h | 17444m | 5.0m/s | -54.5°C | 1.2% | 86.5hPa | 2.7V | 00:00:00 | 00:00:00 | 00:00:00 | |
| DO2SHX-10 | 2026-09-04 10:45:50 | 52.75967 | 9.28254 | 85° | 38km/h | 17444m | 4.9m/s | -54.4°C | 3.9% | 86.5hPa | 2.7V | 00:00:00 | 01:13:29 | 08:30:00 | |
| DC6BW-12 | 2026-09-04 10:45:49 | 52.75967 | 9.28254 | 85° | 38km/h | 17444m | 5.0m/s | -54.5°C | 1.2% | 86.5hPa | 2.6V | 00:00:00 | 00:00:00 | 00:00:00 | |
| DL1XH1-15 | 2026-09-04 10:45:48 | 52.75961 | 9.28129 | 86° | 51km/h | 17406m | 4.4m/s | -54.2°C | 3.8% | 87hPa | 2.6V | 08:30:00 | 01:13:22 | 00:00:00 | |
| BIOWL1-15 | 2026-09-04 10:45:48 | 52.75963 | 9.28189 | 89° | 44km/h | 17421m | 4.5m/s | -54.4°C | 0.5% | 86.8hPa | 2.7V | 18:12:15 | 01:13:25 | 00:00:00 | |
| DF8AY | 2026-09-04 10:45:47 | 52.75964 | 9.28206 | 87° | 40km/h | 17427m | 6.4m/s | -54.3°C | 0.5% | 86.7hPa | 2.6V | 18:12:15 | 01:13:26 | 00:00:00 | |
| DO2JMG | 2026-09-04 10:45:44 | 52.75962 | 9.28149 | 85° | 49km/h | 17410m | 5.1m/s | -54.1°C | 0.5% | 87hPa | 2.6V | 18:12:15 | 01:13:23 | 00:00:00 | |
| DL1XH-west | 2026-09-04 10:45:41 | 52.75961 | 9.28087 | 90° | 47km/h | 17396m | 3.7m/s | -54.4°C | 0.6% | 87.2hPa | 2.7V | 18:12:15 | 01:13:20 | 00:00:00 | |
| DB0DAN | 2026-09-04 10:45:40 | 52.75960 | 9.28067 | 90° | 44km/h | 17392m | 5.2m/s | -54.5°C | 1.2% | 87.25hPa | 2.6V | 00:00:00 | 00:00:00 | 00:00:00 | |
| DM0DOS-11 | 2026-09-04 10:45:40 | 52.75964 | 9.27975 | 96° | 44km/h | 17367m | 6.2m/s | -54.6°C | 4% | 87.6hPa | 2.6V | 08:30:00 | 01:13:14 | 00:00:00 | |
| AA1-15 | 2026-09-04 10:45:39 | 52.75960 | 9.28048 | 89° | 44km/h | 17387m | 4.9m/s | -54.5°C | 0.6% | 87.3hPa | 2.6V | 18:12:15 | 01:13:18 | 00:00:00 | |
| DF8AY | 2026-09-04 10:45:37 | 52.75961 | 9.28012 | 95° | 44km/h | 17377m | 5.4m/s | -54.5°C | 0.7% | 87.5hPa | 2.7V | 18:12:15 | 01:13:16 | 00:00:00 | |
| BIOWL1-15 | 2026-09-04 10:45:36 | 52.75962 | 9.27993 | 96° | 46km/h | 17372m | 4.3m/s | -54.5°C | 0.6% | 87.5hPa | 2.6V | 18:12:15 | 01:13:15 | 00:00:00 | |
| DJ2DS-15 | 2026-09-04 10:45:36 | 52.75962 | 9.27993 | 97° | 49km/h | 17373m | 4.3m/s | -54.4°C | 4.0% | 87.5hPa | 2.6V | 00:00:00 | 01:13:15 | 00:00:00 | |
| HTAHTA | 2026-09-04 10:45:35 | 52.75963 | 9.27975 | 96° | 44km/h | 17367m | 6.2m/s | -54.6°C | 1.2% | 87.6hPa | 2.6V | 00:00:00 | 00:00:00 | 00:00:00 | |
| DL1NUX | 2026-09-04 10:45:34 | 52.75975 | 9.27861 | 101° | 46km/h | 17336m | 4m/s | -54.4°C | 3.9% | 88hPa | 2.6V | 08:30:00 | 01:13:08 | 00:00:00 | |
| DO2JMG | 2026-09-04 10:45:34 | 52.75965 | 9.27956 | 97° | 46km/h | 17362m | 3.7m/s | -54.5°C | 0.7% | 87.7hPa | 2.6V | 18:12:15 | 01:13:13 | 00:00:00 | |
| DO2SHX-10 | 2026-09-04 10:45:33 | 52.75966 | 9.27937 | 99° | 47km/h | 17358m | 5.4m/s | -54.4°C | 4.0% | 87.7hPa | 2.7V | 00:00:00 | 01:13:12 | 00:00:00 | |
| SO1NDE-10 | 2026-09-04 10:45:32 | 52.75968 | 9.27918 | 102° | 53km/h | 17352m | 5.7m/s | -54.5°C | 4.0% | 87.7hPa | 2.7V | 00:00:00 | 01:13:11 | 00:00:00 | |
| DL1XH-15 | 2026-09-04 10:45:31 | 52.75983 | 9.27805 | 102° | 46km/h | 17320m | 6.4m/s | -54.4°C | 3.9% | 88.2hPa | 2.7V | 08:30:00 | 01:13:05 | 00:00:00 | |
| DL1XH-west | 2026-09-04 10:45:30 | 52.75973 | 9.27879 | 101° | 46km/h | 17341m | 5.4m/s | -54.5°C | 0.5% | 87.9hPa | 2.6V | 18:12:15 | 01:13:09 | 00:00:00 | |
| AA1-15 | 2026-09-04 10:45:28 | 52.75978 | 9.27843 | 104° | 46km/h | 17331m | 6.2m/s | -54.4°C | 0.5% | 88.1hPa | 2.6V | 18:12:15 | 01:13:07 | 00:00:00 | |
| DF8AY | 2026-09-04 10:45:26 | 52.75983 | 9.27805 | 103° | 46km/h | 17320m | 6.4m/s | -54.4°C | 0.6% | 88.2hPa | 2.7V | 18:12:15 | 01:13:05 | 00:00:00 | |
| DB0DAN | 2026-09-04 10:45:25 | 52.75986 | 9.27787 | 102° | 44km/h | 17314m | 4.2m/s | -54.3°C | 1.2% | 88.3hPa | 2.7V | 00:00:00 | 00:00:00 | 00:00:00 | |
| BIOWL1-15 | 2026-09-04 10:45:25 | 52.75986 | 9.27787 | 102° | 47km/h | 17314m | 4.2m/s | -54.3°C | 0.6% | 88.3hPa | 2.7V | 18:12:15 | 01:13:04 | 00:00:00 | |
| DL3AQ-11 | 2026-09-04 10:45:25 | 52.75988 | 9.27767 | 103° | 47km/h | 17310m | 6.1m/s | -54.3°C | 1.2% | 88.4hPa | 2.7V | 00:00:00 | 00:00:00 | 00:00:00 | |
| DL1NUX | 2026-09-04 10:45:24 | 52.76004 | 9.27666 | 104° | 51km/h | 17283m | 6.1m/s | -54.4°C | 4% | 88.7hPa | 2.7V | 08:30:00 | 01:12:58 | 00:00:00 | |
| DO2JMG | 2026-09-04 10:45:23 | 52.75991 | 9.27747 | 106° | 51km/h | 17304m | 4.7m/s | -54.3°C | 0.6% | 88.5hPa | 2.6V | 18:12:15 | 01:13:02 | 00:00:00 | |
| DD8BA-10 | 2026-09-04 10:45:22 | 52.75995 | 9.27727 | 106° | 53km/h | 17300m | 4.8m/s | -54.2°C | 4.0% | 88.5hPa | 2.6V | 00:00:00 | 00:00:00 | 00:00:00 | |
| DL1XH-15 | 2026-09-04 10:45:21 | 52.76015 | 9.27602 | 105° | 53km/h | 17268m | 5.5m/s | -54.7°C | 4% | 88.9hPa | 2.6V | 08:30:00 | 01:12:55 | 00:00:00 | |
| DL1XH-west | 2026-09-04 10:45:20 | 52.76001 | 9.27687 | 103° | 51km/h | 17289m | 4.2m/s | -54.4°C | 0.6% | 88.7hPa | 2.7V | 18:12:15 | 01:12:59 | 00:00:00 | |
| DJ2KF-10 | 2026-09-04 10:45:19 | 52.76004 | 9.27666 | 105° | 58km/h | 17284m | 6.1m/s | -54.4°C | 4.0% | 88.7hPa | 2.7V | 00:00:00 | 01:12:58 | 00:00:00 | |
| DL1XH1-15 | 2026-09-04 10:45:18 | 52.76027 | 9.27538 | 107° | 53km/h | 17252m | 5m/s | -54.8°C | 3.9% | 89.2hPa | 2.7V | 08:30:00 | 01:12:52 | 00:00:00 | |
| AA1-15 | 2026-09-04 10:45:17 | 52.76012 | 9.27623 | 107° | 55km/h | 17273m | 5m/s | -54.5°C | 0.6% | 88.9hPa | 2.6V | 18:12:15 | 01:12:56 | 00:00:00 | |
| DF8AY | 2026-09-04 10:45:16 | 52.76015 | 9.27602 | 105° | 53km/h | 17268m | 5.5m/s | -54.7°C | 0.6% | 89hPa | 2.6V | 18:12:15 | 01:12:55 | 00:00:00 | |
| DF5WG-10 | 2026-09-04 10:45:16 | 52.76015 | 9.27601 | 106° | 55km/h | 17268m | 5.4m/s | -54.7°C | 4.0% | 88.9hPa | 2.8V | 00:00:00 | 01:12:55 | 00:00:00 | |
| DO2SHX-10 | 2026-09-04 10:45:15 | 52.76019 | 9.27580 | 106° | 53km/h | 17263m | 4.3m/s | -54.6°C | 3.9% | 89.0hPa | 2.8V | 00:00:00 | 01:12:54 | 00:00:00 | |
| DL1NUX | 2026-09-04 10:45:14 | 52.76041 | 9.27452 | 106° | 58km/h | 17230m | 5.8m/s | -54.8°C | 4.1% | 89.4hPa | 2.8V | 08:30:00 | 01:12:48 | 00:00:00 | |
| BIOWL1-15 | 2026-09-04 10:45:14 | 52.76022 | 9.27559 | 107° | 53km/h | 17257m | 6.4m/s | -54.7°C | 0.5% | 89.1hPa | 2.7V | 18:12:15 | 01:12:53 | 00:00:00 | |
| DO2JMG | 2026-09-04 10:45:12 | 52.76030 | 9.27518 | 106° | 51km/h | 17246m | 6.8m/s | -54.7°C | 0.6% | 89.2hPa | 2.6V | 18:12:15 | 01:12:51 | 00:00:00 | |
| DD8BA-10 | 2026-09-04 10:45:12 | 52.76030 | 9.27518 | 106° | 62km/h | 17246m | 6.8m/s | -54.7°C | 3.9% | 89.2hPa | 2.6V | 00:00:00 | 00:00:00 | 00:00:00 | |
| DL1XH-15 | 2026-09-04 10:45:11 | 52.76053 | 9.27377 | 104° | 66km/h | 17214m | 6.2m/s | -54.7°C | 4.1% | 89.7hPa | 2.6V | 08:30:00 | 01:12:45 | 00:00:00 | |
| DB0DAN | 2026-09-04 10:45:10 | 52.76037 | 9.27475 | 105° | 53km/h | 17236m | 5.1m/s | -54.8°C | 1.2% | 89.41hPa | 2.6V | 00:00:00 | 00:00:00 | 00:00:00 | |
| DL1XH-west | 2026-09-04 10:45:09 | 52.76041 | 9.27452 | 106° | 58km/h | 17230m | 5.8m/s | -54.8°C | 0.7% | 89.5hPa | 2.8V | 18:12:15 | 01:12:48 | 00:00:00 | |
| DO2SHX-10 | 2026-09-04 10:45:09 | 52.76041 | 9.27452 | 107° | 60km/h | 17231m | 5.7m/s | -54.8°C | 4.1% | 89.4hPa | 2.7V | 00:00:00 | 01:12:48 | 00:00:00 | |
| DL1XH1-15 | 2026-09-04 10:45:08 | 52.76066 | 9.27293 | 103° | 68km/h | 17197m | 5.8m/s | -54.8°C | 4.1% | 90hPa | 2.7V | 08:30:00 | 01:12:42 | 00:00:00 | |
| AA1-15 | 2026-09-04 10:45:07 | 52.76049 | 9.27403 | 104° | 64km/h | 17220m | 5.1m/s | -54.7°C | 0.7% | 89.7hPa | 2.7V | 18:12:15 | 01:12:46 | 00:00:00 | |
| DF8AY | 2026-09-04 10:45:06 | 52.76053 | 9.27377 | 104° | 66km/h | 17214m | 6.3m/s | -54.7°C | 0.7% | 89.7hPa | 2.6V | 18:12:15 | 01:12:45 | 00:00:00 | |
| BIOWL1-15 | 2026-09-04 10:45:06 | 52.76062 | 9.27321 | 105° | 69km/h | 17203m | 5.6m/s | -54.7°C | 0.7% | 89.9hPa | 2.6V | 18:12:15 | 01:12:43 | 00:00:00 | |
| DO2SHX-10 | 2026-09-04 10:45:06 | 52.76053 | 9.27377 | 105° | 69km/h | 17214m | 6.2m/s | -54.7°C | 4.1% | 89.6hPa | 2.6V | 00:00:00 | 01:12:45 | 00:00:00 | |
| DD1CC3-15 | 2026-09-04 10:45:05 | 52.76053 | 9.27377 | 105° | 66km/h | 17214m | 6.3m/s | -54.7°C | 1.3% | 89.7hPa | 2.6V | 00:00:00 | 00:00:00 | 00:00:00 | |
| DL1NUX | 2026-09-04 10:45:04 | 52.76083 | 9.27185 | 104° | 64km/h | 17176m | 6.4m/s | -54.9°C | 4.1% | 90.2hPa | 2.6V | 08:30:00 | 01:12:38 | 00:00:00 | |
| DO2JMG | 2026-09-04 10:45:02 | 52.76070 | 9.27266 | 103° | 68km/h | 17193m | 3.9m/s | -54.8°C | 0.7% | 90hPa | 2.7V | 18:12:15 | 01:12:41 | 00:00:00 | |
| DJ2DS-15 | 2026-09-04 10:45:02 | 52.76074 | 9.27239 | 104° | 66km/h | 17188m | 6.3m/s | -54.8°C | 1.3% | 90.1hPa | 2.7V | 00:00:00 | 00:00:00 | 00:00:00 | |
| DL4BBY-15 | 2026-09-04 10:45:01 | 52.76075 | 9.27239 | 105° | 68km/h | 17188m | 6.2m/s | -55.1°C | 0% | 0hPa | 2.7V | 00:00:00 | 00:00:00 | 00:00:00 | |
| DM0DOS-11 | 2026-09-04 10:45:00 | 52.76097 | 9.27085 | 102° | 62km/h | 17156m | 4.6m/s | -54.8°C | 4% | 90.5hPa | 2.7V | 08:30:00 | 01:12:34 | 00:00:00 | |
| DO2SHX-10 | 2026-09-04 10:45:00 | 52.76079 | 9.27212 | 105° | 64km/h | 17182m | 4.8m/s | -54.9°C | 4.1% | 90.1hPa | 2.6V | 00:00:00 | 01:12:39 | 00:00:00 | |
| DK9SH | 2026-09-04 10:44:59 | 52.76079 | 9.27212 | 106° | 66km/h | 17182m | 4.8m/s | -54.9°C | 1.3% | 90.1hPa | 2.6V | 00:00:00 | 00:00:00 | 00:00:00 | |
| DL1XH-west | 2026-09-04 10:44:59 | 52.76083 | 9.27185 | 104° | 64km/h | 17176m | 6.4m/s | -54.9°C | 0.7% | 90.2hPa | 2.6V | 18:12:15 | 01:12:38 | 00:00:00 | |
| DL1XH1-15 | 2026-09-04 10:44:58 | 52.76102 | 9.27034 | 96° | 62km/h | 17145m | 4.8m/s | -54.6°C | 3.9% | 90.7hPa | 2.6V | 08:30:00 | 01:12:32 | 00:00:00 | |
| AA1-15 | 2026-09-04 10:44:56 | 52.76094 | 9.27110 | 104° | 62km/h | 17161m | 5m/s | -54.8°C | 0.6% | 90.5hPa | 2.7V | 18:12:15 | 01:12:35 | 00:00:00 | |
| DB0DAN | 2026-09-04 10:44:55 | 52.76097 | 9.27085 | 102° | 60km/h | 17156m | 4.6m/s | -54.8°C | 1.3% | 90.53hPa | 2.7V | 00:00:00 | 00:00:00 | 00:00:00 | |
| DF8AY | 2026-09-04 10:44:55 | 52.76097 | 9.27085 | 102° | 62km/h | 17156m | 4.6m/s | -54.8°C | 0.6% | 90.5hPa | 2.7V | 18:12:15 | 01:12:34 | 00:00:00 | |
| DL1NUX | 2026-09-04 10:44:54 | 52.76108 | 9.26924 | 91° | 68km/h | 17120m | 5.6m/s | -54.5°C | 4% | 91hPa | 2.7V | 08:30:00 | 01:12:28 | 00:00:00 | |
| BIOWL1-15 | 2026-09-04 10:44:53 | 52.76104 | 9.27008 | 97° | 66km/h | 17139m | 7.3m/s | -54.6°C | 0.6% | 90.8hPa | 2.6V | 18:12:15 | 01:12:31 | 00:00:00 | |
| DO2JMG | 2026-09-04 10:44:51 | 52.76106 | 9.26980 | 95° | 68km/h | 17133m | 5.1m/s | -54.5°C | 0.7% | 90.9hPa | 2.8V | 18:12:15 | 01:12:30 | 00:00:00 | |
| DL1XH-west | 2026-09-04 10:44:49 | 52.76108 | 9.26924 | 92° | 68km/h | 17120m | 5.6m/s | -54.5°C | 0.7% | 91hPa | 2.7V | 18:12:15 | 01:12:28 | 00:00:00 | |
| DL1XH1-15 | 2026-09-04 10:44:48 | 52.76115 | 9.26760 | 96° | 66km/h | 17086m | 6.9m/s | -54.8°C | 4% | 91.5hPa | 2.7V | 08:30:00 | 01:12:22 | 00:00:00 | |
| AA1-15 | 2026-09-04 10:44:45 | 52.76112 | 9.26813 | 95° | 64km/h | 17097m | 6.5m/s | -54.7°C | 0.7% | 91.4hPa | 2.7V | 18:12:15 | 01:12:24 | 00:00:00 | |
| DL3AQ-11 | 2026-09-04 10:44:45 | 52.76113 | 9.26786 | 95° | 62km/h | 17092m | 4.4m/s | -54.7°C | 1.3% | 91.4hPa | 2.6V | 00:00:00 | 00:00:00 | 00:00:00 | |
| DF4FW | 2026-09-04 10:44:44 | 52.76112 | 9.26813 | 95° | 64km/h | 17097m | 6.5m/s | -54.7°C | 1.3% | 91.4hPa | 2.6V | 00:00:00 | 00:00:00 | 00:00:00 | |
| SONDE2-11 | 2026-09-04 10:44:43 | 52.76115 | 9.26760 | 96° | 64km/h | 17086m | 6.9m/s | -54.8°C | 1.3% | 91.5hPa | 2.6V | 00:00:00 | 00:00:00 | 00:00:00 | |
| DD8BA-10 | 2026-09-04 10:44:42 | 52.76117 | 9.26732 | 97° | 71km/h | 17080m | 4.6m/s | -54.7°C | 4.1% | 91.5hPa | 2.6V | 00:00:00 | 00:00:00 | 00:00:00 | |
| DL1XH-15 | 2026-09-04 10:44:41 | 52.76121 | 9.26555 | 89° | 75km/h | 17044m | 6.1m/s | -54.8°C | 4% | 92.1hPa | 2.6V | 08:30:00 | 01:12:15 | 00:00:00 | |
| BIOWL1-15 | 2026-09-04 10:44:41 | 52.76118 | 9.26705 | 95° | 66km/h | 17074m | 7.8m/s | -54.7°C | 0.6% | 91.7hPa | 2.6V | 18:12:15 | 01:12:20 | 00:00:00 | |
| DB0DAN | 2026-09-04 10:44:40 | 52.76119 | 9.26677 | 92° | 66km/h | 17068m | 5.1m/s | -54.7°C | 1.2% | 91.78hPa | 2.6V | 00:00:00 | 00:00:00 | 00:00:00 | |
| DO2JMG | 2026-09-04 10:44:40 | 52.76119 | 9.26677 | 92° | 69km/h | 17068m | 5.1m/s | -54.7°C | 0.6% | 91.8hPa | 2.6V | 18:12:15 | 01:12:19 | 00:00:00 | |
| DL1XH-west | 2026-09-04 10:44:38 | 52.76121 | 9.26617 | 92° | 75km/h | 17055m | 5.7m/s | -54.8°C | 0.7% | 92hPa | 2.7V | 18:12:15 | 01:12:17 | 00:00:00 | |
| AA1-15 | 2026-09-04 10:44:34 | 52.76121 | 9.26495 | 91° | 71km/h | 17033m | 6.1m/s | -54.7°C | 0.8% | 92.3hPa | 2.7V | 18:12:15 | 01:12:13 | 00:00:00 | |
| DL3AQ-11 | 2026-09-04 10:44:34 | 52.76121 | 9.26465 | 91° | 71km/h | 17026m | 6.1m/s | -54.7°C | 1.3% | 92.3hPa | 2.6V | 00:00:00 | 00:00:00 | 00:00:00 | |
| DO2SHX-10 | 2026-09-04 10:44:33 | 52.76121 | 9.26465 | 92° | 71km/h | 17027m | 6.0m/s | -54.6°C | 4.1% | 92.3hPa | 2.6V | 00:00:00 | 01:12:12 | 00:00:00 | |
| DD8BA-10 | 2026-09-04 10:44:32 | 52.76122 | 9.26434 | 92° | 77km/h | 17021m | 5.3m/s | -54.6°C | 4.1% | 92.4hPa | 2.6V | 00:00:00 | 00:00:00 | 00:00:00 | |
| SMARD9-15 | 2026-09-04 10:44:31 | 52.76122 | 9.26405 | 90° | 69km/h | 17015m | 5.9m/s | -54.7°C | 1.3% | 92.6hPa | 2.6V | 00:00:00 | 00:00:00 | 00:00:00 | |
| DL1XH-15 | 2026-09-04 10:44:31 | 52.76119 | 9.26250 | 83° | 77km/h | 16986m | 4.8m/s | -54.8°C | 4% | 92.9hPa | 2.7V | 08:30:00 | 01:12:05 | 00:00:00 | |
| DM0DOS-11 | 2026-09-04 10:44:30 | 52.76117 | 9.26218 | 82° | 78km/h | 16980m | 6.7m/s | -54.9°C | 4% | 93hPa | 2.6V | 08:30:00 | 01:12:04 | 00:00:00 | |
| BIOWL1-15 | 2026-09-04 10:44:30 | 52.76122 | 9.26375 | 90° | 71km/h | 17009m | 5.7m/s | -54.7°C | 0.8% | 92.6hPa | 2.7V | 18:12:15 | 01:12:09 | 00:00:00 | |
| DO2JMG | 2026-09-04 10:44:29 | 52.76122 | 9.26344 | 90° | 75km/h | 17003m | 6m/s | -54.7°C | 0.7% | 92.7hPa | 2.6V | 18:12:15 | 01:12:08 | 00:00:00 | |
| DL1XH-west | 2026-09-04 10:44:28 | 52.76122 | 9.26313 | 88° | 77km/h | 16998m | 4.8m/s | -54.7°C | 0.7% | 92.8hPa | 2.6V | 18:12:15 | 01:12:07 | 00:00:00 | |
| DL4XJ-10 | 2026-09-04 10:44:28 | 52.76122 | 9.26313 | 89° | 71km/h | 16998m | 4.8m/s | -54.9°C | 0% | 0hPa | 2.6V | 00:00:00 | 00:00:00 | 00:00:00 | |
| DB0NH | 2026-09-04 10:44:27 | 52.76121 | 9.26281 | 87° | 66km/h | 16992m | 6.7m/s | -54.7°C | 4.0% | 92.8hPa | 2.6V | 00:00:00 | 01:12:06 | 00:00:00 | |
| DB0DAN | 2026-09-04 10:44:25 | 52.76117 | 9.26218 | 82° | 75km/h | 16981m | 6.7m/s | -54.9°C | 1.3% | 93.06hPa | 2.6V | 00:00:00 | 00:00:00 | 00:00:00 | |
| DF8AY | 2026-09-04 10:44:24 | 52.76114 | 9.26185 | 82° | 80km/h | 16975m | 4.6m/s | -54.9°C | 0.7% | 93.1hPa | 2.6V | 18:12:15 | 01:12:03 | 00:00:00 | |
| AA1-15 | 2026-09-04 10:44:23 | 52.76111 | 9.26152 | 81° | 78km/h | 16971m | 4m/s | -54.9°C | 0.7% | 93.2hPa | 2.7V | 18:12:15 | 01:12:02 | 00:00:00 | |
| DO9LL-15 | 2026-09-04 10:44:22 | 52.76108 | 9.26120 | 80° | 62km/h | 16966m | 5.8m/s | -54.9°C | 4.2% | 93.2hPa | 2.7V | 00:00:00 | 01:12:01 | 00:00:00 | |
| DL1XH-15 | 2026-09-04 10:44:21 | 52.76096 | 9.25949 | 86° | 64km/h | 16931m | 5.6m/s | -54.8°C | 4.3% | 93.8hPa | 2.7V | 08:30:00 | 01:11:55 | 00:00:00 | |
| DO2SHX-10 | 2026-09-04 10:44:21 | 52.76105 | 9.26090 | 82° | 71km/h | 16961m | 4.8m/s | -54.9°C | 4.1% | 93.3hPa | 2.6V | 00:00:00 | 01:12:00 | 00:00:00 | |
| DM0DOS-11 | 2026-09-04 10:44:20 | 52.76095 | 9.25922 | 87° | 68km/h | 16924m | 6.9m/s | -54.8°C | 4.2% | 93.9hPa | 2.6V | 08:30:00 | 01:11:54 | 00:00:00 | |
| BIOWL1-15 | 2026-09-04 10:44:19 | 52.76100 | 9.26031 | 84° | 69km/h | 16949m | 5.6m/s | -54.8°C | 0.8% | 93.5hPa | 2.6V | 18:12:15 | 01:11:58 | 00:00:00 | |
| DO2JMG | 2026-09-04 10:44:18 | 52.76099 | 9.26002 | 85° | 68km/h | 16943m | 7.2m/s | -54.9°C | 0.8% | 93.6hPa | 2.8V | 18:12:15 | 01:11:57 | 00:00:00 | |
| DL1XH-west | 2026-09-04 10:44:17 | 52.76097 | 9.25975 | 85° | 64km/h | 16937m | 5.8m/s | -54.9°C | 0.9% | 93.7hPa | 2.7V | 18:12:15 | 01:11:56 | 00:00:00 | |
| AA1-15 | 2026-09-04 10:44:13 | 52.76094 | 9.25866 | 87° | 68km/h | 16912m | 6.6m/s | -54.7°C | 0.8% | 94hPa | 2.6V | 18:12:15 | 01:11:52 | 00:00:00 | |
| DO2SHX-10 | 2026-09-04 10:44:12 | 52.76092 | 9.25838 | 84° | 66km/h | 16908m | 2.8m/s | -54.6°C | 4.1% | 94.0hPa | 2.8V | 00:00:00 | 01:11:51 | 00:00:00 | |
| DL1XH-15 | 2026-09-04 10:44:11 | 52.76083 | 9.25678 | 90° | 60km/h | 16874m | 7.2m/s | -54.6°C | 3.9% | 94.6hPa | 2.8V | 08:30:00 | 01:11:45 | 00:00:00 | |
| DB0DAN | 2026-09-04 10:44:10 | 52.76088 | 9.25783 | 82° | 66km/h | 16898m | 5m/s | -54.6°C | 1.3% | 94.26hPa | 2.7V | 00:00:00 | 00:00:00 | 00:00:00 | |
| DM0DOS-11 | 2026-09-04 10:44:10 | 52.76083 | 9.25652 | 89° | 62km/h | 16867m | 7.1m/s | -54.6°C | 3.9% | 94.7hPa | 2.8V | 08:30:00 | 01:11:44 | 00:00:00 | |
| DD1CC8 | 2026-09-04 10:44:09 | 52.76084 | 9.25729 | 86° | 62km/h | 16886m | 6.8m/s | -54.5°C | 1.3% | 94.4hPa | 2.6V | 00:00:00 | 00:00:00 | 00:00:00 | |
| DL1XH1-15 | 2026-09-04 10:44:08 | 52.76084 | 9.25601 | 91° | 60km/h | 16855m | 6.5m/s | -54.5°C | 4.1% | 94.9hPa | 2.6V | 08:30:00 | 01:11:42 | 00:00:00 | |
| BIOWL1-15 | 2026-09-04 10:44:08 | 52.76084 | 9.25729 | 87° | 62km/h | 16886m | 6.8m/s | -54.5°C | 0.7% | 94.4hPa | 2.6V | 18:12:15 | 01:11:47 | 00:00:00 | |
| DL1XH-west | 2026-09-04 10:44:07 | 52.76084 | 9.25703 | 89° | 60km/h | 16880m | 4.6m/s | -54.5°C | 0.7% | 94.5hPa | 2.7V | 18:12:15 | 01:11:46 | 00:00:00 | |
| DF8AY | 2026-09-04 10:44:03 | 52.76084 | 9.25601 | 92° | 60km/h | 16855m | 6.5m/s | -54.5°C | 0.8% | 94.9hPa | 2.6V | 18:12:15 | 01:11:42 | 00:00:00 | |
| AA1-15 | 2026-09-04 10:44:02 | 52.76084 | 9.25576 | 94° | 58km/h | 16849m | 5.7m/s | -54.5°C | 0.8% | 95hPa | 2.6V | 18:12:15 | 01:11:41 | 00:00:00 | |
| DD8BA-10 | 2026-09-04 10:44:02 | 52.76084 | 9.25576 | 94° | 53km/h | 16849m | 5.7m/s | -54.5°C | 4.1% | 94.9hPa | 2.6V | 00:00:00 | 00:00:00 | 00:00:00 | |
| DL1XH-15 | 2026-09-04 10:44:01 | 52.76085 | 9.25443 | 89° | 51km/h | 16816m | 6.4m/s | -54.6°C | 4.1% | 95.5hPa | 2.6V | 08:30:00 | 01:11:35 | 00:00:00 | |
| DK5PH-5 | 2026-09-04 10:44:01 | 52.76085 | 9.25553 | 94° | 51km/h | 16843m | 5.4m/s | -54.4°C | 4.1% | 95.0hPa | 2.6V | 00:00:00 | 01:11:40 | 00:00:00 | |
| DM0DOS-11 | 2026-09-04 10:44:00 | 52.76085 | 9.25421 | 89° | 53km/h | 16811m | 4.9m/s | -54.6°C | 4.1% | 95.5hPa | 2.6V | 08:30:00 | 01:11:34 | 00:00:00 | |
| SMARD9-15 | 2026-09-04 10:44:00 | 52.76086 | 9.25507 | 89° | 53km/h | 16832m | 4.5m/s | -54.5°C | 1.4% | 95.2hPa | 2.8V | 00:00:00 | 00:00:00 | 00:00:00 | |
| DO2SHX-10 | 2026-09-04 10:43:59 | 52.76086 | 9.25507 | 90° | 51km/h | 16832m | 4.4m/s | -54.5°C | 4.1% | 95.2hPa | 2.8V | 00:00:00 | 01:11:38 | 00:00:00 | |
| DL1XH1-15 | 2026-09-04 10:43:58 | 52.76086 | 9.25377 | 93° | 55km/h | 16800m | 5.2m/s | -54.5°C | 4% | 95.7hPa | 2.8V | 08:30:00 | 01:11:32 | 00:00:00 | |
| BIOWL1-15 | 2026-09-04 10:43:58 | 52.76085 | 9.25485 | 90° | 51km/h | 16827m | 6.2m/s | -54.6°C | 0.9% | 95.3hPa | 2.7V | 18:12:15 | 01:11:37 | 00:00:00 | |
| DO2JMG | 2026-09-04 10:43:57 | 52.76085 | 9.25464 | 90° | 51km/h | 16822m | 4.2m/s | -54.6°C | 0.8% | 95.4hPa | 2.6V | 18:12:15 | 01:11:36 | 00:00:00 | |
| DL1LOL-11 | 2026-09-04 10:43:57 | 52.76085 | 9.25464 | 91° | 51km/h | 16822m | 4.2m/s | -54.6°C | 1.4% | 95.4hPa | 2.6V | 00:00:00 | 00:00:00 | 00:00:00 | |
| DL8OAI-8 | 2026-09-04 10:43:56 | 52.76085 | 9.25464 | 91° | 51km/h | 16822m | 4.2m/s | -54.6°C | 1.4% | 95.4hPa | 2.6V | 00:00:00 | 00:00:00 | 00:00:00 | |
| DL1XH-west | 2026-09-04 10:43:56 | 52.76085 | 9.25443 | 90° | 51km/h | 16816m | 6.4m/s | -54.6°C | 0.8% | 95.5hPa | 2.6V | 18:12:15 | 01:11:35 | 00:00:00 | |
| DB0DAN | 2026-09-04 10:43:55 | 52.76085 | 9.25421 | 89° | 51km/h | 16811m | 4.9m/s | -54.6°C | 1.4% | 95.55hPa | 2.6V | 00:00:00 | 00:00:00 | 00:00:00 | |
| DF8AY | 2026-09-04 10:43:52 | 52.76087 | 9.25354 | 94° | 57km/h | 16795m | 4.8m/s | -54.6°C | 0.7% | 95.8hPa | 2.7V | 18:12:15 | 01:11:31 | 00:00:00 | |
| AA1-15 | 2026-09-04 10:43:51 | 52.76088 | 9.25330 | 93° | 58km/h | 16790m | 5.4m/s | -54.6°C | 0.7% | 95.8hPa | 2.6V | 18:12:15 | 01:11:30 | 00:00:00 | |
| DO9LL-15 | 2026-09-04 10:43:51 | 52.76088 | 9.25330 | 94° | 53km/h | 16790m | 5.3m/s | -54.6°C | 4.0% | 95.8hPa | 2.6V | 00:00:00 | 01:11:30 | 00:00:00 | |
| DM0DOS-11 | 2026-09-04 10:43:50 | 52.76094 | 9.25186 | 94° | 55km/h | 16759m | 5.9m/s | -54.5°C | 4.1% | 96.4hPa | 2.6V | 08:30:00 | 01:11:24 | 00:00:00 | |
| BIOWL1-15 | 2026-09-04 10:43:48 | 52.76091 | 9.25257 | 95° | 58km/h | 16774m | 4.8m/s | -54.6°C | 0.7% | 96.1hPa | 2.8V | 18:12:15 | 01:11:27 | 00:00:00 | |
| DL1XH-west | 2026-09-04 10:43:46 | 52.76093 | 9.25209 | 93° | 57km/h | 16764m | 4.6m/s | -54.5°C | 0.9% | 96.3hPa | 2.7V | 18:12:15 | 01:11:25 | 00:00:00 | |
| BIOWL9-15 | 2026-09-04 10:43:44 | 52.76095 | 9.25164 | 95° | 53km/h | 16753m | 4.6m/s | -54.5°C | 1.4% | 96.5hPa | 2.8V | 00:00:00 | 00:00:00 | 00:00:00 | |
| DF8AY | 2026-09-04 10:43:42 | 52.76098 | 9.25118 | 96° | 55km/h | 16742m | 4.7m/s | -54.8°C | 0.8% | 96.6hPa | 2.8V | 18:12:15 | 01:11:21 | 00:00:00 | |
| AA1-15 | 2026-09-04 10:43:41 | 52.76099 | 9.25095 | 98° | 55km/h | 16737m | 6m/s | -54.9°C | 0.8% | 96.7hPa | 2.8V | 18:12:15 | 01:11:20 | 00:00:00 | |
| DB0DAN | 2026-09-04 10:43:40 | 52.76101 | 9.25072 | 100° | 55km/h | 16731m | 5.1m/s | -54.8°C | 1.4% | 96.76hPa | 2.7V | 00:00:00 | 00:00:00 | 00:00:00 | |
| DM0DOS-11 | 2026-09-04 10:43:40 | 52.76116 | 9.24952 | 101° | 58km/h | 16705m | 6.4m/s | -54.9°C | 4.1% | 97.1hPa | 2.8V | 08:30:00 | 01:11:14 | 00:00:00 | |
| EDDB2-12 | 2026-09-04 10:43:39 | 52.76104 | 9.25049 | 100° | 58km/h | 16726m | 6.4m/s | -54.8°C | 1.4% | 96.8hPa | 2.6V | 00:00:00 | 00:00:00 | 00:00:00 | |
| DL1XH1-15 | 2026-09-04 10:43:38 | 52.76122 | 9.24907 | 102° | 53km/h | 16695m | 6.4m/s | -54.9°C | 4.1% | 97.3hPa | 2.6V | 08:30:00 | 01:11:12 | 00:00:00 | |
| BIOWL1-15 | 2026-09-04 10:43:38 | 52.76107 | 9.25024 | 100° | 60km/h | 16720m | 3.6m/s | -54.8°C | 0.9% | 96.9hPa | 2.6V | 18:12:15 | 01:11:17 | 00:00:00 | |
| DO2JMG | 2026-09-04 10:43:36 | 52.76113 | 9.24976 | 103° | 58km/h | 16711m | 4.2m/s | -54.9°C | 0.7% | 97.1hPa | 2.8V | 18:12:15 | 01:11:15 | 00:00:00 | |
| DF8AY | 2026-09-04 10:43:32 | 52.76127 | 9.24867 | 102° | 47km/h | 16684m | 6.1m/s | -54.9°C | 0.8% | 97.5hPa | 2.7V | 18:12:15 | 01:11:10 | 00:00:00 | |
| DO2SHX-10 | 2026-09-04 10:43:32 | 52.76124 | 9.24886 | 104° | 47km/h | 16689m | 4.3m/s | -54.8°C | 4.2% | 97.3hPa | 2.6V | 00:00:00 | 01:11:11 | 00:00:00 | |
| DL1XH-15 | 2026-09-04 10:43:31 | 52.76139 | 9.24773 | 100° | 47km/h | 16657m | 6m/s | -54.8°C | 4.3% | 97.8hPa | 2.6V | 08:30:00 | 01:11:05 | 00:00:00 | |
| AA1-15 | 2026-09-04 10:43:30 | 52.76129 | 9.24848 | 100° | 46km/h | 16678m | 5.2m/s | -55°C | 0.9% | 97.6hPa | 2.8V | 18:12:15 | 01:11:09 | 00:00:00 | |
| DF2AP-13 | 2026-09-04 10:43:30 | 52.76129 | 9.24848 | 101° | 51km/h | 16678m | 5.2m/s | -54.9°C | 4.2% | 97.5hPa | 2.7V | 00:00:00 | 01:11:09 | 00:00:00 | |
| DL1XH1-15 | 2026-09-04 10:43:29 | 52.76145 | 9.24711 | 97° | 53km/h | 16642m | 4m/s | -54.9°C | 4.2% | 98.1hPa | 2.8V | 08:30:00 | 01:11:02 | 00:00:00 | |
| DO2SHX-10 | 2026-09-04 10:43:29 | 52.76131 | 9.24830 | 102° | 46km/h | 16673m | 4.9m/s | -54.9°C | 4.2% | 97.6hPa | 2.7V | 00:00:00 | 01:11:08 | 08:30:00 | |
| HSKMA3-T | 2026-09-04 10:43:28 | 52.77015 | 8.87237 | 88° | 173km/h | 12783m | 3.8m/s | -62.6°C | 54.9% | 181.1hPa | 2.8V | 18:12:15 | 00:57:23 | 00:00:00 | |
| BIOWL1-15 | 2026-09-04 10:43:28 | 52.76137 | 9.24792 | 104° | 47km/h | 16663m | 4.7m/s | -54.9°C | 0.9% | 97.8hPa | 2.6V | 18:12:15 | 01:11:06 | 00:00:00 | |
| DL4XJ-10 | 2026-09-04 10:43:28 | 52.76134 | 9.24811 | 105° | 49km/h | 16668m | 5.2m/s | -55.2°C | 0% | 0hPa | 2.7V | 00:00:00 | 00:00:00 | 00:00:00 | |
| DC6BW-12 | 2026-09-04 10:43:27 | 52.76137 | 9.24792 | 105° | 47km/h | 16663m | 4.7m/s | -54.9°C | 1.5% | 97.8hPa | 2.7V | 00:00:00 | 00:00:00 | 00:00:00 | |
| DB0DAN | 2026-09-04 10:43:25 | 52.76141 | 9.24754 | 98° | 47km/h | 16652m | 4.1m/s | -54.8°C | 1.5% | 97.95hPa | 2.7V | 00:00:00 | 00:00:00 | 00:00:00 | |
| DL1XH-west | 2026-09-04 10:43:25 | 52.76141 | 9.24754 | 98° | 49km/h | 16652m | 4.1m/s | -54.8°C | 0.9% | 98hPa | 2.7V | 18:12:15 | 01:11:04 | 00:00:00 | |
| DL3AQ-11 | 2026-09-04 10:43:25 | 52.76141 | 9.24754 | 98° | 47km/h | 16652m | 4.1m/s | -54.8°C | 1.5% | 98.0hPa | 2.8V | 00:00:00 | 00:00:00 | 00:00:00 | |
| DL1NUX | 2026-09-04 10:43:23 | 52.76150 | 9.24600 | 94° | 51km/h | 16616m | 5.3m/s | -55°C | 4.1% | 98.5hPa | 2.8V | 08:30:00 | 01:10:57 | 00:00:00 | |
| DO2SHX-10 | 2026-09-04 10:43:23 | 52.76145 | 9.24711 | 98° | 55km/h | 16642m | 4.0m/s | -54.8°C | 4.2% | 98.1hPa | 2.7V | 00:00:00 | 01:11:02 | 00:00:00 | |
| DD8BA-10 | 2026-09-04 10:43:22 | 52.76146 | 9.24689 | 96° | 49km/h | 16637m | 5.5m/s | -54.9°C | 4.1% | 98.1hPa | 2.7V | 00:00:00 | 00:00:00 | 08:30:00 | |
| DL1XH-15 | 2026-09-04 10:43:21 | 52.76152 | 9.24560 | 96° | 46km/h | 16606m | 4.5m/s | -55°C | 4.2% | 98.7hPa | 2.7V | 08:30:00 | 01:10:55 | 00:00:00 | |
| AA1-15 | 2026-09-04 10:43:20 | 52.76148 | 9.24644 | 93° | 53km/h | 16627m | 4.3m/s | -55°C | 0.8% | 98.4hPa | 2.6V | 18:12:15 | 01:10:59 | 00:00:00 | |
| DO2SHX-10 | 2026-09-04 10:43:20 | 52.76148 | 9.24644 | 93° | 53km/h | 16627m | 4.3m/s | -55.0°C | 4.1% | 98.3hPa | 2.6V | 00:00:00 | 01:10:59 | 00:00:00 | |
| DL1ZP-14 | 2026-09-04 10:43:19 | 52.76149 | 9.24622 | 94° | 53km/h | 16621m | 5.7m/s | -55.0°C | 1.4% | 98.4hPa | 2.7V | 00:00:00 | 00:00:00 | 00:00:00 | |
| DL1XH1-15 | 2026-09-04 10:43:18 | 52.76157 | 9.24503 | 98° | 46km/h | 16590m | 5.5m/s | -55°C | 4.3% | 98.9hPa | 2.7V | 08:30:00 | 01:10:52 | 00:00:00 | |
| BIOWL1-15 | 2026-09-04 10:43:18 | 52.76152 | 9.24560 | 96° | 46km/h | 16606m | 4.6m/s | -55°C | 0.9% | 98.7hPa | 2.7V | 18:12:15 | 01:10:55 | 00:00:00 | |
| DO2JMG | 2026-09-04 10:43:15 | 52.76153 | 9.24541 | 99° | 46km/h | 16601m | 5.8m/s | -55°C | 1% | 98.8hPa | 2.6V | 18:12:15 | 01:10:54 | 00:00:00 | |
| DL1XH-west | 2026-09-04 10:43:14 | 52.76155 | 9.24522 | 100° | 46km/h | 16595m | 4.4m/s | -55°C | 1% | 98.8hPa | 2.6V | 18:12:15 | 01:10:53 | 00:00:00 | |
| DJ2DS-15 | 2026-09-04 10:43:14 | 52.76155 | 9.24522 | 101° | 53km/h | 16595m | 4.3m/s | -54.9°C | 4.3% | 98.8hPa | 2.7V | 00:00:00 | 01:10:53 | 00:00:00 | |
| BIOWL9-15 | 2026-09-04 10:43:13 | 52.76157 | 9.24503 | 98° | 46km/h | 16591m | 5.5m/s | -55.0°C | 1.5% | 98.9hPa | 2.7V | 00:00:00 | 00:00:00 | 00:00:00 | |
| DD8BA-10 | 2026-09-04 10:43:12 | 52.76159 | 9.24483 | 99° | 55km/h | 16586m | 4.1m/s | -54.9°C | 4.3% | 98.9hPa | 2.7V | 00:00:00 | 00:00:00 | 00:00:00 | |
| HSKMA3-T | 2026-09-04 10:43:11 | 52.77001 | 8.86425 | 89° | 179km/h | 12733m | 5.4m/s | -62.2°C | 53.8% | 182.5hPa | 2.7V | 18:12:15 | 00:57:12 | 00:00:00 | |
| DL1XH-15 | 2026-09-04 10:43:11 | 52.76170 | 9.24349 | 97° | 57km/h | 16555m | 5.4m/s | -54.9°C | 4.1% | 99.4hPa | 2.8V | 08:30:00 | 01:10:45 | 00:00:00 | |
| DO2SHX-10 | 2026-09-04 10:43:11 | 52.76161 | 9.24463 | 100° | 55km/h | 16581m | 6.0m/s | -54.9°C | 4.3% | 99.0hPa | 2.7V | 00:00:00 | 01:10:50 | 00:00:00 | |
| DM0DOS-11 | 2026-09-04 10:43:10 | 52.76172 | 9.24326 | 97° | 57km/h | 16550m | 5.3m/s | -54.9°C | 4.1% | 99.5hPa | 2.8V | 08:30:00 | 01:10:44 | 00:00:00 | |
| AA1-15 | 2026-09-04 10:43:09 | 52.76165 | 9.24418 | 98° | 55km/h | 16570m | 5.6m/s | -54.9°C | 0.9% | 99.2hPa | 2.6V | 18:12:15 | 01:10:48 | 00:00:00 | |
| BIOWL1-15 | 2026-09-04 10:43:07 | 52.76172 | 9.24326 | 97° | 57km/h | 16550m | 5.3m/s | -54.9°C | 0.9% | 99.5hPa | 2.8V | 18:12:15 | 01:10:44 | 00:00:00 | |
| DL1XH-west | 2026-09-04 10:43:04 | 52.76174 | 9.24303 | 97° | 55km/h | 16545m | 5.2m/s | -54.8°C | 0.9% | 99.6hPa | 2.8V | 18:12:15 | 01:10:43 | 00:00:00 | |
| HSKMA3-T | 2026-09-04 10:43:03 | 52.77000 | 8.86351 | 88° | 177km/h | 12729m | 3m/s | -62.1°C | 53.7% | 182.6hPa | 2.8V | 18:12:15 | 00:57:11 | 00:00:00 | |
| DO2SHX-10 | 2026-09-04 10:43:03 | 52.76175 | 9.24280 | 98° | 55km/h | 16540m | 4.2m/s | -54.8°C | 4.0% | 99.6hPa | 2.6V | 00:00:00 | 01:10:42 | 00:00:00 | |
| DD8BA-10 | 2026-09-04 10:43:02 | 52.76177 | 9.24258 | 99° | 55km/h | 16535m | 5.4m/s | -54.8°C | 4.1% | 99.7hPa | 2.6V | 00:00:00 | 00:00:00 | 00:00:00 | |
| DL1XH-15 | 2026-09-04 10:43:01 | 52.76192 | 9.24126 | 99° | 55km/h | 16505m | 5.3m/s | -55.1°C | 4.2% | 100.2hPa | 2.6V | 08:30:00 | 01:10:35 | 00:00:00 | |
| DF8AY | 2026-09-04 10:43:00 | 52.76185 | 9.24193 | 100° | 51km/h | 16519m | 4.1m/s | -54.8°C | 0.9% | 100.1hPa | 2.8V | 18:12:15 | 01:10:38 | 00:00:00 | |
| DM0DOS-11 | 2026-09-04 10:43:00 | 52.76194 | 9.24104 | 97° | 55km/h | 16500m | 4.7m/s | -55.2°C | 4.2% | 100.3hPa | 2.7V | 08:30:00 | 01:10:34 | 00:00:00 | |
| AA1-15 | 2026-09-04 10:42:58 | 52.76187 | 9.24171 | 101° | 53km/h | 16514m | 5.9m/s | -54.9°C | 1% | 100.1hPa | 2.8V | 18:12:15 | 01:10:37 | 00:00:00 | |
| SMARD9-15 | 2026-09-04 10:42:58 | 52.76189 | 9.24149 | 99° | 55km/h | 16509m | 3.7m/s | -54.9°C | 1.5% | 100.2hPa | 2.7V | 00:00:00 | 00:00:00 | 00:00:00 | |
| DO2SHX-10 | 2026-09-04 10:42:57 | 52.76189 | 9.24149 | 100° | 55km/h | 16509m | 3.6m/s | -54.9°C | 4.2% | 100.1hPa | 2.7V | 00:00:00 | 01:10:36 | 00:00:00 | |
| DF4FW | 2026-09-04 10:42:56 | 52.76189 | 9.24149 | 101° | 55km/h | 16509m | 3.7m/s | -54.9°C | 1.5% | 100.2hPa | 2.7V | 00:00:00 | 00:00:00 | 00:00:00 | |
| DB0DAN | 2026-09-04 10:42:55 | 52.76194 | 9.24104 | 98° | 53km/h | 16500m | 4.7m/s | -55.2°C | 1.5% | 100.34hPa | 2.7V | 00:00:00 | 00:00:00 | 00:00:00 | |
| DO2JMG | 2026-09-04 10:42:54 | 52.76196 | 9.24081 | 99° | 57km/h | 16495m | 5.4m/s | -55.4°C | 1% | 100.4hPa | 2.8V | 18:12:15 | 01:10:33 | 00:00:00 | |
| DL1XH-west | 2026-09-04 10:42:53 | 52.76198 | 9.24058 | 101° | 57km/h | 16489m | 5.3m/s | -55.5°C | 1% | 100.4hPa | 2.8V | 18:12:15 | 01:10:32 | 00:00:00 | |
| DD8BA-10 | 2026-09-04 10:42:52 | 52.76201 | 9.24034 | 102° | 58km/h | 16485m | 3.8m/s | -55.6°C | 4.4% | 100.5hPa | 2.7V | 00:00:00 | 00:00:00 | 00:00:00 | |
| DL1XH-15 | 2026-09-04 10:42:51 | 52.76217 | 9.23894 | 97° | 60km/h | 16455m | 4.4m/s | -55.8°C | 4.5% | 101hPa | 2.7V | 08:30:00 | 01:10:25 | 00:00:00 | |
| DO9LL-15 | 2026-09-04 10:42:51 | 52.76204 | 9.24011 | 101° | 66km/h | 16480m | 5.4m/s | -55.7°C | 4.5% | 100.6hPa | 2.6V | 00:00:00 | 01:10:30 | 08:30:00 | |
| DM0DOS-11 | 2026-09-04 10:42:50 | 52.76219 | 9.23870 | 98° | 60km/h | 16450m | 5.9m/s | -55.8°C | 4.4% | 101.1hPa | 2.6V | 08:30:00 | 01:10:24 | 00:00:00 | |
| DF8AY | 2026-09-04 10:42:48 | 52.76212 | 9.23942 | 102° | 58km/h | 16466m | 4.9m/s | -55.8°C | 1.1% | 100.9hPa | 2.8V | 18:12:15 | 01:10:27 | 00:00:00 | |
| AA1-15 | 2026-09-04 10:42:47 | 52.76215 | 9.23918 | 99° | 58km/h | 16460m | 5.6m/s | -55.8°C | 1.1% | 101hPa | 2.8V | 18:12:15 | 01:10:26 | 00:00:00 | |
| BIOWL1-15 | 2026-09-04 10:42:46 | 52.76221 | 9.23845 | 99° | 60km/h | 16445m | 4.7m/s | -55.8°C | 1.1% | 101.2hPa | 2.6V | 18:12:15 | 01:10:23 | 00:00:00 | |
| DL3AQ-11 | 2026-09-04 10:42:45 | 52.76221 | 9.23845 | 98° | 60km/h | 16445m | 4.7m/s | -55.8°C | 1.5% | 101.2hPa | 2.7V | 00:00:00 | 00:00:00 | 00:00:00 | |
| D01LWL | 2026-09-04 10:42:44 | 52.76221 | 9.23845 | 98° | 60km/h | 16445m | 4.7m/s | -55.8°C | 1.5% | 101.2hPa | 2.7V | 00:00:00 | 00:00:00 | 00:00:00 | |
| DL1XH-west | 2026-09-04 10:42:43 | 52.76223 | 9.23820 | 97° | 62km/h | 16440m | 5.8m/s | -55.7°C | 0.9% | 101.3hPa | 2.7V | 18:12:15 | 01:10:22 | 00:00:00 | |
| DD8BA-10 | 2026-09-04 10:42:42 | 52.76225 | 9.23794 | 96° | 66km/h | 16435m | 4.4m/s | -55.7°C | 4.3% | 101.3hPa | 2.8V | 00:00:00 | 00:00:00 | 00:00:00 | |
| DL1XH-15 | 2026-09-04 10:42:41 | 52.76234 | 9.23636 | 96° | 68km/h | 16405m | 4.8m/s | -55.7°C | 4.5% | 101.8hPa | 2.8V | 08:30:00 | 01:10:15 | 00:00:00 | |
| GOEST3-10 | 2026-09-04 10:42:41 | 52.76227 | 9.23768 | 97° | 64km/h | 16429m | 6.0m/s | -55.8°C | 4.4% | 101.4hPa | 2.8V | 00:00:00 | 01:10:20 | 00:00:00 | |
| DM0DOS-11 | 2026-09-04 10:42:40 | 52.76236 | 9.23608 | 97° | 68km/h | 16400m | 4.1m/s | -55.7°C | 4.5% | 101.9hPa | 2.8V | 08:30:00 | 01:10:14 | 00:00:00 | |
| DL1XH1-15 | 2026-09-04 10:42:39 | 52.76240 | 9.23552 | 96° | 68km/h | 16390m | 4.3m/s | -55.8°C | 4.6% | 102.1hPa | 2.6V | 08:30:00 | 01:10:12 | 00:00:00 | |
| DF8AY | 2026-09-04 10:42:38 | 52.76231 | 9.23690 | 94° | 64km/h | 16414m | 4.3m/s | -55.7°C | 1.1% | 101.7hPa | 2.7V | 18:12:15 | 01:10:17 | 00:00:00 | |
| AA1-15 | 2026-09-04 10:42:37 | 52.76232 | 9.23663 | 95° | 66km/h | 16410m | 4.8m/s | -55.7°C | 1.1% | 101.8hPa | 2.7V | 18:12:15 | 01:10:16 | 00:00:00 | |
| BIOWL1-15 | 2026-09-04 10:42:34 | 52.76238 | 9.23580 | 96° | 69km/h | 16395m | 5.5m/s | -55.8°C | 1.2% | 102hPa | 2.7V | 18:12:15 | 01:10:13 | 00:00:00 | |
| DL1XH-west | 2026-09-04 10:42:33 | 52.76240 | 9.23552 | 97° | 68km/h | 16390m | 4.3m/s | -55.8°C | 1.2% | 102.1hPa | 2.6V | 18:12:15 | 01:10:12 | 00:00:00 | |
| DO2SHX-10 | 2026-09-04 10:42:33 | 52.76240 | 9.23551 | 97° | 68km/h | 16391m | 4.3m/s | -55.7°C | 4.6% | 102.0hPa | 2.6V | 00:00:00 | 01:10:12 | 08:30:00 | |
| DJ2KF-10 | 2026-09-04 10:42:32 | 52.76242 | 9.23523 | 98° | 77km/h | 16386m | 5.0m/s | -55.7°C | 4.6% | 102.1hPa | 2.6V | 00:00:00 | 01:10:11 | 00:00:00 | |
| DL1XH-15 | 2026-09-04 10:42:31 | 52.76249 | 9.23357 | 90° | 66km/h | 16356m | 5.6m/s | -55.9°C | 4.5% | 102.6hPa | 2.6V | 08:30:00 | 01:10:05 | 00:00:00 | |
| DL4BBY-15 | 2026-09-04 10:42:31 | 52.76244 | 9.23495 | 97° | 73km/h | 16382m | 4.0m/s | -56.0°C | 0% | 0hPa | 2.7V | 00:00:00 | 00:00:00 | 00:00:00 | |
| DM0DOS-11 | 2026-09-04 10:42:30 | 52.76249 | 9.23330 | 88° | 66km/h | 16352m | 4.1m/s | -55.8°C | 4.5% | 102.7hPa | 2.7V | 08:30:00 | 01:10:04 | 00:00:00 | |
| DO2SHX-10 | 2026-09-04 10:42:30 | 52.76246 | 9.23467 | 95° | 68km/h | 16377m | 5.2m/s | -55.7°C | 4.5% | 102.2hPa | 2.8V | 00:00:00 | 01:10:09 | 00:00:00 | |
| HTAHTA | 2026-09-04 10:42:29 | 52.76248 | 9.23411 | 92° | 66km/h | 16367m | 5.7m/s | -55.9°C | 1.6% | 102.4hPa | 2.8V | 00:00:00 | 00:00:00 | 00:00:00 | |
| DL1XH1-15 | 2026-09-04 10:42:28 | 52.76249 | 9.23274 | 91° | 68km/h | 16342m | 4.1m/s | -55.7°C | 4.4% | 102.8hPa | 2.8V | 08:30:00 | 01:10:02 | 00:00:00 | |
| DF8AY | 2026-09-04 10:42:27 | 52.76248 | 9.23384 | 92° | 66km/h | 16362m | 4.5m/s | -55.8°C | 1.2% | 102.5hPa | 2.6V | 18:12:15 | 01:10:06 | 00:00:00 | |
| AA1-15 | 2026-09-04 10:42:26 | 52.76249 | 9.23357 | 90° | 66km/h | 16356m | 5.6m/s | -55.9°C | 1.1% | 102.6hPa | 2.6V | 18:12:15 | 01:10:05 | 00:00:00 | |
| DB0DAN | 2026-09-04 10:42:25 | 52.76248 | 9.23330 | 89° | 64km/h | 16352m | 4.1m/s | -55.8°C | 1.6% | 102.68hPa | 2.7V | 00:00:00 | 00:00:00 | 00:00:00 | |
| BIOWL1-15 | 2026-09-04 10:42:25 | 52.76249 | 9.23274 | 92° | 68km/h | 16342m | 4.1m/s | -55.7°C | 1.1% | 102.8hPa | 2.8V | 18:12:15 | 01:10:02 | 00:00:00 | |
| DL1XH-west | 2026-09-04 10:42:22 | 52.76249 | 9.23246 | 92° | 69km/h | 16337m | 5.6m/s | -55.8°C | 1.1% | 103hPa | 2.7V | 18:12:15 | 01:10:01 | 00:00:00 | |
| DD8BA-10 | 2026-09-04 10:42:22 | 52.76249 | 9.23246 | 92° | 75km/h | 16337m | 5.5m/s | -55.7°C | 4.4% | 102.9hPa | 2.7V | 00:00:00 | 00:00:00 | 00:00:00 | |
| DO2SHX-10 | 2026-09-04 10:42:21 | 52.76250 | 9.23217 | 94° | 73km/h | 16332m | 5.0m/s | -55.8°C | 4.4% | 103.0hPa | 2.6V | 00:00:00 | 01:10:00 | 00:00:00 | |
| DM0DOS-11 | 2026-09-04 10:42:20 | 52.76263 | 9.23029 | 96° | 75km/h | 16302m | 4.5m/s | -55.7°C | 4.5% | 103.5hPa | 2.6V | 08:30:00 | 01:09:54 | 00:00:00 | |
| DL1XH1-15 | 2026-09-04 10:42:18 | 52.76266 | 9.22967 | 92° | 75km/h | 16292m | 4.4m/s | -55.6°C | 4.4% | 103.7hPa | 2.7V | 08:30:00 | 01:09:52 | 00:00:00 | |
| DF8AY | 2026-09-04 10:42:16 | 52.76260 | 9.23060 | 97° | 77km/h | 16307m | 5.3m/s | -55.7°C | 1.2% | 103.4hPa | 2.8V | 18:12:15 | 01:09:55 | 00:00:00 | |
| AA1-15 | 2026-09-04 10:42:15 | 52.76263 | 9.23029 | 97° | 75km/h | 16302m | 4.5m/s | -55.7°C | 1.2% | 103.5hPa | 2.6V | 18:12:15 | 01:09:54 | 00:00:00 | |
| BIOWL1-15 | 2026-09-04 10:42:14 | 52.76267 | 9.22935 | 93° | 75km/h | 16288m | 5.5m/s | -55.7°C | 1.1% | 103.8hPa | 2.8V | 18:12:15 | 01:09:51 | 00:00:00 | |
| DL1XH-west | 2026-09-04 10:42:11 | 52.76267 | 9.22904 | 93° | 75km/h | 16283m | 4.3m/s | -55.6°C | 1.1% | 103.8hPa | 2.8V | 18:12:15 | 01:09:50 | 00:00:00 | |
| DB0DAN | 2026-09-04 10:42:10 | 52.76268 | 9.22873 | 92° | 71km/h | 16278m | 4.5m/s | -55.6°C | 1.6% | 103.88hPa | 2.8V | 00:00:00 | 00:00:00 | 00:00:00 | |
| DK5PH-5 | 2026-09-04 10:42:09 | 52.76269 | 9.22842 | 91° | 77km/h | 16274m | 4.9m/s | -55.6°C | 4.5% | 103.9hPa | 2.6V | 00:00:00 | 01:09:48 | 00:00:00 | |
| DL1XH1-15 | 2026-09-04 10:42:08 | 52.76271 | 9.22652 | 90° | 78km/h | 16245m | 4.3m/s | -55.6°C | 4.5% | 104.4hPa | 2.6V | 08:30:00 | 01:09:42 | 00:00:00 | |
| DF8AY | 2026-09-04 10:42:06 | 52.76271 | 9.22716 | 92° | 77km/h | 16255m | 6.2m/s | -55.7°C | 1.2% | 104.2hPa | 2.8V | 18:12:15 | 01:09:44 | 00:00:00 | |
| AA1-15 | 2026-09-04 10:42:05 | 52.76271 | 9.22684 | 90° | 77km/h | 16249m | 4.4m/s | -55.7°C | 1.2% | 104.3hPa | 2.7V | 18:12:15 | 01:09:43 | 00:00:00 | |
| BIOWL1-15 | 2026-09-04 10:42:01 | 52.76273 | 9.22587 | 92° | 78km/h | 16236m | 4.1m/s | -55.6°C | 1.2% | 104.6hPa | 2.7V | 18:12:15 | 01:09:40 | 00:00:00 | |
| DL1XH-west | 2026-09-04 10:42:00 | 52.76273 | 9.22554 | 92° | 80km/h | 16231m | 5.3m/s | -55.6°C | 1.1% | 104.7hPa | 2.8V | 18:12:15 | 01:09:39 | 00:00:00 | |
| HSKMA3-T | 2026-09-04 10:41:59 | 52.76972 | 8.84807 | 88° | 179km/h | 12635m | 4.7m/s | -61.5°C | 54.2% | 185.5hPa | 2.8V | 18:12:15 | 00:56:50 | 00:00:00 | |
| AP2371 | 2026-09-04 10:41:59 | 52.76274 | 9.22521 | 92° | 80km/h | 16226m | 5.2m/s | -55.6°C | 1.6% | 104.7hPa | 2.8V | 00:00:00 | 00:00:00 | 00:00:00 | |
| DL1XH1-15 | 2026-09-04 10:41:58 | 52.76270 | 9.22328 | 85° | 73km/h | 16198m | 4.7m/s | -55.6°C | 4.3% | 105.2hPa | 2.8V | 08:30:00 | 01:09:32 | 00:00:00 | |
| HTAHTA | 2026-09-04 10:41:58 | 52.76275 | 9.22455 | 89° | 77km/h | 16217m | 4.0m/s | -55.5°C | 1.6% | 104.9hPa | 2.7V | 00:00:00 | 00:00:00 | 00:00:00 | |
| DO2LYB-13 | 2026-09-04 10:41:56 | 52.76275 | 9.22455 | 91° | 78km/h | 16217m | 4.0m/s | -55.5°C | 1.6% | 104.9hPa | 2.7V | 00:00:00 | 00:00:00 | 00:00:00 | |
| DB0DAN | 2026-09-04 10:41:55 | 52.76273 | 9.22391 | 85° | 73km/h | 16207m | 3.8m/s | -55.6°C | 1.5% | 105.07hPa | 2.7V | 00:00:00 | 00:00:00 | 00:00:00 | |
| DF8AY | 2026-09-04 10:41:54 | 52.76271 | 9.22359 | 85° | 75km/h | 16203m | 5.5m/s | -55.6°C | 1% | 105.1hPa | 2.8V | 18:12:15 | 01:09:33 | 00:00:00 | |
| AA1-15 | 2026-09-04 10:41:53 | 52.76270 | 9.22328 | 85° | 73km/h | 16198m | 4.7m/s | -55.6°C | 1% | 105.2hPa | 2.8V | 18:12:15 | 01:09:32 | 00:00:00 | |
| BIOWL1-15 | 2026-09-04 10:41:51 | 52.76266 | 9.22267 | 84° | 75km/h | 16188m | 4.9m/s | -55.5°C | 1% | 105.4hPa | 2.7V | 18:12:15 | 01:09:30 | 00:00:00 | |
| DO2JMG | 2026-09-04 10:41:50 | 52.76264 | 9.22236 | 85° | 73km/h | 16183m | 5.9m/s | -55.5°C | 1% | 105.5hPa | 2.7V | 18:12:15 | 01:09:29 | 00:00:00 | |
| DL1XH-west | 2026-09-04 10:41:49 | 52.76263 | 9.22205 | 86° | 73km/h | 16178m | 3.8m/s | -55.4°C | 1.1% | 105.6hPa | 2.7V | 18:12:15 | 01:09:28 | 00:00:00 | |
| DL1XH1-15 | 2026-09-04 10:41:48 | 52.76257 | 9.22019 | 86° | 75km/h | 16149m | 4.3m/s | -55.4°C | 4.4% | 106hPa | 2.7V | 08:30:00 | 01:09:22 | 00:00:00 | |
| DF8AY | 2026-09-04 10:41:44 | 52.76258 | 9.22050 | 87° | 75km/h | 16153m | 5.4m/s | -55.4°C | 1.1% | 105.9hPa | 2.6V | 18:12:15 | 01:09:23 | 00:00:00 | |
| AA1-15 | 2026-09-04 10:41:42 | 52.76255 | 9.21987 | 86° | 75km/h | 16144m | 5.6m/s | -55.4°C | 1% | 106.1hPa | 2.8V | 18:12:15 | 01:09:21 | 00:00:00 | |
| DD8BA-10 | 2026-09-04 10:41:42 | 52.76255 | 9.21987 | 86° | 73km/h | 16144m | 5.5m/s | -55.3°C | 4.3% | 106.1hPa | 2.8V | 00:00:00 | 00:00:00 | 00:00:00 | |
| DL1XH-15 | 2026-09-04 10:41:41 | 52.76244 | 9.21803 | 84° | 73km/h | 16114m | 5.4m/s | -55.9°C | 4.3% | 106.6hPa | 2.8V | 08:30:00 | 01:09:15 | 00:00:00 | |
| DB0DAN | 2026-09-04 10:41:40 | 52.76252 | 9.21925 | 85° | 71km/h | 16134m | 3.9m/s | -55.4°C | 1.5% | 106.29hPa | 2.8V | 00:00:00 | 00:00:00 | 00:00:00 | |
| HSKMA3-T | 2026-09-04 10:41:40 | 52.76948 | 8.83851 | 87° | 175km/h | 12575m | 4m/s | -61°C | 55% | 187.3hPa | 2.8V | 18:12:15 | 00:56:37 | 00:00:00 | |
| BIOWL1-15 | 2026-09-04 10:41:40 | 52.76252 | 9.21925 | 85° | 75km/h | 16134m | 3.9m/s | -55.4°C | 1% | 106.3hPa | 2.8V | 18:12:15 | 01:09:19 | 00:00:00 | |
| DL1XH-west | 2026-09-04 10:41:39 | 52.76250 | 9.21894 | 84° | 75km/h | 16129m | 5.1m/s | -55.6°C | 1% | 106.4hPa | 2.6V | 18:12:15 | 01:09:18 | 00:00:00 | |
| DK5PH-5 | 2026-09-04 10:41:39 | 52.76250 | 9.21893 | 84° | 75km/h | 16129m | 5.0m/s | -55.6°C | 4.3% | 106.3hPa | 2.6V | 00:00:00 | 01:09:18 | 00:00:00 | |
| DL1XH1-15 | 2026-09-04 10:41:38 | 52.76241 | 9.21712 | 88° | 73km/h | 16100m | 4.2m/s | -55.8°C | 4.4% | 106.9hPa | 2.7V | 08:30:00 | 01:09:12 | 00:00:00 | |
| DF8AY-15 | 2026-09-04 10:41:38 | 52.76248 | 9.21863 | 84° | 75km/h | 16125m | 5.0m/s | -55.7°C | 4.3% | 106.4hPa | 2.8V | 00:00:00 | 01:09:17 | 00:00:00 | |
| SONDE2-11 | 2026-09-04 10:41:37 | 52.76246 | 9.21833 | 84° | 71km/h | 16119m | 4.5m/s | -55.9°C | 1.5% | 106.6hPa | 2.8V | 00:00:00 | 00:00:00 | 00:00:00 | |
| DO2SHX-10 | 2026-09-04 10:41:36 | 52.76245 | 9.21803 | 85° | 73km/h | 16115m | 5.3m/s | -55.9°C | 4.3% | 106.5hPa | 2.8V | 00:00:00 | 01:09:15 | 00:00:00 | |
| DL1NUX | 2026-09-04 10:41:35 | 52.76239 | 9.21616 | 88° | 78km/h | 16086m | 4.5m/s | -55.7°C | 4.5% | 107.1hPa | 2.8V | 08:30:00 | 01:09:09 | 00:00:00 | |
| DF8AY | 2026-09-04 10:41:34 | 52.76241 | 9.21742 | 86° | 73km/h | 16105m | 5.5m/s | -55.9°C | 1.1% | 106.8hPa | 2.8V | 18:12:15 | 01:09:13 | 00:00:00 | |
| AA1-15 | 2026-09-04 10:41:33 | 52.76240 | 9.21681 | 89° | 75km/h | 16095m | 4.9m/s | -55.8°C | 1.1% | 106.9hPa | 2.7V | 18:12:15 | 01:09:11 | 00:00:00 | |
| DL1XH-15 | 2026-09-04 10:41:33 | 52.76237 | 9.21488 | 88° | 77km/h | 16067m | 4.7m/s | -55.8°C | 4.5% | 107.4hPa | 2.7V | 08:30:00 | 01:09:05 | 00:00:00 | |
| DM0DOS-11 | 2026-09-04 10:41:32 | 52.76237 | 9.21456 | 88° | 75km/h | 16061m | 5.9m/s | -55.8°C | 4.5% | 107.5hPa | 2.7V | 08:30:00 | 01:09:04 | 00:00:00 | |
| BIOWL1-15 | 2026-09-04 10:41:31 | 52.76239 | 9.21616 | 89° | 78km/h | 16086m | 4.5m/s | -55.7°C | 1.2% | 107.1hPa | 2.8V | 18:12:15 | 01:09:09 | 00:00:00 | |
| DL1XH-west | 2026-09-04 10:41:30 | 52.76239 | 9.21584 | 89° | 77km/h | 16081m | 5.2m/s | -55.7°C | 1.1% | 107.2hPa | 2.8V | 18:12:15 | 01:09:08 | 00:00:00 | |
| DO3DL | 2026-09-04 10:41:29 | 52.76239 | 9.21616 | 90° | 78km/h | 16086m | 4.5m/s | -55.7°C | 1.6% | 107.1hPa | 2.8V | 00:00:00 | 00:00:00 | 00:00:00 | |
| DL1XH1-15 | 2026-09-04 10:41:28 | 52.76236 | 9.21395 | 88° | 73km/h | 16052m | 5.4m/s | -56°C | 4.4% | 107.7hPa | 2.8V | 08:30:00 | 01:09:02 | 00:00:00 | |
| DF8AY | 2026-09-04 10:41:23 | 52.76236 | 9.21395 | 89° | 73km/h | 16052m | 5.4m/s | -56°C | 1% | 107.7hPa | 2.8V | 18:12:15 | 01:09:02 | 00:00:00 | |
| AA1-15 | 2026-09-04 10:41:21 | 52.76235 | 9.21333 | 88° | 75km/h | 16043m | 4.4m/s | -56°C | 1.1% | 107.8hPa | 2.7V | 18:12:15 | 01:09:00 | 00:00:00 | |
| DO2SHX-10 | 2026-09-04 10:41:21 | 52.76235 | 9.21333 | 88° | 73km/h | 16043m | 4.4m/s | -56.0°C | 4.5% | 107.8hPa | 2.7V | 00:00:00 | 01:09:00 | 08:30:00 | |
| DM0DOS-11 | 2026-09-04 10:41:20 | 52.76229 | 9.21147 | 88° | 75km/h | 16013m | 5m/s | -55.7°C | 4.6% | 108.3hPa | 2.7V | 08:30:00 | 01:08:54 | 00:00:00 | |
| DL1XH-west | 2026-09-04 10:41:19 | 52.76233 | 9.21272 | 88° | 73km/h | 16032m | 4.8m/s | -55.9°C | 1.1% | 108hPa | 2.7V | 18:12:15 | 01:08:58 | 00:00:00 | |
| DO2JMG | 2026-09-04 10:41:18 | 52.76232 | 9.21241 | 86° | 75km/h | 16027m | 5.8m/s | -55.8°C | 1.1% | 108.1hPa | 2.8V | 18:12:15 | 01:08:57 | 00:00:00 | |
| DF8AY | 2026-09-04 10:41:12 | 52.76220 | 9.20754 | 89° | 80km/h | 15954m | 4.5m/s | -55.4°C | 1.2% | 109.3hPa | 2.7V | 18:12:15 | 01:08:42 | 00:00:00 | |
| DD8BA-10 | 2026-09-04 10:41:12 | 52.76226 | 9.21052 | 88° | 80km/h | 15998m | 6.0m/s | -55.6°C | 4.5% | 108.5hPa | 2.8V | 00:00:00 | 00:00:00 | 00:00:00 | |
| DL1XH-15 | 2026-09-04 10:41:11 | 52.76222 | 9.20854 | 88° | 80km/h | 15969m | 5.2m/s | -55.5°C | 4.5% | 109.1hPa | 2.8V | 08:30:00 | 01:08:45 | 00:00:00 | |
| AA1-15 | 2026-09-04 10:41:11 | 52.76226 | 9.21020 | 88° | 78km/h | 15993m | 3.9m/s | -55.7°C | 1.2% | 108.7hPa | 2.8V | 18:12:15 | 01:08:50 | 00:00:00 | |
| DB0DAN | 2026-09-04 10:41:10 | 52.76225 | 9.20987 | 87° | 75km/h | 15988m | 5.6m/s | -55.7°C | 1.7% | 108.7hPa | 2.8V | 00:00:00 | 00:00:00 | 00:00:00 | |
| BIOWL9-15 | 2026-09-04 10:41:09 | 52.76223 | 9.20920 | 88° | 78km/h | 15979m | 6.2m/s | -55.5°C | 1.7% | 108.9hPa | 2.7V | 00:00:00 | 00:00:00 | 00:00:00 | |
| DL1NUX | 2026-09-04 10:41:08 | 52.76220 | 9.20754 | 88° | 80km/h | 15954m | 4.5m/s | -55.4°C | 4.5% | 109.3hPa | 2.7V | 08:30:00 | 01:08:42 | 00:00:00 | |
| DO2JMG | 2026-09-04 10:41:08 | 52.76223 | 9.20920 | 88° | 80km/h | 15979m | 6.2m/s | -55.5°C | 1.2% | 108.9hPa | 2.7V | 18:12:15 | 01:08:47 | 00:00:00 | |
| DL4XJ-10 | 2026-09-04 10:41:08 | 52.76223 | 9.20920 | 89° | 78km/h | 15979m | 6.1m/s | -55.7°C | 0% | 0hPa | 2.7V | 00:00:00 | 00:00:00 | 00:00:00 | |
| BUE01 | 2026-09-04 10:41:07 | 52.76223 | 9.20887 | 88° | 78km/h | 15974m | 3.8m/s | -55.5°C | 1.7% | 109.0hPa | 2.7V | 00:00:00 | 00:00:00 | 00:00:00 | |
| DO2SHX-10 | 2026-09-04 10:41:06 | 52.76222 | 9.20854 | 89° | 80km/h | 15969m | 5.2m/s | -55.4°C | 4.5% | 109.0hPa | 2.7V | 00:00:00 | 01:08:45 | 00:00:00 | |
| EDDB2-12 | 2026-09-04 10:41:04 | 52.76220 | 9.20754 | 88° | 80km/h | 15954m | 4.5m/s | -55.4°C | 1.7% | 109.3hPa | 2.7V | 00:00:00 | 00:00:00 | 00:00:00 | |
| DD1CC8 | 2026-09-04 10:41:03 | 52.76219 | 9.20720 | 87° | 80km/h | 15949m | 5.9m/s | -55.4°C | 1.6% | 109.4hPa | 2.7V | 00:00:00 | 00:00:00 | 00:00:00 | |
| DD8BA-10 | 2026-09-04 10:41:02 | 52.76219 | 9.20720 | 88° | 77km/h | 15949m | 5.8m/s | -55.3°C | 4.4% | 109.3hPa | 2.7V | 00:00:00 | 00:00:00 | 00:00:00 | |
| DL1XH-15 | 2026-09-04 10:41:01 | 52.76214 | 9.20525 | 87° | 75km/h | 15920m | 4.5m/s | -55.2°C | 4.4% | 109.9hPa | 2.7V | 08:30:00 | 01:08:35 | 00:00:00 | |
| SONCRA | 2026-09-04 10:41:01 | 52.76216 | 9.20589 | 87° | 75km/h | 15929m | 5.1m/s | -55.3°C | 1.6% | 109.7hPa | 2.7V | 00:00:00 | 00:00:00 | 00:00:00 | |
| DM0DOS-11 | 2026-09-04 10:41:00 | 52.76213 | 9.20494 | 88° | 75km/h | 15915m | 4.5m/s | -55.2°C | 4.4% | 110hPa | 2.7V | 08:30:00 | 01:08:34 | 00:00:00 | |
| AA1-15 | 2026-09-04 10:41:00 | 52.76217 | 9.20653 | 88° | 78km/h | 15939m | 6m/s | -55.4°C | 1% | 109.5hPa | 2.8V | 18:12:15 | 01:08:39 | 00:00:00 | |
| DL1XH-west | 2026-09-04 10:40:58 | 52.76216 | 9.20589 | 88° | 77km/h | 15929m | 5.1m/s | -55.3°C | 1.2% | 109.7hPa | 2.8V | 18:12:15 | 01:08:37 | 00:00:00 | |
| DO2JMG | 2026-09-04 10:40:57 | 52.76215 | 9.20557 | 87° | 77km/h | 15924m | 4.6m/s | -55.2°C | 1.2% | 109.8hPa | 2.7V | 18:12:15 | 01:08:36 | 00:00:00 | |
| HTAHTA | 2026-09-04 10:40:57 | 52.76214 | 9.20494 | 88° | 75km/h | 15915m | 4.5m/s | -55.2°C | 1.6% | 110.0hPa | 2.7V | 00:00:00 | 00:00:00 | 00:00:00 | |
| DB0DAN | 2026-09-04 10:40:55 | 52.76214 | 9.20494 | 89° | 71km/h | 15915m | 4.5m/s | -55.2°C | 1.6% | 109.98hPa | 2.7V | 00:00:00 | 00:00:00 | 00:00:00 | |
| DL1NUX | 2026-09-04 10:40:54 | 52.76210 | 9.20303 | 87° | 78km/h | 15886m | 4m/s | -55.2°C | 4.5% | 110.5hPa | 2.7V | 08:30:00 | 01:08:28 | 00:00:00 | |
| SMARD9-15 | 2026-09-04 10:40:53 | 52.76213 | 9.20431 | 88° | 77km/h | 15905m | 5.0m/s | -55.3°C | 1.7% | 110.1hPa | 2.8V | 00:00:00 | 00:00:00 | 00:00:00 | |
| DJ2KF-10 | 2026-09-04 10:40:52 | 52.76212 | 9.20399 | 89° | 71km/h | 15901m | 4.2m/s | -55.2°C | 4.6% | 110.2hPa | 2.8V | 00:00:00 | 01:08:31 | 00:00:00 | |
| DL1XH-15 | 2026-09-04 10:40:51 | 52.76208 | 9.20208 | 86° | 73km/h | 15872m | 4.5m/s | -55.1°C | 4.4% | 110.7hPa | 2.8V | 08:30:00 | 01:08:25 | 00:00:00 | |
| DF8AY | 2026-09-04 10:40:51 | 52.76212 | 9.20367 | 89° | 77km/h | 15896m | 4.7m/s | -55.3°C | 1.3% | 110.3hPa | 2.7V | 18:12:15 | 01:08:30 | 00:00:00 | |
| DM0DOS-11 | 2026-09-04 10:40:51 | 52.76207 | 9.20178 | 84° | 73km/h | 15868m | 5m/s | -55.2°C | 4.4% | 110.8hPa | 2.7V | 08:30:00 | 01:08:24 | 00:00:00 | |
| AA1-15 | 2026-09-04 10:40:51 | 52.76211 | 9.20303 | 88° | 78km/h | 15886m | 4m/s | -55.2°C | 1.2% | 110.5hPa | 2.7V | 18:12:15 | 01:08:28 | 00:00:00 | |
| DL1XH-west | 2026-09-04 10:40:50 | 52.76210 | 9.20271 | 87° | 77km/h | 15882m | 5.1m/s | -55.2°C | 1.2% | 110.5hPa | 2.8V | 18:12:15 | 01:08:27 | 00:00:00 | |
| DO2JMG | 2026-09-04 10:40:46 | 52.76208 | 9.20208 | 87° | 73km/h | 15872m | 4.5m/s | -55.1°C | 1.2% | 110.7hPa | 2.8V | 18:12:15 | 01:08:25 | 00:00:00 | |
| GOEST3-10 | 2026-09-04 10:40:46 | 52.76208 | 9.20208 | 87° | 71km/h | 15872m | 4.4m/s | -55.1°C | 4.4% | 110.7hPa | 2.7V | 00:00:00 | 00:00:00 | 00:00:00 | |
| DO9LL-15 | 2026-09-04 10:40:45 | 52.76206 | 9.20178 | 85° | 69km/h | 15868m | 5.0m/s | -55.1°C | 4.4% | 110.8hPa | 2.7V | 00:00:00 | 01:08:24 | 00:00:00 | |
| DL1NUX | 2026-09-04 10:40:44 | 52.76196 | 9.20002 | 86° | 69km/h | 15838m | 5.3m/s | -54.9°C | 4.4% | 111.3hPa | 2.7V | 08:30:00 | 01:08:18 | 00:00:00 | |
| DF8AY | 2026-09-04 10:40:41 | 52.76199 | 9.20061 | 83° | 71km/h | 15847m | 5.4m/s | -55°C | 1.1% | 111.1hPa | 2.8V | 18:12:15 | 01:08:20 | 00:00:00 | |
| DB0DAN | 2026-09-04 10:40:40 | 52.76197 | 9.20031 | 85° | 68km/h | 15843m | 4m/s | -54.9°C | 1.7% | 111.23hPa | 2.8V | 00:00:00 | 00:00:00 | 00:00:00 | |
| DM0DOS-11 | 2026-09-04 10:40:40 | 52.76194 | 9.19885 | 90° | 68km/h | 15819m | 4.7m/s | -54.9°C | 4.5% | 111.6hPa | 2.8V | 08:30:00 | 01:08:14 | 00:00:00 | |
| AA1-15 | 2026-09-04 10:40:38 | 52.76195 | 9.19973 | 88° | 71km/h | 15833m | 3.9m/s | -54.9°C | 1.2% | 111.4hPa | 2.7V | 18:12:15 | 01:08:17 | 00:00:00 | |
| DL1XH-west | 2026-09-04 10:40:37 | 52.76194 | 9.19943 | 88° | 71km/h | 15829m | 5m/s | -54.9°C | 1.2% | 111.4hPa | 2.7V | 18:12:15 | 01:08:16 | 00:00:00 | |
| DO2JMG | 2026-09-04 10:40:35 | 52.76194 | 9.19885 | 91° | 68km/h | 15819m | 4.7m/s | -54.9°C | 1.3% | 111.6hPa | 2.8V | 18:12:15 | 01:08:14 | 00:00:00 | |
| DL1NUX | 2026-09-04 10:40:34 | 52.76192 | 9.19711 | 85° | 71km/h | 15790m | 5.3m/s | -54.8°C | 4.3% | 112.1hPa | 2.8V | 08:30:00 | 01:08:08 | 00:00:00 | |
| DJ2DS-15 | 2026-09-04 10:40:34 | 52.76195 | 9.19856 | 91° | 69km/h | 15815m | 4.4m/s | -54.8°C | 4.5% | 111.7hPa | 2.7V | 00:00:00 | 01:08:13 | 00:00:00 | |
| EDDB2-12 | 2026-09-04 10:40:33 | 52.76194 | 9.19798 | 88° | 69km/h | 15806m | 4.1m/s | -54.8°C | 1.7% | 111.9hPa | 2.7V | 00:00:00 | 00:00:00 | 00:00:00 | |
| DD8BA-10 | 2026-09-04 10:40:32 | 52.76194 | 9.19798 | 89° | 69km/h | 15806m | 4.1m/s | -54.8°C | 4.4% | 111.8hPa | 2.7V | 00:00:00 | 00:00:00 | 00:00:00 | |
| DL1XH-15 | 2026-09-04 10:40:31 | 52.76187 | 9.19623 | 82° | 69km/h | 15776m | 4.1m/s | -54.8°C | 4.4% | 112.4hPa | 2.7V | 08:30:00 | 01:08:05 | 00:00:00 | |
| DF8AY | 2026-09-04 10:40:31 | 52.76194 | 9.19769 | 89° | 69km/h | 15801m | 5.7m/s | -54.8°C | 1.2% | 112hPa | 2.7V | 18:12:15 | 01:08:10 | 00:00:00 | |
| AA1-15 | 2026-09-04 10:40:27 | 52.76189 | 9.19652 | 84° | 69km/h | 15781m | 4.9m/s | -54.8°C | 1.2% | 112.3hPa | 2.7V | 18:12:15 | 01:08:06 | 00:00:00 | |
| DL1XH-west | 2026-09-04 10:40:26 | 52.76187 | 9.19623 | 82° | 69km/h | 15776m | 4.1m/s | -54.8°C | 1.2% | 112.4hPa | 2.7V | 18:12:15 | 01:08:05 | 00:00:00 | |
| DB0DAN | 2026-09-04 10:40:25 | 52.76184 | 9.19595 | 81° | 68km/h | 15772m | 5.2m/s | -54.8°C | 1.7% | 112.44hPa | 2.7V | 00:00:00 | 00:00:00 | 00:00:00 | |
| DO2JMG | 2026-09-04 10:40:25 | 52.76184 | 9.19595 | 81° | 69km/h | 15772m | 5.2m/s | -54.8°C | 1.2% | 112.4hPa | 2.7V | 18:12:15 | 01:08:04 | 00:00:00 | |
| DL1NUX | 2026-09-04 10:40:24 | 52.76174 | 9.19426 | 87° | 68km/h | 15744m | 5.5m/s | -54.7°C | 4.5% | 113hPa | 2.7V | 08:30:00 | 01:07:58 | 00:00:00 | |
| BIOWL1-15 | 2026-09-04 10:40:24 | 52.76182 | 9.19566 | 82° | 69km/h | 15767m | 4.2m/s | -54.9°C | 1.2% | 112.5hPa | 2.8V | 18:12:15 | 01:08:03 | 00:00:00 | |
| DL1XH-15 | 2026-09-04 10:40:22 | 52.76173 | 9.19341 | 89° | 69km/h | 15729m | 4.7m/s | -54.6°C | 4.4% | 113.2hPa | 2.8V | 08:30:00 | 01:07:55 | 00:00:00 | |
| DF8AY | 2026-09-04 10:40:20 | 52.76175 | 9.19454 | 86° | 69km/h | 15749m | 4.2m/s | -54.8°C | 1.3% | 112.9hPa | 2.7V | 18:12:15 | 01:07:59 | 00:00:00 | |
| DM0DOS-11 | 2026-09-04 10:40:20 | 52.76173 | 9.19313 | 90° | 68km/h | 15724m | 5.8m/s | -54.6°C | 4.5% | 113.3hPa | 2.7V | 08:30:00 | 01:07:54 | 00:00:00 | |
| DO2SHX-10 | 2026-09-04 10:40:20 | 52.76175 | 9.19454 | 86° | 69km/h | 15750m | 4.1m/s | -54.7°C | 4.5% | 112.8hPa | 2.7V | 00:00:00 | 01:07:59 | 00:00:00 | |
| DL1XH1-15 | 2026-09-04 10:40:18 | 52.76173 | 9.19258 | 89° | 68km/h | 15715m | 5.9m/s | -54.6°C | 4.4% | 113.5hPa | 2.7V | 08:30:00 | 01:07:52 | 00:00:00 | |
| AA1-15 | 2026-09-04 10:40:17 | 52.76174 | 9.19370 | 89° | 68km/h | 15734m | 5.9m/s | -54.6°C | 1.3% | 113.1hPa | 2.8V | 18:12:15 | 01:07:56 | 00:00:00 | |
| DL1XH-west | 2026-09-04 10:40:16 | 52.76173 | 9.19342 | 89° | 69km/h | 15729m | 4.7m/s | -54.6°C | 1.3% | 113.3hPa | 2.8V | 18:12:15 | 01:07:55 | 00:00:00 | |
| DO2JMG | 2026-09-04 10:40:14 | 52.76173 | 9.19286 | 90° | 66km/h | 15719m | 3.5m/s | -54.6°C | 1.3% | 113.4hPa | 2.7V | 18:12:15 | 01:07:53 | 00:00:00 | |
| DO2SHX-10 | 2026-09-04 10:40:14 | 52.76173 | 9.19286 | 91° | 64km/h | 15719m | 3.5m/s | -54.5°C | 4.4% | 113.4hPa | 2.8V | 00:00:00 | 01:07:53 | 00:00:00 | |
| DJ2DS-15 | 2026-09-04 10:40:13 | 52.76173 | 9.19258 | 89° | 66km/h | 15715m | 5.9m/s | -54.6°C | 1.7% | 113.5hPa | 2.8V | 00:00:00 | 00:00:00 | 00:00:00 | |
| DD8BA-10 | 2026-09-04 10:40:12 | 52.76173 | 9.19230 | 88° | 64km/h | 15710m | 4.2m/s | -54.6°C | 4.4% | 113.6hPa | 2.8V | 00:00:00 | 00:00:00 | 00:00:00 | |
| DL1XH-15 | 2026-09-04 10:40:11 | 52.76166 | 9.19071 | 86° | 60km/h | 15681m | 5.7m/s | -54.5°C | 4.2% | 114.1hPa | 2.8V | 08:30:00 | 01:07:45 | 00:00:00 | |
| GOEST3-10 | 2026-09-04 10:40:11 | 52.76172 | 9.19202 | 88° | 64km/h | 15705m | 4.4m/s | -54.6°C | 4.4% | 113.6hPa | 2.8V | 00:00:00 | 01:07:50 | 00:00:00 | |
| DM0DOS-11 | 2026-09-04 10:40:10 | 52.76165 | 9.19046 | 87° | 60km/h | 15676m | 3.9m/s | -54.5°C | 4.2% | 114.2hPa | 2.8V | 08:30:00 | 01:07:44 | 00:00:00 | |
| DF8AY | 2026-09-04 10:40:09 | 52.76170 | 9.19149 | 86° | 62km/h | 15695m | 4.9m/s | -54.6°C | 1.3% | 113.8hPa | 2.7V | 18:12:15 | 01:07:48 | 00:00:00 | |
| DO3DL | 2026-09-04 10:40:09 | 52.76170 | 9.19149 | 87° | 62km/h | 15695m | 4.9m/s | -54.6°C | 1.7% | 113.8hPa | 2.7V | 00:00:00 | 00:00:00 | 00:00:00 | |
| DL1XH1-15 | 2026-09-04 10:40:08 | 52.76164 | 9.18994 | 87° | 64km/h | 15666m | 4.3m/s | -54.8°C | 4.3% | 114.3hPa | 2.7V | 08:30:00 | 01:07:42 | 00:00:00 | |
| AA1-15 | 2026-09-04 10:40:07 | 52.76167 | 9.19097 | 85° | 62km/h | 15686m | 3.6m/s | -54.6°C | 1.2% | 114.1hPa | 2.7V | 18:12:15 | 01:07:46 | 00:00:00 | |
| DL1XH-west | 2026-09-04 10:40:05 | 52.76165 | 9.19046 | 88° | 60km/h | 15676m | 3.9m/s | -54.6°C | 1.3% | 114.2hPa | 2.8V | 18:12:15 | 01:07:44 | 00:00:00 | |
| DO2JMG | 2026-09-04 10:40:04 | 52.76165 | 9.19021 | 87° | 62km/h | 15671m | 5.5m/s | -54.6°C | 1.2% | 114.2hPa | 2.8V | 18:12:15 | 01:07:43 | 00:00:00 | |
| SONDE2-11 | 2026-09-04 10:40:04 | 52.76165 | 9.19021 | 87° | 60km/h | 15671m | 5.5m/s | -54.6°C | 1.6% | 114.2hPa | 2.7V | 00:00:00 | 00:00:00 | 00:00:00 | |
| EDDB2-12 | 2026-09-04 10:40:02 | 52.76163 | 9.18942 | 89° | 62km/h | 15657m | 4.3m/s | -54.8°C | 1.6% | 114.5hPa | 2.7V | 00:00:00 | 00:00:00 | 00:00:00 | |
| DL1XH-15 | 2026-09-04 10:40:01 | 52.76161 | 9.18810 | 89° | 62km/h | 15633m | 4.1m/s | -55.2°C | 4.6% | 115hPa | 2.7V | 08:30:00 | 01:07:35 | 00:00:00 | |
| DL4BBY-15 | 2026-09-04 10:40:01 | 52.76163 | 9.18942 | 90° | 64km/h | 15657m | 4.2m/s | -55.1°C | 0% | 0hPa | 2.7V | 00:00:00 | 00:00:00 | 00:00:00 | |
| DM0DOS-11 | 2026-09-04 10:40:00 | 52.76161 | 9.18784 | 88° | 64km/h | 15628m | 5.7m/s | -55.3°C | 4.7% | 115hPa | 2.7V | 08:30:00 | 01:07:34 | 00:00:00 | |
| DF8AY | 2026-09-04 10:39:58 | 52.76162 | 9.18863 | 88° | 64km/h | 15642m | 5.6m/s | -55°C | 1.4% | 114.8hPa | 2.8V | 18:12:15 | 01:07:37 | 00:00:00 | |
| AA1-15 | 2026-09-04 10:39:56 | 52.76161 | 9.18810 | 89° | 62km/h | 15633m | 4.1m/s | -55.2°C | 1.5% | 115hPa | 2.7V | 18:12:15 | 01:07:35 | 00:00:00 | |
| DB0DAN | 2026-09-04 10:39:55 | 52.76161 | 9.18784 | 89° | 60km/h | 15628m | 5.7m/s | -55.3°C | 1.8% | 115.05hPa | 2.7V | 00:00:00 | 00:00:00 | 00:00:00 | |
| DL1NUX | 2026-09-04 10:39:54 | 52.76159 | 9.18625 | 88° | 62km/h | 15599m | 5.1m/s | -55.6°C | 4.7% | 115.6hPa | 2.7V | 08:30:00 | 01:07:28 | 00:00:00 | |
| DL1XH-west | 2026-09-04 10:39:54 | 52.76160 | 9.18757 | 89° | 64km/h | 15622m | 5.1m/s | -55.4°C | 1.6% | 115.2hPa | 2.8V | 18:12:15 | 01:07:33 | 00:00:00 | |
| BIOWL1-15 | 2026-09-04 10:39:53 | 52.76160 | 9.18731 | 90° | 62km/h | 15617m | 5m/s | -55.5°C | 1.6% | 115.2hPa | 2.8V | 18:12:15 | 01:07:32 | 00:00:00 | |
| DO2SHX-10 | 2026-09-04 10:39:53 | 52.76160 | 9.18731 | 90° | 64km/h | 15617m | 5.0m/s | -55.4°C | 4.8% | 115.2hPa | 2.8V | 00:00:00 | 01:07:32 | 00:00:00 | |
| DF4FW | 2026-09-04 10:39:52 | 52.76160 | 9.18731 | 91° | 62km/h | 15617m | 5.0m/s | -55.5°C | 1.9% | 115.2hPa | 2.8V | 00:00:00 | 00:00:00 | 00:00:00 | |
| DL1XH-15 | 2026-09-04 10:39:51 | 52.76155 | 9.18550 | 82° | 60km/h | 15584m | 3.4m/s | -55.6°C | 4.6% | 115.8hPa | 2.8V | 08:30:00 | 01:07:25 | 00:00:00 | |
| GOEST3-10 | 2026-09-04 10:39:51 | 52.76160 | 9.18678 | 89° | 62km/h | 15608m | 5.0m/s | -55.5°C | 4.8% | 115.4hPa | 2.7V | 00:00:00 | 01:07:30 | 00:00:00 | |
| DM0DOS-11 | 2026-09-04 10:39:50 | 52.76153 | 9.18525 | 82° | 60km/h | 15580m | 5.3m/s | -55.6°C | 4.7% | 115.9hPa | 2.7V | 08:30:00 | 01:07:24 | 00:00:00 | |
| DO2SHX-10 | 2026-09-04 10:39:50 | 52.76159 | 9.18651 | 89° | 62km/h | 15604m | 3.8m/s | -55.6°C | 4.7% | 115.4hPa | 2.7V | 00:00:00 | 01:07:29 | 00:00:00 | |
| DL1XH1-15 | 2026-09-04 10:39:49 | 52.76149 | 9.18473 | 83° | 64km/h | 15570m | 6m/s | -55.6°C | 4.7% | 116.1hPa | 2.7V | 08:30:00 | 01:07:22 | 00:00:00 | |
| DF8AY | 2026-09-04 10:39:49 | 52.76158 | 9.18600 | 86° | 60km/h | 15594m | 4.4m/s | -55.6°C | 1.5% | 115.7hPa | 2.8V | 18:12:15 | 01:07:27 | 00:00:00 | |
| AA1-15 | 2026-09-04 10:39:46 | 52.76155 | 9.18550 | 82° | 60km/h | 15584m | 3.4m/s | -55.6°C | 1.4% | 115.9hPa | 2.8V | 18:12:15 | 01:07:25 | 00:00:00 | |
| GOEST3-10 | 2026-09-04 10:39:46 | 52.76155 | 9.18550 | 83° | 62km/h | 15584m | 3.3m/s | -55.5°C | 4.6% | 115.8hPa | 2.7V | 00:00:00 | 00:00:00 | 08:30:00 | |
| DL1NUX | 2026-09-04 10:39:44 | 52.76147 | 9.18367 | 91° | 64km/h | 15550m | 5.3m/s | -55.6°C | 4.7% | 116.4hPa | 2.7V | 08:30:00 | 01:07:18 | 00:00:00 | |
| DL1XH-west | 2026-09-04 10:39:43 | 52.76149 | 9.18473 | 84° | 64km/h | 15570m | 6m/s | -55.6°C | 1.6% | 116.1hPa | 2.7V | 18:12:15 | 01:07:22 | 00:00:00 | |
| BIOWL1-15 | 2026-09-04 10:39:42 | 52.76148 | 9.18447 | 86° | 64km/h | 15566m | 3.9m/s | -55.6°C | 1.6% | 116.2hPa | 2.8V | 18:12:15 | 01:07:21 | 00:00:00 | |
| DO3DL | 2026-09-04 10:39:42 | 52.76148 | 9.18447 | 87° | 64km/h | 15566m | 3.9m/s | -55.6°C | 1.9% | 116.2hPa | 2.8V | 00:00:00 | 00:00:00 | 00:00:00 | |
| DL1CLM-18 | 2026-09-04 10:39:41 | 52.76148 | 9.18447 | 87° | 64km/h | 15566m | 3.9m/s | -55.6°C | 1.9% | 116.2hPa | 2.8V | 00:00:00 | 00:00:00 | 00:00:00 | |
| DB0DAN | 2026-09-04 10:39:40 | 52.76147 | 9.18393 | 91° | 60km/h | 15555m | 4.1m/s | -55.5°C | 1.9% | 116.38hPa | 2.8V | 00:00:00 | 00:00:00 | 00:00:00 | |
| DM0DOS-11 | 2026-09-04 10:39:40 | 52.76147 | 9.18261 | 88° | 64km/h | 15530m | 4.3m/s | -55.5°C | 4.6% | 116.8hPa | 2.8V | 08:30:00 | 01:07:14 | 00:00:00 | |
| DD1CC3-15 | 2026-09-04 10:39:39 | 52.76147 | 9.18367 | 92° | 64km/h | 15550m | 5.3m/s | -55.6°C | 1.9% | 116.4hPa | 2.7V | 00:00:00 | 00:00:00 | 00:00:00 | |
| DL1XH1-15 | 2026-09-04 10:39:38 | 52.76146 | 9.18205 | 85° | 71km/h | 15520m | 3.7m/s | -55.3°C | 4.6% | 117hPa | 2.7V | 08:30:00 | 01:07:12 | 00:00:00 | |
| DF8AY | 2026-09-04 10:39:37 | 52.76147 | 9.18314 | 90° | 62km/h | 15540m | 5.1m/s | -55.5°C | 1.4% | 116.6hPa | 2.7V | 18:12:15 | 01:07:16 | 00:00:00 | |
| AA1-15 | 2026-09-04 10:39:35 | 52.76147 | 9.18261 | 88° | 64km/h | 15530m | 4.3m/s | -55.5°C | 1.5% | 116.8hPa | 2.8V | 18:12:15 | 01:07:14 | 00:00:00 | |
| DF8AY | 2026-09-04 10:39:32 | 52.76147 | 9.17998 | 95° | 68km/h | 15484m | 6.8m/s | -55.5°C | 1.5% | 117.7hPa | 2.7V | 18:12:15 | 01:07:05 | 00:00:00 | |
| DL1XH-west | 2026-09-04 10:39:32 | 52.76144 | 9.18176 | 87° | 73km/h | 15516m | 5.3m/s | -55.3°C | 1.6% | 117.1hPa | 2.7V | 18:12:15 | 01:07:11 | 00:00:00 | |
| BIOWL1-15 | 2026-09-04 10:39:31 | 52.76144 | 9.18146 | 89° | 71km/h | 15510m | 5.3m/s | -55.3°C | 1.5% | 117.2hPa | 2.7V | 18:12:15 | 01:07:10 | 00:00:00 | |
| EDDB2-12 | 2026-09-04 10:39:31 | 52.76144 | 9.18116 | 91° | 71km/h | 15505m | 4.9m/s | -55.3°C | 1.8% | 117.3hPa | 2.7V | 00:00:00 | 00:00:00 | 00:00:00 | |
| DM0DOS-11 | 2026-09-04 10:39:30 | 52.76149 | 9.17970 | 96° | 68km/h | 15479m | 3m/s | -55.4°C | 4.5% | 117.7hPa | 2.7V | 08:30:00 | 01:07:04 | 00:00:00 | |
| SO1NDE-10 | 2026-09-04 10:39:30 | 52.76144 | 9.18116 | 92° | 88km/h | 15505m | 4.8m/s | -55.2°C | 4.5% | 117.3hPa | 2.7V | 00:00:00 | 01:07:09 | 00:00:00 | |
| DO2SHX-10 | 2026-09-04 10:39:29 | 52.76144 | 9.18086 | 92° | 71km/h | 15500m | 6.3m/s | -55.3°C | 4.4% | 117.3hPa | 2.7V | 00:00:00 | 01:07:08 | 08:30:00 | |
| DL1XH1-15 | 2026-09-04 10:39:28 | 52.76153 | 9.17913 | 96° | 73km/h | 15468m | 4.4m/s | -55.5°C | 4.6% | 118hPa | 2.8V | 08:30:00 | 01:07:02 | 00:00:00 | |
| DL4XJ-10 | 2026-09-04 10:39:28 | 52.76145 | 9.18056 | 92° | 80km/h | 15494m | 5.2m/s | -55.6°C | 0% | 0hPa | 2.7V | 00:00:00 | 00:00:00 | 00:00:00 | |
| DL3OBA | 2026-09-04 10:39:27 | 52.76145 | 9.18056 | 93° | 71km/h | 15494m | 5.2m/s | -55.3°C | 1.8% | 117.5hPa | 2.7V | 00:00:00 | 00:00:00 | 00:00:00 | |
| DF4FW | 2026-09-04 10:39:26 | 52.76146 | 9.18027 | 94° | 69km/h | 15489m | 4.0m/s | -55.4°C | 1.8% | 117.6hPa | 2.7V | 00:00:00 | 00:00:00 | 00:00:00 | |
| DB0DAN | 2026-09-04 10:39:25 | 52.76149 | 9.17970 | 97° | 64km/h | 15479m | 3m/s | -55.4°C | 1.8% | 117.73hPa | 2.7V | 00:00:00 | 00:00:00 | 00:00:00 | |
| AA1-15 | 2026-09-04 10:39:24 | 52.76151 | 9.17942 | 97° | 68km/h | 15474m | 6.6m/s | -55.5°C | 1.6% | 117.8hPa | 2.8V | 18:12:15 | 01:07:03 | 00:00:00 | |
| BIOWL1-15 | 2026-09-04 10:39:22 | 52.76158 | 9.17819 | 94° | 77km/h | 15452m | 6.1m/s | -56.2°C | 1.7% | 118.3hPa | 2.7V | 18:12:15 | 01:06:59 | 00:00:00 | |
| DL1XH-west | 2026-09-04 10:39:22 | 52.76155 | 9.17883 | 96° | 75km/h | 15463m | 5.7m/s | -55.8°C | 1.6% | 118hPa | 2.8V | 18:12:15 | 01:07:01 | 00:00:00 | |
| DO2JMG | 2026-09-04 10:39:21 | 52.76157 | 9.17851 | 95° | 77km/h | 15458m | 5.9m/s | -56.1°C | 1.7% | 118.2hPa | 2.7V | 18:12:15 | 01:07:00 | 00:00:00 | |
| GOEST3-10 | 2026-09-04 10:39:21 | 52.76157 | 9.17851 | 96° | 78km/h | 15458m | 5.9m/s | -56.1°C | 4.8% | 118.1hPa | 2.7V | 00:00:00 | 01:07:00 | 00:00:00 | |
| DO2SHX-10 | 2026-09-04 10:39:20 | 52.76158 | 9.17819 | 94° | 77km/h | 15452m | 6.1m/s | -56.2°C | 4.9% | 118.2hPa | 2.7V | 00:00:00 | 01:06:59 | 00:00:00 | |
| DL1XH1-15 | 2026-09-04 10:39:18 | 52.76167 | 9.17579 | 94° | 88km/h | 15415m | 6.5m/s | -56.4°C | 4.8% | 119hPa | 2.7V | 08:30:00 | 01:06:52 | 00:00:00 | |
| DF8AY | 2026-09-04 10:39:15 | 52.76164 | 9.17651 | 94° | 86km/h | 15426m | 6.2m/s | -56.4°C | 1.7% | 118.7hPa | 2.7V | 18:12:15 | 01:06:54 | 00:00:00 | |
| AA1-15 | 2026-09-04 10:39:14 | 52.76165 | 9.17615 | 95° | 86km/h | 15420m | 4.2m/s | -56.4°C | 1.7% | 118.9hPa | 2.7V | 18:12:15 | 01:06:53 | 00:00:00 | |
| DL3AQ-11 | 2026-09-04 10:39:14 | 52.76167 | 9.17579 | 94° | 88km/h | 15415m | 6.5m/s | -56.4°C | 1.9% | 119.0hPa | 2.7V | 00:00:00 | 00:00:00 | 00:00:00 | |
| DL1NUX | 2026-09-04 10:39:13 | 52.76179 | 9.17390 | 96° | 91km/h | 15390m | 4.7m/s | -56.3°C | 4.9% | 119.4hPa | 2.7V | 08:30:00 | 01:06:47 | 00:00:00 | |
| DL1XH-west | 2026-09-04 10:39:12 | 52.76169 | 9.17542 | 94° | 91km/h | 15409m | 5.9m/s | -56.4°C | 1.6% | 119.1hPa | 2.8V | 18:12:15 | 01:06:51 | 00:00:00 | |
| DO2JMG | 2026-09-04 10:39:11 | 52.76171 | 9.17503 | 95° | 91km/h | 15403m | 5.6m/s | -56.3°C | 1.7% | 119.2hPa | 2.8V | 18:12:15 | 01:06:50 | 00:00:00 | |
| DF8AY | 2026-09-04 10:39:10 | 52.76187 | 9.17278 | 96° | 88km/h | 15375m | 4.6m/s | -56.2°C | 1.7% | 119.8hPa | 2.8V | 18:12:15 | 01:06:44 | 00:00:00 | |
| DB0DAN | 2026-09-04 10:39:10 | 52.76173 | 9.17466 | 97° | 86km/h | 15398m | 4.4m/s | -56.3°C | 1.9% | 119.29hPa | 2.8V | 00:00:00 | 00:00:00 | 00:00:00 | |
| BIOWL1-15 | 2026-09-04 10:39:10 | 52.76173 | 9.17466 | 97° | 91km/h | 15398m | 4.4m/s | -56.3°C | 1.6% | 119.3hPa | 2.8V | 18:12:15 | 01:06:49 | 00:00:00 | |
| DF5WG-10 | 2026-09-04 10:39:10 | 52.76173 | 9.17466 | 97° | 89km/h | 15398m | 4.3m/s | -56.3°C | 4.8% | 119.2hPa | 2.7V | 00:00:00 | 01:06:49 | 00:00:00 | |
| DL1XH1-15 | 2026-09-04 10:39:08 | 52.76191 | 9.17205 | 93° | 88km/h | 15366m | 3.8m/s | -56.2°C | 5% | 119.9hPa | 2.7V | 08:30:00 | 01:06:42 | 00:00:00 | |
| AA1-15 | 2026-09-04 10:39:04 | 52.76189 | 9.17242 | 94° | 89km/h | 15370m | 5.1m/s | -56.2°C | 1.8% | 119.8hPa | 2.8V | 18:12:15 | 01:06:43 | 00:00:00 | |
| DL1XH-west | 2026-09-04 10:39:01 | 52.76193 | 9.17132 | 92° | 89km/h | 15358m | 3.3m/s | -56.3°C | 1.7% | 120.1hPa | 2.7V | 18:12:15 | 01:06:40 | 00:00:00 | |
| DO2JMG | 2026-09-04 10:39:00 | 52.76193 | 9.17094 | 92° | 93km/h | 15353m | 5.2m/s | -56.4°C | 1.7% | 120.1hPa | 2.8V | 18:12:15 | 01:06:39 | 00:00:00 | |
| BIOWL1-15 | 2026-09-04 10:38:59 | 52.76194 | 9.17055 | 93° | 95km/h | 15348m | 4.9m/s | -56.4°C | 1.7% | 120.2hPa | 2.8V | 18:12:15 | 01:06:38 | 00:00:00 | |
| DO2SHX-10 | 2026-09-04 10:38:59 | 52.76194 | 9.17055 | 93° | 95km/h | 15349m | 4.8m/s | -56.4°C | 5.0% | 120.2hPa | 2.8V | 00:00:00 | 01:06:38 | 00:00:00 | |
| DL1XH1-15 | 2026-09-04 10:38:58 | 52.76203 | 9.16816 | 93° | 93km/h | 15319m | 3.4m/s | -56.2°C | 5% | 120.8hPa | 2.8V | 08:30:00 | 01:06:32 | 00:00:00 | |
| DL3AQ-11 | 2026-09-04 10:38:58 | 52.76197 | 9.16976 | 94° | 95km/h | 15338m | 3.3m/s | -56.3°C | 2.0% | 120.4hPa | 2.7V | 00:00:00 | 00:00:00 | 00:00:00 | |
| S3001 | 2026-09-04 10:38:57 | 52.76197 | 9.16976 | 94° | 95km/h | 15338m | 3.3m/s | -56.3°C | -1.0% | -1.0hPa | 2.7V | 00:00:00 | 00:00:00 | 00:00:00 | |
| DL1NUX | 2026-09-04 10:38:56 | 52.76205 | 9.16739 | 91° | 91km/h | 15309m | 4.3m/s | -56.2°C | 4.9% | 121hPa | 2.7V | 08:30:00 | 01:06:30 | 00:00:00 | |
| DF8AY | 2026-09-04 10:38:54 | 52.76202 | 9.16855 | 94° | 95km/h | 15324m | 5.7m/s | -56.3°C | 1.7% | 120.7hPa | 2.8V | 18:12:15 | 01:06:33 | 00:00:00 | |
| AA1-15 | 2026-09-04 10:38:53 | 52.76203 | 9.16816 | 93° | 93km/h | 15319m | 3.4m/s | -56.3°C | 1.7% | 120.8hPa | 2.8V | 18:12:15 | 01:06:32 | 00:00:00 | |
| DO2SHX-10 | 2026-09-04 10:38:53 | 52.76203 | 9.16816 | 94° | 93km/h | 15319m | 3.3m/s | -56.2°C | 5.0% | 120.7hPa | 2.7V | 00:00:00 | 01:06:32 | 00:00:00 | |
| DD8BA-10 | 2026-09-04 10:38:52 | 52.76204 | 9.16778 | 93° | 95km/h | 15315m | 5.4m/s | -56.1°C | 4.9% | 120.8hPa | 2.7V | 00:00:00 | 00:00:00 | 08:30:00 | |
| DM0DOS-11 | 2026-09-04 10:38:51 | 52.76213 | 9.16506 | 94° | 95km/h | 15280m | 4m/s | -56°C | 4.9% | 121.5hPa | 2.7V | 08:30:00 | 01:06:24 | 00:00:00 | |
| DL1XH-west | 2026-09-04 10:38:50 | 52.76206 | 9.16701 | 93° | 91km/h | 15305m | 5.6m/s | -56.2°C | 1.7% | 121.1hPa | 2.7V | 18:12:15 | 01:06:29 | 00:00:00 | |
| DO2JMG | 2026-09-04 10:38:49 | 52.76207 | 9.16663 | 93° | 91km/h | 15300m | 4.3m/s | -56.2°C | 1.7% | 121.1hPa | 2.7V | 18:12:15 | 01:06:28 | 00:00:00 | |
| SO1NDE-10 | 2026-09-04 10:38:49 | 52.76208 | 9.16625 | 93° | 89km/h | 15295m | 5.2m/s | -56.0°C | 4.9% | 121.2hPa | 2.8V | 00:00:00 | 01:06:27 | 00:00:00 | |
| DL8OAI-8 | 2026-09-04 10:38:48 | 52.76208 | 9.16625 | 93° | 93km/h | 15295m | 5.3m/s | -56.1°C | 2.0% | 121.2hPa | 2.8V | 00:00:00 | 00:00:00 | 00:00:00 | |
| DO2SHX-10 | 2026-09-04 10:38:47 | 52.76209 | 9.16586 | 94° | 95km/h | 15290m | 4.2m/s | -56.0°C | 4.9% | 121.3hPa | 2.8V | 00:00:00 | 01:06:26 | 00:00:00 | |
| DL1NUX | 2026-09-04 10:38:46 | 52.76219 | 9.16348 | 92° | 91km/h | 15260m | 4.5m/s | -55.9°C | 4.9% | 121.9hPa | 2.8V | 08:30:00 | 01:06:20 | 00:00:00 | |
| DL3AQ-11 | 2026-09-04 10:38:44 | 52.76215 | 9.16466 | 94° | 97km/h | 15275m | 5.9m/s | -56.0°C | 2.0% | 121.6hPa | 2.7V | 00:00:00 | 00:00:00 | 00:00:00 | |
| DF8AY | 2026-09-04 10:38:43 | 52.76216 | 9.16426 | 93° | 97km/h | 15270m | 4.4m/s | -56°C | 1.7% | 121.7hPa | 2.7V | 18:12:15 | 01:06:22 | 00:00:00 | |
| AA1-15 | 2026-09-04 10:38:42 | 52.76217 | 9.16387 | 93° | 95km/h | 15265m | 5.2m/s | -56°C | 1.7% | 121.8hPa | 2.8V | 18:12:15 | 01:06:21 | 00:00:00 | |
| DD8BA-10 | 2026-09-04 10:38:42 | 52.76217 | 9.16386 | 94° | 89km/h | 15266m | 5.2m/s | -56.0°C | 4.9% | 121.8hPa | 2.8V | 00:00:00 | 00:00:00 | 00:00:00 | |
| DL1XH-15 | 2026-09-04 10:38:41 | 52.76221 | 9.16163 | 90° | 88km/h | 15236m | 5.2m/s | -55.8°C | 4.8% | 122.4hPa | 2.8V | 08:30:00 | 01:06:15 | 00:00:00 | |
| DB0DAN | 2026-09-04 10:38:40 | 52.76220 | 9.16311 | 92° | 86km/h | 15256m | 4.9m/s | -55.9°C | 2% | 121.98hPa | 2.8V | 00:00:00 | 00:00:00 | 00:00:00 | |
| DL1XH-west | 2026-09-04 10:38:40 | 52.76220 | 9.16311 | 92° | 89km/h | 15256m | 4.9m/s | -55.9°C | 1.7% | 122hPa | 2.8V | 18:12:15 | 01:06:19 | 00:00:00 | |
| BIOWL1-15 | 2026-09-04 10:38:39 | 52.76220 | 9.16273 | 90° | 89km/h | 15251m | 4.7m/s | -55.9°C | 1.7% | 122.1hPa | 2.7V | 18:12:15 | 01:06:18 | 00:00:00 | |
| DO2JMG | 2026-09-04 10:38:38 | 52.76220 | 9.16236 | 90° | 88km/h | 15246m | 4.4m/s | -55.9°C | 1.7% | 122.2hPa | 2.7V | 18:12:15 | 01:06:17 | 00:00:00 | |
| BIOWL1-15 | 2026-09-04 10:38:32 | 52.76224 | 9.15863 | 91° | 86km/h | 15197m | 4.3m/s | -55.7°C | 1.7% | 123.2hPa | 2.8V | 18:12:15 | 01:06:07 | 00:00:00 | |
| AA1-15 | 2026-09-04 10:38:32 | 52.76223 | 9.16014 | 92° | 91km/h | 15217m | 4.6m/s | -55.8°C | 1.7% | 122.8hPa | 2.7V | 18:12:15 | 01:06:11 | 00:00:00 | |
| DD8BA-10 | 2026-09-04 10:38:32 | 52.76223 | 9.16014 | 92° | 86km/h | 15217m | 4.5m/s | -55.8°C | 4.9% | 122.7hPa | 2.7V | 00:00:00 | 00:00:00 | 00:00:00 | |
| DL1NUX | 2026-09-04 10:38:31 | 52.76224 | 9.15792 | 89° | 84km/h | 15187m | 4.7m/s | -55.8°C | 4.9% | 123.3hPa | 2.7V | 08:30:00 | 01:06:05 | 00:00:00 | |
| DL4BBY-15 | 2026-09-04 10:38:31 | 52.76223 | 9.15975 | 91° | 86km/h | 15212m | 4.8m/s | -56.1°C | 0% | 0hPa | 2.7V | 00:00:00 | 00:00:00 | 00:00:00 | |
| DM0DOS-11 | 2026-09-04 10:38:30 | 52.76224 | 9.15757 | 91° | 82km/h | 15182m | 6.4m/s | -55.9°C | 4.9% | 123.5hPa | 2.7V | 08:30:00 | 01:06:04 | 00:00:00 | |
| DL1XH-west | 2026-09-04 10:38:30 | 52.76224 | 9.15937 | 91° | 91km/h | 15207m | 4.6m/s | -55.8°C | 1.7% | 123hPa | 2.8V | 18:12:15 | 01:06:09 | 00:00:00 | |
| DO2JMG | 2026-09-04 10:38:27 | 52.76224 | 9.15827 | 90° | 86km/h | 15192m | 5.6m/s | -55.8°C | 1.8% | 123.3hPa | 2.7V | 18:12:15 | 01:06:06 | 00:00:00 | |
| DL8OAI-8 | 2026-09-04 10:38:26 | 52.76224 | 9.15827 | 91° | 86km/h | 15193m | 5.6m/s | -55.8°C | 2.1% | 123.3hPa | 2.7V | 00:00:00 | 00:00:00 | 00:00:00 | |
| DB0DAN | 2026-09-04 10:38:25 | 52.76224 | 9.15757 | 91° | 78km/h | 15182m | 6.4m/s | -55.9°C | 2% | 123.47hPa | 2.7V | 00:00:00 | 00:00:00 | 00:00:00 | |
| AA1-15 | 2026-09-04 10:38:22 | 52.76227 | 9.15655 | 92° | 84km/h | 15167m | 5m/s | -55.7°C | 1.8% | 123.8hPa | 2.8V | 18:12:15 | 01:06:01 | 00:00:00 | |
| DF8AY | 2026-09-04 10:38:21 | 52.76228 | 9.15620 | 94° | 84km/h | 15162m | 4.5m/s | -55.7°C | 1.8% | 123.8hPa | 2.7V | 18:12:15 | 01:06:00 | 00:00:00 | |
| DL1NUX | 2026-09-04 10:38:21 | 52.76235 | 9.15441 | 94° | 88km/h | 15137m | 5m/s | -55.6°C | 4.9% | 124.3hPa | 2.8V | 08:30:00 | 01:05:55 | 00:00:00 | |
| GOEST3-10 | 2026-09-04 10:38:21 | 52.76228 | 9.15620 | 94° | 86km/h | 15162m | 4.5m/s | -55.7°C | 5.0% | 123.8hPa | 2.7V | 00:00:00 | 01:06:00 | 00:00:00 | |
| DM0DOS-11 | 2026-09-04 10:38:20 | 52.76236 | 9.15405 | 93° | 86km/h | 15131m | 6m/s | -55.6°C | 4.9% | 124.4hPa | 2.7V | 08:30:00 | 01:05:54 | 00:00:00 | |
| DL1XH-west | 2026-09-04 10:38:19 | 52.76231 | 9.15549 | 94° | 86km/h | 15152m | 5.3m/s | -55.6°C | 1.7% | 124hPa | 2.7V | 18:12:15 | 01:05:58 | 00:00:00 | |
| DL1XH1-15 | 2026-09-04 10:38:18 | 52.76239 | 9.15333 | 94° | 86km/h | 15121m | 6m/s | -55.6°C | 4.8% | 124.6hPa | 2.7V | 08:30:00 | 01:05:52 | 00:00:00 | |
| DO2JMG | 2026-09-04 10:38:17 | 52.76234 | 9.15477 | 93° | 88km/h | 15142m | 5.1m/s | -55.7°C | 1.8% | 124.2hPa | 2.8V | 18:12:15 | 01:05:56 | 00:00:00 | |
| AA1-15 | 2026-09-04 10:38:11 | 52.76243 | 9.15263 | 96° | 84km/h | 15112m | 4m/s | -55.5°C | 1.7% | 124.8hPa | 2.8V | 18:12:15 | 01:05:50 | 00:00:00 | |
| DB0DAN | 2026-09-04 10:38:10 | 52.76245 | 9.15228 | 96° | 80km/h | 15107m | 5.3m/s | -55.4°C | 2% | 124.89hPa | 2.8V | 00:00:00 | 00:00:00 | 00:00:00 | |
| DL1NUX | 2026-09-04 10:38:10 | 52.76258 | 9.15055 | 96° | 84km/h | 15082m | 3.7m/s | -55.2°C | 4.7% | 125.4hPa | 2.8V | 08:30:00 | 01:05:44 | 00:00:00 | |
| DL1XH-west | 2026-09-04 10:38:08 | 52.76250 | 9.15159 | 97° | 82km/h | 15098m | 5.8m/s | -55.3°C | 1.7% | 125.1hPa | 2.7V | 18:12:15 | 01:05:47 | 00:00:00 | |
| BIOWL1-15 | 2026-09-04 10:38:07 | 52.76253 | 9.15125 | 98° | 84km/h | 15092m | 5.2m/s | -55.3°C | 1.7% | 125.2hPa | 2.7V | 18:12:15 | 01:05:46 | 00:00:00 | |
| DO2JMG | 2026-09-04 10:38:06 | 52.76255 | 9.15090 | 96° | 84km/h | 15087m | 5.3m/s | -55.2°C | 1.7% | 125.3hPa | 2.8V | 18:12:15 | 01:05:45 | 00:00:00 | |
| AA1-15 | 2026-09-04 10:38:01 | 52.76269 | 9.14914 | 96° | 86km/h | 15063m | 4.8m/s | -55.1°C | 1.8% | 125.8hPa | 2.7V | 18:12:15 | 01:05:40 | 00:00:00 | |
| DL4BBY-15 | 2026-09-04 10:38:01 | 52.76269 | 9.14914 | 97° | 93km/h | 15063m | 4.7m/s | -55.3°C | 0% | 0hPa | 2.7V | 00:00:00 | 00:00:00 | 00:00:00 | |
| HSKMA3-T | 2026-09-04 10:38:00 | 52.76721 | 8.75765 | 90° | 164km/h | 12040m | 5.1m/s | -57.9°C | 68.1% | 203.9hPa | 2.7V | 18:12:15 | 00:54:43 | 00:00:00 | |
| SONDE2-11 | 2026-09-04 10:38:00 | 52.76271 | 9.14878 | 96° | 86km/h | 15058m | 4.9m/s | -55.1°C | 2.1% | 125.9hPa | 2.7V | 00:00:00 | 00:00:00 | 00:00:00 | |
| DO2SHX-10 | 2026-09-04 10:37:59 | 52.76274 | 9.14842 | 98° | 88km/h | 15053m | 4.8m/s | -55.0°C | 4.9% | 125.9hPa | 2.7V | 00:00:00 | 01:05:38 | 00:00:00 | |
| DL1XH1-15 | 2026-09-04 10:37:58 | 52.76291 | 9.14623 | 98° | 88km/h | 15024m | 6.3m/s | -55.3°C | 4.7% | 126.5hPa | 2.8V | 08:30:00 | 01:05:32 | 00:00:00 | |
| DL1XH-west | 2026-09-04 10:37:58 | 52.76277 | 9.14806 | 98° | 88km/h | 15049m | 3.6m/s | -55.1°C | 1.9% | 126.1hPa | 2.8V | 18:12:15 | 01:05:37 | 00:00:00 | |
| BIOWL1-15 | 2026-09-04 10:37:56 | 52.76282 | 9.14732 | 96° | 89km/h | 15039m | 4.3m/s | -55.1°C | 1.7% | 126.3hPa | 2.7V | 18:12:15 | 01:05:35 | 00:00:00 | |
| DB0DAN | 2026-09-04 10:37:55 | 52.76285 | 9.14695 | 98° | 84km/h | 15035m | 5.8m/s | -55.2°C | 1.9% | 126.29hPa | 2.7V | 00:00:00 | 00:00:00 | 00:00:00 | |
| DO2JMG | 2026-09-04 10:37:55 | 52.76285 | 9.14695 | 98° | 88km/h | 15035m | 5.8m/s | -55.2°C | 1.7% | 126.3hPa | 2.7V | 18:12:15 | 01:05:34 | 00:00:00 | |
| DL3AQ-11 | 2026-09-04 10:37:54 | 52.76291 | 9.14623 | 98° | 88km/h | 15024m | 6.3m/s | -55.3°C | 2.0% | 126.5hPa | 2.7V | 00:00:00 | 00:00:00 | 00:00:00 | |
| DO2SHX-10 | 2026-09-04 10:37:53 | 52.76291 | 9.14623 | 99° | 89km/h | 15024m | 6.2m/s | -55.2°C | 4.7% | 126.5hPa | 2.7V | 00:00:00 | 01:05:32 | 00:00:00 | |
| DD8BA-10 | 2026-09-04 10:37:52 | 52.76295 | 9.14586 | 100° | 93km/h | 15018m | 4.1m/s | -55.2°C | 4.7% | 126.6hPa | 2.7V | 00:00:00 | 00:00:00 | 00:00:00 | |
| DL1XH-15 | 2026-09-04 10:37:51 | 52.76318 | 9.14363 | 99° | 93km/h | 14988m | 4.8m/s | -55.3°C | 5% | 127.2hPa | 2.8V | 08:30:00 | 01:05:25 | 00:00:00 | |
| AA1-15 | 2026-09-04 10:37:51 | 52.76299 | 9.14550 | 101° | 89km/h | 15014m | 5.9m/s | -55.3°C | 1.8% | 126.7hPa | 2.7V | 18:12:15 | 01:05:30 | 00:00:00 | |
| DF8AY | 2026-09-04 10:37:50 | 52.76303 | 9.14513 | 100° | 89km/h | 15009m | 3.7m/s | -55.2°C | 1.8% | 126.9hPa | 2.7V | 18:12:15 | 01:05:29 | 00:00:00 | |
| DJ2DS-15 | 2026-09-04 10:37:49 | 52.76307 | 9.14476 | 99° | 89km/h | 15004m | 5.9m/s | -55.3°C | 2.1% | 127.0hPa | 2.7V | 00:00:00 | 00:00:00 | 00:00:00 | |
| DL1NUX | 2026-09-04 10:37:48 | 52.76328 | 9.14244 | 97° | 97km/h | 14973m | 5.6m/s | -55.2°C | 5% | 127.6hPa | 2.7V | 08:30:00 | 01:05:22 | 00:00:00 | |
| DL1XH-west | 2026-09-04 10:37:47 | 52.76314 | 9.14401 | 100° | 91km/h | 14993m | 5.9m/s | -55.3°C | 1.8% | 127.2hPa | 2.8V | 18:12:15 | 01:05:26 | 00:00:00 | |
| DO2JMG | 2026-09-04 10:37:45 | 52.76322 | 9.14324 | 99° | 95km/h | 14983m | 4.6m/s | -55.3°C | 1.9% | 127.4hPa | 2.7V | 18:12:15 | 01:05:24 | 00:00:00 | |
| DO2SHX-10 | 2026-09-04 10:37:44 | 52.76325 | 9.14284 | 98° | 97km/h | 14978m | 5.2m/s | -55.1°C | 5.0% | 127.4hPa | 2.8V | 00:00:00 | 01:05:23 | 00:00:00 | |
| DO3DL | 2026-09-04 10:37:43 | 52.76328 | 9.14244 | 98° | 97km/h | 14973m | 5.6m/s | -55.2°C | 2.1% | 127.6hPa | 2.8V | 00:00:00 | 00:00:00 | 00:00:00 | |
| DL1XH-15 | 2026-09-04 10:37:42 | 52.76347 | 9.13961 | 96° | 95km/h | 14939m | 5.6m/s | -55.1°C | 4.8% | 128.2hPa | 2.8V | 08:30:00 | 01:05:15 | 00:00:00 | |
| AA1-15 | 2026-09-04 10:37:40 | 52.76337 | 9.14122 | 95° | 99km/h | 14958m | 5m/s | -55.2°C | 1.8% | 127.8hPa | 2.8V | 18:12:15 | 01:05:19 | 00:00:00 | |
| DF8AY | 2026-09-04 10:37:39 | 52.76339 | 9.14081 | 95° | 99km/h | 14953m | 4.6m/s | -55.1°C | 1.9% | 128hPa | 2.7V | 18:12:15 | 01:05:18 | 00:00:00 | |
| BIOWL1-15 | 2026-09-04 10:37:39 | 52.76349 | 9.13922 | 96° | 95km/h | 14934m | 4.6m/s | -55°C | 1.9% | 128.4hPa | 2.8V | 18:12:15 | 01:05:14 | 00:00:00 | |
| DL1XH1-15 | 2026-09-04 10:37:38 | 52.76355 | 9.13844 | 97° | 93km/h | 14924m | 4.9m/s | -55°C | 4.9% | 128.5hPa | 2.7V | 08:30:00 | 01:05:12 | 00:00:00 | |
| DL3AQ-11 | 2026-09-04 10:37:38 | 52.76344 | 9.14001 | 97° | 95km/h | 14943m | 4.1m/s | -55.1°C | 2.0% | 128.2hPa | 2.7V | 00:00:00 | 00:00:00 | 00:00:00 | |
| DL1NUX | 2026-09-04 10:37:37 | 52.76358 | 9.13806 | 96° | 93km/h | 14919m | 5.2m/s | -55°C | 4.9% | 128.6hPa | 2.7V | 08:30:00 | 01:05:11 | 00:00:00 | |
| DL1XH-west | 2026-09-04 10:37:36 | 52.76347 | 9.13961 | 97° | 95km/h | 14939m | 5.6m/s | -55.1°C | 1.9% | 128.2hPa | 2.8V | 18:12:15 | 01:05:15 | 00:00:00 | |
| DO2JMG | 2026-09-04 10:37:34 | 52.76352 | 9.13883 | 97° | 93km/h | 14929m | 5.2m/s | -55°C | 1.9% | 128.4hPa | 2.8V | 18:12:15 | 01:05:13 | 00:00:00 | |
| DJ2DS-15 | 2026-09-04 10:37:34 | 52.76352 | 9.13883 | 97° | 95km/h | 14929m | 5.1m/s | -55.0°C | 4.8% | 128.4hPa | 2.7V | 00:00:00 | 01:05:13 | 00:00:00 | |
| DO2SHX-10 | 2026-09-04 10:37:32 | 52.76358 | 9.13806 | 97° | 93km/h | 14919m | 5.1m/s | -54.9°C | 4.9% | 128.6hPa | 2.7V | 00:00:00 | 01:05:11 | 00:00:00 | |
| DL1XH-15 | 2026-09-04 10:37:31 | 52.76376 | 9.13576 | 97° | 93km/h | 14890m | 3.4m/s | -54.9°C | 4.9% | 129.2hPa | 2.7V | 08:30:00 | 01:05:05 | 00:00:00 | |
| DL4BBY-15 | 2026-09-04 10:37:31 | 52.76360 | 9.13767 | 97° | 99km/h | 14914m | 4.6m/s | -55.2°C | 0% | 0hPa | 2.7V | 00:00:00 | 00:00:00 | 00:00:00 | |
| DM0DOS-11 | 2026-09-04 10:37:30 | 52.76379 | 9.13538 | 98° | 95km/h | 14885m | 5.7m/s | -55°C | 4.9% | 129.3hPa | 2.7V | 08:30:00 | 01:05:04 | 00:00:00 | |
| AA1-15 | 2026-09-04 10:37:29 | 52.76366 | 9.13691 | 98° | 91km/h | 14904m | 5m/s | -55°C | 2% | 128.9hPa | 2.8V | 18:12:15 | 01:05:08 | 00:00:00 | |
| SONDE2-11 | 2026-09-04 10:37:29 | 52.76370 | 9.13652 | 98° | 91km/h | 14900m | 4.6m/s | -54.9°C | 2.2% | 129.0hPa | 2.8V | 00:00:00 | 00:00:00 | 00:00:00 | |
| DL1XH1-15 | 2026-09-04 10:37:28 | 52.76387 | 9.13459 | 99° | 97km/h | 14876m | 4.5m/s | -55.1°C | 5% | 129.5hPa | 2.8V | 08:30:00 | 01:05:02 | 00:00:00 | |
| DL4XJ-10 | 2026-09-04 10:37:28 | 52.76369 | 9.13652 | 99° | 97km/h | 14900m | 4.5m/s | -55.2°C | 0% | 0hPa | 2.8V | 00:00:00 | 00:00:00 | 00:00:00 | |
| DL1NUX | 2026-09-04 10:37:27 | 52.76392 | 9.13419 | 98° | 99km/h | 14871m | 5.2m/s | -55.1°C | 5% | 129.6hPa | 2.8V | 08:30:00 | 01:05:01 | 00:00:00 | |
| DB0DAN | 2026-09-04 10:37:25 | 52.76379 | 9.13538 | 99° | 89km/h | 14886m | 5.7m/s | -55°C | 2.1% | 129.34hPa | 2.7V | 00:00:00 | 00:00:00 | 00:00:00 | |
| DL1XH-west | 2026-09-04 10:37:25 | 52.76379 | 9.13538 | 99° | 95km/h | 14886m | 5.7m/s | -55°C | 2% | 129.3hPa | 2.7V | 18:12:15 | 01:05:04 | 00:00:00 | |
| DO2JMG | 2026-09-04 10:37:24 | 52.76383 | 9.13499 | 100° | 95km/h | 14880m | 4.5m/s | -55°C | 2% | 129.4hPa | 2.8V | 18:12:15 | 01:05:03 | 00:00:00 | |
| DO2SHX-10 | 2026-09-04 10:37:23 | 52.76387 | 9.13459 | 100° | 99km/h | 14876m | 4.4m/s | -55.0°C | 5.0% | 129.4hPa | 2.7V | 00:00:00 | 01:05:02 | 00:00:00 | |
| DD8BA-10 | 2026-09-04 10:37:22 | 52.76391 | 9.13419 | 99° | 97km/h | 14871m | 5.2m/s | -55.1°C | 5.0% | 129.6hPa | 2.7V | 00:00:00 | 00:00:00 | 08:30:00 | |
| DL1XH-15 | 2026-09-04 10:37:21 | 52.76413 | 9.13175 | 98° | 95km/h | 14841m | 5.8m/s | -55.3°C | 4.9% | 130.3hPa | 2.8V | 08:30:00 | 01:04:55 | 00:00:00 | |
| GOEST3-10 | 2026-09-04 10:37:21 | 52.76395 | 9.13378 | 99° | 99km/h | 14867m | 3.8m/s | -55.1°C | 5.1% | 129.6hPa | 2.7V | 00:00:00 | 01:05:00 | 00:00:00 | |
| DM0DOS-11 | 2026-09-04 10:37:20 | 52.76417 | 9.13136 | 99° | 93km/h | 14836m | 3.7m/s | -55.3°C | 5% | 130.3hPa | 2.7V | 08:30:00 | 01:04:54 | 00:00:00 | |
| DO2SHX-10 | 2026-09-04 10:37:20 | 52.76399 | 9.13337 | 99° | 99km/h | 14862m | 5.6m/s | -55.2°C | 5.1% | 129.7hPa | 2.8V | 00:00:00 | 01:04:59 | 00:00:00 | |
| DF8AY | 2026-09-04 10:37:19 | 52.76403 | 9.13296 | 99° | 99km/h | 14857m | 4.7m/s | -55.2°C | 2.1% | 129.9hPa | 2.7V | 18:12:15 | 01:04:58 | 00:00:00 | |
| SO1NDE-10 | 2026-09-04 10:37:18 | 52.76406 | 9.13255 | 98° | 100km/h | 14851m | 5.2m/s | -55.2°C | 5.1% | 130.0hPa | 2.8V | 00:00:00 | 01:04:57 | 00:00:00 | |
| DL1NUX | 2026-09-04 10:37:17 | 52.76428 | 9.13021 | 99° | 95km/h | 14822m | 5.6m/s | -55.3°C | 5% | 130.6hPa | 2.8V | 08:30:00 | 01:04:51 | 00:00:00 | |
| BIOWL1-15 | 2026-09-04 10:37:15 | 52.76424 | 9.13059 | 98° | 93km/h | 14826m | 4.3m/s | -55.3°C | 2.1% | 130.5hPa | 2.7V | 18:12:15 | 01:04:52 | 00:00:00 | |
| DL1XH-west | 2026-09-04 10:37:15 | 52.76417 | 9.13136 | 99° | 93km/h | 14836m | 3.7m/s | -55.3°C | 2.1% | 130.3hPa | 2.7V | 18:12:15 | 01:04:54 | 00:00:00 | |
| DD1CC3-15 | 2026-09-04 10:37:15 | 52.76417 | 9.13136 | 100° | 93km/h | 14836m | 3.7m/s | -55.3°C | 2.2% | 130.3hPa | 2.7V | 00:00:00 | 00:00:00 | 00:00:00 | |
| DJ2DS-15 | 2026-09-04 10:37:14 | 52.76421 | 9.13098 | 99° | 102km/h | 14832m | 5.7m/s | -55.2°C | 4.9% | 130.4hPa | 2.7V | 00:00:00 | 01:04:53 | 00:00:00 | |
| DO2JMG | 2026-09-04 10:37:14 | 52.76421 | 9.13098 | 99° | 93km/h | 14832m | 5.7m/s | -55.2°C | 2.1% | 130.4hPa | 2.7V | 18:12:15 | 01:04:53 | 00:00:00 | |
| DO2SHX-10 | 2026-09-04 10:37:13 | 52.76424 | 9.13059 | 99° | 95km/h | 14827m | 4.3m/s | -55.2°C | 4.9% | 130.5hPa | 2.7V | 00:00:00 | 01:04:52 | 08:30:00 | |
| DD8BA-10 | 2026-09-04 10:37:12 | 52.76428 | 9.13021 | 100° | 102km/h | 14822m | 5.6m/s | -55.3°C | 5.0% | 130.5hPa | 2.8V | 00:00:00 | 00:00:00 | 00:00:00 | |
| DL1XH-15 | 2026-09-04 10:37:11 | 52.76450 | 9.12768 | 97° | 106km/h | 14790m | 6m/s | -55.4°C | 5.1% | 131.2hPa | 2.8V | 08:30:00 | 01:04:45 | 00:00:00 | |
| DB0DAN | 2026-09-04 10:37:10 | 52.76436 | 9.12941 | 98° | 95km/h | 14811m | 5.8m/s | -55.3°C | 2.3% | 130.8hPa | 2.8V | 00:00:00 | 00:00:00 | 00:00:00 | |
| DM0DOS-11 | 2026-09-04 10:37:10 | 52.76454 | 9.12724 | 96° | 106km/h | 14786m | 3.6m/s | -55.3°C | 5.2% | 131.4hPa | 2.8V | 08:30:00 | 01:04:44 | 00:00:00 | |
| DO2SHX-10 | 2026-09-04 10:37:10 | 52.76436 | 9.12941 | 99° | 102km/h | 14811m | 5.7m/s | -55.3°C | 5.1% | 130.7hPa | 2.7V | 00:00:00 | 01:04:49 | 00:00:00 | |
| DL1XH1-15 | 2026-09-04 10:37:08 | 52.76460 | 9.12637 | 97° | 104km/h | 14776m | 4.5m/s | -55.3°C | 5.1% | 131.5hPa | 2.7V | 08:30:00 | 01:04:42 | 00:00:00 | |
| AA1-15 | 2026-09-04 10:37:08 | 52.76443 | 9.12856 | 98° | 106km/h | 14801m | 5.7m/s | -55.4°C | 2.1% | 131hPa | 2.7V | 18:12:15 | 01:04:47 | 00:00:00 | |
| DL4XJ-10 | 2026-09-04 10:37:08 | 52.76443 | 9.12856 | 99° | 104km/h | 14801m | 5.6m/s | -55.6°C | 0% | 0hPa | 2.7V | 00:00:00 | 00:00:00 | 00:00:00 | |
| DO2SHX-10 | 2026-09-04 10:37:07 | 52.76447 | 9.12812 | 99° | 106km/h | 14796m | 4.5m/s | -55.3°C | 5.1% | 131.1hPa | 2.7V | 00:00:00 | 01:04:46 | 00:00:00 | |
| DL1NUX | 2026-09-04 10:37:06 | 52.76466 | 9.12553 | 96° | 100km/h | 14766m | 4.2m/s | -55.3°C | 5.1% | 131.7hPa | 2.7V | 08:30:00 | 01:04:40 | 00:00:00 | |
| DL1XH-west | 2026-09-04 10:37:04 | 52.76457 | 9.12681 | 97° | 106km/h | 14781m | 5.7m/s | -55.4°C | 2.2% | 131.5hPa | 2.8V | 18:12:15 | 01:04:43 | 00:00:00 | |
| DO2JMG | 2026-09-04 10:37:03 | 52.76460 | 9.12637 | 98° | 104km/h | 14776m | 4.5m/s | -55.3°C | 2.2% | 131.5hPa | 2.7V | 18:12:15 | 01:04:42 | 00:00:00 | |
| D01LWL | 2026-09-04 10:37:03 | 52.76464 | 9.12595 | 96° | 100km/h | 14771m | 5.9m/s | -55.4°C | 2.3% | 131.6hPa | 2.7V | 00:00:00 | 00:00:00 | 00:00:00 | |
| DD8BA-10 | 2026-09-04 10:37:02 | 52.76464 | 9.12595 | 97° | 104km/h | 14771m | 5.8m/s | -55.3°C | 5.1% | 131.5hPa | 2.7V | 00:00:00 | 00:00:00 | 00:00:00 | |
| DL1XH-15 | 2026-09-04 10:37:01 | 52.76478 | 9.12339 | 93° | 106km/h | 14743m | 4.7m/s | -55.2°C | 5.1% | 132.2hPa | 2.7V | 08:30:00 | 01:04:35 | 00:00:00 | |
| DO2SHX-10 | 2026-09-04 10:37:01 | 52.76466 | 9.12553 | 97° | 102km/h | 14766m | 4.1m/s | -55.2°C | 5.1% | 131.7hPa | 2.7V | 00:00:00 | 01:04:40 | 00:00:00 | |
| DM0DOS-11 | 2026-09-04 10:37:00 | 52.76480 | 9.12295 | 94° | 106km/h | 14737m | 5.1m/s | -55.3°C | 5.1% | 132.3hPa | 2.7V | 08:30:00 | 01:04:34 | 00:00:00 | |
| BUE01 | 2026-09-04 10:36:59 | 52.76475 | 9.12426 | 94° | 104km/h | 14752m | 5.1m/s | -55.4°C | 2.4% | 132.0hPa | 2.8V | 00:00:00 | 00:00:00 | 00:00:00 | |
| DL1XH1-15 | 2026-09-04 10:36:58 | 52.76484 | 9.12208 | 94° | 104km/h | 14729m | 4.9m/s | -55.3°C | 5.1% | 132.5hPa | 2.8V | 08:30:00 | 01:04:32 | 00:00:00 | |
| AA1-15 | 2026-09-04 10:36:57 | 52.76476 | 9.12382 | 94° | 104km/h | 14747m | 4.4m/s | -55.3°C | 2.2% | 132.1hPa | 2.7V | 18:12:15 | 01:04:36 | 00:00:00 | |
| DL1XH-west | 2026-09-04 10:36:54 | 52.76482 | 9.12251 | 94° | 106km/h | 14733m | 4m/s | -55.3°C | 2.2% | 132.4hPa | 2.8V | 18:12:15 | 01:04:33 | 00:00:00 | |
| BIOWL1-15 | 2026-09-04 10:36:54 | 52.76486 | 9.12164 | 95° | 104km/h | 14724m | 5.1m/s | -55.3°C | 2.2% | 132.6hPa | 2.8V | 18:12:15 | 01:04:31 | 00:00:00 | |
| DJ2DS-15 | 2026-09-04 10:36:54 | 52.76482 | 9.12251 | 95° | 111km/h | 14733m | 4.0m/s | -55.3°C | 5.1% | 132.3hPa | 2.7V | 00:00:00 | 01:04:33 | 00:00:00 | |
| DL1NUX | 2026-09-04 10:36:53 | 52.76496 | 9.11988 | 95° | 108km/h | 14704m | 5m/s | -55.7°C | 5.2% | 133.1hPa | 2.8V | 08:30:00 | 01:04:27 | 00:00:00 | |
| DO2JMG | 2026-09-04 10:36:53 | 52.76484 | 9.12208 | 94° | 104km/h | 14729m | 4.9m/s | -55.3°C | 2.2% | 132.5hPa | 2.8V | 18:12:15 | 01:04:32 | 00:00:00 | |
| DO2SHX-10 | 2026-09-04 10:36:52 | 52.76486 | 9.12164 | 95° | 106km/h | 14724m | 5.1m/s | -55.2°C | 5.0% | 132.6hPa | 2.8V | 00:00:00 | 01:04:31 | 00:00:00 | |
| DL1XH-15 | 2026-09-04 10:36:51 | 52.76501 | 9.11897 | 95° | 111km/h | 14694m | 5.7m/s | -55.6°C | 5.2% | 133.2hPa | 2.8V | 08:30:00 | 01:04:25 | 00:00:00 | |
| GOEST3-10 | 2026-09-04 10:36:51 | 52.76489 | 9.12120 | 96° | 108km/h | 14718m | 4.8m/s | -55.3°C | 5.1% | 132.7hPa | 2.7V | 00:00:00 | 01:04:30 | 00:00:00 | |
| DM0DOS-11 | 2026-09-04 10:36:50 | 52.76504 | 9.11851 | 94° | 111km/h | 14689m | 4.5m/s | -55.7°C | 5.2% | 133.4hPa | 2.7V | 08:30:00 | 01:04:24 | 00:00:00 | |
| DO2SHX-10 | 2026-09-04 10:36:49 | 52.76494 | 9.12032 | 95° | 108km/h | 14709m | 4.6m/s | -55.6°C | 5.2% | 132.9hPa | 2.7V | 00:00:00 | 01:04:28 | 00:00:00 | |
| DL1XH1-15 | 2026-09-04 10:36:48 | 52.76509 | 9.11757 | 95° | 115km/h | 14679m | 4.3m/s | -55.8°C | 5.3% | 133.6hPa | 2.7V | 08:30:00 | 01:04:22 | 00:00:00 | |
| AA1-15 | 2026-09-04 10:36:46 | 52.76501 | 9.11897 | 95° | 111km/h | 14694m | 5.7m/s | -55.6°C | 2.3% | 133.2hPa | 2.8V | 18:12:15 | 01:04:25 | 00:00:00 | |
| DL3AQ-11 | 2026-09-04 10:36:45 | 52.76506 | 9.11805 | 95° | 111km/h | 14684m | 5.4m/s | -55.8°C | 2.4% | 133.5hPa | 2.8V | 00:00:00 | 00:00:00 | 00:00:00 | |
| BIOWL1-15 | 2026-09-04 10:36:43 | 52.76513 | 9.11663 | 93° | 113km/h | 14669m | 4.4m/s | -55.8°C | 2.4% | 133.8hPa | 2.8V | 18:12:15 | 01:04:20 | 00:00:00 | |
| DL1XH-west | 2026-09-04 10:36:43 | 52.76509 | 9.11757 | 96° | 115km/h | 14679m | 4.4m/s | -55.8°C | 2.4% | 133.6hPa | 2.7V | 18:12:15 | 01:04:22 | 00:00:00 | |
| DO2JMG | 2026-09-04 10:36:42 | 52.76512 | 9.11710 | 94° | 115km/h | 14674m | 5.7m/s | -55.8°C | 2.4% | 133.7hPa | 2.8V | 18:12:15 | 01:04:21 | 00:00:00 | |
| DD8BA-10 | 2026-09-04 10:36:42 | 52.76512 | 9.11710 | 95° | 113km/h | 14674m | 5.6m/s | -55.7°C | 5.3% | 133.6hPa | 2.8V | 00:00:00 | 00:00:00 | 00:00:00 | |
| DB0DAN | 2026-09-04 10:36:40 | 52.76515 | 9.11615 | 93° | 110km/h | 14664m | 5.2m/s | -55.7°C | 2.4% | 133.87hPa | 2.8V | 00:00:00 | 00:00:00 | 00:00:00 | |
| DM0DOS-11 | 2026-09-04 10:36:40 | 52.76520 | 9.11379 | 91° | 113km/h | 14640m | 6.4m/s | -55.7°C | 5.4% | 134.4hPa | 2.8V | 08:30:00 | 01:04:14 | 00:00:00 | |
| DO2SHX-10 | 2026-09-04 10:36:40 | 52.76515 | 9.11615 | 93° | 115km/h | 14664m | 5.2m/s | -55.7°C | 5.3% | 133.8hPa | 2.7V | 00:00:00 | 01:04:19 | 00:00:00 | |
| DO3DL | 2026-09-04 10:36:39 | 52.76515 | 9.11615 | 94° | 115km/h | 14664m | 5.2m/s | -55.7°C | 2.4% | 133.9hPa | 2.7V | 00:00:00 | 00:00:00 | 00:00:00 | |
| DL1XH1-15 | 2026-09-04 10:36:38 | 52.76521 | 9.11283 | 89° | 115km/h | 14630m | 6.2m/s | -55.6°C | 5.3% | 134.6hPa | 2.7V | 08:30:00 | 01:04:12 | 00:00:00 | |
| DF8AY | 2026-09-04 10:36:37 | 52.76519 | 9.11426 | 91° | 113km/h | 14645m | 5m/s | -55.7°C | 2.4% | 134.3hPa | 2.8V | 18:12:15 | 01:04:15 | 00:00:00 | |
| AA1-15 | 2026-09-04 10:36:35 | 52.76520 | 9.11379 | 91° | 113km/h | 14640m | 6.4m/s | -55.7°C | 2.5% | 134.4hPa | 2.8V | 18:12:15 | 01:04:14 | 00:00:00 | |
| DL1XH-west | 2026-09-04 10:36:33 | 52.76521 | 9.11283 | 90° | 115km/h | 14630m | 6.2m/s | -55.6°C | 2.4% | 134.6hPa | 2.7V | 18:12:15 | 01:04:12 | 00:00:00 | |
| BIOWL1-15 | 2026-09-04 10:36:31 | 52.76519 | 9.11185 | 89° | 119km/h | 14620m | 5.1m/s | -55.5°C | 2.4% | 134.9hPa | 2.7V | 18:12:15 | 01:04:10 | 00:00:00 | |
| DO2SHX-10 | 2026-09-04 10:36:31 | 52.76519 | 9.11185 | 89° | 122km/h | 14620m | 5.0m/s | -55.4°C | 5.3% | 134.8hPa | 2.7V | 00:00:00 | 01:04:10 | 00:00:00 | |
| DM0DOS-11 | 2026-09-04 10:36:30 | 52.76508 | 9.10880 | 85° | 119km/h | 14592m | 5m/s | -55.3°C | 5.4% | 135.4hPa | 2.7V | 08:30:00 | 01:04:04 | 00:00:00 | |
| BIOWL9-15 | 2026-09-04 10:36:29 | 52.76517 | 9.11084 | 86° | 122km/h | 14610m | 5.4m/s | -55.5°C | 2.4% | 135.0hPa | 2.8V | 00:00:00 | 00:00:00 | 00:00:00 | |
| DL1XH1-15 | 2026-09-04 10:36:28 | 52.76504 | 9.10783 | 86° | 113km/h | 14583m | 5.2m/s | -55.2°C | 5.3% | 135.6hPa | 2.8V | 08:30:00 | 01:04:02 | 00:00:00 | |
| DF8AY | 2026-09-04 10:36:26 | 52.76510 | 9.10930 | 86° | 122km/h | 14597m | 3.8m/s | -55.3°C | 2.4% | 135.3hPa | 2.7V | 18:12:15 | 01:04:05 | 00:00:00 | |
| DB0DAN | 2026-09-04 10:36:25 | 52.76508 | 9.10880 | 86° | 113km/h | 14592m | 5m/s | -55.3°C | 2.5% | 135.44hPa | 2.7V | 00:00:00 | 00:00:00 | 00:00:00 | |
| AA1-15 | 2026-09-04 10:36:25 | 52.76508 | 9.10880 | 86° | 120km/h | 14592m | 5m/s | -55.3°C | 2.5% | 135.4hPa | 2.7V | 18:12:15 | 01:04:04 | 00:00:00 | |
| DL1XH-west | 2026-09-04 10:36:23 | 52.76504 | 9.10784 | 87° | 113km/h | 14583m | 5.2m/s | -55.2°C | 2.5% | 135.6hPa | 2.8V | 18:12:15 | 01:04:02 | 00:00:00 | |
| DO2JMG | 2026-09-04 10:36:21 | 52.76502 | 9.10690 | 88° | 111km/h | 14573m | 5.2m/s | -55.2°C | 2.5% | 135.8hPa | 2.7V | 18:12:15 | 01:04:00 | 00:00:00 | |
| BIOWL1-15 | 2026-09-04 10:36:20 | 52.76500 | 9.10643 | 88° | 113km/h | 14569m | 4.1m/s | -55.1°C | 2.6% | 135.9hPa | 2.7V | 18:12:15 | 01:03:59 | 00:00:00 | |
| DO2SHX-10 | 2026-09-04 10:36:19 | 52.76499 | 9.10596 | 89° | 115km/h | 14564m | 5.6m/s | -55.0°C | 5.3% | 136.0hPa | 2.7V | 00:00:00 | 01:03:58 | 08:30:00 | |
| DL1XH1-15 | 2026-09-04 10:36:18 | 52.76493 | 9.10303 | 86° | 117km/h | 14537m | 3.5m/s | -55°C | 5.1% | 136.6hPa | 2.7V | 08:30:00 | 01:03:52 | 00:00:00 | |
| DF8AY | 2026-09-04 10:36:17 | 52.76497 | 9.10450 | 87° | 119km/h | 14550m | 4.8m/s | -54.9°C | 2.5% | 136.3hPa | 2.8V | 18:12:15 | 01:03:55 | 00:00:00 | |
| AA1-15 | 2026-09-04 10:36:15 | 52.76496 | 9.10401 | 87° | 119km/h | 14545m | 3.4m/s | -55°C | 2.4% | 136.4hPa | 2.7V | 18:12:15 | 01:03:54 | 00:00:00 | |
| DO2SHX-10 | 2026-09-04 10:36:14 | 52.76490 | 9.10254 | 86° | 117km/h | 14533m | 4.7m/s | -54.9°C | 5.1% | 136.6hPa | 2.8V | 00:00:00 | 01:03:51 | 00:00:00 | |
| DL1XH-west | 2026-09-04 10:36:14 | 52.76490 | 9.10254 | 85° | 117km/h | 14533m | 4.8m/s | -55°C | 2.4% | 136.7hPa | 2.8V | 18:12:15 | 01:03:51 | 00:00:00 | |
| DC6BW-12 | 2026-09-04 10:36:11 | 52.76490 | 9.10254 | 86° | 117km/h | 14533m | 4.8m/s | -55.0°C | 2.4% | 136.7hPa | 2.8V | 00:00:00 | 00:00:00 | 00:00:00 | |
| DO2JMG | 2026-09-04 10:36:11 | 52.76488 | 9.10206 | 85° | 117km/h | 14529m | 3.8m/s | -54.9°C | 2.5% | 136.8hPa | 2.8V | 18:12:15 | 01:03:50 | 00:00:00 | |
| DB0DAN | 2026-09-04 10:36:10 | 52.76486 | 9.10157 | 86° | 113km/h | 14524m | 5.2m/s | -55°C | 2.4% | 136.83hPa | 2.8V | 00:00:00 | 00:00:00 | 00:00:00 | |
| DM0DOS-11 | 2026-09-04 10:36:10 | 52.76477 | 9.09916 | 87° | 113km/h | 14501m | 3.7m/s | -55.2°C | 5.4% | 137.3hPa | 2.7V | 08:30:00 | 01:03:44 | 00:00:00 | |
| BIOWL1-15 | 2026-09-04 10:36:10 | 52.76486 | 9.10157 | 86° | 119km/h | 14524m | 5.2m/s | -55°C | 2.4% | 136.8hPa | 2.8V | 18:12:15 | 01:03:49 | 00:00:00 | |
| DO3DL | 2026-09-04 10:36:09 | 52.76486 | 9.10157 | 87° | 119km/h | 14524m | 5.2m/s | -55.0°C | 2.4% | 136.8hPa | 2.8V | 00:00:00 | 00:00:00 | 00:00:00 | |
| DL1XH1-15 | 2026-09-04 10:36:08 | 52.76474 | 9.09823 | 87° | 110km/h | 14492m | 4.1m/s | -55.3°C | 5.4% | 137.6hPa | 2.8V | 08:30:00 | 01:03:42 | 00:00:00 | |
| DF8AY | 2026-09-04 10:36:06 | 52.76478 | 9.09964 | 87° | 115km/h | 14506m | 5.6m/s | -55.1°C | 2.7% | 137.3hPa | 2.8V | 18:12:15 | 01:03:45 | 00:00:00 | |
| AA1-15 | 2026-09-04 10:36:04 | 52.76475 | 9.09869 | 88° | 111km/h | 14497m | 5.4m/s | -55.3°C | 2.8% | 137.4hPa | 2.7V | 18:12:15 | 01:03:43 | 00:00:00 | |
| DL1XH-west | 2026-09-04 10:36:01 | 52.76472 | 9.09732 | 87° | 111km/h | 14483m | 4.4m/s | -55.4°C | 2.8% | 137.7hPa | 2.7V | 18:12:15 | 01:03:40 | 00:00:00 | |
| DO2JMG | 2026-09-04 10:36:00 | 52.76471 | 9.09686 | 87° | 111km/h | 14479m | 3.9m/s | -55.4°C | 2.7% | 137.8hPa | 2.7V | 18:12:15 | 01:03:39 | 00:00:00 | |
| DL1NUX | 2026-09-04 10:35:59 | 52.76454 | 9.09411 | 84° | 108km/h | 14453m | 4.1m/s | -55.8°C | 5.4% | 138.4hPa | 2.8V | 08:30:00 | 01:03:33 | 00:00:00 | |
| BIOWL1-15 | 2026-09-04 10:35:59 | 52.76469 | 9.09640 | 85° | 110km/h | 14475m | 5.7m/s | -55.5°C | 2.6% | 137.9hPa | 2.8V | 18:12:15 | 01:03:38 | 00:00:00 | |
| DF8AY | 2026-09-04 10:35:56 | 52.76457 | 9.09457 | 84° | 111km/h | 14457m | 4.5m/s | -55.7°C | 2.8% | 138.2hPa | 2.8V | 18:12:15 | 01:03:34 | 00:00:00 | |
| AA1-15 | 2026-09-04 10:35:53 | 52.76451 | 9.09367 | 85° | 108km/h | 14449m | 3.6m/s | -55.8°C | 2.9% | 138.4hPa | 2.7V | 18:12:15 | 01:03:32 | 00:00:00 | |
| DO2SHX-10 | 2026-09-04 10:35:53 | 52.76451 | 9.09367 | 86° | 108km/h | 14449m | 3.6m/s | -55.8°C | 5.5% | 138.4hPa | 2.7V | 00:00:00 | 01:03:32 | 00:00:00 | |
| DD8BA-10 | 2026-09-04 10:35:52 | 52.76449 | 9.09322 | 87° | 108km/h | 14445m | 4.5m/s | -55.8°C | 5.5% | 138.5hPa | 2.7V | 00:00:00 | 00:00:00 | 08:30:00 | |
| DL1XH-15 | 2026-09-04 10:35:51 | 52.76442 | 9.09053 | 87° | 106km/h | 14418m | 5m/s | -56.4°C | 5.8% | 139.1hPa | 2.8V | 08:30:00 | 01:03:25 | 00:00:00 | |
| DO2JMG | 2026-09-04 10:35:50 | 52.76446 | 9.09232 | 87° | 106km/h | 14436m | 5.4m/s | -56°C | 3% | 138.7hPa | 2.8V | 18:12:15 | 01:03:29 | 00:00:00 | |
| BIOWL1-15 | 2026-09-04 10:35:48 | 52.76444 | 9.09143 | 88° | 108km/h | 14427m | 4.8m/s | -56.2°C | 3.1% | 138.9hPa | 2.7V | 18:12:15 | 01:03:27 | 00:00:00 | |
| DL4XJ-10 | 2026-09-04 10:35:48 | 52.76444 | 9.09143 | 89° | 110km/h | 14426m | 4.7m/s | -56.4°C | 0% | 0hPa | 2.7V | 00:00:00 | 00:00:00 | 00:00:00 | |
| SO1NDE-10 | 2026-09-04 10:35:47 | 52.76443 | 9.09098 | 89° | 113km/h | 14423m | 3.9m/s | -56.3°C | 5.8% | 139.0hPa | 2.7V | 00:00:00 | 01:03:26 | 00:00:00 | |
| GOEST3-10 | 2026-09-04 10:35:46 | 52.76442 | 9.09053 | 88° | 110km/h | 14418m | 5.0m/s | -56.4°C | 5.8% | 139.1hPa | 2.7V | 00:00:00 | 00:00:00 | 00:00:00 | |
| HSKMA3-T | 2026-09-04 10:35:45 | 52.76715 | 8.74329 | 90° | 161km/h | 11938m | 4.2m/s | -57°C | 67.1% | 207.2hPa | 2.8V | 18:12:15 | 00:54:22 | 00:00:00 | |
| DF8AY | 2026-09-04 10:35:45 | 52.76440 | 9.08964 | 88° | 110km/h | 14409m | 4.8m/s | -56.5°C | 3.2% | 139.3hPa | 2.7V | 18:12:15 | 01:03:23 | 00:00:00 | |
| AA1-15 | 2026-09-04 10:35:45 | 52.76439 | 9.08918 | 88° | 111km/h | 14405m | 3.9m/s | -56.7°C | 3.3% | 139.4hPa | 2.7V | 18:12:15 | 01:03:22 | 00:00:00 | |
| DL3OBA | 2026-09-04 10:35:45 | 52.76439 | 9.08918 | 89° | 111km/h | 14405m | 3.9m/s | -56.7°C | 2.9% | 139.4hPa | 2.7V | 00:00:00 | 00:00:00 | 00:00:00 | |
| DL8OAI-8 | 2026-09-04 10:35:44 | 52.76439 | 9.08918 | 89° | 111km/h | 14405m | 3.9m/s | -56.7°C | 3.0% | 139.4hPa | 2.7V | 00:00:00 | 00:00:00 | 00:00:00 | |
| DD8BA-10 | 2026-09-04 10:35:42 | 52.76438 | 9.08872 | 90° | 108km/h | 14401m | 5.3m/s | -56.8°C | 6.0% | 139.4hPa | 2.7V | 00:00:00 | 00:00:00 | 00:00:00 | |
| DL1XH-15 | 2026-09-04 10:35:41 | 52.76443 | 9.08602 | 92° | 104km/h | 14374m | 3.8m/s | -56.9°C | 5.9% | 140.1hPa | 2.7V | 08:30:00 | 01:03:15 | 00:00:00 | |
| DB0DAN | 2026-09-04 10:35:40 | 52.76439 | 9.08781 | 91° | 104km/h | 14391m | 4.7m/s | -56.9°C | 3% | 139.7hPa | 2.8V | 00:00:00 | 00:00:00 | 00:00:00 | |
| DL1XH-west | 2026-09-04 10:35:40 | 52.76439 | 9.08781 | 91° | 110km/h | 14391m | 4.7m/s | -56.9°C | 3.3% | 139.7hPa | 2.8V | 18:12:15 | 01:03:19 | 00:00:00 | |
| DL1NUX | 2026-09-04 10:35:39 | 52.76445 | 9.08515 | 93° | 106km/h | 14366m | 3.9m/s | -56.9°C | 6% | 140.3hPa | 2.8V | 08:30:00 | 01:03:13 | 00:00:00 | |
| DO2JMG | 2026-09-04 10:35:39 | 52.76440 | 9.08735 | 92° | 110km/h | 14387m | 4.1m/s | -56.9°C | 3.4% | 139.8hPa | 2.8V | 18:12:15 | 01:03:18 | 00:00:00 | |
| BIOWL1-15 | 2026-09-04 10:35:39 | 52.76442 | 9.08645 | 93° | 106km/h | 14378m | 4.4m/s | -56.9°C | 3.3% | 140hPa | 2.7V | 18:12:15 | 01:03:16 | 00:00:00 | |
| DL3AQ-11 | 2026-09-04 10:35:38 | 52.76442 | 9.08645 | 92° | 104km/h | 14378m | 4.4m/s | -56.9°C | 2.9% | 140.0hPa | 2.8V | 00:00:00 | 00:00:00 | 00:00:00 | |
| HSKMA3-T | 2026-09-04 10:35:37 | 52.76714 | 8.74262 | 89° | 161km/h | 11933m | 5m/s | -56.9°C | 67.2% | 207.4hPa | 2.8V | 18:12:15 | 00:54:21 | 00:00:00 | |
| DF8AY | 2026-09-04 10:35:33 | 52.76447 | 9.08471 | 94° | 106km/h | 14361m | 5.7m/s | -57°C | 3.5% | 140.4hPa | 2.8V | 18:12:15 | 01:03:12 | 00:00:00 | |
| AA1-15 | 2026-09-04 10:35:32 | 52.76449 | 9.08427 | 95° | 108km/h | 14356m | 4.3m/s | -56.9°C | 3.5% | 140.5hPa | 2.7V | 18:12:15 | 01:03:11 | 00:00:00 | |
| DO2SHX-10 | 2026-09-04 10:35:32 | 52.76449 | 9.08427 | 96° | 111km/h | 14356m | 4.3m/s | -56.9°C | 6.2% | 140.4hPa | 2.7V | 00:00:00 | 01:03:11 | 00:00:00 | |
| DL4BBY-15 | 2026-09-04 10:35:31 | 52.76452 | 9.08381 | 96° | 126km/h | 14353m | 3.5m/s | -57.1°C | 0% | 0hPa | 2.7V | 00:00:00 | 00:00:00 | 00:00:00 | |
| DC6BW-12 | 2026-09-04 10:35:30 | 52.76452 | 9.08381 | 96° | 111km/h | 14352m | 3.5m/s | -56.9°C | 3.2% | 140.6hPa | 2.7V | 00:00:00 | 00:00:00 | 00:00:00 | |
| DL1NUX | 2026-09-04 10:35:29 | 52.76473 | 9.08040 | 96° | 122km/h | 14318m | 4.1m/s | -56.9°C | 6.2% | 141.3hPa | 2.7V | 08:30:00 | 01:03:03 | 00:00:00 | |
| DL1XH-west | 2026-09-04 10:35:29 | 52.76457 | 9.08286 | 95° | 117km/h | 14342m | 4.1m/s | -56.8°C | 3.6% | 140.8hPa | 2.8V | 18:12:15 | 01:03:08 | 00:00:00 | |
| BIOWL1-15 | 2026-09-04 10:35:29 | 52.76462 | 9.08189 | 96° | 117km/h | 14333m | 3.7m/s | -56.8°C | 3.6% | 141hPa | 2.8V | 18:12:15 | 01:03:06 | 00:00:00 | |
| DO2SHX-10 | 2026-09-04 10:35:29 | 52.76457 | 9.08286 | 95° | 117km/h | 14342m | 4.0m/s | -56.8°C | 6.2% | 140.7hPa | 2.7V | 00:00:00 | 01:03:08 | 00:00:00 | |
| DL1XH1-15 | 2026-09-04 10:35:28 | 52.76476 | 9.07990 | 95° | 120km/h | 14313m | 5.2m/s | -56.9°C | 6.2% | 141.4hPa | 2.8V | 08:30:00 | 01:03:02 | 00:00:00 | |
| DO2JMG | 2026-09-04 10:35:28 | 52.76460 | 9.08237 | 95° | 117km/h | 14337m | 5.3m/s | -56.8°C | 3.6% | 140.9hPa | 2.8V | 18:12:15 | 01:03:07 | 00:00:00 | |
| DL4XJ-10 | 2026-09-04 10:35:28 | 52.76459 | 9.08237 | 96° | 124km/h | 14337m | 5.2m/s | -57.1°C | 0% | 0hPa | 2.7V | 00:00:00 | 00:00:00 | 00:00:00 | |
| BIOWL7-15 | 2026-09-04 10:35:27 | 52.76462 | 9.08189 | 97° | 117km/h | 14333m | 3.7m/s | -56.8°C | 3.1% | 141.0hPa | 2.7V | 00:00:00 | 00:00:00 | 00:00:00 | |
| DO3DL | 2026-09-04 10:35:26 | 52.76462 | 9.08189 | 97° | 117km/h | 14333m | 3.7m/s | -56.8°C | 3.1% | 141.0hPa | 2.7V | 00:00:00 | 00:00:00 | 00:00:00 | |
| DB0DAN | 2026-09-04 10:35:25 | 52.76469 | 9.08091 | 97° | 115km/h | 14323m | 4.7m/s | -56.9°C | 3.2% | 141.22hPa | 2.7V | 00:00:00 | 00:00:00 | 00:00:00 | |
| DF8AY | 2026-09-04 10:35:23 | 52.76476 | 9.07990 | 96° | 120km/h | 14314m | 5.2m/s | -56.9°C | 3.7% | 141.4hPa | 2.8V | 18:12:15 | 01:03:02 | 00:00:00 | |
| DO2SHX-10 | 2026-09-04 10:35:23 | 52.76476 | 9.07990 | 96° | 120km/h | 14314m | 5.1m/s | -56.9°C | 6.2% | 141.4hPa | 2.7V | 00:00:00 | 01:03:02 | 00:00:00 | |
| DD8BA-10 | 2026-09-04 10:35:22 | 52.76479 | 9.07940 | 95° | 124km/h | 14310m | 2.4m/s | -56.9°C | 6.2% | 141.5hPa | 2.7V | 00:00:00 | 00:00:00 | 00:00:00 | |
| DL1XH-15 | 2026-09-04 10:35:21 | 52.76491 | 9.07636 | 94° | 124km/h | 14282m | 3.2m/s | -57.2°C | 6.4% | 142.1hPa | 2.8V | 08:30:00 | 01:02:55 | 00:00:00 | |
| AA1-15 | 2026-09-04 10:35:21 | 52.76481 | 9.07889 | 94° | 122km/h | 14306m | 4.9m/s | -57.1°C | 3.7% | 141.6hPa | 2.8V | 18:12:15 | 01:03:00 | 00:00:00 | |
| DL1XH-west | 2026-09-04 10:35:19 | 52.76484 | 9.07788 | 93° | 122km/h | 14296m | 4m/s | -57.1°C | 3.8% | 141.8hPa | 2.7V | 18:12:15 | 01:02:58 | 00:00:00 | |
| DL1XH1-15 | 2026-09-04 10:35:18 | 52.76497 | 9.07478 | 91° | 130km/h | 14268m | 4.8m/s | -57.4°C | 6.8% | 142.4hPa | 2.7V | 08:30:00 | 01:02:52 | 00:00:00 | |
| BIOWL1-15 | 2026-09-04 10:35:17 | 52.76488 | 9.07687 | 95° | 122km/h | 14286m | 4m/s | -57.1°C | 3.8% | 142hPa | 2.8V | 18:12:15 | 01:02:56 | 00:00:00 | |
| DF8AY | 2026-09-04 10:35:12 | 52.76498 | 9.07424 | 92° | 131km/h | 14263m | 5.1m/s | -57.4°C | 4.2% | 142.6hPa | 2.7V | 18:12:15 | 01:02:51 | 00:00:00 | |
| DD8BA-10 | 2026-09-04 10:35:12 | 52.76498 | 9.07424 | 93° | 133km/h | 14264m | 5.1m/s | -57.4°C | 6.9% | 142.5hPa | 2.8V | 00:00:00 | 00:00:00 | 00:00:00 | |
| HSKMA3-T | 2026-09-04 10:35:11 | 52.76702 | 8.72477 | 89° | 164km/h | 11808m | 4.9m/s | -55.7°C | 62.3% | 211.4hPa | 2.8V | 18:12:15 | 00:53:55 | 00:00:00 | |
| DL1XH-15 | 2026-09-04 10:35:11 | 52.76500 | 9.07094 | 89° | 133km/h | 14237m | 4.9m/s | -57.5°C | 6.8% | 143.2hPa | 2.7V | 08:30:00 | 01:02:45 | 00:00:00 | |
| AA1-15 | 2026-09-04 10:35:10 | 52.76500 | 9.07315 | 91° | 131km/h | 14255m | 5.6m/s | -57.4°C | 4.3% | 142.8hPa | 2.8V | 18:12:15 | 01:02:49 | 00:00:00 | |
| DB0DAN | 2026-09-04 10:35:10 | 52.76500 | 9.07315 | 91° | 126km/h | 14255m | 5.6m/s | -57.4°C | 3.6% | 142.77hPa | 2.8V | 00:00:00 | 00:00:00 | 00:00:00 | |
| DL1XH-west | 2026-09-04 10:35:10 | 52.76500 | 9.07260 | 90° | 133km/h | 14250m | 4.5m/s | -57.4°C | 4.4% | 142.9hPa | 2.8V | 18:12:15 | 01:02:48 | 00:00:00 | |
| DO9LL-15 | 2026-09-04 10:35:10 | 52.76499 | 9.07314 | 91° | 128km/h | 14255m | 5.6m/s | -57.4°C | 6.9% | 142.7hPa | 2.7V | 00:00:00 | 01:02:49 | 00:00:00 | |
| DL1XH1-15 | 2026-09-04 10:35:09 | 52.76500 | 9.06927 | 89° | 131km/h | 14223m | 4.7m/s | -57.6°C | 6.9% | 143.5hPa | 2.8V | 08:30:00 | 01:02:42 | 00:00:00 | |
| DO2JMG | 2026-09-04 10:35:06 | 52.76500 | 9.07094 | 90° | 133km/h | 14237m | 4.9m/s | -57.5°C | 4.4% | 143.2hPa | 2.7V | 18:12:15 | 01:02:45 | 00:00:00 | |
| DF8AY | 2026-09-04 10:35:02 | 52.76500 | 9.06872 | 89° | 131km/h | 14219m | 4.4m/s | -57.5°C | 4.6% | 143.6hPa | 2.7V | 18:12:15 | 01:02:41 | 00:00:00 | |
| DF5WG-10 | 2026-09-04 10:35:02 | 52.76500 | 9.06872 | 89° | 128km/h | 14219m | 4.3m/s | -57.5°C | 6.9% | 143.5hPa | 2.7V | 00:00:00 | 01:02:41 | 00:00:00 | |
| DL1XH-15 | 2026-09-04 10:35:01 | 52.76495 | 9.06550 | 87° | 128km/h | 14193m | 4m/s | -57.6°C | 7.3% | 144.1hPa | 2.7V | 08:30:00 | 01:02:35 | 00:00:00 | |
| DL4BBY-15 | 2026-09-04 10:35:01 | 52.76499 | 9.06818 | 89° | 126km/h | 14215m | 3.8m/s | -57.7°C | 0% | 0hPa | 2.7V | 00:00:00 | 00:00:00 | 00:00:00 | |
| DM0DOS-11 | 2026-09-04 10:35:00 | 52.76494 | 9.06498 | 88° | 126km/h | 14189m | 4.5m/s | -57.6°C | 7.4% | 144.2hPa | 2.7V | 08:30:00 | 01:02:34 | 00:00:00 | |
| AA1-15 | 2026-09-04 10:34:59 | 52.76498 | 9.06710 | 89° | 128km/h | 14206m | 3.5m/s | -57.6°C | 4.7% | 143.9hPa | 2.8V | 18:12:15 | 01:02:38 | 00:00:00 | |
| DL1XH-west | 2026-09-04 10:34:58 | 52.76498 | 9.06657 | 89° | 128km/h | 14201m | 5.4m/s | -57.6°C | 4.8% | 144hPa | 2.8V | 18:12:15 | 01:02:37 | 00:00:00 | |
| DL3AQ-11 | 2026-09-04 10:34:57 | 52.76497 | 9.06604 | 87° | 128km/h | 14197m | 3.2m/s | -57.6°C | 4.0% | 144.1hPa | 2.7V | 00:00:00 | 00:00:00 | 00:00:00 | |
| BIOWL9-15 | 2026-09-04 10:34:56 | 52.76495 | 9.06550 | 87° | 126km/h | 14193m | 4.0m/s | -57.7°C | -1.0% | -1.0hPa | 2.7V | 00:00:00 | 00:00:00 | 00:00:00 | |
| DB0DAN | 2026-09-04 10:34:55 | 52.76494 | 9.06498 | 88° | 120km/h | 14189m | 4.5m/s | -57.6°C | 4.1% | 144.23hPa | 2.7V | 00:00:00 | 00:00:00 | 00:00:00 | |
| BIOWL1-15 | 2026-09-04 10:34:55 | 52.76494 | 9.06498 | 88° | 126km/h | 14189m | 4.5m/s | -57.6°C | 5% | 144.2hPa | 2.7V | 18:12:15 | 01:02:34 | 00:00:00 | |
| DF8AY | 2026-09-04 10:34:52 | 52.76491 | 9.06339 | 88° | 128km/h | 14176m | 3.8m/s | -57.6°C | 5.2% | 144.6hPa | 2.8V | 18:12:15 | 01:02:31 | 00:00:00 | |
| DF5WG-10 | 2026-09-04 10:34:52 | 52.76491 | 9.06339 | 89° | 126km/h | 14176m | 3.7m/s | -57.5°C | 7.5% | 144.5hPa | 2.7V | 00:00:00 | 01:02:31 | 00:00:00 | |
| GOEST3-10 | 2026-09-04 10:34:51 | 52.76490 | 9.06286 | 89° | 126km/h | 14172m | 4.5m/s | -57.5°C | 7.5% | 144.6hPa | 2.7V | 00:00:00 | 01:02:30 | 00:00:00 | |
| DM0DOS-11 | 2026-09-04 10:34:50 | 52.76479 | 9.05973 | 85° | 126km/h | 14146m | 4.5m/s | -57.6°C | 7.3% | 145.3hPa | 2.7V | 08:30:00 | 01:02:24 | 00:00:00 | |
| AA1-15 | 2026-09-04 10:34:49 | 52.76488 | 9.06181 | 87° | 126km/h | 14163m | 4.5m/s | -57.6°C | 5.3% | 144.9hPa | 2.7V | 18:12:15 | 01:02:28 | 00:00:00 | |
| DJ2DS-15 | 2026-09-04 10:34:49 | 52.76486 | 9.06129 | 86° | 124km/h | 14159m | 4.1m/s | -57.6°C | 4.2% | 145.0hPa | 2.8V | 00:00:00 | 00:00:00 | 00:00:00 | |
| DL1XH1-15 | 2026-09-04 10:34:48 | 52.76474 | 9.05869 | 86° | 124km/h | 14137m | 5m/s | -57.7°C | 7.5% | 145.5hPa | 2.8V | 08:30:00 | 01:02:22 | 00:00:00 | |
| DL1XH-west | 2026-09-04 10:34:48 | 52.76486 | 9.06129 | 86° | 126km/h | 14159m | 4.1m/s | -57.6°C | 5.3% | 145hPa | 2.8V | 18:12:15 | 01:02:27 | 00:00:00 | |
| DO2JMG | 2026-09-04 10:34:44 | 52.76477 | 9.05920 | 86° | 126km/h | 14142m | 4.1m/s | -57.6°C | 5.5% | 145.3hPa | 2.8V | 18:12:15 | 01:02:23 | 00:00:00 | |
| DF8AY | 2026-09-04 10:34:41 | 52.76471 | 9.05766 | 87° | 124km/h | 14128m | 4.9m/s | -57.8°C | 5.7% | 145.7hPa | 2.7V | 18:12:15 | 01:02:20 | 00:00:00 | |
| DO2SHX-10 | 2026-09-04 10:34:41 | 52.76471 | 9.05766 | 87° | 122km/h | 14128m | 4.8m/s | -57.7°C | 7.7% | 145.6hPa | 2.7V | 00:00:00 | 01:02:20 | 08:30:00 | |
| DM0DOS-11 | 2026-09-04 10:34:40 | 52.76464 | 9.05460 | 88° | 124km/h | 14103m | 4.7m/s | -58°C | 8.3% | 146.3hPa | 2.7V | 08:30:00 | 01:02:14 | 00:00:00 | |
| DO9LL-15 | 2026-09-04 10:34:40 | 52.76469 | 9.05715 | 88° | 117km/h | 14124m | 4.2m/s | -57.7°C | 7.8% | 145.7hPa | 2.8V | 00:00:00 | 01:02:19 | 00:00:00 | |
| DL1NUX | 2026-09-04 10:34:39 | 52.76463 | 9.05409 | 88° | 122km/h | 14099m | 4.1m/s | -58°C | 8.3% | 146.4hPa | 2.8V | 08:30:00 | 01:02:13 | 00:00:00 | |
| AA1-15 | 2026-09-04 10:34:38 | 52.76467 | 9.05614 | 88° | 122km/h | 14115m | 3.8m/s | -58°C | 6% | 146hPa | 2.8V | 18:12:15 | 01:02:17 | 00:00:00 | |
| DL1XH-west | 2026-09-04 10:34:37 | 52.76466 | 9.05563 | 88° | 124km/h | 14110m | 4.6m/s | -58°C | 6.1% | 146.1hPa | 2.7V | 18:12:15 | 01:02:16 | 00:00:00 | |
| DO2JMG | 2026-09-04 10:34:36 | 52.76463 | 9.05409 | 89° | 122km/h | 14099m | 4.1m/s | -58°C | 6.3% | 146.4hPa | 2.8V | 18:12:15 | 01:02:13 | 00:00:00 | |
| DO3DL | 2026-09-04 10:34:36 | 52.76465 | 9.05511 | 89° | 124km/h | 14107m | 2.9m/s | -58.0°C | 4.8% | 146.2hPa | 2.7V | 00:00:00 | 00:00:00 | 00:00:00 | |
| DO2SHX-10 | 2026-09-04 10:34:35 | 52.76464 | 9.05460 | 89° | 122km/h | 14103m | 4.7m/s | -58.0°C | 8.3% | 146.2hPa | 2.7V | 00:00:00 | 01:02:14 | 00:00:00 | |
| DL3AQ-11 | 2026-09-04 10:34:34 | 52.76463 | 9.05358 | 88° | 122km/h | 14094m | 4.8m/s | -58.1°C | 4.9% | 146.5hPa | 2.7V | 00:00:00 | 00:00:00 | 00:00:00 | |
| DO2SHX-10 | 2026-09-04 10:34:32 | 52.76462 | 9.05306 | 89° | 122km/h | 14090m | 3.8m/s | -58.0°C | 8.4% | 146.5hPa | 2.7V | 00:00:00 | 01:02:11 | 00:00:00 | |
| DL1ZP-14 | 2026-09-04 10:34:31 | 52.76461 | 9.05255 | 88° | 122km/h | 14086m | 4.7m/s | -58.1°C | 5.0% | 146.6hPa | 2.7V | 00:00:00 | 00:00:00 | 00:00:00 | |
| DM0DOS-11 | 2026-09-04 10:34:30 | 52.76455 | 9.04957 | 86° | 115km/h | 14058m | 4.9m/s | -58.6°C | 8.9% | 147.3hPa | 2.7V | 08:30:00 | 01:02:04 | 00:00:00 | |
| DF8AY | 2026-09-04 10:34:30 | 52.76461 | 9.05204 | 89° | 122km/h | 14081m | 4.4m/s | -58.1°C | 6.6% | 146.8hPa | 2.7V | 18:12:15 | 01:02:09 | 00:00:00 | |
| DL1NUX | 2026-09-04 10:34:29 | 52.76453 | 9.04909 | 87° | 115km/h | 14054m | 3.1m/s | 0°C | 0% | 0hPa | 2.7V | 08:30:00 | 01:02:03 | 00:00:00 | |
| AA1-15 | 2026-09-04 10:34:28 | 52.76459 | 9.05103 | 88° | 120km/h | 14072m | 3.7m/s | -58.4°C | 6.7% | 147hPa | 2.8V | 18:12:15 | 01:02:07 | 00:00:00 | |
| DL1XH-west | 2026-09-04 10:34:26 | 52.76456 | 9.05005 | 87° | 115km/h | 14063m | 3.7m/s | -58.6°C | 6.9% | 147.2hPa | 2.8V | 18:12:15 | 01:02:05 | 00:00:00 | |
| DB0DAN | 2026-09-04 10:34:25 | 52.76455 | 9.04957 | 87° | 110km/h | 14058m | 4.9m/s | -58.6°C | 5.3% | 147.29hPa | 2.7V | 00:00:00 | 00:00:00 | 00:00:00 | |
| BIOWL1-15 | 2026-09-04 10:34:23 | 52.76452 | 9.04862 | 87° | 113km/h | 14050m | 5.3m/s | -58.7°C | 7.1% | 147.4hPa | 2.7V | 18:12:15 | 01:02:02 | 00:00:00 | |
| DO2SHX-10 | 2026-09-04 10:34:23 | 52.76452 | 9.04862 | 88° | 115km/h | 14050m | 5.2m/s | -58.7°C | 9.1% | 147.4hPa | 2.7V | 00:00:00 | 01:02:02 | 00:00:00 | |
| DD8BA-10 | 2026-09-04 10:34:22 | 52.76451 | 9.04814 | 89° | 115km/h | 14046m | 3.8m/s | -58.7°C | 9.2% | 147.5hPa | 2.7V | 00:00:00 | 00:00:00 | 08:30:00 | |
| DL1XH-15 | 2026-09-04 10:34:21 | 52.76450 | 9.04526 | 90° | 115km/h | 14019m | 5m/s | -58.7°C | 9.5% | 148.2hPa | 2.8V | 08:30:00 | 01:01:55 | 00:00:00 | |
| DF8AY | 2026-09-04 10:34:20 | 52.76449 | 9.04718 | 89° | 117km/h | 14037m | 3.4m/s | -58.7°C | 7.3% | 147.8hPa | 2.8V | 18:12:15 | 01:01:59 | 00:00:00 | |
| DO2SHX-10 | 2026-09-04 10:34:20 | 52.76449 | 9.04718 | 90° | 115km/h | 14037m | 3.3m/s | -58.7°C | 9.3% | 147.7hPa | 2.8V | 00:00:00 | 01:01:59 | 00:00:00 | |
| DL1NUX | 2026-09-04 10:34:19 | 52.76451 | 9.04430 | 91° | 115km/h | 14009m | 5.2m/s | 0°C | 0% | 0hPa | 2.8V | 00:00:00 | 01:01:53 | 00:00:00 | |
| DL1XH1-15 | 2026-09-04 10:34:18 | 52.76451 | 9.04382 | 91° | 115km/h | 14004m | 3.7m/s | -58.6°C | 9.7% | 148.5hPa | 2.7V | 08:30:00 | 01:01:52 | 00:00:00 | |
| AA1-15 | 2026-09-04 10:34:17 | 52.76449 | 9.04574 | 90° | 117km/h | 14023m | 4.2m/s | -58.8°C | 7.5% | 148.1hPa | 2.7V | 18:12:15 | 01:01:56 | 00:00:00 | |
| DL1XH-west | 2026-09-04 10:34:16 | 52.76449 | 9.04526 | 91° | 115km/h | 14019m | 5m/s | -58.7°C | 7.6% | 148.2hPa | 2.8V | 18:12:15 | 01:01:55 | 00:00:00 | |
| BIOWL1-15 | 2026-09-04 10:34:14 | 52.76453 | 9.04335 | 93° | 113km/h | 14000m | 5.5m/s | -58.6°C | 7.9% | 148.6hPa | 2.7V | 18:12:15 | 01:01:51 | 00:00:00 | |
| DO2JMG | 2026-09-04 10:34:13 | 52.76452 | 9.04382 | 92° | 115km/h | 14004m | 3.7m/s | -58.6°C | 7.9% | 148.5hPa | 2.7V | 18:12:15 | 01:01:52 | 00:00:00 | |
| DJ2DS-15 | 2026-09-04 10:34:13 | 52.76453 | 9.04335 | 92° | 113km/h | 14000m | 5.5m/s | -58.6°C | 6.0% | 148.6hPa | 2.8V | 00:00:00 | 00:00:00 | 00:00:00 | |
| DD8BA-10 | 2026-09-04 10:34:12 | 52.76453 | 9.04335 | 93° | 111km/h | 14000m | 5.4m/s | -58.6°C | 9.8% | 148.6hPa | 2.8V | 00:00:00 | 00:00:00 | 00:00:00 | |
| SMARD9-10 | 2026-09-04 10:34:11 | 52.76453 | 9.04335 | 94° | 113km/h | 14000m | 5.5m/s | -58.6°C | 6.0% | 148.6hPa | 2.8V | 00:00:00 | 00:00:00 | 00:00:00 | |
| DB0DAN | 2026-09-04 10:34:10 | 52.76456 | 9.04241 | 94° | 108km/h | 13991m | 5.6m/s | -58.7°C | 6.1% | 148.88hPa | 2.8V | 00:00:00 | 00:00:00 | 00:00:00 | |
| DM0DOS-11 | 2026-09-04 10:34:10 | 52.76467 | 9.04012 | 94° | 111km/h | 13966m | 2.9m/s | -58.7°C | 10.1% | 149.5hPa | 2.7V | 08:30:00 | 01:01:44 | 00:00:00 | |
| DF8AY | 2026-09-04 10:34:10 | 52.76456 | 9.04241 | 94° | 111km/h | 13991m | 5.6m/s | -58.7°C | 8.1% | 148.9hPa | 2.8V | 18:12:15 | 01:01:49 | 00:00:00 | |
| DO3DL | 2026-09-04 10:34:10 | 52.76456 | 9.04241 | 95° | 111km/h | 13991m | 5.6m/s | -58.7°C | 6.1% | 148.9hPa | 2.8V | 00:00:00 | 00:00:00 | 00:00:00 | |
| DL1XH1-15 | 2026-09-04 10:34:08 | 52.76472 | 9.03919 | 95° | 113km/h | 13957m | 3.8m/s | -58.6°C | 10.1% | 149.6hPa | 2.8V | 08:30:00 | 01:01:42 | 00:00:00 | |
| AA1-15 | 2026-09-04 10:34:07 | 52.76462 | 9.04103 | 95° | 110km/h | 13976m | 4.2m/s | -58.7°C | 8.4% | 149.2hPa | 2.8V | 18:12:15 | 01:01:46 | 00:00:00 | |
| DL1XH-west | 2026-09-04 10:34:05 | 52.76467 | 9.04011 | 95° | 111km/h | 13966m | 2.9m/s | -58.7°C | 8.5% | 149.5hPa | 2.7V | 18:12:15 | 01:01:44 | 00:00:00 | |
| DO2JMG | 2026-09-04 10:34:03 | 52.76472 | 9.03919 | 96° | 113km/h | 13957m | 3.8m/s | -58.6°C | 8.7% | 149.6hPa | 2.8V | 18:12:15 | 01:01:42 | 00:00:00 | |
| BIOWL1-15 | 2026-09-04 10:34:02 | 52.76477 | 9.03824 | 96° | 115km/h | 13947m | 4.6m/s | -58.5°C | 8.9% | 149.9hPa | 2.8V | 18:12:15 | 01:01:40 | 00:00:00 | |
| DO2SHX-10 | 2026-09-04 10:34:02 | 52.76475 | 9.03872 | 95° | 115km/h | 13953m | 6.1m/s | -58.5°C | 10.2% | 149.7hPa | 2.8V | 00:00:00 | 01:01:41 | 00:00:00 | |
| DM0DOS-11 | 2026-09-04 10:34:01 | 52.76500 | 9.03535 | 98° | 117km/h | 13918m | 4.8m/s | -58.6°C | 11.1% | 150.6hPa | 2.8V | 08:30:00 | 01:01:34 | 00:00:00 | |
| DF8AY | 2026-09-04 10:33:59 | 52.76484 | 9.03728 | 97° | 117km/h | 13937m | 4.6m/s | -58.6°C | 9.2% | 150.1hPa | 2.7V | 18:12:15 | 01:01:38 | 00:00:00 | |
| DL1NUX | 2026-09-04 10:33:59 | 52.76504 | 9.03487 | 97° | 117km/h | 13914m | 4.3m/s | 0°C | 0% | 0hPa | 2.7V | 00:00:00 | 01:01:33 | 00:00:00 | |
| DO2SHX-10 | 2026-09-04 10:33:59 | 52.76484 | 9.03728 | 98° | 117km/h | 13938m | 4.5m/s | -58.6°C | 10.5% | 150.1hPa | 2.8V | 00:00:00 | 01:01:38 | 00:00:00 | |
| HSKMA3-T | 2026-09-04 10:33:58 | 52.76695 | 8.70894 | 90° | 164km/h | 11696m | 3.6m/s | -54.7°C | 60.3% | 215.1hPa | 2.8V | 18:12:15 | 00:53:32 | 00:00:00 | |
| AA1-15 | 2026-09-04 10:33:56 | 52.76495 | 9.03583 | 98° | 117km/h | 13923m | 4.8m/s | -58.7°C | 9.7% | 150.4hPa | 2.8V | 18:12:15 | 01:01:35 | 00:00:00 | |
| DB0DAN | 2026-09-04 10:33:55 | 52.76500 | 9.03535 | 98° | 111km/h | 13918m | 4.8m/s | -58.6°C | 7.3% | 150.59hPa | 2.8V | 00:00:00 | 00:00:00 | 00:00:00 | |
| DL1XH-west | 2026-09-04 10:33:55 | 52.76500 | 9.03535 | 98° | 117km/h | 13918m | 4.8m/s | -58.6°C | 9.9% | 150.6hPa | 2.8V | 18:12:15 | 01:01:34 | 00:00:00 | |
| DO2JMG | 2026-09-04 10:33:53 | 52.76508 | 9.03439 | 99° | 117km/h | 13910m | 4.3m/s | -58.6°C | 10.3% | 150.8hPa | 2.7V | 18:12:15 | 01:01:32 | 00:00:00 | |
| BIOWL1-15 | 2026-09-04 10:33:52 | 52.76522 | 9.03295 | 99° | 117km/h | 13896m | 4.1m/s | -58.5°C | 11% | 151.1hPa | 2.8V | 18:12:15 | 01:01:29 | 00:00:00 | |
| DD8BA-10 | 2026-09-04 10:33:52 | 52.76512 | 9.03391 | 100° | 122km/h | 13905m | 4.4m/s | -58.5°C | 11.7% | 150.9hPa | 2.7V | 00:00:00 | 00:00:00 | 00:00:00 | |
| DL1XH-15 | 2026-09-04 10:33:51 | 52.76541 | 9.03095 | 97° | 124km/h | 13877m | 3.2m/s | -58.7°C | 12.4% | 151.6hPa | 2.7V | 08:30:00 | 01:01:25 | 00:00:00 | |
| GOEST3-10 | 2026-09-04 10:33:51 | 52.76518 | 9.03343 | 100° | 119km/h | 13901m | 4.3m/s | -58.5°C | 11.8% | 151.0hPa | 2.8V | 00:00:00 | 01:01:30 | 00:00:00 | |
| DO2SHX-10 | 2026-09-04 10:33:50 | 52.76522 | 9.03295 | 99° | 119km/h | 13896m | 4.1m/s | -58.4°C | 11.9% | 151.1hPa | 2.8V | 00:00:00 | 01:01:29 | 00:00:00 | |
| DL1NUX | 2026-09-04 10:33:49 | 52.76549 | 9.02992 | 98° | 126km/h | 13867m | 3.6m/s | 0°C | 0% | 0hPa | 2.8V | 00:00:00 | 01:01:23 | 00:00:00 | |
| DL1XH1-15 | 2026-09-04 10:33:48 | 52.76553 | 9.02940 | 97° | 126km/h | 13863m | 4.5m/s | -59.1°C | 13% | 151.9hPa | 2.8V | 08:30:00 | 01:01:22 | 00:00:00 | |
| DF8AY | 2026-09-04 10:33:48 | 52.76532 | 9.03197 | 99° | 122km/h | 13887m | 4.3m/s | -58.6°C | 11.4% | 151.3hPa | 2.7V | 18:12:15 | 01:01:27 | 00:00:00 | |
| AA1-15 | 2026-09-04 10:33:46 | 52.76541 | 9.03095 | 97° | 124km/h | 13877m | 3.2m/s | -58.7°C | 11.8% | 151.6hPa | 2.7V | 18:12:15 | 01:01:25 | 00:00:00 | |
| DL1XH-west | 2026-09-04 10:33:44 | 52.76549 | 9.02992 | 98° | 126km/h | 13867m | 3.6m/s | -58.9°C | 12.4% | 151.8hPa | 2.8V | 18:12:15 | 01:01:23 | 00:00:00 | |
| DO2JMG | 2026-09-04 10:33:43 | 52.76553 | 9.02940 | 98° | 126km/h | 13863m | 4.5m/s | -59.1°C | 12.6% | 151.9hPa | 2.8V | 18:12:15 | 01:01:22 | 00:00:00 | |
| BIOWL1-15 | 2026-09-04 10:33:42 | 52.76566 | 9.02785 | 99° | 128km/h | 13848m | 6.4m/s | -59°C | 13.4% | 152.3hPa | 2.8V | 18:12:15 | 01:01:19 | 00:00:00 | |
| DD8BA-10 | 2026-09-04 10:33:42 | 52.76557 | 9.02889 | 98° | 130km/h | 13858m | 5.1m/s | -59.0°C | 13.2% | 152.0hPa | 2.8V | 00:00:00 | 00:00:00 | 00:00:00 | |
| DL1XH-15 | 2026-09-04 10:33:41 | 52.76591 | 9.02574 | 102° | 128km/h | 13827m | 6.2m/s | -59°C | 14.5% | 152.8hPa | 2.8V | 08:30:00 | 01:01:15 | 00:00:00 | |
| DB0DAN | 2026-09-04 10:33:40 | 52.76566 | 9.02785 | 99° | 122km/h | 13848m | 6.4m/s | -59°C | 9.5% | 152.29hPa | 2.8V | 00:00:00 | 00:00:00 | 00:00:00 | |
| DM0DOS-11 | 2026-09-04 10:33:40 | 52.76599 | 9.02522 | 102° | 131km/h | 13820m | 6.6m/s | -59°C | 15% | 153hPa | 2.8V | 08:30:00 | 01:01:14 | 00:00:00 | |
| DO2SHX-10 | 2026-09-04 10:33:40 | 52.76566 | 9.02785 | 100° | 130km/h | 13848m | 6.3m/s | -59.0°C | 13.6% | 152.2hPa | 2.7V | 00:00:00 | 01:01:19 | 00:00:00 | |
| SMARD9-15 | 2026-09-04 10:33:39 | 52.76579 | 9.02679 | 101° | 128km/h | 13837m | 5.9m/s | -58.9°C | 9.9% | 152.5hPa | 2.7V | 00:00:00 | 00:00:00 | 00:00:00 | |
| DL1XH1-15 | 2026-09-04 10:33:38 | 52.76614 | 9.02413 | 102° | 133km/h | 13809m | 5.8m/s | -59.1°C | 15.4% | 153.2hPa | 2.7V | 08:30:00 | 01:01:12 | 00:00:00 | |
| DF8AY | 2026-09-04 10:33:37 | 52.76585 | 9.02626 | 102° | 128km/h | 13832m | 4.5m/s | -59°C | 14.3% | 152.7hPa | 2.7V | 18:12:15 | 01:01:16 | 00:00:00 | |
| AA1-15 | 2026-09-04 10:33:35 | 52.76599 | 9.02521 | 103° | 131km/h | 13820m | 6.6m/s | -59°C | 15.2% | 153hPa | 2.8V | 18:12:15 | 01:01:14 | 00:00:00 | |
| DL1XH-west | 2026-09-04 10:33:34 | 52.76606 | 9.02468 | 103° | 133km/h | 13814m | 5.1m/s | -59°C | 15.5% | 153.1hPa | 2.8V | 18:12:15 | 01:01:13 | 00:00:00 | |
| DO2JMG | 2026-09-04 10:33:33 | 52.76614 | 9.02413 | 103° | 133km/h | 13809m | 5.8m/s | -59.1°C | 15.9% | 153.2hPa | 2.7V | 18:12:15 | 01:01:12 | 00:00:00 | |
| DD8BA-10 | 2026-09-04 10:33:32 | 52.76621 | 9.02359 | 103° | 137km/h | 13804m | 3.4m/s | -59.0°C | 15.6% | 153.3hPa | 2.7V | 00:00:00 | 00:00:00 | 00:00:00 | |
| DL1XH-15 | 2026-09-04 10:33:31 | 52.76668 | 9.02029 | 102° | 139km/h | 13772m | 3.5m/s | -59.5°C | 17.5% | 154.1hPa | 2.7V | 08:30:00 | 01:01:05 | 00:00:00 | |
| BIOWL1-15 | 2026-09-04 10:33:31 | 52.76645 | 9.02194 | 103° | 133km/h | 13788m | 5.9m/s | -59.3°C | 17.5% | 153.7hPa | 2.8V | 18:12:15 | 01:01:08 | 00:00:00 | |
| DL4BBY-15 | 2026-09-04 10:33:31 | 52.76629 | 9.02304 | 104° | 148km/h | 13800m | 6.8m/s | -59.4°C | 0% | 0hPa | 2.7V | 00:00:00 | 00:00:00 | 00:00:00 | |
| DM0DOS-11 | 2026-09-04 10:33:30 | 52.76675 | 9.01973 | 102° | 139km/h | 13768m | 5.8m/s | -59.6°C | 17.8% | 154.2hPa | 2.7V | 08:30:00 | 01:01:04 | 00:00:00 | |
| DL1ZP-14 | 2026-09-04 10:33:29 | 52.76652 | 9.02140 | 102° | 133km/h | 13782m | 4.9m/s | -59.3°C | 12.3% | 153.9hPa | 2.8V | 00:00:00 | 00:00:00 | 00:00:00 | |
| DL1XH1-15 | 2026-09-04 10:33:28 | 52.76690 | 9.01859 | 102° | 141km/h | 13758m | 5.3m/s | -59.6°C | 18.2% | 154.5hPa | 2.8V | 08:30:00 | 01:01:02 | 00:00:00 | |
| DF8AY | 2026-09-04 10:33:27 | 52.76668 | 9.02029 | 103° | 139km/h | 13772m | 3.5m/s | -59.5°C | 18.8% | 154.1hPa | 2.7V | 18:12:15 | 01:01:05 | 00:00:00 | |
| DL1XH-west | 2026-09-04 10:33:24 | 52.76683 | 9.01916 | 102° | 139km/h | 13763m | 4.2m/s | -59.6°C | 19.6% | 154.3hPa | 2.8V | 18:12:15 | 01:01:03 | 00:00:00 | |
| DO2JMG | 2026-09-04 10:33:23 | 52.76690 | 9.01859 | 103° | 141km/h | 13758m | 5.3m/s | -59.6°C | 20.1% | 154.5hPa | 2.8V | 18:12:15 | 01:01:02 | 00:00:00 | |
| DD8BA-10 | 2026-09-04 10:33:22 | 52.76699 | 9.01802 | 104° | 150km/h | 13753m | 5.2m/s | -59.6°C | 18.4% | 154.6hPa | 2.7V | 00:00:00 | 00:00:00 | 00:00:00 | |
| HSKMA3-T | 2026-09-04 10:33:21 | 52.76697 | 8.70076 | 91° | 164km/h | 11650m | 5.5m/s | -54.2°C | 57.7% | 217hPa | 2.9V | 18:12:15 | 00:53:20 | 00:00:00 | |
| DL1XH-15 | 2026-09-04 10:33:21 | 52.76751 | 9.01447 | 102° | 151km/h | 13723m | 3.7m/s | -60.1°C | 21.1% | 155.3hPa | 2.7V | 08:30:00 | 01:00:55 | 00:00:00 | |
| DM0DOS-11 | 2026-09-04 10:33:20 | 52.76760 | 9.01385 | 102° | 153km/h | 13718m | 5.4m/s | -60.2°C | 21.5% | 155.4hPa | 2.7V | 08:30:00 | 01:00:54 | 00:00:00 | |
| BIOWL1-15 | 2026-09-04 10:33:18 | 52.76734 | 9.01567 | 104° | 148km/h | 13733m | 4m/s | -59.9°C | 22.4% | 155.1hPa | 2.8V | 18:12:15 | 01:00:57 | 00:00:00 | |
| DF8AY | 2026-09-04 10:33:15 | 52.76760 | 9.01385 | 103° | 153km/h | 13718m | 5.4m/s | -60.2°C | 24.1% | 155.4hPa | 2.7V | 18:12:15 | 01:00:54 | 00:00:00 | |
| AA1-15 | 2026-09-04 10:33:14 | 52.76769 | 9.01322 | 103° | 155km/h | 13714m | 3.9m/s | -60.2°C | 24.6% | 155.5hPa | 2.7V | 18:12:15 | 01:00:53 | 00:00:00 | |
| DL1XH-west | 2026-09-04 10:33:13 | 52.76778 | 9.01259 | 103° | 155km/h | 13710m | 4.6m/s | -60.4°C | 25.3% | 155.7hPa | 2.8V | 18:12:15 | 01:00:52 | 00:00:00 | |
| DO2JMG | 2026-09-04 10:33:12 | 52.76786 | 9.01195 | 103° | 155km/h | 13705m | 4.5m/s | -60.6°C | 26% | 155.8hPa | 2.8V | 18:12:15 | 01:00:51 | 00:00:00 | |
| DD8BA-10 | 2026-09-04 10:33:12 | 52.76786 | 9.01195 | 103° | 157km/h | 13705m | 4.4m/s | -60.5°C | 23.6% | 155.7hPa | 2.8V | 00:00:00 | 00:00:00 | 00:00:00 | |
| DL1XH-15 | 2026-09-04 10:33:11 | 52.76838 | 9.00815 | 102° | 157km/h | 13681m | 4.4m/s | -61.5°C | 26.6% | 156.4hPa | 2.8V | 08:30:00 | 01:00:45 | 00:00:00 | |
| DB0DAN | 2026-09-04 10:33:10 | 52.76803 | 9.01069 | 103° | 150km/h | 13697m | 4.6m/s | -60.8°C | 19.5% | 155.96hPa | 2.7V | 00:00:00 | 00:00:00 | 00:00:00 | |
| DM0DOS-11 | 2026-09-04 10:33:10 | 52.76846 | 9.00751 | 101° | 157km/h | 13677m | 3.5m/s | -61.9°C | 27.8% | 156.4hPa | 2.8V | 08:30:00 | 01:00:44 | 00:00:00 | |
| DO9LL-15 | 2026-09-04 10:33:10 | 52.76803 | 9.01069 | 104° | 162km/h | 13698m | 4.5m/s | -60.7°C | 24.8% | 155.9hPa | 2.7V | 00:00:00 | 01:00:49 | 00:00:00 | |
| DO3DL | 2026-09-04 10:33:09 | 52.76803 | 9.01069 | 104° | 157km/h | 13698m | 4.6m/s | -60.8°C | 19.5% | 156.0hPa | 2.7V | 00:00:00 | 00:00:00 | 00:00:00 | |
| DL1XH1-15 | 2026-09-04 10:33:08 | 52.76861 | 9.00623 | 100° | 159km/h | 13668m | 4.7m/s | -62.3°C | 29% | 156.7hPa | 2.7V | 08:30:00 | 01:00:42 | 00:00:00 | |
| BIOWL1-15 | 2026-09-04 10:33:08 | 52.76821 | 9.00942 | 102° | 155km/h | 13689m | 4.6m/s | -61°C | 28.2% | 156.1hPa | 2.7V | 18:12:15 | 01:00:47 | 00:00:00 | |
| AA1-15 | 2026-09-04 10:33:04 | 52.76854 | 9.00687 | 101° | 155km/h | 13673m | 4.9m/s | -62.1°C | 30.4% | 156.6hPa | 2.7V | 18:12:15 | 01:00:43 | 00:00:00 | |
| DO2JMG | 2026-09-04 10:33:02 | 52.76868 | 9.00558 | 101° | 161km/h | 13664m | 4.4m/s | -62.4°C | 31.3% | 156.8hPa | 2.8V | 18:12:15 | 01:00:41 | 00:00:00 | |
| DD8BA-10 | 2026-09-04 10:33:02 | 52.76868 | 9.00558 | 101° | 164km/h | 13664m | 4.4m/s | -62.3°C | 29.9% | 156.7hPa | 2.7V | 00:00:00 | 00:00:00 | 00:00:00 | |
| DL4BBY-15 | 2026-09-04 10:33:01 | 52.76876 | 9.00491 | 100° | 164km/h | 13661m | 2.4m/s | -62.7°C | 0% | 0hPa | 2.7V | 00:00:00 | 00:00:00 | 00:00:00 | |
| DM0DOS-11 | 2026-09-04 10:33:00 | 52.76908 | 9.00086 | 95° | 162km/h | 13629m | 5m/s | -62.8°C | 33.4% | 157.7hPa | 2.7V | 08:30:00 | 01:00:34 | 00:00:00 | |
| DO2SHX-10 | 2026-09-04 10:33:00 | 52.76882 | 9.00424 | 100° | 164km/h | 13656m | 6.1m/s | -62.5°C | 30.7% | 157.0hPa | 2.7V | 00:00:00 | 01:00:39 | 00:00:00 | |
| DL1XH1-15 | 2026-09-04 10:32:58 | 52.76916 | 8.99950 | 94° | 164km/h | 13619m | 3.9m/s | -62.9°C | 34.3% | 158hPa | 2.7V | 08:30:00 | 01:00:32 | 00:00:00 | |
| BIOWL1-15 | 2026-09-04 10:32:57 | 52.76900 | 9.00221 | 96° | 164km/h | 13640m | 2.5m/s | -62.7°C | 33.2% | 157.4hPa | 2.8V | 18:12:15 | 01:00:36 | 00:00:00 | |
| AA1-15 | 2026-09-04 10:32:54 | 52.76916 | 8.99950 | 95° | 164km/h | 13619m | 3.9m/s | -62.9°C | 34.5% | 158hPa | 2.7V | 18:12:15 | 01:00:32 | 00:00:00 | |
| DL1XH-west | 2026-09-04 10:32:53 | 52.76922 | 8.99813 | 95° | 164km/h | 13610m | 3.6m/s | -63.1°C | 35.2% | 158.2hPa | 2.8V | 18:12:15 | 01:00:30 | 00:00:00 | |
| BIOWL9-15 | 2026-09-04 10:32:52 | 52.76919 | 8.99881 | 94° | 164km/h | 13615m | 5.4m/s | -63.0°C | 27.9% | 158.1hPa | 2.8V | 00:00:00 | 00:00:00 | 00:00:00 | |
| DM0DOS-11 | 2026-09-04 10:32:51 | 52.76937 | 8.99399 | 91° | 166km/h | 13583m | 4m/s | -63.1°C | 37.7% | 158.9hPa | 2.8V | 08:30:00 | 01:00:24 | 00:00:00 | |
| BUE01 | 2026-09-04 10:32:50 | 52.76926 | 8.99744 | 94° | 166km/h | 13606m | 5.0m/s | -63.1°C | 29.0% | 158.3hPa | 2.8V | 00:00:00 | 00:00:00 | 00:00:00 | |
| SONDE2-11 | 2026-09-04 10:32:49 | 52.76929 | 8.99675 | 93° | 166km/h | 13601m | 4.4m/s | -63.2°C | 29.4% | 158.4hPa | 2.8V | 00:00:00 | 00:00:00 | 00:00:00 | |
| DL1XH1-15 | 2026-09-04 10:32:48 | 52.76939 | 8.99261 | 90° | 164km/h | 13575m | 4.6m/s | -63.2°C | 38% | 159.1hPa | 2.8V | 08:30:00 | 01:00:22 | 00:00:00 | |
| BIOWL1-15 | 2026-09-04 10:32:46 | 52.76936 | 8.99468 | 92° | 168km/h | 13588m | 4.3m/s | -63.2°C | 36.9% | 158.8hPa | 2.8V | 18:12:15 | 01:00:25 | 00:00:00 | |
| DD1CC8 | 2026-09-04 10:32:46 | 52.76937 | 8.99399 | 91° | 164km/h | 13584m | 4.1m/s | -63.1°C | 30.6% | 158.9hPa | 2.8V | 00:00:00 | 00:00:00 | 00:00:00 | |
| DL3AQ-11 | 2026-09-04 10:32:44 | 52.76938 | 8.99330 | 91° | 164km/h | 13579m | 4.2m/s | -63.1°C | 30.6% | 159.0hPa | 2.8V | 00:00:00 | 00:00:00 | 00:00:00 | |
| AA1-15 | 2026-09-04 10:32:43 | 52.76939 | 8.99261 | 91° | 164km/h | 13575m | 4.6m/s | -63.2°C | 37.6% | 159.1hPa | 2.8V | 18:12:15 | 01:00:22 | 00:00:00 | |
| DL1XH-west | 2026-09-04 10:32:41 | 52.76939 | 8.99124 | 90° | 164km/h | 13567m | 4.5m/s | -63.1°C | 38.2% | 159.3hPa | 2.7V | 18:12:15 | 01:00:20 | 00:00:00 | |
| DO2JMG | 2026-09-04 10:32:40 | 52.76938 | 8.99056 | 89° | 162km/h | 13562m | 4.2m/s | -63.1°C | 38.4% | 159.5hPa | 2.7V | 18:12:15 | 01:00:19 | 00:00:00 | |
| DO9LL-15 | 2026-09-04 10:32:40 | 52.76938 | 8.99056 | 90° | 159km/h | 13563m | 4.1m/s | -63.0°C | 38.1% | 159.4hPa | 2.8V | 00:00:00 | 01:00:19 | 00:00:00 | |
| HTAHTA | 2026-09-04 10:32:39 | 52.76938 | 8.98921 | 89° | 162km/h | 13554m | 4.1m/s | -63.3°C | 31.9% | 159.7hPa | 2.8V | 00:00:00 | 00:00:00 | 00:00:00 | |
| DL1XH1-15 | 2026-09-04 10:32:38 | 52.76939 | 8.98584 | 91° | 162km/h | 13533m | 2.8m/s | -63.3°C | 41% | 160.2hPa | 2.8V | 08:30:00 | 01:00:12 | 00:00:00 | |
| BIOWL1-15 | 2026-09-04 10:32:35 | 52.76938 | 8.98719 | 91° | 161km/h | 13541m | 4.8m/s | -63.4°C | 39.8% | 160hPa | 2.7V | 18:12:15 | 01:00:14 | 00:00:00 | |
| DF8AY | 2026-09-04 10:32:33 | 52.76939 | 8.98584 | 92° | 162km/h | 13533m | 2.8m/s | -63.3°C | 40.5% | 160.2hPa | 2.8V | 18:12:15 | 01:00:12 | 00:00:00 | |
| AA1-15 | 2026-09-04 10:32:32 | 52.76940 | 8.98516 | 92° | 162km/h | 13529m | 4.5m/s | -63.4°C | 40.9% | 160.3hPa | 2.8V | 18:12:15 | 01:00:11 | 00:00:00 | |
| DL1XH-west | 2026-09-04 10:32:31 | 52.76942 | 8.98449 | 92° | 161km/h | 13525m | 3.5m/s | -63.3°C | 41.4% | 160.4hPa | 2.8V | 18:12:15 | 01:00:10 | 00:00:00 | |
| DL4BBY-15 | 2026-09-04 10:32:31 | 52.76942 | 8.98449 | 92° | 153km/h | 13525m | 3.4m/s | -63.6°C | 0% | 0hPa | 2.7V | 00:00:00 | 00:00:00 | 00:00:00 | |
| DM0DOS-11 | 2026-09-04 10:32:30 | 52.76941 | 8.98055 | 89° | 155km/h | 13498m | 4m/s | -63.4°C | 43.2% | 161.2hPa | 2.7V | 08:30:00 | 01:00:04 | 00:00:00 | |
| DO2JMG | 2026-09-04 10:32:30 | 52.76942 | 8.98382 | 91° | 161km/h | 13521m | 5.1m/s | -63.3°C | 41.8% | 160.6hPa | 2.7V | 18:12:15 | 01:00:09 | 00:00:00 | |
| DO2SHX-10 | 2026-09-04 10:32:29 | 52.76943 | 8.98315 | 91° | 157km/h | 13516m | 3.9m/s | -63.2°C | 43.4% | 160.6hPa | 2.7V | 00:00:00 | 01:00:08 | 00:00:00 | |
| DL1XH1-15 | 2026-09-04 10:32:28 | 52.76940 | 8.97926 | 89° | 155km/h | 13490m | 4.9m/s | -63.4°C | 44.6% | 161.3hPa | 2.7V | 08:30:00 | 01:00:02 | 00:00:00 | |
| BIOWL1-15 | 2026-09-04 10:32:27 | 52.76941 | 8.98055 | 89° | 155km/h | 13498m | 4m/s | -63.4°C | 43.1% | 161.2hPa | 2.7V | 18:12:15 | 01:00:04 | 00:00:00 | |
| DD1CC3-15 | 2026-09-04 10:32:26 | 52.76942 | 8.98185 | 90° | 155km/h | 13507m | 4.2m/s | -63.3°C | 35.4% | 160.9hPa | 2.7V | 00:00:00 | 00:00:00 | 00:00:00 | |
| DB0DAN | 2026-09-04 10:32:25 | 52.76941 | 8.98055 | 89° | 148km/h | 13498m | 4m/s | -63.4°C | 35.8% | 161.16hPa | 2.7V | 00:00:00 | 00:00:00 | 00:00:00 | |
| AA1-15 | 2026-09-04 10:32:24 | 52.76940 | 8.97861 | 89° | 157km/h | 13485m | 3.6m/s | -63.4°C | 44.4% | 161.5hPa | 2.8V | 18:12:15 | 01:00:01 | 00:00:00 | |
| DB0NH | 2026-09-04 10:32:24 | 52.76940 | 8.97990 | 90° | 150km/h | 13494m | 4.0m/s | -63.4°C | 44.2% | 161.2hPa | 2.7V | 00:00:00 | 01:00:03 | 00:00:00 | |
| DF2AP-13 | 2026-09-04 10:32:23 | 52.76940 | 8.97861 | 90° | 151km/h | 13486m | 3.5m/s | -63.3°C | 45.5% | 161.5hPa | 2.7V | 00:00:00 | 01:00:01 | 00:00:00 | |
| DD8BA-10 | 2026-09-04 10:32:22 | 52.76940 | 8.97861 | 90° | 155km/h | 13486m | 3.5m/s | -63.3°C | 45.5% | 161.5hPa | 2.7V | 00:00:00 | 00:00:00 | 00:00:00 | |
| DL1XH-15 | 2026-09-04 10:32:21 | 52.76941 | 8.97472 | 90° | 155km/h | 13460m | 3.6m/s | -63.4°C | 48.3% | 162.2hPa | 2.8V | 08:30:00 | 00:59:55 | 00:00:00 | |
| DL1XH-west | 2026-09-04 10:32:20 | 52.76940 | 8.97731 | 91° | 155km/h | 13477m | 4.2m/s | -63.5°C | 45% | 161.7hPa | 2.8V | 18:12:15 | 00:59:59 | 00:00:00 | |
| DO2JMG | 2026-09-04 10:32:19 | 52.76940 | 8.97667 | 91° | 155km/h | 13473m | 4.4m/s | -63.5°C | 45.4% | 161.8hPa | 2.7V | 18:12:15 | 00:59:58 | 00:00:00 | |
| BIOWL1-15 | 2026-09-04 10:32:18 | 52.76941 | 8.97344 | 89° | 153km/h | 13451m | 3.3m/s | -63.3°C | 47.2% | 162.4hPa | 2.7V | 18:12:15 | 00:59:53 | 00:00:00 | |
| AA1-15 | 2026-09-04 10:32:12 | 52.76940 | 8.97218 | 89° | 150km/h | 13443m | 4.4m/s | -63.3°C | 47.8% | 162.6hPa | 2.8V | 18:12:15 | 00:59:51 | 00:00:00 | |
| DF8AY | 2026-09-04 10:32:11 | 52.76939 | 8.97156 | 88° | 148km/h | 13439m | 3.9m/s | -63.3°C | 47.9% | 162.7hPa | 2.8V | 18:12:15 | 00:59:50 | 00:00:00 | |
| DB0DAN | 2026-09-04 10:32:10 | 52.76938 | 8.97094 | 88° | 142km/h | 13434m | 4.5m/s | -63.3°C | 39.8% | 162.88hPa | 2.7V | 00:00:00 | 00:00:00 | 00:00:00 | |
| DL1XH-west | 2026-09-04 10:32:10 | 52.76938 | 8.97094 | 88° | 150km/h | 13434m | 4.5m/s | -63.3°C | 48.2% | 162.9hPa | 2.7V | 18:12:15 | 00:59:49 | 00:00:00 | |
| DO2JMG | 2026-09-04 10:32:08 | 52.76935 | 8.96971 | 89° | 148km/h | 13426m | 4.2m/s | -63.5°C | 49.2% | 163.1hPa | 2.7V | 18:12:15 | 00:59:47 | 00:00:00 | |
| BIOWL1-15 | 2026-09-04 10:32:06 | 52.76935 | 8.96721 | 91° | 150km/h | 13409m | 4.1m/s | -63.4°C | 51.1% | 163.6hPa | 2.7V | 18:12:15 | 00:59:43 | 00:00:00 | |
| AA1-15 | 2026-09-04 10:32:01 | 52.76937 | 8.96534 | 91° | 148km/h | 13396m | 5m/s | -63.3°C | 52.6% | 163.8hPa | 2.8V | 18:12:15 | 00:59:40 | 00:00:00 | |
| DL4BBY-15 | 2026-09-04 10:32:01 | 52.76937 | 8.96534 | 91° | 148km/h | 13396m | 5.0m/s | -63.6°C | 0% | 0hPa | 2.8V | 00:00:00 | 00:00:00 | 00:00:00 | |
| DM0DOS-11 | 2026-09-04 10:32:00 | 52.76933 | 8.96164 | 87° | 148km/h | 13370m | 5.2m/s | -63.4°C | 54.3% | 164.5hPa | 2.8V | 08:30:00 | 00:59:34 | 00:00:00 | |
| DL1XH-west | 2026-09-04 10:31:59 | 52.76937 | 8.96411 | 90° | 148km/h | 13388m | 4.8m/s | -63.3°C | 53.5% | 164.1hPa | 2.7V | 18:12:15 | 00:59:38 | 00:00:00 | |
| DO2SHX-10 | 2026-09-04 10:31:59 | 52.76937 | 8.96411 | 90° | 148km/h | 13388m | 4.8m/s | -63.3°C | 53.4% | 164.0hPa | 2.7V | 00:00:00 | 00:59:38 | 00:00:00 | |
| DL1XH1-15 | 2026-09-04 10:31:58 | 52.76931 | 8.96040 | 88° | 148km/h | 13361m | 5.3m/s | -63.5°C | 55.4% | 164.7hPa | 2.7V | 08:30:00 | 00:59:32 | 00:00:00 | |
| DO2JMG | 2026-09-04 10:31:57 | 52.76935 | 8.96287 | 88° | 148km/h | 13379m | 4.7m/s | -63.4°C | 54.4% | 164.3hPa | 2.7V | 18:12:15 | 00:59:36 | 00:00:00 | |
| HSKMA3-T | 2026-09-04 10:31:56 | 52.76700 | 8.69188 | 90° | 162km/h | 11591m | 5.7m/s | -53.6°C | 55.1% | 218.9hPa | 2.9V | 18:12:15 | 00:53:07 | 00:00:00 | |
| DB0DAN | 2026-09-04 10:31:55 | 52.76933 | 8.96164 | 88° | 141km/h | 13370m | 5.2m/s | -63.4°C | 46.4% | 164.49hPa | 2.8V | 00:00:00 | 00:00:00 | 00:00:00 | |
| BIOWL1-15 | 2026-09-04 10:31:54 | 52.76932 | 8.96102 | 88° | 150km/h | 13366m | 3.4m/s | -63.5°C | 55.8% | 164.7hPa | 2.8V | 18:12:15 | 00:59:33 | 00:00:00 | |
| DL3AQ-11 | 2026-09-04 10:31:54 | 52.76930 | 8.96040 | 88° | 146km/h | 13361m | 5.3m/s | -63.5°C | 47.4% | 164.7hPa | 2.7V | 00:00:00 | 00:00:00 | 00:00:00 | |
| DO2SHX-10 | 2026-09-04 10:31:53 | 52.76930 | 8.96040 | 89° | 146km/h | 13362m | 5.2m/s | -63.5°C | 55.4% | 164.7hPa | 2.7V | 00:00:00 | 00:59:32 | 00:00:00 | |
| DD8BA-10 | 2026-09-04 10:31:52 | 52.76930 | 8.95979 | 89° | 146km/h | 13357m | 3.5m/s | -63.5°C | 55.8% | 164.8hPa | 2.7V | 00:00:00 | 00:00:00 | 00:00:00 | |
| DL1XH-15 | 2026-09-04 10:31:51 | 52.76928 | 8.95613 | 89° | 148km/h | 13331m | 4.5m/s | -63.8°C | 60.1% | 165.6hPa | 2.7V | 08:30:00 | 00:59:25 | 00:00:00 | |
| DF8AY | 2026-09-04 10:31:51 | 52.76929 | 8.95918 | 89° | 148km/h | 13352m | 5.2m/s | -63.5°C | 57.2% | 165hPa | 2.8V | 18:12:15 | 00:59:30 | 00:00:00 | |
| AA1-15 | 2026-09-04 10:31:50 | 52.76928 | 8.95857 | 89° | 148km/h | 13348m | 3.9m/s | -63.5°C | 57.6% | 165.1hPa | 2.8V | 18:12:15 | 00:59:29 | 00:00:00 | |
| DL1XH-west | 2026-09-04 10:31:50 | 52.76928 | 8.95796 | 90° | 146km/h | 13343m | 5.4m/s | -63.6°C | 58.2% | 165.2hPa | 2.8V | 18:12:15 | 00:59:28 | 00:00:00 | |
| DL1XH1-15 | 2026-09-04 10:31:50 | 52.76928 | 8.95428 | 90° | 148km/h | 13318m | 3.6m/s | -64°C | 62.3% | 165.9hPa | 2.8V | 08:30:00 | 00:59:22 | 00:00:00 | |
| DO2JMG | 2026-09-04 10:31:47 | 52.76928 | 8.95675 | 90° | 146km/h | 13335m | 3.9m/s | -63.7°C | 59.3% | 165.4hPa | 2.7V | 18:12:15 | 00:59:26 | 00:00:00 | |
| EDDB2-12 | 2026-09-04 10:31:45 | 52.76928 | 8.95552 | 90° | 148km/h | 13327m | 4.2m/s | -63.9°C | 52.5% | 165.7hPa | 2.8V | 00:00:00 | 00:00:00 | 00:00:00 | |
| BIOWL1-15 | 2026-09-04 10:31:43 | 52.76928 | 8.95429 | 90° | 148km/h | 13318m | 3.6m/s | -64°C | 61.4% | 165.9hPa | 2.8V | 18:12:15 | 00:59:22 | 00:00:00 | |
| SONCRA | 2026-09-04 10:31:42 | 52.76927 | 8.95305 | 89° | 146km/h | 13309m | 4.1m/s | -64.1°C | 54.2% | 166.2hPa | 2.7V | 00:00:00 | 00:00:00 | 00:00:00 | |
| DL1XH-15 | 2026-09-04 10:31:41 | 52.76928 | 8.94996 | 90° | 151km/h | 13288m | 6.2m/s | -64.5°C | 63.9% | 166.7hPa | 2.7V | 08:30:00 | 00:59:15 | 00:00:00 | |
| AA1-15 | 2026-09-04 10:31:40 | 52.76927 | 8.95244 | 90° | 146km/h | 13305m | 4.7m/s | -64.1°C | 62.7% | 166.2hPa | 2.8V | 18:12:15 | 00:59:19 | 00:00:00 | |
| DL1XH-west | 2026-09-04 10:31:38 | 52.76927 | 8.95121 | 90° | 150km/h | 13296m | 5.4m/s | -64.3°C | 63.5% | 166.5hPa | 2.8V | 18:12:15 | 00:59:17 | 00:00:00 | |
| DO2JMG | 2026-09-04 10:31:36 | 52.76928 | 8.94996 | 91° | 151km/h | 13288m | 6.2m/s | -64.5°C | 64.1% | 166.7hPa | 2.7V | 18:12:15 | 00:59:15 | 00:00:00 | |
| DL8OAI-8 | 2026-09-04 10:31:34 | 52.76929 | 8.94869 | 92° | 153km/h | 13278m | 6.3m/s | -64.9°C | 57.0% | 167.0hPa | 2.7V | 00:00:00 | 00:00:00 | 00:00:00 | |
| BIOWL1-15 | 2026-09-04 10:31:34 | 52.76931 | 8.94742 | 92° | 151km/h | 13269m | 5.7m/s | -65°C | 64.6% | 167.3hPa | 2.8V | 18:12:15 | 00:59:11 | 00:00:00 | |
| DO3DL | 2026-09-04 10:31:33 | 52.76929 | 8.94869 | 92° | 153km/h | 13278m | 6.3m/s | -64.9°C | 57.0% | 167.0hPa | 2.7V | 00:00:00 | 00:00:00 | 00:00:00 | |
| DD8BA-10 | 2026-09-04 10:31:32 | 52.76931 | 8.94742 | 92° | 153km/h | 13269m | 5.6m/s | -65.0°C | 65.8% | 167.2hPa | 2.7V | 00:00:00 | 00:00:00 | 00:00:00 | |
| DL1XH-15 | 2026-09-04 10:31:31 | 52.76945 | 8.94366 | 95° | 153km/h | 13243m | 4.2m/s | -65°C | 66.3% | 168hPa | 2.7V | 08:30:00 | 00:59:05 | 00:00:00 | |
| DL4BBY-15 | 2026-09-04 10:31:31 | 52.76932 | 8.94680 | 93° | 161km/h | 13264m | 3.7m/s | -65.2°C | 0% | 0hPa | 2.7V | 00:00:00 | 00:00:00 | 00:00:00 | |
| DM0DOS-11 | 2026-09-04 10:31:30 | 52.76949 | 8.94301 | 94° | 157km/h | 13238m | 5.1m/s | -65°C | 67% | 168.1hPa | 2.7V | 08:30:00 | 00:59:04 | 00:00:00 | |
| AA1-15 | 2026-09-04 10:31:29 | 52.76937 | 8.94555 | 93° | 151km/h | 13256m | 4.6m/s | -65°C | 64.2% | 167.6hPa | 2.8V | 18:12:15 | 00:59:08 | 00:00:00 | |
| DL1XH-west | 2026-09-04 10:31:28 | 52.76939 | 8.94492 | 94° | 151km/h | 13252m | 3.6m/s | -65°C | 64% | 167.7hPa | 2.8V | 18:12:15 | 00:59:07 | 00:00:00 | |
| DO2JMG | 2026-09-04 10:31:25 | 52.76949 | 8.94301 | 95° | 157km/h | 13238m | 5.1m/s | -65°C | 64.1% | 168.1hPa | 2.7V | 18:12:15 | 00:59:04 | 00:00:00 | |
| BIOWL1-15 | 2026-09-04 10:31:23 | 52.76965 | 8.94037 | 96° | 162km/h | 13220m | 4.3m/s | -65.2°C | 64.3% | 168.6hPa | 2.8V | 18:12:15 | 00:59:00 | 00:00:00 | |
| DD8BA-10 | 2026-09-04 10:31:22 | 52.76960 | 8.94104 | 96° | 162km/h | 13225m | 4.0m/s | -65.1°C | 69.5% | 168.4hPa | 2.7V | 00:00:00 | 00:00:00 | 08:30:00 | |
| GOEST3-10 | 2026-09-04 10:31:21 | 52.76964 | 8.94037 | 96° | 161km/h | 13221m | 4.3m/s | -65.1°C | 70.1% | 168.5hPa | 2.8V | 00:00:00 | 00:59:00 | 00:00:00 | |
| DM0DOS-11 | 2026-09-04 10:31:20 | 52.76985 | 8.93635 | 94° | 162km/h | 13195m | 4.7m/s | -65.2°C | 69.8% | 169.3hPa | 2.8V | 08:30:00 | 00:58:54 | 00:00:00 | |
| DF8AY | 2026-09-04 10:31:19 | 52.76972 | 8.93903 | 95° | 159km/h | 13212m | 4.4m/s | -65.2°C | 64.5% | 168.9hPa | 2.7V | 18:12:15 | 00:58:58 | 00:00:00 | |
| AA1-15 | 2026-09-04 10:31:18 | 52.76976 | 8.93837 | 95° | 161km/h | 13208m | 3.7m/s | -65.2°C | 64.6% | 169hPa | 2.7V | 18:12:15 | 00:58:57 | 00:00:00 | |
| DL1XH-west | 2026-09-04 10:31:17 | 52.76979 | 8.93770 | 94° | 162km/h | 13203m | 4.6m/s | -65.2°C | 64.6% | 169.1hPa | 2.7V | 18:12:15 | 00:58:56 | 00:00:00 | |
| BUE01 | 2026-09-04 10:31:17 | 52.76979 | 8.93770 | 94° | 161km/h | 13203m | 4.6m/s | -65.2°C | 61.0% | 169.1hPa | 2.8V | 00:00:00 | 00:00:00 | 00:00:00 | |
| HSKMA3-T | 2026-09-04 10:31:16 | 52.76700 | 8.68917 | 90° | 162km/h | 11573m | 5.4m/s | -53.5°C | 54.5% | 219.5hPa | 2.8V | 18:12:15 | 00:53:03 | 00:00:00 | |
| DO2JMG | 2026-09-04 10:31:15 | 52.76988 | 8.93567 | 94° | 164km/h | 13191m | 3.7m/s | -65.2°C | 64.3% | 169.5hPa | 2.8V | 18:12:15 | 00:58:53 | 00:00:00 | |
| BIOWL1-15 | 2026-09-04 10:31:13 | 52.76998 | 8.93360 | 95° | 164km/h | 13178m | 4m/s | -65.1°C | 63.9% | 169.9hPa | 2.8V | 18:12:15 | 00:58:50 | 00:00:00 | |
| DO2SHX-10 | 2026-09-04 10:31:13 | 52.76991 | 8.93498 | 95° | 166km/h | 13187m | 4.8m/s | -65.1°C | 68.6% | 169.5hPa | 2.7V | 00:00:00 | 00:58:52 | 00:00:00 | |
| DD8BA-10 | 2026-09-04 10:31:12 | 52.76995 | 8.93429 | 95° | 166km/h | 13182m | 4.7m/s | -65.1°C | 67.9% | 169.6hPa | 2.7V | 00:00:00 | 00:00:00 | 00:00:00 | |
| DL1XH-15 | 2026-09-04 10:31:11 | 52.77012 | 8.93017 | 92° | 166km/h | 13156m | 5.5m/s | -65.1°C | 70.7% | 170.5hPa | 2.7V | 08:30:00 | 00:58:45 | 00:00:00 | |
| DB0DAN | 2026-09-04 10:31:10 | 52.77002 | 8.93292 | 94° | 157km/h | 13173m | 4.5m/s | -65.1°C | 59.1% | 169.91hPa | 2.8V | 00:00:00 | 00:00:00 | 00:00:00 | |
| DF8AY | 2026-09-04 10:31:08 | 52.77007 | 8.93154 | 94° | 166km/h | 13165m | 5m/s | -65.1°C | 63.6% | 170.2hPa | 2.7V | 18:12:15 | 00:58:47 | 00:00:00 | |
| AA1-15 | 2026-09-04 10:31:07 | 52.77010 | 8.93085 | 93° | 164km/h | 13160m | 3.7m/s | -65.1°C | 63.7% | 170.3hPa | 2.7V | 18:12:15 | 00:58:46 | 00:00:00 | |
| DL1XH-west | 2026-09-04 10:31:06 | 52.77012 | 8.93017 | 93° | 166km/h | 13156m | 5.5m/s | -65.1°C | 63.6% | 170.5hPa | 2.7V | 18:12:15 | 00:58:45 | 00:00:00 | |
| DO2JMG | 2026-09-04 10:31:03 | 52.77017 | 8.92810 | 93° | 164km/h | 13142m | 4m/s | -65°C | 63.6% | 170.8hPa | 2.8V | 18:12:15 | 00:58:42 | 00:00:00 | |
| DD8BA-10 | 2026-09-04 10:31:02 | 52.77019 | 8.92741 | 92° | 164km/h | 13137m | 5.5m/s | -64.9°C | 70.6% | 170.9hPa | 2.8V | 00:00:00 | 00:00:00 | 00:00:00 | |
| DL1XH-15 | 2026-09-04 10:31:01 | 52.77024 | 8.92332 | 91° | 164km/h | 13109m | 5.3m/s | -64.8°C | 66.8% | 171.7hPa | 2.8V | 08:30:00 | 00:58:35 | 00:00:00 | |
| DL4BBY-15 | 2026-09-04 10:31:01 | 52.77020 | 8.92672 | 92° | 168km/h | 13133m | 3.7m/s | -65.2°C | 0% | 0hPa | 2.7V | 00:00:00 | 00:00:00 | 00:00:00 | |
| DM0DOS-11 | 2026-09-04 10:31:00 | 52.77026 | 8.92264 | 91° | 164km/h | 13105m | 4.1m/s | -64.8°C | 67% | 171.8hPa | 2.7V | 08:30:00 | 00:58:34 | 00:00:00 | |
| BIOWL1-15 | 2026-09-04 10:31:00 | 52.77021 | 8.92603 | 92° | 162km/h | 13128m | 5.4m/s | -64.9°C | 63.2% | 171.2hPa | 2.7V | 18:12:15 | 00:58:39 | 00:00:00 | |
| DF5WG-10 | 2026-09-04 10:31:00 | 52.77021 | 8.92603 | 92° | 164km/h | 13128m | 5.3m/s | -64.9°C | 69.5% | 171.1hPa | 2.8V | 00:00:00 | 00:58:39 | 00:00:00 | |
| DO3DL | 2026-09-04 10:30:59 | 52.77021 | 8.92603 | 93° | 162km/h | 13128m | 5.4m/s | -64.9°C | 60.0% | 171.2hPa | 2.8V | 00:00:00 | 00:00:00 | 00:00:00 | |
| DL1XH1-15 | 2026-09-04 10:30:58 | 52.77027 | 8.92126 | 90° | 166km/h | 13095m | 3.4m/s | -64.7°C | 68.1% | 172.1hPa | 2.8V | 08:30:00 | 00:58:32 | 00:00:00 | |
| DF8AY | 2026-09-04 10:30:57 | 52.77024 | 8.92400 | 91° | 162km/h | 13114m | 4.4m/s | -64.8°C | 62.5% | 171.6hPa | 2.8V | 18:12:15 | 00:58:36 | 00:00:00 | |
| AA1-15 | 2026-09-04 10:30:56 | 52.77025 | 8.92332 | 91° | 164km/h | 13110m | 5.3m/s | -64.8°C | 62.4% | 171.7hPa | 2.8V | 18:12:15 | 00:58:35 | 00:00:00 | |
| DB0DAN | 2026-09-04 10:30:55 | 52.77026 | 8.92264 | 91° | 157km/h | 13105m | 4.1m/s | -64.8°C | 57.8% | 171.78hPa | 2.7V | 00:00:00 | 00:00:00 | 00:00:00 | |
| DL1XH-west | 2026-09-04 10:30:55 | 52.77026 | 8.92264 | 91° | 164km/h | 13105m | 4.1m/s | -64.8°C | 62.2% | 171.8hPa | 2.7V | 18:12:15 | 00:58:34 | 00:00:00 | |
| DO2JMG | 2026-09-04 10:30:52 | 52.77027 | 8.92056 | 91° | 168km/h | 13091m | 5.1m/s | -64.7°C | 62.1% | 172.2hPa | 2.8V | 18:12:15 | 00:58:31 | 00:00:00 | |
| DL1XH-15 | 2026-09-04 10:30:52 | 52.77029 | 8.91634 | 89° | 170km/h | 13064m | 5m/s | -64.4°C | 67.7% | 173hPa | 2.7V | 08:30:00 | 00:58:25 | 00:00:00 | |
| BIOWL1-15 | 2026-09-04 10:30:51 | 52.77028 | 8.91846 | 90° | 168km/h | 13078m | 4.5m/s | -64.5°C | 61.8% | 172.6hPa | 2.7V | 18:12:15 | 00:58:28 | 00:00:00 | |
| DO2SHX-10 | 2026-09-04 10:30:51 | 52.77028 | 8.91986 | 91° | 168km/h | 13087m | 3.3m/s | -64.5°C | 68.4% | 172.3hPa | 2.7V | 00:00:00 | 00:58:30 | 08:30:00 | |
| DM0DOS-11 | 2026-09-04 10:30:50 | 52.77029 | 8.91564 | 89° | 170km/h | 13060m | 3.6m/s | -64.3°C | 67.5% | 173.1hPa | 2.7V | 08:30:00 | 00:58:24 | 00:00:00 | |
| DF8AY | 2026-09-04 10:30:47 | 52.77029 | 8.91705 | 90° | 170km/h | 13068m | 3.9m/s | -64.4°C | 61.7% | 172.8hPa | 2.8V | 18:12:15 | 00:58:26 | 00:00:00 | |
| GOEST3-10 | 2026-09-04 10:30:46 | 52.77029 | 8.91634 | 90° | 170km/h | 13064m | 4.9m/s | -64.3°C | 67.7% | 172.9hPa | 2.7V | 00:00:00 | 00:00:00 | 08:30:00 | |
| HSKMA3-T | 2026-09-04 10:30:45 | 52.76707 | 8.68093 | 91° | 162km/h | 11518m | 5.6m/s | -53°C | 52.4% | 221.4hPa | 2.9V | 18:12:15 | 00:52:51 | 00:00:00 | |
| AA1-15 | 2026-09-04 10:30:45 | 52.77029 | 8.91564 | 90° | 170km/h | 13060m | 3.6m/s | -64.3°C | 61.6% | 173.1hPa | 2.7V | 18:12:15 | 00:58:24 | 00:00:00 | |
| DL1XH-west | 2026-09-04 10:30:44 | 52.77029 | 8.91493 | 90° | 168km/h | 13055m | 4.5m/s | -64.2°C | 61.6% | 173.2hPa | 2.8V | 18:12:15 | 00:58:23 | 00:00:00 | |
| EDDB2-12 | 2026-09-04 10:30:43 | 52.77029 | 8.91423 | 89° | 168km/h | 13051m | 4.6m/s | -64.2°C | 57.8% | 173.4hPa | 2.7V | 00:00:00 | 00:00:00 | 00:00:00 | |
| DD8BA-10 | 2026-09-04 10:30:42 | 52.77029 | 8.91353 | 90° | 168km/h | 13047m | 4.4m/s | -64.1°C | 66.3% | 173.5hPa | 2.7V | 00:00:00 | 00:00:00 | 00:00:00 | |
| DO2JMG | 2026-09-04 10:30:42 | 52.77028 | 8.91282 | 90° | 168km/h | 13042m | 4.5m/s | -64.2°C | 61.4% | 173.6hPa | 2.7V | 18:12:15 | 00:58:20 | 00:00:00 | |
| DM0DOS-11 | 2026-09-04 10:30:40 | 52.77028 | 8.90863 | 90° | 170km/h | 13016m | 4m/s | -63.9°C | 65% | 174.4hPa | 2.7V | 08:30:00 | 00:58:14 | 00:00:00 | |
| DB0DAN | 2026-09-04 10:30:40 | 52.77028 | 8.91212 | 90° | 161km/h | 13038m | 4.7m/s | -64.2°C | 57.9% | 173.71hPa | 2.7V | 00:00:00 | 00:00:00 | 00:00:00 | |
| BIOWL1-15 | 2026-09-04 10:30:38 | 52.77028 | 8.91073 | 90° | 168km/h | 13029m | 4.8m/s | -64°C | 61.2% | 174hPa | 2.8V | 18:12:15 | 00:58:17 | 00:00:00 | |
| DF8AY | 2026-09-04 10:30:36 | 52.77028 | 8.90933 | 90° | 168km/h | 13021m | 5.1m/s | -64.1°C | 61.2% | 174.2hPa | 2.7V | 18:12:15 | 00:58:15 | 00:00:00 | |
| AA1-15 | 2026-09-04 10:30:34 | 52.77028 | 8.90792 | 90° | 170km/h | 13012m | 4.8m/s | -63.9°C | 60.9% | 174.5hPa | 2.7V | 18:12:15 | 00:58:13 | 00:00:00 | |
| DL1XH-west | 2026-09-04 10:30:33 | 52.77029 | 8.90721 | 90° | 170km/h | 13007m | 4.5m/s | -63.9°C | 60.8% | 174.6hPa | 2.8V | 18:12:15 | 00:58:12 | 00:00:00 | |
| DD8BA-10 | 2026-09-04 10:30:32 | 52.77029 | 8.90650 | 91° | 170km/h | 13003m | 4.2m/s | -63.9°C | 64.8% | 174.7hPa | 2.8V | 00:00:00 | 00:00:00 | 00:00:00 | |
| DL1XH-15 | 2026-09-04 10:30:31 | 52.77028 | 8.90222 | 90° | 170km/h | 12975m | 4.3m/s | -63.7°C | 66.5% | 175.5hPa | 2.8V | 08:30:00 | 00:58:05 | 00:00:00 | |
| DO2JMG | 2026-09-04 10:30:31 | 52.77029 | 8.90579 | 90° | 172km/h | 12998m | 5.1m/s | -63.9°C | 61% | 174.9hPa | 2.8V | 18:12:15 | 00:58:10 | 00:00:00 | |
| BIOWL1-15 | 2026-09-04 10:30:29 | 52.77028 | 8.90293 | 90° | 172km/h | 12980m | 4.9m/s | -63.7°C | 61.4% | 175.4hPa | 2.7V | 18:12:15 | 00:58:06 | 00:00:00 | |
| DL1XH1-15 | 2026-09-04 10:30:28 | 52.77030 | 8.90011 | 90° | 168km/h | 12961m | 5.6m/s | -63.6°C | 66.8% | 175.9hPa | 2.8V | 08:30:00 | 00:58:02 | 00:00:00 | |
| DF8AY | 2026-09-04 10:30:26 | 52.77028 | 8.90222 | 90° | 170km/h | 12975m | 4.3m/s | -63.7°C | 61.5% | 175.5hPa | 2.8V | 18:12:15 | 00:58:05 | 00:00:00 | |
| AA1-15 | 2026-09-04 10:30:24 | 52.77029 | 8.90081 | 91° | 168km/h | 12966m | 3.9m/s | -63.7°C | 61.8% | 175.9hPa | 2.8V | 18:12:15 | 00:58:03 | 00:00:00 | |
| DL1XH-west | 2026-09-04 10:30:22 | 52.77031 | 8.89941 | 91° | 166km/h | 12956m | 3.2m/s | -63.6°C | 61.9% | 176.1hPa | 2.7V | 18:12:15 | 00:58:01 | 00:00:00 | |
| DD8BA-10 | 2026-09-04 10:30:22 | 52.77031 | 8.89941 | 91° | 170km/h | 12957m | 3.1m/s | -63.6°C | 66.7% | 176.0hPa | 2.7V | 00:00:00 | 00:00:00 | 00:00:00 | |
| DL1XH-15 | 2026-09-04 10:30:21 | 52.77035 | 8.89517 | 90° | 172km/h | 12929m | 4.1m/s | -63.5°C | 66.6% | 176.8hPa | 2.8V | 08:30:00 | 00:57:55 | 00:00:00 | |
| DM0DOS-11 | 2026-09-04 10:30:20 | 52.77035 | 8.89445 | 90° | 172km/h | 12925m | 5.3m/s | -63.5°C | 66.2% | 176.9hPa | 2.7V | 08:30:00 | 00:57:54 | 00:00:00 | |
| DO2JMG | 2026-09-04 10:30:20 | 52.77033 | 8.89801 | 91° | 170km/h | 12948m | 4m/s | -63.6°C | 62.1% | 176.3hPa | 2.7V | 18:12:15 | 00:57:59 | 00:00:00 | |
| DF5WG-10 | 2026-09-04 10:30:20 | 52.77032 | 8.89801 | 92° | 172km/h | 12948m | 4.0m/s | -63.6°C | 66.8% | 176.3hPa | 2.7V | 00:00:00 | 00:57:59 | 00:00:00 | |
| D01LWL | 2026-09-04 10:30:19 | 52.77033 | 8.89730 | 90° | 168km/h | 12943m | 5.3m/s | -63.6°C | 58.0% | 176.4hPa | 2.7V | 00:00:00 | 00:00:00 | 00:00:00 | |
| DL1XH1-15 | 2026-09-04 10:30:18 | 52.77036 | 8.89302 | 91° | 173km/h | 12916m | 5m/s | -63.4°C | 66.2% | 177.2hPa | 2.7V | 08:30:00 | 00:57:52 | 00:00:00 | |
| BIOWL1-15 | 2026-09-04 10:30:17 | 52.77034 | 8.89588 | 91° | 172km/h | 12934m | 5.2m/s | -63.6°C | 62.3% | 176.7hPa | 2.8V | 18:12:15 | 00:57:56 | 00:00:00 | |
| DF8AY | 2026-09-04 10:30:16 | 52.77035 | 8.89445 | 90° | 172km/h | 12925m | 5.3m/s | -63.5°C | 62.3% | 176.9hPa | 2.7V | 18:12:15 | 00:57:54 | 00:00:00 | |
| AA1-15 | 2026-09-04 10:30:15 | 52.77036 | 8.89374 | 91° | 172km/h | 12920m | 3.8m/s | -63.4°C | 62.4% | 177.1hPa | 2.7V | 18:12:15 | 00:57:53 | 00:00:00 | |
| DL1XH-west | 2026-09-04 10:30:11 | 52.77037 | 8.89158 | 91° | 173km/h | 12907m | 4.8m/s | -63.4°C | 62.3% | 177.5hPa | 2.8V | 18:12:15 | 00:57:50 | 00:00:00 | |
| DO3DL | 2026-09-04 10:30:11 | 52.77037 | 8.89158 | 92° | 173km/h | 12907m | 4.8m/s | -63.4°C | 57.3% | 177.5hPa | 2.8V | 00:00:00 | 00:00:00 | 00:00:00 | |
| DM0DOS-11 | 2026-09-04 10:30:10 | 52.77038 | 8.88724 | 89° | 170km/h | 12881m | 4.9m/s | -63.2°C | 67% | 178.2hPa | 2.8V | 08:30:00 | 00:57:44 | 00:00:00 | |
| DB0DAN | 2026-09-04 10:30:10 | 52.77038 | 8.89085 | 91° | 166km/h | 12902m | 4.2m/s | -63.4°C | 57.4% | 177.57hPa | 2.8V | 00:00:00 | 00:00:00 | 00:00:00 | |
| BIOWL1-15 | 2026-09-04 10:30:10 | 52.77038 | 8.88795 | 89° | 172km/h | 12885m | 3.7m/s | -63.2°C | 62.5% | 178.1hPa | 2.7V | 18:12:15 | 00:57:45 | 00:00:00 | |
| DO2JMG | 2026-09-04 10:30:09 | 52.77038 | 8.89012 | 91° | 175km/h | 12898m | 4.3m/s | -63.4°C | 62.5% | 177.8hPa | 2.8V | 18:12:15 | 00:57:48 | 00:00:00 | |
| DF8AY | 2026-09-04 10:30:05 | 52.77038 | 8.88724 | 90° | 170km/h | 12881m | 4.9m/s | -63.2°C | 62.2% | 178.2hPa | 2.8V | 18:12:15 | 00:57:44 | 00:00:00 | |
| AA1-15 | 2026-09-04 10:30:03 | 52.77036 | 8.88583 | 89° | 168km/h | 12871m | 4.6m/s | -63.2°C | 61.5% | 178.5hPa | 2.8V | 18:12:15 | 00:57:42 | 00:00:00 | |
| DD8BA-10 | 2026-09-04 10:30:02 | 52.77035 | 8.88513 | 90° | 170km/h | 12866m | 5.5m/s | -63.1°C | 65.7% | 178.6hPa | 2.8V | 00:00:00 | 00:00:00 | 00:00:00 | |
| DL1XH-15 | 2026-09-04 10:30:01 | 52.77029 | 8.88092 | 87° | 170km/h | 12837m | 5.4m/s | -63°C | 63.9% | 179.4hPa | 2.8V | 08:30:00 | 00:57:35 | 00:00:00 | |
| DL1XH-west | 2026-09-04 10:30:01 | 52.77035 | 8.88444 | 89° | 166km/h | 12861m | 4.4m/s | -63°C | 60.5% | 178.8hPa | 2.7V | 18:12:15 | 00:57:40 | 00:00:00 | |
| BIOWL1-15 | 2026-09-04 10:29:58 | 52.77029 | 8.88092 | 88° | 170km/h | 12837m | 5.4m/s | -63°C | 58.3% | 179.5hPa | 2.8V | 18:12:15 | 00:57:35 | 00:00:00 | |
| DO2JMG | 2026-09-04 10:29:58 | 52.77032 | 8.88234 | 89° | 170km/h | 12847m | 5.1m/s | -63°C | 59.1% | 179.2hPa | 2.8V | 18:12:15 | 00:57:37 | 00:00:00 | |
| DF8AY | 2026-09-04 10:29:55 | 52.77028 | 8.88021 | 88° | 172km/h | 12833m | 3.3m/s | -62.9°C | 57.7% | 179.6hPa | 2.8V | 18:12:15 | 00:57:34 | 00:00:00 | |
| DB0DAN | 2026-09-04 10:29:55 | 52.77028 | 8.88021 | 88° | 162km/h | 12833m | 3.3m/s | -62.9°C | 55.1% | 179.58hPa | 2.8V | 00:00:00 | 00:00:00 | 00:00:00 | |
| AA1-15 | 2026-09-04 10:29:52 | 52.77023 | 8.87806 | 88° | 172km/h | 12820m | 4.6m/s | -62.8°C | 56.9% | 180hPa | 2.7V | 18:12:15 | 00:57:31 | 00:00:00 | |
| DD8BA-10 | 2026-09-04 10:29:52 | 52.77023 | 8.87806 | 89° | 172km/h | 12820m | 4.6m/s | -62.7°C | 61.3% | 180.0hPa | 2.7V | 00:00:00 | 00:00:00 | 08:30:00 | |
| DL1XH-15 | 2026-09-04 10:29:51 | 52.77018 | 8.87381 | 88° | 172km/h | 12791m | 4.9m/s | -62.6°C | 56.7% | 180.9hPa | 2.7V | 08:30:00 | 00:57:25 | 00:00:00 | |
| GOEST3-10 | 2026-09-04 10:29:51 | 52.77021 | 8.87735 | 89° | 170km/h | 12815m | 5.3m/s | -62.7°C | 60.3% | 180.0hPa | 2.7V | 00:00:00 | 00:57:30 | 00:00:00 | |
| DM0DOS-11 | 2026-09-04 10:29:50 | 52.77016 | 8.87309 | 87° | 172km/h | 12787m | 4.5m/s | -62.7°C | 57.2% | 181hPa | 2.7V | 08:30:00 | 00:57:24 | 00:00:00 | |
| DL1XH-west | 2026-09-04 10:29:50 | 52.77021 | 8.87664 | 89° | 170km/h | 12810m | 3.8m/s | -62.7°C | 56.4% | 180.3hPa | 2.8V | 18:12:15 | 00:57:29 | 00:00:00 | |
| BIOWL1-15 | 2026-09-04 10:29:48 | 52.77018 | 8.87381 | 89° | 172km/h | 12792m | 4.9m/s | -62.6°C | 55.3% | 180.9hPa | 2.7V | 18:12:15 | 00:57:25 | 00:00:00 | |
| DL1XH1-15 | 2026-09-04 10:29:48 | 52.77013 | 8.87165 | 87° | 175km/h | 12778m | 5.2m/s | -62.5°C | 57.8% | 181.2hPa | 2.8V | 08:30:00 | 00:57:22 | 00:00:00 | |
| DO2JMG | 2026-09-04 10:29:47 | 52.77019 | 8.87452 | 89° | 170km/h | 12796m | 4.7m/s | -62.6°C | 55.6% | 180.7hPa | 2.7V | 18:12:15 | 00:57:26 | 00:00:00 | |
| DF8AY | 2026-09-04 10:29:45 | 52.77017 | 8.87309 | 88° | 172km/h | 12787m | 4.5m/s | -62.7°C | 55.2% | 181hPa | 2.7V | 18:12:15 | 00:57:24 | 00:00:00 | |
| BUE01 | 2026-09-04 10:29:44 | 52.77013 | 8.87165 | 87° | 175km/h | 12778m | 5.2m/s | -62.5°C | 49.7% | 181.2hPa | 2.8V | 00:00:00 | 00:00:00 | 00:00:00 | |
| SONDE2-11 | 2026-09-04 10:29:43 | 52.77013 | 8.87165 | 87° | 175km/h | 12778m | 5.2m/s | -62.5°C | 49.7% | 181.2hPa | 2.8V | 00:00:00 | 00:00:00 | 00:00:00 | |
| DD8BA-10 | 2026-09-04 10:29:42 | 52.77011 | 8.87091 | 89° | 177km/h | 12774m | 3.7m/s | -62.3°C | 58.0% | 181.3hPa | 2.8V | 00:00:00 | 00:00:00 | 00:00:00 | |
| EDDB2-12 | 2026-09-04 10:29:41 | 52.77010 | 8.87017 | 87° | 177km/h | 12769m | 4.9m/s | -62.3°C | 49.8% | 181.5hPa | 2.8V | 00:00:00 | 00:00:00 | 00:00:00 | |
| AA1-15 | 2026-09-04 10:29:41 | 52.77010 | 8.87017 | 88° | 179km/h | 12769m | 4.9m/s | -62.3°C | 54.6% | 181.5hPa | 2.8V | 18:12:15 | 00:57:20 | 00:00:00 | |
| DM0DOS-11 | 2026-09-04 10:29:40 | 52.77003 | 8.86573 | 89° | 177km/h | 12742m | 5.2m/s | -62.2°C | 58.2% | 182.3hPa | 2.8V | 08:30:00 | 00:57:14 | 00:00:00 | |
| DL1XH-west | 2026-09-04 10:29:39 | 52.77006 | 8.86869 | 88° | 177km/h | 12760m | 4.8m/s | -62.4°C | 54.2% | 181.7hPa | 2.7V | 18:12:15 | 00:57:18 | 00:00:00 | |
| DO9LL-15 | 2026-09-04 10:29:39 | 52.77006 | 8.86869 | 89° | 177km/h | 12761m | 4.7m/s | -62.3°C | 57.8% | 181.7hPa | 2.7V | 00:00:00 | 00:57:18 | 00:00:00 | |
| DL1XH1-15 | 2026-09-04 10:29:38 | 52.77001 | 8.86425 | 88° | 179km/h | 12733m | 5.3m/s | -62.1°C | 57.8% | 182.5hPa | 2.7V | 08:30:00 | 00:57:12 | 00:00:00 | |
| DF8AY-15 | 2026-09-04 10:29:38 | 52.77005 | 8.86795 | 89° | 177km/h | 12756m | 4.3m/s | -62.3°C | 57.9% | 181.8hPa | 2.8V | 00:00:00 | 00:57:17 | 00:00:00 | |
| HSKMA3-T | 2026-09-04 10:29:37 | 52.76728 | 8.66186 | 91° | 161km/h | 11401m | 5m/s | -51.8°C | 48.4% | 225.5hPa | 2.8V | 18:12:15 | 00:52:23 | 00:00:00 | |
| DO2JMG | 2026-09-04 10:29:37 | 52.77004 | 8.86721 | 89° | 177km/h | 12751m | 5.1m/s | -62.3°C | 53.9% | 182hPa | 2.8V | 18:12:15 | 00:57:16 | 00:00:00 | |
| BIOWL1-15 | 2026-09-04 10:29:36 | 52.77003 | 8.86647 | 89° | 177km/h | 12747m | 3.7m/s | -62.2°C | 53.9% | 182.2hPa | 2.8V | 18:12:15 | 00:57:15 | 00:00:00 | |
| DF8AY | 2026-09-04 10:29:34 | 52.77002 | 8.86499 | 89° | 177km/h | 12738m | 3.3m/s | -62.2°C | 53.8% | 182.4hPa | 2.7V | 18:12:15 | 00:57:13 | 00:00:00 | |
| AA1-15 | 2026-09-04 10:29:31 | 52.76999 | 8.86277 | 89° | 177km/h | 12725m | 5m/s | -62.1°C | 53.5% | 182.8hPa | 2.8V | 18:12:15 | 00:57:10 | 00:00:00 | |
| DL4BBY-15 | 2026-09-04 10:29:31 | 52.76999 | 8.86277 | 89° | 177km/h | 12726m | 4.9m/s | -62.4°C | 0% | 0hPa | 2.8V | 00:00:00 | 00:00:00 | 00:00:00 | |
| DM0DOS-11 | 2026-09-04 10:29:30 | 52.76991 | 8.85837 | 88° | 175km/h | 12698m | 3.6m/s | -62°C | 56.9% | 183.6hPa | 2.8V | 08:30:00 | 00:57:04 | 00:00:00 | |
| DL1XH-west | 2026-09-04 10:29:28 | 52.76995 | 8.86057 | 88° | 177km/h | 12711m | 3.9m/s | -62.1°C | 53.5% | 183.2hPa | 2.7V | 18:12:15 | 00:57:07 | 00:00:00 | |
| BIOWL1-15 | 2026-09-04 10:29:27 | 52.76991 | 8.85837 | 88° | 175km/h | 12698m | 3.6m/s | -62°C | 54.1% | 183.6hPa | 2.8V | 18:12:15 | 00:57:04 | 00:00:00 | |
| DO2JMG | 2026-09-04 10:29:26 | 52.76992 | 8.85910 | 89° | 175km/h | 12702m | 4.3m/s | -62°C | 53.9% | 183.4hPa | 2.7V | 18:12:15 | 00:57:05 | 00:00:00 | |
| DB0DAN | 2026-09-04 10:29:25 | 52.76991 | 8.85837 | 88° | 168km/h | 12698m | 3.6m/s | -62°C | 49% | 183.55hPa | 2.8V | 00:00:00 | 00:00:00 | 00:00:00 | |
| HSKMA3-T | 2026-09-04 10:29:25 | 52.76729 | 8.66052 | 90° | 161km/h | 11393m | 4.7m/s | -51.8°C | 48.2% | 225.8hPa | 2.9V | 18:12:15 | 00:52:21 | 00:00:00 | |
| DF8AY | 2026-09-04 10:29:24 | 52.76990 | 8.85764 | 88° | 175km/h | 12694m | 4.2m/s | -62°C | 54% | 183.7hPa | 2.8V | 18:12:15 | 00:57:03 | 00:00:00 | |
| DB0NH | 2026-09-04 10:29:24 | 52.76990 | 8.85764 | 88° | 177km/h | 12694m | 4.1m/s | -61.9°C | 56.6% | 183.6hPa | 2.7V | 00:00:00 | 00:57:03 | 00:00:00 | |
| DJ2KF-10 | 2026-09-04 10:29:23 | 52.76988 | 8.85690 | 89° | 172km/h | 12689m | 5.1m/s | -61.9°C | 56.3% | 183.8hPa | 2.7V | 00:00:00 | 00:57:02 | 00:00:00 | |
| DD8BA-10 | 2026-09-04 10:29:22 | 52.76987 | 8.85618 | 89° | 177km/h | 12685m | 4.8m/s | -61.8°C | 56.9% | 183.9hPa | 2.7V | 00:00:00 | 00:00:00 | 00:00:00 | |
| DL1XH-15 | 2026-09-04 10:29:21 | 52.76979 | 8.85181 | 88° | 179km/h | 12657m | 4.4m/s | -61.6°C | 57.8% | 184.8hPa | 2.7V | 08:30:00 | 00:56:55 | 00:00:00 | |
| AA1-15 | 2026-09-04 10:29:20 | 52.76984 | 8.85473 | 88° | 175km/h | 12675m | 4.8m/s | -61.8°C | 54.2% | 184.3hPa | 2.8V | 18:12:15 | 00:56:59 | 00:00:00 | |
| DL1XH-west | 2026-09-04 10:29:18 | 52.76982 | 8.85328 | 89° | 175km/h | 12667m | 4.4m/s | -61.7°C | 54.1% | 184.5hPa | 2.8V | 18:12:15 | 00:56:57 | 00:00:00 | |
| DO2JMG | 2026-09-04 10:29:16 | 52.76979 | 8.85181 | 88° | 179km/h | 12657m | 4.4m/s | -61.7°C | 54.2% | 184.8hPa | 2.7V | 18:12:15 | 00:56:55 | 00:00:00 | |
| BIOWL1-15 | 2026-09-04 10:29:15 | 52.76977 | 8.85106 | 88° | 179km/h | 12653m | 4.5m/s | -61.6°C | 54.3% | 184.9hPa | 2.7V | 18:12:15 | 00:56:54 | 00:00:00 | |
| DF8AY | 2026-09-04 10:29:13 | 52.76975 | 8.84957 | 88° | 181km/h | 12644m | 4.3m/s | -61.5°C | 54.3% | 185.2hPa | 2.8V | 18:12:15 | 00:56:52 | 00:00:00 | |
| BUE01 | 2026-09-04 10:29:13 | 52.76973 | 8.84882 | 87° | 179km/h | 12640m | 4.7m/s | -61.5°C | 49.5% | 185.3hPa | 2.8V | 00:00:00 | 00:00:00 | 00:00:00 | |
| DD8BA-10 | 2026-09-04 10:29:12 | 52.76973 | 8.84882 | 88° | 177km/h | 12640m | 4.6m/s | -61.4°C | 57.3% | 185.3hPa | 2.8V | 00:00:00 | 00:00:00 | 00:00:00 | |
| DL1XH-15 | 2026-09-04 10:29:11 | 52.76964 | 8.84437 | 88° | 177km/h | 12612m | 5m/s | -61.3°C | 59.4% | 186.2hPa | 2.8V | 08:30:00 | 00:56:45 | 00:00:00 | |
| AA1-15 | 2026-09-04 10:29:10 | 52.76970 | 8.84733 | 88° | 177km/h | 12631m | 4.3m/s | -61.5°C | 54.2% | 185.6hPa | 2.7V | 18:12:15 | 00:56:49 | 00:00:00 | |
| DF5WG-10 | 2026-09-04 10:29:10 | 52.76970 | 8.84733 | 89° | 177km/h | 12631m | 4.2m/s | -61.4°C | 57.3% | 185.6hPa | 2.7V | 00:00:00 | 00:56:49 | 00:00:00 | |
| DO9LL-15 | 2026-09-04 10:29:09 | 52.76968 | 8.84659 | 89° | 177km/h | 12626m | 5.4m/s | -61.5°C | 57.8% | 185.7hPa | 2.7V | 00:00:00 | 00:56:48 | 08:30:00 | |
| DL1XH1-15 | 2026-09-04 10:29:08 | 52.76960 | 8.84215 | 88° | 175km/h | 12599m | 5.4m/s | -61.2°C | 58.1% | 186.5hPa | 2.8V | 08:30:00 | 00:56:42 | 00:00:00 | |
| DL1XH-west | 2026-09-04 10:29:07 | 52.76965 | 8.84510 | 88° | 177km/h | 12617m | 3.7m/s | -61.4°C | 54.6% | 186hPa | 2.8V | 18:12:15 | 00:56:46 | 00:00:00 | |
| DO2JMG | 2026-09-04 10:29:05 | 52.76963 | 8.84363 | 88° | 177km/h | 12608m | 3.8m/s | -61.3°C | 54.8% | 186.3hPa | 2.7V | 18:12:15 | 00:56:44 | 00:00:00 | |
| BIOWL1-15 | 2026-09-04 10:29:04 | 52.76961 | 8.84289 | 88° | 179km/h | 12604m | 4.2m/s | -61.3°C | 54.9% | 186.4hPa | 2.7V | 18:12:15 | 00:56:43 | 00:00:00 | |
| DF8AY | 2026-09-04 10:29:02 | 52.76958 | 8.84142 | 88° | 175km/h | 12594m | 4.5m/s | -61.2°C | 55.1% | 186.7hPa | 2.8V | 18:12:15 | 00:56:41 | 00:00:00 | |
| DD8BA-10 | 2026-09-04 10:29:02 | 52.76958 | 8.84142 | 88° | 177km/h | 12594m | 4.4m/s | -61.2°C | 58.5% | 186.6hPa | 2.8V | 00:00:00 | 00:00:00 | 00:00:00 | |
| DL1XH-15 | 2026-09-04 10:29:01 | 52.76944 | 8.83705 | 87° | 177km/h | 12566m | 4.5m/s | -61°C | 56.6% | 187.5hPa | 2.8V | 08:30:00 | 00:56:35 | 00:00:00 | |
| DL4BBY-15 | 2026-09-04 10:29:01 | 52.76956 | 8.84069 | 87° | 177km/h | 12589m | 5.6m/s | -61.5°C | 0% | 0hPa | 2.7V | 00:00:00 | 00:00:00 | 00:00:00 | |
| DM0DOS-11 | 2026-09-04 10:29:00 | 52.76942 | 8.83631 | 87° | 177km/h | 12561m | 4m/s | -60.9°C | 56.4% | 187.7hPa | 2.7V | 08:30:00 | 00:56:34 | 00:00:00 | |
| AA1-15 | 2026-09-04 10:28:59 | 52.76951 | 8.83924 | 87° | 173km/h | 12579m | 4.8m/s | -61.1°C | 55% | 187.2hPa | 2.7V | 18:12:15 | 00:56:38 | 00:00:00 | |
| DL1XH1-15 | 2026-09-04 10:28:58 | 52.76938 | 8.83482 | 87° | 181km/h | 12553m | 4.8m/s | -60.9°C | 56.5% | 188hPa | 2.8V | 08:30:00 | 00:56:32 | 00:00:00 | |
| DL1XH-west | 2026-09-04 10:28:57 | 52.76946 | 8.83778 | 87° | 177km/h | 12570m | 5m/s | -61°C | 55.1% | 187.5hPa | 2.8V | 18:12:15 | 00:56:36 | 00:00:00 | |
| DO2JMG | 2026-09-04 10:28:55 | 52.76942 | 8.83631 | 88° | 177km/h | 12561m | 4m/s | -60.9°C | 55.2% | 187.7hPa | 2.7V | 18:12:15 | 00:56:34 | 00:00:00 | |
| BIOWL1-15 | 2026-09-04 10:28:53 | 52.76938 | 8.83482 | 88° | 181km/h | 12553m | 4.8m/s | -60.9°C | 55.4% | 188hPa | 2.8V | 18:12:15 | 00:56:32 | 00:00:00 | |
| DD8BA-10 | 2026-09-04 10:28:52 | 52.76936 | 8.83407 | 88° | 179km/h | 12548m | 4.1m/s | -60.8°C | 57.1% | 188.0hPa | 2.7V | 00:00:00 | 00:00:00 | 00:00:00 | |
| HSKMA3-T | 2026-09-04 10:28:51 | 52.76733 | 8.65308 | 90° | 162km/h | 11347m | 4.2m/s | -51.3°C | 48.1% | 227.4hPa | 2.8V | 18:12:15 | 00:52:10 | 00:00:00 | |
| DL1XH-15 | 2026-09-04 10:28:51 | 52.76924 | 8.82963 | 87° | 177km/h | 12521m | 4.8m/s | -60.5°C | 61.6% | 188.9hPa | 2.8V | 08:30:00 | 00:56:25 | 00:00:00 | |
| DF8AY | 2026-09-04 10:28:51 | 52.76935 | 8.83332 | 88° | 179km/h | 12544m | 4.7m/s | -60.7°C | 55.8% | 188.2hPa | 2.8V | 18:12:15 | 00:56:30 | 00:00:00 | |
| GOEST3-10 | 2026-09-04 10:28:51 | 52.76934 | 8.83332 | 88° | 177km/h | 12544m | 4.6m/s | -60.7°C | 57.7% | 188.2hPa | 2.7V | 00:00:00 | 00:56:30 | 00:00:00 | |
| DM0DOS-11 | 2026-09-04 10:28:50 | 52.76921 | 8.82889 | 86° | 179km/h | 12517m | 4.5m/s | -60.5°C | 62.5% | 189.1hPa | 2.7V | 08:30:00 | 00:56:24 | 00:00:00 | |
| AA1-15 | 2026-09-04 10:28:49 | 52.76930 | 8.83184 | 87° | 179km/h | 12535m | 4.8m/s | -60.6°C | 56.6% | 188.5hPa | 2.7V | 18:12:15 | 00:56:28 | 00:00:00 | |
| DL1XH1-15 | 2026-09-04 10:28:48 | 52.76917 | 8.82740 | 87° | 179km/h | 12507m | 4.3m/s | -60.5°C | 62.4% | 189.4hPa | 2.8V | 08:30:00 | 00:56:22 | 00:00:00 | |
| DL1XH-west | 2026-09-04 10:28:46 | 52.76924 | 8.82963 | 87° | 177km/h | 12521m | 4.8m/s | -60.5°C | 58.1% | 188.9hPa | 2.8V | 18:12:15 | 00:56:25 | 00:00:00 | |
| DO2JMG | 2026-09-04 10:28:45 | 52.76921 | 8.82889 | 87° | 179km/h | 12517m | 4.5m/s | -60.5°C | 58.8% | 189.1hPa | 2.7V | 18:12:15 | 00:56:24 | 00:00:00 | |
| BIOWL1-15 | 2026-09-04 10:28:44 | 52.76915 | 8.82665 | 87° | 179km/h | 12503m | 5.8m/s | -60.5°C | 60.2% | 189.5hPa | 2.8V | 18:12:15 | 00:56:21 | 00:00:00 | |
| DF8AY | 2026-09-04 10:28:41 | 52.76913 | 8.82591 | 87° | 179km/h | 12497m | 4.3m/s | -60.4°C | 60.5% | 189.7hPa | 2.8V | 18:12:15 | 00:56:20 | 00:00:00 | |
| DB0DAN | 2026-09-04 10:28:40 | 52.76911 | 8.82516 | 88° | 170km/h | 12493m | 5.5m/s | -60.4°C | 55.5% | 189.83hPa | 2.7V | 00:00:00 | 00:00:00 | 00:00:00 | |
| DM0DOS-11 | 2026-09-04 10:28:40 | 52.76900 | 8.82144 | 86° | 179km/h | 12469m | 4.8m/s | -60.2°C | 63.4% | 190.5hPa | 2.7V | 08:30:00 | 00:56:14 | 00:00:00 | |
| AA1-15 | 2026-09-04 10:28:38 | 52.76907 | 8.82368 | 87° | 179km/h | 12483m | 5.4m/s | -60.3°C | 61.7% | 190.1hPa | 2.8V | 18:12:15 | 00:56:17 | 00:00:00 | |
| DL1XH-west | 2026-09-04 10:28:35 | 52.76900 | 8.82144 | 87° | 179km/h | 12469m | 4.8m/s | -60.3°C | 62.3% | 190.5hPa | 2.7V | 18:12:15 | 00:56:14 | 00:00:00 | |
| DO2JMG | 2026-09-04 10:28:34 | 52.76897 | 8.82070 | 87° | 181km/h | 12464m | 4.3m/s | -60.3°C | 62.6% | 190.7hPa | 2.7V | 18:12:15 | 00:56:13 | 00:00:00 | |
| BIOWL1-15 | 2026-09-04 10:28:32 | 52.76893 | 8.81921 | 87° | 177km/h | 12455m | 3.9m/s | -60.4°C | 63.1% | 191hPa | 2.8V | 18:12:15 | 00:56:11 | 00:00:00 | |
| DF8AY | 2026-09-04 10:28:31 | 52.76890 | 8.81847 | 87° | 177km/h | 12450m | 5.1m/s | -60.4°C | 63.2% | 191.1hPa | 2.8V | 18:12:15 | 00:56:10 | 00:00:00 | |
| AA1-15 | 2026-09-04 10:28:28 | 52.76883 | 8.81629 | 87° | 173km/h | 12436m | 4.9m/s | -60.5°C | 63.4% | 191.6hPa | 2.8V | 18:12:15 | 00:56:07 | 00:00:00 | |
| DL4XJ-10 | 2026-09-04 10:28:28 | 52.76882 | 8.81629 | 88° | 173km/h | 12436m | 4.9m/s | -60.7°C | 0% | 0hPa | 2.8V | 00:00:00 | 00:00:00 | 00:00:00 | |
| HSKMA3-T | 2026-09-04 10:28:27 | 52.76733 | 8.64904 | 90° | 161km/h | 11323m | 3.3m/s | -51.1°C | 49.5% | 228.2hPa | 2.8V | 18:12:15 | 00:52:04 | 00:00:00 | |
| DL8OAI-8 | 2026-09-04 10:28:26 | 52.76880 | 8.81557 | 88° | 173km/h | 12432m | 3.8m/s | -60.5°C | 59.3% | 191.7hPa | 2.7V | 00:00:00 | 00:00:00 | 00:00:00 | |
| DB0DAN | 2026-09-04 10:28:25 | 52.76876 | 8.81413 | 87° | 166km/h | 12423m | 3.6m/s | -60.3°C | 60.3% | 191.98hPa | 2.7V | 00:00:00 | 00:00:00 | 00:00:00 | |
| DL1XH-west | 2026-09-04 10:28:24 | 52.76874 | 8.81340 | 88° | 173km/h | 12418m | 5.3m/s | -60.3°C | 64.4% | 192.1hPa | 2.7V | 18:12:15 | 00:56:03 | 00:00:00 | |
| BIOWL1-15 | 2026-09-04 10:28:23 | 52.76869 | 8.81123 | 88° | 175km/h | 12404m | 4.2m/s | -60.3°C | 65.2% | 192.5hPa | 2.8V | 18:12:15 | 00:56:00 | 00:00:00 | |
| DD8BA-10 | 2026-09-04 10:28:22 | 52.76871 | 8.81196 | 88° | 175km/h | 12409m | 5.5m/s | -60.3°C | 68.6% | 192.3hPa | 2.7V | 00:00:00 | 00:00:00 | 08:30:00 | |
| DL1XH-15 | 2026-09-04 10:28:21 | 52.76859 | 8.80758 | 87° | 175km/h | 12380m | 5.4m/s | -60.2°C | 70.5% | 193.2hPa | 2.8V | 08:30:00 | 00:55:55 | 00:00:00 | |
| DF8AY | 2026-09-04 10:28:20 | 52.76867 | 8.81050 | 88° | 175km/h | 12399m | 5.1m/s | -60.3°C | 65.4% | 192.7hPa | 2.7V | 18:12:15 | 00:55:59 | 00:00:00 | |
| DF5WG-10 | 2026-09-04 10:28:20 | 52.76867 | 8.81050 | 88° | 173km/h | 12399m | 5.0m/s | -60.3°C | 70.0% | 192.6hPa | 2.8V | 00:00:00 | 00:55:59 | 00:00:00 | |
| DL1XH1-15 | 2026-09-04 10:28:18 | 52.76851 | 8.80542 | 86° | 172km/h | 12367m | 4m/s | -60.1°C | 69.9% | 193.7hPa | 2.8V | 08:30:00 | 00:55:52 | 00:00:00 | |
| AA1-15 | 2026-09-04 10:28:17 | 52.76861 | 8.80831 | 87° | 175km/h | 12385m | 3.8m/s | -60.2°C | 66% | 193.1hPa | 2.8V | 18:12:15 | 00:55:56 | 00:00:00 | |
| DL1XH-west | 2026-09-04 10:28:14 | 52.76854 | 8.80613 | 86° | 173km/h | 12371m | 4.9m/s | -60.2°C | 66.4% | 193.6hPa | 2.7V | 18:12:15 | 00:55:53 | 00:00:00 | |
| DO2JMG | 2026-09-04 10:28:13 | 52.76851 | 8.80542 | 87° | 172km/h | 12367m | 4m/s | -60.1°C | 66.3% | 193.7hPa | 2.8V | 18:12:15 | 00:55:52 | 00:00:00 | |
| BIOWL9-15 | 2026-09-04 10:28:13 | 52.76849 | 8.80470 | 87° | 172km/h | 12362m | 4.6m/s | -60.0°C | 61.4% | 193.8hPa | 2.8V | 00:00:00 | 00:00:00 | 00:00:00 | |
| DD8BA-10 | 2026-09-04 10:28:12 | 52.76849 | 8.80470 | 88° | 170km/h | 12363m | 4.5m/s | -60.0°C | 69.2% | 193.8hPa | 2.8V | 00:00:00 | 00:00:00 | 00:00:00 | |
| DL1XH-15 | 2026-09-04 10:28:11 | 52.76836 | 8.80042 | 86° | 170km/h | 12335m | 5.5m/s | -59.9°C | 68.4% | 194.7hPa | 2.8V | 08:30:00 | 00:55:45 | 00:00:00 | |
| DB0DAN | 2026-09-04 10:28:10 | 52.76845 | 8.80326 | 87° | 164km/h | 12354m | 5m/s | -60°C | 59.5% | 194.09hPa | 2.7V | 00:00:00 | 00:00:00 | 00:00:00 | |
| DF8AY | 2026-09-04 10:28:10 | 52.76845 | 8.80326 | 87° | 172km/h | 12354m | 5m/s | -60°C | 65.9% | 194.1hPa | 2.7V | 18:12:15 | 00:55:49 | 00:00:00 | |
| BIOWL1-15 | 2026-09-04 10:28:09 | 52.76842 | 8.80255 | 87° | 172km/h | 12349m | 5m/s | -60°C | 65.7% | 194.2hPa | 2.7V | 18:12:15 | 00:55:48 | 00:00:00 | |
| DL1XH1-15 | 2026-09-04 10:28:08 | 52.76827 | 8.79831 | 86° | 170km/h | 12320m | 3.6m/s | -59.7°C | 71.1% | 195.1hPa | 2.8V | 08:30:00 | 00:55:42 | 00:00:00 | |
| AA1-15 | 2026-09-04 10:28:07 | 52.76838 | 8.80112 | 87° | 170km/h | 12339m | 3.5m/s | -59.9°C | 65.6% | 194.6hPa | 2.8V | 18:12:15 | 00:55:46 | 00:00:00 | |
| DO2JMG | 2026-09-04 10:28:03 | 52.76827 | 8.79831 | 86° | 170km/h | 12321m | 3.6m/s | -59.7°C | 66.6% | 195.1hPa | 2.8V | 18:12:15 | 00:55:42 | 00:00:00 | |
| DD8BA-10 | 2026-09-04 10:28:02 | 52.76824 | 8.79761 | 86° | 168km/h | 12316m | 5.4m/s | -59.6°C | 71.1% | 195.2hPa | 2.8V | 00:00:00 | 00:00:00 | 00:00:00 | |
| DL1XH-15 | 2026-09-04 10:28:01 | 52.76805 | 8.79340 | 86° | 168km/h | 12286m | 5.4m/s | -59.6°C | 72.7% | 196.2hPa | 2.8V | 08:30:00 | 00:55:35 | 00:00:00 | |
| BIOWL1-15 | 2026-09-04 10:27:59 | 52.76814 | 8.79550 | 86° | 170km/h | 12301m | 4.2m/s | -59.6°C | 68% | 195.7hPa | 2.7V | 18:12:15 | 00:55:38 | 00:00:00 | |
| AA1-15 | 2026-09-04 10:27:56 | 52.76805 | 8.79340 | 87° | 168km/h | 12286m | 5.4m/s | -59.6°C | 68.5% | 196.2hPa | 2.8V | 18:12:15 | 00:55:35 | 00:00:00 | |
| DB0DAN | 2026-09-04 10:27:55 | 52.76803 | 8.79270 | 87° | 161km/h | 12282m | 4m/s | -59.6°C | 64.5% | 196.29hPa | 2.8V | 00:00:00 | 00:00:00 | 00:00:00 | |
| DO2JMG | 2026-09-04 10:27:52 | 52.76797 | 8.79060 | 88° | 168km/h | 12268m | 4.4m/s | -59.6°C | 68.5% | 196.8hPa | 2.7V | 18:12:15 | 00:55:31 | 00:00:00 | |
| BIOWL1-15 | 2026-09-04 10:27:50 | 52.76787 | 8.78782 | 86° | 168km/h | 12248m | 4.3m/s | -59.5°C | 68.2% | 197.3hPa | 2.8V | 18:12:15 | 00:55:27 | 00:00:00 | |
| DF8AY | 2026-09-04 10:27:49 | 52.76790 | 8.78852 | 86° | 168km/h | 12253m | 5.6m/s | -59.5°C | 68.3% | 197.2hPa | 2.8V | 18:12:15 | 00:55:28 | 00:00:00 | |
| AA1-15 | 2026-09-04 10:27:45 | 52.76777 | 8.78574 | 86° | 166km/h | 12234m | 5.1m/s | -59.4°C | 68.1% | 197.8hPa | 2.8V | 18:12:15 | 00:55:24 | 00:00:00 | |
| DO2JMG | 2026-09-04 10:27:42 | 52.76770 | 8.78368 | 87° | 164km/h | 12221m | 4.5m/s | -59.4°C | 68.5% | 198.2hPa | 2.8V | 18:12:15 | 00:55:21 | 00:00:00 | |
| DL1XH-west | 2026-09-04 10:27:41 | 52.76767 | 8.78300 | 87° | 164km/h | 12216m | 4.5m/s | -59.3°C | 68.9% | 198.3hPa | 2.7V | 18:12:15 | 00:55:20 | 00:00:00 | |
| DF8AY | 2026-09-04 10:27:39 | 52.76763 | 8.78162 | 87° | 164km/h | 12206m | 5.5m/s | -59.3°C | 69.8% | 198.6hPa | 2.7V | 18:12:15 | 00:55:18 | 00:00:00 | |
| DO9LL-15 | 2026-09-04 10:27:39 | 52.76763 | 8.78162 | 87° | 164km/h | 12207m | 5.5m/s | -59.2°C | 73.4% | 198.6hPa | 2.7V | 00:00:00 | 00:55:18 | 00:00:00 | |
| DL1XH1-15 | 2026-09-04 10:27:38 | 52.76746 | 8.77746 | 86° | 168km/h | 12178m | 5.5m/s | -59°C | 74.4% | 199.5hPa | 2.7V | 08:30:00 | 00:55:12 | 00:00:00 | |
| BIOWL1-15 | 2026-09-04 10:27:37 | 52.76758 | 8.78025 | 86° | 168km/h | 12197m | 5.4m/s | -59.2°C | 70.6% | 199hPa | 2.8V | 18:12:15 | 00:55:16 | 00:00:00 | |
| AA1-15 | 2026-09-04 10:27:34 | 52.76748 | 8.77815 | 86° | 168km/h | 12182m | 3.9m/s | -59.1°C | 70.5% | 199.4hPa | 2.7V | 18:12:15 | 00:55:13 | 00:00:00 | |
| DJ2DS-15 | 2026-09-04 10:27:34 | 52.76748 | 8.77815 | 86° | 164km/h | 12183m | 3.8m/s | -59.0°C | 74.7% | 199.4hPa | 2.7V | 00:00:00 | 00:55:13 | 00:00:00 | |
| SONCRA | 2026-09-04 10:27:33 | 52.76745 | 8.77746 | 86° | 166km/h | 12178m | 5.5m/s | -59.1°C | 66.6% | 199.5hPa | 2.7V | 00:00:00 | 00:00:00 | 00:00:00 | |
| DD8BA-10 | 2026-09-04 10:27:32 | 52.76743 | 8.77676 | 88° | 162km/h | 12173m | 4.1m/s | -59.0°C | 74.3% | 199.6hPa | 2.7V | 00:00:00 | 00:00:00 | 00:00:00 | |
| DL1XH-15 | 2026-09-04 10:27:31 | 52.76737 | 8.77271 | 89° | 161km/h | 12145m | 4.7m/s | -58.8°C | 76.2% | 200.6hPa | 2.7V | 08:30:00 | 00:55:05 | 00:00:00 | |
| DO2JMG | 2026-09-04 10:27:31 | 52.76741 | 8.77608 | 88° | 164km/h | 12168m | 5.3m/s | -59.1°C | 70.1% | 199.9hPa | 2.8V | 18:12:15 | 00:55:10 | 00:00:00 | |
| DL1XH-west | 2026-09-04 10:27:30 | 52.76740 | 8.77540 | 89° | 162km/h | 12163m | 3.8m/s | -58.9°C | 70% | 200hPa | 2.8V | 18:12:15 | 00:55:09 | 00:00:00 | |
| DF8AY | 2026-09-04 10:27:29 | 52.76739 | 8.77472 | 89° | 162km/h | 12159m | 4.7m/s | -58.9°C | 70.1% | 200.2hPa | 2.8V | 18:12:15 | 00:55:08 | 00:00:00 | |
| HSKMA3-T | 2026-09-04 10:27:29 | 52.76732 | 8.64227 | 90° | 162km/h | 11284m | 3.7m/s | -50.8°C | 56.9% | 229.6hPa | 2.9V | 18:12:15 | 00:51:54 | 00:00:00 | |
| DL1XH1-15 | 2026-09-04 10:27:28 | 52.76735 | 8.77067 | 88° | 164km/h | 12131m | 4.7m/s | -58.7°C | 76.6% | 201.1hPa | 2.8V | 08:30:00 | 00:55:02 | 00:00:00 | |
| BIOWL1-15 | 2026-09-04 10:27:27 | 52.76738 | 8.77337 | 89° | 161km/h | 12150m | 4.7m/s | -58.8°C | 70.5% | 200.4hPa | 2.7V | 18:12:15 | 00:55:06 | 00:00:00 | |
| DB0DAN | 2026-09-04 10:27:25 | 52.76737 | 8.77203 | 89° | 155km/h | 12140m | 5.3m/s | -58.8°C | 68.7% | 200.7hPa | 2.8V | 00:00:00 | 00:00:00 | 00:00:00 | |
| AA1-15 | 2026-09-04 10:27:23 | 52.76734 | 8.77067 | 88° | 164km/h | 12131m | 4.7m/s | -58.7°C | 71.1% | 201.1hPa | 2.8V | 18:12:15 | 00:55:02 | 00:00:00 | |
| HSKMA3-T | 2026-09-04 10:27:23 | 52.76732 | 8.64159 | 90° | 162km/h | 11280m | 3.8m/s | -50.7°C | 58.1% | 229.7hPa | 2.8V | 18:12:15 | 00:51:53 | 00:00:00 | |
| DD8BA-10 | 2026-09-04 10:27:22 | 52.76733 | 8.76998 | 89° | 164km/h | 12126m | 5.7m/s | -58.6°C | 75.7% | 201.1hPa | 2.7V | 00:00:00 | 00:00:00 | 00:00:00 | |
| DL1XH-15 | 2026-09-04 10:27:21 | 52.76725 | 8.76585 | 89° | 161km/h | 12096m | 4m/s | -58.4°C | 75.4% | 202.1hPa | 2.7V | 08:30:00 | 00:54:55 | 00:00:00 | |
| DL1XH-west | 2026-09-04 10:27:20 | 52.76730 | 8.76859 | 88° | 166km/h | 12115m | 5m/s | -58.6°C | 70.9% | 201.5hPa | 2.7V | 18:12:15 | 00:54:59 | 00:00:00 | |
| DF8AY | 2026-09-04 10:27:19 | 52.76728 | 8.76790 | 88° | 166km/h | 12110m | 4.8m/s | -58.6°C | 70.8% | 201.7hPa | 2.8V | 18:12:15 | 00:54:58 | 00:00:00 | |
| DL1XH1-15 | 2026-09-04 10:27:18 | 52.76725 | 8.76384 | 90° | 161km/h | 12081m | 5.6m/s | -58.3°C | 75.1% | 202.6hPa | 2.8V | 08:30:00 | 00:54:52 | 00:00:00 | |
| BIOWL1-15 | 2026-09-04 10:27:16 | 52.76725 | 8.76585 | 89° | 161km/h | 12096m | 4m/s | -58.4°C | 70.7% | 202.1hPa | 2.7V | 18:12:15 | 00:54:55 | 00:00:00 | |
| AA1-15 | 2026-09-04 10:27:13 | 52.76725 | 8.76384 | 90° | 161km/h | 12081m | 5.6m/s | -58.3°C | 70.4% | 202.6hPa | 2.8V | 18:12:15 | 00:54:52 | 00:00:00 | |
| DD8BA-10 | 2026-09-04 10:27:12 | 52.76725 | 8.76317 | 91° | 164km/h | 12076m | 4.2m/s | -58.2°C | 74.2% | 202.7hPa | 2.8V | 00:00:00 | 00:00:00 | 00:00:00 | |
| DL1XH-15 | 2026-09-04 10:27:11 | 52.76722 | 8.75904 | 89° | 168km/h | 12049m | 3.8m/s | -58°C | 71.9% | 203.6hPa | 2.8V | 08:30:00 | 00:54:45 | 00:00:00 | |
| DB0DAN | 2026-09-04 10:27:10 | 52.76725 | 8.76181 | 89° | 157km/h | 12067m | 3.5m/s | -58.1°C | 66.3% | 203.12hPa | 2.8V | 00:00:00 | 00:00:00 | 00:00:00 | |
| DL1XH-west | 2026-09-04 10:27:09 | 52.76725 | 8.76112 | 89° | 164km/h | 12063m | 4.8m/s | -58.1°C | 69.6% | 203.2hPa | 2.8V | 18:12:15 | 00:54:48 | 00:00:00 | |
| BUE01 | 2026-09-04 10:27:09 | 52.76724 | 8.76043 | 88° | 166km/h | 12058m | 3.5m/s | -58.1°C | 64.5% | 203.4hPa | 2.8V | 00:00:00 | 00:00:00 | 00:00:00 | |
| DL1XH1-15 | 2026-09-04 10:27:08 | 52.76721 | 8.75697 | 90° | 164km/h | 12035m | 4.4m/s | -57.8°C | 72.5% | 204.1hPa | 2.8V | 08:30:00 | 00:54:42 | 00:00:00 | |
| DF8AY | 2026-09-04 10:27:08 | 52.76724 | 8.76043 | 89° | 166km/h | 12058m | 3.5m/s | -58.1°C | 69.3% | 203.4hPa | 2.8V | 18:12:15 | 00:54:47 | 00:00:00 | |
| BIOWL1-15 | 2026-09-04 10:27:05 | 52.76721 | 8.75834 | 89° | 166km/h | 12045m | 5.3m/s | -57.9°C | 68.4% | 203.8hPa | 2.7V | 18:12:15 | 00:54:44 | 00:00:00 | |
| AA1-15 | 2026-09-04 10:27:02 | 52.76721 | 8.75629 | 90° | 162km/h | 12030m | 4.9m/s | -57.7°C | 67.8% | 204.2hPa | 2.8V | 18:12:15 | 00:54:41 | 00:00:00 | |
| DD8BA-10 | 2026-09-04 10:27:02 | 52.76721 | 8.75629 | 91° | 164km/h | 12030m | 4.9m/s | -57.7°C | 72.2% | 204.2hPa | 2.7V | 00:00:00 | 00:00:00 | 00:00:00 | |
| DL4BBY-15 | 2026-09-04 10:27:01 | 52.76721 | 8.75561 | 90° | 164km/h | 12025m | 4.9m/s | -57.9°C | 0% | 0hPa | 2.7V | 00:00:00 | 00:00:00 | 00:00:00 | |
| DM0DOS-11 | 2026-09-04 10:27:00 | 52.76719 | 8.75152 | 89° | 166km/h | 11998m | 4.7m/s | -57.4°C | 74.5% | 205.3hPa | 2.7V | 08:30:00 | 00:54:34 | 00:00:00 | |
| DL1XH-west | 2026-09-04 10:26:59 | 52.76720 | 8.75426 | 90° | 164km/h | 12016m | 4.5m/s | -57.6°C | 68% | 204.7hPa | 2.7V | 18:12:15 | 00:54:38 | 00:00:00 | |
| DF8AY | 2026-09-04 10:26:58 | 52.76720 | 8.75358 | 89° | 162km/h | 12012m | 4.1m/s | -57.6°C | 68.1% | 204.9hPa | 2.8V | 18:12:15 | 00:54:37 | 00:00:00 | |
| BIOWL1-15 | 2026-09-04 10:26:55 | 52.76718 | 8.75152 | 90° | 166km/h | 11998m | 4.7m/s | -57.4°C | 68.6% | 205.3hPa | 2.7V | 18:12:15 | 00:54:34 | 00:00:00 | |
| AA1-15 | 2026-09-04 10:26:51 | 52.76716 | 8.74873 | 90° | 168km/h | 11978m | 4.9m/s | -57.4°C | 67.9% | 206hPa | 2.8V | 18:12:15 | 00:54:30 | 00:00:00 | |
| GOEST3-10 | 2026-09-04 10:26:51 | 52.76716 | 8.74873 | 90° | 164km/h | 11979m | 4.9m/s | -57.3°C | 71.4% | 205.9hPa | 2.8V | 00:00:00 | 00:54:30 | 00:00:00 | |
| DM0DOS-11 | 2026-09-04 10:26:50 | 52.76715 | 8.74463 | 89° | 161km/h | 11948m | 4.4m/s | -57°C | 70.1% | 206.9hPa | 2.8V | 08:30:00 | 00:54:24 | 00:00:00 | |
| DL1XH-west | 2026-09-04 10:26:49 | 52.76715 | 8.74735 | 90° | 164km/h | 11968m | 4.4m/s | -57.3°C | 67.4% | 206.3hPa | 2.7V | 18:12:15 | 00:54:28 | 00:00:00 | |
| DO2JMG | 2026-09-04 10:26:48 | 52.76715 | 8.74667 | 90° | 164km/h | 11963m | 6.2m/s | -57.2°C | 67.3% | 206.4hPa | 2.8V | 18:12:15 | 00:54:27 | 00:00:00 | |
| BIOWL1-15 | 2026-09-04 10:26:45 | 52.76715 | 8.74463 | 90° | 161km/h | 11948m | 4.4m/s | -57°C | 67.1% | 206.9hPa | 2.8V | 18:12:15 | 00:54:24 | 00:00:00 | |
| DL3AQ-11 | 2026-09-04 10:26:45 | 52.76715 | 8.74396 | 89° | 161km/h | 11943m | 5.0m/s | -57.0°C | 62.7% | 207.1hPa | 2.9V | 00:00:00 | 00:00:00 | 00:00:00 | |
| DL1CLM-18 | 2026-09-04 10:26:44 | 52.76715 | 8.74463 | 91° | 162km/h | 11948m | 4.4m/s | -57.0°C | 63.0% | 206.9hPa | 2.9V | 00:00:00 | 00:00:00 | 00:00:00 | |
| DL1XH-15 | 2026-09-04 10:26:42 | 52.76713 | 8.73853 | 89° | 164km/h | 11905m | 5.4m/s | -56.7°C | 69.4% | 208.3hPa | 2.9V | 08:30:00 | 00:54:15 | 00:00:00 | |
| DD8BA-10 | 2026-09-04 10:26:42 | 52.76714 | 8.74262 | 90° | 164km/h | 11934m | 5.0m/s | -56.8°C | 70.4% | 207.4hPa | 2.8V | 00:00:00 | 00:00:00 | 00:00:00 | |
| DB0DAN | 2026-09-04 10:26:40 | 52.76714 | 8.74127 | 90° | 155km/h | 11925m | 5.3m/s | -56.8°C | 63% | 207.72hPa | 2.8V | 00:00:00 | 00:00:00 | 00:00:00 | |
| AA1-15 | 2026-09-04 10:26:40 | 52.76714 | 8.74127 | 90° | 162km/h | 11925m | 5.3m/s | -56.8°C | 66.7% | 207.7hPa | 2.8V | 18:12:15 | 00:54:19 | 00:00:00 | |
| DO2JMG | 2026-09-04 10:26:38 | 52.76714 | 8.73991 | 90° | 164km/h | 11915m | 5.7m/s | -56.7°C | 66.2% | 208hPa | 2.7V | 18:12:15 | 00:54:17 | 00:00:00 | |
| DF8AY | 2026-09-04 10:26:37 | 52.76714 | 8.73922 | 89° | 164km/h | 11910m | 4.3m/s | -56.7°C | 65.9% | 208.2hPa | 2.8V | 18:12:15 | 00:54:16 | 00:00:00 | |
| BIOWL1-15 | 2026-09-04 10:26:35 | 52.76713 | 8.73784 | 90° | 166km/h | 11900m | 4.2m/s | -56.6°C | 65.6% | 208.5hPa | 2.8V | 18:12:15 | 00:54:14 | 00:00:00 | |
| DD1CC3-15 | 2026-09-04 10:26:35 | 52.76713 | 8.73784 | 91° | 166km/h | 11900m | 4.2m/s | -56.6°C | 63.3% | 208.5hPa | 2.8V | 00:00:00 | 00:00:00 | 00:00:00 | |
| DJ2DS-15 | 2026-09-04 10:26:34 | 52.76713 | 8.73715 | 90° | 164km/h | 11895m | 5.7m/s | -56.4°C | 70.3% | 208.6hPa | 2.8V | 00:00:00 | 00:54:13 | 00:00:00 | |
| DD1CC8 | 2026-09-04 10:26:33 | 52.76712 | 8.73647 | 88° | 164km/h | 11890m | 4.3m/s | -56.4°C | 63.3% | 208.8hPa | 2.8V | 00:00:00 | 00:00:00 | 00:00:00 | |
| DD8BA-10 | 2026-09-04 10:26:32 | 52.76711 | 8.73577 | 90° | 166km/h | 11885m | 5.9m/s | -56.3°C | 70.1% | 208.9hPa | 2.8V | 00:00:00 | 00:00:00 | 00:00:00 | |
| DL1XH-15 | 2026-09-04 10:26:31 | 52.76706 | 8.73164 | 89° | 164km/h | 11855m | 4.6m/s | -56.2°C | 67% | 209.9hPa | 2.8V | 08:30:00 | 00:54:05 | 00:00:00 | |
| DL4BBY-15 | 2026-09-04 10:26:31 | 52.76710 | 8.73508 | 89° | 164km/h | 11879m | 4.4m/s | -56.6°C | 0% | 0hPa | 2.9V | 00:00:00 | 00:00:00 | 00:00:00 | |
| DM0DOS-11 | 2026-09-04 10:26:30 | 52.76706 | 8.73095 | 90° | 166km/h | 11850m | 4.5m/s | -56.1°C | 66.7% | 210.1hPa | 2.9V | 08:30:00 | 00:54:04 | 00:00:00 | |
| AA1-15 | 2026-09-04 10:26:30 | 52.76709 | 8.73440 | 88° | 164km/h | 11875m | 5.2m/s | -56.3°C | 65.2% | 209.3hPa | 2.8V | 18:12:15 | 00:54:09 | 00:00:00 | |
| DF5WG-10 | 2026-09-04 10:26:30 | 52.76709 | 8.73440 | 89° | 166km/h | 11875m | 5.1m/s | -56.2°C | 69.1% | 209.2hPa | 2.8V | 00:00:00 | 00:54:09 | 00:00:00 | |
| DL1CLM-18 | 2026-09-04 10:26:29 | 52.76709 | 8.73440 | 89° | 164km/h | 11875m | 5.2m/s | -56.3°C | 62.2% | 209.3hPa | 2.8V | 00:00:00 | 00:00:00 | 00:00:00 | |
| DL1XH1-15 | 2026-09-04 10:26:28 | 52.76707 | 8.72956 | 90° | 166km/h | 11841m | 4.5m/s | -56°C | 66.2% | 210.4hPa | 2.8V | 08:30:00 | 00:54:02 | 00:00:00 | |
| DL1XH-west | 2026-09-04 10:26:28 | 52.76707 | 8.73302 | 89° | 166km/h | 11864m | 4.8m/s | -56.2°C | 64.6% | 209.6hPa | 2.8V | 18:12:15 | 00:54:07 | 00:00:00 | |
| DO2JMG | 2026-09-04 10:26:27 | 52.76707 | 8.73233 | 90° | 166km/h | 11860m | 4.4m/s | -56.2°C | 64.4% | 209.8hPa | 2.7V | 18:12:15 | 00:54:06 | 00:00:00 | |
| DF8AY | 2026-09-04 10:26:26 | 52.76706 | 8.73164 | 90° | 164km/h | 11855m | 4.6m/s | -56.2°C | 64.2% | 210hPa | 2.8V | 18:12:15 | 00:54:05 | 00:00:00 | |
| DB0DAN | 2026-09-04 10:26:25 | 52.76706 | 8.73095 | 90° | 157km/h | 11850m | 4.6m/s | -56.2°C | 59.9% | 210.08hPa | 2.9V | 00:00:00 | 00:00:00 | 00:00:00 | |
| BIOWL1-15 | 2026-09-04 10:26:24 | 52.76707 | 8.73026 | 90° | 166km/h | 11846m | 4.2m/s | -56°C | 63.7% | 210.3hPa | 2.8V | 18:12:15 | 00:54:03 | 00:00:00 | |
| DB0NH | 2026-09-04 10:26:24 | 52.76706 | 8.73025 | 91° | 164km/h | 11846m | 4.1m/s | -56.0°C | 66.8% | 210.2hPa | 2.7V | 00:00:00 | 00:54:03 | 00:00:00 | |
| DF4FW | 2026-09-04 10:26:23 | 52.76707 | 8.73025 | 91° | 166km/h | 11846m | 4.2m/s | -56.0°C | 60.0% | 210.3hPa | 2.7V | 00:00:00 | 00:00:00 | 00:00:00 | |
| DD8BA-10 | 2026-09-04 10:26:22 | 52.76707 | 8.72887 | 90° | 164km/h | 11837m | 4.8m/s | -55.9°C | 66.1% | 210.5hPa | 2.7V | 00:00:00 | 00:00:00 | 00:00:00 | |
| DL1XH-15 | 2026-09-04 10:26:21 | 52.76701 | 8.72477 | 88° | 164km/h | 11808m | 4.9m/s | -55.7°C | 64.1% | 211.4hPa | 2.8V | 08:30:00 | 00:53:55 | 00:00:00 | |
| GOEST3-10 | 2026-09-04 10:26:21 | 52.76706 | 8.72818 | 90° | 164km/h | 11832m | 5.2m/s | -55.8°C | 65.5% | 210.6hPa | 2.8V | 00:00:00 | 00:54:00 | 00:00:00 | |
| DM0DOS-11 | 2026-09-04 10:26:20 | 52.76701 | 8.72408 | 89° | 166km/h | 11803m | 4.1m/s | -55.7°C | 64.9% | 211.7hPa | 2.8V | 08:30:00 | 00:53:54 | 00:00:00 | |
| AA1-15 | 2026-09-04 10:26:19 | 52.76705 | 8.72681 | 89° | 164km/h | 11822m | 5.4m/s | -55.8°C | 62.9% | 211hPa | 2.9V | 18:12:15 | 00:53:58 | 00:00:00 | |
| DL1XH-west | 2026-09-04 10:26:18 | 52.76703 | 8.72613 | 88° | 162km/h | 11816m | 4.7m/s | -55.7°C | 62.8% | 211.2hPa | 2.9V | 18:12:15 | 00:53:57 | 00:00:00 | |
| DO2JMG | 2026-09-04 10:26:17 | 52.76702 | 8.72545 | 89° | 162km/h | 11812m | 3.5m/s | -55.7°C | 62.5% | 211.3hPa | 2.8V | 18:12:15 | 00:53:56 | 00:00:00 | |
| DF8AY | 2026-09-04 10:26:15 | 52.76701 | 8.72408 | 89° | 166km/h | 11803m | 4.1m/s | -55.7°C | 62.2% | 211.7hPa | 2.8V | 18:12:15 | 00:53:54 | 00:00:00 | |
| BIOWL1-15 | 2026-09-04 10:26:13 | 52.76700 | 8.72270 | 89° | 166km/h | 11794m | 4.1m/s | -55.5°C | 62.1% | 211.9hPa | 2.8V | 18:12:15 | 00:53:52 | 00:00:00 | |
| DD8BA-10 | 2026-09-04 10:26:12 | 52.76699 | 8.72200 | 90° | 164km/h | 11790m | 5.2m/s | -55.4°C | 65.9% | 212.1hPa | 2.8V | 00:00:00 | 00:00:00 | 00:00:00 | |
| DL1XH-15 | 2026-09-04 10:26:11 | 52.76698 | 8.71786 | 89° | 162km/h | 11760m | 4.3m/s | -55.2°C | 62.9% | 213.1hPa | 2.8V | 08:30:00 | 00:53:45 | 00:00:00 | |
| D01LWL | 2026-09-04 10:26:11 | 52.76698 | 8.72061 | 89° | 164km/h | 11779m | 4.9m/s | -55.4°C | 59.9% | 212.4hPa | 2.7V | 00:00:00 | 00:00:00 | 00:00:00 | |
| DM0DOS-11 | 2026-09-04 10:26:10 | 52.76698 | 8.71718 | 89° | 164km/h | 11755m | 5.1m/s | -55.2°C | 62.3% | 213.2hPa | 2.8V | 08:30:00 | 00:53:44 | 00:00:00 | |
| DB0DAN | 2026-09-04 10:26:10 | 52.76698 | 8.72061 | 89° | 157km/h | 11779m | 4.9m/s | -55.4°C | 59.9% | 212.4hPa | 2.8V | 00:00:00 | 00:00:00 | 00:00:00 | |
| DF5WG-10 | 2026-09-04 10:26:10 | 52.76698 | 8.72061 | 90° | 164km/h | 11779m | 4.8m/s | -55.3°C | 66.6% | 212.4hPa | 2.7V | 00:00:00 | 00:53:49 | 00:00:00 | |
| DO3DL | 2026-09-04 10:26:09 | 52.76698 | 8.71992 | 91° | 164km/h | 11775m | 3.6m/s | -55.3°C | 59.5% | 212.6hPa | 2.9V | 00:00:00 | 00:00:00 | 00:00:00 | |
| HSKMA3-T | 2026-09-04 10:26:08 | 52.76720 | 8.62741 | 89° | 162km/h | 11197m | 3.2m/s | -50.1°C | 77.7% | 232.7hPa | 2.9V | 18:12:15 | 00:51:32 | 00:00:00 | |
| DL1XH1-15 | 2026-09-04 10:26:08 | 52.76698 | 8.71581 | 90° | 164km/h | 11745m | 5.2m/s | -55.2°C | 62.5% | 213.4hPa | 2.9V | 08:30:00 | 00:53:42 | 00:00:00 | |
| DL1XH-west | 2026-09-04 10:26:08 | 52.76698 | 8.71923 | 90° | 166km/h | 11770m | 5.5m/s | -55.3°C | 62.3% | 212.7hPa | 2.9V | 18:12:15 | 00:53:47 | 00:00:00 | |
| DO2JMG | 2026-09-04 10:26:06 | 52.76698 | 8.71786 | 90° | 162km/h | 11760m | 4.3m/s | -55.2°C | 61.9% | 213.1hPa | 2.8V | 18:12:15 | 00:53:45 | 00:00:00 | |
| DF8AY | 2026-09-04 10:26:05 | 52.76697 | 8.71718 | 90° | 164km/h | 11755m | 5.1m/s | -55.2°C | 61.5% | 213.2hPa | 2.8V | 18:12:15 | 00:53:44 | 00:00:00 | |
| BIOWL1-15 | 2026-09-04 10:26:04 | 52.76697 | 8.71581 | 90° | 164km/h | 11745m | 5.2m/s | -55.2°C | 61% | 213.5hPa | 2.9V | 18:12:15 | 00:53:42 | 00:00:00 | |
| DD8BA-10 | 2026-09-04 10:26:02 | 52.76697 | 8.71513 | 90° | 164km/h | 11741m | 3.9m/s | -55.1°C | 63.2% | 213.6hPa | 2.9V | 00:00:00 | 00:00:00 | 00:00:00 | |
| DL1XH-15 | 2026-09-04 10:26:01 | 52.76696 | 8.71100 | 89° | 164km/h | 11711m | 5.9m/s | -54.8°C | 64.2% | 214.6hPa | 2.9V | 08:30:00 | 00:53:35 | 00:00:00 | |
| DL4BBY-15 | 2026-09-04 10:26:01 | 52.76697 | 8.71444 | 90° | 164km/h | 11736m | 5.6m/s | -55.2°C | 0% | 0hPa | 2.8V | 00:00:00 | 00:00:00 | 00:00:00 | |
| DM0DOS-11 | 2026-09-04 10:26:00 | 52.76696 | 8.71032 | 89° | 164km/h | 11706m | 3.9m/s | -54.7°C | 63.4% | 214.8hPa | 2.8V | 08:30:00 | 00:53:34 | 00:00:00 | |
| SONCRA | 2026-09-04 10:26:00 | 52.76697 | 8.71307 | 89° | 162km/h | 11726m | 4.5m/s | -54.9°C | 57.8% | 214.2hPa | 2.8V | 00:00:00 | 00:00:00 | 00:00:00 | |
| DF5WG-10 | 2026-09-04 10:25:59 | 52.76697 | 8.71307 | 90° | 164km/h | 11726m | 4.4m/s | -54.8°C | 64.3% | 214.1hPa | 2.8V | 00:00:00 | 00:53:38 | 00:00:00 | |
| DL1XH1-15 | 2026-09-04 10:25:58 | 52.76695 | 8.70894 | 89° | 164km/h | 11696m | 3.6m/s | -54.6°C | 62.1% | 215.1hPa | 2.8V | 08:30:00 | 00:53:32 | 00:00:00 | |
| AA1-15 | 2026-09-04 10:25:58 | 52.76697 | 8.71238 | 90° | 164km/h | 11721m | 5.6m/s | -54.8°C | 60.6% | 214.3hPa | 2.9V | 18:12:15 | 00:53:37 | 00:00:00 | |
| DL1XH-west | 2026-09-04 10:25:57 | 52.76696 | 8.71169 | 90° | 166km/h | 11716m | 3.9m/s | -54.8°C | 60.8% | 214.5hPa | 2.9V | 18:12:15 | 00:53:36 | 00:00:00 | |
| DO2JMG | 2026-09-04 10:25:56 | 52.76696 | 8.71100 | 90° | 164km/h | 11711m | 5.9m/s | -54.8°C | 60.7% | 214.6hPa | 2.9V | 18:12:15 | 00:53:35 | 00:00:00 | |
| DF8AY | 2026-09-04 10:25:54 | 52.76695 | 8.70963 | 89° | 166km/h | 11701m | 5.5m/s | -54.7°C | 60.5% | 214.9hPa | 2.8V | 18:12:15 | 00:53:33 | 00:00:00 | |
| BIOWL1-15 | 2026-09-04 10:25:54 | 52.76695 | 8.70825 | 90° | 162km/h | 11692m | 4.9m/s | -54.7°C | 60% | 215.3hPa | 2.9V | 18:12:15 | 00:53:31 | 00:00:00 | |
| SMARD9-15 | 2026-09-04 10:25:53 | 52.76695 | 8.70825 | 89° | 162km/h | 11692m | 4.9m/s | -54.7°C | 55.6% | 215.3hPa | 2.9V | 00:00:00 | 00:00:00 | 00:00:00 | |
| DD8BA-10 | 2026-09-04 10:25:52 | 52.76695 | 8.70825 | 90° | 162km/h | 11692m | 4.9m/s | -54.6°C | 61.8% | 215.2hPa | 2.9V | 00:00:00 | 00:00:00 | 00:00:00 | |
| DL1XH-15 | 2026-09-04 10:25:51 | 52.76695 | 8.70414 | 89° | 161km/h | 11664m | 0.2m/s | -54.4°C | 61% | 216.2hPa | 2.9V | 08:30:00 | 00:53:25 | 00:00:00 | |
| GOEST3-10 | 2026-09-04 10:25:51 | 52.76695 | 8.70756 | 90° | 164km/h | 11687m | 4.1m/s | -54.6°C | 61.5% | 215.4hPa | 2.9V | 00:00:00 | 00:53:30 | 00:00:00 | |
| DM0DOS-11 | 2026-09-04 10:25:50 | 52.76695 | 8.70348 | 90° | 148km/h | 11663m | -4.8m/s | -54.3°C | 60.6% | 216.3hPa | 2.9V | 08:30:00 | 00:53:24 | 00:00:00 | |
| AA1-15 | 2026-09-04 10:25:48 | 52.76695 | 8.70552 | 90° | 162km/h | 11672m | 4.5m/s | -54.5°C | 59.1% | 215.9hPa | 2.8V | 18:12:15 | 00:53:27 | 00:00:00 | |
| DO2JMG | 2026-09-04 10:25:46 | 52.76695 | 8.70414 | 90° | 161km/h | 11664m | 0.2m/s | -54.4°C | 58.9% | 216.2hPa | 2.9V | 18:12:15 | 00:53:25 | 00:00:00 | |
| DF8AY | 2026-09-04 10:25:44 | 52.76696 | 8.70283 | 91° | 164km/h | 11664m | 4m/s | -54.2°C | 58.6% | 216.5hPa | 2.8V | 18:12:15 | 00:53:23 | 00:00:00 | |
| BIOWL1-15 | 2026-09-04 10:25:42 | 52.76696 | 8.70145 | 91° | 166km/h | 11655m | 3.2m/s | -54.2°C | 58% | 216.8hPa | 2.8V | 18:12:15 | 00:53:21 | 00:00:00 | |
| DL8OAI-8 | 2026-09-04 10:25:42 | 52.76696 | 8.70145 | 92° | 166km/h | 11655m | 3.2m/s | -54.2°C | 52.3% | 216.8hPa | 2.8V | 00:00:00 | 00:00:00 | 00:00:00 | |
| DL1XH-15 | 2026-09-04 10:25:41 | 52.76698 | 8.69735 | 90° | 164km/h | 11628m | 4m/s | -53.9°C | 58.3% | 217.7hPa | 2.8V | 08:30:00 | 00:53:15 | 00:00:00 | |
| GOEST3-10 | 2026-09-04 10:25:41 | 52.76697 | 8.70076 | 91° | 164km/h | 11650m | 5.4m/s | -54.2°C | 58.3% | 216.9hPa | 2.9V | 00:00:00 | 00:53:20 | 00:00:00 | |
| DM0DOS-11 | 2026-09-04 10:25:40 | 52.76699 | 8.69666 | 90° | 164km/h | 11623m | 6m/s | -53.9°C | 58.5% | 217.9hPa | 2.9V | 08:30:00 | 00:53:14 | 00:00:00 | |
| DB0DAN | 2026-09-04 10:25:40 | 52.76697 | 8.70008 | 90° | 155km/h | 11646m | 3.2m/s | -54.2°C | 52.2% | 217.12hPa | 2.9V | 00:00:00 | 00:00:00 | 00:00:00 | |
| AA1-15 | 2026-09-04 10:25:38 | 52.76698 | 8.69872 | 90° | 164km/h | 11638m | 4.1m/s | -54°C | 56.7% | 217.4hPa | 2.8V | 18:12:15 | 00:53:17 | 00:00:00 | |
| DL1XH-west | 2026-09-04 10:25:36 | 52.76698 | 8.69735 | 91° | 164km/h | 11628m | 4m/s | -53.9°C | 56.2% | 217.7hPa | 2.8V | 18:12:15 | 00:53:15 | 00:00:00 | |
| DF8AY | 2026-09-04 10:25:33 | 52.76699 | 8.69529 | 91° | 164km/h | 11614m | 4.6m/s | -53.8°C | 55.8% | 218.2hPa | 2.9V | 18:12:15 | 00:53:12 | 00:00:00 | |
| BIOWL1-15 | 2026-09-04 10:25:31 | 52.76700 | 8.69391 | 90° | 164km/h | 11605m | 3.9m/s | -53.7°C | 55.6% | 218.4hPa | 2.8V | 18:12:15 | 00:53:10 | 00:00:00 | |
| DL4BBY-15 | 2026-09-04 10:25:31 | 52.76700 | 8.69391 | 90° | 164km/h | 11605m | 3.9m/s | -53.9°C | 0% | 0hPa | 2.8V | 00:00:00 | 00:00:00 | 00:00:00 | |
| DM0DOS-11 | 2026-09-04 10:25:30 | 52.76700 | 8.68985 | 90° | 162km/h | 11577m | 3.5m/s | -53.5°C | 56% | 219.4hPa | 2.8V | 08:30:00 | 00:53:04 | 00:00:00 | |
| DF5WG-10 | 2026-09-04 10:25:29 | 52.76700 | 8.69255 | 91° | 162km/h | 11596m | 4.0m/s | -53.6°C | 56.9% | 218.8hPa | 2.9V | 00:00:00 | 00:53:08 | 00:00:00 | |
| DL1XH1-15 | 2026-09-04 10:25:28 | 52.76700 | 8.68849 | 90° | 162km/h | 11568m | 4.1m/s | -53.5°C | 55.7% | 219.7hPa | 2.9V | 08:30:00 | 00:53:02 | 00:00:00 | |
| AA1-15 | 2026-09-04 10:25:27 | 52.76700 | 8.69120 | 90° | 162km/h | 11586m | 3.8m/s | -53.6°C | 55% | 219.1hPa | 2.9V | 18:12:15 | 00:53:06 | 00:00:00 | |
| DL1XH-west | 2026-09-04 10:25:25 | 52.76700 | 8.68985 | 91° | 162km/h | 11577m | 3.5m/s | -53.5°C | 54.8% | 219.4hPa | 2.8V | 18:12:15 | 00:53:04 | 00:00:00 | |
| DF8AY | 2026-09-04 10:25:22 | 52.76701 | 8.68781 | 91° | 164km/h | 11564m | 4.9m/s | -53.4°C | 54.3% | 219.9hPa | 2.9V | 18:12:15 | 00:53:01 | 00:00:00 | |
| SMARD9-15 | 2026-09-04 10:25:22 | 52.76701 | 8.68713 | 90° | 164km/h | 11559m | 4.8m/s | -53.4°C | 49.0% | 220.0hPa | 2.9V | 00:00:00 | 00:00:00 | 00:00:00 | |
| DL1XH-15 | 2026-09-04 10:25:21 | 52.76704 | 8.68367 | 91° | 166km/h | 11535m | 3.3m/s | -53.1°C | 54.2% | 220.8hPa | 2.9V | 08:30:00 | 00:52:55 | 00:00:00 | |
| BIOWL1-15 | 2026-09-04 10:25:21 | 52.76701 | 8.68713 | 91° | 164km/h | 11559m | 4.8m/s | -53.4°C | 54.1% | 220hPa | 2.8V | 18:12:15 | 00:53:00 | 00:00:00 | |
| DF2AP-13 | 2026-09-04 10:25:21 | 52.76701 | 8.68713 | 91° | 166km/h | 11559m | 4.7m/s | 0°C | 0% | 0hPa | 2.8V | 00:00:00 | 00:53:00 | 00:00:00 | |
| DL8OAI-8 | 2026-09-04 10:25:20 | 52.76701 | 8.68713 | 92° | 164km/h | 11559m | 4.8m/s | -53.4°C | 49.0% | 220.0hPa | 2.8V | 00:00:00 | 00:00:00 | 00:00:00 | |
| DF5WG-10 | 2026-09-04 10:25:19 | 52.76702 | 8.68575 | 91° | 164km/h | 11549m | 5.4m/s | -53.2°C | 54.8% | 220.3hPa | 2.8V | 00:00:00 | 00:52:58 | 00:00:00 | |
| DL1XH1-15 | 2026-09-04 10:25:18 | 52.76706 | 8.68161 | 90° | 162km/h | 11522m | 3.7m/s | -53°C | 53.8% | 221.3hPa | 2.8V | 08:30:00 | 00:52:52 | 00:00:00 | |
| AA1-15 | 2026-09-04 10:25:17 | 52.76703 | 8.68436 | 91° | 168km/h | 11540m | 5.4m/s | -53.2°C | 53.3% | 220.6hPa | 2.9V | 18:12:15 | 00:52:56 | 00:00:00 | |
| DO2JMG | 2026-09-04 10:25:15 | 52.76705 | 8.68298 | 91° | 166km/h | 11531m | 4.6m/s | -53.1°C | 53% | 220.9hPa | 2.9V | 18:12:15 | 00:52:54 | 00:00:00 | |
| DL1XH-west | 2026-09-04 10:25:14 | 52.76706 | 8.68229 | 91° | 164km/h | 11527m | 4.9m/s | -53.1°C | 52.9% | 221.2hPa | 2.8V | 18:12:15 | 00:52:53 | 00:00:00 | |
| DF8AY | 2026-09-04 10:25:11 | 52.76707 | 8.68026 | 91° | 161km/h | 11513m | 3.8m/s | -52.9°C | 52.2% | 221.6hPa | 2.9V | 18:12:15 | 00:52:50 | 00:00:00 | |
| DB0DAN | 2026-09-04 10:25:10 | 52.76708 | 8.67959 | 90° | 153km/h | 11508m | 5.3m/s | -52.9°C | 47.6% | 221.76hPa | 2.9V | 00:00:00 | 00:00:00 | 00:00:00 | |
| DM0DOS-11 | 2026-09-04 10:25:10 | 52.76711 | 8.67620 | 91° | 166km/h | 11488m | 4m/s | -52.7°C | 51.7% | 222.5hPa | 2.9V | 08:30:00 | 00:52:44 | 00:00:00 | |
| BIOWL1-15 | 2026-09-04 10:25:10 | 52.76708 | 8.67959 | 90° | 161km/h | 11508m | 5.3m/s | -52.9°C | 52.2% | 221.8hPa | 2.9V | 18:12:15 | 00:52:49 | 00:00:00 | |
| DO9LL-15 | 2026-09-04 10:25:09 | 52.76708 | 8.67892 | 91° | 162km/h | 11504m | 2.6m/s | -52.8°C | 53.0% | 221.9hPa | 2.9V | 00:00:00 | 00:52:48 | 00:00:00 | |
| DL1XH1-15 | 2026-09-04 10:25:08 | 52.76713 | 8.67482 | 91° | 166km/h | 11480m | 5.2m/s | -52.6°C | 51.7% | 222.8hPa | 2.9V | 08:30:00 | 00:52:42 | 00:00:00 | |
| AA1-15 | 2026-09-04 10:25:06 | 52.76710 | 8.67689 | 91° | 164km/h | 11492m | 4.4m/s | -52.7°C | 51.6% | 222.3hPa | 2.9V | 18:12:15 | 00:52:45 | 00:00:00 | |
| DL1XH-west | 2026-09-04 10:25:04 | 52.76712 | 8.67551 | 92° | 166km/h | 11484m | 3.5m/s | -52.7°C | 51.2% | 222.6hPa | 2.9V | 18:12:15 | 00:52:43 | 00:00:00 | |
| DF8AY | 2026-09-04 10:25:01 | 52.76716 | 8.67343 | 92° | 166km/h | 11471m | 5.2m/s | -52.5°C | 50.8% | 223.1hPa | 2.8V | 18:12:15 | 00:52:40 | 00:00:00 | |
| DL4BBY-15 | 2026-09-04 10:25:01 | 52.76715 | 8.67343 | 92° | 162km/h | 11471m | 5.1m/s | -52.7°C | 0% | 0hPa | 2.8V | 00:00:00 | 00:00:00 | 00:00:00 | |
| DM0DOS-11 | 2026-09-04 10:25:00 | 52.76720 | 8.66936 | 90° | 161km/h | 11446m | 3.8m/s | -52.3°C | 50.9% | 224hPa | 2.8V | 08:30:00 | 00:52:34 | 00:00:00 | |
| BIOWL1-15 | 2026-09-04 10:24:59 | 52.76718 | 8.67206 | 91° | 164km/h | 11463m | 4.5m/s | -52.5°C | 50.6% | 223.4hPa | 2.9V | 18:12:15 | 00:52:38 | 00:00:00 | |
| AA1-15 | 2026-09-04 10:24:56 | 52.76720 | 8.67003 | 91° | 161km/h | 11450m | 4.5m/s | -52.4°C | 50.4% | 223.8hPa | 2.8V | 18:12:15 | 00:52:35 | 00:00:00 | |
| DB0DAN | 2026-09-04 10:24:55 | 52.76720 | 8.66936 | 90° | 153km/h | 11446m | 3.8m/s | -52.3°C | 45.5% | 223.98hPa | 2.8V | 00:00:00 | 00:00:00 | 00:00:00 | |
| DO2JMG | 2026-09-04 10:24:54 | 52.76720 | 8.66869 | 91° | 161km/h | 11441m | 5.1m/s | -52.3°C | 50.2% | 224.1hPa | 2.9V | 18:12:15 | 00:52:33 | 00:00:00 | |
| HTAHTA | 2026-09-04 10:24:53 | 52.76721 | 8.66802 | 91° | 161km/h | 11437m | 3.3m/s | -52.2°C | 45.0% | 224.2hPa | 2.9V | 00:00:00 | 00:00:00 | 00:00:00 | |
| DD8BA-10 | 2026-09-04 10:24:52 | 52.76721 | 8.66734 | 91° | 164km/h | 11433m | 4.8m/s | -52.1°C | 49.7% | 224.3hPa | 2.9V | 00:00:00 | 00:00:00 | 00:00:00 | |
| DL1XH-15 | 2026-09-04 10:24:51 | 52.76727 | 8.66321 | 91° | 162km/h | 11409m | 4.5m/s | -51.9°C | 48.6% | 225.2hPa | 2.9V | 08:30:00 | 00:52:25 | 00:00:00 | |
| DF8AY | 2026-09-04 10:24:50 | 52.76723 | 8.66596 | 91° | 166km/h | 11425m | 4.4m/s | -52.1°C | 49.4% | 224.7hPa | 2.8V | 18:12:15 | 00:52:29 | 00:00:00 | |
| BIOWL1-15 | 2026-09-04 10:24:50 | 52.76725 | 8.66458 | 91° | 164km/h | 11417m | 4.2m/s | -52°C | 49% | 225hPa | 2.9V | 18:12:15 | 00:52:27 | 00:00:00 | |
| AA1-15 | 2026-09-04 10:24:45 | 52.76728 | 8.66253 | 91° | 162km/h | 11405m | 3.4m/s | -51.9°C | 48.7% | 225.4hPa | 2.9V | 18:12:15 | 00:52:24 | 00:00:00 | |
| DL3AQ-11 | 2026-09-04 10:24:45 | 52.76728 | 8.66186 | 90° | 161km/h | 11401m | 5.0m/s | -51.8°C | 43.2% | 225.5hPa | 2.8V | 00:00:00 | 00:00:00 | 00:00:00 | |
| DO2JMG | 2026-09-04 10:24:43 | 52.76729 | 8.66119 | 90° | 161km/h | 11396m | 3.5m/s | -51.8°C | 48.3% | 225.7hPa | 2.8V | 18:12:15 | 00:52:22 | 00:00:00 | |
| HSKMA3-T | 2026-09-04 10:24:42 | 52.76684 | 8.60700 | 89° | 157km/h | 11084m | 3.5m/s | 0°C | 0% | 236.8hPa | 2.8V | 18:12:15 | 00:51:02 | 00:00:00 | |
| DD8BA-10 | 2026-09-04 10:24:42 | 52.76729 | 8.66051 | 91° | 162km/h | 11393m | 4.6m/s | -51.7°C | 48.3% | 225.7hPa | 2.9V | 00:00:00 | 00:00:00 | 00:00:00 | |
| DL1XH-15 | 2026-09-04 10:24:41 | 52.76731 | 8.65647 | 90° | 162km/h | 11368m | 4.3m/s | -51.5°C | 47.8% | 226.6hPa | 2.9V | 08:30:00 | 00:52:15 | 00:00:00 | |
| DF8AY | 2026-09-04 10:24:40 | 52.76729 | 8.65918 | 90° | 161km/h | 11385m | 4.7m/s | -51.7°C | 48.1% | 226.1hPa | 2.9V | 18:12:15 | 00:52:19 | 00:00:00 | |
| HSKMA3-T | 2026-09-04 10:24:39 | 52.76683 | 8.60634 | 89° | 159km/h | 11081m | 4.1m/s | 0°C | 0% | 236.9hPa | 2.9V | 18:12:15 | 00:51:01 | 00:00:00 | |
| BIOWL1-15 | 2026-09-04 10:24:37 | 52.76730 | 8.65715 | 91° | 162km/h | 11373m | 4m/s | -51.6°C | 47.8% | 226.5hPa | 2.8V | 18:12:15 | 00:52:16 | 00:00:00 | |
| AA1-15 | 2026-09-04 10:24:35 | 52.76731 | 8.65579 | 91° | 164km/h | 11364m | 4.6m/s | -51.5°C | 47.8% | 226.8hPa | 2.9V | 18:12:15 | 00:52:14 | 00:00:00 | |
| DL1XH-west | 2026-09-04 10:24:32 | 52.76733 | 8.65376 | 91° | 162km/h | 11351m | 4.2m/s | -51.4°C | 47.9% | 227.2hPa | 2.8V | 18:12:15 | 00:52:11 | 00:00:00 | |
| DL1XH-15 | 2026-09-04 10:24:31 | 52.76733 | 8.64971 | 89° | 161km/h | 11326m | 4.2m/s | -51.1°C | 49.1% | 228.1hPa | 2.8V | 08:30:00 | 00:52:05 | 00:00:00 | |
| DL4BBY-15 | 2026-09-04 10:24:31 | 52.76733 | 8.65308 | 90° | 162km/h | 11347m | 4.1m/s | -51.6°C | 0% | 0hPa | 2.8V | 00:00:00 | 00:00:00 | 00:00:00 | |
| DM0DOS-11 | 2026-09-04 10:24:30 | 52.76733 | 8.64904 | 90° | 161km/h | 11323m | 3.3m/s | -51.1°C | 49.6% | 228.2hPa | 2.8V | 08:30:00 | 00:52:04 | 00:00:00 | |
| DF8AY | 2026-09-04 10:24:29 | 52.76734 | 8.65173 | 90° | 161km/h | 11339m | 3.7m/s | -51.2°C | 48.4% | 227.7hPa | 2.9V | 18:12:15 | 00:52:08 | 00:00:00 | |
| BIOWL1-15 | 2026-09-04 10:24:29 | 52.76733 | 8.65039 | 89° | 162km/h | 11330m | 3.5m/s | -51.2°C | 48.9% | 228hPa | 2.9V | 18:12:15 | 00:52:06 | 00:00:00 | |
| DD1CC8 | 2026-09-04 10:24:29 | 52.76734 | 8.65106 | 89° | 161km/h | 11334m | 5.1m/s | -51.2°C | 43.8% | 227.8hPa | 2.8V | 00:00:00 | 00:00:00 | 00:00:00 | |
| DL4XJ-10 | 2026-09-04 10:24:28 | 52.76734 | 8.65106 | 90° | 162km/h | 11335m | 5.0m/s | -51.4°C | 0% | 0hPa | 2.8V | 00:00:00 | 00:00:00 | 00:00:00 | |
| DB0DAN | 2026-09-04 10:24:25 | 52.76733 | 8.64904 | 90° | 153km/h | 11323m | 3.3m/s | -51.1°C | 44.5% | 228.24hPa | 2.8V | 00:00:00 | 00:00:00 | 00:00:00 | |
| AA1-15 | 2026-09-04 10:24:24 | 52.76733 | 8.64837 | 90° | 162km/h | 11319m | 3.4m/s | -51.1°C | 50% | 228.4hPa | 2.9V | 18:12:15 | 00:52:03 | 00:00:00 | |
| DO2JMG | 2026-09-04 10:24:22 | 52.76733 | 8.64701 | 90° | 162km/h | 11312m | 2.6m/s | -51°C | 50.9% | 228.6hPa | 2.9V | 18:12:15 | 00:52:01 | 00:00:00 | |
| DD8BA-10 | 2026-09-04 10:24:22 | 52.76733 | 8.64701 | 90° | 162km/h | 11312m | 2.6m/s | -50.9°C | 51.1% | 228.6hPa | 2.9V | 00:00:00 | 00:00:00 | 00:00:00 | |
| DL1XH-15 | 2026-09-04 10:24:21 | 52.76733 | 8.64295 | 89° | 162km/h | 11288m | 4.6m/s | -50.8°C | 56.7% | 229.5hPa | 2.9V | 08:30:00 | 00:51:55 | 00:00:00 | |
| DJ2KF-10 | 2026-09-04 10:24:21 | 52.76733 | 8.64633 | 91° | 162km/h | 11309m | 4.6m/s | -50.9°C | 51.5% | 228.7hPa | 2.9V | 00:00:00 | 00:52:00 | 00:00:00 | |
| DM0DOS-11 | 2026-09-04 10:24:20 | 52.76732 | 8.64227 | 89° | 162km/h | 11284m | 3.7m/s | -50.8°C | 58.3% | 229.6hPa | 2.9V | 08:30:00 | 00:51:54 | 00:00:00 | |
| DF8AY | 2026-09-04 10:24:19 | 52.76733 | 8.64498 | 90° | 162km/h | 11301m | 3.9m/s | -50.9°C | 53% | 229hPa | 2.8V | 18:12:15 | 00:51:58 | 00:00:00 | |
| BIOWL1-15 | 2026-09-04 10:24:17 | 52.76733 | 8.64362 | 90° | 162km/h | 11292m | 3.6m/s | -50.8°C | 54.8% | 229.3hPa | 2.9V | 18:12:15 | 00:51:56 | 00:00:00 | |
| AA1-15 | 2026-09-04 10:24:13 | 52.76732 | 8.64091 | 90° | 162km/h | 11276m | 4m/s | -50.7°C | 58.9% | 229.9hPa | 2.8V | 18:12:15 | 00:51:52 | 00:00:00 | |
| DL1XH-west | 2026-09-04 10:24:12 | 52.76731 | 8.64024 | 89° | 162km/h | 11272m | 3.7m/s | -50.7°C | 59.7% | 230hPa | 2.9V | 18:12:15 | 00:51:51 | 00:00:00 | |
| DO3DL | 2026-09-04 10:24:11 | 52.76731 | 8.64024 | 90° | 162km/h | 11272m | 3.7m/s | -50.7°C | 55.9% | 230.0hPa | 2.9V | 00:00:00 | 00:00:00 | 00:00:00 | |
| DB0DAN | 2026-09-04 10:24:10 | 52.76731 | 8.63889 | 90° | 153km/h | 11264m | 3.2m/s | -50.6°C | 58% | 230.34hPa | 2.9V | 00:00:00 | 00:00:00 | 00:00:00 | |
| DM0DOS-11 | 2026-09-04 10:24:10 | 52.76728 | 8.63552 | 88° | 162km/h | 11244m | 3.7m/s | -50.4°C | 67.4% | 231.1hPa | 2.9V | 08:30:00 | 00:51:44 | 00:00:00 | |
| BIOWL1-15 | 2026-09-04 10:24:09 | 52.76730 | 8.63687 | 90° | 161km/h | 11252m | 3.9m/s | -50.5°C | 65.2% | 230.8hPa | 2.8V | 18:12:15 | 00:51:46 | 00:00:00 | |
| DF8AY | 2026-09-04 10:24:08 | 52.76730 | 8.63754 | 89° | 162km/h | 11256m | 3.5m/s | -50.5°C | 64% | 230.6hPa | 2.9V | 18:12:15 | 00:51:47 | 00:00:00 | |
| AA1-15 | 2026-09-04 10:24:02 | 52.76727 | 8.63350 | 89° | 162km/h | 11232m | 4.4m/s | -50.4°C | 69.6% | 231.4hPa | 2.9V | 18:12:15 | 00:51:41 | 00:00:00 | |
| DD8BA-10 | 2026-09-04 10:24:02 | 52.76727 | 8.63350 | 90° | 162km/h | 11232m | 4.3m/s | -50.3°C | 70.2% | 231.4hPa | 2.9V | 00:00:00 | 00:00:00 | 00:00:00 | |
| DL1XH-15 | 2026-09-04 10:24:01 | 52.76722 | 8.62944 | 88° | 162km/h | 11209m | 4.4m/s | -50.1°C | 78.5% | 232.3hPa | 2.9V | 08:30:00 | 00:51:35 | 00:00:00 | |
| DL1XH-west | 2026-09-04 10:24:01 | 52.76726 | 8.63283 | 89° | 162km/h | 11228m | 4.5m/s | -50.3°C | 71.2% | 231.6hPa | 2.8V | 18:12:15 | 00:51:40 | 00:00:00 | |
| DJ2DS-15 | 2026-09-04 10:24:00 | 52.76725 | 8.63147 | 89° | 162km/h | 11220m | 3.9m/s | -50.3°C | 70.0% | 231.9hPa | 2.8V | 00:00:00 | 00:00:00 | 00:00:00 | |
| DM0DOS-11 | 2026-09-04 10:23:59 | 52.76721 | 8.62809 | 88° | 162km/h | 11201m | 4.6m/s | -50.1°C | 79.5% | 232.6hPa | 2.8V | 08:30:00 | 00:51:33 | 00:00:00 | |
| BIOWL1-15 | 2026-09-04 10:23:58 | 52.76723 | 8.62944 | 89° | 162km/h | 11209m | 4.4m/s | -50.2°C | 76.4% | 232.3hPa | 2.9V | 18:12:15 | 00:51:35 | 00:00:00 | |
| DF8AY | 2026-09-04 10:23:57 | 52.76723 | 8.63011 | 89° | 162km/h | 11213m | 3.5m/s | -50.2°C | 76% | 232.2hPa | 2.9V | 18:12:15 | 00:51:36 | 00:00:00 | |
| DB0DAN | 2026-09-04 10:23:55 | 52.76722 | 8.62876 | 89° | 155km/h | 11205m | 3m/s | -50.1°C | 73.3% | 232.44hPa | 2.8V | 00:00:00 | 00:00:00 | 00:00:00 | |
| AA1-15 | 2026-09-04 10:23:52 | 52.76719 | 8.62674 | 89° | 161km/h | 11194m | 4m/s | -50°C | 77.7% | 232.8hPa | 2.9V | 18:12:15 | 00:51:31 | 00:00:00 | |
| DO2JMG | 2026-09-04 10:23:51 | 52.76718 | 8.62607 | 89° | 161km/h | 11190m | 2.2m/s | -50°C | 77.5% | 232.9hPa | 2.9V | 18:12:15 | 00:51:30 | 00:00:00 | |
| DL1XH-west | 2026-09-04 10:23:50 | 52.76717 | 8.62540 | 88° | 161km/h | 11187m | 4.3m/s | -50°C | 77.3% | 233.1hPa | 2.9V | 18:12:15 | 00:51:29 | 00:00:00 | |
| DM0DOS-11 | 2026-09-04 10:23:49 | 52.76710 | 8.62131 | 89° | 164km/h | 11165m | 2.5m/s | -49.9°C | 78.5% | 233.8hPa | 2.9V | 08:30:00 | 00:51:23 | 00:00:00 | |
| DJ2KF-10 | 2026-09-04 10:23:49 | 52.76716 | 8.62472 | 88° | 164km/h | 11184m | 3.0m/s | -50.0°C | 79.7% | 233.2hPa | 2.8V | 00:00:00 | 00:51:28 | 00:00:00 | |
| DL1XH1-15 | 2026-09-04 10:23:48 | 52.76709 | 8.62062 | 88° | 164km/h | 11161m | 4m/s | -49.9°C | 78.5% | 233.9hPa | 2.8V | 08:30:00 | 00:51:22 | 00:00:00 | |
| DF8AY | 2026-09-04 10:23:47 | 52.76713 | 8.62337 | 88° | 164km/h | 11176m | 3.8m/s | -50°C | 76.5% | 233.4hPa | 2.9V | 18:12:15 | 00:51:26 | 00:00:00 | |
| BIOWL1-15 | 2026-09-04 10:23:46 | 52.76712 | 8.62268 | 88° | 164km/h | 11172m | 3.6m/s | -49.9°C | 76% | 233.6hPa | 2.9V | 18:12:15 | 00:51:25 | 00:00:00 | |
| DF8AY | 2026-09-04 10:23:42 | 52.76705 | 8.61656 | 89° | 162km/h | 11138m | 3.4m/s | -49.6°C | 73.9% | 234.9hPa | 2.9V | 18:12:15 | 00:51:16 | 00:00:00 | |
| DD8BA-10 | 2026-09-04 10:23:42 | 52.76708 | 8.61994 | 89° | 162km/h | 11158m | 3.0m/s | -49.8°C | 78.5% | 234.1hPa | 2.8V | 00:00:00 | 00:00:00 | 00:00:00 | |
| DL1XH-15 | 2026-09-04 10:23:41 | 52.76704 | 8.61588 | 88° | 164km/h | 11134m | 3.9m/s | -49.6°C | 77.1% | 235hPa | 2.8V | 08:30:00 | 00:51:15 | 00:00:00 | |
| DO2JMG | 2026-09-04 10:23:41 | 52.76707 | 8.61926 | 89° | 162km/h | 11154m | 4.8m/s | -49.8°C | 74.3% | 234.3hPa | 2.9V | 18:12:15 | 00:51:20 | 00:00:00 | |
| DL1XH-west | 2026-09-04 10:23:39 | 52.76706 | 8.61791 | 89° | 162km/h | 11146m | 3.9m/s | -49.8°C | 74% | 234.6hPa | 2.9V | 18:12:15 | 00:51:18 | 00:00:00 | |
| DO9LL-15 | 2026-09-04 10:23:39 | 52.76706 | 8.61790 | 90° | 164km/h | 11146m | 3.9m/s | -49.7°C | 77.7% | 234.6hPa | 2.9V | 00:00:00 | 00:51:18 | 00:00:00 | |
| DL1XH1-15 | 2026-09-04 10:23:38 | 52.76700 | 8.61382 | 87° | 166km/h | 11123m | 3.3m/s | -49.6°C | 75.6% | 235.4hPa | 2.9V | 08:30:00 | 00:51:12 | 00:00:00 | |
| BIOWL1-15 | 2026-09-04 10:23:35 | 52.76703 | 8.61519 | 88° | 164km/h | 11130m | 3.5m/s | -49.6°C | 73.7% | 235.1hPa | 2.8V | 18:12:15 | 00:51:14 | 00:00:00 | |
| DJ2DS-15 | 2026-09-04 10:23:34 | 52.76701 | 8.61451 | 88° | 164km/h | 11127m | 3.8m/s | -49.5°C | 75.4% | 235.2hPa | 2.9V | 00:00:00 | 00:51:13 | 00:00:00 | |
| DF2AP-13 | 2026-09-04 10:23:33 | 52.76700 | 8.61382 | 88° | 166km/h | 11123m | 3.3m/s | 0°C | 0% | 0hPa | 2.9V | 00:00:00 | 00:51:12 | 00:00:00 | |
| DD8BA-10 | 2026-09-04 10:23:32 | 52.76698 | 8.61312 | 88° | 164km/h | 11119m | 4.1m/s | -49.5°C | 74.5% | 235.4hPa | 2.9V | 00:00:00 | 00:00:00 | 00:00:00 | |
| DL1XH-15 | 2026-09-04 10:23:31 | 52.76687 | 8.60897 | 88° | 161km/h | 11096m | 4.3m/s | -49.2°C | 73% | 236.3hPa | 2.9V | 08:30:00 | 00:51:05 | 00:00:00 | |
| DO2JMG | 2026-09-04 10:23:30 | 52.76694 | 8.61172 | 88° | 168km/h | 11111m | 4.5m/s | -49.5°C | 72.4% | 235.8hPa | 2.8V | 18:12:15 | 00:51:09 | 00:00:00 | |
| DL1XH-west | 2026-09-04 10:23:29 | 52.76692 | 8.61103 | 88° | 166km/h | 11108m | 2.9m/s | -49.4°C | 72.1% | 235.9hPa | 2.8V | 18:12:15 | 00:51:08 | 00:00:00 | |
| DF8AY | 2026-09-04 10:23:26 | 52.76687 | 8.60897 | 89° | 161km/h | 11096m | 4.4m/s | -49.3°C | 71.5% | 236.3hPa | 2.9V | 18:12:15 | 00:51:05 | 00:00:00 | |
| BIOWL1-15 | 2026-09-04 10:23:25 | 52.76686 | 8.60831 | 89° | 159km/h | 11092m | 3.2m/s | -49.2°C | 71.4% | 236.5hPa | 2.9V | 18:12:15 | 00:51:04 | 00:00:00 | |
| DB0DAN | 2026-09-04 10:23:25 | 52.76686 | 8.60831 | 89° | 151km/h | 11092m | 3.2m/s | -49.2°C | 67.7% | 236.5hPa | 2.9V | 00:00:00 | 00:00:00 | 00:00:00 | |
| DO3DL | 2026-09-04 10:23:24 | 52.76686 | 8.60831 | 90° | 159km/h | 11092m | 3.2m/s | -49.2°C | 67.7% | 236.5hPa | 2.8V | 00:00:00 | 00:00:00 | 00:00:00 | |
| DL1LOL-11 | 2026-09-04 10:23:23 | 52.76685 | 8.60765 | 89° | 157km/h | 11088m | 4.2m/s | -49.2°C | 68.0% | 236.6hPa | 2.8V | 00:00:00 | 00:00:00 | 00:00:00 | |
| DB0NH | 2026-09-04 10:23:22 | 52.76683 | 8.60634 | 89° | 164km/h | 11081m | 4.0m/s | -49.1°C | 74.7% | 236.9hPa | 2.8V | 00:00:00 | 00:51:01 | 00:00:00 | |
| DL1XH-15 | 2026-09-04 10:23:21 | 52.76674 | 8.60219 | 86° | 170km/h | 11059m | 3.2m/s | -48.9°C | 73% | 237.8hPa | 2.8V | 08:30:00 | 00:50:55 | 00:00:00 | |
| DO2JMG | 2026-09-04 10:23:19 | 52.76679 | 8.60430 | 88° | 166km/h | 11070m | 3.2m/s | -49.1°C | 71.1% | 237.2hPa | 2.9V | 18:12:15 | 00:50:58 | 00:00:00 | |
| DL1XH-west | 2026-09-04 10:23:18 | 52.76678 | 8.60360 | 88° | 170km/h | 11067m | 3.8m/s | -49°C | 71% | 237.4hPa | 2.9V | 18:12:15 | 00:50:57 | 00:00:00 | |
| DF8AY | 2026-09-04 10:23:16 | 52.76674 | 8.60219 | 87° | 170km/h | 11059m | 3.2m/s | -48.9°C | 70.8% | 237.8hPa | 2.8V | 18:12:15 | 00:50:55 | 00:00:00 | |
| BIOWL1-15 | 2026-09-04 10:23:14 | 52.76670 | 8.60079 | 88° | 166km/h | 11052m | 3.1m/s | -48.9°C | 70.7% | 238hPa | 2.9V | 18:12:15 | 00:50:53 | 00:00:00 | |
| DJ2DS-15 | 2026-09-04 10:23:14 | 52.76669 | 8.60079 | 88° | 162km/h | 11052m | 3.0m/s | -48.8°C | 72.8% | 238.0hPa | 2.9V | 00:00:00 | 00:50:53 | 00:00:00 | |
| DK9SH | 2026-09-04 10:23:13 | 52.76670 | 8.60079 | 89° | 166km/h | 11052m | 3.1m/s | -48.9°C | 67.4% | 238.0hPa | 2.9V | 00:00:00 | 00:00:00 | 00:00:00 | |
| DD8BA-10 | 2026-09-04 10:23:12 | 52.76666 | 8.59942 | 88° | 162km/h | 11044m | 3.9m/s | -48.8°C | 73.6% | 238.3hPa | 2.9V | 00:00:00 | 00:00:00 | 00:00:00 | |
| DL1XH-15 | 2026-09-04 10:23:11 | 52.76657 | 8.59541 | 87° | 164km/h | 11021m | 3.3m/s | -48.6°C | 73.2% | 239.1hPa | 2.9V | 08:30:00 | 00:50:45 | 00:00:00 | |
| DB0DAN | 2026-09-04 10:23:10 | 52.76663 | 8.59808 | 88° | 151km/h | 11036m | 3.1m/s | -48.8°C | 67.9% | 238.55hPa | 2.8V | 00:00:00 | 00:00:00 | 00:00:00 | |
| HSKMA3-T | 2026-09-04 10:23:09 | 52.76639 | 8.58790 | 87° | 162km/h | 10979m | 3.5m/s | 0°C | 0% | 0hPa | 2.9V | 18:12:15 | 00:50:34 | 00:00:00 | |
| DL1XH1-15 | 2026-09-04 10:23:08 | 52.76652 | 8.59334 | 87° | 166km/h | 11010m | 3.9m/s | -48.5°C | 73.6% | 239.4hPa | 2.8V | 08:30:00 | 00:50:42 | 00:00:00 | |
| AA1-15 | 2026-09-04 10:23:08 | 52.76660 | 8.59676 | 88° | 159km/h | 11028m | 3.1m/s | -48.7°C | 70.9% | 238.8hPa | 2.9V | 18:12:15 | 00:50:47 | 00:00:00 | |
| DL1XH-west | 2026-09-04 10:23:07 | 52.76658 | 8.59609 | 88° | 162km/h | 11025m | 3.9m/s | -48.6°C | 71% | 239hPa | 2.9V | 18:12:15 | 00:50:46 | 00:00:00 | |
| DF8AY | 2026-09-04 10:23:05 | 52.76655 | 8.59472 | 87° | 164km/h | 11018m | 4m/s | -48.6°C | 71.1% | 239.2hPa | 2.9V | 18:12:15 | 00:50:44 | 00:00:00 | |
| BIOWL1-15 | 2026-09-04 10:23:05 | 52.76652 | 8.59334 | 88° | 166km/h | 11010m | 3.9m/s | -48.5°C | 71.3% | 239.4hPa | 2.8V | 18:12:15 | 00:50:42 | 00:00:00 | |
| DO3DL | 2026-09-04 10:23:04 | 52.76655 | 8.59472 | 88° | 164km/h | 11018m | 4.0m/s | -48.6°C | 67.8% | 239.2hPa | 2.9V | 00:00:00 | 00:00:00 | 00:00:00 | |
| DD8BA-10 | 2026-09-04 10:23:02 | 52.76650 | 8.59266 | 88° | 162km/h | 11006m | 3.9m/s | -48.5°C | 73.3% | 239.5hPa | 2.9V | 00:00:00 | 00:00:00 | 00:00:00 | |
| DL1XH-15 | 2026-09-04 10:23:01 | 52.76640 | 8.58858 | 87° | 162km/h | 10983m | 4.7m/s | -48.3°C | 72.5% | 240.4hPa | 2.9V | 08:30:00 | 00:50:35 | 00:00:00 | |
| BUE01 | 2026-09-04 10:23:00 | 52.76647 | 8.59129 | 87° | 162km/h | 10999m | 4.6m/s | -48.5°C | 68.0% | 239.9hPa | 2.9V | 00:00:00 | 00:00:00 | 00:00:00 | |
| DM0DOS-11 | 2026-09-04 10:22:59 | 52.76637 | 8.58723 | 86° | 161km/h | 10975m | 4m/s | -48.3°C | 72.6% | 240.7hPa | 2.9V | 08:30:00 | 00:50:33 | 00:00:00 | |
| DO2JMG | 2026-09-04 10:22:58 | 52.76644 | 8.58993 | 88° | 162km/h | 10991m | 4.9m/s | -48.4°C | 70.9% | 240.2hPa | 2.8V | 18:12:15 | 00:50:37 | 00:00:00 | |
| AA1-15 | 2026-09-04 10:22:57 | 52.76642 | 8.58925 | 87° | 162km/h | 10987m | 3.2m/s | -48.3°C | 70.6% | 240.3hPa | 2.8V | 18:12:15 | 00:50:36 | 00:00:00 | |
| DL1XH-west | 2026-09-04 10:22:56 | 52.76640 | 8.58858 | 88° | 162km/h | 10983m | 4.7m/s | -48.3°C | 70.6% | 240.5hPa | 2.9V | 18:12:15 | 00:50:35 | 00:00:00 | |
| DF8AY | 2026-09-04 10:22:54 | 52.76637 | 8.58723 | 87° | 161km/h | 10975m | 4m/s | -48.3°C | 70.6% | 240.7hPa | 2.9V | 18:12:15 | 00:50:33 | 00:00:00 | |
| BIOWL1-15 | 2026-09-04 10:22:52 | 52.76633 | 8.58588 | 87° | 162km/h | 10967m | 2.7m/s | -48.1°C | 70.5% | 241.1hPa | 2.9V | 18:12:15 | 00:50:31 | 00:00:00 | |
| DB0NH | 2026-09-04 10:22:52 | 52.76632 | 8.58588 | 87° | 162km/h | 10967m | 2.7m/s | -48.1°C | 72.6% | 241.0hPa | 2.9V | 00:00:00 | 00:50:31 | 00:00:00 | |
| DL1XH-15 | 2026-09-04 10:22:51 | 52.76616 | 8.58179 | 86° | 166km/h | 10942m | 4.5m/s | -48°C | 71.2% | 241.9hPa | 2.9V | 08:30:00 | 00:50:25 | 00:00:00 | |
| GOEST3-10 | 2026-09-04 10:22:51 | 52.76630 | 8.58521 | 87° | 164km/h | 10963m | 5.6m/s | -48.1°C | 71.9% | 241.2hPa | 2.8V | 00:00:00 | 00:50:30 | 00:00:00 | |
| DM0DOS-11 | 2026-09-04 10:22:49 | 52.76611 | 8.58040 | 86° | 164km/h | 10934m | 4.3m/s | -47.9°C | 71.7% | 242.2hPa | 2.8V | 08:30:00 | 00:50:23 | 00:00:00 | |
| HSKMA3-T | 2026-09-04 10:22:48 | 52.76611 | 8.58040 | 86° | 164km/h | 10934m | 4.3m/s | 0°C | 0% | 0hPa | 2.8V | 18:12:15 | 00:50:23 | 00:00:00 | |
| DO2JMG | 2026-09-04 10:22:48 | 52.76622 | 8.58316 | 86° | 164km/h | 10950m | 4.5m/s | -48°C | 70.1% | 241.7hPa | 2.9V | 18:12:15 | 00:50:27 | 00:00:00 | |
| DL1XH-west | 2026-09-04 10:22:46 | 52.76616 | 8.58179 | 87° | 166km/h | 10942m | 4.5m/s | -48°C | 69.4% | 241.9hPa | 2.9V | 18:12:15 | 00:50:25 | 00:00:00 | |
| DL3AQ-11 | 2026-09-04 10:22:45 | 52.76614 | 8.58109 | 86° | 166km/h | 10938m | 3.0m/s | -48.0°C | 66.6% | 242.1hPa | 2.8V | 00:00:00 | 00:00:00 | 00:00:00 | |
| DF8AY | 2026-09-04 10:22:43 | 52.76608 | 8.57972 | 87° | 164km/h | 10931m | 3.2m/s | -47.9°C | 69% | 242.4hPa | 2.8V | 18:12:15 | 00:50:22 | 00:00:00 | |
| DD8BA-10 | 2026-09-04 10:22:42 | 52.76606 | 8.57903 | 87° | 162km/h | 10927m | 3.7m/s | -47.8°C | 71.0% | 242.5hPa | 2.9V | 00:00:00 | 00:00:00 | 00:00:00 | |
| BIOWL1-15 | 2026-09-04 10:22:42 | 52.76606 | 8.57903 | 87° | 164km/h | 10927m | 3.8m/s | -47.9°C | 68.7% | 242.5hPa | 2.9V | 18:12:15 | 00:50:21 | 00:00:00 | |
| DL1XH-15 | 2026-09-04 10:22:41 | 52.76593 | 8.57500 | 86° | 162km/h | 10904m | 3m/s | -47.6°C | 71% | 243.4hPa | 2.9V | 08:30:00 | 00:50:15 | 00:00:00 | |
| GOEST3-10 | 2026-09-04 10:22:41 | 52.76604 | 8.57835 | 88° | 161km/h | 10923m | 4.7m/s | -47.8°C | 71.1% | 242.6hPa | 2.9V | 00:00:00 | 00:50:20 | 00:00:00 | |
| DL3OBA | 2026-09-04 10:22:40 | 52.76604 | 8.57835 | 88° | 162km/h | 10923m | 4.8m/s | -47.8°C | 66.0% | 242.7hPa | 2.9V | 00:00:00 | 00:00:00 | 00:00:00 | |
| DM0DOS-11 | 2026-09-04 10:22:39 | 52.76588 | 8.57364 | 86° | 164km/h | 10896m | 3.7m/s | -47.6°C | 71.4% | 243.7hPa | 2.9V | 08:30:00 | 00:50:13 | 00:00:00 | |
| DO9LL-15 | 2026-09-04 10:22:39 | 52.76599 | 8.57701 | 88° | 162km/h | 10916m | 4.6m/s | -47.7°C | 72.4% | 242.9hPa | 2.9V | 00:00:00 | 00:50:18 | 00:00:00 | |
| DL1XH1-15 | 2026-09-04 10:22:38 | 52.76585 | 8.57295 | 85° | 164km/h | 10892m | 4.4m/s | -47.6°C | 71.4% | 243.8hPa | 2.9V | 08:30:00 | 00:50:12 | 00:00:00 | |
| DO2JMG | 2026-09-04 10:22:37 | 52.76596 | 8.57567 | 87° | 162km/h | 10908m | 4.8m/s | -47.7°C | 69.8% | 243.2hPa | 2.8V | 18:12:15 | 00:50:16 | 00:00:00 | |
| AA1-15 | 2026-09-04 10:22:36 | 52.76593 | 8.57500 | 87° | 162km/h | 10904m | 3m/s | -47.6°C | 69.7% | 243.4hPa | 2.9V | 18:12:15 | 00:50:15 | 00:00:00 | |
| DL1XH-west | 2026-09-04 10:22:35 | 52.76591 | 8.57432 | 87° | 164km/h | 10900m | 4.4m/s | -47.7°C | 69.6% | 243.5hPa | 2.9V | 18:12:15 | 00:50:14 | 00:00:00 | |
| BIOWL1-15 | 2026-09-04 10:22:33 | 52.76580 | 8.57158 | 87° | 166km/h | 10885m | 3.8m/s | -47.4°C | 68.9% | 244.1hPa | 2.8V | 18:12:15 | 00:50:10 | 00:00:00 | |
| DF8AY | 2026-09-04 10:22:32 | 52.76582 | 8.57227 | 86° | 164km/h | 10888m | 3.5m/s | -47.5°C | 69.1% | 244hPa | 2.9V | 18:12:15 | 00:50:11 | 00:00:00 | |
| DD8BA-10 | 2026-09-04 10:22:32 | 52.76582 | 8.57227 | 86° | 162km/h | 10888m | 3.5m/s | -47.4°C | 71.2% | 243.9hPa | 2.8V | 00:00:00 | 00:00:00 | 00:00:00 | |
| DL4BBY-15 | 2026-09-04 10:22:31 | 52.76580 | 8.57158 | 87° | 162km/h | 10885m | 3.8m/s | -47.7°C | 0% | 0hPa | 2.8V | 00:00:00 | 00:00:00 | 00:00:00 | |
| DO3DL | 2026-09-04 10:22:30 | 52.76580 | 8.57158 | 88° | 166km/h | 10885m | 3.8m/s | -47.4°C | 66.0% | 244.1hPa | 2.8V | 00:00:00 | 00:00:00 | 00:00:00 | |
| DM0DOS-11 | 2026-09-04 10:22:29 | 52.76566 | 8.56687 | 88° | 159km/h | 10859m | 5.1m/s | -47.3°C | 70.2% | 245.1hPa | 2.8V | 08:30:00 | 00:50:03 | 00:00:00 | |
| DL1XH1-15 | 2026-09-04 10:22:28 | 52.76564 | 8.56621 | 87° | 159km/h | 10855m | 3.5m/s | -47.2°C | 70.6% | 245.2hPa | 2.8V | 08:30:00 | 00:50:02 | 00:00:00 | |
| DO2JMG | 2026-09-04 10:22:27 | 52.76570 | 8.56886 | 88° | 161km/h | 10871m | 3.5m/s | -47.3°C | 68.5% | 244.7hPa | 2.9V | 18:12:15 | 00:50:06 | 00:00:00 | |
| DB0DAN | 2026-09-04 10:22:25 | 52.76567 | 8.56753 | 88° | 151km/h | 10863m | 3.8m/s | -47.3°C | 64.8% | 244.92hPa | 2.9V | 00:00:00 | 00:00:00 | 00:00:00 | |
| AA1-15 | 2026-09-04 10:22:25 | 52.76567 | 8.56753 | 88° | 159km/h | 10863m | 3.8m/s | -47.3°C | 68.1% | 244.9hPa | 2.9V | 18:12:15 | 00:50:04 | 00:00:00 | |
| DL1XH-west | 2026-09-04 10:22:24 | 52.76566 | 8.56687 | 88° | 159km/h | 10859m | 5.1m/s | -47.3°C | 68% | 245.1hPa | 2.8V | 18:12:15 | 00:50:03 | 00:00:00 | |
| BIOWL1-15 | 2026-09-04 10:22:21 | 52.76560 | 8.56488 | 86° | 162km/h | 10846m | 3.9m/s | -47.1°C | 69% | 245.5hPa | 2.9V | 18:12:15 | 00:50:00 | 00:00:00 | |
| GOEST3-10 | 2026-09-04 10:22:21 | 52.76560 | 8.56488 | 87° | 164km/h | 10847m | 3.9m/s | -47.1°C | 71.4% | 245.5hPa | 2.9V | 00:00:00 | 00:50:00 | 00:00:00 | |
| DM0DOS-11 | 2026-09-04 10:22:19 | 52.76541 | 8.56009 | 86° | 162km/h | 10818m | 3.3m/s | -46.9°C | 72.3% | 246.6hPa | 2.9V | 08:30:00 | 00:49:53 | 00:00:00 | |
| DL1XH1-15 | 2026-09-04 10:22:18 | 52.76538 | 8.55941 | 87° | 164km/h | 10814m | 5m/s | -46.9°C | 72.8% | 246.7hPa | 2.9V | 08:30:00 | 00:49:52 | 00:00:00 | |
| DO2JMG | 2026-09-04 10:22:16 | 52.76546 | 8.56146 | 87° | 166km/h | 10826m | 3.9m/s | -47°C | 70% | 246.3hPa | 2.9V | 18:12:15 | 00:49:55 | 00:00:00 | |
| AA1-15 | 2026-09-04 10:22:15 | 52.76543 | 8.56077 | 86° | 164km/h | 10822m | 4.7m/s | -47°C | 70% | 246.4hPa | 2.9V | 18:12:15 | 00:49:54 | 00:00:00 | |
| DL1XH-west | 2026-09-04 10:22:14 | 52.76541 | 8.56009 | 87° | 164km/h | 10818m | 3.3m/s | -46.9°C | 70.2% | 246.6hPa | 2.9V | 18:12:15 | 00:49:53 | 00:00:00 | |
| BIOWL1-15 | 2026-09-04 10:22:12 | 52.76532 | 8.55738 | 87° | 161km/h | 10802m | 3.7m/s | -46.8°C | 70.9% | 247.1hPa | 2.8V | 18:12:15 | 00:49:49 | 00:00:00 | |
| DF8AY | 2026-09-04 10:22:11 | 52.76534 | 8.55805 | 87° | 162km/h | 10806m | 4.2m/s | -46.9°C | 70.8% | 246.9hPa | 2.8V | 18:12:15 | 00:49:50 | 00:00:00 | |
| DB0DAN | 2026-09-04 10:22:10 | 52.76532 | 8.55738 | 87° | 153km/h | 10802m | 3.7m/s | -46.8°C | 68.1% | 247.12hPa | 2.8V | 00:00:00 | 00:00:00 | 00:00:00 | |
| DM0DOS-11 | 2026-09-04 10:22:09 | 52.76519 | 8.55333 | 87° | 162km/h | 10778m | 3.1m/s | -46.6°C | 77.2% | 248hPa | 2.8V | 08:30:00 | 00:49:43 | 00:00:00 | |
| DO9LL-15 | 2026-09-04 10:22:09 | 52.76530 | 8.55671 | 87° | 161km/h | 10799m | 4.4m/s | -46.7°C | 72.9% | 247.2hPa | 2.8V | 00:00:00 | 00:49:48 | 00:00:00 | |
| DL1XH1-15 | 2026-09-04 10:22:08 | 52.76517 | 8.55266 | 87° | 161km/h | 10774m | 5.1m/s | -46.5°C | 77.6% | 248.2hPa | 2.8V | 08:30:00 | 00:49:42 | 00:00:00 | |
| DO2JMG | 2026-09-04 10:22:06 | 52.76523 | 8.55468 | 87° | 162km/h | 10786m | 2.6m/s | -46.6°C | 72% | 247.8hPa | 2.9V | 18:12:15 | 00:49:45 | 00:00:00 | |
| AA1-15 | 2026-09-04 10:22:04 | 52.76519 | 8.55333 | 88° | 162km/h | 10778m | 3.1m/s | -46.6°C | 73.3% | 248hPa | 2.8V | 18:12:15 | 00:49:43 | 00:00:00 | |
| DL1XH-west | 2026-09-04 10:22:03 | 52.76517 | 8.55266 | 87° | 161km/h | 10774m | 5.1m/s | -46.5°C | 73.8% | 248.2hPa | 2.8V | 18:12:15 | 00:49:42 | 00:00:00 | |
| DD8BA-10 | 2026-09-04 10:22:02 | 52.76515 | 8.55199 | 87° | 162km/h | 10770m | 3.2m/s | -46.4°C | 78.5% | 248.3hPa | 2.8V | 00:00:00 | 00:00:00 | 00:00:00 | |
| DL1XH-15 | 2026-09-04 10:22:01 | 52.76502 | 8.54796 | 86° | 162km/h | 10745m | 4.3m/s | -46.3°C | 79.5% | 249.3hPa | 2.8V | 08:30:00 | 00:49:35 | 00:00:00 | |
| DF8AY | 2026-09-04 10:22:00 | 52.76511 | 8.55065 | 88° | 161km/h | 10762m | 3.9m/s | -46.5°C | 74.9% | 248.7hPa | 2.9V | 18:12:15 | 00:49:39 | 00:00:00 | |
| BIOWL1-15 | 2026-09-04 10:21:59 | 52.76509 | 8.54998 | 87° | 161km/h | 10757m | 5m/s | -46.4°C | 75.3% | 248.8hPa | 2.9V | 18:12:15 | 00:49:38 | 00:00:00 | |
| DL1XH1-15 | 2026-09-04 10:21:58 | 52.76495 | 8.54593 | 86° | 162km/h | 10733m | 3.2m/s | -46.2°C | 80.3% | 249.7hPa | 2.9V | 08:30:00 | 00:49:32 | 00:00:00 | |
| DO2JMG | 2026-09-04 10:21:55 | 52.76499 | 8.54729 | 86° | 162km/h | 10741m | 3m/s | -46.2°C | 76.8% | 249.4hPa | 2.9V | 18:12:15 | 00:49:34 | 00:00:00 | |
| AA1-15 | 2026-09-04 10:21:53 | 52.76494 | 8.54593 | 87° | 162km/h | 10733m | 3.2m/s | -46.2°C | 77.9% | 249.8hPa | 2.9V | 18:12:15 | 00:49:32 | 00:00:00 | |
| DL1XH-west | 2026-09-04 10:21:52 | 52.76492 | 8.54525 | 87° | 162km/h | 10730m | 4.5m/s | -46.2°C | 78.3% | 249.9hPa | 2.9V | 18:12:15 | 00:49:31 | 00:00:00 | |
| DD8BA-10 | 2026-09-04 10:21:52 | 52.76492 | 8.54525 | 87° | 159km/h | 10730m | 4.5m/s | -46.1°C | 80.7% | 249.8hPa | 2.9V | 00:00:00 | 00:00:00 | 00:00:00 | |
| DL1XH-15 | 2026-09-04 10:21:51 | 52.76481 | 8.54125 | 87° | 157km/h | 10704m | 5.2m/s | -45.9°C | 82.9% | 250.8hPa | 2.9V | 08:30:00 | 00:49:25 | 00:00:00 | |
| BIOWL1-15 | 2026-09-04 10:21:51 | 52.76486 | 8.54323 | 88° | 161km/h | 10717m | 3.5m/s | -46°C | 79.4% | 250.3hPa | 2.8V | 18:12:15 | 00:49:28 | 00:00:00 | |
| DF8AY | 2026-09-04 10:21:50 | 52.76488 | 8.54390 | 87° | 161km/h | 10721m | 4.2m/s | -46.1°C | 79.2% | 250.2hPa | 2.8V | 18:12:15 | 00:49:29 | 00:00:00 | |
| DL1XH1-15 | 2026-09-04 10:21:48 | 52.76476 | 8.53928 | 86° | 159km/h | 10691m | 3.4m/s | -45.8°C | 84.6% | 251.3hPa | 2.8V | 08:30:00 | 00:49:22 | 00:00:00 | |
| DO2JMG | 2026-09-04 10:21:45 | 52.76480 | 8.54060 | 88° | 157km/h | 10700m | 3.2m/s | -45.8°C | 79.3% | 251hPa | 2.9V | 18:12:15 | 00:49:24 | 00:00:00 | |
| SMARD9-15 | 2026-09-04 10:21:44 | 52.76478 | 8.53994 | 87° | 157km/h | 10696m | 4.7m/s | -45.8°C | 78.8% | 251.2hPa | 2.8V | 00:00:00 | 00:00:00 | 00:00:00 | |
| AA1-15 | 2026-09-04 10:21:43 | 52.76476 | 8.53928 | 87° | 159km/h | 10691m | 3.4m/s | -45.8°C | 79.9% | 251.3hPa | 2.8V | 18:12:15 | 00:49:22 | 00:00:00 | |
| DL1XH-west | 2026-09-04 10:21:42 | 52.76474 | 8.53862 | 87° | 161km/h | 10687m | 5.4m/s | -45.7°C | 80.3% | 251.4hPa | 2.8V | 18:12:15 | 00:49:21 | 00:00:00 | |
| DD8BA-10 | 2026-09-04 10:21:42 | 52.76473 | 8.53862 | 88° | 161km/h | 10687m | 5.4m/s | -45.7°C | 84.9% | 251.4hPa | 2.8V | 00:00:00 | 00:00:00 | 00:00:00 | |
| DL1XH-15 | 2026-09-04 10:21:41 | 52.76460 | 8.53459 | 86° | 159km/h | 10662m | 4.4m/s | -45.6°C | 85.6% | 252.4hPa | 2.8V | 08:30:00 | 00:49:15 | 00:00:00 | |
| DF8AY | 2026-09-04 10:21:39 | 52.76467 | 8.53661 | 87° | 162km/h | 10674m | 3.4m/s | -45.6°C | 81.7% | 251.9hPa | 2.9V | 18:12:15 | 00:49:18 | 00:00:00 | |
| BIOWL1-15 | 2026-09-04 10:21:38 | 52.76464 | 8.53593 | 87° | 162km/h | 10670m | 4.6m/s | -45.6°C | 81.8% | 252.1hPa | 2.9V | 18:12:15 | 00:49:17 | 00:00:00 | |
| DO2JMG | 2026-09-04 10:21:35 | 52.76458 | 8.53393 | 87° | 159km/h | 10658m | 4.3m/s | -45.5°C | 81.4% | 252.5hPa | 2.8V | 18:12:15 | 00:49:14 | 00:00:00 | |
| AA1-15 | 2026-09-04 10:21:33 | 52.76454 | 8.53261 | 87° | 157km/h | 10649m | 5m/s | -45.4°C | 81.3% | 252.9hPa | 2.9V | 18:12:15 | 00:49:12 | 00:00:00 | |
| DL1XH-west | 2026-09-04 10:21:32 | 52.76451 | 8.53195 | 87° | 159km/h | 10645m | 4.3m/s | -45.4°C | 81.5% | 253hPa | 2.9V | 18:12:15 | 00:49:11 | 00:00:00 | |
| DJ2DS-15 | 2026-09-04 10:21:32 | 52.76451 | 8.53195 | 87° | 159km/h | 10645m | 4.2m/s | -45.3°C | 85.7% | 253.0hPa | 2.9V | 00:00:00 | 00:49:11 | 00:00:00 | |
| DL4BBY-15 | 2026-09-04 10:21:31 | 52.76449 | 8.53129 | 88° | 159km/h | 10640m | 5.0m/s | -45.5°C | 0% | 0hPa | 2.9V | 00:00:00 | 00:00:00 | 00:00:00 | |
| DJ2KF-10 | 2026-09-04 10:21:30 | 52.76447 | 8.53063 | 87° | 161km/h | 10635m | 3.8m/s | -45.3°C | 85.4% | 253.3hPa | 2.9V | 00:00:00 | 00:49:09 | 00:00:00 | |
| BIOWL9-15 | 2026-09-04 10:21:29 | 52.76445 | 8.52996 | 86° | 159km/h | 10631m | 4.3m/s | -45.3°C | 80.9% | 253.6hPa | 2.9V | 00:00:00 | 00:00:00 | 00:00:00 | |
| DL1XH1-15 | 2026-09-04 10:21:28 | 52.76432 | 8.52598 | 87° | 161km/h | 10607m | 3.7m/s | -45°C | 84.9% | 254.5hPa | 2.9V | 08:30:00 | 00:49:02 | 00:00:00 | |
| BIOWL1-15 | 2026-09-04 10:21:28 | 52.76442 | 8.52930 | 87° | 161km/h | 10627m | 3.6m/s | -45.2°C | 81.5% | 253.7hPa | 2.8V | 18:12:15 | 00:49:07 | 00:00:00 | |
| DL4XJ-10 | 2026-09-04 10:21:28 | 52.76442 | 8.52930 | 87° | 161km/h | 10627m | 3.6m/s | -45.4°C | 0% | 0hPa | 2.9V | 00:00:00 | 00:00:00 | 00:00:00 | |
| BUE01 | 2026-09-04 10:21:27 | 52.76440 | 8.52863 | 87° | 159km/h | 10623m | 4.3m/s | -45.2°C | 80.8% | 253.9hPa | 2.9V | 00:00:00 | 00:00:00 | 00:00:00 | |
| DD1CC3-15 | 2026-09-04 10:21:26 | 52.76440 | 8.52863 | 88° | 161km/h | 10623m | 4.3m/s | -45.2°C | 80.8% | 253.9hPa | 2.9V | 00:00:00 | 00:00:00 | 00:00:00 | |
| DB0DAN | 2026-09-04 10:21:25 | 52.76436 | 8.52730 | 87° | 151km/h | 10616m | 4m/s | -45.2°C | 80.2% | 254.17hPa | 2.9V | 00:00:00 | 00:00:00 | 00:00:00 | |
| DO2JMG | 2026-09-04 10:21:24 | 52.76434 | 8.52664 | 87° | 159km/h | 10611m | 4.6m/s | -45.1°C | 81% | 254.3hPa | 2.9V | 18:12:15 | 00:49:03 | 00:00:00 | |
| AA1-15 | 2026-09-04 10:21:22 | 52.76430 | 8.52531 | 87° | 159km/h | 10603m | 5.3m/s | -45.1°C | 80.6% | 254.7hPa | 2.8V | 18:12:15 | 00:49:01 | 00:00:00 | |
| DL1XH-west | 2026-09-04 10:21:21 | 52.76428 | 8.52465 | 87° | 159km/h | 10598m | 3.6m/s | -45°C | 80.4% | 254.8hPa | 2.8V | 18:12:15 | 00:49:00 | 00:00:00 | |
| DF8AY | 2026-09-04 10:21:19 | 52.76421 | 8.52267 | 86° | 159km/h | 10585m | 4.8m/s | -44.9°C | 79.5% | 255.4hPa | 2.9V | 18:12:15 | 00:48:57 | 00:00:00 | |
| DL1XH1-15 | 2026-09-04 10:21:18 | 52.76406 | 8.51934 | 86° | 161km/h | 10563m | 5.5m/s | -44.7°C | 83% | 256.1hPa | 2.9V | 08:30:00 | 00:48:52 | 00:00:00 | |
| BIOWL1-15 | 2026-09-04 10:21:17 | 52.76418 | 8.52201 | 86° | 159km/h | 10581m | 4.9m/s | -44.8°C | 79.5% | 255.5hPa | 2.9V | 18:12:15 | 00:48:56 | 00:00:00 | |
| DO2JMG | 2026-09-04 10:21:14 | 52.76410 | 8.52001 | 86° | 161km/h | 10568m | 3.6m/s | -44.8°C | 79% | 256.1hPa | 2.8V | 18:12:15 | 00:48:53 | 00:00:00 | |
| AA1-15 | 2026-09-04 10:21:12 | 52.76404 | 8.51867 | 86° | 161km/h | 10559m | 3.1m/s | -44.6°C | 79.3% | 256.3hPa | 2.9V | 18:12:15 | 00:48:51 | 00:00:00 | |
| DJ2DS-15 | 2026-09-04 10:21:12 | 52.76404 | 8.51867 | 87° | 159km/h | 10559m | 3.0m/s | -44.5°C | 83.0% | 256.3hPa | 2.9V | 00:00:00 | 00:48:51 | 00:00:00 | |
| DL1XH-15 | 2026-09-04 10:21:11 | 52.76388 | 8.51468 | 86° | 159km/h | 10532m | 5.4m/s | -44.4°C | 84.7% | 257.4hPa | 2.9V | 08:30:00 | 00:48:45 | 00:00:00 | |
| DB0DAN | 2026-09-04 10:21:10 | 52.76398 | 8.51733 | 86° | 153km/h | 10550m | 4.3m/s | -44.6°C | 79.2% | 256.71hPa | 2.9V | 00:00:00 | 00:00:00 | 00:00:00 | |
| DL1XH-west | 2026-09-04 10:21:10 | 52.76398 | 8.51733 | 86° | 161km/h | 10550m | 4.3m/s | -44.6°C | 79.9% | 256.7hPa | 2.9V | 18:12:15 | 00:48:49 | 00:00:00 | |
| DM0DOS-11 | 2026-09-04 10:21:09 | 52.76383 | 8.51336 | 86° | 157km/h | 10523m | 5.7m/s | -44.4°C | 85% | 257.7hPa | 2.9V | 08:30:00 | 00:48:43 | 00:00:00 | |
| DF8AY | 2026-09-04 10:21:08 | 52.76393 | 8.51600 | 86° | 161km/h | 10541m | 4.8m/s | -44.5°C | 80.5% | 257hPa | 2.8V | 18:12:15 | 00:48:47 | 00:00:00 | |
| BIOWL1-15 | 2026-09-04 10:21:06 | 52.76388 | 8.51468 | 86° | 159km/h | 10532m | 5.4m/s | -44.4°C | 80.6% | 257.4hPa | 2.9V | 18:12:15 | 00:48:45 | 00:00:00 | |
| DO2JMG | 2026-09-04 10:21:04 | 52.76383 | 8.51336 | 86° | 159km/h | 10523m | 5.7m/s | -44.4°C | 80.7% | 257.7hPa | 2.9V | 18:12:15 | 00:48:43 | 00:00:00 | |
| AA1-15 | 2026-09-04 10:21:02 | 52.76378 | 8.51204 | 87° | 159km/h | 10514m | 4.3m/s | -44.3°C | 80.6% | 258.1hPa | 2.9V | 18:12:15 | 00:48:41 | 00:00:00 | |
| DD8BA-10 | 2026-09-04 10:21:02 | 52.76378 | 8.51204 | 87° | 161km/h | 10514m | 4.3m/s | -44.2°C | 85.3% | 258.0hPa | 2.9V | 00:00:00 | 00:00:00 | 00:00:00 | |
| DL1XH-15 | 2026-09-04 10:21:01 | 52.76363 | 8.50806 | 87° | 161km/h | 10486m | 5.7m/s | -44°C | 88.1% | 259.2hPa | 2.9V | 08:30:00 | 00:48:35 | 00:00:00 | |
| DL1XH-west | 2026-09-04 10:21:00 | 52.76373 | 8.51072 | 86° | 159km/h | 10504m | 4m/s | -44.2°C | 81% | 258.5hPa | 2.8V | 18:12:15 | 00:48:39 | 00:00:00 | |
| DF8AY | 2026-09-04 10:20:58 | 52.76368 | 8.50939 | 87° | 161km/h | 10495m | 4.5m/s | -44.1°C | 81.8% | 258.8hPa | 2.9V | 18:12:15 | 00:48:37 | 00:00:00 | |
| BIOWL1-15 | 2026-09-04 10:20:56 | 52.76364 | 8.50806 | 87° | 161km/h | 10486m | 5.7m/s | -44.1°C | 82.7% | 259.2hPa | 2.9V | 18:12:15 | 00:48:35 | 00:00:00 | |
| DB0DAN | 2026-09-04 10:20:55 | 52.76361 | 8.50739 | 87° | 153km/h | 10481m | 4.4m/s | -44°C | 83.9% | 259.33hPa | 2.9V | 00:00:00 | 00:00:00 | 00:00:00 | |
| DO2JMG | 2026-09-04 10:20:53 | 52.76357 | 8.50606 | 87° | 161km/h | 10472m | 4.5m/s | -43.9°C | 83.9% | 259.7hPa | 2.8V | 18:12:15 | 00:48:32 | 00:00:00 | |
| AA1-15 | 2026-09-04 10:20:51 | 52.76353 | 8.50473 | 87° | 159km/h | 10463m | 5.5m/s | -43.8°C | 84.5% | 260hPa | 2.9V | 18:12:15 | 00:48:30 | 00:00:00 | |
| DL1XH-west | 2026-09-04 10:20:49 | 52.76348 | 8.50341 | 87° | 157km/h | 10453m | 5.8m/s | -43.7°C | 85% | 260.4hPa | 2.9V | 18:12:15 | 00:48:28 | 00:00:00 | |
| DL1XH1-15 | 2026-09-04 10:20:48 | 52.76335 | 8.49948 | 87° | 161km/h | 10424m | 4.3m/s | -43.4°C | 90.5% | 261.5hPa | 2.9V | 08:30:00 | 00:48:22 | 00:00:00 | |
| DF8AY | 2026-09-04 10:20:47 | 52.76344 | 8.50211 | 87° | 157km/h | 10444m | 4.6m/s | -43.7°C | 85.5% | 260.9hPa | 2.9V | 18:12:15 | 00:48:26 | 00:00:00 | |
| BIOWL1-15 | 2026-09-04 10:20:46 | 52.76341 | 8.50146 | 87° | 157km/h | 10438m | 5.3m/s | -43.6°C | 85.7% | 261hPa | 2.8V | 18:12:15 | 00:48:25 | 00:00:00 | |
| DL3AQ-11 | 2026-09-04 10:20:45 | 52.76337 | 8.50014 | 86° | 157km/h | 10429m | 6.4m/s | -43.5°C | 85.3% | 261.4hPa | 2.9V | 00:00:00 | 00:00:00 | 00:00:00 | |
| DO2JMG | 2026-09-04 10:20:43 | 52.76335 | 8.49948 | 87° | 161km/h | 10424m | 4.3m/s | -43.4°C | 85.9% | 261.6hPa | 2.9V | 18:12:15 | 00:48:22 | 00:00:00 | |
| AA1-15 | 2026-09-04 10:20:41 | 52.76331 | 8.49814 | 87° | 162km/h | 10414m | 5.8m/s | -43.3°C | 85.6% | 262hPa | 2.9V | 18:12:15 | 00:48:20 | 00:00:00 | |
| DB0DAN | 2026-09-04 10:20:40 | 52.76329 | 8.49746 | 87° | 155km/h | 10410m | 4m/s | -43.3°C | 85.1% | 262.08hPa | 2.9V | 00:00:00 | 00:00:00 | 00:00:00 | |
| DM0DOS-11 | 2026-09-04 10:20:39 | 52.76315 | 8.49341 | 86° | 159km/h | 10381m | 5.6m/s | -43.1°C | 88.5% | 263.2hPa | 2.9V | 08:30:00 | 00:48:13 | 00:00:00 | |
| DL1XH-west | 2026-09-04 10:20:38 | 52.76324 | 8.49609 | 87° | 164km/h | 10400m | 4m/s | -43.3°C | 84.8% | 262.5hPa | 2.8V | 18:12:15 | 00:48:17 | 00:00:00 | |
| DF8AY | 2026-09-04 10:20:37 | 52.76322 | 8.49542 | 87° | 162km/h | 10395m | 5m/s | -43.2°C | 84.5% | 262.7hPa | 2.9V | 18:12:15 | 00:48:16 | 00:00:00 | |
| BIOWL1-15 | 2026-09-04 10:20:36 | 52.76320 | 8.49474 | 87° | 162km/h | 10390m | 4.7m/s | -43.2°C | 84.3% | 262.9hPa | 2.9V | 18:12:15 | 00:48:15 | 00:00:00 | |
| DO2JMG | 2026-09-04 10:20:33 | 52.76313 | 8.49275 | 86° | 159km/h | 10376m | 4.3m/s | -43°C | 83.5% | 263.4hPa | 2.9V | 18:12:15 | 00:48:12 | 00:00:00 | |
| DJ2DS-15 | 2026-09-04 10:20:32 | 52.76310 | 8.49209 | 87° | 161km/h | 10372m | 5.0m/s | -42.9°C | 88.5% | 263.6hPa | 2.9V | 00:00:00 | 00:48:11 | 00:00:00 | |
| DL1XH-15 | 2026-09-04 10:20:31 | 52.76297 | 8.48812 | 86° | 161km/h | 10344m | 3.2m/s | -42.7°C | 86.6% | 264.7hPa | 2.9V | 08:30:00 | 00:48:05 | 00:00:00 | |
| AA1-15 | 2026-09-04 10:20:30 | 52.76306 | 8.49077 | 87° | 159km/h | 10363m | 4.3m/s | -42.9°C | 82.7% | 264hPa | 2.8V | 18:12:15 | 00:48:09 | 00:00:00 | |
| DM0DOS-11 | 2026-09-04 10:20:29 | 52.76293 | 8.48678 | 86° | 162km/h | 10335m | 4.9m/s | -42.6°C | 86% | 265hPa | 2.8V | 08:30:00 | 00:48:03 | 00:00:00 | |
| DL1XH-west | 2026-09-04 10:20:28 | 52.76302 | 8.48945 | 87° | 159km/h | 10353m | 3.9m/s | -42.8°C | 82.1% | 264.4hPa | 2.9V | 18:12:15 | 00:48:07 | 00:00:00 | |
| DF8AY | 2026-09-04 10:20:27 | 52.76297 | 8.48812 | 87° | 161km/h | 10344m | 3.2m/s | -42.7°C | 81.8% | 264.7hPa | 2.9V | 18:12:15 | 00:48:05 | 00:00:00 | |
| DF5WG-10 | 2026-09-04 10:20:27 | 52.76299 | 8.48878 | 87° | 161km/h | 10349m | 5.4m/s | -42.7°C | 87.0% | 264.4hPa | 2.9V | 00:00:00 | 00:48:06 | 00:00:00 | |
| DB0DAN | 2026-09-04 10:20:25 | 52.76295 | 8.48745 | 87° | 153km/h | 10340m | 5.5m/s | -42.7°C | 81.7% | 264.84hPa | 2.9V | 00:00:00 | 00:00:00 | 00:00:00 | |
| BIOWL1-15 | 2026-09-04 10:20:25 | 52.76295 | 8.48745 | 87° | 161km/h | 10340m | 5.5m/s | -42.7°C | 81.6% | 264.8hPa | 2.9V | 18:12:15 | 00:48:04 | 00:00:00 | |
| DO2JMG | 2026-09-04 10:20:23 | 52.76291 | 8.48610 | 87° | 164km/h | 10330m | 4.4m/s | -42.6°C | 81.4% | 265.3hPa | 2.8V | 18:12:15 | 00:48:02 | 00:00:00 | |
| DD8BA-10 | 2026-09-04 10:20:22 | 52.76288 | 8.48542 | 87° | 159km/h | 10326m | 5.2m/s | -42.5°C | 87.0% | 265.4hPa | 2.9V | 00:00:00 | 00:00:00 | 00:00:00 | |
| DL1XH-15 | 2026-09-04 10:20:21 | 52.76275 | 8.48142 | 86° | 159km/h | 10297m | 4.9m/s | -42.3°C | 89% | 266.5hPa | 2.8V | 08:30:00 | 00:47:55 | 00:00:00 | |
| AA1-15 | 2026-09-04 10:20:20 | 52.76285 | 8.48407 | 87° | 161km/h | 10316m | 4.8m/s | -42.5°C | 82.2% | 265.8hPa | 2.9V | 18:12:15 | 00:47:59 | 00:00:00 | |
| DM0DOS-11 | 2026-09-04 10:20:19 | 52.76271 | 8.48011 | 86° | 157km/h | 10288m | 4.3m/s | -42.2°C | 90.6% | 266.9hPa | 2.9V | 08:30:00 | 00:47:53 | 00:00:00 | |
| DL1XH-west | 2026-09-04 10:20:17 | 52.76278 | 8.48208 | 87° | 159km/h | 10302m | 3.9m/s | -42.3°C | 83.4% | 266.4hPa | 2.9V | 18:12:15 | 00:47:56 | 00:00:00 | |
| DF8AY | 2026-09-04 10:20:16 | 52.76275 | 8.48142 | 87° | 159km/h | 10297m | 4.9m/s | -42.3°C | 84.1% | 266.5hPa | 2.8V | 18:12:15 | 00:47:55 | 00:00:00 | |
| BIOWL1-15 | 2026-09-04 10:20:14 | 52.76271 | 8.48011 | 87° | 157km/h | 10288m | 4.4m/s | -42.2°C | 85.4% | 266.9hPa | 2.9V | 18:12:15 | 00:47:53 | 00:00:00 | |
| DO2JMG | 2026-09-04 10:20:12 | 52.76266 | 8.47879 | 87° | 159km/h | 10278m | 3.7m/s | -42.1°C | 85.6% | 267.3hPa | 2.9V | 18:12:15 | 00:47:51 | 00:00:00 | |
| DD8BA-10 | 2026-09-04 10:20:12 | 52.76266 | 8.47879 | 87° | 162km/h | 10278m | 3.7m/s | -42.1°C | 90.9% | 267.3hPa | 2.9V | 00:00:00 | 00:00:00 | 00:00:00 | |
| DL1XH-15 | 2026-09-04 10:20:11 | 52.76255 | 8.47476 | 87° | 164km/h | 10250m | 5.8m/s | -42°C | 87.9% | 268.4hPa | 2.9V | 08:30:00 | 00:47:45 | 00:00:00 | |
| DB0DAN | 2026-09-04 10:20:10 | 52.76262 | 8.47747 | 87° | 153km/h | 10269m | 4.7m/s | -42.1°C | 85.4% | 267.66hPa | 2.9V | 00:00:00 | 00:00:00 | 00:00:00 | |
| AA1-15 | 2026-09-04 10:20:09 | 52.76260 | 8.47680 | 87° | 162km/h | 10264m | 4.7m/s | -42°C | 84.4% | 267.9hPa | 2.9V | 18:12:15 | 00:47:48 | 00:00:00 | |
| DO9LL-15 | 2026-09-04 10:20:09 | 52.76260 | 8.47680 | 88° | 161km/h | 10264m | 4.6m/s | -42.0°C | 89.5% | 267.8hPa | 2.9V | 00:00:00 | 00:47:48 | 08:30:00 | |
| DL1XH1-15 | 2026-09-04 10:20:08 | 52.76250 | 8.47271 | 87° | 164km/h | 10235m | 4.2m/s | -41.8°C | 87.7% | 268.9hPa | 2.9V | 08:30:00 | 00:47:42 | 00:00:00 | |
| DL1XH-west | 2026-09-04 10:20:07 | 52.76257 | 8.47544 | 88° | 162km/h | 10255m | 4.1m/s | -42°C | 83.2% | 268.2hPa | 2.8V | 18:12:15 | 00:47:46 | 00:00:00 | |
| DF8AY | 2026-09-04 10:20:05 | 52.76253 | 8.47408 | 88° | 164km/h | 10244m | 4.7m/s | -41.9°C | 82.2% | 268.6hPa | 2.9V | 18:12:15 | 00:47:44 | 00:00:00 | |
| BIOWL1-15 | 2026-09-04 10:20:03 | 52.76250 | 8.47271 | 88° | 164km/h | 10235m | 4.2m/s | -41.8°C | 81.8% | 268.9hPa | 2.9V | 18:12:15 | 00:47:42 | 00:00:00 | |
| DO2JMG | 2026-09-04 10:20:02 | 52.76249 | 8.47203 | 87° | 162km/h | 10231m | 4.5m/s | -41.8°C | 81.6% | 269.2hPa | 2.9V | 18:12:15 | 00:47:41 | 00:00:00 | |
| DD8BA-10 | 2026-09-04 10:20:02 | 52.76249 | 8.47203 | 88° | 159km/h | 10231m | 4.5m/s | -41.7°C | 88.2% | 269.2hPa | 2.9V | 00:00:00 | 00:00:00 | 00:00:00 | |
| DL1XH-15 | 2026-09-04 10:20:01 | 52.76236 | 8.46805 | 86° | 159km/h | 10201m | 4.7m/s | -41.5°C | 85.6% | 270.3hPa | 2.9V | 08:30:00 | 00:47:35 | 00:00:00 | |
| DL4BBY-15 | 2026-09-04 10:20:01 | 52.76247 | 8.47136 | 88° | 159km/h | 10226m | 5.1m/s | -41.9°C | 0% | 0hPa | 2.9V | 00:00:00 | 00:00:00 | 00:00:00 | |
| DL1CLM-18 | 2026-09-04 10:20:00 | 52.76247 | 8.47136 | 88° | 161km/h | 10226m | 5.1m/s | -41.7°C | 83.2% | 269.3hPa | 2.9V | 00:00:00 | 00:00:00 | 00:00:00 | |
| DM0DOS-11 | 2026-09-04 10:19:59 | 52.76231 | 8.46673 | 87° | 159km/h | 10192m | 3.5m/s | -41.4°C | 85.1% | 270.8hPa | 2.9V | 08:30:00 | 00:47:33 | 00:00:00 | |
| AA1-15 | 2026-09-04 10:19:59 | 52.76243 | 8.47003 | 87° | 159km/h | 10217m | 4.9m/s | -41.6°C | 81.6% | 269.7hPa | 2.9V | 18:12:15 | 00:47:38 | 00:00:00 | |
| DL1XH-west | 2026-09-04 10:19:57 | 52.76238 | 8.46871 | 87° | 157km/h | 10207m | 5.9m/s | -41.5°C | 81.4% | 270.1hPa | 2.9V | 18:12:15 | 00:47:36 | 00:00:00 | |
| DF8AY | 2026-09-04 10:19:54 | 52.76231 | 8.46673 | 87° | 159km/h | 10192m | 3.5m/s | -41.4°C | 80.7% | 270.8hPa | 2.9V | 18:12:15 | 00:47:33 | 00:00:00 | |
| DO2JMG | 2026-09-04 10:19:52 | 52.76229 | 8.46540 | 89° | 161km/h | 10183m | 3.6m/s | -41.3°C | 79.9% | 271.1hPa | 2.8V | 18:12:15 | 00:47:31 | 00:00:00 | |
| DJ2DS-15 | 2026-09-04 10:19:52 | 52.76229 | 8.46540 | 89° | 161km/h | 10183m | 3.6m/s | -41.3°C | 84.4% | 271.0hPa | 2.7V | 00:00:00 | 00:47:31 | 00:00:00 | |
| DL1XH-15 | 2026-09-04 10:19:51 | 52.76220 | 8.46137 | 86° | 161km/h | 10155m | 3.9m/s | -41°C | 83.1% | 272.2hPa | 2.9V | 08:30:00 | 00:47:25 | 00:00:00 | |
| GOEST3-10 | 2026-09-04 10:19:51 | 52.76228 | 8.46473 | 89° | 162km/h | 10178m | 5.3m/s | -41.3°C | 83.9% | 271.2hPa | 2.8V | 00:00:00 | 00:47:30 | 00:00:00 | |
| DM0DOS-11 | 2026-09-04 10:19:49 | 52.76216 | 8.46005 | 86° | 157km/h | 10146m | 4.1m/s | -41°C | 82.8% | 272.6hPa | 2.8V | 08:30:00 | 00:47:23 | 00:00:00 | |
| AA1-15 | 2026-09-04 10:19:48 | 52.76224 | 8.46271 | 88° | 161km/h | 10164m | 3.8m/s | -41.2°C | 78.5% | 271.8hPa | 2.9V | 18:12:15 | 00:47:27 | 00:00:00 | |
| DL1XH-west | 2026-09-04 10:19:46 | 52.76220 | 8.46137 | 87° | 161km/h | 10155m | 3.9m/s | -41°C | 78.1% | 272.2hPa | 2.9V | 18:12:15 | 00:47:25 | 00:00:00 | |
| DF8AY | 2026-09-04 10:19:44 | 52.76216 | 8.46005 | 87° | 159km/h | 10146m | 4.1m/s | -41°C | 77.6% | 272.6hPa | 2.8V | 18:12:15 | 00:47:23 | 00:00:00 | |
| BIOWL1-15 | 2026-09-04 10:19:42 | 52.76212 | 8.45873 | 87° | 157km/h | 10137m | 4.7m/s | -40.9°C | 77.2% | 272.9hPa | 2.9V | 18:12:15 | 00:47:21 | 00:00:00 | |
| DO2JMG | 2026-09-04 10:19:41 | 52.76210 | 8.45808 | 88° | 157km/h | 10132m | 4.6m/s | -40.8°C | 76.9% | 273.2hPa | 2.9V | 18:12:15 | 00:47:20 | 00:00:00 | |
| GOEST3-10 | 2026-09-04 10:19:41 | 52.76210 | 8.45808 | 88° | 159km/h | 10132m | 4.5m/s | -40.8°C | 82.7% | 273.1hPa | 2.9V | 00:00:00 | 00:47:20 | 00:00:00 | |
| SMARD9-15 | 2026-09-04 10:19:40 | 52.76209 | 8.45742 | 88° | 159km/h | 10128m | 4.4m/s | -40.8°C | 77.2% | 273.3hPa | 2.9V | 00:00:00 | 00:00:00 | 00:00:00 | |
| DM0DOS-11 | 2026-09-04 10:19:39 | 52.76202 | 8.45341 | 88° | 159km/h | 10098m | 5.7m/s | -40.5°C | 75% | 274.5hPa | 2.9V | 08:30:00 | 00:47:13 | 00:00:00 | |
| DO9LL-15 | 2026-09-04 10:19:39 | 52.76208 | 8.45675 | 89° | 161km/h | 10123m | 4.4m/s | -40.7°C | 79.7% | 273.5hPa | 2.9V | 00:00:00 | 00:47:18 | 00:00:00 | |
| DL1XH1-15 | 2026-09-04 10:19:38 | 52.76201 | 8.45275 | 88° | 159km/h | 10094m | 3.9m/s | -40.5°C | 74.6% | 274.7hPa | 2.9V | 08:30:00 | 00:47:12 | 00:00:00 | |
| AA1-15 | 2026-09-04 10:19:37 | 52.76206 | 8.45541 | 89° | 159km/h | 10114m | 4.5m/s | -40.7°C | 72.2% | 273.9hPa | 2.8V | 18:12:15 | 00:47:16 | 00:00:00 | |
| DL1XH-west | 2026-09-04 10:19:36 | 52.76205 | 8.45475 | 89° | 161km/h | 10109m | 6.1m/s | -40.6°C | 71.6% | 274.1hPa | 2.8V | 18:12:15 | 00:47:15 | 00:00:00 | |
| BIOWL1-15 | 2026-09-04 10:19:34 | 52.76200 | 8.45208 | 88° | 161km/h | 10089m | 5.7m/s | -40.5°C | 71.8% | 274.9hPa | 2.9V | 18:12:15 | 00:47:11 | 00:00:00 | |
| DF8AY | 2026-09-04 10:19:33 | 52.76201 | 8.45275 | 88° | 159km/h | 10094m | 3.9m/s | -40.5°C | 71.8% | 274.7hPa | 2.9V | 18:12:15 | 00:47:12 | 00:00:00 | |
| DO2JMG | 2026-09-04 10:19:31 | 52.76199 | 8.45141 | 88° | 161km/h | 10084m | 4.3m/s | -40.5°C | 71.3% | 275.1hPa | 2.9V | 18:12:15 | 00:47:10 | 00:00:00 | |
| DL4BBY-15 | 2026-09-04 10:19:31 | 52.76199 | 8.45141 | 89° | 161km/h | 10085m | 4.2m/s | -40.7°C | 0% | 0hPa | 2.9V | 00:00:00 | 00:00:00 | 00:00:00 | |
| DM0DOS-11 | 2026-09-04 10:19:29 | 52.76191 | 8.44671 | 88° | 161km/h | 10050m | 5m/s | -40.1°C | 73% | 276.4hPa | 2.9V | 08:30:00 | 00:47:03 | 00:00:00 | |
| DL1XH1-15 | 2026-09-04 10:19:28 | 52.76190 | 8.44604 | 88° | 159km/h | 10045m | 4.3m/s | -40°C | 72.2% | 276.7hPa | 2.9V | 08:30:00 | 00:47:02 | 00:00:00 | |
| AA1-15 | 2026-09-04 10:19:27 | 52.76194 | 8.44872 | 89° | 162km/h | 10064m | 4.7m/s | -40.2°C | 69.4% | 275.9hPa | 2.9V | 18:12:15 | 00:47:06 | 00:00:00 | |
| DL1XH-west | 2026-09-04 10:19:26 | 52.76193 | 8.44805 | 89° | 161km/h | 10059m | 4.7m/s | -40.2°C | 69.3% | 276.1hPa | 2.9V | 18:12:15 | 00:47:05 | 00:00:00 | |
| DB0DAN | 2026-09-04 10:19:25 | 52.76192 | 8.44738 | 89° | 153km/h | 10054m | 4.1m/s | -40.2°C | 69.4% | 276.23hPa | 2.9V | 00:00:00 | 00:00:00 | 00:00:00 | |
| DF8AY | 2026-09-04 10:19:23 | 52.76190 | 8.44604 | 89° | 159km/h | 10045m | 4.4m/s | -40°C | 67.9% | 276.7hPa | 2.9V | 18:12:15 | 00:47:02 | 00:00:00 | |
| BIOWL1-15 | 2026-09-04 10:19:21 | 52.76188 | 8.44472 | 89° | 159km/h | 10036m | 4.6m/s | -40°C | 67.4% | 277hPa | 2.8V | 18:12:15 | 00:47:00 | 00:00:00 | |
| DO2JMG | 2026-09-04 10:19:20 | 52.76188 | 8.44406 | 89° | 159km/h | 10032m | 4.4m/s | -39.9°C | 67.5% | 277.2hPa | 2.8V | 18:12:15 | 00:46:59 | 00:00:00 | |
| DM0DOS-11 | 2026-09-04 10:19:19 | 52.76181 | 8.44007 | 87° | 162km/h | 10002m | 4m/s | -39.7°C | 73% | 278.3hPa | 2.9V | 08:30:00 | 00:46:53 | 00:00:00 | |
| DL1XH1-15 | 2026-09-04 10:19:18 | 52.76180 | 8.43939 | 88° | 162km/h | 9997m | 5.1m/s | -39.6°C | 72.8% | 278.6hPa | 2.8V | 08:30:00 | 00:46:52 | 00:00:00 | |
| AA1-15 | 2026-09-04 10:19:16 | 52.76184 | 8.44141 | 88° | 161km/h | 10012m | 4.6m/s | -39.8°C | 69.8% | 278.1hPa | 2.9V | 18:12:15 | 00:46:55 | 00:00:00 | |
| DL1XH-west | 2026-09-04 10:19:15 | 52.76183 | 8.44074 | 88° | 161km/h | 10007m | 5.9m/s | -39.7°C | 70.4% | 278.1hPa | 2.9V | 18:12:15 | 00:46:54 | 00:00:00 | |
| DF8AY | 2026-09-04 10:19:12 | 52.76178 | 8.43872 | 88° | 162km/h | 9992m | 5.8m/s | -39.6°C | 69.2% | 278.8hPa | 2.8V | 18:12:15 | 00:46:51 | 00:00:00 | |
| DD8BA-10 | 2026-09-04 10:19:12 | 52.76178 | 8.43872 | 89° | 161km/h | 9992m | 5.7m/s | -39.5°C | 72.1% | 278.8hPa | 2.9V | 00:00:00 | 00:00:00 | 00:00:00 | |
| DL1XH-15 | 2026-09-04 10:19:11 | 52.76175 | 8.43470 | 88° | 161km/h | 9963m | 4.1m/s | -39.4°C | 69.2% | 280hPa | 2.9V | 08:30:00 | 00:46:45 | 00:00:00 | |
| DB0DAN | 2026-09-04 10:19:10 | 52.76176 | 8.43738 | 89° | 153km/h | 9982m | 5.6m/s | -39.5°C | 67.6% | 279.23hPa | 2.9V | 00:00:00 | 00:00:00 | 00:00:00 | |
| BIOWL1-15 | 2026-09-04 10:19:10 | 52.76176 | 8.43738 | 89° | 161km/h | 9982m | 5.6m/s | -39.5°C | 67.8% | 279.2hPa | 2.9V | 18:12:15 | 00:46:49 | 00:00:00 | |
| DO2JMG | 2026-09-04 10:19:09 | 52.76176 | 8.43670 | 90° | 161km/h | 9977m | 4.2m/s | -39.5°C | 67.2% | 279.5hPa | 2.9V | 18:12:15 | 00:46:48 | 00:00:00 | |
| DO9LL-15 | 2026-09-04 10:19:09 | 52.76176 | 8.43670 | 90° | 161km/h | 9977m | 4.2m/s | -39.4°C | 71.1% | 279.4hPa | 2.9V | 00:00:00 | 00:46:48 | 00:00:00 | |
| DL1XH1-15 | 2026-09-04 10:19:08 | 52.76172 | 8.43272 | 88° | 157km/h | 9949m | 4.1m/s | -39.3°C | 68.3% | 280.6hPa | 2.9V | 08:30:00 | 00:46:42 | 00:00:00 | |
| AA1-15 | 2026-09-04 10:19:06 | 52.76175 | 8.43470 | 89° | 161km/h | 9964m | 4.1m/s | -39.4°C | 65.7% | 280hPa | 2.9V | 18:12:15 | 00:46:45 | 00:00:00 | |
| DL1XH-west | 2026-09-04 10:19:04 | 52.76173 | 8.43338 | 89° | 159km/h | 9954m | 5.1m/s | -39.3°C | 64.7% | 280.4hPa | 2.8V | 18:12:15 | 00:46:43 | 00:00:00 | |
| DF8AY | 2026-09-04 10:19:02 | 52.76171 | 8.43206 | 89° | 159km/h | 9945m | 5.5m/s | -39.3°C | 65.4% | 280.8hPa | 2.9V | 18:12:15 | 00:46:41 | 00:00:00 | |
| DD8BA-10 | 2026-09-04 10:19:02 | 52.76171 | 8.43206 | 89° | 161km/h | 9945m | 5.4m/s | -39.2°C | 68.5% | 280.7hPa | 2.8V | 00:00:00 | 00:00:00 | 00:00:00 | |
| DL1XH-15 | 2026-09-04 10:19:01 | 52.76167 | 8.42804 | 88° | 162km/h | 9915m | 5.3m/s | -39°C | 68.4% | 281.9hPa | 2.8V | 08:30:00 | 00:46:35 | 00:00:00 | |
| BIOWL1-15 | 2026-09-04 10:19:00 | 52.76170 | 8.43073 | 89° | 159km/h | 9934m | 5.6m/s | -39.2°C | 66% | 281.2hPa | 2.9V | 18:12:15 | 00:46:39 | 00:00:00 | |
| DO2JMG | 2026-09-04 10:18:59 | 52.76169 | 8.43007 | 89° | 161km/h | 9929m | 4.4m/s | -39.2°C | 66.1% | 281.4hPa | 2.9V | 18:12:15 | 00:46:38 | 00:00:00 | |
| DL1XH1-15 | 2026-09-04 10:18:58 | 52.76165 | 8.42600 | 88° | 162km/h | 9901m | 5.7m/s | -38.9°C | 65.9% | 282.6hPa | 2.9V | 08:30:00 | 00:46:32 | 00:00:00 | |
| AA1-15 | 2026-09-04 10:18:55 | 52.76166 | 8.42736 | 89° | 164km/h | 9910m | 4.8m/s | -39°C | 64.3% | 282.2hPa | 2.9V | 18:12:15 | 00:46:34 | 00:00:00 | |
| DL1XH-west | 2026-09-04 10:18:54 | 52.76166 | 8.42668 | 89° | 162km/h | 9906m | 4.4m/s | -38.9°C | 63.8% | 282.4hPa | 2.9V | 18:12:15 | 00:46:33 | 00:00:00 | |
| DF8AY | 2026-09-04 10:18:51 | 52.76164 | 8.42466 | 90° | 159km/h | 9890m | 4.8m/s | -38.8°C | 61.7% | 283hPa | 2.9V | 18:12:15 | 00:46:30 | 00:00:00 | |
| BIOWL1-15 | 2026-09-04 10:18:49 | 52.76163 | 8.42334 | 90° | 159km/h | 9880m | 4.4m/s | -38.7°C | 61.2% | 283.4hPa | 2.8V | 18:12:15 | 00:46:28 | 00:00:00 | |
| DO2JMG | 2026-09-04 10:18:48 | 52.76163 | 8.42268 | 90° | 159km/h | 9876m | 5.3m/s | -38.6°C | 61.4% | 283.7hPa | 2.8V | 18:12:15 | 00:46:27 | 00:00:00 | |
| AA1-15 | 2026-09-04 10:18:45 | 52.76164 | 8.42070 | 90° | 161km/h | 9861m | 5m/s | -38.6°C | 59.6% | 284.3hPa | 2.9V | 18:12:15 | 00:46:24 | 00:00:00 | |
| DL1XH-west | 2026-09-04 10:18:44 | 52.76164 | 8.42003 | 91° | 161km/h | 9856m | 4.7m/s | -38.4°C | 58.7% | 284.4hPa | 2.9V | 18:12:15 | 00:46:23 | 00:00:00 | |
| DF8AY | 2026-09-04 10:18:41 | 52.76166 | 8.41801 | 91° | 161km/h | 9840m | 5.9m/s | -38.4°C | 56.4% | 285.1hPa | 2.8V | 18:12:15 | 00:46:20 | 00:00:00 | |
| DB0DAN | 2026-09-04 10:18:40 | 52.76166 | 8.41734 | 91° | 153km/h | 9836m | 4.2m/s | -38.2°C | 53.7% | 285.3hPa | 2.8V | 00:00:00 | 00:00:00 | 00:00:00 | |
| DO2SHX-10 | 2026-09-04 10:18:40 | 52.76166 | 8.41734 | 91° | 161km/h | 9836m | 4.1m/s | 0°C | 0% | 0hPa | 2.9V | 00:00:00 | 00:46:19 | 00:00:00 | |
| DM0DOS-11 | 2026-09-04 10:18:39 | 52.76166 | 8.41333 | 89° | 159km/h | 9805m | 4m/s | -38°C | 51.9% | 286.6hPa | 2.9V | 08:30:00 | 00:46:13 | 00:00:00 | |
| BIOWL1-15 | 2026-09-04 10:18:39 | 52.76166 | 8.41667 | 90° | 161km/h | 9830m | 5.9m/s | -38.2°C | 54.6% | 285.5hPa | 2.9V | 18:12:15 | 00:46:18 | 00:00:00 | |
| DO2JMG | 2026-09-04 10:18:38 | 52.76166 | 8.41600 | 90° | 161km/h | 9826m | 4.5m/s | -38.2°C | 53.5% | 285.7hPa | 2.9V | 18:12:15 | 00:46:17 | 00:00:00 | |
| AA1-15 | 2026-09-04 10:18:34 | 52.76166 | 8.41333 | 90° | 159km/h | 9805m | 4m/s | -38°C | 51.4% | 286.6hPa | 2.9V | 18:12:15 | 00:46:13 | 00:00:00 | |
| DL1XH-west | 2026-09-04 10:18:33 | 52.76166 | 8.41266 | 90° | 161km/h | 9801m | 5.3m/s | -38°C | 51.4% | 286.7hPa | 2.9V | 18:12:15 | 00:46:12 | 00:00:00 | |
| DJ2DS-15 | 2026-09-04 10:18:32 | 52.76166 | 8.41199 | 91° | 159km/h | 9796m | 4.6m/s | -37.8°C | 52.4% | 286.9hPa | 2.9V | 00:00:00 | 00:46:11 | 00:00:00 | |
| DL1XH-15 | 2026-09-04 10:18:31 | 52.76167 | 8.40798 | 90° | 159km/h | 9764m | 5.6m/s | -37.6°C | 53.5% | 288.2hPa | 2.9V | 08:30:00 | 00:46:05 | 00:00:00 | |
| DF8AY | 2026-09-04 10:18:30 | 52.76166 | 8.41065 | 90° | 161km/h | 9785m | 5.5m/s | -37.8°C | 51.9% | 287.4hPa | 2.9V | 18:12:15 | 00:46:09 | 00:00:00 | |
| DM0DOS-11 | 2026-09-04 10:18:29 | 52.76169 | 8.40667 | 91° | 157km/h | 9755m | 5.2m/s | -37.6°C | 54.4% | 288.6hPa | 2.8V | 08:30:00 | 00:46:03 | 00:00:00 | |
| BIOWL1-15 | 2026-09-04 10:18:28 | 52.76167 | 8.40931 | 90° | 161km/h | 9774m | 5.5m/s | -37.8°C | 51.9% | 287.8hPa | 2.9V | 18:12:15 | 00:46:07 | 00:00:00 | |
| DO2JMG | 2026-09-04 10:18:27 | 52.76167 | 8.40865 | 90° | 159km/h | 9769m | 4.1m/s | -37.7°C | 52.2% | 288hPa | 2.9V | 18:12:15 | 00:46:06 | 00:00:00 | |
| DB0DAN | 2026-09-04 10:18:25 | 52.76168 | 8.40732 | 91° | 151km/h | 9759m | 4.4m/s | -37.6°C | 50.7% | 288.45hPa | 2.9V | 00:00:00 | 00:00:00 | 00:00:00 | |
| AA1-15 | 2026-09-04 10:18:24 | 52.76169 | 8.40667 | 91° | 157km/h | 9755m | 5.2m/s | -37.6°C | 53.6% | 288.6hPa | 2.8V | 18:12:15 | 00:46:03 | 00:00:00 | |
| DL1XH-west | 2026-09-04 10:18:22 | 52.76170 | 8.40537 | 92° | 157km/h | 9745m | 5.6m/s | -37.5°C | 55.6% | 289.1hPa | 2.9V | 18:12:15 | 00:46:01 | 00:00:00 | |
| DD8BA-10 | 2026-09-04 10:18:22 | 52.76170 | 8.40536 | 92° | 159km/h | 9745m | 5.5m/s | -37.4°C | 57.3% | 289.0hPa | 2.9V | 00:00:00 | 00:00:00 | 00:00:00 | |
| DL1XH-15 | 2026-09-04 10:18:21 | 52.76174 | 8.40141 | 90° | 159km/h | 9716m | 6m/s | -37.2°C | 63.1% | 290.2hPa | 2.9V | 08:30:00 | 00:45:55 | 00:00:00 | |
| DF8AY | 2026-09-04 10:18:20 | 52.76172 | 8.40406 | 91° | 157km/h | 9736m | 5.4m/s | -37.4°C | 59.4% | 289.4hPa | 2.9V | 18:12:15 | 00:45:59 | 00:00:00 | |
| DL1LOL-11 | 2026-09-04 10:18:19 | 52.76172 | 8.40405 | 92° | 157km/h | 9736m | 5.4m/s | -37.4°C | 58.2% | 289.4hPa | 2.9V | 00:00:00 | 00:00:00 | 00:00:00 | |
| DL1XH1-15 | 2026-09-04 10:18:18 | 52.76174 | 8.39943 | 90° | 159km/h | 9700m | 4.8m/s | -37.1°C | 62.4% | 290.9hPa | 2.9V | 08:30:00 | 00:45:52 | 00:00:00 | |
| DO2JMG | 2026-09-04 10:18:17 | 52.76173 | 8.40208 | 91° | 159km/h | 9721m | 3.8m/s | -37.2°C | 60.7% | 290.1hPa | 2.9V | 18:12:15 | 00:45:56 | 00:00:00 | |
| AA1-15 | 2026-09-04 10:18:14 | 52.76174 | 8.40009 | 91° | 159km/h | 9705m | 5.2m/s | -37.1°C | 61.1% | 290.7hPa | 2.8V | 18:12:15 | 00:45:53 | 00:00:00 | |
| DL1XH-west | 2026-09-04 10:18:12 | 52.76175 | 8.39877 | 90° | 157km/h | 9695m | 4.4m/s | -37.1°C | 60.7% | 291.1hPa | 2.9V | 18:12:15 | 00:45:51 | 00:00:00 | |
| DF5WG-10 | 2026-09-04 10:18:12 | 52.76175 | 8.39877 | 91° | 159km/h | 9695m | 4.4m/s | -37.0°C | 63.1% | 291.1hPa | 2.9V | 00:00:00 | 00:45:51 | 00:00:00 | |
| DL1XH-15 | 2026-09-04 10:18:11 | 52.76178 | 8.39483 | 90° | 157km/h | 9665m | 3.9m/s | -36.8°C | 63.9% | 292.4hPa | 2.9V | 08:30:00 | 00:45:45 | 00:00:00 | |
| DB0DAN | 2026-09-04 10:18:10 | 52.76176 | 8.39746 | 91° | 150km/h | 9685m | 4.4m/s | -37°C | 61.2% | 291.55hPa | 2.9V | 00:00:00 | 00:00:00 | 00:00:00 | |
| DF8AY-15 | 2026-09-04 10:18:10 | 52.76176 | 8.39745 | 92° | 159km/h | 9685m | 4.3m/s | 0°C | 0% | 0hPa | 2.9V | 00:00:00 | 00:45:49 | 00:00:00 | |
| DM0DOS-11 | 2026-09-04 10:18:09 | 52.76178 | 8.39351 | 89° | 159km/h | 9655m | 4.1m/s | -36.7°C | 67.4% | 292.8hPa | 2.9V | 08:30:00 | 00:45:43 | 00:00:00 | |
| DF8AY | 2026-09-04 10:18:09 | 52.76177 | 8.39680 | 91° | 157km/h | 9680m | 5.4m/s | -36.9°C | 60.7% | 291.8hPa | 2.8V | 18:12:15 | 00:45:48 | 00:00:00 | |
| BIOWL1-15 | 2026-09-04 10:18:09 | 52.76178 | 8.39549 | 91° | 159km/h | 9669m | 5.7m/s | -36.9°C | 60.2% | 292.2hPa | 2.9V | 18:12:15 | 00:45:46 | 00:00:00 | |
| DO2JMG | 2026-09-04 10:18:06 | 52.76178 | 8.39483 | 91° | 159km/h | 9665m | 3.9m/s | -36.8°C | 61.5% | 292.4hPa | 2.9V | 18:12:15 | 00:45:45 | 00:00:00 | |
| AA1-15 | 2026-09-04 10:18:03 | 52.76178 | 8.39285 | 90° | 159km/h | 9651m | 5.2m/s | -36.6°C | 64.9% | 293hPa | 2.9V | 18:12:15 | 00:45:42 | 00:00:00 | |
| DF5WG-10 | 2026-09-04 10:18:02 | 52.76177 | 8.39218 | 90° | 159km/h | 9646m | 4.3m/s | -36.5°C | 67.3% | 293.1hPa | 2.7V | 00:00:00 | 00:45:41 | 00:00:00 | |
| DL1XH-15 | 2026-09-04 10:18:01 | 52.76180 | 8.38822 | 91° | 159km/h | 9616m | 5.5m/s | -36.3°C | 58.3% | 294.4hPa | 2.9V | 08:30:00 | 00:45:35 | 00:00:00 | |
| DL1XH-west | 2026-09-04 10:18:01 | 52.76177 | 8.39152 | 90° | 157km/h | 9641m | 5.1m/s | -36.5°C | 64.3% | 293.5hPa | 2.8V | 18:12:15 | 00:45:40 | 00:00:00 | |
| DL4BBY-15 | 2026-09-04 10:18:01 | 52.76177 | 8.39152 | 90° | 159km/h | 9641m | 5.1m/s | -36.7°C | 0% | 0hPa | 2.9V | 00:00:00 | 00:00:00 | 00:00:00 | |
| DM0DOS-11 | 2026-09-04 10:17:59 | 52.76182 | 8.38689 | 90° | 159km/h | 9605m | 5m/s | -36.2°C | 58.8% | 294.9hPa | 2.9V | 08:30:00 | 00:45:33 | 00:00:00 | |
| DL1XH1-15 | 2026-09-04 10:17:58 | 52.76183 | 8.38623 | 90° | 159km/h | 9601m | 5m/s | -36.1°C | 57.6% | 295.1hPa | 2.8V | 08:30:00 | 00:45:32 | 00:00:00 | |
| DF8AY | 2026-09-04 10:17:58 | 52.76178 | 8.38954 | 91° | 157km/h | 9626m | 6.2m/s | -36.4°C | 59.3% | 293.9hPa | 2.9V | 18:12:15 | 00:45:37 | 00:00:00 | |
| BIOWL1-15 | 2026-09-04 10:17:58 | 52.76180 | 8.38822 | 92° | 159km/h | 9616m | 5.5m/s | -36.3°C | 57.2% | 294.4hPa | 2.9V | 18:12:15 | 00:45:35 | 00:00:00 | |
| DO2JMG | 2026-09-04 10:17:55 | 52.76181 | 8.38756 | 91° | 159km/h | 9611m | 5.1m/s | -36.3°C | 57.4% | 294.8hPa | 2.9V | 18:12:15 | 00:45:34 | 00:00:00 | |
| AA1-15 | 2026-09-04 10:17:53 | 52.76183 | 8.38623 | 91° | 161km/h | 9601m | 5m/s | -36.2°C | 56.7% | 295.1hPa | 2.8V | 18:12:15 | 00:45:32 | 00:00:00 | |
| BIOWL9-15 | 2026-09-04 10:17:52 | 52.76183 | 8.38490 | 89° | 157km/h | 9591m | 5.3m/s | -36.1°C | 52.7% | 295.5hPa | 2.8V | 00:00:00 | 00:00:00 | 00:00:00 | |
| GOEST3-10 | 2026-09-04 10:17:51 | 52.76183 | 8.38490 | 90° | 159km/h | 9591m | 5.2m/s | -36.0°C | 55.7% | 295.4hPa | 2.8V | 00:00:00 | 00:45:30 | 00:00:00 | |
| DL1XH-west | 2026-09-04 10:17:51 | 52.76183 | 8.38490 | 90° | 159km/h | 9591m | 5.3m/s | -36.1°C | 55.1% | 295.5hPa | 2.9V | 18:12:15 | 00:45:30 | 00:00:00 | |
| DO2LYB-13 | 2026-09-04 10:17:50 | 52.76183 | 8.38490 | 91° | 159km/h | 9591m | 5.3m/s | -36.1°C | 52.7% | 295.5hPa | 2.8V | 00:00:00 | 00:00:00 | 00:00:00 | |
| DM0DOS-11 | 2026-09-04 10:17:49 | 52.76183 | 8.38026 | 91° | 161km/h | 9557m | 4.4m/s | -35.8°C | 45.5% | 297hPa | 2.8V | 08:30:00 | 00:45:23 | 00:00:00 | |
| DF8AY-15 | 2026-09-04 10:17:49 | 52.76182 | 8.38358 | 90° | 159km/h | 9581m | 4.9m/s | 0°C | 0% | 0hPa | 2.8V | 00:00:00 | 00:45:28 | 00:00:00 | |
| DL1XH1-15 | 2026-09-04 10:17:48 | 52.76185 | 8.37959 | 91° | 161km/h | 9552m | 5.6m/s | -35.7°C | 44.4% | 297.2hPa | 2.8V | 08:30:00 | 00:45:22 | 00:00:00 | |
| DF8AY | 2026-09-04 10:17:47 | 52.76181 | 8.38226 | 90° | 159km/h | 9571m | 5.4m/s | -35.9°C | 52.7% | 296.3hPa | 2.9V | 18:12:15 | 00:45:26 | 00:00:00 | |
| DO2JMG | 2026-09-04 10:17:45 | 52.76182 | 8.38093 | 91° | 161km/h | 9562m | 6m/s | -35.8°C | 48.7% | 296.8hPa | 2.9V | 18:12:15 | 00:45:24 | 00:00:00 | |
| AA1-15 | 2026-09-04 10:17:42 | 52.76186 | 8.37893 | 92° | 159km/h | 9547m | 4.1m/s | -35.7°C | 45.9% | 297.4hPa | 2.9V | 18:12:15 | 00:45:21 | 00:00:00 | |
| DL1XH-west | 2026-09-04 10:17:41 | 52.76187 | 8.37826 | 91° | 161km/h | 9542m | 5.3m/s | -35.6°C | 46.6% | 297.6hPa | 2.9V | 18:12:15 | 00:45:20 | 00:00:00 | |
| GOEST3-10 | 2026-09-04 10:17:41 | 52.76187 | 8.37826 | 92° | 159km/h | 9542m | 5.3m/s | -35.6°C | 46.3% | 297.5hPa | 2.8V | 00:00:00 | 00:45:20 | 00:00:00 | |
| DD1CC3-15 | 2026-09-04 10:17:40 | 52.76187 | 8.37826 | 92° | 161km/h | 9542m | 5.3m/s | -35.6°C | 43.6% | 297.6hPa | 2.8V | 00:00:00 | 00:00:00 | 00:00:00 | |
| DM0DOS-11 | 2026-09-04 10:17:39 | 52.76192 | 8.37361 | 90° | 161km/h | 9509m | 5m/s | -35.3°C | 46.2% | 298.9hPa | 2.8V | 08:30:00 | 00:45:13 | 00:00:00 | |
| BIOWL1-15 | 2026-09-04 10:17:39 | 52.76191 | 8.37427 | 91° | 161km/h | 9514m | 4.8m/s | -35.4°C | 46.9% | 298.7hPa | 2.8V | 18:12:15 | 00:45:14 | 00:00:00 | |
| DO9LL-15 | 2026-09-04 10:17:39 | 52.76189 | 8.37692 | 92° | 159km/h | 9533m | 5.4m/s | -35.5°C | 47.1% | 297.9hPa | 2.9V | 00:00:00 | 00:45:18 | 00:00:00 | |
| DL1XH1-15 | 2026-09-04 10:17:38 | 52.76192 | 8.37294 | 90° | 161km/h | 9503m | 5.8m/s | -35.3°C | 46.3% | 299.2hPa | 2.9V | 08:30:00 | 00:45:12 | 00:00:00 | |
| DF8AY | 2026-09-04 10:17:36 | 52.76191 | 8.37494 | 90° | 159km/h | 9519m | 4.4m/s | -35.4°C | 47.1% | 298.6hPa | 2.9V | 18:12:15 | 00:45:15 | 00:00:00 | |
| DO2JMG | 2026-09-04 10:17:34 | 52.76192 | 8.37361 | 91° | 161km/h | 9509m | 5m/s | -35.3°C | 46.7% | 299hPa | 2.8V | 18:12:15 | 00:45:13 | 00:00:00 | |
| AA1-15 | 2026-09-04 10:17:32 | 52.76193 | 8.37227 | 91° | 162km/h | 9499m | 3.3m/s | -35.2°C | 46.8% | 299.4hPa | 2.9V | 18:12:15 | 00:45:11 | 00:00:00 | |
| DL1XH-west | 2026-09-04 10:17:30 | 52.76195 | 8.37093 | 92° | 159km/h | 9490m | 4.1m/s | -35.1°C | 47.1% | 299.8hPa | 2.9V | 18:12:15 | 00:45:09 | 00:00:00 | |
| DM0DOS-11 | 2026-09-04 10:17:29 | 52.76202 | 8.36699 | 91° | 157km/h | 9462m | 4.4m/s | -35°C | 48% | 301hPa | 2.9V | 08:30:00 | 00:45:03 | 00:00:00 | |
| DO3DL | 2026-09-04 10:17:29 | 52.76195 | 8.37026 | 92° | 159km/h | 9485m | 5.4m/s | -35.1°C | 44.5% | 300.0hPa | 2.9V | 00:00:00 | 00:00:00 | 00:00:00 | |
| DL1XH1-15 | 2026-09-04 10:17:28 | 52.76202 | 8.36633 | 90° | 161km/h | 9457m | 5m/s | -35°C | 49.2% | 301.2hPa | 2.9V | 08:30:00 | 00:45:02 | 00:00:00 | |
| DF8AY | 2026-09-04 10:17:25 | 52.76201 | 8.36764 | 91° | 157km/h | 9466m | 5.3m/s | -35°C | 47.3% | 300.8hPa | 2.8V | 18:12:15 | 00:45:04 | 00:00:00 | |
| DO2JMG | 2026-09-04 10:17:24 | 52.76201 | 8.36699 | 91° | 157km/h | 9462m | 4.4m/s | -35°C | 48% | 301hPa | 2.9V | 18:12:15 | 00:45:03 | 00:00:00 | |
| DJ2DS-15 | 2026-09-04 10:17:23 | 52.76202 | 8.36633 | 90° | 159km/h | 9457m | 5.0m/s | -35.0°C | 46.4% | 301.2hPa | 2.8V | 00:00:00 | 00:00:00 | 00:00:00 | |
| DF5WG-10 | 2026-09-04 10:17:22 | 52.76203 | 8.36566 | 91° | 159km/h | 9453m | 3.3m/s | -34.8°C | 49.5% | 301.2hPa | 2.8V | 00:00:00 | 00:45:01 | 00:00:00 | |
| DL1XH-15 | 2026-09-04 10:17:21 | 52.76203 | 8.36168 | 90° | 157km/h | 9426m | 4.7m/s | -34.7°C | 52.5% | 302.6hPa | 2.8V | 08:30:00 | 00:44:55 | 00:00:00 | |
| AA1-15 | 2026-09-04 10:17:21 | 52.76203 | 8.36499 | 90° | 159km/h | 9448m | 4.9m/s | -34.9°C | 50.1% | 301.5hPa | 2.9V | 18:12:15 | 00:45:00 | 00:00:00 | |
| DL1XH-west | 2026-09-04 10:17:20 | 52.76203 | 8.36433 | 90° | 161km/h | 9444m | 4.5m/s | -34.8°C | 50.8% | 301.8hPa | 2.9V | 18:12:15 | 00:44:59 | 00:00:00 | |
| DD1CC3-15 | 2026-09-04 10:17:19 | 52.76203 | 8.36433 | 91° | 161km/h | 9444m | 4.5m/s | -34.8°C | 48.3% | 301.8hPa | 2.9V | 00:00:00 | 00:00:00 | 00:00:00 | |
| DL1XH1-15 | 2026-09-04 10:17:18 | 52.76206 | 8.35971 | 92° | 157km/h | 9411m | 4.2m/s | -34.5°C | 53.1% | 303.2hPa | 2.9V | 08:30:00 | 00:44:52 | 00:00:00 | |
| DF8AY | 2026-09-04 10:17:15 | 52.76204 | 8.36102 | 92° | 159km/h | 9421m | 4.3m/s | -34.6°C | 52.3% | 302.8hPa | 2.9V | 18:12:15 | 00:44:54 | 00:00:00 | |
| BIOWL1-15 | 2026-09-04 10:17:14 | 52.76205 | 8.36036 | 92° | 157km/h | 9416m | 5.6m/s | -34.6°C | 52.3% | 303hPa | 2.9V | 18:12:15 | 00:44:53 | 00:00:00 | |
| DO2JMG | 2026-09-04 10:17:13 | 52.76206 | 8.35971 | 92° | 157km/h | 9411m | 4.2m/s | -34.5°C | 52.8% | 303.2hPa | 2.9V | 18:12:15 | 00:44:52 | 00:00:00 | |
| DJ2KF-10 | 2026-09-04 10:17:13 | 52.76206 | 8.35971 | 93° | 159km/h | 9411m | 4.1m/s | -34.5°C | 53.1% | 303.2hPa | 2.9V | 00:00:00 | 00:44:52 | 00:00:00 | |
| DJ2DS-15 | 2026-09-04 10:17:12 | 52.76208 | 8.35905 | 93° | 159km/h | 9407m | 5.2m/s | -34.5°C | 53.4% | 303.3hPa | 2.9V | 00:00:00 | 00:44:51 | 00:00:00 | |
| DL1XH-15 | 2026-09-04 10:17:11 | 52.76218 | 8.35510 | 91° | 159km/h | 9379m | 4.7m/s | -34.3°C | 58.2% | 304.6hPa | 2.9V | 08:30:00 | 00:44:45 | 00:00:00 | |
| DB0DAN | 2026-09-04 10:17:10 | 52.76212 | 8.35774 | 93° | 150km/h | 9398m | 4.8m/s | -34.4°C | 52.1% | 303.85hPa | 2.9V | 00:00:00 | 00:00:00 | 00:00:00 | |
| AA1-15 | 2026-09-04 10:17:10 | 52.76212 | 8.35774 | 93° | 157km/h | 9398m | 4.8m/s | -34.4°C | 54.4% | 303.9hPa | 2.9V | 18:12:15 | 00:44:49 | 00:00:00 | |
| DL1XH-west | 2026-09-04 10:17:09 | 52.76214 | 8.35708 | 93° | 159km/h | 9393m | 5.7m/s | -34.4°C | 55.3% | 304.1hPa | 2.9V | 18:12:15 | 00:44:48 | 00:00:00 | |
| DO9LL-15 | 2026-09-04 10:17:09 | 52.76214 | 8.35708 | 93° | 159km/h | 9393m | 5.6m/s | -34.3°C | 56.0% | 304.0hPa | 2.9V | 00:00:00 | 00:44:48 | 00:00:00 | |
| DL1XH1-15 | 2026-09-04 10:17:08 | 52.76219 | 8.35311 | 90° | 157km/h | 9366m | 4.5m/s | -34.2°C | 58.5% | 305.2hPa | 2.8V | 08:30:00 | 00:44:42 | 00:00:00 | |
| BIOWL1-15 | 2026-09-04 10:17:04 | 52.76219 | 8.35377 | 90° | 159km/h | 9370m | 4.5m/s | -34.2°C | 57.9% | 305hPa | 2.9V | 18:12:15 | 00:44:43 | 00:00:00 | |
| DO2JMG | 2026-09-04 10:17:02 | 52.76220 | 8.35245 | 91° | 159km/h | 9360m | 5.8m/s | -34.2°C | 58% | 305.5hPa | 2.8V | 18:12:15 | 00:44:41 | 00:00:00 | |
| DD8BA-10 | 2026-09-04 10:17:02 | 52.76219 | 8.35245 | 91° | 159km/h | 9361m | 5.8m/s | -34.1°C | 58.2% | 305.4hPa | 2.9V | 00:00:00 | 00:00:00 | 00:00:00 | |
| DL1XH-15 | 2026-09-04 10:17:01 | 52.76228 | 8.34849 | 93° | 159km/h | 9332m | 5.3m/s | -33.9°C | 57.5% | 306.6hPa | 2.9V | 08:30:00 | 00:44:35 | 00:00:00 | |
| AA1-15 | 2026-09-04 10:16:59 | 52.76222 | 8.35048 | 92° | 157km/h | 9347m | 3.9m/s | -34°C | 58.2% | 306.1hPa | 2.9V | 18:12:15 | 00:44:38 | 00:00:00 | |
| DL1XH-west | 2026-09-04 10:16:58 | 52.76224 | 8.34982 | 92° | 159km/h | 9342m | 5.6m/s | -34°C | 57.9% | 306.3hPa | 2.9V | 18:12:15 | 00:44:37 | 00:00:00 | |
| DL3AQ-11 | 2026-09-04 10:16:57 | 52.76225 | 8.34916 | 92° | 159km/h | 9337m | 3.9m/s | -33.9°C | 55.2% | 306.5hPa | 2.9V | 00:00:00 | 00:00:00 | 00:00:00 | |
| DL1LOL-11 | 2026-09-04 10:16:56 | 52.76225 | 8.34916 | 94° | 159km/h | 9337m | 3.9m/s | -33.9°C | 55.2% | 306.5hPa | 2.9V | 00:00:00 | 00:00:00 | 00:00:00 | |
| DB0DAN | 2026-09-04 10:16:55 | 52.76230 | 8.34783 | 93° | 151km/h | 9327m | 4.7m/s | -33.9°C | 54.5% | 306.91hPa | 2.9V | 00:00:00 | 00:00:00 | 00:00:00 | |
| BIOWL1-15 | 2026-09-04 10:16:54 | 52.76232 | 8.34717 | 93° | 161km/h | 9323m | 4.7m/s | -33.8°C | 56.4% | 307.2hPa | 2.9V | 18:12:15 | 00:44:33 | 00:00:00 | |
| DO2JMG | 2026-09-04 10:16:52 | 52.76236 | 8.34584 | 92° | 159km/h | 9313m | 3.9m/s | -33.7°C | 55.7% | 307.5hPa | 2.8V | 18:12:15 | 00:44:31 | 00:00:00 | |
| BIOWL9-15 | 2026-09-04 10:16:50 | 52.76239 | 8.34385 | 90° | 157km/h | 9300m | 5.3m/s | -33.6°C | 54.1% | 308.1hPa | 2.9V | 00:00:00 | 00:00:00 | 00:00:00 | |
| DM0DOS-11 | 2026-09-04 10:16:49 | 52.76244 | 8.34058 | 92° | 155km/h | 9277m | 4.8m/s | -33.4°C | 55.9% | 309.1hPa | 2.9V | 08:30:00 | 00:44:23 | 00:00:00 | |
| AA1-15 | 2026-09-04 10:16:49 | 52.76239 | 8.34385 | 91° | 157km/h | 9300m | 5.3m/s | -33.6°C | 55.7% | 308.1hPa | 2.9V | 18:12:15 | 00:44:28 | 00:00:00 | |
| DL1XH-west | 2026-09-04 10:16:48 | 52.76239 | 8.34319 | 91° | 157km/h | 9295m | 3.7m/s | -33.5°C | 55.9% | 308.4hPa | 2.9V | 18:12:15 | 00:44:27 | 00:00:00 | |
| BUE01 | 2026-09-04 10:16:47 | 52.76240 | 8.34254 | 91° | 157km/h | 9291m | 5.3m/s | -33.6°C | 54.0% | 308.5hPa | 2.9V | 00:00:00 | 00:00:00 | 00:00:00 | |
| DL3AQ-11 | 2026-09-04 10:16:45 | 52.76244 | 8.34058 | 92° | 153km/h | 9277m | 4.8m/s | -33.4°C | 53.1% | 309.1hPa | 2.9V | 00:00:00 | 00:00:00 | 00:00:00 | |
| DF8AY | 2026-09-04 10:16:43 | 52.76246 | 8.33993 | 92° | 157km/h | 9273m | 4.5m/s | -33.4°C | 55.5% | 309.3hPa | 2.9V | 18:12:15 | 00:44:22 | 00:00:00 | |
| DO2JMG | 2026-09-04 10:16:41 | 52.76248 | 8.33861 | 91° | 159km/h | 9263m | 5.4m/s | -33.3°C | 55.1% | 309.7hPa | 2.9V | 18:12:15 | 00:44:20 | 00:00:00 | |
| GOEST3-10 | 2026-09-04 10:16:41 | 52.76248 | 8.33860 | 92° | 161km/h | 9263m | 5.4m/s | -33.3°C | 54.6% | 309.7hPa | 2.9V | 00:00:00 | 00:44:20 | 00:00:00 | |
| DM0DOS-11 | 2026-09-04 10:16:39 | 52.76252 | 8.33394 | 92° | 159km/h | 9228m | 3.9m/s | -33°C | 53% | 311.3hPa | 2.9V | 08:30:00 | 00:44:13 | 00:00:00 | |
| DL1XH1-15 | 2026-09-04 10:16:38 | 52.76254 | 8.33328 | 92° | 159km/h | 9224m | 4.8m/s | -33°C | 52.7% | 311.5hPa | 2.9V | 08:30:00 | 00:44:12 | 00:00:00 | |
| AA1-15 | 2026-09-04 10:16:38 | 52.76249 | 8.33660 | 90° | 161km/h | 9248m | 4.7m/s | -33.1°C | 53.3% | 310.4hPa | 2.9V | 18:12:15 | 00:44:17 | 00:00:00 | |
| DL1XH-west | 2026-09-04 10:16:37 | 52.76249 | 8.33593 | 90° | 159km/h | 9242m | 6.1m/s | -33.1°C | 52.6% | 310.7hPa | 2.8V | 18:12:15 | 00:44:16 | 00:00:00 | |
| DF8AY | 2026-09-04 10:16:33 | 52.76253 | 8.33328 | 93° | 159km/h | 9224m | 4.8m/s | -33°C | 51.8% | 311.5hPa | 2.9V | 18:12:15 | 00:44:12 | 00:00:00 | |
| DJ2DS-15 | 2026-09-04 10:16:32 | 52.76255 | 8.33262 | 93° | 159km/h | 9220m | 4.3m/s | -32.8°C | 52.7% | 311.6hPa | 2.9V | 00:00:00 | 00:44:11 | 00:00:00 | |
| DL1XH-15 | 2026-09-04 10:16:31 | 52.76265 | 8.32868 | 91° | 159km/h | 9192m | 4.2m/s | -32.6°C | 51% | 312.9hPa | 2.9V | 08:30:00 | 00:44:05 | 00:00:00 | |
| DO2JMG | 2026-09-04 10:16:30 | 52.76259 | 8.33131 | 93° | 157km/h | 9210m | 4.7m/s | -32.8°C | 51.8% | 312.1hPa | 2.9V | 18:12:15 | 00:44:09 | 00:00:00 | |
| DM0DOS-11 | 2026-09-04 10:16:29 | 52.76266 | 8.32737 | 91° | 157km/h | 9181m | 3.8m/s | -32.6°C | 50.8% | 313.3hPa | 2.8V | 08:30:00 | 00:44:03 | 00:00:00 | |
| DL1XH1-15 | 2026-09-04 10:16:28 | 52.76267 | 8.32671 | 92° | 157km/h | 9176m | 5.5m/s | -32.5°C | 50.4% | 313.6hPa | 2.8V | 08:30:00 | 00:44:02 | 00:00:00 | |
| AA1-15 | 2026-09-04 10:16:27 | 52.76263 | 8.32934 | 92° | 159km/h | 9196m | 5.5m/s | -32.7°C | 51.3% | 312.7hPa | 2.9V | 18:12:15 | 00:44:06 | 00:00:00 | |
| DL1XH-west | 2026-09-04 10:16:26 | 52.76264 | 8.32868 | 92° | 159km/h | 9192m | 4.2m/s | -32.6°C | 51.2% | 312.9hPa | 2.9V | 18:12:15 | 00:44:05 | 00:00:00 | |
| DF8AY | 2026-09-04 10:16:23 | 52.76267 | 8.32671 | 92° | 157km/h | 9176m | 5.5m/s | -32.5°C | 51% | 313.6hPa | 2.8V | 18:12:15 | 00:44:02 | 00:00:00 | |
| DD8BA-10 | 2026-09-04 10:16:22 | 52.76269 | 8.32605 | 93° | 161km/h | 9171m | 4.7m/s | -32.4°C | 50.0% | 313.8hPa | 2.9V | 00:00:00 | 00:00:00 | 08:30:00 | |
| DL1XH-15 | 2026-09-04 10:16:21 | 52.76284 | 8.32205 | 94° | 161km/h | 9142m | 3.7m/s | -32.2°C | 49% | 315.1hPa | 2.9V | 08:30:00 | 00:43:55 | 00:00:00 | |
| DO2JMG | 2026-09-04 10:16:20 | 52.76272 | 8.32473 | 93° | 161km/h | 9162m | 5.6m/s | -32.4°C | 50.4% | 314.3hPa | 2.9V | 18:12:15 | 00:43:59 | 00:00:00 | |
| DM0DOS-11 | 2026-09-04 10:16:19 | 52.76290 | 8.32071 | 93° | 159km/h | 9135m | 3.1m/s | -32.1°C | 48.9% | 315.6hPa | 2.8V | 08:30:00 | 00:43:53 | 00:00:00 | |
| DO2SHX-10 | 2026-09-04 10:16:19 | 52.76275 | 8.32406 | 95° | 161km/h | 9156m | 6.0m/s | 0°C | 0% | 0hPa | 2.8V | 00:00:00 | 00:43:58 | 00:00:00 | |
| DL1XH1-15 | 2026-09-04 10:16:18 | 52.76292 | 8.32005 | 93° | 161km/h | 9130m | 5.2m/s | -32.1°C | 48.5% | 315.7hPa | 2.8V | 08:30:00 | 00:43:52 | 00:00:00 | |
| AA1-15 | 2026-09-04 10:16:16 | 52.76284 | 8.32205 | 94° | 161km/h | 9142m | 3.7m/s | -32.2°C | 49.6% | 315.1hPa | 2.9V | 18:12:15 | 00:43:55 | 00:00:00 | |
| DL1XH-west | 2026-09-04 10:16:15 | 52.76287 | 8.32138 | 94° | 161km/h | 9138m | 4.1m/s | -32.1°C | 49.5% | 315.4hPa | 2.9V | 18:12:15 | 00:43:54 | 00:00:00 | |
| DF8AY | 2026-09-04 10:16:12 | 52.76294 | 8.31939 | 92° | 159km/h | 9126m | 3.3m/s | -32°C | 49.3% | 315.9hPa | 2.9V | 18:12:15 | 00:43:51 | 00:00:00 | |
| BIOWL1-15 | 2026-09-04 10:16:11 | 52.76296 | 8.31872 | 92° | 159km/h | 9122m | 4.9m/s | -32°C | 49.2% | 316.1hPa | 2.9V | 18:12:15 | 00:43:50 | 00:00:00 | |
| DO2JMG | 2026-09-04 10:16:09 | 52.76299 | 8.31741 | 93° | 159km/h | 9114m | 4.1m/s | -31.9°C | 49.1% | 316.4hPa | 2.9V | 18:12:15 | 00:43:48 | 00:00:00 | |
| DL1XH1-15 | 2026-09-04 10:16:08 | 52.76312 | 8.31341 | 93° | 159km/h | 9088m | 6.4m/s | -31.7°C | 47.7% | 317.6hPa | 2.8V | 08:30:00 | 00:43:42 | 00:00:00 | |
| AA1-15 | 2026-09-04 10:16:06 | 52.76305 | 8.31542 | 93° | 161km/h | 9101m | 3.5m/s | -31.8°C | 49.1% | 317.1hPa | 2.9V | 18:12:15 | 00:43:45 | 00:00:00 | |
| DL1XH-west | 2026-09-04 10:16:05 | 52.76307 | 8.31475 | 93° | 161km/h | 9097m | 5.2m/s | -31.8°C | 49.2% | 317.2hPa | 2.9V | 18:12:15 | 00:43:44 | 00:00:00 | |
| DF8AY | 2026-09-04 10:16:01 | 52.76316 | 8.31209 | 93° | 159km/h | 9078m | 4.3m/s | -31.6°C | 49.5% | 318.1hPa | 2.9V | 18:12:15 | 00:43:40 | 00:00:00 | |
| GOEST3-10 | 2026-09-04 10:16:01 | 52.76316 | 8.31209 | 93° | 159km/h | 9078m | 4.2m/s | -31.5°C | 48.0% | 318.0hPa | 2.9V | 00:00:00 | 00:43:40 | 00:00:00 | |
| DL1LOL-11 | 2026-09-04 10:16:00 | 52.76316 | 8.31209 | 94° | 159km/h | 9078m | 4.3m/s | -31.6°C | 45.6% | 318.1hPa | 2.8V | 00:00:00 | 00:00:00 | 00:00:00 | |
| DM0DOS-11 | 2026-09-04 10:15:59 | 52.76331 | 8.30748 | 92° | 159km/h | 9049m | 3.7m/s | -31.5°C | 49.9% | 319.4hPa | 2.8V | 08:30:00 | 00:43:33 | 00:00:00 | |
| DO2JMG | 2026-09-04 10:15:59 | 52.76321 | 8.31078 | 94° | 157km/h | 9069m | 4.2m/s | -31.6°C | 50.4% | 318.5hPa | 2.9V | 18:12:15 | 00:43:38 | 00:00:00 | |
| AA1-15 | 2026-09-04 10:15:55 | 52.76329 | 8.30814 | 92° | 159km/h | 9053m | 5m/s | -31.5°C | 51.8% | 319.1hPa | 2.9V | 18:12:15 | 00:43:34 | 00:00:00 | |
| DL1XH-west | 2026-09-04 10:15:54 | 52.76331 | 8.30748 | 92° | 159km/h | 9049m | 3.7m/s | -31.5°C | 52.1% | 319.4hPa | 2.8V | 18:12:15 | 00:43:33 | 00:00:00 | |
| DF8AY | 2026-09-04 10:15:51 | 52.76336 | 8.30548 | 93° | 161km/h | 9035m | 5.6m/s | -31.4°C | 52.7% | 320hPa | 2.9V | 18:12:15 | 00:43:30 | 00:00:00 | |
| BIOWL1-15 | 2026-09-04 10:15:50 | 52.76338 | 8.30482 | 93° | 159km/h | 9031m | 3.9m/s | -31.4°C | 52.9% | 320.2hPa | 2.9V | 18:12:15 | 00:43:29 | 00:00:00 | |
| DL1XH1-15 | 2026-09-04 10:15:48 | 52.76353 | 8.30018 | 92° | 157km/h | 9000m | 5.2m/s | -31.3°C | 58.6% | 321.5hPa | 2.8V | 08:30:00 | 00:43:22 | 00:00:00 | |
| DO2JMG | 2026-09-04 10:15:48 | 52.76342 | 8.30349 | 93° | 161km/h | 9022m | 3.2m/s | -31.3°C | 53% | 320.6hPa | 2.9V | 18:12:15 | 00:43:27 | 00:00:00 | |
| AA1-15 | 2026-09-04 10:15:44 | 52.76352 | 8.30084 | 93° | 159km/h | 9005m | 3.4m/s | -31.3°C | 56.5% | 321.3hPa | 2.8V | 18:12:15 | 00:43:23 | 00:00:00 | |
| DL1XH-west | 2026-09-04 10:15:43 | 52.76353 | 8.30018 | 92° | 157km/h | 9000m | 5.2m/s | -31.3°C | 59.3% | 321.5hPa | 2.8V | 18:12:15 | 00:43:22 | 00:00:00 | |
| DD8BA-10 | 2026-09-04 10:15:42 | 52.76355 | 8.29952 | 93° | 161km/h | 8996m | 3.2m/s | -31.5°C | 64.9% | 321.7hPa | 2.9V | 00:00:00 | 00:00:00 | 00:00:00 | |
| DB0DAN | 2026-09-04 10:15:40 | 52.76359 | 8.29820 | 93° | 151km/h | 8989m | 2.9m/s | -31.7°C | 64.6% | 322.06hPa | 2.9V | 00:00:00 | 00:00:00 | 00:00:00 | |
| DF8AY | 2026-09-04 10:15:40 | 52.76359 | 8.29820 | 93° | 161km/h | 8988m | 2.9m/s | -31.7°C | 66.3% | 322.1hPa | 2.9V | 18:12:15 | 00:43:19 | 00:00:00 | |
| BIOWL1-15 | 2026-09-04 10:15:39 | 52.76361 | 8.29753 | 94° | 161km/h | 8984m | 5.5m/s | -31.6°C | 66.3% | 322.3hPa | 2.9V | 18:12:15 | 00:43:18 | 00:00:00 | |
| SONCRA | 2026-09-04 10:15:39 | 52.76364 | 8.29686 | 94° | 161km/h | 8979m | 4.5m/s | -31.6°C | 64.5% | 322.4hPa | 2.9V | 00:00:00 | 00:00:00 | 00:00:00 | |
| DL1XH1-15 | 2026-09-04 10:15:38 | 52.76383 | 8.29351 | 94° | 161km/h | 8960m | 5.5m/s | -31.6°C | 71.8% | 323.3hPa | 2.9V | 08:30:00 | 00:43:12 | 00:00:00 | |
| DO2JMG | 2026-09-04 10:15:37 | 52.76367 | 8.29619 | 95° | 162km/h | 8975m | 4.6m/s | -31.6°C | 67.4% | 322.7hPa | 2.8V | 18:12:15 | 00:43:16 | 00:00:00 | |
| AA1-15 | 2026-09-04 10:15:34 | 52.76379 | 8.29418 | 96° | 161km/h | 8964m | 1.7m/s | -31.6°C | 69.9% | 323.3hPa | 2.9V | 18:12:15 | 00:43:13 | 00:00:00 | |
| DL1XH-west | 2026-09-04 10:15:33 | 52.76383 | 8.29351 | 95° | 161km/h | 8960m | 5.5m/s | -31.6°C | 70.2% | 323.3hPa | 2.9V | 18:12:15 | 00:43:12 | 00:00:00 | |
| DJ2DS-15 | 2026-09-04 10:15:32 | 52.76385 | 8.29285 | 93° | 159km/h | 8955m | 4.9m/s | -31.5°C | 72.2% | 323.6hPa | 2.9V | 00:00:00 | 00:43:11 | 00:00:00 | |
| DL1XH-15 | 2026-09-04 10:15:31 | 52.76391 | 8.28899 | 91° | 153km/h | 8920m | 4.6m/s | -31.4°C | 74.7% | 325.2hPa | 2.9V | 08:30:00 | 00:43:05 | 00:00:00 | |
| DF8AY | 2026-09-04 10:15:30 | 52.76388 | 8.29155 | 91° | 153km/h | 8941m | 8.1m/s | -31.5°C | 70.1% | 324.2hPa | 2.9V | 18:12:15 | 00:43:09 | 00:00:00 | |
| DM0DOS-11 | 2026-09-04 10:15:29 | 52.76392 | 8.28771 | 90° | 155km/h | 8910m | 4m/s | -31.4°C | 76.7% | 325.6hPa | 2.9V | 08:30:00 | 00:43:03 | 00:00:00 | |
| BIOWL1-15 | 2026-09-04 10:15:28 | 52.76389 | 8.29027 | 91° | 155km/h | 8930m | 4.2m/s | -31.4°C | 71.2% | 324.8hPa | 2.8V | 18:12:15 | 00:43:07 | 00:00:00 | |
| DO2JMG | 2026-09-04 10:15:26 | 52.76391 | 8.28899 | 91° | 155km/h | 8920m | 4.6m/s | -31.4°C | 72.5% | 325.2hPa | 2.9V | 18:12:15 | 00:43:05 | 00:00:00 | |
| AA1-15 | 2026-09-04 10:15:24 | 52.76392 | 8.28771 | 90° | 155km/h | 8910m | 4m/s | -31.4°C | 74.3% | 325.7hPa | 2.9V | 18:12:15 | 00:43:03 | 00:00:00 | |
| DL1XH-west | 2026-09-04 10:15:23 | 52.76393 | 8.28706 | 92° | 155km/h | 8905m | 5.6m/s | -31.3°C | 74.9% | 325.9hPa | 2.9V | 18:12:15 | 00:43:02 | 00:00:00 | |
| DF5WG-10 | 2026-09-04 10:15:22 | 52.76395 | 8.28640 | 94° | 161km/h | 8900m | 4.3m/s | -31.2°C | 77.0% | 326.1hPa | 2.9V | 00:00:00 | 00:43:01 | 00:00:00 | |
| DL1XH-15 | 2026-09-04 10:15:21 | 52.76411 | 8.28241 | 95° | 164km/h | 8872m | 4.5m/s | -31.1°C | 76% | 327.3hPa | 2.9V | 08:30:00 | 00:42:55 | 00:00:00 | |
| DF8AY | 2026-09-04 10:15:20 | 52.76400 | 8.28508 | 93° | 159km/h | 8891m | 5.1m/s | -31.2°C | 76.2% | 326.5hPa | 2.9V | 18:12:15 | 00:42:59 | 00:00:00 | |
| DM0DOS-11 | 2026-09-04 10:15:19 | 52.76417 | 8.28104 | 92° | 164km/h | 8864m | 5.6m/s | -31°C | 76.2% | 327.7hPa | 2.9V | 08:30:00 | 00:42:53 | 00:00:00 | |
| D01LWL | 2026-09-04 10:15:19 | 52.76405 | 8.28375 | 94° | 159km/h | 8882m | 4.3m/s | 0°C | -1.0% | -1.0hPa | 2.9V | 00:00:00 | 00:00:00 | 00:00:00 | |
| DL1XH1-15 | 2026-09-04 10:15:18 | 52.76418 | 8.28036 | 89° | 161km/h | 8860m | 3.6m/s | -30.9°C | 76.2% | 328hPa | 2.9V | 08:30:00 | 00:42:52 | 00:00:00 | |
| BIOWL1-15 | 2026-09-04 10:15:18 | 52.76405 | 8.28375 | 94° | 159km/h | 8882m | 4.3m/s | -31.2°C | 76.1% | 326.9hPa | 2.9V | 18:12:15 | 00:42:57 | 00:00:00 | |
| DO2JMG | 2026-09-04 10:15:16 | 52.76411 | 8.28241 | 95° | 166km/h | 8872m | 4.5m/s | -31.1°C | 74.3% | 327.3hPa | 2.9V | 18:12:15 | 00:42:55 | 00:00:00 | |
| AA1-15 | 2026-09-04 10:15:13 | 52.76417 | 8.28036 | 90° | 161km/h | 8860m | 3.6m/s | -30.9°C | 73.5% | 328hPa | 2.9V | 18:12:15 | 00:42:52 | 00:00:00 | |
| DL1XH-west | 2026-09-04 10:15:12 | 52.76417 | 8.27969 | 89° | 161km/h | 8854m | 6.6m/s | -30.9°C | 73.3% | 328.2hPa | 2.8V | 18:12:15 | 00:42:51 | 00:00:00 | |
| DD8BA-10 | 2026-09-04 10:15:12 | 52.76417 | 8.27969 | 90° | 155km/h | 8855m | 6.6m/s | -30.9°C | 76.1% | 328.2hPa | 2.9V | 00:00:00 | 00:00:00 | 00:00:00 | |
| DL1XH-15 | 2026-09-04 10:15:11 | 52.76412 | 8.27585 | 91° | 146km/h | 8823m | 4.8m/s | -31°C | 85.6% | 329.7hPa | 2.9V | 08:30:00 | 00:42:45 | 00:00:00 | |
| DF8AY | 2026-09-04 10:15:09 | 52.76414 | 8.27773 | 88° | 153km/h | 8837m | 5.5m/s | -30.8°C | 75.4% | 329.1hPa | 2.9V | 18:12:15 | 00:42:48 | 00:00:00 | |
| DM0DOS-11 | 2026-09-04 10:15:09 | 52.76417 | 8.27460 | 94° | 159km/h | 8813m | 5m/s | -31.1°C | 89.5% | 330.1hPa | 2.9V | 08:30:00 | 00:42:43 | 00:00:00 | |
| DL1XH1-15 | 2026-09-04 10:15:08 | 52.76421 | 8.27393 | 94° | 162km/h | 8808m | 5m/s | -31°C | 88.2% | 330.2hPa | 2.9V | 08:30:00 | 00:42:42 | 00:00:00 | |
| BIOWL1-15 | 2026-09-04 10:15:07 | 52.76412 | 8.27647 | 89° | 148km/h | 8827m | 3.3m/s | -30.9°C | 81.3% | 329.5hPa | 2.9V | 18:12:15 | 00:42:46 | 00:00:00 | |
| DO2JMG | 2026-09-04 10:15:05 | 52.76414 | 8.27524 | 95° | 150km/h | 8818m | 4.8m/s | -31.1°C | 86% | 330hPa | 2.9V | 18:12:15 | 00:42:44 | 00:00:00 | |
| DL1XH-west | 2026-09-04 10:15:02 | 52.76423 | 8.27324 | 93° | 168km/h | 8804m | 3.8m/s | -31°C | 87.1% | 330.5hPa | 2.9V | 18:12:15 | 00:42:41 | 00:00:00 | |
| DD8BA-10 | 2026-09-04 10:15:02 | 52.76423 | 8.27324 | 94° | 159km/h | 8804m | 3.8m/s | -31.0°C | 89.1% | 330.5hPa | 2.9V | 00:00:00 | 00:00:00 | 00:00:00 | |
| DL1XH-15 | 2026-09-04 10:15:01 | 52.76430 | 8.26918 | 87° | 150km/h | 8772m | 7.5m/s | -31°C | 92.8% | 332hPa | 2.9V | 08:30:00 | 00:42:35 | 00:00:00 | |
| SMARD9-15 | 2026-09-04 10:15:00 | 52.76430 | 8.27114 | 92° | 164km/h | 8789m | 5.5m/s | -31.1°C | -1.0% | 331.2hPa | 2.8V | 00:00:00 | 00:00:00 | 00:00:00 | |
| DM0DOS-11 | 2026-09-04 10:14:59 | 52.76426 | 8.26793 | 87° | 151km/h | 8759m | 3.4m/s | -30.8°C | 93.7% | 332.6hPa | 2.8V | 08:30:00 | 00:42:33 | 00:00:00 | |
| DF8AY | 2026-09-04 10:14:59 | 52.76430 | 8.27114 | 93° | 166km/h | 8789m | 5.5m/s | -31.1°C | 89.8% | 331.2hPa | 2.9V | 18:12:15 | 00:42:38 | 00:00:00 | |
| DL1XH1-15 | 2026-09-04 10:14:58 | 52.76424 | 8.26730 | 86° | 151km/h | 8753m | 8m/s | -30.8°C | 94.2% | 332.9hPa | 2.9V | 08:30:00 | 00:42:32 | 00:00:00 | |
| BIOWL1-15 | 2026-09-04 10:14:56 | 52.76430 | 8.26918 | 88° | 150km/h | 8772m | 7.5m/s | -31°C | 90.7% | 332hPa | 2.9V | 18:12:15 | 00:42:35 | 00:00:00 | |
| DB0DAN | 2026-09-04 10:14:55 | 52.76428 | 8.26855 | 88° | 142km/h | 8764m | 7.8m/s | -30.9°C | 0% | 0hPa | 2.9V | 00:00:00 | 00:00:00 | 00:00:00 | |
| DO2JMG | 2026-09-04 10:14:55 | 52.76428 | 8.26855 | 88° | 150km/h | 8764m | 7.8m/s | -30.9°C | 89.7% | 332.3hPa | 2.9V | 18:12:15 | 00:42:34 | 00:00:00 | |
| DL1XH-west | 2026-09-04 10:14:52 | 52.76422 | 8.26666 | 86° | 155km/h | 8747m | 4.7m/s | -30.8°C | 90.4% | 333.1hPa | 2.9V | 18:12:15 | 00:42:31 | 00:00:00 | |
| DF8AY | 2026-09-04 10:14:49 | 52.76414 | 8.26470 | 86° | 157km/h | 8734m | 5.2m/s | -30.7°C | 91.1% | 333.7hPa | 2.9V | 18:12:15 | 00:42:28 | 00:00:00 | |
| DL1XH1-15 | 2026-09-04 10:14:48 | 52.76403 | 8.26079 | 88° | 153km/h | 8705m | 4.2m/s | -30.5°C | 94.8% | 335.1hPa | 2.9V | 08:30:00 | 00:42:22 | 00:00:00 | |
| BIOWL1-15 | 2026-09-04 10:14:48 | 52.76407 | 8.26274 | 87° | 159km/h | 8719m | 6.3m/s | -30.5°C | 89.7% | 334.4hPa | 2.9V | 18:12:15 | 00:42:25 | 00:00:00 | |
| DO2JMG | 2026-09-04 10:14:45 | 52.76405 | 8.26209 | 88° | 157km/h | 8714m | 4.1m/s | -30.5°C | 89.4% | 334.7hPa | 2.9V | 18:12:15 | 00:42:24 | 00:00:00 | |
| DL1XH-west | 2026-09-04 10:14:42 | 52.76401 | 8.26015 | 88° | 153km/h | 8701m | 3.6m/s | -30.4°C | 88.6% | 335.3hPa | 2.8V | 18:12:15 | 00:42:21 | 00:00:00 | |
| AA1-15 | 2026-09-04 10:14:41 | 52.76400 | 8.25951 | 89° | 155km/h | 8696m | 5.9m/s | -30.4°C | 87.7% | 335.5hPa | 2.9V | 18:12:15 | 00:42:20 | 00:00:00 | |
| DB0DAN | 2026-09-04 10:14:40 | 52.76399 | 8.25886 | 88° | 150km/h | 8691m | 3.8m/s | -30.4°C | 0% | 0hPa | 2.9V | 00:00:00 | 00:00:00 | 00:00:00 | |
| DF8AY | 2026-09-04 10:14:39 | 52.76398 | 8.25821 | 88° | 157km/h | 8687m | 4.9m/s | -30.3°C | 87.6% | 0hPa | 2.9V | 18:12:15 | 00:42:18 | 00:00:00 | |
| DD1CC8 | 2026-09-04 10:14:39 | 52.76396 | 8.25756 | 87° | 155km/h | 8683m | 3.3m/s | -30.3°C | 91.5% | 336.2hPa | 2.9V | 00:00:00 | 00:00:00 | 00:00:00 | |
| DL1XH1-15 | 2026-09-04 10:14:38 | 52.76383 | 8.25431 | 85° | 155km/h | 8661m | 5.4m/s | -30.1°C | 93.1% | 337.2hPa | 2.9V | 08:30:00 | 00:42:12 | 00:00:00 | |
| BIOWL1-15 | 2026-09-04 10:14:35 | 52.76389 | 8.25560 | 86° | 155km/h | 8669m | 5m/s | -30.2°C | 88.3% | 336.7hPa | 2.9V | 18:12:15 | 00:42:14 | 00:00:00 | |
| DO2JMG | 2026-09-04 10:14:34 | 52.76386 | 8.25495 | 85° | 155km/h | 8665m | 2.7m/s | -30.1°C | 88.7% | 337hPa | 2.9V | 18:12:15 | 00:42:13 | 00:00:00 | |
| DO9LL-15 | 2026-09-04 10:14:34 | 52.76386 | 8.25495 | 86° | 151km/h | 8665m | 2.6m/s | -30.1°C | 93.7% | 336.9hPa | 2.9V | 00:00:00 | 00:42:13 | 00:00:00 | |
| DJ2DS-15 | 2026-09-04 10:14:32 | 52.76381 | 8.25366 | 88° | 153km/h | 8655m | 5.9m/s | -30.0°C | 93.2% | 337.4hPa | 2.9V | 00:00:00 | 00:42:11 | 00:00:00 | |
| DL1XH-15 | 2026-09-04 10:14:31 | 52.76377 | 8.24983 | 90° | 150km/h | 8625m | 6.2m/s | -29.8°C | 90.2% | 339hPa | 2.9V | 08:30:00 | 00:42:05 | 00:00:00 | |
| DL1XH-west | 2026-09-04 10:14:31 | 52.76379 | 8.25301 | 88° | 155km/h | 8650m | 4.6m/s | -30°C | 88.5% | 337.7hPa | 2.9V | 18:12:15 | 00:42:10 | 00:00:00 | |
| AA1-15 | 2026-09-04 10:14:30 | 52.76378 | 8.25236 | 89° | 155km/h | 8645m | 5.9m/s | -30°C | 88.2% | 338hPa | 2.8V | 18:12:15 | 00:42:09 | 00:00:00 | |
| DM0DOS-11 | 2026-09-04 10:14:29 | 52.76375 | 8.24858 | 87° | 151km/h | 8616m | 4.5m/s | -29.7°C | 89.5% | 339.4hPa | 2.8V | 08:30:00 | 00:42:03 | 00:00:00 | |
| DF8AY | 2026-09-04 10:14:28 | 52.76377 | 8.25109 | 89° | 151km/h | 8635m | 6.3m/s | -29.9°C | 87.6% | 0hPa | 2.9V | 18:12:15 | 00:42:07 | 00:00:00 | |
| BIOWL1-15 | 2026-09-04 10:14:27 | 52.76376 | 8.24920 | 88° | 150km/h | 8620m | 4.3m/s | -29.7°C | 86.3% | 339.2hPa | 2.9V | 18:12:15 | 00:42:04 | 00:00:00 | |
| DO2JMG | 2026-09-04 10:14:24 | 52.76375 | 8.24858 | 88° | 151km/h | 8616m | 4.5m/s | -29.7°C | 86.2% | 339.4hPa | 2.8V | 18:12:15 | 00:42:03 | 00:00:00 | |
| DL1XH-west | 2026-09-04 10:14:21 | 52.76369 | 8.24671 | 87° | 146km/h | 8601m | 5.7m/s | -29.6°C | 84.9% | 340.2hPa | 2.9V | 18:12:15 | 00:42:00 | 00:00:00 | |
| AA1-15 | 2026-09-04 10:14:20 | 52.76367 | 8.24610 | 87° | 148km/h | 8595m | 5.7m/s | -29.5°C | 84.4% | 340.5hPa | 2.9V | 18:12:15 | 00:41:59 | 00:00:00 | |
| DM0DOS-11 | 2026-09-04 10:14:19 | 52.76360 | 8.24230 | 87° | 157km/h | 8567m | 5.4m/s | -29.4°C | 89.2% | 341.6hPa | 2.8V | 08:30:00 | 00:41:53 | 00:00:00 | |
| DL3AQ-11 | 2026-09-04 10:14:19 | 52.76364 | 8.24486 | 88° | 150km/h | 8585m | 4.7m/s | -29.4°C | 86.4% | 340.9hPa | 2.8V | 00:00:00 | 00:00:00 | 00:00:00 | |
| DL1XH1-15 | 2026-09-04 10:14:18 | 52.76358 | 8.24164 | 87° | 159km/h | 8562m | 4.7m/s | -29.3°C | 89.5% | 342hPa | 2.8V | 08:30:00 | 00:41:52 | 00:00:00 | |
| DF8AY | 2026-09-04 10:14:18 | 52.76364 | 8.24486 | 89° | 150km/h | 8585m | 4.7m/s | -29.4°C | 84.1% | 0hPa | 2.9V | 18:12:15 | 00:41:57 | 00:00:00 | |
| BIOWL1-15 | 2026-09-04 10:14:16 | 52.76360 | 8.24230 | 88° | 157km/h | 8567m | 5.4m/s | -29.4°C | 84.2% | 341.6hPa | 2.8V | 18:12:15 | 00:41:53 | 00:00:00 | |
| DO2JMG | 2026-09-04 10:14:13 | 52.76358 | 8.24164 | 88° | 159km/h | 8562m | 4.7m/s | -29.3°C | 83.7% | 342hPa | 2.8V | 18:12:15 | 00:41:52 | 00:00:00 | |
| DL1XH-west | 2026-09-04 10:14:11 | 52.76356 | 8.24034 | 89° | 155km/h | 8552m | 6.5m/s | -29.3°C | 82.9% | 342.5hPa | 2.9V | 18:12:15 | 00:41:50 | 00:00:00 | |
| DO3DL | 2026-09-04 10:14:10 | 52.76356 | 8.24034 | 90° | 155km/h | 8552m | 6.5m/s | -29.3°C | 87.1% | 342.5hPa | 2.9V | 00:00:00 | 00:00:00 | 00:00:00 | |
| DM0DOS-11 | 2026-09-04 10:14:09 | 52.76359 | 8.23604 | 89° | 137km/h | 8517m | 6.3m/s | -28.9°C | 88.7% | 344.2hPa | 2.9V | 08:30:00 | 00:41:43 | 00:00:00 | |
| AA1-15 | 2026-09-04 10:14:09 | 52.76357 | 8.23908 | 91° | 148km/h | 8543m | 2.9m/s | -29.2°C | 82.8% | 343hPa | 2.9V | 18:12:15 | 00:41:48 | 00:00:00 | |
| DL1XH1-15 | 2026-09-04 10:14:08 | 52.76358 | 8.23546 | 87° | 137km/h | 8512m | 3.8m/s | -28.9°C | 88.8% | 344.4hPa | 2.9V | 08:30:00 | 00:41:42 | 00:00:00 | |
| DF8AY | 2026-09-04 10:14:07 | 52.76359 | 8.23785 | 91° | 148km/h | 8532m | 6.1m/s | -29.1°C | 0% | 0hPa | 2.9V | 18:12:15 | 00:41:46 | 00:00:00 | |
| BIOWL1-15 | 2026-09-04 10:14:06 | 52.76358 | 8.23546 | 88° | 137km/h | 8512m | 3.8m/s | -28.9°C | 82.3% | 344.4hPa | 2.9V | 18:12:15 | 00:41:42 | 00:00:00 | |
| DO2JMG | 2026-09-04 10:14:02 | 52.76357 | 8.23488 | 87° | 142km/h | 8507m | 7m/s | -28.9°C | 82.2% | 344.7hPa | 2.8V | 18:12:15 | 00:41:41 | 00:00:00 | |
| DL1XH-15 | 2026-09-04 10:14:01 | 52.76353 | 8.23079 | 87° | 162km/h | 8469m | 5.3m/s | -28.5°C | 86.8% | 346.6hPa | 2.9V | 08:30:00 | 00:41:35 | 00:00:00 | |
| DL1XH-west | 2026-09-04 10:14:00 | 52.76354 | 8.23362 | 89° | 161km/h | 8494m | 5.6m/s | -28.7°C | 82.1% | 345.3hPa | 2.9V | 18:12:15 | 00:41:39 | 00:00:00 | |
| AA1-15 | 2026-09-04 10:13:59 | 52.76354 | 8.23293 | 91° | 168km/h | 8489m | 5.8m/s | -28.7°C | 81.8% | 345.6hPa | 2.9V | 18:12:15 | 00:41:38 | 00:00:00 | |
| DL1XH1-15 | 2026-09-04 10:13:58 | 52.76347 | 8.22890 | 87° | 139km/h | 8447m | 7m/s | -28.3°C | 83% | 347.4hPa | 2.9V | 08:30:00 | 00:41:32 | 00:00:00 | |
| DF8AY | 2026-09-04 10:13:56 | 52.76354 | 8.23079 | 88° | 162km/h | 8469m | 5.3m/s | 0°C | 0% | 0hPa | 2.9V | 18:12:15 | 00:41:35 | 00:00:00 | |
| DO2JMG | 2026-09-04 10:13:52 | 52.76345 | 8.22832 | 88° | 137km/h | 8439m | 8.5m/s | -28.2°C | 78.4% | 347.9hPa | 2.9V | 18:12:15 | 00:41:31 | 00:00:00 | |
| DL1XH-west | 2026-09-04 10:13:50 | 52.76346 | 8.22716 | 92° | 144km/h | 8427m | 4.8m/s | -28°C | 78.2% | 348.5hPa | 2.9V | 18:12:15 | 00:41:29 | 00:00:00 | |
| AA1-15 | 2026-09-04 10:13:49 | 52.76347 | 8.22655 | 93° | 148km/h | 8421m | 6.4m/s | -28°C | 78.2% | 348.7hPa | 2.9V | 18:12:15 | 00:41:28 | 00:00:00 | |
| DJ2DS-15 | 2026-09-04 10:13:47 | 52.76353 | 8.22531 | 94° | 150km/h | 8409m | 5.8m/s | -27.9°C | 79.6% | 349.3hPa | 2.9V | 00:00:00 | 00:00:00 | 00:00:00 | |
| BIOWL1-15 | 2026-09-04 10:13:42 | 52.76365 | 8.22230 | 93° | 146km/h | 8381m | 4.7m/s | -27.6°C | 77.1% | 350.7hPa | 2.9V | 18:12:15 | 00:41:21 | 00:00:00 | |
| DO2JMG | 2026-09-04 10:13:41 | 52.76367 | 8.22169 | 92° | 148km/h | 8376m | 5.8m/s | -27.6°C | 77.5% | 351hPa | 2.9V | 18:12:15 | 00:41:20 | 00:00:00 | |
| DB0DAN | 2026-09-04 10:13:40 | 52.76367 | 8.22107 | 89° | 142km/h | 8370m | 8m/s | -27.5°C | 0% | 0hPa | 2.9V | 00:00:00 | 00:00:00 | 00:00:00 | |
| DL1XH-west | 2026-09-04 10:13:39 | 52.76366 | 8.22044 | 88° | 150km/h | 8361m | 8.3m/s | -27.5°C | 76.5% | 351.7hPa | 2.9V | 18:12:15 | 00:41:18 | 00:00:00 | |
| DL1XH1-15 | 2026-09-04 10:13:38 | 52.76357 | 8.21650 | 88° | 159km/h | 8328m | 6.5m/s | -27.2°C | 80.8% | 353.4hPa | 2.9V | 08:30:00 | 00:41:12 | 00:00:00 | |
| AA1-15 | 2026-09-04 10:13:38 | 52.76365 | 8.21981 | 88° | 155km/h | 8355m | 5.1m/s | -27.4°C | 76.6% | 352.1hPa | 2.9V | 18:12:15 | 00:41:17 | 00:00:00 | |
| DB0NH | 2026-09-04 10:13:37 | 52.76363 | 8.21916 | 89° | 155km/h | 8350m | 5.1m/s | 0°C | 0% | 0hPa | 2.9V | 00:00:00 | 00:41:16 | 00:00:00 | |
| GOEST3-10 | 2026-09-04 10:13:36 | 52.76362 | 8.21850 | 89° | 159km/h | 8344m | 7.3m/s | -27.3°C | 80.1% | 352.5hPa | 2.9V | 00:00:00 | 00:00:00 | 00:00:00 | |
| DO9LL-15 | 2026-09-04 10:13:34 | 52.76358 | 8.21717 | 88° | 155km/h | 8333m | 3.8m/s | -27.2°C | 80.7% | 353.2hPa | 2.9V | 00:00:00 | 00:41:13 | 00:00:00 | |
| DD1CC3-15 | 2026-09-04 10:13:33 | 52.76358 | 8.21717 | 88° | 162km/h | 8333m | 3.9m/s | -27.2°C | 78.3% | 353.2hPa | 2.9V | 00:00:00 | 00:00:00 | 00:00:00 | |
| DJ2DS-15 | 2026-09-04 10:13:32 | 52.76356 | 8.21584 | 91° | 157km/h | 8322m | 4.6m/s | -27.1°C | 80.4% | 353.7hPa | 2.9V | 00:00:00 | 00:41:11 | 00:00:00 | |
| DL1XH-15 | 2026-09-04 10:13:31 | 52.76359 | 8.21194 | 88° | 159km/h | 8284m | 4.4m/s | -26.7°C | 77.3% | 355.6hPa | 2.9V | 08:30:00 | 00:41:05 | 00:00:00 | |
| BIOWL1-15 | 2026-09-04 10:13:31 | 52.76357 | 8.21520 | 91° | 155km/h | 8316m | 8.4m/s | -27.1°C | 76.8% | 354hPa | 2.9V | 18:12:15 | 00:41:10 | 00:00:00 | |
| DO2JMG | 2026-09-04 10:13:30 | 52.76357 | 8.21455 | 91° | 155km/h | 8307m | 8.9m/s | -27°C | 76% | 354.4hPa | 2.9V | 18:12:15 | 00:41:09 | 00:00:00 | |
| DO3DL | 2026-09-04 10:13:29 | 52.76357 | 8.21455 | 92° | 155km/h | 8307m | 8.9m/s | -27.0°C | 76.2% | 354.4hPa | 2.9V | 00:00:00 | 00:00:00 | 00:00:00 | |
| DL1XH1-15 | 2026-09-04 10:13:28 | 52.76359 | 8.20995 | 91° | 155km/h | 8270m | 4.6m/s | -26.6°C | 76.7% | 356.4hPa | 2.9V | 08:30:00 | 00:41:02 | 00:00:00 | |
| DL1XH-west | 2026-09-04 10:13:28 | 52.76359 | 8.21325 | 91° | 157km/h | 8295m | 6.3m/s | -26.9°C | 75.7% | 355.1hPa | 2.9V | 18:12:15 | 00:41:07 | 00:00:00 | |
| AA1-15 | 2026-09-04 10:13:27 | 52.76359 | 8.21259 | 90° | 155km/h | 8289m | 5m/s | -26.8°C | 75.5% | 355.3hPa | 2.9V | 18:12:15 | 00:41:06 | 00:00:00 | |
| DC6BW-12 | 2026-09-04 10:13:26 | 52.76360 | 8.21259 | 91° | 155km/h | 8289m | 5.0m/s | -26.8°C | 75.7% | 355.3hPa | 2.9V | 00:00:00 | 00:00:00 | 00:00:00 | |
| DB0DAN | 2026-09-04 10:13:25 | 52.76358 | 8.21127 | 89° | 153km/h | 8280m | 5m/s | -26.7°C | 0% | 0hPa | 2.9V | 00:00:00 | 00:00:00 | 00:00:00 | |
| DL3AQ-11 | 2026-09-04 10:13:25 | 52.76358 | 8.21061 | 90° | 159km/h | 8274m | 5.3m/s | -26.7°C | 74.5% | 356.1hPa | 2.9V | 00:00:00 | 00:00:00 | 00:00:00 | |
| DF5WG-10 | 2026-09-04 10:13:22 | 52.76360 | 8.20931 | 93° | 157km/h | 8265m | 5.2m/s | -26.5°C | 76.2% | 356.4hPa | 2.9V | 00:00:00 | 00:41:01 | 00:00:00 | |
| DL1XH-15 | 2026-09-04 10:13:21 | 52.76368 | 8.20543 | 91° | 155km/h | 8236m | 3.8m/s | -26.3°C | 75.5% | 357.9hPa | 2.9V | 08:30:00 | 00:40:55 | 00:00:00 | |
| BIOWL1-15 | 2026-09-04 10:13:20 | 52.76363 | 8.20802 | 92° | 155km/h | 8254m | 5.4m/s | -26.5°C | 72.8% | 357.1hPa | 2.9V | 18:12:15 | 00:40:59 | 00:00:00 | |
| Es werden nur die letzten 3500 von 4753 Frames angezeigt. GPX/KML und Diagramme bleiben verfügbar. | |||||||||||||||